<?xml version='1.0' encoding='UTF-8'?><gpx version="1.1" creator="JPX - https://github.com/jenetics/jpx" xmlns="http://www.topografix.com/GPX/1/1"><trk><trkseg><trkpt lat="8.7754613" lon="-75.8689084"><ele>15.999999999999998</ele><time>2026-04-18T09:53:34.607Z</time></trkpt><trkpt lat="8.775351" lon="-75.8689281"><ele>16.0</ele><time>2026-04-18T09:53:41.614Z</time></trkpt><trkpt lat="8.775282" lon="-75.8689176"><ele>16.0</ele><time>2026-04-18T09:54:00.703Z</time></trkpt><trkpt lat="8.7753216" lon="-75.8689709"><ele>16.0</ele><time>2026-04-18T09:54:04.703Z</time></trkpt><trkpt lat="8.7753647" lon="-75.8690259"><ele>15.999999999999998</ele><time>2026-04-18T09:54:07.702Z</time></trkpt><trkpt lat="8.7754248" lon="-75.8690575"><ele>16.0</ele><time>2026-04-18T09:54:11.704Z</time></trkpt><trkpt lat="8.7754953" lon="-75.8690377"><ele>16.0</ele><time>2026-04-18T09:54:17.703Z</time></trkpt><trkpt lat="8.7755612" lon="-75.8690193"><ele>15.999999999999998</ele><time>2026-04-18T09:54:21.704Z</time></trkpt><trkpt lat="8.7756128" lon="-75.8689702"><ele>16.0</ele><time>2026-04-18T09:54:24.703Z</time></trkpt><trkpt lat="8.7755944" lon="-75.8688931"><ele>16.0</ele><time>2026-04-18T09:54:27.704Z</time></trkpt><trkpt lat="8.7755547" lon="-75.8688298"><ele>15.999999999999998</ele><time>2026-04-18T09:54:30.703Z</time></trkpt><trkpt lat="8.7755308" lon="-75.8687551"><ele>16.0</ele><time>2026-04-18T09:54:33.703Z</time></trkpt><trkpt lat="8.7755033" lon="-75.86868"><ele>16.0</ele><time>2026-04-18T09:54:36.703Z</time></trkpt><trkpt lat="8.7754833" lon="-75.8685876"><ele>16.0</ele><time>2026-04-18T09:54:39.702Z</time></trkpt><trkpt lat="8.7754686" lon="-75.8685206"><ele>15.999999999999998</ele><time>2026-04-18T09:54:41.702Z</time></trkpt><trkpt lat="8.7754317" lon="-75.8684577"><ele>16.0</ele><time>2026-04-18T09:54:43.702Z</time></trkpt><trkpt lat="8.7753981" lon="-75.868391"><ele>16.0</ele><time>2026-04-18T09:54:45.701Z</time></trkpt><trkpt lat="8.775371" lon="-75.868324"><ele>15.999999999999998</ele><time>2026-04-18T09:54:47.702Z</time></trkpt><trkpt lat="8.7753419" lon="-75.8682588"><ele>16.0</ele><time>2026-04-18T09:54:49.703Z</time></trkpt><trkpt lat="8.7753093" lon="-75.8681944"><ele>16.0</ele><time>2026-04-18T09:54:51.702Z</time></trkpt><trkpt lat="8.7752824" lon="-75.8681246"><ele>16.166666666666664</ele><time>2026-04-18T09:54:53.702Z</time></trkpt><trkpt lat="8.7752518" lon="-75.8680526"><ele>16.333333333333332</ele><time>2026-04-18T09:54:55.702Z</time></trkpt><trkpt lat="8.7752169" lon="-75.8679786"><ele>16.5</ele><time>2026-04-18T09:54:57.702Z</time></trkpt><trkpt lat="8.7751837" lon="-75.8679005"><ele>16.666666666666668</ele><time>2026-04-18T09:54:59.702Z</time></trkpt><trkpt lat="8.7751677" lon="-75.8678208"><ele>16.833333333333336</ele><time>2026-04-18T09:55:01.703Z</time></trkpt><trkpt lat="8.7751847" lon="-75.8677408"><ele>17.0</ele><time>2026-04-18T09:55:03.702Z</time></trkpt><trkpt lat="8.7752353" lon="-75.8676775"><ele>17.0</ele><time>2026-04-18T09:55:05.702Z</time></trkpt><trkpt lat="8.775304" lon="-75.8676384"><ele>17.0</ele><time>2026-04-18T09:55:07.702Z</time></trkpt><trkpt lat="8.7753851" lon="-75.8676118"><ele>17.0</ele><time>2026-04-18T09:55:09.701Z</time></trkpt><trkpt lat="8.7754636" lon="-75.8675852"><ele>17.0</ele><time>2026-04-18T09:55:11.702Z</time></trkpt><trkpt lat="8.7755544" lon="-75.8675373"><ele>17.0</ele><time>2026-04-18T09:55:13.702Z</time></trkpt><trkpt lat="8.7756448" lon="-75.8674914"><ele>17.166666666666668</ele><time>2026-04-18T09:55:15.702Z</time></trkpt><trkpt lat="8.7757265" lon="-75.8674555"><ele>17.333333333333336</ele><time>2026-04-18T09:55:17.703Z</time></trkpt><trkpt lat="8.7758057" lon="-75.8674211"><ele>17.5</ele><time>2026-04-18T09:55:19.702Z</time></trkpt><trkpt lat="8.7758843" lon="-75.8673853"><ele>17.666666666666668</ele><time>2026-04-18T09:55:21.703Z</time></trkpt><trkpt lat="8.7759655" lon="-75.8673532"><ele>17.833333333333332</ele><time>2026-04-18T09:55:23.702Z</time></trkpt><trkpt lat="8.7760465" lon="-75.867309"><ele>18.0</ele><time>2026-04-18T09:55:25.703Z</time></trkpt><trkpt lat="8.7761306" lon="-75.8672779"><ele>18.0</ele><time>2026-04-18T09:55:27.702Z</time></trkpt><trkpt lat="8.7762167" lon="-75.867244"><ele>18.0</ele><time>2026-04-18T09:55:29.702Z</time></trkpt><trkpt lat="8.7763023" lon="-75.8671973"><ele>18.0</ele><time>2026-04-18T09:55:31.702Z</time></trkpt><trkpt lat="8.7763957" lon="-75.8671684"><ele>18.0</ele><time>2026-04-18T09:55:33.702Z</time></trkpt><trkpt lat="8.7764798" lon="-75.8671396"><ele>18.0</ele><time>2026-04-18T09:55:35.702Z</time></trkpt><trkpt lat="8.7765506" lon="-75.8670847"><ele>18.0</ele><time>2026-04-18T09:55:37.702Z</time></trkpt><trkpt lat="8.7765524" lon="-75.8669991"><ele>18.0</ele><time>2026-04-18T09:55:39.703Z</time></trkpt><trkpt lat="8.7765204" lon="-75.8669167"><ele>18.0</ele><time>2026-04-18T09:55:41.702Z</time></trkpt><trkpt lat="8.7764818" lon="-75.8668347"><ele>18.0</ele><time>2026-04-18T09:55:43.702Z</time></trkpt><trkpt lat="8.7764281" lon="-75.8667566"><ele>18.0</ele><time>2026-04-18T09:55:45.703Z</time></trkpt><trkpt lat="8.7763925" lon="-75.8666668"><ele>17.8</ele><time>2026-04-18T09:55:47.702Z</time></trkpt><trkpt lat="8.7763637" lon="-75.8665727"><ele>17.6</ele><time>2026-04-18T09:55:49.702Z</time></trkpt><trkpt lat="8.7763298" lon="-75.8664738"><ele>17.4</ele><time>2026-04-18T09:55:51.702Z</time></trkpt><trkpt lat="8.7763068" lon="-75.8663843"><ele>17.2</ele><time>2026-04-18T09:55:53.702Z</time></trkpt><trkpt lat="8.7762751" lon="-75.8662984"><ele>17.0</ele><time>2026-04-18T09:55:55.702Z</time></trkpt><trkpt lat="8.7762483" lon="-75.8662302"><ele>17.0</ele><time>2026-04-18T09:55:57.703Z</time></trkpt><trkpt lat="8.7762109" lon="-75.8661459"><ele>17.0</ele><time>2026-04-18T09:55:59.702Z</time></trkpt><trkpt lat="8.7761719" lon="-75.8660538"><ele>17.0</ele><time>2026-04-18T09:56:01.702Z</time></trkpt><trkpt lat="8.7761272" lon="-75.8659666"><ele>17.0</ele><time>2026-04-18T09:56:03.702Z</time></trkpt><trkpt lat="8.7760853" lon="-75.8658734"><ele>17.0</ele><time>2026-04-18T09:56:05.702Z</time></trkpt><trkpt lat="8.7760363" lon="-75.8657984"><ele>16.833333333333336</ele><time>2026-04-18T09:56:07.702Z</time></trkpt><trkpt lat="8.7760112" lon="-75.8657225"><ele>16.666666666666668</ele><time>2026-04-18T09:56:09.702Z</time></trkpt><trkpt lat="8.7759834" lon="-75.8656435"><ele>16.5</ele><time>2026-04-18T09:56:11.702Z</time></trkpt><trkpt lat="8.7759625" lon="-75.8655642"><ele>16.333333333333332</ele><time>2026-04-18T09:56:13.702Z</time></trkpt><trkpt lat="8.7759372" lon="-75.8654966"><ele>16.166666666666664</ele><time>2026-04-18T09:56:15.702Z</time></trkpt><trkpt lat="8.775912" lon="-75.8654303"><ele>16.0</ele><time>2026-04-18T09:56:17.702Z</time></trkpt><trkpt lat="8.7758911" lon="-75.8653646"><ele>16.0</ele><time>2026-04-18T09:56:19.702Z</time></trkpt><trkpt lat="8.7758534" lon="-75.8652912"><ele>15.999999999999998</ele><time>2026-04-18T09:56:22.702Z</time></trkpt><trkpt lat="8.7758216" lon="-75.8652233"><ele>16.0</ele><time>2026-04-18T09:56:26.702Z</time></trkpt><trkpt lat="8.7757957" lon="-75.8651482"><ele>16.0</ele><time>2026-04-18T09:56:30.702Z</time></trkpt><trkpt lat="8.7757706" lon="-75.8650757"><ele>15.999999999999998</ele><time>2026-04-18T09:56:33.702Z</time></trkpt><trkpt lat="8.7757699" lon="-75.8650114"><ele>16.0</ele><time>2026-04-18T09:56:35.702Z</time></trkpt><trkpt lat="8.7757815" lon="-75.864946"><ele>16.0</ele><time>2026-04-18T09:56:37.702Z</time></trkpt><trkpt lat="8.7758306" lon="-75.8648789"><ele>16.0</ele><time>2026-04-18T09:56:39.702Z</time></trkpt><trkpt lat="8.7758986" lon="-75.8647967"><ele>16.0</ele><time>2026-04-18T09:56:41.701Z</time></trkpt><trkpt lat="8.775985" lon="-75.8647323"><ele>16.0</ele><time>2026-04-18T09:56:43.702Z</time></trkpt><trkpt lat="8.7760822" lon="-75.8646785"><ele>16.0</ele><time>2026-04-18T09:56:45.702Z</time></trkpt><trkpt lat="8.7761861" lon="-75.8646143"><ele>16.0</ele><time>2026-04-18T09:56:47.702Z</time></trkpt><trkpt lat="8.7762861" lon="-75.8645472"><ele>16.2</ele><time>2026-04-18T09:56:49.702Z</time></trkpt><trkpt lat="8.7763397" lon="-75.8645128"><ele>16.400000000000002</ele><time>2026-04-18T09:56:50.702Z</time></trkpt><trkpt lat="8.7764404" lon="-75.8644533"><ele>16.6</ele><time>2026-04-18T09:56:52.702Z</time></trkpt><trkpt lat="8.7765456" lon="-75.8643919"><ele>16.8</ele><time>2026-04-18T09:56:54.702Z</time></trkpt><trkpt lat="8.776656" lon="-75.8643413"><ele>17.0</ele><time>2026-04-18T09:56:56.703Z</time></trkpt><trkpt lat="8.7767126" lon="-75.8643106"><ele>16.6</ele><time>2026-04-18T09:56:57.702Z</time></trkpt><trkpt lat="8.7768157" lon="-75.8642538"><ele>16.2</ele><time>2026-04-18T09:56:59.702Z</time></trkpt><trkpt lat="8.7768813" lon="-75.8642255"><ele>15.8</ele><time>2026-04-18T09:57:00.702Z</time></trkpt><trkpt lat="8.7769803" lon="-75.864156"><ele>15.4</ele><time>2026-04-18T09:57:02.703Z</time></trkpt><trkpt lat="8.7770355" lon="-75.8641245"><ele>15.0</ele><time>2026-04-18T09:57:03.702Z</time></trkpt><trkpt lat="8.777139" lon="-75.8640515"><ele>14.857142857142858</ele><time>2026-04-18T09:57:05.702Z</time></trkpt><trkpt lat="8.7771961" lon="-75.8640122"><ele>14.714285714285714</ele><time>2026-04-18T09:57:06.703Z</time></trkpt><trkpt lat="8.7772552" lon="-75.8639776"><ele>14.571428571428571</ele><time>2026-04-18T09:57:07.701Z</time></trkpt><trkpt lat="8.7773145" lon="-75.863945"><ele>14.428571428571429</ele><time>2026-04-18T09:57:08.702Z</time></trkpt><trkpt lat="8.7773685" lon="-75.8639106"><ele>14.285714285714285</ele><time>2026-04-18T09:57:09.702Z</time></trkpt><trkpt lat="8.7774159" lon="-75.8638603"><ele>14.142857142857142</ele><time>2026-04-18T09:57:10.702Z</time></trkpt><trkpt lat="8.7774661" lon="-75.8638074"><ele>14.0</ele><time>2026-04-18T09:57:11.701Z</time></trkpt><trkpt lat="8.7775196" lon="-75.8637027"><ele>14.0</ele><time>2026-04-18T09:57:13.7Z</time></trkpt><trkpt lat="8.7775782" lon="-75.8636172"><ele>13.999999999999998</ele><time>2026-04-18T09:57:15.701Z</time></trkpt><trkpt lat="8.7776535" lon="-75.8635582"><ele>13.999999999999998</ele><time>2026-04-18T09:57:17.702Z</time></trkpt><trkpt lat="8.7777271" lon="-75.863497"><ele>14.0</ele><time>2026-04-18T09:57:19.702Z</time></trkpt><trkpt lat="8.7777993" lon="-75.8634475"><ele>14.0</ele><time>2026-04-18T09:57:21.702Z</time></trkpt><trkpt lat="8.7778743" lon="-75.8633919"><ele>14.0</ele><time>2026-04-18T09:57:23.702Z</time></trkpt><trkpt lat="8.7779535" lon="-75.8633371"><ele>13.999999999999998</ele><time>2026-04-18T09:57:25.703Z</time></trkpt><trkpt lat="8.7780337" lon="-75.8632796"><ele>13.999999999999998</ele><time>2026-04-18T09:57:27.702Z</time></trkpt><trkpt lat="8.7781149" lon="-75.8632223"><ele>14.0</ele><time>2026-04-18T09:57:29.702Z</time></trkpt><trkpt lat="8.7782018" lon="-75.8631649"><ele>14.0</ele><time>2026-04-18T09:57:31.702Z</time></trkpt><trkpt lat="8.7782893" lon="-75.8631186"><ele>14.000000000000002</ele><time>2026-04-18T09:57:33.701Z</time></trkpt><trkpt lat="8.7783688" lon="-75.863063"><ele>14.0</ele><time>2026-04-18T09:57:35.703Z</time></trkpt><trkpt lat="8.7784399" lon="-75.8630023"><ele>14.0</ele><time>2026-04-18T09:57:37.702Z</time></trkpt><trkpt lat="8.7785048" lon="-75.8629266"><ele>14.0</ele><time>2026-04-18T09:57:39.702Z</time></trkpt><trkpt lat="8.7785542" lon="-75.8628614"><ele>14.000000000000002</ele><time>2026-04-18T09:57:42.702Z</time></trkpt><trkpt lat="8.7786159" lon="-75.86284"><ele>14.0</ele><time>2026-04-18T10:01:58.701Z</time></trkpt><trkpt lat="8.7786737" lon="-75.8627882"><ele>14.428571428571429</ele><time>2026-04-18T10:02:02.701Z</time></trkpt><trkpt lat="8.7787511" lon="-75.8627751"><ele>14.857142857142858</ele><time>2026-04-18T10:02:05.701Z</time></trkpt><trkpt lat="8.7788193" lon="-75.8627774"><ele>15.285714285714285</ele><time>2026-04-18T10:02:08.701Z</time></trkpt><trkpt lat="8.7788787" lon="-75.8627562"><ele>15.714285714285714</ele><time>2026-04-18T10:02:13.701Z</time></trkpt><trkpt lat="8.7789491" lon="-75.8627631"><ele>16.142857142857142</ele><time>2026-04-18T10:02:17.7Z</time></trkpt><trkpt lat="8.7790135" lon="-75.8627402"><ele>16.57142857142857</ele><time>2026-04-18T10:02:21.701Z</time></trkpt><trkpt lat="8.7790477" lon="-75.8626786"><ele>17.0</ele><time>2026-04-18T10:02:25.702Z</time></trkpt><trkpt lat="8.7790245" lon="-75.8626153"><ele>16.999999999999996</ele><time>2026-04-18T10:02:28.701Z</time></trkpt><trkpt lat="8.7789641" lon="-75.8625894"><ele>17.0</ele><time>2026-04-18T10:02:31.701Z</time></trkpt><trkpt lat="8.7789048" lon="-75.8625669"><ele>17.0</ele><time>2026-04-18T10:02:34.702Z</time></trkpt><trkpt lat="8.7788419" lon="-75.8625901"><ele>17.0</ele><time>2026-04-18T10:02:38.7Z</time></trkpt><trkpt lat="8.7787804" lon="-75.8626294"><ele>17.0</ele><time>2026-04-18T10:02:42.701Z</time></trkpt><trkpt lat="8.7787295" lon="-75.8625808"><ele>16.999999999999996</ele><time>2026-04-18T10:02:47.702Z</time></trkpt><trkpt lat="8.7786776" lon="-75.8625176"><ele>17.0</ele><time>2026-04-18T10:02:52.701Z</time></trkpt><trkpt lat="8.778627" lon="-75.8624744"><ele>16.857142857142854</ele><time>2026-04-18T10:02:55.701Z</time></trkpt><trkpt lat="8.7786167" lon="-75.8624004"><ele>16.714285714285715</ele><time>2026-04-18T10:02:58.701Z</time></trkpt><trkpt lat="8.7785975" lon="-75.862337"><ele>16.57142857142857</ele><time>2026-04-18T10:03:01.701Z</time></trkpt><trkpt lat="8.7785776" lon="-75.8622758"><ele>16.428571428571427</ele><time>2026-04-18T10:03:04.701Z</time></trkpt><trkpt lat="8.7785519" lon="-75.8622172"><ele>16.285714285714285</ele><time>2026-04-18T10:03:08.7Z</time></trkpt><trkpt lat="8.7785002" lon="-75.8622771"><ele>16.142857142857142</ele><time>2026-04-18T10:03:10.701Z</time></trkpt><trkpt lat="8.7785071" lon="-75.8623507"><ele>16.0</ele><time>2026-04-18T10:03:12.701Z</time></trkpt><trkpt lat="8.7785192" lon="-75.8624134"><ele>16.0</ele><time>2026-04-18T10:03:14.7Z</time></trkpt><trkpt lat="8.7785232" lon="-75.8625001"><ele>15.999999999999998</ele><time>2026-04-18T10:03:17.701Z</time></trkpt><trkpt lat="8.7785358" lon="-75.8625711"><ele>16.0</ele><time>2026-04-18T10:03:20.7Z</time></trkpt><trkpt lat="8.7785563" lon="-75.8626495"><ele>16.0</ele><time>2026-04-18T10:03:24.701Z</time></trkpt><trkpt lat="8.7785711" lon="-75.8627217"><ele>15.999999999999998</ele><time>2026-04-18T10:03:28.701Z</time></trkpt><trkpt lat="8.7785836" lon="-75.8627867"><ele>16.0</ele><time>2026-04-18T10:03:32.701Z</time></trkpt><trkpt lat="8.778601" lon="-75.8628546"><ele>16.0</ele><time>2026-04-18T10:03:39.7Z</time></trkpt><trkpt lat="8.7786616" lon="-75.862816"><ele>16.166666666666664</ele><time>2026-04-18T10:09:19.7Z</time></trkpt><trkpt lat="8.7787154" lon="-75.8627803"><ele>16.333333333333332</ele><time>2026-04-18T10:09:22.699Z</time></trkpt><trkpt lat="8.7787993" lon="-75.8627666"><ele>16.5</ele><time>2026-04-18T10:09:26.7Z</time></trkpt><trkpt lat="8.778873" lon="-75.8627508"><ele>16.666666666666668</ele><time>2026-04-18T10:09:29.7Z</time></trkpt><trkpt lat="8.7789364" lon="-75.8627111"><ele>16.833333333333336</ele><time>2026-04-18T10:09:33.701Z</time></trkpt><trkpt lat="8.7788836" lon="-75.8627632"><ele>17.0</ele><time>2026-04-18T10:11:13.699Z</time></trkpt><trkpt lat="8.7788008" lon="-75.8627482"><ele>16.999999999999996</ele><time>2026-04-18T10:11:17.699Z</time></trkpt><trkpt lat="8.7787246" lon="-75.8627598"><ele>17.0</ele><time>2026-04-18T10:11:20.699Z</time></trkpt><trkpt lat="8.7786539" lon="-75.8627313"><ele>17.0</ele><time>2026-04-18T10:11:24.699Z</time></trkpt><trkpt lat="8.7787068" lon="-75.8627757"><ele>17.0</ele><time>2026-04-18T10:12:22.699Z</time></trkpt><trkpt lat="8.7787712" lon="-75.8627743"><ele>17.0</ele><time>2026-04-18T10:12:26.7Z</time></trkpt><trkpt lat="8.7788347" lon="-75.8627665"><ele>16.999999999999996</ele><time>2026-04-18T10:12:30.699Z</time></trkpt><trkpt lat="8.7789085" lon="-75.8627523"><ele>17.0</ele><time>2026-04-18T10:12:34.7Z</time></trkpt><trkpt lat="8.7789663" lon="-75.8627107"><ele>17.0</ele><time>2026-04-18T10:12:38.7Z</time></trkpt><trkpt lat="8.7790246" lon="-75.8626744"><ele>17.0</ele><time>2026-04-18T10:12:42.7Z</time></trkpt><trkpt lat="8.7790812" lon="-75.8626399"><ele>17.0</ele><time>2026-04-18T10:12:45.699Z</time></trkpt><trkpt lat="8.7791508" lon="-75.862604"><ele>17.0</ele><time>2026-04-18T10:12:48.699Z</time></trkpt><trkpt lat="8.7792264" lon="-75.8625669"><ele>17.0</ele><time>2026-04-18T10:12:51.699Z</time></trkpt><trkpt lat="8.7793006" lon="-75.8625326"><ele>17.0</ele><time>2026-04-18T10:12:54.699Z</time></trkpt><trkpt lat="8.779378" lon="-75.8624941"><ele>16.857142857142854</ele><time>2026-04-18T10:12:57.7Z</time></trkpt><trkpt lat="8.7794347" lon="-75.862465"><ele>16.714285714285715</ele><time>2026-04-18T10:12:59.699Z</time></trkpt><trkpt lat="8.779495" lon="-75.8624354"><ele>16.57142857142857</ele><time>2026-04-18T10:13:01.7Z</time></trkpt><trkpt lat="8.7795549" lon="-75.8623993"><ele>16.428571428571427</ele><time>2026-04-18T10:13:03.699Z</time></trkpt><trkpt lat="8.7796152" lon="-75.8623611"><ele>16.285714285714285</ele><time>2026-04-18T10:13:05.699Z</time></trkpt><trkpt lat="8.7796759" lon="-75.8623326"><ele>16.142857142857142</ele><time>2026-04-18T10:13:07.698Z</time></trkpt><trkpt lat="8.7797372" lon="-75.8623002"><ele>16.0</ele><time>2026-04-18T10:13:09.7Z</time></trkpt><trkpt lat="8.7798031" lon="-75.8622687"><ele>15.999999999999998</ele><time>2026-04-18T10:13:11.699Z</time></trkpt><trkpt lat="8.7798694" lon="-75.8622272"><ele>16.0</ele><time>2026-04-18T10:13:13.699Z</time></trkpt><trkpt lat="8.7799342" lon="-75.8621848"><ele>16.0</ele><time>2026-04-18T10:13:15.699Z</time></trkpt><trkpt lat="8.7800037" lon="-75.8621467"><ele>16.0</ele><time>2026-04-18T10:13:17.699Z</time></trkpt><trkpt lat="8.7800791" lon="-75.8621081"><ele>15.999999999999998</ele><time>2026-04-18T10:13:19.7Z</time></trkpt><trkpt lat="8.7801506" lon="-75.862066"><ele>16.0</ele><time>2026-04-18T10:13:21.699Z</time></trkpt><trkpt lat="8.7802175" lon="-75.8620315"><ele>15.571428571428571</ele><time>2026-04-18T10:13:23.7Z</time></trkpt><trkpt lat="8.7802811" lon="-75.8619936"><ele>15.142857142857142</ele><time>2026-04-18T10:13:25.7Z</time></trkpt><trkpt lat="8.7803485" lon="-75.8619582"><ele>14.714285714285714</ele><time>2026-04-18T10:13:27.699Z</time></trkpt><trkpt lat="8.7804185" lon="-75.8619356"><ele>14.285714285714285</ele><time>2026-04-18T10:13:29.699Z</time></trkpt><trkpt lat="8.7804912" lon="-75.861935"><ele>13.857142857142858</ele><time>2026-04-18T10:13:31.699Z</time></trkpt><trkpt lat="8.7805657" lon="-75.8619534"><ele>13.428571428571427</ele><time>2026-04-18T10:13:33.699Z</time></trkpt><trkpt lat="8.7806404" lon="-75.8619501"><ele>13.0</ele><time>2026-04-18T10:13:35.7Z</time></trkpt><trkpt lat="8.7807144" lon="-75.8619172"><ele>13.0</ele><time>2026-04-18T10:13:37.699Z</time></trkpt><trkpt lat="8.7807925" lon="-75.8618745"><ele>13.0</ele><time>2026-04-18T10:13:39.699Z</time></trkpt><trkpt lat="8.7808784" lon="-75.861833"><ele>13.0</ele><time>2026-04-18T10:13:41.699Z</time></trkpt><trkpt lat="8.7809657" lon="-75.8617907"><ele>13.0</ele><time>2026-04-18T10:13:43.699Z</time></trkpt><trkpt lat="8.78106" lon="-75.8617475"><ele>13.0</ele><time>2026-04-18T10:13:45.7Z</time></trkpt><trkpt lat="8.7811443" lon="-75.8616928"><ele>13.0</ele><time>2026-04-18T10:13:47.699Z</time></trkpt><trkpt lat="8.7812368" lon="-75.861626"><ele>13.0</ele><time>2026-04-18T10:13:49.699Z</time></trkpt><trkpt lat="8.7813285" lon="-75.8615745"><ele>13.0</ele><time>2026-04-18T10:13:51.699Z</time></trkpt><trkpt lat="8.7814258" lon="-75.8615236"><ele>13.0</ele><time>2026-04-18T10:13:53.699Z</time></trkpt><trkpt lat="8.7815248" lon="-75.8614715"><ele>13.0</ele><time>2026-04-18T10:13:55.699Z</time></trkpt><trkpt lat="8.7816161" lon="-75.861423"><ele>13.0</ele><time>2026-04-18T10:13:57.699Z</time></trkpt><trkpt lat="8.7817098" lon="-75.8613689"><ele>13.0</ele><time>2026-04-18T10:13:59.7Z</time></trkpt><trkpt lat="8.7817957" lon="-75.8613127"><ele>13.0</ele><time>2026-04-18T10:14:01.7Z</time></trkpt><trkpt lat="8.7818881" lon="-75.8612575"><ele>13.0</ele><time>2026-04-18T10:14:03.699Z</time></trkpt><trkpt lat="8.7819941" lon="-75.8612051"><ele>13.0</ele><time>2026-04-18T10:14:05.699Z</time></trkpt><trkpt lat="8.7820839" lon="-75.8611328"><ele>13.0</ele><time>2026-04-18T10:14:07.699Z</time></trkpt><trkpt lat="8.7822002" lon="-75.8610807"><ele>13.0</ele><time>2026-04-18T10:14:09.699Z</time></trkpt><trkpt lat="8.7822614" lon="-75.8610613"><ele>13.0</ele><time>2026-04-18T10:14:10.699Z</time></trkpt><trkpt lat="8.7823158" lon="-75.8610283"><ele>13.0</ele><time>2026-04-18T10:14:11.7Z</time></trkpt><trkpt lat="8.7824183" lon="-75.860967"><ele>13.0</ele><time>2026-04-18T10:14:13.7Z</time></trkpt><trkpt lat="8.7825316" lon="-75.8609113"><ele>13.0</ele><time>2026-04-18T10:14:15.699Z</time></trkpt><trkpt lat="8.7826364" lon="-75.8608519"><ele>13.0</ele><time>2026-04-18T10:14:17.699Z</time></trkpt><trkpt lat="8.7827423" lon="-75.8607943"><ele>13.0</ele><time>2026-04-18T10:14:19.699Z</time></trkpt><trkpt lat="8.7827991" lon="-75.8607564"><ele>13.0</ele><time>2026-04-18T10:14:20.699Z</time></trkpt><trkpt lat="8.7829006" lon="-75.8606931"><ele>13.0</ele><time>2026-04-18T10:14:22.699Z</time></trkpt><trkpt lat="8.7830067" lon="-75.8606338"><ele>13.0</ele><time>2026-04-18T10:14:24.7Z</time></trkpt><trkpt lat="8.7830637" lon="-75.8605969"><ele>13.0</ele><time>2026-04-18T10:14:25.699Z</time></trkpt><trkpt lat="8.7831577" lon="-75.8605494"><ele>13.0</ele><time>2026-04-18T10:14:27.7Z</time></trkpt><trkpt lat="8.7832537" lon="-75.8604915"><ele>13.0</ele><time>2026-04-18T10:14:29.699Z</time></trkpt><trkpt lat="8.7833167" lon="-75.8604525"><ele>13.0</ele><time>2026-04-18T10:14:30.699Z</time></trkpt><trkpt lat="8.7834289" lon="-75.8603889"><ele>12.999999999999998</ele><time>2026-04-18T10:14:32.699Z</time></trkpt><trkpt lat="8.7834851" lon="-75.8603476"><ele>13.0</ele><time>2026-04-18T10:14:33.699Z</time></trkpt><trkpt lat="8.7835415" lon="-75.8603105"><ele>13.0</ele><time>2026-04-18T10:14:34.699Z</time></trkpt><trkpt lat="8.7836008" lon="-75.8602746"><ele>13.0</ele><time>2026-04-18T10:14:35.699Z</time></trkpt><trkpt lat="8.7836595" lon="-75.8602323"><ele>12.999999999999998</ele><time>2026-04-18T10:14:36.699Z</time></trkpt><trkpt lat="8.7837215" lon="-75.8601958"><ele>13.0</ele><time>2026-04-18T10:14:37.698Z</time></trkpt><trkpt lat="8.7838288" lon="-75.8601253"><ele>13.333333333333332</ele><time>2026-04-18T10:14:39.699Z</time></trkpt><trkpt lat="8.7839438" lon="-75.8600652"><ele>13.666666666666666</ele><time>2026-04-18T10:14:41.698Z</time></trkpt><trkpt lat="8.7840478" lon="-75.8600036"><ele>14.0</ele><time>2026-04-18T10:14:43.699Z</time></trkpt><trkpt lat="8.7840996" lon="-75.8599638"><ele>14.333333333333332</ele><time>2026-04-18T10:14:44.7Z</time></trkpt><trkpt lat="8.7841569" lon="-75.8599355"><ele>14.666666666666666</ele><time>2026-04-18T10:14:45.699Z</time></trkpt><trkpt lat="8.7842148" lon="-75.8599025"><ele>15.0</ele><time>2026-04-18T10:14:46.7Z</time></trkpt><trkpt lat="8.7843177" lon="-75.8598438"><ele>14.666666666666666</ele><time>2026-04-18T10:14:48.699Z</time></trkpt><trkpt lat="8.7844256" lon="-75.8597838"><ele>14.333333333333332</ele><time>2026-04-18T10:14:50.699Z</time></trkpt><trkpt lat="8.7845224" lon="-75.8597184"><ele>14.0</ele><time>2026-04-18T10:14:52.699Z</time></trkpt><trkpt lat="8.7845814" lon="-75.8596812"><ele>13.666666666666666</ele><time>2026-04-18T10:14:53.699Z</time></trkpt><trkpt lat="8.7846389" lon="-75.8596484"><ele>13.333333333333332</ele><time>2026-04-18T10:14:54.698Z</time></trkpt><trkpt lat="8.7846938" lon="-75.8596119"><ele>13.0</ele><time>2026-04-18T10:14:55.699Z</time></trkpt><trkpt lat="8.7847527" lon="-75.8595811"><ele>13.0</ele><time>2026-04-18T10:14:56.699Z</time></trkpt><trkpt lat="8.7848585" lon="-75.8595306"><ele>13.0</ele><time>2026-04-18T10:14:58.698Z</time></trkpt><trkpt lat="8.7849149" lon="-75.8595022"><ele>13.0</ele><time>2026-04-18T10:14:59.699Z</time></trkpt><trkpt lat="8.7850268" lon="-75.8594444"><ele>13.0</ele><time>2026-04-18T10:15:01.699Z</time></trkpt><trkpt lat="8.7851348" lon="-75.859387"><ele>13.0</ele><time>2026-04-18T10:15:03.699Z</time></trkpt><trkpt lat="8.7851901" lon="-75.8593538"><ele>12.999999999999998</ele><time>2026-04-18T10:15:04.7Z</time></trkpt><trkpt lat="8.7852996" lon="-75.859289"><ele>13.0</ele><time>2026-04-18T10:15:06.699Z</time></trkpt><trkpt lat="8.785358" lon="-75.8592546"><ele>13.0</ele><time>2026-04-18T10:15:07.7Z</time></trkpt><trkpt lat="8.7854174" lon="-75.8592253"><ele>13.0</ele><time>2026-04-18T10:15:08.699Z</time></trkpt><trkpt lat="8.7854739" lon="-75.859192"><ele>12.999999999999998</ele><time>2026-04-18T10:15:09.699Z</time></trkpt><trkpt lat="8.7855356" lon="-75.8591609"><ele>13.0</ele><time>2026-04-18T10:15:10.699Z</time></trkpt><trkpt lat="8.7855956" lon="-75.8591214"><ele>13.166666666666666</ele><time>2026-04-18T10:15:11.699Z</time></trkpt><trkpt lat="8.7856483" lon="-75.8590844"><ele>13.333333333333332</ele><time>2026-04-18T10:15:12.698Z</time></trkpt><trkpt lat="8.7857079" lon="-75.8590496"><ele>13.5</ele><time>2026-04-18T10:15:13.699Z</time></trkpt><trkpt lat="8.7858095" lon="-75.8589851"><ele>13.666666666666668</ele><time>2026-04-18T10:15:15.699Z</time></trkpt><trkpt lat="8.7858651" lon="-75.858955"><ele>13.833333333333334</ele><time>2026-04-18T10:15:16.699Z</time></trkpt><trkpt lat="8.785971" lon="-75.8588913"><ele>14.0</ele><time>2026-04-18T10:15:18.7Z</time></trkpt><trkpt lat="8.7860313" lon="-75.8588602"><ele>14.166666666666668</ele><time>2026-04-18T10:15:19.699Z</time></trkpt><trkpt lat="8.7860853" lon="-75.8588257"><ele>14.333333333333334</ele><time>2026-04-18T10:15:20.699Z</time></trkpt><trkpt lat="8.7861864" lon="-75.8587663"><ele>14.5</ele><time>2026-04-18T10:15:22.699Z</time></trkpt><trkpt lat="8.7862889" lon="-75.8587013"><ele>14.666666666666668</ele><time>2026-04-18T10:15:24.699Z</time></trkpt><trkpt lat="8.7863489" lon="-75.8586709"><ele>14.833333333333334</ele><time>2026-04-18T10:15:25.7Z</time></trkpt><trkpt lat="8.7864095" lon="-75.8586355"><ele>15.0</ele><time>2026-04-18T10:15:26.699Z</time></trkpt><trkpt lat="8.7865163" lon="-75.8585761"><ele>15.0</ele><time>2026-04-18T10:15:28.7Z</time></trkpt><trkpt lat="8.7866231" lon="-75.8585164"><ele>15.0</ele><time>2026-04-18T10:15:30.698Z</time></trkpt><trkpt lat="8.7867188" lon="-75.8584537"><ele>15.0</ele><time>2026-04-18T10:15:32.699Z</time></trkpt><trkpt lat="8.7868186" lon="-75.8583937"><ele>15.0</ele><time>2026-04-18T10:15:34.7Z</time></trkpt><trkpt lat="8.7869112" lon="-75.8583439"><ele>15.0</ele><time>2026-04-18T10:15:36.699Z</time></trkpt><trkpt lat="8.7870004" lon="-75.8582856"><ele>15.0</ele><time>2026-04-18T10:15:38.7Z</time></trkpt><trkpt lat="8.787102" lon="-75.8582329"><ele>15.0</ele><time>2026-04-18T10:15:40.699Z</time></trkpt><trkpt lat="8.7872098" lon="-75.8581758"><ele>15.0</ele><time>2026-04-18T10:15:42.698Z</time></trkpt><trkpt lat="8.787311" lon="-75.8581122"><ele>15.0</ele><time>2026-04-18T10:15:44.699Z</time></trkpt><trkpt lat="8.7873662" lon="-75.8580807"><ele>15.0</ele><time>2026-04-18T10:15:45.698Z</time></trkpt><trkpt lat="8.7874753" lon="-75.8580203"><ele>15.0</ele><time>2026-04-18T10:15:47.699Z</time></trkpt><trkpt lat="8.787578" lon="-75.8579583"><ele>15.0</ele><time>2026-04-18T10:15:49.699Z</time></trkpt><trkpt lat="8.7876851" lon="-75.8578947"><ele>15.0</ele><time>2026-04-18T10:15:51.699Z</time></trkpt><trkpt lat="8.7877424" lon="-75.8578604"><ele>15.166666666666666</ele><time>2026-04-18T10:15:52.699Z</time></trkpt><trkpt lat="8.7877969" lon="-75.8578275"><ele>15.333333333333332</ele><time>2026-04-18T10:15:53.699Z</time></trkpt><trkpt lat="8.7878573" lon="-75.8577924"><ele>15.5</ele><time>2026-04-18T10:15:54.699Z</time></trkpt><trkpt lat="8.7879161" lon="-75.8577568"><ele>15.666666666666666</ele><time>2026-04-18T10:15:55.699Z</time></trkpt><trkpt lat="8.7880294" lon="-75.8576915"><ele>15.833333333333332</ele><time>2026-04-18T10:15:57.699Z</time></trkpt><trkpt lat="8.7880877" lon="-75.8576587"><ele>16.0</ele><time>2026-04-18T10:15:58.698Z</time></trkpt><trkpt lat="8.7881507" lon="-75.8576254"><ele>16.0</ele><time>2026-04-18T10:15:59.7Z</time></trkpt><trkpt lat="8.7882145" lon="-75.8575922"><ele>15.999999999999998</ele><time>2026-04-18T10:16:00.699Z</time></trkpt><trkpt lat="8.7882843" lon="-75.8575578"><ele>16.0</ele><time>2026-04-18T10:16:01.699Z</time></trkpt><trkpt lat="8.7883487" lon="-75.8575223"><ele>16.0</ele><time>2026-04-18T10:16:02.698Z</time></trkpt><trkpt lat="8.7884032" lon="-75.8574844"><ele>15.999999999999998</ele><time>2026-04-18T10:16:03.698Z</time></trkpt><trkpt lat="8.7884671" lon="-75.8574454"><ele>16.0</ele><time>2026-04-18T10:16:04.699Z</time></trkpt><trkpt lat="8.7885307" lon="-75.8574058"><ele>16.0</ele><time>2026-04-18T10:16:05.698Z</time></trkpt><trkpt lat="8.7885938" lon="-75.8573683"><ele>15.999999999999998</ele><time>2026-04-18T10:16:06.7Z</time></trkpt><trkpt lat="8.7886561" lon="-75.8573306"><ele>16.0</ele><time>2026-04-18T10:16:07.699Z</time></trkpt><trkpt lat="8.7887202" lon="-75.8572994"><ele>16.0</ele><time>2026-04-18T10:16:08.699Z</time></trkpt><trkpt lat="8.7887834" lon="-75.8572659"><ele>16.0</ele><time>2026-04-18T10:16:09.699Z</time></trkpt><trkpt lat="8.7888511" lon="-75.857231"><ele>15.999999999999998</ele><time>2026-04-18T10:16:10.699Z</time></trkpt><trkpt lat="8.7889145" lon="-75.8571962"><ele>16.0</ele><time>2026-04-18T10:16:11.699Z</time></trkpt><trkpt lat="8.7890284" lon="-75.8571321"><ele>16.0</ele><time>2026-04-18T10:16:13.699Z</time></trkpt><trkpt lat="8.7890853" lon="-75.8570967"><ele>15.999999999999998</ele><time>2026-04-18T10:16:14.699Z</time></trkpt><trkpt lat="8.7891467" lon="-75.8570635"><ele>16.0</ele><time>2026-04-18T10:16:15.698Z</time></trkpt><trkpt lat="8.7892033" lon="-75.8570285"><ele>16.0</ele><time>2026-04-18T10:16:16.698Z</time></trkpt><trkpt lat="8.7892614" lon="-75.8569918"><ele>15.999999999999998</ele><time>2026-04-18T10:16:17.698Z</time></trkpt><trkpt lat="8.78932" lon="-75.8569595"><ele>16.0</ele><time>2026-04-18T10:16:18.699Z</time></trkpt><trkpt lat="8.7893777" lon="-75.856923"><ele>16.0</ele><time>2026-04-18T10:16:19.699Z</time></trkpt><trkpt lat="8.7894337" lon="-75.8568887"><ele>15.8</ele><time>2026-04-18T10:16:20.698Z</time></trkpt><trkpt lat="8.7895415" lon="-75.8568198"><ele>15.600000000000001</ele><time>2026-04-18T10:16:22.699Z</time></trkpt><trkpt lat="8.7895973" lon="-75.856789"><ele>15.4</ele><time>2026-04-18T10:16:23.7Z</time></trkpt><trkpt lat="8.7896526" lon="-75.8567581"><ele>15.2</ele><time>2026-04-18T10:16:24.699Z</time></trkpt><trkpt lat="8.7897565" lon="-75.8566905"><ele>15.0</ele><time>2026-04-18T10:16:26.699Z</time></trkpt><trkpt lat="8.7898546" lon="-75.8566246"><ele>15.0</ele><time>2026-04-18T10:16:28.698Z</time></trkpt><trkpt lat="8.7899589" lon="-75.8565642"><ele>15.0</ele><time>2026-04-18T10:16:30.699Z</time></trkpt><trkpt lat="8.7900584" lon="-75.8565015"><ele>15.0</ele><time>2026-04-18T10:16:32.699Z</time></trkpt><trkpt lat="8.7901679" lon="-75.8564584"><ele>15.0</ele><time>2026-04-18T10:16:34.699Z</time></trkpt><trkpt lat="8.790273" lon="-75.8564032"><ele>14.8</ele><time>2026-04-18T10:16:36.699Z</time></trkpt><trkpt lat="8.79033" lon="-75.8563754"><ele>14.6</ele><time>2026-04-18T10:16:37.698Z</time></trkpt><trkpt lat="8.7903859" lon="-75.8563443"><ele>14.399999999999999</ele><time>2026-04-18T10:16:38.698Z</time></trkpt><trkpt lat="8.7904959" lon="-75.8562869"><ele>14.2</ele><time>2026-04-18T10:16:40.699Z</time></trkpt><trkpt lat="8.7906035" lon="-75.8562202"><ele>14.0</ele><time>2026-04-18T10:16:42.699Z</time></trkpt><trkpt lat="8.7907094" lon="-75.8561653"><ele>14.000000000000002</ele><time>2026-04-18T10:16:44.699Z</time></trkpt><trkpt lat="8.7908188" lon="-75.8561026"><ele>14.0</ele><time>2026-04-18T10:16:46.698Z</time></trkpt><trkpt lat="8.7908755" lon="-75.8560706"><ele>14.0</ele><time>2026-04-18T10:16:47.698Z</time></trkpt><trkpt lat="8.790935" lon="-75.8560365"><ele>14.0</ele><time>2026-04-18T10:16:48.698Z</time></trkpt><trkpt lat="8.7909926" lon="-75.8560043"><ele>14.000000000000002</ele><time>2026-04-18T10:16:49.699Z</time></trkpt><trkpt lat="8.7910989" lon="-75.8559453"><ele>14.0</ele><time>2026-04-18T10:16:51.699Z</time></trkpt><trkpt lat="8.7911902" lon="-75.8558806"><ele>14.500000000000002</ele><time>2026-04-18T10:16:53.699Z</time></trkpt><trkpt lat="8.7912666" lon="-75.8558397"><ele>15.0</ele><time>2026-04-18T10:16:55.699Z</time></trkpt><trkpt lat="8.7913299" lon="-75.8557967"><ele>15.5</ele><time>2026-04-18T10:16:57.699Z</time></trkpt><trkpt lat="8.7913879" lon="-75.8557622"><ele>16.0</ele><time>2026-04-18T10:16:59.699Z</time></trkpt><trkpt lat="8.7914472" lon="-75.8557151"><ele>16.5</ele><time>2026-04-18T10:17:01.699Z</time></trkpt><trkpt lat="8.7915365" lon="-75.8556742"><ele>17.0</ele><time>2026-04-18T10:17:03.699Z</time></trkpt><trkpt lat="8.7916325" lon="-75.8556091"><ele>17.0</ele><time>2026-04-18T10:17:05.699Z</time></trkpt><trkpt lat="8.7917337" lon="-75.8555493"><ele>17.0</ele><time>2026-04-18T10:17:07.7Z</time></trkpt><trkpt lat="8.7918456" lon="-75.855486"><ele>17.0</ele><time>2026-04-18T10:17:09.698Z</time></trkpt><trkpt lat="8.7919068" lon="-75.8554546"><ele>17.0</ele><time>2026-04-18T10:17:10.699Z</time></trkpt><trkpt lat="8.7920223" lon="-75.8553846"><ele>17.0</ele><time>2026-04-18T10:17:12.7Z</time></trkpt><trkpt lat="8.7920822" lon="-75.8553526"><ele>16.71428571428571</ele><time>2026-04-18T10:17:13.698Z</time></trkpt><trkpt lat="8.7921371" lon="-75.8553177"><ele>16.428571428571427</ele><time>2026-04-18T10:17:14.7Z</time></trkpt><trkpt lat="8.7921972" lon="-75.8552811"><ele>16.142857142857142</ele><time>2026-04-18T10:17:15.697Z</time></trkpt><trkpt lat="8.79226" lon="-75.8552476"><ele>15.857142857142856</ele><time>2026-04-18T10:17:16.698Z</time></trkpt><trkpt lat="8.7923225" lon="-75.8552078"><ele>15.57142857142857</ele><time>2026-04-18T10:17:17.698Z</time></trkpt><trkpt lat="8.7923809" lon="-75.8551751"><ele>15.285714285714286</ele><time>2026-04-18T10:17:18.698Z</time></trkpt><trkpt lat="8.7924371" lon="-75.8551391"><ele>15.0</ele><time>2026-04-18T10:17:19.699Z</time></trkpt><trkpt lat="8.7924999" lon="-75.8551027"><ele>15.0</ele><time>2026-04-18T10:17:20.698Z</time></trkpt><trkpt lat="8.7925623" lon="-75.855064"><ele>15.0</ele><time>2026-04-18T10:17:21.699Z</time></trkpt><trkpt lat="8.7926275" lon="-75.8550294"><ele>15.0</ele><time>2026-04-18T10:17:22.698Z</time></trkpt><trkpt lat="8.7927455" lon="-75.8549617"><ele>15.0</ele><time>2026-04-18T10:17:24.699Z</time></trkpt><trkpt lat="8.7928583" lon="-75.8548765"><ele>15.0</ele><time>2026-04-18T10:17:26.699Z</time></trkpt><trkpt lat="8.7929271" lon="-75.8548401"><ele>15.0</ele><time>2026-04-18T10:17:27.699Z</time></trkpt><trkpt lat="8.7929881" lon="-75.8548062"><ele>15.0</ele><time>2026-04-18T10:17:28.699Z</time></trkpt><trkpt lat="8.7930522" lon="-75.8547727"><ele>15.0</ele><time>2026-04-18T10:17:29.697Z</time></trkpt><trkpt lat="8.7931193" lon="-75.854743"><ele>15.0</ele><time>2026-04-18T10:17:30.699Z</time></trkpt><trkpt lat="8.7931807" lon="-75.8547165"><ele>15.0</ele><time>2026-04-18T10:17:31.698Z</time></trkpt><trkpt lat="8.7932379" lon="-75.8546817"><ele>15.0</ele><time>2026-04-18T10:17:32.7Z</time></trkpt><trkpt lat="8.7932988" lon="-75.8546493"><ele>15.0</ele><time>2026-04-18T10:17:33.699Z</time></trkpt><trkpt lat="8.7933815" lon="-75.8545802"><ele>15.0</ele><time>2026-04-18T10:17:35.698Z</time></trkpt><trkpt lat="8.7934404" lon="-75.8545495"><ele>15.0</ele><time>2026-04-18T10:17:36.7Z</time></trkpt><trkpt lat="8.7935007" lon="-75.8545114"><ele>15.0</ele><time>2026-04-18T10:17:37.698Z</time></trkpt><trkpt lat="8.7935601" lon="-75.8544778"><ele>15.0</ele><time>2026-04-18T10:17:38.699Z</time></trkpt><trkpt lat="8.7936136" lon="-75.8544423"><ele>15.0</ele><time>2026-04-18T10:17:39.699Z</time></trkpt><trkpt lat="8.7936726" lon="-75.8544119"><ele>15.0</ele><time>2026-04-18T10:17:40.698Z</time></trkpt><trkpt lat="8.7937315" lon="-75.8543801"><ele>15.0</ele><time>2026-04-18T10:17:41.699Z</time></trkpt><trkpt lat="8.793794" lon="-75.8543445"><ele>14.833333333333334</ele><time>2026-04-18T10:17:42.698Z</time></trkpt><trkpt lat="8.7938548" lon="-75.8543106"><ele>14.666666666666668</ele><time>2026-04-18T10:17:43.698Z</time></trkpt><trkpt lat="8.7939228" lon="-75.8542802"><ele>14.5</ele><time>2026-04-18T10:17:44.698Z</time></trkpt><trkpt lat="8.7939837" lon="-75.8542459"><ele>14.333333333333334</ele><time>2026-04-18T10:17:45.698Z</time></trkpt><trkpt lat="8.794045" lon="-75.8542143"><ele>14.166666666666668</ele><time>2026-04-18T10:17:46.698Z</time></trkpt><trkpt lat="8.7941026" lon="-75.8541843"><ele>14.0</ele><time>2026-04-18T10:17:47.699Z</time></trkpt><trkpt lat="8.7942117" lon="-75.8541356"><ele>14.000000000000002</ele><time>2026-04-18T10:17:49.698Z</time></trkpt><trkpt lat="8.794316" lon="-75.8540791"><ele>14.0</ele><time>2026-04-18T10:17:51.698Z</time></trkpt><trkpt lat="8.7943867" lon="-75.8540434"><ele>14.0</ele><time>2026-04-18T10:17:52.699Z</time></trkpt><trkpt lat="8.7944476" lon="-75.8539989"><ele>14.0</ele><time>2026-04-18T10:17:53.699Z</time></trkpt><trkpt lat="8.7945023" lon="-75.8539618"><ele>14.000000000000002</ele><time>2026-04-18T10:17:54.699Z</time></trkpt><trkpt lat="8.7945632" lon="-75.8539152"><ele>14.0</ele><time>2026-04-18T10:17:55.698Z</time></trkpt><trkpt lat="8.7946256" lon="-75.8538792"><ele>13.857142857142858</ele><time>2026-04-18T10:17:56.698Z</time></trkpt><trkpt lat="8.7946953" lon="-75.8538405"><ele>13.714285714285715</ele><time>2026-04-18T10:17:57.698Z</time></trkpt><trkpt lat="8.7947568" lon="-75.853805"><ele>13.571428571428571</ele><time>2026-04-18T10:17:58.699Z</time></trkpt><trkpt lat="8.794821" lon="-75.8537754"><ele>13.428571428571429</ele><time>2026-04-18T10:17:59.698Z</time></trkpt><trkpt lat="8.794885" lon="-75.8537359"><ele>13.285714285714286</ele><time>2026-04-18T10:18:00.699Z</time></trkpt><trkpt lat="8.7949449" lon="-75.8536989"><ele>13.142857142857142</ele><time>2026-04-18T10:18:01.699Z</time></trkpt><trkpt lat="8.7950072" lon="-75.8536602"><ele>13.0</ele><time>2026-04-18T10:18:02.697Z</time></trkpt><trkpt lat="8.795065" lon="-75.853628"><ele>12.999999999999998</ele><time>2026-04-18T10:18:03.699Z</time></trkpt><trkpt lat="8.7951187" lon="-75.8535915"><ele>13.0</ele><time>2026-04-18T10:18:04.699Z</time></trkpt><trkpt lat="8.7951743" lon="-75.8535568"><ele>13.0</ele><time>2026-04-18T10:18:05.698Z</time></trkpt><trkpt lat="8.7952325" lon="-75.8535211"><ele>13.0</ele><time>2026-04-18T10:18:06.699Z</time></trkpt><trkpt lat="8.7953331" lon="-75.8534651"><ele>12.999999999999998</ele><time>2026-04-18T10:18:08.698Z</time></trkpt><trkpt lat="8.7953903" lon="-75.8534382"><ele>13.0</ele><time>2026-04-18T10:18:09.699Z</time></trkpt><trkpt lat="8.7955033" lon="-75.8533788"><ele>12.833333333333332</ele><time>2026-04-18T10:18:11.699Z</time></trkpt><trkpt lat="8.795562" lon="-75.8533486"><ele>12.666666666666666</ele><time>2026-04-18T10:18:12.699Z</time></trkpt><trkpt lat="8.7956228" lon="-75.8533152"><ele>12.5</ele><time>2026-04-18T10:18:13.698Z</time></trkpt><trkpt lat="8.7956813" lon="-75.8532806"><ele>12.333333333333332</ele><time>2026-04-18T10:18:14.698Z</time></trkpt><trkpt lat="8.7957413" lon="-75.8532464"><ele>12.166666666666666</ele><time>2026-04-18T10:18:15.698Z</time></trkpt><trkpt lat="8.7958456" lon="-75.8531785"><ele>12.0</ele><time>2026-04-18T10:18:17.699Z</time></trkpt><trkpt lat="8.7959562" lon="-75.8531145"><ele>11.999999999999998</ele><time>2026-04-18T10:18:19.699Z</time></trkpt><trkpt lat="8.7960068" lon="-75.8530756"><ele>12.0</ele><time>2026-04-18T10:18:20.699Z</time></trkpt><trkpt lat="8.7960788" lon="-75.8530287"><ele>12.0</ele><time>2026-04-18T10:18:21.698Z</time></trkpt><trkpt lat="8.7961403" lon="-75.8529895"><ele>12.0</ele><time>2026-04-18T10:18:22.697Z</time></trkpt><trkpt lat="8.7962045" lon="-75.8529579"><ele>12.0</ele><time>2026-04-18T10:18:23.698Z</time></trkpt><trkpt lat="8.7962685" lon="-75.8529267"><ele>11.999999999999998</ele><time>2026-04-18T10:18:24.698Z</time></trkpt><trkpt lat="8.7963315" lon="-75.8528967"><ele>12.0</ele><time>2026-04-18T10:18:25.698Z</time></trkpt><trkpt lat="8.7963921" lon="-75.8528562"><ele>11.999999999999998</ele><time>2026-04-18T10:18:26.698Z</time></trkpt><trkpt lat="8.7964533" lon="-75.8528178"><ele>12.0</ele><time>2026-04-18T10:18:27.699Z</time></trkpt><trkpt lat="8.7965082" lon="-75.8527813"><ele>12.0</ele><time>2026-04-18T10:18:28.698Z</time></trkpt><trkpt lat="8.7965687" lon="-75.8527444"><ele>12.0</ele><time>2026-04-18T10:18:29.699Z</time></trkpt><trkpt lat="8.7966311" lon="-75.8527145"><ele>12.0</ele><time>2026-04-18T10:18:30.697Z</time></trkpt><trkpt lat="8.7966882" lon="-75.8526755"><ele>11.999999999999998</ele><time>2026-04-18T10:18:31.698Z</time></trkpt><trkpt lat="8.7967463" lon="-75.8526447"><ele>12.0</ele><time>2026-04-18T10:18:32.699Z</time></trkpt><trkpt lat="8.7968052" lon="-75.852611"><ele>12.166666666666666</ele><time>2026-04-18T10:18:33.699Z</time></trkpt><trkpt lat="8.7968628" lon="-75.8525746"><ele>12.333333333333332</ele><time>2026-04-18T10:18:34.698Z</time></trkpt><trkpt lat="8.7969188" lon="-75.8525364"><ele>12.5</ele><time>2026-04-18T10:18:35.699Z</time></trkpt><trkpt lat="8.7970318" lon="-75.8524759"><ele>12.666666666666666</ele><time>2026-04-18T10:18:37.698Z</time></trkpt><trkpt lat="8.797092" lon="-75.8524445"><ele>12.833333333333332</ele><time>2026-04-18T10:18:38.697Z</time></trkpt><trkpt lat="8.7971514" lon="-75.8524158"><ele>13.0</ele><time>2026-04-18T10:18:39.7Z</time></trkpt><trkpt lat="8.7972122" lon="-75.8523866"><ele>12.999999999999998</ele><time>2026-04-18T10:18:40.697Z</time></trkpt><trkpt lat="8.7972648" lon="-75.8523443"><ele>13.0</ele><time>2026-04-18T10:18:41.699Z</time></trkpt><trkpt lat="8.7973281" lon="-75.8523221"><ele>13.0</ele><time>2026-04-18T10:18:42.699Z</time></trkpt><trkpt lat="8.7974265" lon="-75.852261"><ele>13.0</ele><time>2026-04-18T10:18:44.697Z</time></trkpt><trkpt lat="8.7974914" lon="-75.8522299"><ele>12.999999999999998</ele><time>2026-04-18T10:18:45.698Z</time></trkpt><trkpt lat="8.7975492" lon="-75.8521995"><ele>13.0</ele><time>2026-04-18T10:18:46.699Z</time></trkpt><trkpt lat="8.797662" lon="-75.8521268"><ele>13.333333333333332</ele><time>2026-04-18T10:18:48.699Z</time></trkpt><trkpt lat="8.7977192" lon="-75.8520964"><ele>13.666666666666666</ele><time>2026-04-18T10:18:49.7Z</time></trkpt><trkpt lat="8.7977766" lon="-75.8520553"><ele>14.0</ele><time>2026-04-18T10:18:50.698Z</time></trkpt><trkpt lat="8.7978323" lon="-75.8520196"><ele>14.333333333333332</ele><time>2026-04-18T10:18:51.699Z</time></trkpt><trkpt lat="8.7978864" lon="-75.851985"><ele>14.666666666666666</ele><time>2026-04-18T10:18:52.699Z</time></trkpt><trkpt lat="8.7979862" lon="-75.8519399"><ele>15.0</ele><time>2026-04-18T10:18:54.699Z</time></trkpt><trkpt lat="8.7980987" lon="-75.8518602"><ele>15.0</ele><time>2026-04-18T10:18:56.698Z</time></trkpt><trkpt lat="8.7982154" lon="-75.851801"><ele>15.0</ele><time>2026-04-18T10:18:58.699Z</time></trkpt><trkpt lat="8.7982713" lon="-75.8517679"><ele>15.0</ele><time>2026-04-18T10:18:59.698Z</time></trkpt><trkpt lat="8.7983282" lon="-75.851733"><ele>15.0</ele><time>2026-04-18T10:19:00.697Z</time></trkpt><trkpt lat="8.7983864" lon="-75.8517011"><ele>15.0</ele><time>2026-04-18T10:19:01.698Z</time></trkpt><trkpt lat="8.7984436" lon="-75.8516633"><ele>15.0</ele><time>2026-04-18T10:19:02.698Z</time></trkpt><trkpt lat="8.7985441" lon="-75.851612"><ele>15.333333333333334</ele><time>2026-04-18T10:19:04.699Z</time></trkpt><trkpt lat="8.7986073" lon="-75.8515842"><ele>15.666666666666668</ele><time>2026-04-18T10:19:05.698Z</time></trkpt><trkpt lat="8.7986656" lon="-75.8515578"><ele>16.0</ele><time>2026-04-18T10:19:06.698Z</time></trkpt><trkpt lat="8.7987211" lon="-75.8515233"><ele>16.333333333333336</ele><time>2026-04-18T10:19:07.699Z</time></trkpt><trkpt lat="8.7988366" lon="-75.8514578"><ele>16.666666666666668</ele><time>2026-04-18T10:19:09.699Z</time></trkpt><trkpt lat="8.798943" lon="-75.8514049"><ele>17.0</ele><time>2026-04-18T10:19:11.698Z</time></trkpt><trkpt lat="8.7989981" lon="-75.8513728"><ele>17.0</ele><time>2026-04-18T10:19:12.699Z</time></trkpt><trkpt lat="8.7990518" lon="-75.8513395"><ele>17.0</ele><time>2026-04-18T10:19:13.698Z</time></trkpt><trkpt lat="8.7991507" lon="-75.8512828"><ele>17.0</ele><time>2026-04-18T10:19:15.699Z</time></trkpt><trkpt lat="8.7992428" lon="-75.851226"><ele>17.0</ele><time>2026-04-18T10:19:17.699Z</time></trkpt><trkpt lat="8.799331" lon="-75.8511425"><ele>17.0</ele><time>2026-04-18T10:19:19.698Z</time></trkpt><trkpt lat="8.799372" lon="-75.8510873"><ele>17.142857142857142</ele><time>2026-04-18T10:19:20.698Z</time></trkpt><trkpt lat="8.7994002" lon="-75.8510263"><ele>17.285714285714285</ele><time>2026-04-18T10:19:21.698Z</time></trkpt><trkpt lat="8.7994231" lon="-75.8509053"><ele>17.42857142857143</ele><time>2026-04-18T10:19:23.699Z</time></trkpt><trkpt lat="8.7994308" lon="-75.8508409"><ele>17.57142857142857</ele><time>2026-04-18T10:19:24.698Z</time></trkpt><trkpt lat="8.7994277" lon="-75.8507743"><ele>17.714285714285715</ele><time>2026-04-18T10:19:25.698Z</time></trkpt><trkpt lat="8.7994202" lon="-75.8507082"><ele>17.857142857142858</ele><time>2026-04-18T10:19:26.698Z</time></trkpt><trkpt lat="8.799418" lon="-75.8506425"><ele>18.0</ele><time>2026-04-18T10:19:27.698Z</time></trkpt><trkpt lat="8.7994139" lon="-75.8505741"><ele>17.5</ele><time>2026-04-18T10:19:28.699Z</time></trkpt><trkpt lat="8.7994193" lon="-75.8505086"><ele>17.0</ele><time>2026-04-18T10:19:29.699Z</time></trkpt><trkpt lat="8.799431" lon="-75.8504369"><ele>16.5</ele><time>2026-04-18T10:19:30.699Z</time></trkpt><trkpt lat="8.7994719" lon="-75.8503148"><ele>16.0</ele><time>2026-04-18T10:19:32.699Z</time></trkpt><trkpt lat="8.7995019" lon="-75.8502534"><ele>15.5</ele><time>2026-04-18T10:19:33.698Z</time></trkpt><trkpt lat="8.7995431" lon="-75.8501985"><ele>15.0</ele><time>2026-04-18T10:19:34.698Z</time></trkpt><trkpt lat="8.7995863" lon="-75.8501504"><ele>14.714285714285715</ele><time>2026-04-18T10:19:35.698Z</time></trkpt><trkpt lat="8.7996472" lon="-75.8501121"><ele>14.428571428571427</ele><time>2026-04-18T10:19:36.698Z</time></trkpt><trkpt lat="8.7997069" lon="-75.8500828"><ele>14.142857142857142</ele><time>2026-04-18T10:19:37.698Z</time></trkpt><trkpt lat="8.799772" lon="-75.8500624"><ele>13.857142857142858</ele><time>2026-04-18T10:19:38.698Z</time></trkpt><trkpt lat="8.799838" lon="-75.8500501"><ele>13.571428571428573</ele><time>2026-04-18T10:19:39.698Z</time></trkpt><trkpt lat="8.7999028" lon="-75.8500436"><ele>13.285714285714285</ele><time>2026-04-18T10:19:40.698Z</time></trkpt><trkpt lat="8.7999702" lon="-75.8500494"><ele>13.0</ele><time>2026-04-18T10:19:41.698Z</time></trkpt><trkpt lat="8.8000321" lon="-75.8500677"><ele>13.0</ele><time>2026-04-18T10:19:42.698Z</time></trkpt><trkpt lat="8.8000956" lon="-75.8500944"><ele>13.0</ele><time>2026-04-18T10:19:43.698Z</time></trkpt><trkpt lat="8.8001481" lon="-75.8501319"><ele>13.0</ele><time>2026-04-18T10:19:44.699Z</time></trkpt><trkpt lat="8.8002471" lon="-75.8502193"><ele>13.0</ele><time>2026-04-18T10:19:46.699Z</time></trkpt><trkpt lat="8.8002892" lon="-75.8502707"><ele>13.0</ele><time>2026-04-18T10:19:47.698Z</time></trkpt><trkpt lat="8.8003811" lon="-75.8503636"><ele>13.666666666666666</ele><time>2026-04-18T10:19:49.699Z</time></trkpt><trkpt lat="8.8004783" lon="-75.8504496"><ele>14.333333333333332</ele><time>2026-04-18T10:19:51.699Z</time></trkpt><trkpt lat="8.8005354" lon="-75.8504922"><ele>15.0</ele><time>2026-04-18T10:19:52.699Z</time></trkpt><trkpt lat="8.8005944" lon="-75.8505245"><ele>15.666666666666668</ele><time>2026-04-18T10:19:53.698Z</time></trkpt><trkpt lat="8.8006581" lon="-75.850548"><ele>16.333333333333336</ele><time>2026-04-18T10:19:54.699Z</time></trkpt><trkpt lat="8.800728" lon="-75.8505615"><ele>17.0</ele><time>2026-04-18T10:19:55.699Z</time></trkpt><trkpt lat="8.800797" lon="-75.8505702"><ele>16.999999999999996</ele><time>2026-04-18T10:19:56.699Z</time></trkpt><trkpt lat="8.8008654" lon="-75.8505567"><ele>17.0</ele><time>2026-04-18T10:19:57.698Z</time></trkpt><trkpt lat="8.8009331" lon="-75.8505464"><ele>17.0</ele><time>2026-04-18T10:19:58.7Z</time></trkpt><trkpt lat="8.8009991" lon="-75.8505246"><ele>17.0</ele><time>2026-04-18T10:19:59.698Z</time></trkpt><trkpt lat="8.8010653" lon="-75.8505056"><ele>17.0</ele><time>2026-04-18T10:20:00.698Z</time></trkpt><trkpt lat="8.8011338" lon="-75.8504906"><ele>16.999999999999996</ele><time>2026-04-18T10:20:01.698Z</time></trkpt><trkpt lat="8.8011971" lon="-75.8504712"><ele>17.0</ele><time>2026-04-18T10:20:02.698Z</time></trkpt><trkpt lat="8.801266" lon="-75.850457"><ele>17.285714285714285</ele><time>2026-04-18T10:20:03.698Z</time></trkpt><trkpt lat="8.8013277" lon="-75.8504401"><ele>17.57142857142857</ele><time>2026-04-18T10:20:04.698Z</time></trkpt><trkpt lat="8.8013909" lon="-75.8504212"><ele>17.857142857142854</ele><time>2026-04-18T10:20:05.699Z</time></trkpt><trkpt lat="8.8014588" lon="-75.8504024"><ele>18.142857142857142</ele><time>2026-04-18T10:20:06.698Z</time></trkpt><trkpt lat="8.801526" lon="-75.8503867"><ele>18.42857142857143</ele><time>2026-04-18T10:20:07.699Z</time></trkpt><trkpt lat="8.8015851" lon="-75.8503611"><ele>18.71428571428571</ele><time>2026-04-18T10:20:08.699Z</time></trkpt><trkpt lat="8.8016473" lon="-75.8503364"><ele>19.0</ele><time>2026-04-18T10:20:09.698Z</time></trkpt><trkpt lat="8.8017088" lon="-75.8503133"><ele>19.0</ele><time>2026-04-18T10:20:10.7Z</time></trkpt><trkpt lat="8.8017727" lon="-75.8502915"><ele>19.0</ele><time>2026-04-18T10:20:11.7Z</time></trkpt><trkpt lat="8.8018424" lon="-75.85027"><ele>19.0</ele><time>2026-04-18T10:20:12.699Z</time></trkpt><trkpt lat="8.8019063" lon="-75.8502369"><ele>19.0</ele><time>2026-04-18T10:20:13.698Z</time></trkpt><trkpt lat="8.8019669" lon="-75.8502125"><ele>19.0</ele><time>2026-04-18T10:20:14.698Z</time></trkpt><trkpt lat="8.8020406" lon="-75.8501893"><ele>19.0</ele><time>2026-04-18T10:20:15.698Z</time></trkpt><trkpt lat="8.8021058" lon="-75.8501628"><ele>19.0</ele><time>2026-04-18T10:20:16.698Z</time></trkpt><trkpt lat="8.8021699" lon="-75.8501355"><ele>18.5</ele><time>2026-04-18T10:20:17.698Z</time></trkpt><trkpt lat="8.8022328" lon="-75.8501134"><ele>18.0</ele><time>2026-04-18T10:20:18.698Z</time></trkpt><trkpt lat="8.8022923" lon="-75.8500885"><ele>17.5</ele><time>2026-04-18T10:20:19.698Z</time></trkpt><trkpt lat="8.8023555" lon="-75.8500633"><ele>17.0</ele><time>2026-04-18T10:20:20.699Z</time></trkpt><trkpt lat="8.8024163" lon="-75.850046"><ele>16.5</ele><time>2026-04-18T10:20:21.699Z</time></trkpt><trkpt lat="8.8024837" lon="-75.8500239"><ele>16.0</ele><time>2026-04-18T10:20:22.699Z</time></trkpt><trkpt lat="8.8026037" lon="-75.8499822"><ele>15.714285714285714</ele><time>2026-04-18T10:20:24.699Z</time></trkpt><trkpt lat="8.8026648" lon="-75.8499582"><ele>15.428571428571427</ele><time>2026-04-18T10:20:25.7Z</time></trkpt><trkpt lat="8.8027325" lon="-75.8499316"><ele>15.142857142857142</ele><time>2026-04-18T10:20:26.699Z</time></trkpt><trkpt lat="8.8027982" lon="-75.849907"><ele>14.857142857142858</ele><time>2026-04-18T10:20:27.698Z</time></trkpt><trkpt lat="8.8028668" lon="-75.8498862"><ele>14.571428571428571</ele><time>2026-04-18T10:20:28.697Z</time></trkpt><trkpt lat="8.802938" lon="-75.8498629"><ele>14.285714285714285</ele><time>2026-04-18T10:20:29.697Z</time></trkpt><trkpt lat="8.8030051" lon="-75.8498399"><ele>14.0</ele><time>2026-04-18T10:20:30.698Z</time></trkpt><trkpt lat="8.8030707" lon="-75.8498157"><ele>14.0</ele><time>2026-04-18T10:20:31.698Z</time></trkpt><trkpt lat="8.8031354" lon="-75.8497942"><ele>14.0</ele><time>2026-04-18T10:20:32.698Z</time></trkpt><trkpt lat="8.8031971" lon="-75.8497755"><ele>14.0</ele><time>2026-04-18T10:20:33.698Z</time></trkpt><trkpt lat="8.8032633" lon="-75.8497525"><ele>14.0</ele><time>2026-04-18T10:20:34.698Z</time></trkpt><trkpt lat="8.8033286" lon="-75.8497282"><ele>14.0</ele><time>2026-04-18T10:20:35.698Z</time></trkpt><trkpt lat="8.8033923" lon="-75.8497046"><ele>14.0</ele><time>2026-04-18T10:20:36.699Z</time></trkpt><trkpt lat="8.8034548" lon="-75.8496816"><ele>14.0</ele><time>2026-04-18T10:20:37.698Z</time></trkpt><trkpt lat="8.8035222" lon="-75.8496603"><ele>15.000000000000002</ele><time>2026-04-18T10:20:38.698Z</time></trkpt><trkpt lat="8.8035836" lon="-75.8496373"><ele>16.0</ele><time>2026-04-18T10:20:39.698Z</time></trkpt><trkpt lat="8.803646" lon="-75.8496196"><ele>17.0</ele><time>2026-04-18T10:20:40.698Z</time></trkpt><trkpt lat="8.8037621" lon="-75.8495868"><ele>18.0</ele><time>2026-04-18T10:20:42.699Z</time></trkpt><trkpt lat="8.8038712" lon="-75.8495434"><ele>19.0</ele><time>2026-04-18T10:20:44.698Z</time></trkpt><trkpt lat="8.8039257" lon="-75.8495092"><ele>20.0</ele><time>2026-04-18T10:20:45.699Z</time></trkpt><trkpt lat="8.8039845" lon="-75.8494794"><ele>20.0</ele><time>2026-04-18T10:20:46.699Z</time></trkpt><trkpt lat="8.8040479" lon="-75.8494505"><ele>20.0</ele><time>2026-04-18T10:20:47.698Z</time></trkpt><trkpt lat="8.8041118" lon="-75.849417"><ele>20.0</ele><time>2026-04-18T10:20:48.698Z</time></trkpt><trkpt lat="8.8041847" lon="-75.8493825"><ele>20.0</ele><time>2026-04-18T10:20:49.698Z</time></trkpt><trkpt lat="8.8042545" lon="-75.8493509"><ele>20.0</ele><time>2026-04-18T10:20:50.698Z</time></trkpt><trkpt lat="8.8043243" lon="-75.8493214"><ele>20.0</ele><time>2026-04-18T10:20:51.698Z</time></trkpt><trkpt lat="8.8043878" lon="-75.8492899"><ele>20.0</ele><time>2026-04-18T10:20:52.698Z</time></trkpt><trkpt lat="8.8044584" lon="-75.8492637"><ele>19.285714285714285</ele><time>2026-04-18T10:20:53.698Z</time></trkpt><trkpt lat="8.8045241" lon="-75.8492361"><ele>18.571428571428573</ele><time>2026-04-18T10:20:54.698Z</time></trkpt><trkpt lat="8.8045936" lon="-75.8492097"><ele>17.857142857142858</ele><time>2026-04-18T10:20:55.699Z</time></trkpt><trkpt lat="8.8046617" lon="-75.8491865"><ele>17.142857142857142</ele><time>2026-04-18T10:20:56.698Z</time></trkpt><trkpt lat="8.804728" lon="-75.8491645"><ele>16.428571428571427</ele><time>2026-04-18T10:20:57.699Z</time></trkpt><trkpt lat="8.804792" lon="-75.849136"><ele>15.714285714285715</ele><time>2026-04-18T10:20:58.698Z</time></trkpt><trkpt lat="8.8048564" lon="-75.8491137"><ele>15.0</ele><time>2026-04-18T10:20:59.698Z</time></trkpt><trkpt lat="8.8049168" lon="-75.8490906"><ele>15.0</ele><time>2026-04-18T10:21:00.698Z</time></trkpt><trkpt lat="8.8049842" lon="-75.8490684"><ele>15.0</ele><time>2026-04-18T10:21:01.698Z</time></trkpt><trkpt lat="8.8050508" lon="-75.8490475"><ele>15.0</ele><time>2026-04-18T10:21:02.698Z</time></trkpt><trkpt lat="8.8051157" lon="-75.849025"><ele>15.0</ele><time>2026-04-18T10:21:03.698Z</time></trkpt><trkpt lat="8.8051754" lon="-75.8489934"><ele>15.0</ele><time>2026-04-18T10:21:04.697Z</time></trkpt><trkpt lat="8.8052367" lon="-75.8489739"><ele>15.0</ele><time>2026-04-18T10:21:05.698Z</time></trkpt><trkpt lat="8.8052982" lon="-75.8489483"><ele>15.0</ele><time>2026-04-18T10:21:06.698Z</time></trkpt><trkpt lat="8.8053621" lon="-75.848925"><ele>15.142857142857142</ele><time>2026-04-18T10:21:07.698Z</time></trkpt><trkpt lat="8.8054318" lon="-75.8489014"><ele>15.285714285714285</ele><time>2026-04-18T10:21:08.699Z</time></trkpt><trkpt lat="8.8055016" lon="-75.8488785"><ele>15.428571428571427</ele><time>2026-04-18T10:21:09.7Z</time></trkpt><trkpt lat="8.8055651" lon="-75.8488568"><ele>15.571428571428571</ele><time>2026-04-18T10:21:10.698Z</time></trkpt><trkpt lat="8.8056301" lon="-75.8488222"><ele>15.714285714285712</ele><time>2026-04-18T10:21:11.699Z</time></trkpt><trkpt lat="8.8057034" lon="-75.8487985"><ele>15.857142857142856</ele><time>2026-04-18T10:21:12.699Z</time></trkpt><trkpt lat="8.8057719" lon="-75.8487786"><ele>16.0</ele><time>2026-04-18T10:21:13.698Z</time></trkpt><trkpt lat="8.8058421" lon="-75.8487601"><ele>16.0</ele><time>2026-04-18T10:21:14.698Z</time></trkpt><trkpt lat="8.8059119" lon="-75.8487448"><ele>15.999999999999998</ele><time>2026-04-18T10:21:15.698Z</time></trkpt><trkpt lat="8.8059835" lon="-75.8487225"><ele>16.0</ele><time>2026-04-18T10:21:16.699Z</time></trkpt><trkpt lat="8.806056" lon="-75.8487038"><ele>16.0</ele><time>2026-04-18T10:21:17.698Z</time></trkpt><trkpt lat="8.8061186" lon="-75.8486799"><ele>15.999999999999998</ele><time>2026-04-18T10:21:18.698Z</time></trkpt><trkpt lat="8.8061921" lon="-75.8486585"><ele>16.0</ele><time>2026-04-18T10:21:19.698Z</time></trkpt><trkpt lat="8.806266" lon="-75.8486349"><ele>16.0</ele><time>2026-04-18T10:21:20.698Z</time></trkpt><trkpt lat="8.8063411" lon="-75.8486139"><ele>16.142857142857142</ele><time>2026-04-18T10:21:21.698Z</time></trkpt><trkpt lat="8.8064138" lon="-75.8485906"><ele>16.285714285714285</ele><time>2026-04-18T10:21:22.698Z</time></trkpt><trkpt lat="8.8064877" lon="-75.8485665"><ele>16.428571428571427</ele><time>2026-04-18T10:21:23.698Z</time></trkpt><trkpt lat="8.8065562" lon="-75.8485414"><ele>16.57142857142857</ele><time>2026-04-18T10:21:24.698Z</time></trkpt><trkpt lat="8.8066269" lon="-75.8485194"><ele>16.714285714285715</ele><time>2026-04-18T10:21:25.698Z</time></trkpt><trkpt lat="8.8066912" lon="-75.8484905"><ele>16.857142857142854</ele><time>2026-04-18T10:21:26.698Z</time></trkpt><trkpt lat="8.8067593" lon="-75.8484707"><ele>17.0</ele><time>2026-04-18T10:21:27.698Z</time></trkpt><trkpt lat="8.8068248" lon="-75.848445"><ele>16.833333333333336</ele><time>2026-04-18T10:21:28.698Z</time></trkpt><trkpt lat="8.8069011" lon="-75.8484195"><ele>16.666666666666668</ele><time>2026-04-18T10:21:29.698Z</time></trkpt><trkpt lat="8.806972" lon="-75.8483977"><ele>16.5</ele><time>2026-04-18T10:21:30.698Z</time></trkpt><trkpt lat="8.8070933" lon="-75.8483484"><ele>16.333333333333332</ele><time>2026-04-18T10:21:32.699Z</time></trkpt><trkpt lat="8.8071663" lon="-75.8483203"><ele>16.166666666666664</ele><time>2026-04-18T10:21:33.699Z</time></trkpt><trkpt lat="8.8072358" lon="-75.8482946"><ele>16.0</ele><time>2026-04-18T10:21:34.698Z</time></trkpt><trkpt lat="8.8073129" lon="-75.8482673"><ele>15.999999999999998</ele><time>2026-04-18T10:21:35.698Z</time></trkpt><trkpt lat="8.8073848" lon="-75.8482408"><ele>16.0</ele><time>2026-04-18T10:21:36.698Z</time></trkpt><trkpt lat="8.8074578" lon="-75.8482175"><ele>16.0</ele><time>2026-04-18T10:21:37.698Z</time></trkpt><trkpt lat="8.8075307" lon="-75.8481892"><ele>16.0</ele><time>2026-04-18T10:21:38.698Z</time></trkpt><trkpt lat="8.8076028" lon="-75.8481664"><ele>15.999999999999998</ele><time>2026-04-18T10:21:39.698Z</time></trkpt><trkpt lat="8.8076795" lon="-75.8481445"><ele>16.0</ele><time>2026-04-18T10:21:40.698Z</time></trkpt><trkpt lat="8.8077455" lon="-75.8481175"><ele>15.857142857142856</ele><time>2026-04-18T10:21:41.699Z</time></trkpt><trkpt lat="8.8078024" lon="-75.8480785"><ele>15.714285714285712</ele><time>2026-04-18T10:21:42.698Z</time></trkpt><trkpt lat="8.8078729" lon="-75.8480553"><ele>15.571428571428571</ele><time>2026-04-18T10:21:43.698Z</time></trkpt><trkpt lat="8.807944" lon="-75.8480292"><ele>15.428571428571427</ele><time>2026-04-18T10:21:44.7Z</time></trkpt><trkpt lat="8.8080129" lon="-75.8480072"><ele>15.285714285714285</ele><time>2026-04-18T10:21:45.699Z</time></trkpt><trkpt lat="8.8080847" lon="-75.8479879"><ele>15.142857142857142</ele><time>2026-04-18T10:21:46.699Z</time></trkpt><trkpt lat="8.8081555" lon="-75.8479632"><ele>15.0</ele><time>2026-04-18T10:21:47.699Z</time></trkpt><trkpt lat="8.8082237" lon="-75.8479358"><ele>15.0</ele><time>2026-04-18T10:21:48.698Z</time></trkpt><trkpt lat="8.8083023" lon="-75.8479171"><ele>15.0</ele><time>2026-04-18T10:21:49.697Z</time></trkpt><trkpt lat="8.808366" lon="-75.8478887"><ele>15.0</ele><time>2026-04-18T10:21:50.698Z</time></trkpt><trkpt lat="8.8084324" lon="-75.8478599"><ele>15.0</ele><time>2026-04-18T10:21:51.698Z</time></trkpt><trkpt lat="8.8085053" lon="-75.8478359"><ele>15.0</ele><time>2026-04-18T10:21:52.698Z</time></trkpt><trkpt lat="8.8085791" lon="-75.8478128"><ele>15.0</ele><time>2026-04-18T10:21:53.698Z</time></trkpt><trkpt lat="8.808651" lon="-75.8477913"><ele>14.666666666666666</ele><time>2026-04-18T10:21:54.699Z</time></trkpt><trkpt lat="8.8087256" lon="-75.8477685"><ele>14.333333333333332</ele><time>2026-04-18T10:21:55.698Z</time></trkpt><trkpt lat="8.8087975" lon="-75.847745"><ele>14.0</ele><time>2026-04-18T10:21:56.698Z</time></trkpt><trkpt lat="8.8088768" lon="-75.8477198"><ele>13.666666666666666</ele><time>2026-04-18T10:21:57.698Z</time></trkpt><trkpt lat="8.8089467" lon="-75.847695"><ele>13.333333333333332</ele><time>2026-04-18T10:21:58.698Z</time></trkpt><trkpt lat="8.8090211" lon="-75.8476708"><ele>13.0</ele><time>2026-04-18T10:21:59.698Z</time></trkpt><trkpt lat="8.809096" lon="-75.8476428"><ele>12.999999999999998</ele><time>2026-04-18T10:22:00.698Z</time></trkpt><trkpt lat="8.8091714" lon="-75.8476188"><ele>13.0</ele><time>2026-04-18T10:22:01.699Z</time></trkpt><trkpt lat="8.8092454" lon="-75.8475956"><ele>13.0</ele><time>2026-04-18T10:22:02.698Z</time></trkpt><trkpt lat="8.8093209" lon="-75.8475753"><ele>13.0</ele><time>2026-04-18T10:22:03.698Z</time></trkpt><trkpt lat="8.8093955" lon="-75.8475464"><ele>12.999999999999998</ele><time>2026-04-18T10:22:04.698Z</time></trkpt><trkpt lat="8.8094698" lon="-75.847521"><ele>13.0</ele><time>2026-04-18T10:22:05.698Z</time></trkpt><trkpt lat="8.8095398" lon="-75.8474963"><ele>13.142857142857142</ele><time>2026-04-18T10:22:06.698Z</time></trkpt><trkpt lat="8.8095996" lon="-75.8474595"><ele>13.285714285714286</ele><time>2026-04-18T10:22:07.698Z</time></trkpt><trkpt lat="8.8096734" lon="-75.8474445"><ele>13.428571428571429</ele><time>2026-04-18T10:22:08.697Z</time></trkpt><trkpt lat="8.8097314" lon="-75.8474116"><ele>13.571428571428571</ele><time>2026-04-18T10:22:09.698Z</time></trkpt><trkpt lat="8.8097968" lon="-75.847387"><ele>13.714285714285715</ele><time>2026-04-18T10:22:10.699Z</time></trkpt><trkpt lat="8.8098693" lon="-75.8473627"><ele>13.857142857142858</ele><time>2026-04-18T10:22:11.697Z</time></trkpt><trkpt lat="8.8099405" lon="-75.8473404"><ele>14.0</ele><time>2026-04-18T10:22:12.698Z</time></trkpt><trkpt lat="8.8100129" lon="-75.8473131"><ele>14.000000000000002</ele><time>2026-04-18T10:22:13.698Z</time></trkpt><trkpt lat="8.810078" lon="-75.847292"><ele>14.0</ele><time>2026-04-18T10:22:14.698Z</time></trkpt><trkpt lat="8.8101516" lon="-75.8472611"><ele>14.0</ele><time>2026-04-18T10:22:15.698Z</time></trkpt><trkpt lat="8.8102293" lon="-75.8472359"><ele>14.0</ele><time>2026-04-18T10:22:16.698Z</time></trkpt><trkpt lat="8.8103103" lon="-75.8472064"><ele>14.000000000000002</ele><time>2026-04-18T10:22:17.698Z</time></trkpt><trkpt lat="8.8103886" lon="-75.847179"><ele>14.0</ele><time>2026-04-18T10:22:18.698Z</time></trkpt><trkpt lat="8.8104657" lon="-75.847153"><ele>14.000000000000002</ele><time>2026-04-18T10:22:19.698Z</time></trkpt><trkpt lat="8.810546" lon="-75.8471351"><ele>14.0</ele><time>2026-04-18T10:22:20.698Z</time></trkpt><trkpt lat="8.8106251" lon="-75.8471108"><ele>14.0</ele><time>2026-04-18T10:22:21.698Z</time></trkpt><trkpt lat="8.810703" lon="-75.8470817"><ele>14.0</ele><time>2026-04-18T10:22:22.698Z</time></trkpt><trkpt lat="8.8107808" lon="-75.8470577"><ele>14.000000000000002</ele><time>2026-04-18T10:22:23.699Z</time></trkpt><trkpt lat="8.8108587" lon="-75.8470303"><ele>14.0</ele><time>2026-04-18T10:22:24.698Z</time></trkpt><trkpt lat="8.8109333" lon="-75.8470067"><ele>14.166666666666668</ele><time>2026-04-18T10:22:25.698Z</time></trkpt><trkpt lat="8.8110028" lon="-75.8469821"><ele>14.333333333333334</ele><time>2026-04-18T10:22:26.698Z</time></trkpt><trkpt lat="8.8110749" lon="-75.8469569"><ele>14.5</ele><time>2026-04-18T10:22:27.698Z</time></trkpt><trkpt lat="8.8111453" lon="-75.8469319"><ele>14.666666666666668</ele><time>2026-04-18T10:22:28.697Z</time></trkpt><trkpt lat="8.8112265" lon="-75.8469014"><ele>14.833333333333334</ele><time>2026-04-18T10:22:29.698Z</time></trkpt><trkpt lat="8.8112969" lon="-75.8468706"><ele>15.0</ele><time>2026-04-18T10:22:30.698Z</time></trkpt><trkpt lat="8.8113612" lon="-75.8468491"><ele>15.0</ele><time>2026-04-18T10:22:31.698Z</time></trkpt><trkpt lat="8.811432" lon="-75.8468273"><ele>15.0</ele><time>2026-04-18T10:22:32.699Z</time></trkpt><trkpt lat="8.8115117" lon="-75.8467983"><ele>15.0</ele><time>2026-04-18T10:22:33.698Z</time></trkpt><trkpt lat="8.8115824" lon="-75.8467694"><ele>15.0</ele><time>2026-04-18T10:22:34.699Z</time></trkpt><trkpt lat="8.8116603" lon="-75.8467483"><ele>15.0</ele><time>2026-04-18T10:22:35.698Z</time></trkpt><trkpt lat="8.811734" lon="-75.8467231"><ele>15.0</ele><time>2026-04-18T10:22:36.698Z</time></trkpt><trkpt lat="8.811809" lon="-75.8466883"><ele>14.666666666666666</ele><time>2026-04-18T10:22:37.698Z</time></trkpt><trkpt lat="8.8118815" lon="-75.8466625"><ele>14.333333333333332</ele><time>2026-04-18T10:22:38.699Z</time></trkpt><trkpt lat="8.811961" lon="-75.8466278"><ele>14.0</ele><time>2026-04-18T10:22:39.698Z</time></trkpt><trkpt lat="8.8120339" lon="-75.8466084"><ele>13.666666666666666</ele><time>2026-04-18T10:22:40.698Z</time></trkpt><trkpt lat="8.8121057" lon="-75.8465829"><ele>13.333333333333332</ele><time>2026-04-18T10:22:41.698Z</time></trkpt><trkpt lat="8.8121842" lon="-75.8465575"><ele>13.0</ele><time>2026-04-18T10:22:42.698Z</time></trkpt><trkpt lat="8.81225" lon="-75.8465284"><ele>12.999999999999998</ele><time>2026-04-18T10:22:43.698Z</time></trkpt><trkpt lat="8.8123319" lon="-75.8464987"><ele>13.0</ele><time>2026-04-18T10:22:44.698Z</time></trkpt><trkpt lat="8.8124185" lon="-75.8464688"><ele>13.0</ele><time>2026-04-18T10:22:45.699Z</time></trkpt><trkpt lat="8.8124999" lon="-75.8464387"><ele>13.0</ele><time>2026-04-18T10:22:46.697Z</time></trkpt><trkpt lat="8.8125758" lon="-75.8464052"><ele>12.999999999999998</ele><time>2026-04-18T10:22:47.698Z</time></trkpt><trkpt lat="8.8126598" lon="-75.8463752"><ele>13.0</ele><time>2026-04-18T10:22:48.698Z</time></trkpt><trkpt lat="8.8127459" lon="-75.846336"><ele>12.999999999999998</ele><time>2026-04-18T10:22:49.698Z</time></trkpt><trkpt lat="8.8128252" lon="-75.8463066"><ele>13.0</ele><time>2026-04-18T10:22:50.698Z</time></trkpt><trkpt lat="8.8129067" lon="-75.8462834"><ele>13.0</ele><time>2026-04-18T10:22:51.698Z</time></trkpt><trkpt lat="8.8129892" lon="-75.8462585"><ele>13.0</ele><time>2026-04-18T10:22:52.698Z</time></trkpt><trkpt lat="8.8130775" lon="-75.8462271"><ele>12.999999999999998</ele><time>2026-04-18T10:22:53.698Z</time></trkpt><trkpt lat="8.813153" lon="-75.846197"><ele>13.0</ele><time>2026-04-18T10:22:54.698Z</time></trkpt><trkpt lat="8.8132391" lon="-75.8461637"><ele>13.0</ele><time>2026-04-18T10:22:55.698Z</time></trkpt><trkpt lat="8.8133246" lon="-75.8461369"><ele>13.0</ele><time>2026-04-18T10:22:56.698Z</time></trkpt><trkpt lat="8.8134023" lon="-75.8461006"><ele>13.0</ele><time>2026-04-18T10:22:57.698Z</time></trkpt><trkpt lat="8.8134942" lon="-75.8460665"><ele>13.0</ele><time>2026-04-18T10:22:58.698Z</time></trkpt><trkpt lat="8.8135843" lon="-75.8460227"><ele>13.0</ele><time>2026-04-18T10:22:59.699Z</time></trkpt><trkpt lat="8.8136788" lon="-75.8459878"><ele>13.2</ele><time>2026-04-18T10:23:00.698Z</time></trkpt><trkpt lat="8.8137615" lon="-75.8459625"><ele>13.4</ele><time>2026-04-18T10:23:01.698Z</time></trkpt><trkpt lat="8.8138507" lon="-75.8459174"><ele>13.599999999999998</ele><time>2026-04-18T10:23:02.698Z</time></trkpt><trkpt lat="8.8139324" lon="-75.8458791"><ele>13.799999999999999</ele><time>2026-04-18T10:23:03.698Z</time></trkpt><trkpt lat="8.8140163" lon="-75.8458428"><ele>14.0</ele><time>2026-04-18T10:23:04.699Z</time></trkpt><trkpt lat="8.814096" lon="-75.8458027"><ele>14.166666666666668</ele><time>2026-04-18T10:23:05.698Z</time></trkpt><trkpt lat="8.8141789" lon="-75.8457622"><ele>14.333333333333334</ele><time>2026-04-18T10:23:06.698Z</time></trkpt><trkpt lat="8.8142551" lon="-75.8457187"><ele>14.5</ele><time>2026-04-18T10:23:07.698Z</time></trkpt><trkpt lat="8.8143332" lon="-75.8456726"><ele>14.666666666666668</ele><time>2026-04-18T10:23:08.698Z</time></trkpt><trkpt lat="8.8144083" lon="-75.8456342"><ele>14.833333333333334</ele><time>2026-04-18T10:23:09.699Z</time></trkpt><trkpt lat="8.814475" lon="-75.8455933"><ele>15.0</ele><time>2026-04-18T10:23:10.697Z</time></trkpt><trkpt lat="8.8145505" lon="-75.8455499"><ele>15.0</ele><time>2026-04-18T10:23:11.698Z</time></trkpt><trkpt lat="8.8146239" lon="-75.8454971"><ele>15.0</ele><time>2026-04-18T10:23:12.698Z</time></trkpt><trkpt lat="8.8146926" lon="-75.8454564"><ele>15.0</ele><time>2026-04-18T10:23:13.698Z</time></trkpt><trkpt lat="8.8147683" lon="-75.8454033"><ele>15.0</ele><time>2026-04-18T10:23:14.699Z</time></trkpt><trkpt lat="8.8148455" lon="-75.8453562"><ele>15.0</ele><time>2026-04-18T10:23:15.699Z</time></trkpt><trkpt lat="8.8149152" lon="-75.8453112"><ele>15.0</ele><time>2026-04-18T10:23:16.698Z</time></trkpt><trkpt lat="8.8149825" lon="-75.8452536"><ele>15.0</ele><time>2026-04-18T10:23:17.699Z</time></trkpt><trkpt lat="8.8150549" lon="-75.8452063"><ele>15.0</ele><time>2026-04-18T10:23:18.698Z</time></trkpt><trkpt lat="8.8151259" lon="-75.845161"><ele>15.0</ele><time>2026-04-18T10:23:19.698Z</time></trkpt><trkpt lat="8.8151977" lon="-75.8451122"><ele>15.0</ele><time>2026-04-18T10:23:20.698Z</time></trkpt><trkpt lat="8.8152654" lon="-75.845066"><ele>15.0</ele><time>2026-04-18T10:23:21.697Z</time></trkpt><trkpt lat="8.8153353" lon="-75.8450158"><ele>15.0</ele><time>2026-04-18T10:23:22.699Z</time></trkpt><trkpt lat="8.8154121" lon="-75.844968"><ele>14.833333333333334</ele><time>2026-04-18T10:23:23.698Z</time></trkpt><trkpt lat="8.8154823" lon="-75.8449232"><ele>14.666666666666668</ele><time>2026-04-18T10:23:24.698Z</time></trkpt><trkpt lat="8.8155451" lon="-75.844882"><ele>14.5</ele><time>2026-04-18T10:23:25.697Z</time></trkpt><trkpt lat="8.8156129" lon="-75.8448316"><ele>14.333333333333334</ele><time>2026-04-18T10:23:26.698Z</time></trkpt><trkpt lat="8.8156806" lon="-75.8447873"><ele>14.166666666666668</ele><time>2026-04-18T10:23:27.698Z</time></trkpt><trkpt lat="8.8157611" lon="-75.844744"><ele>14.0</ele><time>2026-04-18T10:23:28.699Z</time></trkpt><trkpt lat="8.8158261" lon="-75.8446884"><ele>14.000000000000002</ele><time>2026-04-18T10:23:29.698Z</time></trkpt><trkpt lat="8.8158985" lon="-75.8446353"><ele>14.0</ele><time>2026-04-18T10:23:30.698Z</time></trkpt><trkpt lat="8.8159789" lon="-75.8445902"><ele>14.0</ele><time>2026-04-18T10:23:31.698Z</time></trkpt><trkpt lat="8.8160468" lon="-75.8445454"><ele>14.0</ele><time>2026-04-18T10:23:32.698Z</time></trkpt><trkpt lat="8.816114" lon="-75.8444982"><ele>14.000000000000002</ele><time>2026-04-18T10:23:33.697Z</time></trkpt><trkpt lat="8.8161838" lon="-75.8444491"><ele>14.0</ele><time>2026-04-18T10:23:34.698Z</time></trkpt><trkpt lat="8.8162527" lon="-75.8444043"><ele>14.000000000000002</ele><time>2026-04-18T10:23:35.698Z</time></trkpt><trkpt lat="8.8163188" lon="-75.8443555"><ele>14.0</ele><time>2026-04-18T10:23:36.698Z</time></trkpt><trkpt lat="8.8163852" lon="-75.8443052"><ele>14.0</ele><time>2026-04-18T10:23:37.697Z</time></trkpt><trkpt lat="8.8164505" lon="-75.8442614"><ele>14.0</ele><time>2026-04-18T10:23:38.697Z</time></trkpt><trkpt lat="8.8165198" lon="-75.8442245"><ele>14.000000000000002</ele><time>2026-04-18T10:23:39.698Z</time></trkpt><trkpt lat="8.8165901" lon="-75.8441742"><ele>14.0</ele><time>2026-04-18T10:23:40.698Z</time></trkpt><trkpt lat="8.8166564" lon="-75.8441279"><ele>14.000000000000002</ele><time>2026-04-18T10:23:41.697Z</time></trkpt><trkpt lat="8.8167289" lon="-75.8440859"><ele>14.0</ele><time>2026-04-18T10:23:42.698Z</time></trkpt><trkpt lat="8.8167963" lon="-75.8440381"><ele>14.0</ele><time>2026-04-18T10:23:43.698Z</time></trkpt><trkpt lat="8.8168666" lon="-75.8439899"><ele>14.0</ele><time>2026-04-18T10:23:44.697Z</time></trkpt><trkpt lat="8.8169361" lon="-75.8439487"><ele>14.000000000000002</ele><time>2026-04-18T10:23:45.697Z</time></trkpt><trkpt lat="8.8170072" lon="-75.8439029"><ele>14.0</ele><time>2026-04-18T10:23:46.699Z</time></trkpt><trkpt lat="8.8170722" lon="-75.8438622"><ele>14.000000000000002</ele><time>2026-04-18T10:23:47.698Z</time></trkpt><trkpt lat="8.817141" lon="-75.8438226"><ele>14.0</ele><time>2026-04-18T10:23:48.697Z</time></trkpt><trkpt lat="8.8172111" lon="-75.8437811"><ele>14.0</ele><time>2026-04-18T10:23:49.698Z</time></trkpt><trkpt lat="8.8172827" lon="-75.8437353"><ele>14.0</ele><time>2026-04-18T10:23:50.698Z</time></trkpt><trkpt lat="8.8173532" lon="-75.8436887"><ele>14.000000000000002</ele><time>2026-04-18T10:23:51.698Z</time></trkpt><trkpt lat="8.8174191" lon="-75.8436418"><ele>14.0</ele><time>2026-04-18T10:23:52.698Z</time></trkpt><trkpt lat="8.8174871" lon="-75.8435914"><ele>14.000000000000002</ele><time>2026-04-18T10:23:53.697Z</time></trkpt><trkpt lat="8.8175541" lon="-75.8435426"><ele>14.0</ele><time>2026-04-18T10:23:54.697Z</time></trkpt><trkpt lat="8.817622" lon="-75.8435007"><ele>14.0</ele><time>2026-04-18T10:23:55.699Z</time></trkpt><trkpt lat="8.81769" lon="-75.8434579"><ele>14.0</ele><time>2026-04-18T10:23:56.698Z</time></trkpt><trkpt lat="8.8177608" lon="-75.8434115"><ele>14.000000000000002</ele><time>2026-04-18T10:23:57.698Z</time></trkpt><trkpt lat="8.817829" lon="-75.8433583"><ele>14.0</ele><time>2026-04-18T10:23:58.697Z</time></trkpt><trkpt lat="8.8178982" lon="-75.8433098"><ele>13.833333333333334</ele><time>2026-04-18T10:23:59.699Z</time></trkpt><trkpt lat="8.8179787" lon="-75.8432685"><ele>13.666666666666668</ele><time>2026-04-18T10:24:00.698Z</time></trkpt><trkpt lat="8.8180514" lon="-75.8432197"><ele>13.5</ele><time>2026-04-18T10:24:01.698Z</time></trkpt><trkpt lat="8.8181182" lon="-75.8431772"><ele>13.333333333333332</ele><time>2026-04-18T10:24:02.698Z</time></trkpt><trkpt lat="8.8181849" lon="-75.8431392"><ele>13.166666666666666</ele><time>2026-04-18T10:24:03.699Z</time></trkpt><trkpt lat="8.8182561" lon="-75.8430902"><ele>13.0</ele><time>2026-04-18T10:24:04.698Z</time></trkpt><trkpt lat="8.8183039" lon="-75.8430426"><ele>12.999999999999998</ele><time>2026-04-18T10:24:05.698Z</time></trkpt><trkpt lat="8.818377" lon="-75.8429962"><ele>13.0</ele><time>2026-04-18T10:24:06.698Z</time></trkpt><trkpt lat="8.8184423" lon="-75.8429436"><ele>13.0</ele><time>2026-04-18T10:24:07.697Z</time></trkpt><trkpt lat="8.8185143" lon="-75.8428955"><ele>13.0</ele><time>2026-04-18T10:24:08.698Z</time></trkpt><trkpt lat="8.818581" lon="-75.8428441"><ele>12.999999999999998</ele><time>2026-04-18T10:24:09.697Z</time></trkpt><trkpt lat="8.8186556" lon="-75.8427988"><ele>13.0</ele><time>2026-04-18T10:24:10.697Z</time></trkpt><trkpt lat="8.8187261" lon="-75.8427471"><ele>12.833333333333332</ele><time>2026-04-18T10:24:11.697Z</time></trkpt><trkpt lat="8.8187927" lon="-75.842702"><ele>12.666666666666666</ele><time>2026-04-18T10:24:12.698Z</time></trkpt><trkpt lat="8.8188611" lon="-75.8426553"><ele>12.5</ele><time>2026-04-18T10:24:13.698Z</time></trkpt><trkpt lat="8.8189276" lon="-75.8426068"><ele>12.333333333333332</ele><time>2026-04-18T10:24:14.697Z</time></trkpt><trkpt lat="8.8189941" lon="-75.8425656"><ele>12.166666666666666</ele><time>2026-04-18T10:24:15.697Z</time></trkpt><trkpt lat="8.8190646" lon="-75.8425184"><ele>12.0</ele><time>2026-04-18T10:24:16.698Z</time></trkpt><trkpt lat="8.819138" lon="-75.8424792"><ele>12.333333333333334</ele><time>2026-04-18T10:24:17.697Z</time></trkpt><trkpt lat="8.8192018" lon="-75.8424324"><ele>12.666666666666668</ele><time>2026-04-18T10:24:18.697Z</time></trkpt><trkpt lat="8.8192657" lon="-75.842383"><ele>13.0</ele><time>2026-04-18T10:24:19.699Z</time></trkpt><trkpt lat="8.8193343" lon="-75.8423362"><ele>13.333333333333334</ele><time>2026-04-18T10:24:20.697Z</time></trkpt><trkpt lat="8.8194049" lon="-75.8422838"><ele>13.666666666666668</ele><time>2026-04-18T10:24:21.697Z</time></trkpt><trkpt lat="8.8194771" lon="-75.842251"><ele>14.0</ele><time>2026-04-18T10:24:22.698Z</time></trkpt><trkpt lat="8.8195427" lon="-75.842213"><ele>14.000000000000002</ele><time>2026-04-18T10:24:23.698Z</time></trkpt><trkpt lat="8.81961" lon="-75.8421636"><ele>14.0</ele><time>2026-04-18T10:24:24.699Z</time></trkpt><trkpt lat="8.8196641" lon="-75.8421199"><ele>14.0</ele><time>2026-04-18T10:24:25.698Z</time></trkpt><trkpt lat="8.8197369" lon="-75.8420732"><ele>14.0</ele><time>2026-04-18T10:24:26.698Z</time></trkpt><trkpt lat="8.8198162" lon="-75.8420302"><ele>14.000000000000002</ele><time>2026-04-18T10:24:27.697Z</time></trkpt><trkpt lat="8.8198884" lon="-75.8419891"><ele>14.0</ele><time>2026-04-18T10:24:28.699Z</time></trkpt><trkpt lat="8.8199507" lon="-75.8419366"><ele>14.000000000000002</ele><time>2026-04-18T10:24:29.697Z</time></trkpt><trkpt lat="8.8200186" lon="-75.8418796"><ele>14.0</ele><time>2026-04-18T10:24:30.698Z</time></trkpt><trkpt lat="8.8200844" lon="-75.841832"><ele>14.0</ele><time>2026-04-18T10:24:31.698Z</time></trkpt><trkpt lat="8.8201469" lon="-75.8417849"><ele>14.0</ele><time>2026-04-18T10:24:32.697Z</time></trkpt><trkpt lat="8.8202234" lon="-75.8417427"><ele>14.000000000000002</ele><time>2026-04-18T10:24:33.698Z</time></trkpt><trkpt lat="8.8202951" lon="-75.8417025"><ele>14.0</ele><time>2026-04-18T10:24:34.699Z</time></trkpt><trkpt lat="8.820353" lon="-75.8416558"><ele>13.833333333333334</ele><time>2026-04-18T10:24:35.698Z</time></trkpt><trkpt lat="8.8204185" lon="-75.8416128"><ele>13.666666666666668</ele><time>2026-04-18T10:24:36.697Z</time></trkpt><trkpt lat="8.8204853" lon="-75.8415671"><ele>13.5</ele><time>2026-04-18T10:24:37.699Z</time></trkpt><trkpt lat="8.8205494" lon="-75.8415243"><ele>13.333333333333332</ele><time>2026-04-18T10:24:38.697Z</time></trkpt><trkpt lat="8.8206057" lon="-75.8414934"><ele>13.166666666666666</ele><time>2026-04-18T10:24:39.698Z</time></trkpt><trkpt lat="8.8206813" lon="-75.8414507"><ele>13.0</ele><time>2026-04-18T10:24:40.698Z</time></trkpt><trkpt lat="8.8207516" lon="-75.8414066"><ele>12.999999999999998</ele><time>2026-04-18T10:24:41.698Z</time></trkpt><trkpt lat="8.8208195" lon="-75.8413588"><ele>13.0</ele><time>2026-04-18T10:24:42.698Z</time></trkpt><trkpt lat="8.8208967" lon="-75.8413173"><ele>13.0</ele><time>2026-04-18T10:24:43.699Z</time></trkpt><trkpt lat="8.8209565" lon="-75.8412651"><ele>13.0</ele><time>2026-04-18T10:24:44.698Z</time></trkpt><trkpt lat="8.8210121" lon="-75.8412253"><ele>12.999999999999998</ele><time>2026-04-18T10:24:45.698Z</time></trkpt><trkpt lat="8.8210734" lon="-75.8411769"><ele>13.0</ele><time>2026-04-18T10:24:46.698Z</time></trkpt><trkpt lat="8.8211453" lon="-75.8411372"><ele>13.166666666666666</ele><time>2026-04-18T10:24:47.698Z</time></trkpt><trkpt lat="8.8212097" lon="-75.8410924"><ele>13.333333333333332</ele><time>2026-04-18T10:24:48.698Z</time></trkpt><trkpt lat="8.8212792" lon="-75.8410455"><ele>13.5</ele><time>2026-04-18T10:24:49.698Z</time></trkpt><trkpt lat="8.821346" lon="-75.8410026"><ele>13.666666666666668</ele><time>2026-04-18T10:24:50.697Z</time></trkpt><trkpt lat="8.8214071" lon="-75.8409568"><ele>13.833333333333334</ele><time>2026-04-18T10:24:51.698Z</time></trkpt><trkpt lat="8.8214754" lon="-75.8409066"><ele>14.0</ele><time>2026-04-18T10:24:52.699Z</time></trkpt><trkpt lat="8.821541" lon="-75.8408564"><ele>14.166666666666668</ele><time>2026-04-18T10:24:53.697Z</time></trkpt><trkpt lat="8.8216106" lon="-75.8408093"><ele>14.333333333333334</ele><time>2026-04-18T10:24:54.699Z</time></trkpt><trkpt lat="8.8216825" lon="-75.8407606"><ele>14.5</ele><time>2026-04-18T10:24:55.698Z</time></trkpt><trkpt lat="8.8217533" lon="-75.8407157"><ele>14.666666666666668</ele><time>2026-04-18T10:24:56.697Z</time></trkpt><trkpt lat="8.8218211" lon="-75.8406642"><ele>14.833333333333334</ele><time>2026-04-18T10:24:57.698Z</time></trkpt><trkpt lat="8.8218881" lon="-75.8406179"><ele>15.0</ele><time>2026-04-18T10:24:58.698Z</time></trkpt><trkpt lat="8.8219558" lon="-75.8405704"><ele>15.0</ele><time>2026-04-18T10:24:59.698Z</time></trkpt><trkpt lat="8.8220229" lon="-75.8405252"><ele>15.0</ele><time>2026-04-18T10:25:00.697Z</time></trkpt><trkpt lat="8.8220904" lon="-75.8404793"><ele>15.0</ele><time>2026-04-18T10:25:01.698Z</time></trkpt><trkpt lat="8.8221609" lon="-75.8404334"><ele>15.0</ele><time>2026-04-18T10:25:02.698Z</time></trkpt><trkpt lat="8.8222306" lon="-75.8403897"><ele>15.0</ele><time>2026-04-18T10:25:03.698Z</time></trkpt><trkpt lat="8.822293" lon="-75.8403444"><ele>15.0</ele><time>2026-04-18T10:25:04.698Z</time></trkpt><trkpt lat="8.8223595" lon="-75.840302"><ele>15.0</ele><time>2026-04-18T10:25:05.698Z</time></trkpt><trkpt lat="8.8224249" lon="-75.840263"><ele>15.0</ele><time>2026-04-18T10:25:06.697Z</time></trkpt><trkpt lat="8.822492" lon="-75.8402173"><ele>15.0</ele><time>2026-04-18T10:25:07.698Z</time></trkpt><trkpt lat="8.8225596" lon="-75.840178"><ele>15.0</ele><time>2026-04-18T10:25:08.698Z</time></trkpt><trkpt lat="8.8226286" lon="-75.8401335"><ele>15.0</ele><time>2026-04-18T10:25:09.697Z</time></trkpt><trkpt lat="8.8226955" lon="-75.8400923"><ele>15.0</ele><time>2026-04-18T10:25:10.698Z</time></trkpt><trkpt lat="8.8227611" lon="-75.8400504"><ele>15.0</ele><time>2026-04-18T10:25:11.697Z</time></trkpt><trkpt lat="8.8228263" lon="-75.8400018"><ele>15.0</ele><time>2026-04-18T10:25:12.697Z</time></trkpt><trkpt lat="8.8228933" lon="-75.8399571"><ele>15.0</ele><time>2026-04-18T10:25:13.698Z</time></trkpt><trkpt lat="8.8229581" lon="-75.8399137"><ele>15.0</ele><time>2026-04-18T10:25:14.698Z</time></trkpt><trkpt lat="8.8230238" lon="-75.8398698"><ele>15.0</ele><time>2026-04-18T10:25:15.699Z</time></trkpt><trkpt lat="8.8230845" lon="-75.8398316"><ele>15.0</ele><time>2026-04-18T10:25:16.698Z</time></trkpt><trkpt lat="8.8231481" lon="-75.8397866"><ele>15.0</ele><time>2026-04-18T10:25:17.698Z</time></trkpt><trkpt lat="8.8232077" lon="-75.839743"><ele>15.0</ele><time>2026-04-18T10:25:18.697Z</time></trkpt><trkpt lat="8.823275" lon="-75.8397042"><ele>15.0</ele><time>2026-04-18T10:25:19.698Z</time></trkpt><trkpt lat="8.8233418" lon="-75.8396598"><ele>15.0</ele><time>2026-04-18T10:25:20.698Z</time></trkpt><trkpt lat="8.8234063" lon="-75.8396171"><ele>15.0</ele><time>2026-04-18T10:25:21.698Z</time></trkpt><trkpt lat="8.8234742" lon="-75.8395755"><ele>15.0</ele><time>2026-04-18T10:25:22.698Z</time></trkpt><trkpt lat="8.8235418" lon="-75.8395265"><ele>15.0</ele><time>2026-04-18T10:25:23.699Z</time></trkpt><trkpt lat="8.8236094" lon="-75.8394872"><ele>15.0</ele><time>2026-04-18T10:25:24.698Z</time></trkpt><trkpt lat="8.8236729" lon="-75.8394444"><ele>15.0</ele><time>2026-04-18T10:25:25.698Z</time></trkpt><trkpt lat="8.8237369" lon="-75.8394039"><ele>15.0</ele><time>2026-04-18T10:25:26.698Z</time></trkpt><trkpt lat="8.8238005" lon="-75.8393662"><ele>15.0</ele><time>2026-04-18T10:25:27.698Z</time></trkpt><trkpt lat="8.8238551" lon="-75.8393244"><ele>15.0</ele><time>2026-04-18T10:25:28.698Z</time></trkpt><trkpt lat="8.8239052" lon="-75.8392841"><ele>15.0</ele><time>2026-04-18T10:25:29.698Z</time></trkpt><trkpt lat="8.8239619" lon="-75.8392466"><ele>15.0</ele><time>2026-04-18T10:25:30.699Z</time></trkpt><trkpt lat="8.8240609" lon="-75.8391769"><ele>15.0</ele><time>2026-04-18T10:25:32.697Z</time></trkpt><trkpt lat="8.8241402" lon="-75.8391248"><ele>15.0</ele><time>2026-04-18T10:25:34.698Z</time></trkpt><trkpt lat="8.8242113" lon="-75.8390743"><ele>15.0</ele><time>2026-04-18T10:25:36.698Z</time></trkpt><trkpt lat="8.8242773" lon="-75.8390282"><ele>15.0</ele><time>2026-04-18T10:25:38.698Z</time></trkpt><trkpt lat="8.8243378" lon="-75.8389921"><ele>15.0</ele><time>2026-04-18T10:25:40.698Z</time></trkpt><trkpt lat="8.8243896" lon="-75.8389479"><ele>15.0</ele><time>2026-04-18T10:25:42.698Z</time></trkpt><trkpt lat="8.8244458" lon="-75.8389107"><ele>15.0</ele><time>2026-04-18T10:26:50.698Z</time></trkpt><trkpt lat="8.824517" lon="-75.8388594"><ele>15.0</ele><time>2026-04-18T10:26:54.697Z</time></trkpt><trkpt lat="8.824574" lon="-75.8388286"><ele>15.0</ele><time>2026-04-18T10:26:56.697Z</time></trkpt><trkpt lat="8.8246551" lon="-75.8387731"><ele>15.0</ele><time>2026-04-18T10:26:59.698Z</time></trkpt><trkpt lat="8.8247123" lon="-75.8387298"><ele>15.0</ele><time>2026-04-18T10:27:01.698Z</time></trkpt><trkpt lat="8.8247755" lon="-75.8386777"><ele>15.0</ele><time>2026-04-18T10:27:03.699Z</time></trkpt><trkpt lat="8.8248451" lon="-75.8386239"><ele>15.0</ele><time>2026-04-18T10:27:05.697Z</time></trkpt><trkpt lat="8.8249224" lon="-75.8385674"><ele>15.0</ele><time>2026-04-18T10:27:07.698Z</time></trkpt><trkpt lat="8.8250068" lon="-75.8385136"><ele>15.0</ele><time>2026-04-18T10:27:09.697Z</time></trkpt><trkpt lat="8.8250944" lon="-75.8384495"><ele>14.8</ele><time>2026-04-18T10:27:11.697Z</time></trkpt><trkpt lat="8.8251905" lon="-75.8383913"><ele>14.6</ele><time>2026-04-18T10:27:13.698Z</time></trkpt><trkpt lat="8.8252926" lon="-75.8383292"><ele>14.399999999999999</ele><time>2026-04-18T10:27:15.697Z</time></trkpt><trkpt lat="8.8253483" lon="-75.838296"><ele>14.2</ele><time>2026-04-18T10:27:16.697Z</time></trkpt><trkpt lat="8.8254559" lon="-75.8382227"><ele>14.0</ele><time>2026-04-18T10:27:18.698Z</time></trkpt><trkpt lat="8.8255687" lon="-75.8381556"><ele>14.0</ele><time>2026-04-18T10:27:20.697Z</time></trkpt><trkpt lat="8.8256309" lon="-75.8381205"><ele>14.0</ele><time>2026-04-18T10:27:21.697Z</time></trkpt><trkpt lat="8.8256899" lon="-75.8380797"><ele>14.0</ele><time>2026-04-18T10:27:22.698Z</time></trkpt><trkpt lat="8.8257533" lon="-75.8380419"><ele>14.0</ele><time>2026-04-18T10:27:23.698Z</time></trkpt><trkpt lat="8.8258163" lon="-75.8379954"><ele>14.0</ele><time>2026-04-18T10:27:24.698Z</time></trkpt><trkpt lat="8.8258804" lon="-75.8379536"><ele>14.0</ele><time>2026-04-18T10:27:25.697Z</time></trkpt><trkpt lat="8.8259417" lon="-75.8379089"><ele>14.0</ele><time>2026-04-18T10:27:26.698Z</time></trkpt><trkpt lat="8.8260072" lon="-75.8378706"><ele>13.833333333333334</ele><time>2026-04-18T10:27:27.698Z</time></trkpt><trkpt lat="8.8260685" lon="-75.8378154"><ele>13.666666666666668</ele><time>2026-04-18T10:27:28.698Z</time></trkpt><trkpt lat="8.8261326" lon="-75.8377804"><ele>13.5</ele><time>2026-04-18T10:27:29.697Z</time></trkpt><trkpt lat="8.8262053" lon="-75.837733"><ele>13.333333333333332</ele><time>2026-04-18T10:27:30.697Z</time></trkpt><trkpt lat="8.82626" lon="-75.8376841"><ele>13.166666666666666</ele><time>2026-04-18T10:27:31.697Z</time></trkpt><trkpt lat="8.8263255" lon="-75.8376338"><ele>13.0</ele><time>2026-04-18T10:27:32.697Z</time></trkpt><trkpt lat="8.8264077" lon="-75.837585"><ele>12.999999999999998</ele><time>2026-04-18T10:27:33.697Z</time></trkpt><trkpt lat="8.8264805" lon="-75.8375432"><ele>13.0</ele><time>2026-04-18T10:27:34.697Z</time></trkpt><trkpt lat="8.8265608" lon="-75.8374955"><ele>13.0</ele><time>2026-04-18T10:27:35.697Z</time></trkpt><trkpt lat="8.8266236" lon="-75.8374511"><ele>13.0</ele><time>2026-04-18T10:27:36.697Z</time></trkpt><trkpt lat="8.8266741" lon="-75.8374121"><ele>12.999999999999998</ele><time>2026-04-18T10:27:37.697Z</time></trkpt><trkpt lat="8.8267502" lon="-75.8373646"><ele>13.0</ele><time>2026-04-18T10:27:38.699Z</time></trkpt><trkpt lat="8.8268224" lon="-75.8373151"><ele>12.833333333333332</ele><time>2026-04-18T10:27:39.698Z</time></trkpt><trkpt lat="8.8268984" lon="-75.8372708"><ele>12.666666666666666</ele><time>2026-04-18T10:27:40.698Z</time></trkpt><trkpt lat="8.8269746" lon="-75.8372215"><ele>12.5</ele><time>2026-04-18T10:27:41.697Z</time></trkpt><trkpt lat="8.8270474" lon="-75.8371678"><ele>12.333333333333332</ele><time>2026-04-18T10:27:42.697Z</time></trkpt><trkpt lat="8.8271219" lon="-75.8371209"><ele>12.166666666666666</ele><time>2026-04-18T10:27:43.697Z</time></trkpt><trkpt lat="8.8271961" lon="-75.8370773"><ele>12.0</ele><time>2026-04-18T10:27:44.697Z</time></trkpt><trkpt lat="8.8272619" lon="-75.8370251"><ele>12.0</ele><time>2026-04-18T10:27:45.697Z</time></trkpt><trkpt lat="8.8273331" lon="-75.8369834"><ele>12.0</ele><time>2026-04-18T10:27:46.697Z</time></trkpt><trkpt lat="8.8274069" lon="-75.8369379"><ele>12.0</ele><time>2026-04-18T10:27:47.696Z</time></trkpt><trkpt lat="8.8274771" lon="-75.8368906"><ele>12.0</ele><time>2026-04-18T10:27:48.698Z</time></trkpt><trkpt lat="8.827553" lon="-75.8368384"><ele>12.0</ele><time>2026-04-18T10:27:49.697Z</time></trkpt><trkpt lat="8.8276241" lon="-75.8367891"><ele>12.0</ele><time>2026-04-18T10:27:50.697Z</time></trkpt><trkpt lat="8.8277025" lon="-75.8367315"><ele>12.166666666666666</ele><time>2026-04-18T10:27:51.697Z</time></trkpt><trkpt lat="8.827772" lon="-75.8366839"><ele>12.333333333333332</ele><time>2026-04-18T10:27:52.698Z</time></trkpt><trkpt lat="8.8278479" lon="-75.8366345"><ele>12.5</ele><time>2026-04-18T10:27:53.698Z</time></trkpt><trkpt lat="8.827921" lon="-75.8365825"><ele>12.666666666666666</ele><time>2026-04-18T10:27:54.699Z</time></trkpt><trkpt lat="8.8279996" lon="-75.8365367"><ele>12.833333333333332</ele><time>2026-04-18T10:27:55.697Z</time></trkpt><trkpt lat="8.8280723" lon="-75.8364901"><ele>13.0</ele><time>2026-04-18T10:27:56.698Z</time></trkpt><trkpt lat="8.8281491" lon="-75.8364474"><ele>12.999999999999998</ele><time>2026-04-18T10:27:57.697Z</time></trkpt><trkpt lat="8.8282196" lon="-75.8363965"><ele>13.0</ele><time>2026-04-18T10:27:58.698Z</time></trkpt><trkpt lat="8.8282907" lon="-75.8363481"><ele>13.0</ele><time>2026-04-18T10:27:59.697Z</time></trkpt><trkpt lat="8.8283634" lon="-75.8362992"><ele>13.0</ele><time>2026-04-18T10:28:00.698Z</time></trkpt><trkpt lat="8.8284361" lon="-75.8362453"><ele>12.999999999999998</ele><time>2026-04-18T10:28:01.698Z</time></trkpt><trkpt lat="8.828511" lon="-75.8361932"><ele>13.0</ele><time>2026-04-18T10:28:02.697Z</time></trkpt><trkpt lat="8.8285876" lon="-75.836141"><ele>12.8</ele><time>2026-04-18T10:28:03.697Z</time></trkpt><trkpt lat="8.8286588" lon="-75.8360838"><ele>12.600000000000001</ele><time>2026-04-18T10:28:04.698Z</time></trkpt><trkpt lat="8.8287344" lon="-75.8360308"><ele>12.399999999999999</ele><time>2026-04-18T10:28:05.698Z</time></trkpt><trkpt lat="8.8288111" lon="-75.8359846"><ele>12.2</ele><time>2026-04-18T10:28:06.698Z</time></trkpt><trkpt lat="8.8288852" lon="-75.8359348"><ele>12.0</ele><time>2026-04-18T10:28:07.698Z</time></trkpt><trkpt lat="8.8289601" lon="-75.835883"><ele>12.0</ele><time>2026-04-18T10:28:08.697Z</time></trkpt><trkpt lat="8.8290259" lon="-75.8358329"><ele>12.0</ele><time>2026-04-18T10:28:09.697Z</time></trkpt><trkpt lat="8.8290951" lon="-75.8357847"><ele>12.0</ele><time>2026-04-18T10:28:10.697Z</time></trkpt><trkpt lat="8.8291697" lon="-75.8357361"><ele>12.0</ele><time>2026-04-18T10:28:11.697Z</time></trkpt><trkpt lat="8.8292478" lon="-75.8356904"><ele>12.0</ele><time>2026-04-18T10:28:12.698Z</time></trkpt><trkpt lat="8.8293201" lon="-75.8356381"><ele>12.0</ele><time>2026-04-18T10:28:13.698Z</time></trkpt><trkpt lat="8.8293894" lon="-75.8356023"><ele>12.0</ele><time>2026-04-18T10:28:14.698Z</time></trkpt><trkpt lat="8.8294655" lon="-75.8355493"><ele>12.0</ele><time>2026-04-18T10:28:15.697Z</time></trkpt><trkpt lat="8.8295427" lon="-75.8354958"><ele>12.0</ele><time>2026-04-18T10:28:16.697Z</time></trkpt><trkpt lat="8.8296185" lon="-75.8354506"><ele>12.0</ele><time>2026-04-18T10:28:17.698Z</time></trkpt><trkpt lat="8.8296911" lon="-75.8353972"><ele>12.0</ele><time>2026-04-18T10:28:18.698Z</time></trkpt><trkpt lat="8.8297606" lon="-75.8353536"><ele>12.0</ele><time>2026-04-18T10:28:19.696Z</time></trkpt><trkpt lat="8.8298298" lon="-75.8353079"><ele>12.0</ele><time>2026-04-18T10:28:20.698Z</time></trkpt><trkpt lat="8.8299042" lon="-75.8352589"><ele>12.0</ele><time>2026-04-18T10:28:21.697Z</time></trkpt><trkpt lat="8.8299823" lon="-75.8351999"><ele>12.0</ele><time>2026-04-18T10:28:22.697Z</time></trkpt><trkpt lat="8.830058" lon="-75.8351506"><ele>12.0</ele><time>2026-04-18T10:28:23.697Z</time></trkpt><trkpt lat="8.8301359" lon="-75.8351103"><ele>12.0</ele><time>2026-04-18T10:28:24.697Z</time></trkpt><trkpt lat="8.8302036" lon="-75.8350605"><ele>12.0</ele><time>2026-04-18T10:28:25.697Z</time></trkpt><trkpt lat="8.8302722" lon="-75.8350142"><ele>12.333333333333334</ele><time>2026-04-18T10:28:26.697Z</time></trkpt><trkpt lat="8.8303276" lon="-75.8349717"><ele>12.666666666666668</ele><time>2026-04-18T10:28:27.698Z</time></trkpt><trkpt lat="8.8303983" lon="-75.8349285"><ele>13.0</ele><time>2026-04-18T10:28:28.698Z</time></trkpt><trkpt lat="8.8304688" lon="-75.8348834"><ele>13.333333333333334</ele><time>2026-04-18T10:28:29.698Z</time></trkpt><trkpt lat="8.8305366" lon="-75.8348362"><ele>13.666666666666668</ele><time>2026-04-18T10:28:30.698Z</time></trkpt><trkpt lat="8.8306091" lon="-75.8347845"><ele>14.0</ele><time>2026-04-18T10:28:31.697Z</time></trkpt><trkpt lat="8.8306609" lon="-75.8347435"><ele>14.000000000000002</ele><time>2026-04-18T10:28:32.698Z</time></trkpt><trkpt lat="8.8307268" lon="-75.8346994"><ele>14.0</ele><time>2026-04-18T10:28:33.697Z</time></trkpt><trkpt lat="8.8308003" lon="-75.8346515"><ele>14.0</ele><time>2026-04-18T10:28:34.697Z</time></trkpt><trkpt lat="8.8308652" lon="-75.8346077"><ele>14.0</ele><time>2026-04-18T10:28:35.697Z</time></trkpt><trkpt lat="8.8309373" lon="-75.834568"><ele>14.000000000000002</ele><time>2026-04-18T10:28:36.697Z</time></trkpt><trkpt lat="8.8310013" lon="-75.8345235"><ele>14.0</ele><time>2026-04-18T10:28:37.698Z</time></trkpt><trkpt lat="8.8310717" lon="-75.834477"><ele>14.166666666666668</ele><time>2026-04-18T10:28:38.698Z</time></trkpt><trkpt lat="8.8311387" lon="-75.8344333"><ele>14.333333333333334</ele><time>2026-04-18T10:28:39.698Z</time></trkpt><trkpt lat="8.8311962" lon="-75.8343893"><ele>14.5</ele><time>2026-04-18T10:28:40.697Z</time></trkpt><trkpt lat="8.8312638" lon="-75.8343401"><ele>14.666666666666668</ele><time>2026-04-18T10:28:41.697Z</time></trkpt><trkpt lat="8.8313336" lon="-75.8342967"><ele>14.833333333333334</ele><time>2026-04-18T10:28:42.697Z</time></trkpt><trkpt lat="8.831403" lon="-75.8342526"><ele>15.0</ele><time>2026-04-18T10:28:43.698Z</time></trkpt><trkpt lat="8.8314712" lon="-75.8342067"><ele>14.666666666666666</ele><time>2026-04-18T10:28:44.697Z</time></trkpt><trkpt lat="8.831544" lon="-75.8341604"><ele>14.333333333333332</ele><time>2026-04-18T10:28:45.698Z</time></trkpt><trkpt lat="8.8316149" lon="-75.8341135"><ele>14.0</ele><time>2026-04-18T10:28:46.698Z</time></trkpt><trkpt lat="8.8316788" lon="-75.8340647"><ele>13.666666666666666</ele><time>2026-04-18T10:28:47.697Z</time></trkpt><trkpt lat="8.8317421" lon="-75.834018"><ele>13.333333333333332</ele><time>2026-04-18T10:28:48.697Z</time></trkpt><trkpt lat="8.8318133" lon="-75.833966"><ele>13.0</ele><time>2026-04-18T10:28:49.698Z</time></trkpt><trkpt lat="8.831877" lon="-75.83392"><ele>12.999999999999998</ele><time>2026-04-18T10:28:50.698Z</time></trkpt><trkpt lat="8.8319481" lon="-75.833877"><ele>13.0</ele><time>2026-04-18T10:28:51.698Z</time></trkpt><trkpt lat="8.8320194" lon="-75.8338339"><ele>13.0</ele><time>2026-04-18T10:28:52.697Z</time></trkpt><trkpt lat="8.8320914" lon="-75.833785"><ele>13.0</ele><time>2026-04-18T10:28:53.698Z</time></trkpt><trkpt lat="8.8321609" lon="-75.8337331"><ele>12.999999999999998</ele><time>2026-04-18T10:28:54.698Z</time></trkpt><trkpt lat="8.8322332" lon="-75.8336855"><ele>13.0</ele><time>2026-04-18T10:28:55.697Z</time></trkpt><trkpt lat="8.8323043" lon="-75.8336373"><ele>12.999999999999998</ele><time>2026-04-18T10:28:56.697Z</time></trkpt><trkpt lat="8.8323716" lon="-75.8335908"><ele>13.0</ele><time>2026-04-18T10:28:57.697Z</time></trkpt><trkpt lat="8.8324342" lon="-75.8335433"><ele>13.0</ele><time>2026-04-18T10:28:58.697Z</time></trkpt><trkpt lat="8.8324979" lon="-75.8335018"><ele>13.0</ele><time>2026-04-18T10:28:59.697Z</time></trkpt><trkpt lat="8.832566" lon="-75.8334579"><ele>12.999999999999998</ele><time>2026-04-18T10:29:00.697Z</time></trkpt><trkpt lat="8.8326338" lon="-75.8334161"><ele>13.0</ele><time>2026-04-18T10:29:01.697Z</time></trkpt><trkpt lat="8.8326952" lon="-75.8333748"><ele>12.999999999999998</ele><time>2026-04-18T10:29:02.698Z</time></trkpt><trkpt lat="8.8327567" lon="-75.8333333"><ele>13.0</ele><time>2026-04-18T10:29:03.697Z</time></trkpt><trkpt lat="8.8328184" lon="-75.8332902"><ele>13.0</ele><time>2026-04-18T10:29:04.697Z</time></trkpt><trkpt lat="8.832886" lon="-75.8332454"><ele>13.0</ele><time>2026-04-18T10:29:05.698Z</time></trkpt><trkpt lat="8.8329529" lon="-75.8332011"><ele>12.999999999999998</ele><time>2026-04-18T10:29:06.697Z</time></trkpt><trkpt lat="8.8330227" lon="-75.8331539"><ele>13.0</ele><time>2026-04-18T10:29:07.698Z</time></trkpt><trkpt lat="8.8330909" lon="-75.8331123"><ele>12.999999999999998</ele><time>2026-04-18T10:29:08.697Z</time></trkpt><trkpt lat="8.8331582" lon="-75.8330644"><ele>13.0</ele><time>2026-04-18T10:29:09.697Z</time></trkpt><trkpt lat="8.833217" lon="-75.8330131"><ele>13.0</ele><time>2026-04-18T10:29:10.697Z</time></trkpt><trkpt lat="8.8332845" lon="-75.8329659"><ele>13.0</ele><time>2026-04-18T10:29:11.697Z</time></trkpt><trkpt lat="8.8333469" lon="-75.83292"><ele>12.999999999999998</ele><time>2026-04-18T10:29:12.697Z</time></trkpt><trkpt lat="8.8334149" lon="-75.8328768"><ele>13.0</ele><time>2026-04-18T10:29:13.697Z</time></trkpt><trkpt lat="8.8334734" lon="-75.8328284"><ele>12.999999999999998</ele><time>2026-04-18T10:29:14.697Z</time></trkpt><trkpt lat="8.8335419" lon="-75.832785"><ele>13.0</ele><time>2026-04-18T10:29:15.697Z</time></trkpt><trkpt lat="8.8336115" lon="-75.8327362"><ele>13.0</ele><time>2026-04-18T10:29:16.697Z</time></trkpt><trkpt lat="8.8336777" lon="-75.8326874"><ele>13.0</ele><time>2026-04-18T10:29:17.699Z</time></trkpt><trkpt lat="8.8337479" lon="-75.8326405"><ele>12.999999999999998</ele><time>2026-04-18T10:29:18.697Z</time></trkpt><trkpt lat="8.8338099" lon="-75.8325902"><ele>13.0</ele><time>2026-04-18T10:29:19.697Z</time></trkpt><trkpt lat="8.8338797" lon="-75.8325405"><ele>13.166666666666666</ele><time>2026-04-18T10:29:20.697Z</time></trkpt><trkpt lat="8.8339468" lon="-75.83249"><ele>13.333333333333332</ele><time>2026-04-18T10:29:21.697Z</time></trkpt><trkpt lat="8.8340075" lon="-75.8324403"><ele>13.5</ele><time>2026-04-18T10:29:22.697Z</time></trkpt><trkpt lat="8.834073" lon="-75.8323931"><ele>13.666666666666668</ele><time>2026-04-18T10:29:23.698Z</time></trkpt><trkpt lat="8.8341425" lon="-75.8323484"><ele>13.833333333333334</ele><time>2026-04-18T10:29:24.699Z</time></trkpt><trkpt lat="8.8342065" lon="-75.832301"><ele>14.0</ele><time>2026-04-18T10:29:25.697Z</time></trkpt><trkpt lat="8.8342681" lon="-75.8322526"><ele>14.000000000000002</ele><time>2026-04-18T10:29:26.697Z</time></trkpt><trkpt lat="8.8343351" lon="-75.8322076"><ele>14.0</ele><time>2026-04-18T10:29:27.696Z</time></trkpt><trkpt lat="8.8344008" lon="-75.8321614"><ele>14.0</ele><time>2026-04-18T10:29:28.698Z</time></trkpt><trkpt lat="8.8344678" lon="-75.8321121"><ele>14.0</ele><time>2026-04-18T10:29:29.698Z</time></trkpt><trkpt lat="8.8345381" lon="-75.832065"><ele>14.000000000000002</ele><time>2026-04-18T10:29:30.697Z</time></trkpt><trkpt lat="8.8346069" lon="-75.8320257"><ele>14.0</ele><time>2026-04-18T10:29:31.697Z</time></trkpt><trkpt lat="8.8346786" lon="-75.8319825"><ele>14.000000000000002</ele><time>2026-04-18T10:29:32.696Z</time></trkpt><trkpt lat="8.8347516" lon="-75.8319389"><ele>14.0</ele><time>2026-04-18T10:29:33.697Z</time></trkpt><trkpt lat="8.8348196" lon="-75.8318939"><ele>14.0</ele><time>2026-04-18T10:29:34.697Z</time></trkpt><trkpt lat="8.8348904" lon="-75.8318506"><ele>14.0</ele><time>2026-04-18T10:29:35.697Z</time></trkpt><trkpt lat="8.8349582" lon="-75.8318106"><ele>14.000000000000002</ele><time>2026-04-18T10:29:36.697Z</time></trkpt><trkpt lat="8.8350283" lon="-75.8317657"><ele>14.0</ele><time>2026-04-18T10:29:37.697Z</time></trkpt><trkpt lat="8.8350937" lon="-75.8317236"><ele>14.000000000000002</ele><time>2026-04-18T10:29:38.697Z</time></trkpt><trkpt lat="8.8351615" lon="-75.8316793"><ele>14.0</ele><time>2026-04-18T10:29:39.698Z</time></trkpt><trkpt lat="8.8352334" lon="-75.8316356"><ele>14.0</ele><time>2026-04-18T10:29:40.698Z</time></trkpt><trkpt lat="8.8353057" lon="-75.8315897"><ele>14.0</ele><time>2026-04-18T10:29:41.698Z</time></trkpt><trkpt lat="8.8353757" lon="-75.831541"><ele>14.000000000000002</ele><time>2026-04-18T10:29:42.697Z</time></trkpt><trkpt lat="8.835447" lon="-75.8314915"><ele>14.0</ele><time>2026-04-18T10:29:43.697Z</time></trkpt><trkpt lat="8.8355126" lon="-75.8314403"><ele>14.000000000000002</ele><time>2026-04-18T10:29:44.699Z</time></trkpt><trkpt lat="8.8355858" lon="-75.8313926"><ele>14.0</ele><time>2026-04-18T10:29:45.697Z</time></trkpt><trkpt lat="8.8356527" lon="-75.8313493"><ele>14.0</ele><time>2026-04-18T10:29:46.697Z</time></trkpt><trkpt lat="8.835717" lon="-75.8313009"><ele>14.0</ele><time>2026-04-18T10:29:47.698Z</time></trkpt><trkpt lat="8.8357854" lon="-75.8312577"><ele>14.000000000000002</ele><time>2026-04-18T10:29:48.696Z</time></trkpt><trkpt lat="8.8358558" lon="-75.8312148"><ele>14.0</ele><time>2026-04-18T10:29:49.698Z</time></trkpt><trkpt lat="8.8359243" lon="-75.8311711"><ele>13.833333333333334</ele><time>2026-04-18T10:29:50.697Z</time></trkpt><trkpt lat="8.8359925" lon="-75.8311258"><ele>13.666666666666668</ele><time>2026-04-18T10:29:51.698Z</time></trkpt><trkpt lat="8.836045" lon="-75.8310751"><ele>13.5</ele><time>2026-04-18T10:29:52.697Z</time></trkpt><trkpt lat="8.8361081" lon="-75.8310348"><ele>13.333333333333332</ele><time>2026-04-18T10:29:53.697Z</time></trkpt><trkpt lat="8.8361763" lon="-75.8309898"><ele>13.166666666666666</ele><time>2026-04-18T10:29:54.697Z</time></trkpt><trkpt lat="8.8362442" lon="-75.8309463"><ele>13.0</ele><time>2026-04-18T10:29:55.697Z</time></trkpt><trkpt lat="8.8363049" lon="-75.8308973"><ele>12.999999999999998</ele><time>2026-04-18T10:29:56.698Z</time></trkpt><trkpt lat="8.8363728" lon="-75.830855"><ele>13.0</ele><time>2026-04-18T10:29:57.697Z</time></trkpt><trkpt lat="8.8364385" lon="-75.8308129"><ele>13.0</ele><time>2026-04-18T10:29:58.697Z</time></trkpt><trkpt lat="8.8365074" lon="-75.8307711"><ele>13.0</ele><time>2026-04-18T10:29:59.698Z</time></trkpt><trkpt lat="8.8365736" lon="-75.8307295"><ele>12.999999999999998</ele><time>2026-04-18T10:30:00.698Z</time></trkpt><trkpt lat="8.8366374" lon="-75.8306911"><ele>13.0</ele><time>2026-04-18T10:30:01.697Z</time></trkpt><trkpt lat="8.8367037" lon="-75.8306479"><ele>12.999999999999998</ele><time>2026-04-18T10:30:02.697Z</time></trkpt><trkpt lat="8.8367683" lon="-75.8306066"><ele>13.0</ele><time>2026-04-18T10:30:03.698Z</time></trkpt><trkpt lat="8.8368384" lon="-75.8305627"><ele>13.0</ele><time>2026-04-18T10:30:04.697Z</time></trkpt><trkpt lat="8.8369037" lon="-75.8305193"><ele>13.0</ele><time>2026-04-18T10:30:05.698Z</time></trkpt><trkpt lat="8.8369723" lon="-75.8304745"><ele>12.999999999999998</ele><time>2026-04-18T10:30:06.697Z</time></trkpt><trkpt lat="8.8370358" lon="-75.8304303"><ele>13.0</ele><time>2026-04-18T10:30:07.698Z</time></trkpt><trkpt lat="8.8371033" lon="-75.830384"><ele>13.166666666666666</ele><time>2026-04-18T10:30:08.697Z</time></trkpt><trkpt lat="8.8371679" lon="-75.8303419"><ele>13.333333333333332</ele><time>2026-04-18T10:30:09.697Z</time></trkpt><trkpt lat="8.8372282" lon="-75.830296"><ele>13.5</ele><time>2026-04-18T10:30:10.697Z</time></trkpt><trkpt lat="8.8372934" lon="-75.830251"><ele>13.666666666666668</ele><time>2026-04-18T10:30:11.697Z</time></trkpt><trkpt lat="8.8373553" lon="-75.8302086"><ele>13.833333333333334</ele><time>2026-04-18T10:30:12.697Z</time></trkpt><trkpt lat="8.8374218" lon="-75.8301722"><ele>14.0</ele><time>2026-04-18T10:30:13.697Z</time></trkpt><trkpt lat="8.8374849" lon="-75.8301294"><ele>14.166666666666668</ele><time>2026-04-18T10:30:14.697Z</time></trkpt><trkpt lat="8.8375452" lon="-75.8300905"><ele>14.333333333333334</ele><time>2026-04-18T10:30:15.698Z</time></trkpt><trkpt lat="8.8376096" lon="-75.8300478"><ele>14.5</ele><time>2026-04-18T10:30:16.697Z</time></trkpt><trkpt lat="8.8376749" lon="-75.8300058"><ele>14.666666666666668</ele><time>2026-04-18T10:30:17.697Z</time></trkpt><trkpt lat="8.8377324" lon="-75.8299621"><ele>14.833333333333334</ele><time>2026-04-18T10:30:18.698Z</time></trkpt><trkpt lat="8.8377974" lon="-75.8299185"><ele>15.0</ele><time>2026-04-18T10:30:19.697Z</time></trkpt><trkpt lat="8.8378559" lon="-75.829872"><ele>15.166666666666666</ele><time>2026-04-18T10:30:20.697Z</time></trkpt><trkpt lat="8.8379206" lon="-75.8298309"><ele>15.333333333333332</ele><time>2026-04-18T10:30:21.697Z</time></trkpt><trkpt lat="8.8379848" lon="-75.8297849"><ele>15.5</ele><time>2026-04-18T10:30:22.697Z</time></trkpt><trkpt lat="8.838048" lon="-75.8297391"><ele>15.666666666666666</ele><time>2026-04-18T10:30:23.698Z</time></trkpt><trkpt lat="8.8381193" lon="-75.8296976"><ele>15.833333333333332</ele><time>2026-04-18T10:30:24.697Z</time></trkpt><trkpt lat="8.8381852" lon="-75.8296492"><ele>16.0</ele><time>2026-04-18T10:30:25.698Z</time></trkpt><trkpt lat="8.8382508" lon="-75.829602"><ele>15.999999999999998</ele><time>2026-04-18T10:30:26.697Z</time></trkpt><trkpt lat="8.8383133" lon="-75.8295585"><ele>16.0</ele><time>2026-04-18T10:30:27.697Z</time></trkpt><trkpt lat="8.8383769" lon="-75.829512"><ele>16.0</ele><time>2026-04-18T10:30:28.698Z</time></trkpt><trkpt lat="8.8384431" lon="-75.829469"><ele>16.0</ele><time>2026-04-18T10:30:29.697Z</time></trkpt><trkpt lat="8.8385113" lon="-75.8294289"><ele>15.999999999999998</ele><time>2026-04-18T10:30:30.697Z</time></trkpt><trkpt lat="8.8385796" lon="-75.8293852"><ele>16.0</ele><time>2026-04-18T10:30:31.697Z</time></trkpt><trkpt lat="8.8386445" lon="-75.8293404"><ele>15.499999999999998</ele><time>2026-04-18T10:30:32.697Z</time></trkpt><trkpt lat="8.8387111" lon="-75.8292969"><ele>15.0</ele><time>2026-04-18T10:30:33.697Z</time></trkpt><trkpt lat="8.8387761" lon="-75.8292507"><ele>14.5</ele><time>2026-04-18T10:30:34.697Z</time></trkpt><trkpt lat="8.8388431" lon="-75.829209"><ele>14.0</ele><time>2026-04-18T10:30:35.697Z</time></trkpt><trkpt lat="8.8389105" lon="-75.8291623"><ele>13.499999999999998</ele><time>2026-04-18T10:30:36.697Z</time></trkpt><trkpt lat="8.8389772" lon="-75.8291212"><ele>13.0</ele><time>2026-04-18T10:30:37.697Z</time></trkpt><trkpt lat="8.8390448" lon="-75.8290771"><ele>12.999999999999998</ele><time>2026-04-18T10:30:38.697Z</time></trkpt><trkpt lat="8.83911" lon="-75.8290322"><ele>13.0</ele><time>2026-04-18T10:30:39.698Z</time></trkpt><trkpt lat="8.8391728" lon="-75.828984"><ele>13.0</ele><time>2026-04-18T10:30:40.697Z</time></trkpt><trkpt lat="8.839241" lon="-75.8289394"><ele>13.0</ele><time>2026-04-18T10:30:41.697Z</time></trkpt><trkpt lat="8.8393103" lon="-75.8289006"><ele>12.999999999999998</ele><time>2026-04-18T10:30:42.697Z</time></trkpt><trkpt lat="8.8393761" lon="-75.8288573"><ele>13.0</ele><time>2026-04-18T10:30:43.697Z</time></trkpt><trkpt lat="8.8394348" lon="-75.8288131"><ele>12.833333333333332</ele><time>2026-04-18T10:30:44.698Z</time></trkpt><trkpt lat="8.8394979" lon="-75.8287659"><ele>12.666666666666666</ele><time>2026-04-18T10:30:45.698Z</time></trkpt><trkpt lat="8.8395669" lon="-75.8287196"><ele>12.5</ele><time>2026-04-18T10:30:46.698Z</time></trkpt><trkpt lat="8.8396398" lon="-75.8286758"><ele>12.333333333333332</ele><time>2026-04-18T10:30:47.697Z</time></trkpt><trkpt lat="8.8397075" lon="-75.8286292"><ele>12.166666666666666</ele><time>2026-04-18T10:30:48.697Z</time></trkpt><trkpt lat="8.8397776" lon="-75.8285841"><ele>12.0</ele><time>2026-04-18T10:30:49.697Z</time></trkpt><trkpt lat="8.8398447" lon="-75.8285403"><ele>12.0</ele><time>2026-04-18T10:30:50.697Z</time></trkpt><trkpt lat="8.8399134" lon="-75.8284968"><ele>12.0</ele><time>2026-04-18T10:30:51.697Z</time></trkpt><trkpt lat="8.8399768" lon="-75.8284505"><ele>12.0</ele><time>2026-04-18T10:30:52.697Z</time></trkpt><trkpt lat="8.8400463" lon="-75.8284107"><ele>12.0</ele><time>2026-04-18T10:30:53.697Z</time></trkpt><trkpt lat="8.8401143" lon="-75.8283658"><ele>12.0</ele><time>2026-04-18T10:30:54.697Z</time></trkpt><trkpt lat="8.8401818" lon="-75.8283194"><ele>12.0</ele><time>2026-04-18T10:30:55.697Z</time></trkpt><trkpt lat="8.8402484" lon="-75.8282758"><ele>12.0</ele><time>2026-04-18T10:30:56.697Z</time></trkpt><trkpt lat="8.8403187" lon="-75.8282288"><ele>12.0</ele><time>2026-04-18T10:30:57.697Z</time></trkpt><trkpt lat="8.840385" lon="-75.8281826"><ele>12.0</ele><time>2026-04-18T10:30:58.697Z</time></trkpt><trkpt lat="8.8404525" lon="-75.8281339"><ele>12.0</ele><time>2026-04-18T10:30:59.697Z</time></trkpt><trkpt lat="8.8405201" lon="-75.8280914"><ele>12.0</ele><time>2026-04-18T10:31:00.697Z</time></trkpt><trkpt lat="8.8405912" lon="-75.8280508"><ele>12.0</ele><time>2026-04-18T10:31:01.698Z</time></trkpt><trkpt lat="8.8406551" lon="-75.8280096"><ele>12.0</ele><time>2026-04-18T10:31:02.697Z</time></trkpt><trkpt lat="8.8407212" lon="-75.8279626"><ele>12.0</ele><time>2026-04-18T10:31:03.698Z</time></trkpt><trkpt lat="8.8407836" lon="-75.8279149"><ele>12.0</ele><time>2026-04-18T10:31:04.698Z</time></trkpt><trkpt lat="8.8408491" lon="-75.8278732"><ele>12.0</ele><time>2026-04-18T10:31:05.697Z</time></trkpt><trkpt lat="8.8409158" lon="-75.8278275"><ele>12.0</ele><time>2026-04-18T10:31:06.698Z</time></trkpt><trkpt lat="8.8409773" lon="-75.827784"><ele>12.0</ele><time>2026-04-18T10:31:07.698Z</time></trkpt><trkpt lat="8.8410459" lon="-75.8277431"><ele>12.166666666666666</ele><time>2026-04-18T10:31:08.698Z</time></trkpt><trkpt lat="8.8411088" lon="-75.8276989"><ele>12.333333333333332</ele><time>2026-04-18T10:31:09.697Z</time></trkpt><trkpt lat="8.8411765" lon="-75.8276501"><ele>12.5</ele><time>2026-04-18T10:31:10.697Z</time></trkpt><trkpt lat="8.8412391" lon="-75.8275995"><ele>12.666666666666666</ele><time>2026-04-18T10:31:11.697Z</time></trkpt><trkpt lat="8.841307" lon="-75.8275498"><ele>12.833333333333332</ele><time>2026-04-18T10:31:12.697Z</time></trkpt><trkpt lat="8.8413759" lon="-75.8275027"><ele>13.0</ele><time>2026-04-18T10:31:13.697Z</time></trkpt><trkpt lat="8.8414415" lon="-75.8274557"><ele>12.999999999999998</ele><time>2026-04-18T10:31:14.697Z</time></trkpt><trkpt lat="8.841506" lon="-75.8274069"><ele>13.0</ele><time>2026-04-18T10:31:15.697Z</time></trkpt><trkpt lat="8.8415688" lon="-75.827358"><ele>13.0</ele><time>2026-04-18T10:31:16.697Z</time></trkpt><trkpt lat="8.8416294" lon="-75.8273043"><ele>13.0</ele><time>2026-04-18T10:31:17.697Z</time></trkpt><trkpt lat="8.8416934" lon="-75.8272531"><ele>12.999999999999998</ele><time>2026-04-18T10:31:18.698Z</time></trkpt><trkpt lat="8.8417611" lon="-75.827201"><ele>13.0</ele><time>2026-04-18T10:31:19.697Z</time></trkpt><trkpt lat="8.8418282" lon="-75.8271475"><ele>13.166666666666666</ele><time>2026-04-18T10:31:20.698Z</time></trkpt><trkpt lat="8.8418963" lon="-75.827091"><ele>13.333333333333332</ele><time>2026-04-18T10:31:21.697Z</time></trkpt><trkpt lat="8.8419623" lon="-75.8270386"><ele>13.5</ele><time>2026-04-18T10:31:22.697Z</time></trkpt><trkpt lat="8.8420249" lon="-75.8269816"><ele>13.666666666666668</ele><time>2026-04-18T10:31:23.697Z</time></trkpt><trkpt lat="8.8420879" lon="-75.8269282"><ele>13.833333333333334</ele><time>2026-04-18T10:31:24.697Z</time></trkpt><trkpt lat="8.8421493" lon="-75.8268699"><ele>14.0</ele><time>2026-04-18T10:31:25.697Z</time></trkpt><trkpt lat="8.8422153" lon="-75.8268135"><ele>13.833333333333334</ele><time>2026-04-18T10:31:26.697Z</time></trkpt><trkpt lat="8.842276" lon="-75.8267541"><ele>13.666666666666668</ele><time>2026-04-18T10:31:27.698Z</time></trkpt><trkpt lat="8.8423369" lon="-75.8266948"><ele>13.5</ele><time>2026-04-18T10:31:28.697Z</time></trkpt><trkpt lat="8.842397" lon="-75.8266351"><ele>13.333333333333332</ele><time>2026-04-18T10:31:29.697Z</time></trkpt><trkpt lat="8.8424546" lon="-75.8265735"><ele>13.166666666666666</ele><time>2026-04-18T10:31:30.697Z</time></trkpt><trkpt lat="8.8425161" lon="-75.8265122"><ele>13.0</ele><time>2026-04-18T10:31:31.697Z</time></trkpt><trkpt lat="8.8425787" lon="-75.8264545"><ele>13.333333333333332</ele><time>2026-04-18T10:31:32.697Z</time></trkpt><trkpt lat="8.8426356" lon="-75.8263923"><ele>13.666666666666666</ele><time>2026-04-18T10:31:33.697Z</time></trkpt><trkpt lat="8.8426906" lon="-75.8263357"><ele>14.0</ele><time>2026-04-18T10:31:34.697Z</time></trkpt><trkpt lat="8.8427442" lon="-75.8262744"><ele>14.333333333333332</ele><time>2026-04-18T10:31:35.696Z</time></trkpt><trkpt lat="8.8428034" lon="-75.826216"><ele>14.666666666666666</ele><time>2026-04-18T10:31:36.697Z</time></trkpt><trkpt lat="8.8428628" lon="-75.82615"><ele>15.0</ele><time>2026-04-18T10:31:37.697Z</time></trkpt><trkpt lat="8.8429143" lon="-75.8260903"><ele>15.0</ele><time>2026-04-18T10:31:38.697Z</time></trkpt><trkpt lat="8.8429709" lon="-75.8260288"><ele>15.0</ele><time>2026-04-18T10:31:39.697Z</time></trkpt><trkpt lat="8.8430258" lon="-75.8259691"><ele>15.0</ele><time>2026-04-18T10:31:40.698Z</time></trkpt><trkpt lat="8.8430836" lon="-75.8259075"><ele>15.0</ele><time>2026-04-18T10:31:41.698Z</time></trkpt><trkpt lat="8.8431427" lon="-75.8258443"><ele>15.0</ele><time>2026-04-18T10:31:42.697Z</time></trkpt><trkpt lat="8.8432008" lon="-75.8257864"><ele>15.0</ele><time>2026-04-18T10:31:43.697Z</time></trkpt><trkpt lat="8.8432597" lon="-75.8257271"><ele>14.833333333333334</ele><time>2026-04-18T10:31:44.697Z</time></trkpt><trkpt lat="8.8433157" lon="-75.8256751"><ele>14.666666666666668</ele><time>2026-04-18T10:31:45.697Z</time></trkpt><trkpt lat="8.8433775" lon="-75.8256231"><ele>14.5</ele><time>2026-04-18T10:31:46.697Z</time></trkpt><trkpt lat="8.8434367" lon="-75.8255709"><ele>14.333333333333334</ele><time>2026-04-18T10:31:47.697Z</time></trkpt><trkpt lat="8.8434927" lon="-75.8255182"><ele>14.166666666666668</ele><time>2026-04-18T10:31:48.697Z</time></trkpt><trkpt lat="8.8435534" lon="-75.8254639"><ele>14.0</ele><time>2026-04-18T10:31:49.697Z</time></trkpt><trkpt lat="8.8436124" lon="-75.8254201"><ele>14.0</ele><time>2026-04-18T10:31:50.697Z</time></trkpt><trkpt lat="8.8436759" lon="-75.825376"><ele>14.0</ele><time>2026-04-18T10:31:51.695Z</time></trkpt><trkpt lat="8.8437376" lon="-75.8253316"><ele>14.0</ele><time>2026-04-18T10:31:52.697Z</time></trkpt><trkpt lat="8.8438011" lon="-75.8252892"><ele>14.0</ele><time>2026-04-18T10:31:53.697Z</time></trkpt><trkpt lat="8.8438545" lon="-75.8252424"><ele>14.0</ele><time>2026-04-18T10:31:54.697Z</time></trkpt><trkpt lat="8.8439122" lon="-75.8251946"><ele>14.0</ele><time>2026-04-18T10:31:55.697Z</time></trkpt><trkpt lat="8.8439728" lon="-75.8251511"><ele>14.0</ele><time>2026-04-18T10:31:56.697Z</time></trkpt><trkpt lat="8.8440323" lon="-75.8251195"><ele>13.714285714285714</ele><time>2026-04-18T10:31:57.697Z</time></trkpt><trkpt lat="8.8440934" lon="-75.8250773"><ele>13.428571428571429</ele><time>2026-04-18T10:31:58.697Z</time></trkpt><trkpt lat="8.8441508" lon="-75.8250319"><ele>13.142857142857142</ele><time>2026-04-18T10:31:59.697Z</time></trkpt><trkpt lat="8.844214" lon="-75.8249933"><ele>12.857142857142858</ele><time>2026-04-18T10:32:00.697Z</time></trkpt><trkpt lat="8.8442717" lon="-75.8249523"><ele>12.571428571428571</ele><time>2026-04-18T10:32:01.697Z</time></trkpt><trkpt lat="8.8443264" lon="-75.8249134"><ele>12.285714285714285</ele><time>2026-04-18T10:32:02.697Z</time></trkpt><trkpt lat="8.8443818" lon="-75.8248748"><ele>12.0</ele><time>2026-04-18T10:32:03.697Z</time></trkpt><trkpt lat="8.8444392" lon="-75.8248382"><ele>11.833333333333334</ele><time>2026-04-18T10:32:04.697Z</time></trkpt><trkpt lat="8.8445221" lon="-75.8247802"><ele>11.666666666666666</ele><time>2026-04-18T10:32:06.697Z</time></trkpt><trkpt lat="8.8445969" lon="-75.8247284"><ele>11.5</ele><time>2026-04-18T10:32:08.697Z</time></trkpt><trkpt lat="8.8446655" lon="-75.8246821"><ele>11.333333333333332</ele><time>2026-04-18T10:32:11.698Z</time></trkpt><trkpt lat="8.8447244" lon="-75.8246562"><ele>11.166666666666666</ele><time>2026-04-18T10:32:14.698Z</time></trkpt><trkpt lat="8.8447846" lon="-75.8246097"><ele>11.0</ele><time>2026-04-18T10:32:17.698Z</time></trkpt><trkpt lat="8.844842" lon="-75.8245694"><ele>11.0</ele><time>2026-04-18T10:32:21.697Z</time></trkpt><trkpt lat="8.8449025" lon="-75.8245281"><ele>11.0</ele><time>2026-04-18T10:32:24.697Z</time></trkpt><trkpt lat="8.8449684" lon="-75.8244865"><ele>11.0</ele><time>2026-04-18T10:32:27.697Z</time></trkpt><trkpt lat="8.8450402" lon="-75.8244438"><ele>11.0</ele><time>2026-04-18T10:32:30.697Z</time></trkpt><trkpt lat="8.8450993" lon="-75.8244054"><ele>11.0</ele><time>2026-04-18T10:32:32.697Z</time></trkpt><trkpt lat="8.8451694" lon="-75.8243643"><ele>11.0</ele><time>2026-04-18T10:32:34.697Z</time></trkpt><trkpt lat="8.8452498" lon="-75.8243081"><ele>11.8</ele><time>2026-04-18T10:32:36.697Z</time></trkpt><trkpt lat="8.8453375" lon="-75.8242569"><ele>12.600000000000001</ele><time>2026-04-18T10:32:38.696Z</time></trkpt><trkpt lat="8.8454426" lon="-75.8241999"><ele>13.4</ele><time>2026-04-18T10:32:40.697Z</time></trkpt><trkpt lat="8.8455561" lon="-75.8241335"><ele>14.2</ele><time>2026-04-18T10:32:42.696Z</time></trkpt><trkpt lat="8.8456161" lon="-75.8240979"><ele>15.0</ele><time>2026-04-18T10:32:43.697Z</time></trkpt><trkpt lat="8.845674" lon="-75.8240658"><ele>15.0</ele><time>2026-04-18T10:32:44.697Z</time></trkpt><trkpt lat="8.8457368" lon="-75.8240285"><ele>15.0</ele><time>2026-04-18T10:32:45.697Z</time></trkpt><trkpt lat="8.8457997" lon="-75.8239857"><ele>15.0</ele><time>2026-04-18T10:32:46.696Z</time></trkpt><trkpt lat="8.8458622" lon="-75.8239397"><ele>15.0</ele><time>2026-04-18T10:32:47.697Z</time></trkpt><trkpt lat="8.8459295" lon="-75.8238925"><ele>15.0</ele><time>2026-04-18T10:32:48.697Z</time></trkpt><trkpt lat="8.8459988" lon="-75.8238464"><ele>15.0</ele><time>2026-04-18T10:32:49.698Z</time></trkpt><trkpt lat="8.8460721" lon="-75.8237936"><ele>15.0</ele><time>2026-04-18T10:32:50.696Z</time></trkpt><trkpt lat="8.8461436" lon="-75.8237443"><ele>15.0</ele><time>2026-04-18T10:32:51.697Z</time></trkpt><trkpt lat="8.8462156" lon="-75.8236881"><ele>15.0</ele><time>2026-04-18T10:32:52.696Z</time></trkpt><trkpt lat="8.8462912" lon="-75.8236352"><ele>15.0</ele><time>2026-04-18T10:32:53.697Z</time></trkpt><trkpt lat="8.8463682" lon="-75.823589"><ele>15.0</ele><time>2026-04-18T10:32:54.697Z</time></trkpt><trkpt lat="8.8464448" lon="-75.8235378"><ele>15.0</ele><time>2026-04-18T10:32:55.698Z</time></trkpt><trkpt lat="8.8465242" lon="-75.8234896"><ele>15.0</ele><time>2026-04-18T10:32:56.697Z</time></trkpt><trkpt lat="8.8465976" lon="-75.8234382"><ele>15.0</ele><time>2026-04-18T10:32:57.696Z</time></trkpt><trkpt lat="8.8466739" lon="-75.8233882"><ele>15.0</ele><time>2026-04-18T10:32:58.697Z</time></trkpt><trkpt lat="8.8467473" lon="-75.8233371"><ele>15.0</ele><time>2026-04-18T10:32:59.698Z</time></trkpt><trkpt lat="8.8468237" lon="-75.823284"><ele>14.8</ele><time>2026-04-18T10:33:00.697Z</time></trkpt><trkpt lat="8.846896" lon="-75.8232313"><ele>14.6</ele><time>2026-04-18T10:33:01.697Z</time></trkpt><trkpt lat="8.8469729" lon="-75.8231839"><ele>14.399999999999999</ele><time>2026-04-18T10:33:02.697Z</time></trkpt><trkpt lat="8.8470522" lon="-75.8231383"><ele>14.2</ele><time>2026-04-18T10:33:03.697Z</time></trkpt><trkpt lat="8.8471247" lon="-75.8230869"><ele>14.0</ele><time>2026-04-18T10:33:04.697Z</time></trkpt><trkpt lat="8.8472029" lon="-75.8230364"><ele>14.000000000000002</ele><time>2026-04-18T10:33:05.696Z</time></trkpt><trkpt lat="8.8472728" lon="-75.8229869"><ele>14.0</ele><time>2026-04-18T10:33:06.697Z</time></trkpt><trkpt lat="8.8473486" lon="-75.8229382"><ele>14.0</ele><time>2026-04-18T10:33:07.697Z</time></trkpt><trkpt lat="8.8474276" lon="-75.822888"><ele>14.0</ele><time>2026-04-18T10:33:08.699Z</time></trkpt><trkpt lat="8.8474989" lon="-75.8228401"><ele>14.000000000000002</ele><time>2026-04-18T10:33:09.696Z</time></trkpt><trkpt lat="8.8475752" lon="-75.8227902"><ele>14.0</ele><time>2026-04-18T10:33:10.697Z</time></trkpt><trkpt lat="8.8476475" lon="-75.8227451"><ele>14.166666666666668</ele><time>2026-04-18T10:33:11.697Z</time></trkpt><trkpt lat="8.8477189" lon="-75.8226922"><ele>14.333333333333334</ele><time>2026-04-18T10:33:12.697Z</time></trkpt><trkpt lat="8.8477937" lon="-75.8226481"><ele>14.5</ele><time>2026-04-18T10:33:13.696Z</time></trkpt><trkpt lat="8.8478688" lon="-75.8225995"><ele>14.666666666666668</ele><time>2026-04-18T10:33:14.697Z</time></trkpt><trkpt lat="8.8479481" lon="-75.8225532"><ele>14.833333333333334</ele><time>2026-04-18T10:33:15.696Z</time></trkpt><trkpt lat="8.8480206" lon="-75.8225079"><ele>15.0</ele><time>2026-04-18T10:33:16.697Z</time></trkpt><trkpt lat="8.8480903" lon="-75.8224622"><ele>14.666666666666666</ele><time>2026-04-18T10:33:17.696Z</time></trkpt><trkpt lat="8.8481499" lon="-75.8224121"><ele>14.333333333333332</ele><time>2026-04-18T10:33:18.697Z</time></trkpt><trkpt lat="8.8482168" lon="-75.8223587"><ele>14.0</ele><time>2026-04-18T10:33:19.698Z</time></trkpt><trkpt lat="8.8482897" lon="-75.822311"><ele>13.666666666666666</ele><time>2026-04-18T10:33:20.696Z</time></trkpt><trkpt lat="8.8483571" lon="-75.8222639"><ele>13.333333333333332</ele><time>2026-04-18T10:33:21.696Z</time></trkpt><trkpt lat="8.8484274" lon="-75.8222178"><ele>13.0</ele><time>2026-04-18T10:33:22.696Z</time></trkpt><trkpt lat="8.8485005" lon="-75.8221689"><ele>12.999999999999998</ele><time>2026-04-18T10:33:23.697Z</time></trkpt><trkpt lat="8.8485704" lon="-75.8221275"><ele>13.0</ele><time>2026-04-18T10:33:24.697Z</time></trkpt><trkpt lat="8.8486445" lon="-75.8220816"><ele>13.0</ele><time>2026-04-18T10:33:25.697Z</time></trkpt><trkpt lat="8.8487168" lon="-75.8220381"><ele>13.0</ele><time>2026-04-18T10:33:26.697Z</time></trkpt><trkpt lat="8.8487848" lon="-75.8219862"><ele>12.999999999999998</ele><time>2026-04-18T10:33:27.698Z</time></trkpt><trkpt lat="8.848854" lon="-75.8219357"><ele>13.0</ele><time>2026-04-18T10:33:28.697Z</time></trkpt><trkpt lat="8.848926" lon="-75.8218902"><ele>12.999999999999998</ele><time>2026-04-18T10:33:29.698Z</time></trkpt><trkpt lat="8.8489947" lon="-75.8218431"><ele>13.0</ele><time>2026-04-18T10:33:30.696Z</time></trkpt><trkpt lat="8.8490674" lon="-75.8217972"><ele>13.0</ele><time>2026-04-18T10:33:31.698Z</time></trkpt><trkpt lat="8.8491369" lon="-75.8217547"><ele>13.0</ele><time>2026-04-18T10:33:32.698Z</time></trkpt><trkpt lat="8.8492113" lon="-75.821707"><ele>12.999999999999998</ele><time>2026-04-18T10:33:33.696Z</time></trkpt><trkpt lat="8.8492796" lon="-75.8216618"><ele>13.0</ele><time>2026-04-18T10:33:34.697Z</time></trkpt><trkpt lat="8.8493493" lon="-75.8216152"><ele>12.833333333333332</ele><time>2026-04-18T10:33:35.697Z</time></trkpt><trkpt lat="8.8494106" lon="-75.8215719"><ele>12.666666666666666</ele><time>2026-04-18T10:33:36.697Z</time></trkpt><trkpt lat="8.8494722" lon="-75.821536"><ele>12.5</ele><time>2026-04-18T10:33:37.698Z</time></trkpt><trkpt lat="8.8495367" lon="-75.8214913"><ele>12.333333333333332</ele><time>2026-04-18T10:33:38.697Z</time></trkpt><trkpt lat="8.8496034" lon="-75.8214498"><ele>12.166666666666666</ele><time>2026-04-18T10:33:39.697Z</time></trkpt><trkpt lat="8.8496697" lon="-75.821408"><ele>12.0</ele><time>2026-04-18T10:33:40.698Z</time></trkpt><trkpt lat="8.8497381" lon="-75.8213701"><ele>12.0</ele><time>2026-04-18T10:33:41.697Z</time></trkpt><trkpt lat="8.8498098" lon="-75.821328"><ele>12.0</ele><time>2026-04-18T10:33:42.697Z</time></trkpt><trkpt lat="8.8498705" lon="-75.8212869"><ele>12.0</ele><time>2026-04-18T10:33:43.697Z</time></trkpt><trkpt lat="8.8499402" lon="-75.8212434"><ele>12.0</ele><time>2026-04-18T10:33:44.697Z</time></trkpt><trkpt lat="8.8500065" lon="-75.8211963"><ele>12.0</ele><time>2026-04-18T10:33:45.698Z</time></trkpt><trkpt lat="8.8500726" lon="-75.8211476"><ele>12.0</ele><time>2026-04-18T10:33:46.696Z</time></trkpt><trkpt lat="8.8501436" lon="-75.821102"><ele>12.0</ele><time>2026-04-18T10:33:47.697Z</time></trkpt><trkpt lat="8.8502092" lon="-75.8210521"><ele>12.0</ele><time>2026-04-18T10:33:48.696Z</time></trkpt><trkpt lat="8.8502707" lon="-75.8210071"><ele>12.0</ele><time>2026-04-18T10:33:49.696Z</time></trkpt><trkpt lat="8.8503303" lon="-75.8209554"><ele>12.0</ele><time>2026-04-18T10:33:50.696Z</time></trkpt><trkpt lat="8.8503928" lon="-75.8209056"><ele>12.0</ele><time>2026-04-18T10:33:51.697Z</time></trkpt><trkpt lat="8.8504498" lon="-75.8208564"><ele>12.0</ele><time>2026-04-18T10:33:52.697Z</time></trkpt><trkpt lat="8.8505056" lon="-75.8208041"><ele>12.0</ele><time>2026-04-18T10:33:53.696Z</time></trkpt><trkpt lat="8.8505634" lon="-75.8207474"><ele>12.0</ele><time>2026-04-18T10:33:54.697Z</time></trkpt><trkpt lat="8.8506241" lon="-75.8206865"><ele>12.0</ele><time>2026-04-18T10:33:55.696Z</time></trkpt><trkpt lat="8.8506863" lon="-75.8206312"><ele>12.0</ele><time>2026-04-18T10:33:56.696Z</time></trkpt><trkpt lat="8.8507492" lon="-75.8205738"><ele>12.0</ele><time>2026-04-18T10:33:57.697Z</time></trkpt><trkpt lat="8.8508074" lon="-75.8205201"><ele>12.0</ele><time>2026-04-18T10:33:58.696Z</time></trkpt><trkpt lat="8.8508699" lon="-75.8204652"><ele>12.0</ele><time>2026-04-18T10:33:59.696Z</time></trkpt><trkpt lat="8.8509255" lon="-75.820409"><ele>12.0</ele><time>2026-04-18T10:34:00.697Z</time></trkpt><trkpt lat="8.8509801" lon="-75.8203532"><ele>12.0</ele><time>2026-04-18T10:34:01.697Z</time></trkpt><trkpt lat="8.8510334" lon="-75.8202953"><ele>12.0</ele><time>2026-04-18T10:34:02.697Z</time></trkpt><trkpt lat="8.8510919" lon="-75.820232"><ele>12.0</ele><time>2026-04-18T10:34:03.696Z</time></trkpt><trkpt lat="8.8511471" lon="-75.8201703"><ele>12.0</ele><time>2026-04-18T10:34:04.697Z</time></trkpt><trkpt lat="8.8512011" lon="-75.8201073"><ele>12.333333333333334</ele><time>2026-04-18T10:34:05.697Z</time></trkpt><trkpt lat="8.8512557" lon="-75.8200426"><ele>12.666666666666668</ele><time>2026-04-18T10:34:06.696Z</time></trkpt><trkpt lat="8.8513108" lon="-75.8199796"><ele>13.0</ele><time>2026-04-18T10:34:07.697Z</time></trkpt><trkpt lat="8.8513666" lon="-75.8199133"><ele>13.333333333333334</ele><time>2026-04-18T10:34:08.697Z</time></trkpt><trkpt lat="8.8514255" lon="-75.8198544"><ele>13.666666666666668</ele><time>2026-04-18T10:34:09.698Z</time></trkpt><trkpt lat="8.8514772" lon="-75.8197948"><ele>14.0</ele><time>2026-04-18T10:34:10.697Z</time></trkpt><trkpt lat="8.8515326" lon="-75.8197298"><ele>14.000000000000002</ele><time>2026-04-18T10:34:11.696Z</time></trkpt><trkpt lat="8.8515846" lon="-75.8196644"><ele>14.0</ele><time>2026-04-18T10:34:12.697Z</time></trkpt><trkpt lat="8.8516377" lon="-75.8195959"><ele>14.0</ele><time>2026-04-18T10:34:13.696Z</time></trkpt><trkpt lat="8.8516932" lon="-75.8195264"><ele>14.0</ele><time>2026-04-18T10:34:14.697Z</time></trkpt><trkpt lat="8.8517467" lon="-75.8194607"><ele>14.000000000000002</ele><time>2026-04-18T10:34:15.697Z</time></trkpt><trkpt lat="8.8517995" lon="-75.8193946"><ele>14.0</ele><time>2026-04-18T10:34:16.696Z</time></trkpt><trkpt lat="8.8518517" lon="-75.8193256"><ele>13.833333333333334</ele><time>2026-04-18T10:34:17.697Z</time></trkpt><trkpt lat="8.8519086" lon="-75.8192538"><ele>13.666666666666668</ele><time>2026-04-18T10:34:18.697Z</time></trkpt><trkpt lat="8.8519613" lon="-75.8191857"><ele>13.5</ele><time>2026-04-18T10:34:19.697Z</time></trkpt><trkpt lat="8.8520173" lon="-75.8191185"><ele>13.333333333333332</ele><time>2026-04-18T10:34:20.697Z</time></trkpt><trkpt lat="8.8520681" lon="-75.8190572"><ele>13.166666666666666</ele><time>2026-04-18T10:34:21.696Z</time></trkpt><trkpt lat="8.8521221" lon="-75.8189935"><ele>13.0</ele><time>2026-04-18T10:34:22.696Z</time></trkpt><trkpt lat="8.8521739" lon="-75.8189292"><ele>12.999999999999998</ele><time>2026-04-18T10:34:23.696Z</time></trkpt><trkpt lat="8.8522274" lon="-75.8188543"><ele>13.0</ele><time>2026-04-18T10:34:24.697Z</time></trkpt><trkpt lat="8.8522813" lon="-75.8187867"><ele>13.0</ele><time>2026-04-18T10:34:25.696Z</time></trkpt><trkpt lat="8.8523362" lon="-75.8187118"><ele>13.0</ele><time>2026-04-18T10:34:26.698Z</time></trkpt><trkpt lat="8.8523907" lon="-75.8186438"><ele>12.999999999999998</ele><time>2026-04-18T10:34:27.697Z</time></trkpt><trkpt lat="8.8524505" lon="-75.8185721"><ele>13.0</ele><time>2026-04-18T10:34:28.696Z</time></trkpt><trkpt lat="8.8525082" lon="-75.8184978"><ele>13.0</ele><time>2026-04-18T10:34:29.697Z</time></trkpt><trkpt lat="8.8525654" lon="-75.8184233"><ele>13.0</ele><time>2026-04-18T10:34:30.696Z</time></trkpt><trkpt lat="8.8526257" lon="-75.8183445"><ele>13.0</ele><time>2026-04-18T10:34:31.697Z</time></trkpt><trkpt lat="8.8526769" lon="-75.8182718"><ele>13.0</ele><time>2026-04-18T10:34:32.698Z</time></trkpt><trkpt lat="8.8527344" lon="-75.8182017"><ele>13.0</ele><time>2026-04-18T10:34:33.698Z</time></trkpt><trkpt lat="8.8527947" lon="-75.8181322"><ele>13.0</ele><time>2026-04-18T10:34:34.696Z</time></trkpt><trkpt lat="8.8528595" lon="-75.8180611"><ele>13.0</ele><time>2026-04-18T10:34:35.697Z</time></trkpt><trkpt lat="8.8529254" lon="-75.8179841"><ele>13.0</ele><time>2026-04-18T10:34:36.696Z</time></trkpt><trkpt lat="8.8529913" lon="-75.8179091"><ele>13.0</ele><time>2026-04-18T10:34:37.697Z</time></trkpt><trkpt lat="8.853049" lon="-75.8178359"><ele>13.0</ele><time>2026-04-18T10:34:38.697Z</time></trkpt><trkpt lat="8.8531125" lon="-75.8177591"><ele>13.0</ele><time>2026-04-18T10:34:39.697Z</time></trkpt><trkpt lat="8.853176" lon="-75.8176883"><ele>13.0</ele><time>2026-04-18T10:34:40.698Z</time></trkpt><trkpt lat="8.8532411" lon="-75.8176157"><ele>13.0</ele><time>2026-04-18T10:34:41.696Z</time></trkpt><trkpt lat="8.8533068" lon="-75.8175502"><ele>13.0</ele><time>2026-04-18T10:34:42.698Z</time></trkpt><trkpt lat="8.8533764" lon="-75.8174836"><ele>13.0</ele><time>2026-04-18T10:34:43.698Z</time></trkpt><trkpt lat="8.8534402" lon="-75.8174177"><ele>12.8</ele><time>2026-04-18T10:34:44.697Z</time></trkpt><trkpt lat="8.8535028" lon="-75.8173479"><ele>12.600000000000001</ele><time>2026-04-18T10:34:45.697Z</time></trkpt><trkpt lat="8.8535614" lon="-75.8172759"><ele>12.399999999999999</ele><time>2026-04-18T10:34:46.696Z</time></trkpt><trkpt lat="8.8536235" lon="-75.8172088"><ele>12.2</ele><time>2026-04-18T10:34:47.697Z</time></trkpt><trkpt lat="8.8536901" lon="-75.8171379"><ele>12.0</ele><time>2026-04-18T10:34:48.698Z</time></trkpt><trkpt lat="8.8537542" lon="-75.817068"><ele>12.0</ele><time>2026-04-18T10:34:49.696Z</time></trkpt><trkpt lat="8.853824" lon="-75.8170009"><ele>12.0</ele><time>2026-04-18T10:34:50.697Z</time></trkpt><trkpt lat="8.8538888" lon="-75.816932"><ele>12.0</ele><time>2026-04-18T10:34:51.697Z</time></trkpt><trkpt lat="8.8539575" lon="-75.8168623"><ele>12.0</ele><time>2026-04-18T10:34:52.696Z</time></trkpt><trkpt lat="8.8540192" lon="-75.816792"><ele>12.0</ele><time>2026-04-18T10:34:53.697Z</time></trkpt><trkpt lat="8.8540833" lon="-75.8167192"><ele>12.0</ele><time>2026-04-18T10:34:54.697Z</time></trkpt><trkpt lat="8.8541423" lon="-75.816646"><ele>12.0</ele><time>2026-04-18T10:34:55.696Z</time></trkpt><trkpt lat="8.854201" lon="-75.8165696"><ele>12.0</ele><time>2026-04-18T10:34:56.697Z</time></trkpt><trkpt lat="8.8542552" lon="-75.8164913"><ele>12.0</ele><time>2026-04-18T10:34:57.696Z</time></trkpt><trkpt lat="8.8543052" lon="-75.8164099"><ele>12.0</ele><time>2026-04-18T10:34:58.697Z</time></trkpt><trkpt lat="8.8543529" lon="-75.8163262"><ele>12.2</ele><time>2026-04-18T10:34:59.696Z</time></trkpt><trkpt lat="8.8543951" lon="-75.8162348"><ele>12.399999999999999</ele><time>2026-04-18T10:35:00.697Z</time></trkpt><trkpt lat="8.8544345" lon="-75.8161431"><ele>12.600000000000001</ele><time>2026-04-18T10:35:01.697Z</time></trkpt><trkpt lat="8.8544706" lon="-75.8160529"><ele>12.8</ele><time>2026-04-18T10:35:02.697Z</time></trkpt><trkpt lat="8.8545046" lon="-75.8159606"><ele>13.0</ele><time>2026-04-18T10:35:03.697Z</time></trkpt><trkpt lat="8.8545279" lon="-75.8158662"><ele>12.600000000000001</ele><time>2026-04-18T10:35:04.696Z</time></trkpt><trkpt lat="8.8545506" lon="-75.8157721"><ele>12.200000000000001</ele><time>2026-04-18T10:35:05.697Z</time></trkpt><trkpt lat="8.8545685" lon="-75.8156769"><ele>11.8</ele><time>2026-04-18T10:35:06.696Z</time></trkpt><trkpt lat="8.8545802" lon="-75.8155846"><ele>11.4</ele><time>2026-04-18T10:35:07.697Z</time></trkpt><trkpt lat="8.8545909" lon="-75.8154861"><ele>11.0</ele><time>2026-04-18T10:35:08.696Z</time></trkpt><trkpt lat="8.8545965" lon="-75.8153912"><ele>11.0</ele><time>2026-04-18T10:35:09.696Z</time></trkpt><trkpt lat="8.8545977" lon="-75.8152964"><ele>11.0</ele><time>2026-04-18T10:35:10.696Z</time></trkpt><trkpt lat="8.8545994" lon="-75.8152013"><ele>11.0</ele><time>2026-04-18T10:35:11.696Z</time></trkpt><trkpt lat="8.8545962" lon="-75.815107"><ele>11.0</ele><time>2026-04-18T10:35:12.696Z</time></trkpt><trkpt lat="8.854592" lon="-75.8150124"><ele>11.0</ele><time>2026-04-18T10:35:13.696Z</time></trkpt><trkpt lat="8.8545852" lon="-75.8149206"><ele>10.8</ele><time>2026-04-18T10:35:14.696Z</time></trkpt><trkpt lat="8.8545798" lon="-75.81483"><ele>10.600000000000001</ele><time>2026-04-18T10:35:15.696Z</time></trkpt><trkpt lat="8.8545719" lon="-75.814737"><ele>10.4</ele><time>2026-04-18T10:35:16.696Z</time></trkpt><trkpt lat="8.8545652" lon="-75.8146479"><ele>10.2</ele><time>2026-04-18T10:35:17.696Z</time></trkpt><trkpt lat="8.8545555" lon="-75.8145546"><ele>10.0</ele><time>2026-04-18T10:35:18.696Z</time></trkpt><trkpt lat="8.8545498" lon="-75.8144654"><ele>10.0</ele><time>2026-04-18T10:35:19.696Z</time></trkpt><trkpt lat="8.8545451" lon="-75.8143742"><ele>10.0</ele><time>2026-04-18T10:35:20.696Z</time></trkpt><trkpt lat="8.8545393" lon="-75.8142799"><ele>10.0</ele><time>2026-04-18T10:35:21.697Z</time></trkpt><trkpt lat="8.8545298" lon="-75.8141884"><ele>10.0</ele><time>2026-04-18T10:35:22.696Z</time></trkpt><trkpt lat="8.8545263" lon="-75.8140969"><ele>10.0</ele><time>2026-04-18T10:35:23.696Z</time></trkpt><trkpt lat="8.8545222" lon="-75.814002"><ele>10.0</ele><time>2026-04-18T10:35:24.696Z</time></trkpt><trkpt lat="8.85452" lon="-75.8139106"><ele>10.0</ele><time>2026-04-18T10:35:25.696Z</time></trkpt><trkpt lat="8.8545092" lon="-75.8138192"><ele>10.0</ele><time>2026-04-18T10:35:26.697Z</time></trkpt><trkpt lat="8.8545073" lon="-75.8137309"><ele>10.0</ele><time>2026-04-18T10:35:27.697Z</time></trkpt><trkpt lat="8.854497" lon="-75.8136417"><ele>10.0</ele><time>2026-04-18T10:35:28.696Z</time></trkpt><trkpt lat="8.8544924" lon="-75.8135528"><ele>10.0</ele><time>2026-04-18T10:35:29.697Z</time></trkpt><trkpt lat="8.8544852" lon="-75.8134614"><ele>10.8</ele><time>2026-04-18T10:35:30.698Z</time></trkpt><trkpt lat="8.8544732" lon="-75.8133733"><ele>11.6</ele><time>2026-04-18T10:35:31.697Z</time></trkpt><trkpt lat="8.8544663" lon="-75.8132814"><ele>12.399999999999999</ele><time>2026-04-18T10:35:32.698Z</time></trkpt><trkpt lat="8.8544612" lon="-75.8131921"><ele>13.2</ele><time>2026-04-18T10:35:33.697Z</time></trkpt><trkpt lat="8.8544539" lon="-75.813099"><ele>14.0</ele><time>2026-04-18T10:35:34.697Z</time></trkpt><trkpt lat="8.8544481" lon="-75.8130067"><ele>14.000000000000002</ele><time>2026-04-18T10:35:35.696Z</time></trkpt><trkpt lat="8.8544406" lon="-75.8129174"><ele>14.0</ele><time>2026-04-18T10:35:36.697Z</time></trkpt><trkpt lat="8.8544347" lon="-75.8128271"><ele>14.0</ele><time>2026-04-18T10:35:37.697Z</time></trkpt><trkpt lat="8.8544338" lon="-75.8127385"><ele>14.0</ele><time>2026-04-18T10:35:38.696Z</time></trkpt><trkpt lat="8.8544316" lon="-75.8126506"><ele>14.000000000000002</ele><time>2026-04-18T10:35:39.697Z</time></trkpt><trkpt lat="8.8544305" lon="-75.8125653"><ele>14.0</ele><time>2026-04-18T10:35:40.698Z</time></trkpt><trkpt lat="8.8544286" lon="-75.8124803"><ele>14.2</ele><time>2026-04-18T10:35:41.697Z</time></trkpt><trkpt lat="8.854431" lon="-75.8123907"><ele>14.399999999999999</ele><time>2026-04-18T10:35:42.696Z</time></trkpt><trkpt lat="8.8544399" lon="-75.8122986"><ele>14.6</ele><time>2026-04-18T10:35:43.697Z</time></trkpt><trkpt lat="8.8544499" lon="-75.8122074"><ele>14.8</ele><time>2026-04-18T10:35:44.697Z</time></trkpt><trkpt lat="8.8544601" lon="-75.8121125"><ele>15.0</ele><time>2026-04-18T10:35:45.696Z</time></trkpt><trkpt lat="8.8544807" lon="-75.8120211"><ele>15.0</ele><time>2026-04-18T10:35:46.696Z</time></trkpt><trkpt lat="8.8545046" lon="-75.8119311"><ele>15.0</ele><time>2026-04-18T10:35:47.698Z</time></trkpt><trkpt lat="8.854535" lon="-75.8118437"><ele>15.0</ele><time>2026-04-18T10:35:48.696Z</time></trkpt><trkpt lat="8.8545642" lon="-75.8117546"><ele>15.0</ele><time>2026-04-18T10:35:49.697Z</time></trkpt><trkpt lat="8.8545936" lon="-75.8116651"><ele>15.0</ele><time>2026-04-18T10:35:50.697Z</time></trkpt><trkpt lat="8.8546329" lon="-75.8115768"><ele>14.8</ele><time>2026-04-18T10:35:51.696Z</time></trkpt><trkpt lat="8.8546746" lon="-75.8114931"><ele>14.6</ele><time>2026-04-18T10:35:52.696Z</time></trkpt><trkpt lat="8.8547244" lon="-75.8114064"><ele>14.399999999999999</ele><time>2026-04-18T10:35:53.696Z</time></trkpt><trkpt lat="8.8547798" lon="-75.8113225"><ele>14.2</ele><time>2026-04-18T10:35:54.696Z</time></trkpt><trkpt lat="8.8548353" lon="-75.8112395"><ele>14.0</ele><time>2026-04-18T10:35:55.696Z</time></trkpt><trkpt lat="8.8548958" lon="-75.8111563"><ele>14.0</ele><time>2026-04-18T10:35:56.696Z</time></trkpt><trkpt lat="8.854958" lon="-75.8110822"><ele>13.999999999999998</ele><time>2026-04-18T10:35:57.697Z</time></trkpt><trkpt lat="8.8550238" lon="-75.8110087"><ele>13.999999999999998</ele><time>2026-04-18T10:35:58.697Z</time></trkpt><trkpt lat="8.855094" lon="-75.8109374"><ele>14.0</ele><time>2026-04-18T10:35:59.697Z</time></trkpt><trkpt lat="8.8551647" lon="-75.8108729"><ele>14.0</ele><time>2026-04-18T10:36:00.696Z</time></trkpt><trkpt lat="8.8552403" lon="-75.8108114"><ele>13.799999999999999</ele><time>2026-04-18T10:36:01.697Z</time></trkpt><trkpt lat="8.8553157" lon="-75.8107543"><ele>13.599999999999998</ele><time>2026-04-18T10:36:02.695Z</time></trkpt><trkpt lat="8.8553873" lon="-75.8106972"><ele>13.4</ele><time>2026-04-18T10:36:03.697Z</time></trkpt><trkpt lat="8.8554615" lon="-75.8106423"><ele>13.2</ele><time>2026-04-18T10:36:04.696Z</time></trkpt><trkpt lat="8.8555421" lon="-75.8105907"><ele>13.0</ele><time>2026-04-18T10:36:05.697Z</time></trkpt><trkpt lat="8.8556229" lon="-75.8105352"><ele>13.0</ele><time>2026-04-18T10:36:06.698Z</time></trkpt><trkpt lat="8.8557079" lon="-75.8104819"><ele>13.0</ele><time>2026-04-18T10:36:07.696Z</time></trkpt><trkpt lat="8.8557924" lon="-75.8104247"><ele>13.0</ele><time>2026-04-18T10:36:08.696Z</time></trkpt><trkpt lat="8.8558811" lon="-75.8103686"><ele>13.0</ele><time>2026-04-18T10:36:09.696Z</time></trkpt><trkpt lat="8.855958" lon="-75.8103132"><ele>13.0</ele><time>2026-04-18T10:36:10.696Z</time></trkpt><trkpt lat="8.8560433" lon="-75.8102594"><ele>12.600000000000001</ele><time>2026-04-18T10:36:11.696Z</time></trkpt><trkpt lat="8.8561255" lon="-75.810202"><ele>12.200000000000001</ele><time>2026-04-18T10:36:12.696Z</time></trkpt><trkpt lat="8.8562102" lon="-75.8101421"><ele>11.8</ele><time>2026-04-18T10:36:13.696Z</time></trkpt><trkpt lat="8.8562883" lon="-75.810083"><ele>11.4</ele><time>2026-04-18T10:36:14.696Z</time></trkpt><trkpt lat="8.856362" lon="-75.8100201"><ele>11.0</ele><time>2026-04-18T10:36:15.696Z</time></trkpt><trkpt lat="8.8564397" lon="-75.8099533"><ele>11.0</ele><time>2026-04-18T10:36:16.697Z</time></trkpt><trkpt lat="8.8565075" lon="-75.8098807"><ele>11.0</ele><time>2026-04-18T10:36:17.696Z</time></trkpt><trkpt lat="8.856574" lon="-75.8098075"><ele>11.0</ele><time>2026-04-18T10:36:18.696Z</time></trkpt><trkpt lat="8.8566378" lon="-75.8097339"><ele>11.0</ele><time>2026-04-18T10:36:19.696Z</time></trkpt><trkpt lat="8.8567042" lon="-75.8096635"><ele>11.0</ele><time>2026-04-18T10:36:20.696Z</time></trkpt><trkpt lat="8.8567669" lon="-75.8095868"><ele>11.200000000000001</ele><time>2026-04-18T10:36:21.696Z</time></trkpt><trkpt lat="8.8568264" lon="-75.8095125"><ele>11.4</ele><time>2026-04-18T10:36:22.696Z</time></trkpt><trkpt lat="8.856889" lon="-75.8094424"><ele>11.6</ele><time>2026-04-18T10:36:23.697Z</time></trkpt><trkpt lat="8.8569524" lon="-75.809368"><ele>11.8</ele><time>2026-04-18T10:36:24.696Z</time></trkpt><trkpt lat="8.8570154" lon="-75.8092924"><ele>12.0</ele><time>2026-04-18T10:36:25.696Z</time></trkpt><trkpt lat="8.8570822" lon="-75.8092192"><ele>12.0</ele><time>2026-04-18T10:36:26.697Z</time></trkpt><trkpt lat="8.8571489" lon="-75.8091457"><ele>12.0</ele><time>2026-04-18T10:36:27.696Z</time></trkpt><trkpt lat="8.8572116" lon="-75.809071"><ele>12.0</ele><time>2026-04-18T10:36:28.697Z</time></trkpt><trkpt lat="8.8572775" lon="-75.8089969"><ele>12.0</ele><time>2026-04-18T10:36:29.696Z</time></trkpt><trkpt lat="8.8573411" lon="-75.8089216"><ele>12.0</ele><time>2026-04-18T10:36:30.697Z</time></trkpt><trkpt lat="8.8574093" lon="-75.8088468"><ele>12.0</ele><time>2026-04-18T10:36:31.696Z</time></trkpt><trkpt lat="8.8574772" lon="-75.8087704"><ele>12.0</ele><time>2026-04-18T10:36:32.696Z</time></trkpt><trkpt lat="8.857549" lon="-75.8086983"><ele>12.0</ele><time>2026-04-18T10:36:33.697Z</time></trkpt><trkpt lat="8.8576224" lon="-75.8086331"><ele>12.0</ele><time>2026-04-18T10:36:34.697Z</time></trkpt><trkpt lat="8.8576951" lon="-75.8085651"><ele>12.0</ele><time>2026-04-18T10:36:35.696Z</time></trkpt><trkpt lat="8.8577741" lon="-75.8085001"><ele>11.4</ele><time>2026-04-18T10:36:36.696Z</time></trkpt><trkpt lat="8.857853" lon="-75.8084402"><ele>10.799999999999999</ele><time>2026-04-18T10:36:37.696Z</time></trkpt><trkpt lat="8.8579359" lon="-75.8083844"><ele>10.2</ele><time>2026-04-18T10:36:38.696Z</time></trkpt><trkpt lat="8.8580206" lon="-75.808329"><ele>9.6</ele><time>2026-04-18T10:36:39.697Z</time></trkpt><trkpt lat="8.8581029" lon="-75.8082788"><ele>9.0</ele><time>2026-04-18T10:36:40.696Z</time></trkpt><trkpt lat="8.8581887" lon="-75.8082303"><ele>9.0</ele><time>2026-04-18T10:36:41.697Z</time></trkpt><trkpt lat="8.858262" lon="-75.8081769"><ele>9.0</ele><time>2026-04-18T10:36:42.696Z</time></trkpt><trkpt lat="8.8583536" lon="-75.808139"><ele>9.0</ele><time>2026-04-18T10:36:43.698Z</time></trkpt><trkpt lat="8.8584372" lon="-75.8080963"><ele>9.0</ele><time>2026-04-18T10:36:44.696Z</time></trkpt><trkpt lat="8.8585257" lon="-75.8080598"><ele>9.0</ele><time>2026-04-18T10:36:45.696Z</time></trkpt><trkpt lat="8.8586262" lon="-75.8080296"><ele>9.4</ele><time>2026-04-18T10:36:46.696Z</time></trkpt><trkpt lat="8.8587215" lon="-75.8080012"><ele>9.8</ele><time>2026-04-18T10:36:47.697Z</time></trkpt><trkpt lat="8.858818" lon="-75.8079769"><ele>10.200000000000001</ele><time>2026-04-18T10:36:48.697Z</time></trkpt><trkpt lat="8.8589194" lon="-75.8079584"><ele>10.600000000000001</ele><time>2026-04-18T10:36:49.697Z</time></trkpt><trkpt lat="8.8590213" lon="-75.8079446"><ele>11.0</ele><time>2026-04-18T10:36:50.696Z</time></trkpt><trkpt lat="8.8591218" lon="-75.8079262"><ele>11.0</ele><time>2026-04-18T10:36:51.696Z</time></trkpt><trkpt lat="8.8592232" lon="-75.8079103"><ele>11.0</ele><time>2026-04-18T10:36:52.696Z</time></trkpt><trkpt lat="8.8593216" lon="-75.8078969"><ele>11.0</ele><time>2026-04-18T10:36:53.697Z</time></trkpt><trkpt lat="8.85942" lon="-75.8078805"><ele>11.0</ele><time>2026-04-18T10:36:54.697Z</time></trkpt><trkpt lat="8.8595157" lon="-75.8078664"><ele>11.0</ele><time>2026-04-18T10:36:55.696Z</time></trkpt><trkpt lat="8.8596142" lon="-75.8078518"><ele>11.0</ele><time>2026-04-18T10:36:56.696Z</time></trkpt><trkpt lat="8.8597132" lon="-75.807836"><ele>11.0</ele><time>2026-04-18T10:36:57.696Z</time></trkpt><trkpt lat="8.8598053" lon="-75.8078214"><ele>11.0</ele><time>2026-04-18T10:36:58.696Z</time></trkpt><trkpt lat="8.8598979" lon="-75.8078095"><ele>11.0</ele><time>2026-04-18T10:36:59.696Z</time></trkpt><trkpt lat="8.859997" lon="-75.8078004"><ele>11.0</ele><time>2026-04-18T10:37:00.697Z</time></trkpt><trkpt lat="8.8600941" lon="-75.8077843"><ele>10.8</ele><time>2026-04-18T10:37:01.696Z</time></trkpt><trkpt lat="8.8601878" lon="-75.8077682"><ele>10.600000000000001</ele><time>2026-04-18T10:37:02.698Z</time></trkpt><trkpt lat="8.8602891" lon="-75.8077541"><ele>10.4</ele><time>2026-04-18T10:37:03.697Z</time></trkpt><trkpt lat="8.8603901" lon="-75.8077385"><ele>10.2</ele><time>2026-04-18T10:37:04.696Z</time></trkpt><trkpt lat="8.8604857" lon="-75.807725"><ele>10.0</ele><time>2026-04-18T10:37:05.696Z</time></trkpt><trkpt lat="8.860587" lon="-75.8077123"><ele>10.0</ele><time>2026-04-18T10:37:06.696Z</time></trkpt><trkpt lat="8.8606908" lon="-75.8077012"><ele>10.0</ele><time>2026-04-18T10:37:07.698Z</time></trkpt><trkpt lat="8.860792" lon="-75.8076852"><ele>10.0</ele><time>2026-04-18T10:37:08.696Z</time></trkpt><trkpt lat="8.860897" lon="-75.8076697"><ele>10.0</ele><time>2026-04-18T10:37:09.697Z</time></trkpt><trkpt lat="8.8610003" lon="-75.8076573"><ele>10.0</ele><time>2026-04-18T10:37:10.696Z</time></trkpt><trkpt lat="8.8610977" lon="-75.8076422"><ele>9.8</ele><time>2026-04-18T10:37:11.697Z</time></trkpt><trkpt lat="8.8611995" lon="-75.8076301"><ele>9.6</ele><time>2026-04-18T10:37:12.697Z</time></trkpt><trkpt lat="8.8613022" lon="-75.8076144"><ele>9.4</ele><time>2026-04-18T10:37:13.697Z</time></trkpt><trkpt lat="8.8614042" lon="-75.8075968"><ele>9.2</ele><time>2026-04-18T10:37:14.696Z</time></trkpt><trkpt lat="8.8615087" lon="-75.8075789"><ele>9.0</ele><time>2026-04-18T10:37:15.698Z</time></trkpt><trkpt lat="8.8616142" lon="-75.8075652"><ele>9.0</ele><time>2026-04-18T10:37:16.696Z</time></trkpt><trkpt lat="8.8617144" lon="-75.8075492"><ele>9.0</ele><time>2026-04-18T10:37:17.697Z</time></trkpt><trkpt lat="8.8618196" lon="-75.8075333"><ele>9.0</ele><time>2026-04-18T10:37:18.696Z</time></trkpt><trkpt lat="8.8619252" lon="-75.8075171"><ele>9.0</ele><time>2026-04-18T10:37:19.696Z</time></trkpt><trkpt lat="8.8620279" lon="-75.8075006"><ele>9.0</ele><time>2026-04-18T10:37:20.696Z</time></trkpt><trkpt lat="8.8621345" lon="-75.8074888"><ele>9.0</ele><time>2026-04-18T10:37:21.697Z</time></trkpt><trkpt lat="8.8622414" lon="-75.8074711"><ele>9.0</ele><time>2026-04-18T10:37:22.696Z</time></trkpt><trkpt lat="8.8623424" lon="-75.807453"><ele>9.0</ele><time>2026-04-18T10:37:23.697Z</time></trkpt><trkpt lat="8.8624406" lon="-75.8074352"><ele>9.0</ele><time>2026-04-18T10:37:24.696Z</time></trkpt><trkpt lat="8.8625401" lon="-75.8074216"><ele>9.0</ele><time>2026-04-18T10:37:25.697Z</time></trkpt><trkpt lat="8.8626353" lon="-75.8074075"><ele>8.8</ele><time>2026-04-18T10:37:26.696Z</time></trkpt><trkpt lat="8.8627352" lon="-75.807392"><ele>8.600000000000001</ele><time>2026-04-18T10:37:27.696Z</time></trkpt><trkpt lat="8.8628242" lon="-75.807379"><ele>8.4</ele><time>2026-04-18T10:37:28.697Z</time></trkpt><trkpt lat="8.8629145" lon="-75.8073706"><ele>8.200000000000001</ele><time>2026-04-18T10:37:29.697Z</time></trkpt><trkpt lat="8.8630043" lon="-75.8073598"><ele>8.0</ele><time>2026-04-18T10:37:30.698Z</time></trkpt><trkpt lat="8.8630924" lon="-75.8073487"><ele>8.0</ele><time>2026-04-18T10:37:31.695Z</time></trkpt><trkpt lat="8.8631848" lon="-75.8073352"><ele>8.0</ele><time>2026-04-18T10:37:32.695Z</time></trkpt><trkpt lat="8.8632747" lon="-75.8073222"><ele>8.0</ele><time>2026-04-18T10:37:33.697Z</time></trkpt><trkpt lat="8.8633674" lon="-75.8073081"><ele>8.0</ele><time>2026-04-18T10:37:34.696Z</time></trkpt><trkpt lat="8.8634635" lon="-75.8072919"><ele>8.0</ele><time>2026-04-18T10:37:35.697Z</time></trkpt><trkpt lat="8.8635624" lon="-75.8072809"><ele>8.200000000000001</ele><time>2026-04-18T10:37:36.696Z</time></trkpt><trkpt lat="8.8636582" lon="-75.8072667"><ele>8.4</ele><time>2026-04-18T10:37:37.696Z</time></trkpt><trkpt lat="8.8637609" lon="-75.8072497"><ele>8.600000000000001</ele><time>2026-04-18T10:37:38.695Z</time></trkpt><trkpt lat="8.8638564" lon="-75.8072311"><ele>8.8</ele><time>2026-04-18T10:37:39.697Z</time></trkpt><trkpt lat="8.8639514" lon="-75.807208"><ele>9.0</ele><time>2026-04-18T10:37:40.696Z</time></trkpt><trkpt lat="8.8640519" lon="-75.8071837"><ele>9.0</ele><time>2026-04-18T10:37:41.695Z</time></trkpt><trkpt lat="8.8641554" lon="-75.8071556"><ele>9.0</ele><time>2026-04-18T10:37:42.697Z</time></trkpt><trkpt lat="8.8642551" lon="-75.8071242"><ele>9.0</ele><time>2026-04-18T10:37:43.696Z</time></trkpt><trkpt lat="8.8643531" lon="-75.8070906"><ele>9.0</ele><time>2026-04-18T10:37:44.696Z</time></trkpt><trkpt lat="8.8644518" lon="-75.8070549"><ele>9.0</ele><time>2026-04-18T10:37:45.696Z</time></trkpt><trkpt lat="8.8645436" lon="-75.8070176"><ele>9.0</ele><time>2026-04-18T10:37:46.697Z</time></trkpt><trkpt lat="8.8646382" lon="-75.80698"><ele>9.0</ele><time>2026-04-18T10:37:47.696Z</time></trkpt><trkpt lat="8.8647303" lon="-75.8069409"><ele>9.0</ele><time>2026-04-18T10:37:48.702Z</time></trkpt><trkpt lat="8.8648255" lon="-75.8069012"><ele>9.0</ele><time>2026-04-18T10:37:49.697Z</time></trkpt><trkpt lat="8.8649204" lon="-75.8068621"><ele>9.0</ele><time>2026-04-18T10:37:50.696Z</time></trkpt><trkpt lat="8.8650139" lon="-75.8068211"><ele>9.2</ele><time>2026-04-18T10:37:51.696Z</time></trkpt><trkpt lat="8.865104" lon="-75.8067705"><ele>9.4</ele><time>2026-04-18T10:37:52.698Z</time></trkpt><trkpt lat="8.8651891" lon="-75.8067212"><ele>9.6</ele><time>2026-04-18T10:37:53.697Z</time></trkpt><trkpt lat="8.865273" lon="-75.8066718"><ele>9.8</ele><time>2026-04-18T10:37:54.696Z</time></trkpt><trkpt lat="8.8653536" lon="-75.8066216"><ele>10.0</ele><time>2026-04-18T10:37:55.696Z</time></trkpt><trkpt lat="8.8654292" lon="-75.8065675"><ele>10.0</ele><time>2026-04-18T10:37:56.696Z</time></trkpt><trkpt lat="8.8655073" lon="-75.8065099"><ele>10.0</ele><time>2026-04-18T10:37:57.696Z</time></trkpt><trkpt lat="8.8655835" lon="-75.8064514"><ele>10.0</ele><time>2026-04-18T10:37:58.696Z</time></trkpt><trkpt lat="8.8656613" lon="-75.8063946"><ele>10.0</ele><time>2026-04-18T10:37:59.695Z</time></trkpt><trkpt lat="8.8657349" lon="-75.8063353"><ele>10.0</ele><time>2026-04-18T10:38:00.696Z</time></trkpt><trkpt lat="8.8658061" lon="-75.8062756"><ele>10.0</ele><time>2026-04-18T10:38:01.696Z</time></trkpt><trkpt lat="8.8658779" lon="-75.8062128"><ele>10.0</ele><time>2026-04-18T10:38:02.696Z</time></trkpt><trkpt lat="8.8659451" lon="-75.8061484"><ele>10.0</ele><time>2026-04-18T10:38:03.696Z</time></trkpt><trkpt lat="8.8660176" lon="-75.8060829"><ele>10.0</ele><time>2026-04-18T10:38:04.697Z</time></trkpt><trkpt lat="8.8660855" lon="-75.8060175"><ele>10.0</ele><time>2026-04-18T10:38:05.695Z</time></trkpt><trkpt lat="8.8661557" lon="-75.8059508"><ele>9.8</ele><time>2026-04-18T10:38:06.696Z</time></trkpt><trkpt lat="8.8662192" lon="-75.8058817"><ele>9.6</ele><time>2026-04-18T10:38:07.696Z</time></trkpt><trkpt lat="8.866283" lon="-75.8058109"><ele>9.4</ele><time>2026-04-18T10:38:08.695Z</time></trkpt><trkpt lat="8.8663493" lon="-75.8057418"><ele>9.2</ele><time>2026-04-18T10:38:09.696Z</time></trkpt><trkpt lat="8.8664108" lon="-75.8056679"><ele>9.0</ele><time>2026-04-18T10:38:10.696Z</time></trkpt><trkpt lat="8.866474" lon="-75.8055914"><ele>9.0</ele><time>2026-04-18T10:38:11.697Z</time></trkpt><trkpt lat="8.8665355" lon="-75.8055169"><ele>9.0</ele><time>2026-04-18T10:38:12.696Z</time></trkpt><trkpt lat="8.8665983" lon="-75.8054391"><ele>9.0</ele><time>2026-04-18T10:38:13.696Z</time></trkpt><trkpt lat="8.866659" lon="-75.8053625"><ele>9.0</ele><time>2026-04-18T10:38:14.696Z</time></trkpt><trkpt lat="8.8667174" lon="-75.8052891"><ele>9.0</ele><time>2026-04-18T10:38:15.696Z</time></trkpt><trkpt lat="8.8667765" lon="-75.8052142"><ele>9.4</ele><time>2026-04-18T10:38:16.696Z</time></trkpt><trkpt lat="8.8668337" lon="-75.8051377"><ele>9.8</ele><time>2026-04-18T10:38:17.696Z</time></trkpt><trkpt lat="8.8668941" lon="-75.8050571"><ele>10.200000000000001</ele><time>2026-04-18T10:38:18.696Z</time></trkpt><trkpt lat="8.8669526" lon="-75.8049838"><ele>10.600000000000001</ele><time>2026-04-18T10:38:19.696Z</time></trkpt><trkpt lat="8.8670125" lon="-75.8049061"><ele>11.0</ele><time>2026-04-18T10:38:20.698Z</time></trkpt><trkpt lat="8.8670674" lon="-75.8048235"><ele>11.0</ele><time>2026-04-18T10:38:21.696Z</time></trkpt><trkpt lat="8.8671332" lon="-75.8047521"><ele>11.0</ele><time>2026-04-18T10:38:22.696Z</time></trkpt><trkpt lat="8.867185" lon="-75.8046673"><ele>11.0</ele><time>2026-04-18T10:38:23.696Z</time></trkpt><trkpt lat="8.8672402" lon="-75.8045886"><ele>11.0</ele><time>2026-04-18T10:38:24.696Z</time></trkpt><trkpt lat="8.8672976" lon="-75.8045136"><ele>11.0</ele><time>2026-04-18T10:38:25.696Z</time></trkpt><trkpt lat="8.8673496" lon="-75.8044385"><ele>11.0</ele><time>2026-04-18T10:38:26.696Z</time></trkpt><trkpt lat="8.867397" lon="-75.8043635"><ele>11.0</ele><time>2026-04-18T10:38:27.696Z</time></trkpt><trkpt lat="8.8674455" lon="-75.8042904"><ele>11.0</ele><time>2026-04-18T10:38:28.697Z</time></trkpt><trkpt lat="8.8674913" lon="-75.8042127"><ele>11.0</ele><time>2026-04-18T10:38:29.696Z</time></trkpt><trkpt lat="8.8675422" lon="-75.8041321"><ele>11.0</ele><time>2026-04-18T10:38:30.696Z</time></trkpt><trkpt lat="8.8675902" lon="-75.8040498"><ele>11.0</ele><time>2026-04-18T10:38:31.697Z</time></trkpt><trkpt lat="8.867642" lon="-75.8039713"><ele>11.0</ele><time>2026-04-18T10:38:32.695Z</time></trkpt><trkpt lat="8.867698" lon="-75.803889"><ele>11.0</ele><time>2026-04-18T10:38:33.697Z</time></trkpt><trkpt lat="8.8677508" lon="-75.8038063"><ele>11.0</ele><time>2026-04-18T10:38:34.696Z</time></trkpt><trkpt lat="8.8678044" lon="-75.803724"><ele>11.0</ele><time>2026-04-18T10:38:35.696Z</time></trkpt><trkpt lat="8.8678556" lon="-75.803642"><ele>11.0</ele><time>2026-04-18T10:38:36.696Z</time></trkpt><trkpt lat="8.8679084" lon="-75.8035627"><ele>11.0</ele><time>2026-04-18T10:38:37.696Z</time></trkpt><trkpt lat="8.8679603" lon="-75.8034799"><ele>11.0</ele><time>2026-04-18T10:38:38.698Z</time></trkpt><trkpt lat="8.8680117" lon="-75.8033979"><ele>11.0</ele><time>2026-04-18T10:38:39.697Z</time></trkpt><trkpt lat="8.8680619" lon="-75.8033176"><ele>11.0</ele><time>2026-04-18T10:38:40.696Z</time></trkpt><trkpt lat="8.8681114" lon="-75.8032393"><ele>11.0</ele><time>2026-04-18T10:38:41.696Z</time></trkpt><trkpt lat="8.8681604" lon="-75.8031626"><ele>11.0</ele><time>2026-04-18T10:38:42.696Z</time></trkpt><trkpt lat="8.868209" lon="-75.8030857"><ele>11.0</ele><time>2026-04-18T10:38:43.696Z</time></trkpt><trkpt lat="8.8682588" lon="-75.8030042"><ele>11.0</ele><time>2026-04-18T10:38:44.696Z</time></trkpt><trkpt lat="8.8683096" lon="-75.8029279"><ele>11.0</ele><time>2026-04-18T10:38:45.696Z</time></trkpt><trkpt lat="8.8683592" lon="-75.8028485"><ele>11.0</ele><time>2026-04-18T10:38:46.696Z</time></trkpt><trkpt lat="8.8684077" lon="-75.8027699"><ele>11.0</ele><time>2026-04-18T10:38:47.697Z</time></trkpt><trkpt lat="8.8684568" lon="-75.8026916"><ele>11.0</ele><time>2026-04-18T10:38:48.696Z</time></trkpt><trkpt lat="8.8685006" lon="-75.8026138"><ele>11.0</ele><time>2026-04-18T10:38:49.696Z</time></trkpt><trkpt lat="8.8685471" lon="-75.8025384"><ele>11.0</ele><time>2026-04-18T10:38:50.696Z</time></trkpt><trkpt lat="8.8685964" lon="-75.8024629"><ele>11.0</ele><time>2026-04-18T10:38:51.696Z</time></trkpt><trkpt lat="8.8686415" lon="-75.8023847"><ele>11.166666666666666</ele><time>2026-04-18T10:38:52.696Z</time></trkpt><trkpt lat="8.8686934" lon="-75.8023079"><ele>11.333333333333332</ele><time>2026-04-18T10:38:53.696Z</time></trkpt><trkpt lat="8.8687411" lon="-75.8022349"><ele>11.5</ele><time>2026-04-18T10:38:54.696Z</time></trkpt><trkpt lat="8.8687865" lon="-75.8021598"><ele>11.666666666666666</ele><time>2026-04-18T10:38:55.696Z</time></trkpt><trkpt lat="8.868819" lon="-75.8020756"><ele>11.833333333333334</ele><time>2026-04-18T10:38:56.696Z</time></trkpt><trkpt lat="8.8688721" lon="-75.8020035"><ele>12.0</ele><time>2026-04-18T10:38:57.697Z</time></trkpt><trkpt lat="8.8689208" lon="-75.8019258"><ele>12.0</ele><time>2026-04-18T10:38:58.696Z</time></trkpt><trkpt lat="8.8689711" lon="-75.8018519"><ele>12.0</ele><time>2026-04-18T10:38:59.697Z</time></trkpt><trkpt lat="8.8690208" lon="-75.8017729"><ele>12.0</ele><time>2026-04-18T10:39:00.697Z</time></trkpt><trkpt lat="8.8690712" lon="-75.8016955"><ele>12.0</ele><time>2026-04-18T10:39:01.696Z</time></trkpt><trkpt lat="8.8691207" lon="-75.801618"><ele>12.0</ele><time>2026-04-18T10:39:02.696Z</time></trkpt><trkpt lat="8.8691688" lon="-75.8015383"><ele>11.8</ele><time>2026-04-18T10:39:03.696Z</time></trkpt><trkpt lat="8.8692195" lon="-75.8014607"><ele>11.6</ele><time>2026-04-18T10:39:04.697Z</time></trkpt><trkpt lat="8.8692676" lon="-75.801379"><ele>11.4</ele><time>2026-04-18T10:39:05.697Z</time></trkpt><trkpt lat="8.8693165" lon="-75.8012986"><ele>11.200000000000001</ele><time>2026-04-18T10:39:06.696Z</time></trkpt><trkpt lat="8.8693657" lon="-75.8012191"><ele>11.0</ele><time>2026-04-18T10:39:07.696Z</time></trkpt><trkpt lat="8.8694181" lon="-75.8011387"><ele>10.8</ele><time>2026-04-18T10:39:08.697Z</time></trkpt><trkpt lat="8.8694678" lon="-75.8010572"><ele>10.600000000000001</ele><time>2026-04-18T10:39:09.697Z</time></trkpt><trkpt lat="8.8695181" lon="-75.8009766"><ele>10.4</ele><time>2026-04-18T10:39:10.696Z</time></trkpt><trkpt lat="8.8695651" lon="-75.8008927"><ele>10.2</ele><time>2026-04-18T10:39:11.696Z</time></trkpt><trkpt lat="8.8696112" lon="-75.8008129"><ele>10.0</ele><time>2026-04-18T10:39:12.696Z</time></trkpt><trkpt lat="8.8696571" lon="-75.800728"><ele>10.0</ele><time>2026-04-18T10:39:13.696Z</time></trkpt><trkpt lat="8.8696988" lon="-75.8006405"><ele>10.0</ele><time>2026-04-18T10:39:14.696Z</time></trkpt><trkpt lat="8.8697323" lon="-75.800553"><ele>10.0</ele><time>2026-04-18T10:39:15.696Z</time></trkpt><trkpt lat="8.8697662" lon="-75.8004656"><ele>10.0</ele><time>2026-04-18T10:39:16.696Z</time></trkpt><trkpt lat="8.8697957" lon="-75.8003797"><ele>10.0</ele><time>2026-04-18T10:39:17.697Z</time></trkpt><trkpt lat="8.8698201" lon="-75.8002912"><ele>10.0</ele><time>2026-04-18T10:39:18.696Z</time></trkpt><trkpt lat="8.8698438" lon="-75.8002"><ele>10.0</ele><time>2026-04-18T10:39:19.697Z</time></trkpt><trkpt lat="8.8698627" lon="-75.8001082"><ele>10.0</ele><time>2026-04-18T10:39:20.697Z</time></trkpt><trkpt lat="8.8698745" lon="-75.800016"><ele>10.0</ele><time>2026-04-18T10:39:21.696Z</time></trkpt><trkpt lat="8.869892" lon="-75.7999211"><ele>10.0</ele><time>2026-04-18T10:39:22.696Z</time></trkpt><trkpt lat="8.8699071" lon="-75.7998326"><ele>10.0</ele><time>2026-04-18T10:39:23.696Z</time></trkpt><trkpt lat="8.8699196" lon="-75.7997452"><ele>10.0</ele><time>2026-04-18T10:39:24.697Z</time></trkpt><trkpt lat="8.8699324" lon="-75.799659"><ele>10.0</ele><time>2026-04-18T10:39:25.696Z</time></trkpt><trkpt lat="8.8699471" lon="-75.7995674"><ele>10.0</ele><time>2026-04-18T10:39:26.697Z</time></trkpt><trkpt lat="8.8699607" lon="-75.79948"><ele>10.0</ele><time>2026-04-18T10:39:27.696Z</time></trkpt><trkpt lat="8.8699689" lon="-75.7993902"><ele>10.0</ele><time>2026-04-18T10:39:28.696Z</time></trkpt><trkpt lat="8.8699807" lon="-75.7993059"><ele>10.2</ele><time>2026-04-18T10:39:29.696Z</time></trkpt><trkpt lat="8.8699929" lon="-75.7992177"><ele>10.4</ele><time>2026-04-18T10:39:30.696Z</time></trkpt><trkpt lat="8.8700082" lon="-75.7991284"><ele>10.600000000000001</ele><time>2026-04-18T10:39:31.696Z</time></trkpt><trkpt lat="8.8700204" lon="-75.7990356"><ele>10.8</ele><time>2026-04-18T10:39:32.695Z</time></trkpt><trkpt lat="8.8700325" lon="-75.7989454"><ele>11.0</ele><time>2026-04-18T10:39:33.697Z</time></trkpt><trkpt lat="8.8700469" lon="-75.7988513"><ele>11.0</ele><time>2026-04-18T10:39:34.696Z</time></trkpt><trkpt lat="8.8700595" lon="-75.7987603"><ele>11.0</ele><time>2026-04-18T10:39:35.696Z</time></trkpt><trkpt lat="8.8700726" lon="-75.7986711"><ele>11.0</ele><time>2026-04-18T10:39:36.696Z</time></trkpt><trkpt lat="8.8700867" lon="-75.7985816"><ele>11.0</ele><time>2026-04-18T10:39:37.697Z</time></trkpt><trkpt lat="8.8701023" lon="-75.7984893"><ele>11.0</ele><time>2026-04-18T10:39:38.696Z</time></trkpt><trkpt lat="8.870114" lon="-75.7983963"><ele>11.0</ele><time>2026-04-18T10:39:39.696Z</time></trkpt><trkpt lat="8.8701286" lon="-75.7983078"><ele>11.0</ele><time>2026-04-18T10:39:40.697Z</time></trkpt><trkpt lat="8.8701434" lon="-75.7982175"><ele>11.0</ele><time>2026-04-18T10:39:41.696Z</time></trkpt><trkpt lat="8.8701552" lon="-75.7981275"><ele>11.0</ele><time>2026-04-18T10:39:42.697Z</time></trkpt><trkpt lat="8.8701707" lon="-75.7980393"><ele>11.0</ele><time>2026-04-18T10:39:43.696Z</time></trkpt><trkpt lat="8.8701861" lon="-75.7979495"><ele>11.0</ele><time>2026-04-18T10:39:44.696Z</time></trkpt><trkpt lat="8.8701979" lon="-75.7978627"><ele>11.0</ele><time>2026-04-18T10:39:45.697Z</time></trkpt><trkpt lat="8.8702138" lon="-75.7977731"><ele>11.0</ele><time>2026-04-18T10:39:46.696Z</time></trkpt><trkpt lat="8.8702268" lon="-75.797682"><ele>11.0</ele><time>2026-04-18T10:39:47.697Z</time></trkpt><trkpt lat="8.870243" lon="-75.7975905"><ele>11.0</ele><time>2026-04-18T10:39:48.697Z</time></trkpt><trkpt lat="8.8702578" lon="-75.797499"><ele>11.0</ele><time>2026-04-18T10:39:49.696Z</time></trkpt><trkpt lat="8.8702711" lon="-75.7974053"><ele>11.200000000000001</ele><time>2026-04-18T10:39:50.697Z</time></trkpt><trkpt lat="8.8702873" lon="-75.7973111"><ele>11.4</ele><time>2026-04-18T10:39:51.697Z</time></trkpt><trkpt lat="8.8702984" lon="-75.7972154"><ele>11.6</ele><time>2026-04-18T10:39:52.696Z</time></trkpt><trkpt lat="8.8703112" lon="-75.7971258"><ele>11.8</ele><time>2026-04-18T10:39:53.696Z</time></trkpt><trkpt lat="8.8703223" lon="-75.7970369"><ele>12.0</ele><time>2026-04-18T10:39:54.696Z</time></trkpt><trkpt lat="8.8703341" lon="-75.7969464"><ele>12.0</ele><time>2026-04-18T10:39:55.696Z</time></trkpt><trkpt lat="8.8703474" lon="-75.7968595"><ele>12.0</ele><time>2026-04-18T10:39:56.696Z</time></trkpt><trkpt lat="8.8703615" lon="-75.7967705"><ele>12.0</ele><time>2026-04-18T10:39:57.697Z</time></trkpt><trkpt lat="8.8703767" lon="-75.7966836"><ele>12.0</ele><time>2026-04-18T10:39:58.696Z</time></trkpt><trkpt lat="8.8703925" lon="-75.7965995"><ele>12.0</ele><time>2026-04-18T10:39:59.697Z</time></trkpt><trkpt lat="8.8704074" lon="-75.7965104"><ele>12.0</ele><time>2026-04-18T10:40:00.696Z</time></trkpt><trkpt lat="8.8704256" lon="-75.7964204"><ele>11.833333333333334</ele><time>2026-04-18T10:40:01.696Z</time></trkpt><trkpt lat="8.8704399" lon="-75.7963322"><ele>11.666666666666666</ele><time>2026-04-18T10:40:02.696Z</time></trkpt><trkpt lat="8.870454" lon="-75.7962416"><ele>11.5</ele><time>2026-04-18T10:40:03.696Z</time></trkpt><trkpt lat="8.8704677" lon="-75.7961537"><ele>11.333333333333332</ele><time>2026-04-18T10:40:04.696Z</time></trkpt><trkpt lat="8.8704815" lon="-75.7960619"><ele>11.166666666666666</ele><time>2026-04-18T10:40:05.696Z</time></trkpt><trkpt lat="8.8704962" lon="-75.7959742"><ele>11.0</ele><time>2026-04-18T10:40:06.696Z</time></trkpt><trkpt lat="8.8705059" lon="-75.7958853"><ele>11.0</ele><time>2026-04-18T10:40:07.697Z</time></trkpt><trkpt lat="8.8705197" lon="-75.7957966"><ele>11.0</ele><time>2026-04-18T10:40:08.696Z</time></trkpt><trkpt lat="8.8705341" lon="-75.7957108"><ele>11.0</ele><time>2026-04-18T10:40:09.696Z</time></trkpt><trkpt lat="8.8705489" lon="-75.7956286"><ele>11.0</ele><time>2026-04-18T10:40:10.696Z</time></trkpt><trkpt lat="8.8705617" lon="-75.7955431"><ele>11.0</ele><time>2026-04-18T10:40:11.696Z</time></trkpt><trkpt lat="8.8705751" lon="-75.7954602"><ele>11.0</ele><time>2026-04-18T10:40:12.696Z</time></trkpt><trkpt lat="8.8705888" lon="-75.7953737"><ele>11.0</ele><time>2026-04-18T10:40:13.696Z</time></trkpt><trkpt lat="8.870603" lon="-75.7952867"><ele>11.0</ele><time>2026-04-18T10:40:14.696Z</time></trkpt><trkpt lat="8.8706176" lon="-75.7951988"><ele>11.0</ele><time>2026-04-18T10:40:15.696Z</time></trkpt><trkpt lat="8.8706298" lon="-75.7951127"><ele>11.0</ele><time>2026-04-18T10:40:16.696Z</time></trkpt><trkpt lat="8.8706415" lon="-75.7950272"><ele>11.0</ele><time>2026-04-18T10:40:17.696Z</time></trkpt><trkpt lat="8.8706564" lon="-75.7949387"><ele>11.0</ele><time>2026-04-18T10:40:18.696Z</time></trkpt><trkpt lat="8.870669" lon="-75.7948531"><ele>11.333333333333332</ele><time>2026-04-18T10:40:19.697Z</time></trkpt><trkpt lat="8.8706821" lon="-75.794768"><ele>11.666666666666666</ele><time>2026-04-18T10:40:20.696Z</time></trkpt><trkpt lat="8.8706971" lon="-75.7946881"><ele>12.0</ele><time>2026-04-18T10:40:21.696Z</time></trkpt><trkpt lat="8.8707122" lon="-75.7946051"><ele>12.333333333333332</ele><time>2026-04-18T10:40:22.697Z</time></trkpt><trkpt lat="8.8707267" lon="-75.7945266"><ele>12.666666666666666</ele><time>2026-04-18T10:40:23.696Z</time></trkpt><trkpt lat="8.8707333" lon="-75.7944444"><ele>13.0</ele><time>2026-04-18T10:40:24.696Z</time></trkpt><trkpt lat="8.8707479" lon="-75.7943579"><ele>12.999999999999998</ele><time>2026-04-18T10:40:25.696Z</time></trkpt><trkpt lat="8.8707565" lon="-75.7942747"><ele>13.0</ele><time>2026-04-18T10:40:26.696Z</time></trkpt><trkpt lat="8.8707758" lon="-75.7941921"><ele>13.0</ele><time>2026-04-18T10:40:27.697Z</time></trkpt><trkpt lat="8.8707897" lon="-75.7941068"><ele>13.0</ele><time>2026-04-18T10:40:28.696Z</time></trkpt><trkpt lat="8.8708005" lon="-75.7940113"><ele>12.999999999999998</ele><time>2026-04-18T10:40:29.695Z</time></trkpt><trkpt lat="8.8708101" lon="-75.7939221"><ele>13.0</ele><time>2026-04-18T10:40:30.697Z</time></trkpt><trkpt lat="8.8708231" lon="-75.7938402"><ele>12.999999999999998</ele><time>2026-04-18T10:40:31.697Z</time></trkpt><trkpt lat="8.870835" lon="-75.7937541"><ele>13.0</ele><time>2026-04-18T10:40:32.696Z</time></trkpt><trkpt lat="8.8708483" lon="-75.7936662"><ele>13.0</ele><time>2026-04-18T10:40:33.696Z</time></trkpt><trkpt lat="8.8708595" lon="-75.793573"><ele>13.0</ele><time>2026-04-18T10:40:34.697Z</time></trkpt><trkpt lat="8.8708721" lon="-75.793481"><ele>12.999999999999998</ele><time>2026-04-18T10:40:35.696Z</time></trkpt><trkpt lat="8.8708846" lon="-75.7933928"><ele>13.0</ele><time>2026-04-18T10:40:36.696Z</time></trkpt><trkpt lat="8.8709007" lon="-75.7933019"><ele>12.999999999999998</ele><time>2026-04-18T10:40:37.696Z</time></trkpt><trkpt lat="8.8709196" lon="-75.7932106"><ele>13.0</ele><time>2026-04-18T10:40:38.696Z</time></trkpt><trkpt lat="8.8709364" lon="-75.7931224"><ele>13.0</ele><time>2026-04-18T10:40:39.696Z</time></trkpt><trkpt lat="8.8709514" lon="-75.7930371"><ele>13.0</ele><time>2026-04-18T10:40:40.696Z</time></trkpt><trkpt lat="8.8709663" lon="-75.7929515"><ele>12.999999999999998</ele><time>2026-04-18T10:40:41.696Z</time></trkpt><trkpt lat="8.8709731" lon="-75.7928639"><ele>13.0</ele><time>2026-04-18T10:40:42.696Z</time></trkpt><trkpt lat="8.8709821" lon="-75.792773"><ele>13.0</ele><time>2026-04-18T10:40:43.696Z</time></trkpt><trkpt lat="8.8709967" lon="-75.7926845"><ele>13.0</ele><time>2026-04-18T10:40:44.696Z</time></trkpt><trkpt lat="8.8710097" lon="-75.792595"><ele>13.0</ele><time>2026-04-18T10:40:45.696Z</time></trkpt><trkpt lat="8.8710231" lon="-75.7925037"><ele>13.0</ele><time>2026-04-18T10:40:46.696Z</time></trkpt><trkpt lat="8.8710377" lon="-75.7924107"><ele>13.0</ele><time>2026-04-18T10:40:47.697Z</time></trkpt><trkpt lat="8.8710526" lon="-75.7923228"><ele>12.8</ele><time>2026-04-18T10:40:48.696Z</time></trkpt><trkpt lat="8.871066" lon="-75.7922326"><ele>12.600000000000001</ele><time>2026-04-18T10:40:49.697Z</time></trkpt><trkpt lat="8.8710768" lon="-75.7921392"><ele>12.399999999999999</ele><time>2026-04-18T10:40:50.697Z</time></trkpt><trkpt lat="8.8710874" lon="-75.7920486"><ele>12.2</ele><time>2026-04-18T10:40:51.696Z</time></trkpt><trkpt lat="8.8710959" lon="-75.791958"><ele>12.0</ele><time>2026-04-18T10:40:52.696Z</time></trkpt><trkpt lat="8.8711112" lon="-75.7918692"><ele>12.0</ele><time>2026-04-18T10:40:53.696Z</time></trkpt><trkpt lat="8.871123" lon="-75.7917791"><ele>12.0</ele><time>2026-04-18T10:40:54.696Z</time></trkpt><trkpt lat="8.8711352" lon="-75.7916906"><ele>12.0</ele><time>2026-04-18T10:40:55.696Z</time></trkpt><trkpt lat="8.8711484" lon="-75.7916038"><ele>12.0</ele><time>2026-04-18T10:40:56.696Z</time></trkpt><trkpt lat="8.8711671" lon="-75.791515"><ele>12.0</ele><time>2026-04-18T10:40:57.696Z</time></trkpt><trkpt lat="8.8711855" lon="-75.7914342"><ele>12.0</ele><time>2026-04-18T10:40:58.696Z</time></trkpt><trkpt lat="8.8711982" lon="-75.7913453"><ele>12.0</ele><time>2026-04-18T10:40:59.696Z</time></trkpt><trkpt lat="8.8712095" lon="-75.7912534"><ele>12.0</ele><time>2026-04-18T10:41:00.696Z</time></trkpt><trkpt lat="8.8712215" lon="-75.7911645"><ele>12.0</ele><time>2026-04-18T10:41:01.696Z</time></trkpt><trkpt lat="8.8712357" lon="-75.7910749"><ele>12.0</ele><time>2026-04-18T10:41:02.695Z</time></trkpt><trkpt lat="8.8712499" lon="-75.7909839"><ele>12.0</ele><time>2026-04-18T10:41:03.696Z</time></trkpt><trkpt lat="8.8712623" lon="-75.7908949"><ele>12.166666666666666</ele><time>2026-04-18T10:41:04.696Z</time></trkpt><trkpt lat="8.8712754" lon="-75.790801"><ele>12.333333333333332</ele><time>2026-04-18T10:41:05.696Z</time></trkpt><trkpt lat="8.871289" lon="-75.7907137"><ele>12.5</ele><time>2026-04-18T10:41:06.696Z</time></trkpt><trkpt lat="8.8713042" lon="-75.7906262"><ele>12.666666666666666</ele><time>2026-04-18T10:41:07.696Z</time></trkpt><trkpt lat="8.8713169" lon="-75.7905363"><ele>12.833333333333332</ele><time>2026-04-18T10:41:08.696Z</time></trkpt><trkpt lat="8.8713288" lon="-75.7904462"><ele>13.0</ele><time>2026-04-18T10:41:09.696Z</time></trkpt><trkpt lat="8.8713387" lon="-75.7903547"><ele>13.0</ele><time>2026-04-18T10:41:10.696Z</time></trkpt><trkpt lat="8.8713569" lon="-75.7902652"><ele>13.0</ele><time>2026-04-18T10:41:11.696Z</time></trkpt><trkpt lat="8.8713708" lon="-75.7901754"><ele>13.0</ele><time>2026-04-18T10:41:12.696Z</time></trkpt><trkpt lat="8.871387" lon="-75.7900832"><ele>13.0</ele><time>2026-04-18T10:41:13.696Z</time></trkpt><trkpt lat="8.8714025" lon="-75.7899926"><ele>13.0</ele><time>2026-04-18T10:41:14.697Z</time></trkpt><trkpt lat="8.8714142" lon="-75.7899017"><ele>13.0</ele><time>2026-04-18T10:41:15.697Z</time></trkpt><trkpt lat="8.8714317" lon="-75.7898133"><ele>13.0</ele><time>2026-04-18T10:41:16.696Z</time></trkpt><trkpt lat="8.8714494" lon="-75.7897202"><ele>13.0</ele><time>2026-04-18T10:41:17.696Z</time></trkpt><trkpt lat="8.8714612" lon="-75.789628"><ele>13.0</ele><time>2026-04-18T10:41:18.695Z</time></trkpt><trkpt lat="8.8714742" lon="-75.7895377"><ele>13.0</ele><time>2026-04-18T10:41:19.696Z</time></trkpt><trkpt lat="8.8714907" lon="-75.7894462"><ele>13.0</ele><time>2026-04-18T10:41:20.696Z</time></trkpt><trkpt lat="8.8715068" lon="-75.7893519"><ele>13.0</ele><time>2026-04-18T10:41:21.696Z</time></trkpt><trkpt lat="8.8715229" lon="-75.7892576"><ele>13.0</ele><time>2026-04-18T10:41:22.696Z</time></trkpt><trkpt lat="8.8715386" lon="-75.7891617"><ele>13.0</ele><time>2026-04-18T10:41:23.696Z</time></trkpt><trkpt lat="8.871556" lon="-75.7890669"><ele>13.0</ele><time>2026-04-18T10:41:24.696Z</time></trkpt><trkpt lat="8.8715724" lon="-75.7889714"><ele>13.2</ele><time>2026-04-18T10:41:25.696Z</time></trkpt><trkpt lat="8.8715814" lon="-75.7888742"><ele>13.4</ele><time>2026-04-18T10:41:26.696Z</time></trkpt><trkpt lat="8.8715943" lon="-75.7887803"><ele>13.599999999999998</ele><time>2026-04-18T10:41:27.696Z</time></trkpt><trkpt lat="8.8716083" lon="-75.7886852"><ele>13.799999999999999</ele><time>2026-04-18T10:41:28.696Z</time></trkpt><trkpt lat="8.8716223" lon="-75.7885914"><ele>14.0</ele><time>2026-04-18T10:41:29.695Z</time></trkpt><trkpt lat="8.8716382" lon="-75.7884972"><ele>14.0</ele><time>2026-04-18T10:41:30.696Z</time></trkpt><trkpt lat="8.8716506" lon="-75.7884009"><ele>13.999999999999998</ele><time>2026-04-18T10:41:31.696Z</time></trkpt><trkpt lat="8.8716668" lon="-75.7883052"><ele>13.999999999999998</ele><time>2026-04-18T10:41:32.696Z</time></trkpt><trkpt lat="8.8716801" lon="-75.7882112"><ele>14.0</ele><time>2026-04-18T10:41:33.696Z</time></trkpt><trkpt lat="8.8716932" lon="-75.7881158"><ele>14.0</ele><time>2026-04-18T10:41:34.696Z</time></trkpt><trkpt lat="8.8717058" lon="-75.7880198"><ele>14.0</ele><time>2026-04-18T10:41:35.696Z</time></trkpt><trkpt lat="8.8717242" lon="-75.7879276"><ele>13.999999999999998</ele><time>2026-04-18T10:41:36.696Z</time></trkpt><trkpt lat="8.8717433" lon="-75.7878324"><ele>13.999999999999998</ele><time>2026-04-18T10:41:37.696Z</time></trkpt><trkpt lat="8.8717623" lon="-75.7877404"><ele>14.0</ele><time>2026-04-18T10:41:38.695Z</time></trkpt><trkpt lat="8.8717851" lon="-75.7876457"><ele>14.0</ele><time>2026-04-18T10:41:39.696Z</time></trkpt><trkpt lat="8.8718061" lon="-75.7875489"><ele>13.399999999999999</ele><time>2026-04-18T10:41:40.696Z</time></trkpt><trkpt lat="8.8718297" lon="-75.7874526"><ele>12.799999999999999</ele><time>2026-04-18T10:41:41.696Z</time></trkpt><trkpt lat="8.871855" lon="-75.7873594"><ele>12.2</ele><time>2026-04-18T10:41:42.696Z</time></trkpt><trkpt lat="8.8718837" lon="-75.7872658"><ele>11.600000000000001</ele><time>2026-04-18T10:41:43.695Z</time></trkpt><trkpt lat="8.8719117" lon="-75.7871721"><ele>11.0</ele><time>2026-04-18T10:41:44.696Z</time></trkpt><trkpt lat="8.8719386" lon="-75.7870768"><ele>11.0</ele><time>2026-04-18T10:41:45.697Z</time></trkpt><trkpt lat="8.8719638" lon="-75.7869896"><ele>11.0</ele><time>2026-04-18T10:41:46.697Z</time></trkpt><trkpt lat="8.8719909" lon="-75.786899"><ele>11.0</ele><time>2026-04-18T10:41:47.696Z</time></trkpt><trkpt lat="8.8720246" lon="-75.7868067"><ele>11.0</ele><time>2026-04-18T10:41:48.695Z</time></trkpt><trkpt lat="8.8720506" lon="-75.7867132"><ele>11.0</ele><time>2026-04-18T10:41:49.696Z</time></trkpt><trkpt lat="8.8720753" lon="-75.7866209"><ele>11.0</ele><time>2026-04-18T10:41:50.696Z</time></trkpt><trkpt lat="8.872103" lon="-75.7865274"><ele>11.0</ele><time>2026-04-18T10:41:51.696Z</time></trkpt><trkpt lat="8.8721291" lon="-75.7864345"><ele>11.0</ele><time>2026-04-18T10:41:52.697Z</time></trkpt><trkpt lat="8.8721601" lon="-75.786342"><ele>11.0</ele><time>2026-04-18T10:41:53.695Z</time></trkpt><trkpt lat="8.872188" lon="-75.7862471"><ele>11.0</ele><time>2026-04-18T10:41:54.696Z</time></trkpt><trkpt lat="8.8722158" lon="-75.7861477"><ele>11.0</ele><time>2026-04-18T10:41:55.695Z</time></trkpt><trkpt lat="8.8722466" lon="-75.7860533"><ele>11.0</ele><time>2026-04-18T10:41:56.695Z</time></trkpt><trkpt lat="8.8722744" lon="-75.7859603"><ele>11.0</ele><time>2026-04-18T10:41:57.695Z</time></trkpt><trkpt lat="8.8723016" lon="-75.7858631"><ele>11.0</ele><time>2026-04-18T10:41:58.696Z</time></trkpt><trkpt lat="8.8723219" lon="-75.785764"><ele>11.0</ele><time>2026-04-18T10:41:59.696Z</time></trkpt><trkpt lat="8.8723432" lon="-75.7856654"><ele>11.0</ele><time>2026-04-18T10:42:00.696Z</time></trkpt><trkpt lat="8.8723573" lon="-75.7855661"><ele>11.0</ele><time>2026-04-18T10:42:01.696Z</time></trkpt><trkpt lat="8.8723665" lon="-75.785467"><ele>11.0</ele><time>2026-04-18T10:42:02.696Z</time></trkpt><trkpt lat="8.872376" lon="-75.7853685"><ele>11.0</ele><time>2026-04-18T10:42:03.696Z</time></trkpt><trkpt lat="8.8723802" lon="-75.7852724"><ele>11.0</ele><time>2026-04-18T10:42:04.697Z</time></trkpt><trkpt lat="8.8723776" lon="-75.7851694"><ele>11.0</ele><time>2026-04-18T10:42:05.694Z</time></trkpt><trkpt lat="8.8723745" lon="-75.7850702"><ele>11.0</ele><time>2026-04-18T10:42:06.696Z</time></trkpt><trkpt lat="8.8723671" lon="-75.784969"><ele>11.0</ele><time>2026-04-18T10:42:07.696Z</time></trkpt><trkpt lat="8.8723562" lon="-75.784871"><ele>11.0</ele><time>2026-04-18T10:42:08.695Z</time></trkpt><trkpt lat="8.8723427" lon="-75.7847749"><ele>11.0</ele><time>2026-04-18T10:42:09.696Z</time></trkpt><trkpt lat="8.8723324" lon="-75.784679"><ele>11.0</ele><time>2026-04-18T10:42:10.696Z</time></trkpt><trkpt lat="8.8723225" lon="-75.7845871"><ele>11.0</ele><time>2026-04-18T10:42:11.696Z</time></trkpt><trkpt lat="8.8723134" lon="-75.7844913"><ele>11.0</ele><time>2026-04-18T10:42:12.696Z</time></trkpt><trkpt lat="8.8723039" lon="-75.7843961"><ele>11.0</ele><time>2026-04-18T10:42:13.696Z</time></trkpt><trkpt lat="8.8722903" lon="-75.7843003"><ele>11.0</ele><time>2026-04-18T10:42:14.697Z</time></trkpt><trkpt lat="8.8722785" lon="-75.7842061"><ele>10.600000000000001</ele><time>2026-04-18T10:42:15.695Z</time></trkpt><trkpt lat="8.8722671" lon="-75.7841091"><ele>10.200000000000001</ele><time>2026-04-18T10:42:16.696Z</time></trkpt><trkpt lat="8.8722552" lon="-75.7840135"><ele>9.8</ele><time>2026-04-18T10:42:17.696Z</time></trkpt><trkpt lat="8.8722451" lon="-75.7839149"><ele>9.4</ele><time>2026-04-18T10:42:18.697Z</time></trkpt><trkpt lat="8.8722333" lon="-75.7838146"><ele>9.0</ele><time>2026-04-18T10:42:19.696Z</time></trkpt><trkpt lat="8.8722215" lon="-75.7837182"><ele>9.0</ele><time>2026-04-18T10:42:20.696Z</time></trkpt><trkpt lat="8.8722103" lon="-75.7836242"><ele>9.0</ele><time>2026-04-18T10:42:21.696Z</time></trkpt><trkpt lat="8.872193" lon="-75.7835325"><ele>9.0</ele><time>2026-04-18T10:42:22.696Z</time></trkpt><trkpt lat="8.8721816" lon="-75.7834395"><ele>9.0</ele><time>2026-04-18T10:42:23.696Z</time></trkpt><trkpt lat="8.8721699" lon="-75.7833485"><ele>9.0</ele><time>2026-04-18T10:42:24.696Z</time></trkpt><trkpt lat="8.872159" lon="-75.7832505"><ele>9.8</ele><time>2026-04-18T10:42:25.696Z</time></trkpt><trkpt lat="8.8721453" lon="-75.7831521"><ele>10.600000000000001</ele><time>2026-04-18T10:42:26.696Z</time></trkpt><trkpt lat="8.8721313" lon="-75.783056"><ele>11.4</ele><time>2026-04-18T10:42:27.696Z</time></trkpt><trkpt lat="8.8721204" lon="-75.7829594"><ele>12.200000000000001</ele><time>2026-04-18T10:42:28.696Z</time></trkpt><trkpt lat="8.872108" lon="-75.7828633"><ele>13.0</ele><time>2026-04-18T10:42:29.697Z</time></trkpt><trkpt lat="8.8720891" lon="-75.7827628"><ele>13.0</ele><time>2026-04-18T10:42:30.695Z</time></trkpt><trkpt lat="8.8720789" lon="-75.7826653"><ele>13.0</ele><time>2026-04-18T10:42:31.696Z</time></trkpt><trkpt lat="8.8720774" lon="-75.7825695"><ele>13.0</ele><time>2026-04-18T10:42:32.696Z</time></trkpt><trkpt lat="8.8720808" lon="-75.7824751"><ele>13.0</ele><time>2026-04-18T10:42:33.696Z</time></trkpt><trkpt lat="8.8720868" lon="-75.7823812"><ele>13.0</ele><time>2026-04-18T10:42:34.696Z</time></trkpt><trkpt lat="8.872097" lon="-75.7822917"><ele>13.0</ele><time>2026-04-18T10:42:35.697Z</time></trkpt><trkpt lat="8.8721055" lon="-75.782197"><ele>13.0</ele><time>2026-04-18T10:42:36.697Z</time></trkpt><trkpt lat="8.8721148" lon="-75.7821024"><ele>13.0</ele><time>2026-04-18T10:42:37.695Z</time></trkpt><trkpt lat="8.8721323" lon="-75.7820114"><ele>13.0</ele><time>2026-04-18T10:42:38.697Z</time></trkpt><trkpt lat="8.8721566" lon="-75.7819208"><ele>13.0</ele><time>2026-04-18T10:42:39.695Z</time></trkpt><trkpt lat="8.8721809" lon="-75.7818319"><ele>13.600000000000001</ele><time>2026-04-18T10:42:40.696Z</time></trkpt><trkpt lat="8.8722152" lon="-75.781744"><ele>14.200000000000001</ele><time>2026-04-18T10:42:41.695Z</time></trkpt><trkpt lat="8.8722551" lon="-75.7816519"><ele>14.8</ele><time>2026-04-18T10:42:42.696Z</time></trkpt><trkpt lat="8.872292" lon="-75.7815651"><ele>15.4</ele><time>2026-04-18T10:42:43.696Z</time></trkpt><trkpt lat="8.8723302" lon="-75.7814787"><ele>16.0</ele><time>2026-04-18T10:42:44.696Z</time></trkpt><trkpt lat="8.8723811" lon="-75.7813921"><ele>16.0</ele><time>2026-04-18T10:42:45.696Z</time></trkpt><trkpt lat="8.8724318" lon="-75.7813047"><ele>16.0</ele><time>2026-04-18T10:42:46.696Z</time></trkpt><trkpt lat="8.8724865" lon="-75.7812193"><ele>16.0</ele><time>2026-04-18T10:42:47.697Z</time></trkpt><trkpt lat="8.8725479" lon="-75.781134"><ele>16.0</ele><time>2026-04-18T10:42:48.696Z</time></trkpt><trkpt lat="8.8726083" lon="-75.7810486"><ele>16.0</ele><time>2026-04-18T10:42:49.695Z</time></trkpt><trkpt lat="8.8726647" lon="-75.7809619"><ele>15.200000000000001</ele><time>2026-04-18T10:42:50.696Z</time></trkpt><trkpt lat="8.8727253" lon="-75.7808726"><ele>14.400000000000002</ele><time>2026-04-18T10:42:51.697Z</time></trkpt><trkpt lat="8.8727854" lon="-75.7807898"><ele>13.6</ele><time>2026-04-18T10:42:52.696Z</time></trkpt><trkpt lat="8.8728483" lon="-75.7807012"><ele>12.8</ele><time>2026-04-18T10:42:53.696Z</time></trkpt><trkpt lat="8.8729085" lon="-75.7806139"><ele>12.0</ele><time>2026-04-18T10:42:54.696Z</time></trkpt><trkpt lat="8.8729735" lon="-75.780527"><ele>12.0</ele><time>2026-04-18T10:42:55.696Z</time></trkpt><trkpt lat="8.8730348" lon="-75.7804463"><ele>12.0</ele><time>2026-04-18T10:42:56.695Z</time></trkpt><trkpt lat="8.8730975" lon="-75.7803655"><ele>12.0</ele><time>2026-04-18T10:42:57.696Z</time></trkpt><trkpt lat="8.8731606" lon="-75.7802838"><ele>12.0</ele><time>2026-04-18T10:42:58.696Z</time></trkpt><trkpt lat="8.8732185" lon="-75.7801978"><ele>12.0</ele><time>2026-04-18T10:42:59.696Z</time></trkpt><trkpt lat="8.8732782" lon="-75.7801147"><ele>11.8</ele><time>2026-04-18T10:43:00.697Z</time></trkpt><trkpt lat="8.873338" lon="-75.7800337"><ele>11.6</ele><time>2026-04-18T10:43:01.695Z</time></trkpt><trkpt lat="8.8733969" lon="-75.7799521"><ele>11.4</ele><time>2026-04-18T10:43:02.697Z</time></trkpt><trkpt lat="8.8734532" lon="-75.779876"><ele>11.200000000000001</ele><time>2026-04-18T10:43:03.696Z</time></trkpt><trkpt lat="8.8735125" lon="-75.7797978"><ele>11.0</ele><time>2026-04-18T10:43:04.696Z</time></trkpt><trkpt lat="8.8735704" lon="-75.7797172"><ele>11.0</ele><time>2026-04-18T10:43:05.697Z</time></trkpt><trkpt lat="8.8736281" lon="-75.7796367"><ele>11.0</ele><time>2026-04-18T10:43:06.696Z</time></trkpt><trkpt lat="8.8736834" lon="-75.7795547"><ele>11.0</ele><time>2026-04-18T10:43:07.697Z</time></trkpt><trkpt lat="8.8737426" lon="-75.779475"><ele>11.0</ele><time>2026-04-18T10:43:08.696Z</time></trkpt><trkpt lat="8.8737969" lon="-75.7793917"><ele>11.0</ele><time>2026-04-18T10:43:09.696Z</time></trkpt><trkpt lat="8.8738545" lon="-75.7793097"><ele>11.200000000000001</ele><time>2026-04-18T10:43:10.696Z</time></trkpt><trkpt lat="8.8739124" lon="-75.779228"><ele>11.4</ele><time>2026-04-18T10:43:11.696Z</time></trkpt><trkpt lat="8.8739677" lon="-75.7791514"><ele>11.6</ele><time>2026-04-18T10:43:12.695Z</time></trkpt><trkpt lat="8.8740282" lon="-75.7790757"><ele>11.8</ele><time>2026-04-18T10:43:13.696Z</time></trkpt><trkpt lat="8.874081" lon="-75.7789951"><ele>12.0</ele><time>2026-04-18T10:43:14.696Z</time></trkpt><trkpt lat="8.8741389" lon="-75.778914"><ele>12.0</ele><time>2026-04-18T10:43:15.695Z</time></trkpt><trkpt lat="8.8741944" lon="-75.7788353"><ele>12.0</ele><time>2026-04-18T10:43:16.696Z</time></trkpt><trkpt lat="8.8742503" lon="-75.7787569"><ele>12.0</ele><time>2026-04-18T10:43:17.696Z</time></trkpt><trkpt lat="8.8743093" lon="-75.7786752"><ele>12.0</ele><time>2026-04-18T10:43:18.696Z</time></trkpt><trkpt lat="8.8743666" lon="-75.7785949"><ele>12.0</ele><time>2026-04-18T10:43:19.696Z</time></trkpt><trkpt lat="8.8744243" lon="-75.7785188"><ele>12.0</ele><time>2026-04-18T10:43:20.697Z</time></trkpt><trkpt lat="8.8744807" lon="-75.7784423"><ele>12.0</ele><time>2026-04-18T10:43:21.696Z</time></trkpt><trkpt lat="8.8745391" lon="-75.778363"><ele>12.0</ele><time>2026-04-18T10:43:22.696Z</time></trkpt><trkpt lat="8.8745962" lon="-75.7782855"><ele>12.0</ele><time>2026-04-18T10:43:23.696Z</time></trkpt><trkpt lat="8.8746551" lon="-75.7782095"><ele>12.0</ele><time>2026-04-18T10:43:24.696Z</time></trkpt><trkpt lat="8.8747151" lon="-75.7781316"><ele>12.0</ele><time>2026-04-18T10:43:25.695Z</time></trkpt><trkpt lat="8.8747699" lon="-75.7780555"><ele>12.0</ele><time>2026-04-18T10:43:26.696Z</time></trkpt><trkpt lat="8.8748249" lon="-75.7779776"><ele>12.0</ele><time>2026-04-18T10:43:27.695Z</time></trkpt><trkpt lat="8.8748785" lon="-75.7778989"><ele>12.0</ele><time>2026-04-18T10:43:28.695Z</time></trkpt><trkpt lat="8.8749363" lon="-75.7778199"><ele>12.0</ele><time>2026-04-18T10:43:29.696Z</time></trkpt><trkpt lat="8.8749923" lon="-75.7777445"><ele>11.8</ele><time>2026-04-18T10:43:30.696Z</time></trkpt><trkpt lat="8.8750513" lon="-75.7776664"><ele>11.6</ele><time>2026-04-18T10:43:31.696Z</time></trkpt><trkpt lat="8.8751082" lon="-75.7775886"><ele>11.4</ele><time>2026-04-18T10:43:32.696Z</time></trkpt><trkpt lat="8.8751668" lon="-75.7775112"><ele>11.200000000000001</ele><time>2026-04-18T10:43:33.695Z</time></trkpt><trkpt lat="8.8752259" lon="-75.7774334"><ele>11.0</ele><time>2026-04-18T10:43:34.697Z</time></trkpt><trkpt lat="8.8752825" lon="-75.7773541"><ele>11.4</ele><time>2026-04-18T10:43:35.697Z</time></trkpt><trkpt lat="8.8753373" lon="-75.7772692"><ele>11.8</ele><time>2026-04-18T10:43:36.696Z</time></trkpt><trkpt lat="8.875394" lon="-75.7771869"><ele>12.200000000000001</ele><time>2026-04-18T10:43:37.697Z</time></trkpt><trkpt lat="8.8754524" lon="-75.7771085"><ele>12.600000000000001</ele><time>2026-04-18T10:43:38.696Z</time></trkpt><trkpt lat="8.8755068" lon="-75.7770323"><ele>13.0</ele><time>2026-04-18T10:43:39.696Z</time></trkpt><trkpt lat="8.8755578" lon="-75.776952"><ele>13.0</ele><time>2026-04-18T10:43:40.695Z</time></trkpt><trkpt lat="8.8756044" lon="-75.7768742"><ele>13.0</ele><time>2026-04-18T10:43:41.696Z</time></trkpt><trkpt lat="8.8756568" lon="-75.7767989"><ele>13.0</ele><time>2026-04-18T10:43:42.695Z</time></trkpt><trkpt lat="8.8757138" lon="-75.7767268"><ele>13.0</ele><time>2026-04-18T10:43:43.696Z</time></trkpt><trkpt lat="8.875769" lon="-75.7766568"><ele>13.0</ele><time>2026-04-18T10:43:44.696Z</time></trkpt><trkpt lat="8.8758246" lon="-75.7765835"><ele>12.8</ele><time>2026-04-18T10:43:45.697Z</time></trkpt><trkpt lat="8.8758827" lon="-75.7765093"><ele>12.600000000000001</ele><time>2026-04-18T10:43:46.696Z</time></trkpt><trkpt lat="8.87594" lon="-75.7764311"><ele>12.399999999999999</ele><time>2026-04-18T10:43:47.696Z</time></trkpt><trkpt lat="8.8759956" lon="-75.7763501"><ele>12.2</ele><time>2026-04-18T10:43:48.697Z</time></trkpt><trkpt lat="8.8760512" lon="-75.7762723"><ele>12.0</ele><time>2026-04-18T10:43:49.696Z</time></trkpt><trkpt lat="8.876105" lon="-75.7761955"><ele>12.0</ele><time>2026-04-18T10:43:50.696Z</time></trkpt><trkpt lat="8.8761634" lon="-75.7761195"><ele>12.0</ele><time>2026-04-18T10:43:51.696Z</time></trkpt><trkpt lat="8.8762213" lon="-75.7760428"><ele>12.0</ele><time>2026-04-18T10:43:52.696Z</time></trkpt><trkpt lat="8.8762773" lon="-75.7759649"><ele>12.0</ele><time>2026-04-18T10:43:53.696Z</time></trkpt><trkpt lat="8.8763357" lon="-75.7758888"><ele>12.0</ele><time>2026-04-18T10:43:54.696Z</time></trkpt><trkpt lat="8.8763906" lon="-75.775812"><ele>12.0</ele><time>2026-04-18T10:43:55.695Z</time></trkpt><trkpt lat="8.8764487" lon="-75.7757356"><ele>12.0</ele><time>2026-04-18T10:43:56.697Z</time></trkpt><trkpt lat="8.8765056" lon="-75.7756551"><ele>12.0</ele><time>2026-04-18T10:43:57.695Z</time></trkpt><trkpt lat="8.8765645" lon="-75.7755738"><ele>12.0</ele><time>2026-04-18T10:43:58.695Z</time></trkpt><trkpt lat="8.8766186" lon="-75.7754979"><ele>12.0</ele><time>2026-04-18T10:43:59.697Z</time></trkpt><trkpt lat="8.8766736" lon="-75.7754237"><ele>12.0</ele><time>2026-04-18T10:44:00.696Z</time></trkpt><trkpt lat="8.8767248" lon="-75.7753495"><ele>12.0</ele><time>2026-04-18T10:44:01.696Z</time></trkpt><trkpt lat="8.8767798" lon="-75.7752707"><ele>12.0</ele><time>2026-04-18T10:44:02.696Z</time></trkpt><trkpt lat="8.876836" lon="-75.7751938"><ele>12.0</ele><time>2026-04-18T10:44:03.695Z</time></trkpt><trkpt lat="8.8768959" lon="-75.7751156"><ele>12.0</ele><time>2026-04-18T10:44:04.695Z</time></trkpt><trkpt lat="8.8769531" lon="-75.7750346"><ele>12.399999999999999</ele><time>2026-04-18T10:44:05.695Z</time></trkpt><trkpt lat="8.8770077" lon="-75.7749604"><ele>12.799999999999999</ele><time>2026-04-18T10:44:06.696Z</time></trkpt><trkpt lat="8.8770668" lon="-75.7748856"><ele>13.2</ele><time>2026-04-18T10:44:07.696Z</time></trkpt><trkpt lat="8.8771292" lon="-75.7748116"><ele>13.6</ele><time>2026-04-18T10:44:08.696Z</time></trkpt><trkpt lat="8.8771901" lon="-75.7747416"><ele>14.0</ele><time>2026-04-18T10:44:09.696Z</time></trkpt><trkpt lat="8.8772547" lon="-75.774674"><ele>14.0</ele><time>2026-04-18T10:44:10.696Z</time></trkpt><trkpt lat="8.8773229" lon="-75.7746079"><ele>13.999999999999998</ele><time>2026-04-18T10:44:11.695Z</time></trkpt><trkpt lat="8.8774004" lon="-75.7745444"><ele>13.999999999999998</ele><time>2026-04-18T10:44:12.696Z</time></trkpt><trkpt lat="8.877476" lon="-75.7744895"><ele>14.0</ele><time>2026-04-18T10:44:13.696Z</time></trkpt><trkpt lat="8.8775547" lon="-75.7744334"><ele>14.0</ele><time>2026-04-18T10:44:14.696Z</time></trkpt><trkpt lat="8.877633" lon="-75.7743769"><ele>13.6</ele><time>2026-04-18T10:44:15.695Z</time></trkpt><trkpt lat="8.8777213" lon="-75.7743247"><ele>13.2</ele><time>2026-04-18T10:44:16.696Z</time></trkpt><trkpt lat="8.8778037" lon="-75.7742716"><ele>12.799999999999999</ele><time>2026-04-18T10:44:17.694Z</time></trkpt><trkpt lat="8.877899" lon="-75.7742341"><ele>12.399999999999999</ele><time>2026-04-18T10:44:18.696Z</time></trkpt><trkpt lat="8.8779898" lon="-75.7741969"><ele>12.0</ele><time>2026-04-18T10:44:19.696Z</time></trkpt><trkpt lat="8.8780842" lon="-75.7741604"><ele>12.0</ele><time>2026-04-18T10:44:20.697Z</time></trkpt><trkpt lat="8.8781813" lon="-75.7741282"><ele>12.0</ele><time>2026-04-18T10:44:21.696Z</time></trkpt><trkpt lat="8.8782826" lon="-75.7741061"><ele>12.0</ele><time>2026-04-18T10:44:22.697Z</time></trkpt><trkpt lat="8.8783806" lon="-75.7740866"><ele>12.0</ele><time>2026-04-18T10:44:23.697Z</time></trkpt><trkpt lat="8.8784784" lon="-75.7740714"><ele>12.0</ele><time>2026-04-18T10:44:24.696Z</time></trkpt><trkpt lat="8.8785712" lon="-75.7740574"><ele>11.8</ele><time>2026-04-18T10:44:25.696Z</time></trkpt><trkpt lat="8.8786602" lon="-75.7740465"><ele>11.6</ele><time>2026-04-18T10:44:26.697Z</time></trkpt><trkpt lat="8.8787602" lon="-75.7740438"><ele>11.4</ele><time>2026-04-18T10:44:27.696Z</time></trkpt><trkpt lat="8.8788568" lon="-75.7740448"><ele>11.200000000000001</ele><time>2026-04-18T10:44:28.696Z</time></trkpt><trkpt lat="8.8789615" lon="-75.7740591"><ele>11.0</ele><time>2026-04-18T10:44:29.697Z</time></trkpt><trkpt lat="8.8790591" lon="-75.7740714"><ele>11.0</ele><time>2026-04-18T10:44:30.695Z</time></trkpt><trkpt lat="8.879157" lon="-75.7740887"><ele>11.0</ele><time>2026-04-18T10:44:31.696Z</time></trkpt><trkpt lat="8.8792524" lon="-75.7741055"><ele>11.0</ele><time>2026-04-18T10:44:32.697Z</time></trkpt><trkpt lat="8.8793488" lon="-75.7741222"><ele>11.0</ele><time>2026-04-18T10:44:33.696Z</time></trkpt><trkpt lat="8.8794395" lon="-75.7741405"><ele>11.0</ele><time>2026-04-18T10:44:34.695Z</time></trkpt><trkpt lat="8.8795264" lon="-75.77416"><ele>11.166666666666666</ele><time>2026-04-18T10:44:35.696Z</time></trkpt><trkpt lat="8.879613" lon="-75.774181"><ele>11.333333333333332</ele><time>2026-04-18T10:44:36.696Z</time></trkpt><trkpt lat="8.879696" lon="-75.7742045"><ele>11.5</ele><time>2026-04-18T10:44:37.696Z</time></trkpt><trkpt lat="8.879779" lon="-75.7742215"><ele>11.666666666666666</ele><time>2026-04-18T10:44:38.696Z</time></trkpt><trkpt lat="8.8798664" lon="-75.7742365"><ele>11.833333333333334</ele><time>2026-04-18T10:44:39.697Z</time></trkpt><trkpt lat="8.8799507" lon="-75.7742523"><ele>12.0</ele><time>2026-04-18T10:44:40.696Z</time></trkpt><trkpt lat="8.8800371" lon="-75.7742679"><ele>11.8</ele><time>2026-04-18T10:44:41.696Z</time></trkpt><trkpt lat="8.8801266" lon="-75.7742846"><ele>11.6</ele><time>2026-04-18T10:44:42.697Z</time></trkpt><trkpt lat="8.8802184" lon="-75.7742986"><ele>11.4</ele><time>2026-04-18T10:44:43.696Z</time></trkpt><trkpt lat="8.8803098" lon="-75.77432"><ele>11.200000000000001</ele><time>2026-04-18T10:44:44.696Z</time></trkpt><trkpt lat="8.8803999" lon="-75.7743352"><ele>11.0</ele><time>2026-04-18T10:44:45.696Z</time></trkpt><trkpt lat="8.8804907" lon="-75.7743552"><ele>11.0</ele><time>2026-04-18T10:44:46.696Z</time></trkpt><trkpt lat="8.8805794" lon="-75.7743726"><ele>11.0</ele><time>2026-04-18T10:44:47.696Z</time></trkpt><trkpt lat="8.8806686" lon="-75.774392"><ele>11.0</ele><time>2026-04-18T10:44:48.696Z</time></trkpt><trkpt lat="8.8807582" lon="-75.7744115"><ele>11.0</ele><time>2026-04-18T10:44:49.696Z</time></trkpt><trkpt lat="8.8808448" lon="-75.7744321"><ele>11.0</ele><time>2026-04-18T10:44:50.697Z</time></trkpt><trkpt lat="8.8809284" lon="-75.7744517"><ele>11.0</ele><time>2026-04-18T10:44:51.695Z</time></trkpt><trkpt lat="8.8810162" lon="-75.7744682"><ele>10.600000000000001</ele><time>2026-04-18T10:44:52.695Z</time></trkpt><trkpt lat="8.8811054" lon="-75.7744834"><ele>10.200000000000001</ele><time>2026-04-18T10:44:53.696Z</time></trkpt><trkpt lat="8.881195" lon="-75.7745019"><ele>9.8</ele><time>2026-04-18T10:44:54.696Z</time></trkpt><trkpt lat="8.8812834" lon="-75.7745161"><ele>9.4</ele><time>2026-04-18T10:44:55.696Z</time></trkpt><trkpt lat="8.8813717" lon="-75.774521"><ele>9.0</ele><time>2026-04-18T10:44:56.696Z</time></trkpt><trkpt lat="8.8814647" lon="-75.774536"><ele>9.0</ele><time>2026-04-18T10:44:57.696Z</time></trkpt><trkpt lat="8.881559" lon="-75.7745472"><ele>9.0</ele><time>2026-04-18T10:44:58.696Z</time></trkpt><trkpt lat="8.8816493" lon="-75.7745525"><ele>9.0</ele><time>2026-04-18T10:44:59.696Z</time></trkpt><trkpt lat="8.8817422" lon="-75.7745554"><ele>9.0</ele><time>2026-04-18T10:45:00.695Z</time></trkpt><trkpt lat="8.8818338" lon="-75.7745536"><ele>9.0</ele><time>2026-04-18T10:45:01.695Z</time></trkpt><trkpt lat="8.8819303" lon="-75.7745459"><ele>9.2</ele><time>2026-04-18T10:45:02.695Z</time></trkpt><trkpt lat="8.8820261" lon="-75.7745378"><ele>9.4</ele><time>2026-04-18T10:45:03.697Z</time></trkpt><trkpt lat="8.8821143" lon="-75.7745233"><ele>9.6</ele><time>2026-04-18T10:45:04.696Z</time></trkpt><trkpt lat="8.882207" lon="-75.7745059"><ele>9.8</ele><time>2026-04-18T10:45:05.695Z</time></trkpt><trkpt lat="8.8822935" lon="-75.7744847"><ele>10.0</ele><time>2026-04-18T10:45:06.695Z</time></trkpt><trkpt lat="8.8823823" lon="-75.7744569"><ele>10.0</ele><time>2026-04-18T10:45:07.695Z</time></trkpt><trkpt lat="8.8824706" lon="-75.77443"><ele>10.0</ele><time>2026-04-18T10:45:08.695Z</time></trkpt><trkpt lat="8.8825605" lon="-75.7743921"><ele>10.0</ele><time>2026-04-18T10:45:09.696Z</time></trkpt><trkpt lat="8.8826462" lon="-75.7743585"><ele>10.0</ele><time>2026-04-18T10:45:10.696Z</time></trkpt><trkpt lat="8.8827294" lon="-75.7743193"><ele>10.0</ele><time>2026-04-18T10:45:11.696Z</time></trkpt><trkpt lat="8.882812" lon="-75.7742778"><ele>9.8</ele><time>2026-04-18T10:45:12.696Z</time></trkpt><trkpt lat="8.8828928" lon="-75.774232"><ele>9.6</ele><time>2026-04-18T10:45:13.696Z</time></trkpt><trkpt lat="8.8829717" lon="-75.7741836"><ele>9.4</ele><time>2026-04-18T10:45:14.695Z</time></trkpt><trkpt lat="8.8830498" lon="-75.7741353"><ele>9.2</ele><time>2026-04-18T10:45:15.696Z</time></trkpt><trkpt lat="8.8831228" lon="-75.774083"><ele>9.0</ele><time>2026-04-18T10:45:16.695Z</time></trkpt><trkpt lat="8.8831981" lon="-75.7740291"><ele>9.0</ele><time>2026-04-18T10:45:17.695Z</time></trkpt><trkpt lat="8.8832733" lon="-75.7739742"><ele>9.0</ele><time>2026-04-18T10:45:18.695Z</time></trkpt><trkpt lat="8.8833491" lon="-75.7739251"><ele>9.0</ele><time>2026-04-18T10:45:19.697Z</time></trkpt><trkpt lat="8.8834201" lon="-75.7738762"><ele>9.0</ele><time>2026-04-18T10:45:20.696Z</time></trkpt><trkpt lat="8.8834909" lon="-75.7738276"><ele>9.0</ele><time>2026-04-18T10:45:21.696Z</time></trkpt><trkpt lat="8.8835669" lon="-75.7737793"><ele>9.0</ele><time>2026-04-18T10:45:22.695Z</time></trkpt><trkpt lat="8.8836403" lon="-75.7737257"><ele>8.8</ele><time>2026-04-18T10:45:23.696Z</time></trkpt><trkpt lat="8.8837162" lon="-75.7736738"><ele>8.600000000000001</ele><time>2026-04-18T10:45:24.695Z</time></trkpt><trkpt lat="8.8837956" lon="-75.7736216"><ele>8.4</ele><time>2026-04-18T10:45:25.695Z</time></trkpt><trkpt lat="8.8838649" lon="-75.7735646"><ele>8.200000000000001</ele><time>2026-04-18T10:45:26.695Z</time></trkpt><trkpt lat="8.8839354" lon="-75.7735092"><ele>8.0</ele><time>2026-04-18T10:45:27.696Z</time></trkpt><trkpt lat="8.8840092" lon="-75.773452"><ele>8.200000000000001</ele><time>2026-04-18T10:45:28.696Z</time></trkpt><trkpt lat="8.884085" lon="-75.7734008"><ele>8.4</ele><time>2026-04-18T10:45:29.696Z</time></trkpt><trkpt lat="8.8841666" lon="-75.7733468"><ele>8.600000000000001</ele><time>2026-04-18T10:45:30.695Z</time></trkpt><trkpt lat="8.884242" lon="-75.7732894"><ele>8.8</ele><time>2026-04-18T10:45:31.695Z</time></trkpt><trkpt lat="8.8843249" lon="-75.773238"><ele>9.0</ele><time>2026-04-18T10:45:32.697Z</time></trkpt><trkpt lat="8.8844026" lon="-75.7731799"><ele>9.0</ele><time>2026-04-18T10:45:33.695Z</time></trkpt><trkpt lat="8.8844809" lon="-75.7731206"><ele>9.0</ele><time>2026-04-18T10:45:34.695Z</time></trkpt><trkpt lat="8.8845632" lon="-75.7730629"><ele>9.0</ele><time>2026-04-18T10:45:35.696Z</time></trkpt><trkpt lat="8.8846409" lon="-75.7729948"><ele>9.0</ele><time>2026-04-18T10:45:36.695Z</time></trkpt><trkpt lat="8.8847124" lon="-75.7729213"><ele>9.0</ele><time>2026-04-18T10:45:37.697Z</time></trkpt><trkpt lat="8.8847821" lon="-75.7728444"><ele>9.0</ele><time>2026-04-18T10:45:38.696Z</time></trkpt><trkpt lat="8.8848511" lon="-75.7727729"><ele>9.0</ele><time>2026-04-18T10:45:39.695Z</time></trkpt><trkpt lat="8.8849159" lon="-75.7726956"><ele>9.0</ele><time>2026-04-18T10:45:40.695Z</time></trkpt><trkpt lat="8.8849772" lon="-75.7726231"><ele>9.0</ele><time>2026-04-18T10:45:41.696Z</time></trkpt><trkpt lat="8.8850369" lon="-75.772545"><ele>9.0</ele><time>2026-04-18T10:45:42.694Z</time></trkpt><trkpt lat="8.8850931" lon="-75.772468"><ele>9.0</ele><time>2026-04-18T10:45:43.695Z</time></trkpt><trkpt lat="8.885143" lon="-75.7723924"><ele>9.0</ele><time>2026-04-18T10:45:44.695Z</time></trkpt><trkpt lat="8.8851937" lon="-75.7723122"><ele>9.0</ele><time>2026-04-18T10:45:45.696Z</time></trkpt><trkpt lat="8.885242" lon="-75.7722313"><ele>9.0</ele><time>2026-04-18T10:45:46.695Z</time></trkpt><trkpt lat="8.8852909" lon="-75.7721516"><ele>9.0</ele><time>2026-04-18T10:45:47.696Z</time></trkpt><trkpt lat="8.8853355" lon="-75.7720721"><ele>9.0</ele><time>2026-04-18T10:45:48.696Z</time></trkpt><trkpt lat="8.8853755" lon="-75.7719923"><ele>9.0</ele><time>2026-04-18T10:45:49.696Z</time></trkpt><trkpt lat="8.8854107" lon="-75.7719011"><ele>9.0</ele><time>2026-04-18T10:45:50.695Z</time></trkpt><trkpt lat="8.8854398" lon="-75.7718131"><ele>9.0</ele><time>2026-04-18T10:45:51.696Z</time></trkpt><trkpt lat="8.8854685" lon="-75.7717276"><ele>9.0</ele><time>2026-04-18T10:45:52.695Z</time></trkpt><trkpt lat="8.885493" lon="-75.7716404"><ele>8.833333333333334</ele><time>2026-04-18T10:45:53.697Z</time></trkpt><trkpt lat="8.8855134" lon="-75.7715504"><ele>8.666666666666666</ele><time>2026-04-18T10:45:54.695Z</time></trkpt><trkpt lat="8.8855313" lon="-75.7714622"><ele>8.5</ele><time>2026-04-18T10:45:55.696Z</time></trkpt><trkpt lat="8.8855477" lon="-75.7713711"><ele>8.333333333333332</ele><time>2026-04-18T10:45:56.696Z</time></trkpt><trkpt lat="8.8855631" lon="-75.771284"><ele>8.166666666666666</ele><time>2026-04-18T10:45:57.696Z</time></trkpt><trkpt lat="8.8855834" lon="-75.7711961"><ele>8.0</ele><time>2026-04-18T10:45:58.695Z</time></trkpt><trkpt lat="8.8855954" lon="-75.7711087"><ele>8.0</ele><time>2026-04-18T10:45:59.696Z</time></trkpt><trkpt lat="8.885613" lon="-75.771017"><ele>8.0</ele><time>2026-04-18T10:46:00.696Z</time></trkpt><trkpt lat="8.8856368" lon="-75.7709231"><ele>8.0</ele><time>2026-04-18T10:46:01.696Z</time></trkpt><trkpt lat="8.8856566" lon="-75.7708301"><ele>8.0</ele><time>2026-04-18T10:46:02.695Z</time></trkpt><trkpt lat="8.8856758" lon="-75.7707384"><ele>8.0</ele><time>2026-04-18T10:46:03.696Z</time></trkpt><trkpt lat="8.8856978" lon="-75.7706438"><ele>8.0</ele><time>2026-04-18T10:46:04.696Z</time></trkpt><trkpt lat="8.8857201" lon="-75.7705522"><ele>8.0</ele><time>2026-04-18T10:46:05.696Z</time></trkpt><trkpt lat="8.8857398" lon="-75.7704591"><ele>8.0</ele><time>2026-04-18T10:46:06.695Z</time></trkpt><trkpt lat="8.8857596" lon="-75.770364"><ele>8.0</ele><time>2026-04-18T10:46:07.696Z</time></trkpt><trkpt lat="8.8857816" lon="-75.7702702"><ele>8.0</ele><time>2026-04-18T10:46:08.695Z</time></trkpt><trkpt lat="8.8858035" lon="-75.7701842"><ele>8.600000000000001</ele><time>2026-04-18T10:46:09.695Z</time></trkpt><trkpt lat="8.8858218" lon="-75.7700954"><ele>9.200000000000001</ele><time>2026-04-18T10:46:10.695Z</time></trkpt><trkpt lat="8.8858396" lon="-75.7700083"><ele>9.8</ele><time>2026-04-18T10:46:11.696Z</time></trkpt><trkpt lat="8.8858575" lon="-75.7699181"><ele>10.4</ele><time>2026-04-18T10:46:12.696Z</time></trkpt><trkpt lat="8.8858771" lon="-75.7698277"><ele>11.0</ele><time>2026-04-18T10:46:13.695Z</time></trkpt><trkpt lat="8.8858946" lon="-75.7697319"><ele>11.0</ele><time>2026-04-18T10:46:14.696Z</time></trkpt><trkpt lat="8.8859177" lon="-75.7696389"><ele>11.0</ele><time>2026-04-18T10:46:15.696Z</time></trkpt><trkpt lat="8.8859409" lon="-75.7695479"><ele>11.0</ele><time>2026-04-18T10:46:16.696Z</time></trkpt><trkpt lat="8.8859617" lon="-75.7694577"><ele>11.0</ele><time>2026-04-18T10:46:17.695Z</time></trkpt><trkpt lat="8.8859841" lon="-75.7693636"><ele>11.0</ele><time>2026-04-18T10:46:18.695Z</time></trkpt><trkpt lat="8.8860031" lon="-75.7692722"><ele>11.0</ele><time>2026-04-18T10:46:19.697Z</time></trkpt><trkpt lat="8.8860247" lon="-75.7691783"><ele>11.0</ele><time>2026-04-18T10:46:20.696Z</time></trkpt><trkpt lat="8.8860419" lon="-75.7690882"><ele>11.0</ele><time>2026-04-18T10:46:21.696Z</time></trkpt><trkpt lat="8.8860639" lon="-75.768997"><ele>11.0</ele><time>2026-04-18T10:46:22.695Z</time></trkpt><trkpt lat="8.8860844" lon="-75.7689058"><ele>11.0</ele><time>2026-04-18T10:46:23.696Z</time></trkpt><trkpt lat="8.886101" lon="-75.7688173"><ele>11.0</ele><time>2026-04-18T10:46:24.695Z</time></trkpt><trkpt lat="8.8861228" lon="-75.7687307"><ele>11.0</ele><time>2026-04-18T10:46:25.696Z</time></trkpt><trkpt lat="8.8861413" lon="-75.7686451"><ele>11.0</ele><time>2026-04-18T10:46:26.696Z</time></trkpt><trkpt lat="8.8861607" lon="-75.7685563"><ele>11.0</ele><time>2026-04-18T10:46:27.695Z</time></trkpt><trkpt lat="8.8861794" lon="-75.7684669"><ele>11.0</ele><time>2026-04-18T10:46:28.696Z</time></trkpt><trkpt lat="8.8861936" lon="-75.7683756"><ele>11.0</ele><time>2026-04-18T10:46:29.696Z</time></trkpt><trkpt lat="8.8862098" lon="-75.7682874"><ele>10.8</ele><time>2026-04-18T10:46:30.695Z</time></trkpt><trkpt lat="8.886231" lon="-75.7681995"><ele>10.600000000000001</ele><time>2026-04-18T10:46:31.696Z</time></trkpt><trkpt lat="8.8862502" lon="-75.7681073"><ele>10.4</ele><time>2026-04-18T10:46:32.695Z</time></trkpt><trkpt lat="8.8862657" lon="-75.7680159"><ele>10.2</ele><time>2026-04-18T10:46:33.695Z</time></trkpt><trkpt lat="8.8862854" lon="-75.7679192"><ele>10.0</ele><time>2026-04-18T10:46:34.696Z</time></trkpt><trkpt lat="8.8863031" lon="-75.7678256"><ele>10.0</ele><time>2026-04-18T10:46:35.696Z</time></trkpt><trkpt lat="8.8863251" lon="-75.7677281"><ele>10.0</ele><time>2026-04-18T10:46:36.697Z</time></trkpt><trkpt lat="8.8863443" lon="-75.7676337"><ele>10.0</ele><time>2026-04-18T10:46:37.696Z</time></trkpt><trkpt lat="8.8863634" lon="-75.7675372"><ele>10.0</ele><time>2026-04-18T10:46:38.695Z</time></trkpt><trkpt lat="8.886383" lon="-75.767443"><ele>10.0</ele><time>2026-04-18T10:46:39.696Z</time></trkpt><trkpt lat="8.8864036" lon="-75.7673519"><ele>10.0</ele><time>2026-04-18T10:46:40.696Z</time></trkpt><trkpt lat="8.8864215" lon="-75.7672632"><ele>10.0</ele><time>2026-04-18T10:46:41.696Z</time></trkpt><trkpt lat="8.8864353" lon="-75.7671748"><ele>10.0</ele><time>2026-04-18T10:46:42.696Z</time></trkpt><trkpt lat="8.8864494" lon="-75.7670841"><ele>10.0</ele><time>2026-04-18T10:46:43.695Z</time></trkpt><trkpt lat="8.8864654" lon="-75.7669991"><ele>10.0</ele><time>2026-04-18T10:46:44.695Z</time></trkpt><trkpt lat="8.8864804" lon="-75.766915"><ele>10.0</ele><time>2026-04-18T10:46:45.695Z</time></trkpt><trkpt lat="8.8864959" lon="-75.7668281"><ele>10.0</ele><time>2026-04-18T10:46:46.695Z</time></trkpt><trkpt lat="8.8865085" lon="-75.7667401"><ele>10.0</ele><time>2026-04-18T10:46:47.696Z</time></trkpt><trkpt lat="8.8865278" lon="-75.7666492"><ele>10.0</ele><time>2026-04-18T10:46:48.695Z</time></trkpt><trkpt lat="8.8865313" lon="-75.7665574"><ele>10.0</ele><time>2026-04-18T10:46:49.696Z</time></trkpt><trkpt lat="8.8865488" lon="-75.7664641"><ele>10.0</ele><time>2026-04-18T10:46:50.694Z</time></trkpt><trkpt lat="8.8865675" lon="-75.7663737"><ele>10.0</ele><time>2026-04-18T10:46:51.695Z</time></trkpt><trkpt lat="8.8865853" lon="-75.7662838"><ele>10.0</ele><time>2026-04-18T10:46:52.696Z</time></trkpt><trkpt lat="8.8866051" lon="-75.7661925"><ele>10.0</ele><time>2026-04-18T10:46:53.695Z</time></trkpt><trkpt lat="8.8866242" lon="-75.7661032"><ele>10.0</ele><time>2026-04-18T10:46:54.696Z</time></trkpt><trkpt lat="8.8866465" lon="-75.7660149"><ele>10.0</ele><time>2026-04-18T10:46:55.695Z</time></trkpt><trkpt lat="8.8866668" lon="-75.7659236"><ele>10.6</ele><time>2026-04-18T10:46:56.695Z</time></trkpt><trkpt lat="8.8866834" lon="-75.765833"><ele>11.2</ele><time>2026-04-18T10:46:57.695Z</time></trkpt><trkpt lat="8.8867009" lon="-75.7657405"><ele>11.8</ele><time>2026-04-18T10:46:58.695Z</time></trkpt><trkpt lat="8.8867208" lon="-75.7656484"><ele>12.4</ele><time>2026-04-18T10:46:59.694Z</time></trkpt><trkpt lat="8.8867389" lon="-75.7655591"><ele>13.0</ele><time>2026-04-18T10:47:00.696Z</time></trkpt><trkpt lat="8.8867572" lon="-75.7654696"><ele>12.600000000000001</ele><time>2026-04-18T10:47:01.695Z</time></trkpt><trkpt lat="8.8867733" lon="-75.7653794"><ele>12.200000000000001</ele><time>2026-04-18T10:47:02.696Z</time></trkpt><trkpt lat="8.8867903" lon="-75.7652892"><ele>11.8</ele><time>2026-04-18T10:47:03.695Z</time></trkpt><trkpt lat="8.8868096" lon="-75.7651979"><ele>11.4</ele><time>2026-04-18T10:47:04.695Z</time></trkpt><trkpt lat="8.8868273" lon="-75.7651056"><ele>11.0</ele><time>2026-04-18T10:47:05.695Z</time></trkpt><trkpt lat="8.8868446" lon="-75.7650175"><ele>10.8</ele><time>2026-04-18T10:47:06.696Z</time></trkpt><trkpt lat="8.8868601" lon="-75.7649252"><ele>10.600000000000001</ele><time>2026-04-18T10:47:07.696Z</time></trkpt><trkpt lat="8.8868766" lon="-75.7648378"><ele>10.4</ele><time>2026-04-18T10:47:08.695Z</time></trkpt><trkpt lat="8.8868919" lon="-75.764748"><ele>10.2</ele><time>2026-04-18T10:47:09.695Z</time></trkpt><trkpt lat="8.8869082" lon="-75.7646561"><ele>10.0</ele><time>2026-04-18T10:47:10.695Z</time></trkpt><trkpt lat="8.8869234" lon="-75.7645661"><ele>10.0</ele><time>2026-04-18T10:47:11.695Z</time></trkpt><trkpt lat="8.8869405" lon="-75.7644789"><ele>10.0</ele><time>2026-04-18T10:47:12.696Z</time></trkpt><trkpt lat="8.8869554" lon="-75.7643887"><ele>10.0</ele><time>2026-04-18T10:47:13.695Z</time></trkpt><trkpt lat="8.8869701" lon="-75.7642977"><ele>10.0</ele><time>2026-04-18T10:47:14.695Z</time></trkpt><trkpt lat="8.8869808" lon="-75.7642046"><ele>10.0</ele><time>2026-04-18T10:47:15.695Z</time></trkpt><trkpt lat="8.8869908" lon="-75.7641136"><ele>10.0</ele><time>2026-04-18T10:47:16.695Z</time></trkpt><trkpt lat="8.8869926" lon="-75.7640223"><ele>10.0</ele><time>2026-04-18T10:47:17.696Z</time></trkpt><trkpt lat="8.886994" lon="-75.7639306"><ele>10.0</ele><time>2026-04-18T10:47:18.696Z</time></trkpt><trkpt lat="8.8869905" lon="-75.7638441"><ele>10.0</ele><time>2026-04-18T10:47:19.695Z</time></trkpt><trkpt lat="8.8869884" lon="-75.763756"><ele>10.0</ele><time>2026-04-18T10:47:20.696Z</time></trkpt><trkpt lat="8.8869804" lon="-75.7636676"><ele>10.0</ele><time>2026-04-18T10:47:21.695Z</time></trkpt><trkpt lat="8.8869726" lon="-75.7635848"><ele>10.333333333333334</ele><time>2026-04-18T10:47:22.695Z</time></trkpt><trkpt lat="8.8869693" lon="-75.7635077"><ele>10.666666666666668</ele><time>2026-04-18T10:47:23.695Z</time></trkpt><trkpt lat="8.8869615" lon="-75.7634276"><ele>11.0</ele><time>2026-04-18T10:47:24.696Z</time></trkpt><trkpt lat="8.8869573" lon="-75.763351"><ele>11.333333333333334</ele><time>2026-04-18T10:47:25.696Z</time></trkpt><trkpt lat="8.8869485" lon="-75.763275"><ele>11.666666666666666</ele><time>2026-04-18T10:47:26.694Z</time></trkpt><trkpt lat="8.8869329" lon="-75.7632045"><ele>12.0</ele><time>2026-04-18T10:47:27.696Z</time></trkpt><trkpt lat="8.8869123" lon="-75.7631323"><ele>12.0</ele><time>2026-04-18T10:47:28.694Z</time></trkpt><trkpt lat="8.886874" lon="-75.7630597"><ele>12.0</ele><time>2026-04-18T10:47:29.694Z</time></trkpt><trkpt lat="8.8868312" lon="-75.7629893"><ele>12.0</ele><time>2026-04-18T10:47:30.695Z</time></trkpt><trkpt lat="8.8867839" lon="-75.7629329"><ele>12.0</ele><time>2026-04-18T10:47:31.696Z</time></trkpt><trkpt lat="8.8867299" lon="-75.7628814"><ele>12.0</ele><time>2026-04-18T10:47:32.696Z</time></trkpt><trkpt lat="8.8866672" lon="-75.7628377"><ele>12.0</ele><time>2026-04-18T10:47:33.695Z</time></trkpt><trkpt lat="8.8865964" lon="-75.7628042"><ele>11.666666666666666</ele><time>2026-04-18T10:47:34.695Z</time></trkpt><trkpt lat="8.8865235" lon="-75.7627847"><ele>11.333333333333334</ele><time>2026-04-18T10:47:35.695Z</time></trkpt><trkpt lat="8.8864462" lon="-75.7627738"><ele>11.0</ele><time>2026-04-18T10:47:36.695Z</time></trkpt><trkpt lat="8.8863687" lon="-75.7627721"><ele>10.666666666666668</ele><time>2026-04-18T10:47:37.696Z</time></trkpt><trkpt lat="8.8862909" lon="-75.7627834"><ele>10.333333333333334</ele><time>2026-04-18T10:47:38.695Z</time></trkpt><trkpt lat="8.8862141" lon="-75.762809"><ele>10.0</ele><time>2026-04-18T10:47:39.697Z</time></trkpt><trkpt lat="8.8861374" lon="-75.7628425"><ele>10.0</ele><time>2026-04-18T10:47:40.695Z</time></trkpt><trkpt lat="8.8860676" lon="-75.7628852"><ele>10.0</ele><time>2026-04-18T10:47:41.695Z</time></trkpt><trkpt lat="8.8860074" lon="-75.7629365"><ele>10.0</ele><time>2026-04-18T10:47:42.695Z</time></trkpt><trkpt lat="8.8859549" lon="-75.7630017"><ele>10.0</ele><time>2026-04-18T10:47:43.695Z</time></trkpt><trkpt lat="8.8859149" lon="-75.7630701"><ele>10.0</ele><time>2026-04-18T10:47:44.695Z</time></trkpt><trkpt lat="8.8858831" lon="-75.7631478"><ele>10.0</ele><time>2026-04-18T10:47:45.696Z</time></trkpt><trkpt lat="8.8858646" lon="-75.7632291"><ele>10.0</ele><time>2026-04-18T10:47:46.695Z</time></trkpt><trkpt lat="8.8858588" lon="-75.7633125"><ele>10.0</ele><time>2026-04-18T10:47:47.695Z</time></trkpt><trkpt lat="8.8858643" lon="-75.7633958"><ele>10.0</ele><time>2026-04-18T10:47:48.695Z</time></trkpt><trkpt lat="8.8858817" lon="-75.7634774"><ele>10.0</ele><time>2026-04-18T10:47:49.695Z</time></trkpt><trkpt lat="8.8859145" lon="-75.7635578"><ele>10.0</ele><time>2026-04-18T10:47:50.696Z</time></trkpt><trkpt lat="8.8859549" lon="-75.7636301"><ele>10.0</ele><time>2026-04-18T10:47:51.696Z</time></trkpt><trkpt lat="8.885998" lon="-75.7636913"><ele>10.0</ele><time>2026-04-18T10:47:52.695Z</time></trkpt><trkpt lat="8.8860443" lon="-75.7637502"><ele>10.0</ele><time>2026-04-18T10:47:53.695Z</time></trkpt><trkpt lat="8.8860956" lon="-75.7638106"><ele>10.0</ele><time>2026-04-18T10:47:54.696Z</time></trkpt><trkpt lat="8.8861454" lon="-75.7638687"><ele>10.0</ele><time>2026-04-18T10:47:55.695Z</time></trkpt><trkpt lat="8.8861921" lon="-75.7639224"><ele>10.0</ele><time>2026-04-18T10:47:56.696Z</time></trkpt><trkpt lat="8.8862389" lon="-75.7639756"><ele>10.0</ele><time>2026-04-18T10:47:57.694Z</time></trkpt><trkpt lat="8.8862874" lon="-75.7640231"><ele>10.0</ele><time>2026-04-18T10:47:58.695Z</time></trkpt><trkpt lat="8.8863312" lon="-75.7640772"><ele>10.0</ele><time>2026-04-18T10:47:59.695Z</time></trkpt><trkpt lat="8.886377" lon="-75.7641228"><ele>10.0</ele><time>2026-04-18T10:48:00.697Z</time></trkpt><trkpt lat="8.8864676" lon="-75.7642149"><ele>10.0</ele><time>2026-04-18T10:48:02.695Z</time></trkpt><trkpt lat="8.8865466" lon="-75.7643108"><ele>10.0</ele><time>2026-04-18T10:48:04.694Z</time></trkpt><trkpt lat="8.886625" lon="-75.7643896"><ele>10.0</ele><time>2026-04-18T10:48:06.695Z</time></trkpt><trkpt lat="8.8867009" lon="-75.7644729"><ele>10.0</ele><time>2026-04-18T10:48:08.696Z</time></trkpt><trkpt lat="8.8867785" lon="-75.7645655"><ele>10.0</ele><time>2026-04-18T10:48:10.697Z</time></trkpt><trkpt lat="8.8868475" lon="-75.7646389"><ele>10.0</ele><time>2026-04-18T10:48:12.695Z</time></trkpt><trkpt lat="8.8869216" lon="-75.7647148"><ele>10.0</ele><time>2026-04-18T10:48:14.697Z</time></trkpt><trkpt lat="8.887004" lon="-75.7647916"><ele>10.0</ele><time>2026-04-18T10:48:16.696Z</time></trkpt><trkpt lat="8.8870849" lon="-75.7648801"><ele>10.0</ele><time>2026-04-18T10:48:18.697Z</time></trkpt><trkpt lat="8.8871294" lon="-75.7649271"><ele>10.0</ele><time>2026-04-18T10:48:19.696Z</time></trkpt><trkpt lat="8.8871734" lon="-75.7649755"><ele>10.0</ele><time>2026-04-18T10:48:20.696Z</time></trkpt><trkpt lat="8.8872185" lon="-75.7650298"><ele>10.0</ele><time>2026-04-18T10:48:21.695Z</time></trkpt><trkpt lat="8.8872688" lon="-75.7650832"><ele>10.0</ele><time>2026-04-18T10:48:22.695Z</time></trkpt><trkpt lat="8.8873179" lon="-75.7651381"><ele>10.0</ele><time>2026-04-18T10:48:23.695Z</time></trkpt><trkpt lat="8.8873747" lon="-75.7651992"><ele>10.0</ele><time>2026-04-18T10:48:24.695Z</time></trkpt><trkpt lat="8.8874319" lon="-75.7652589"><ele>10.2</ele><time>2026-04-18T10:48:25.695Z</time></trkpt><trkpt lat="8.8874903" lon="-75.7653222"><ele>10.4</ele><time>2026-04-18T10:48:26.697Z</time></trkpt><trkpt lat="8.8875506" lon="-75.7653897"><ele>10.600000000000001</ele><time>2026-04-18T10:48:27.695Z</time></trkpt><trkpt lat="8.8876137" lon="-75.7654617"><ele>10.8</ele><time>2026-04-18T10:48:28.696Z</time></trkpt><trkpt lat="8.8876744" lon="-75.7655311"><ele>11.0</ele><time>2026-04-18T10:48:29.696Z</time></trkpt><trkpt lat="8.8877364" lon="-75.7656052"><ele>11.0</ele><time>2026-04-18T10:48:30.695Z</time></trkpt><trkpt lat="8.8878013" lon="-75.765674"><ele>11.0</ele><time>2026-04-18T10:48:31.696Z</time></trkpt><trkpt lat="8.88787" lon="-75.7657449"><ele>11.0</ele><time>2026-04-18T10:48:32.696Z</time></trkpt><trkpt lat="8.8879347" lon="-75.7658126"><ele>11.0</ele><time>2026-04-18T10:48:33.695Z</time></trkpt><trkpt lat="8.8879997" lon="-75.765886"><ele>11.0</ele><time>2026-04-18T10:48:34.695Z</time></trkpt><trkpt lat="8.8880643" lon="-75.7659598"><ele>10.8</ele><time>2026-04-18T10:48:35.696Z</time></trkpt><trkpt lat="8.8881268" lon="-75.7660296"><ele>10.600000000000001</ele><time>2026-04-18T10:48:36.696Z</time></trkpt><trkpt lat="8.8881883" lon="-75.7660984"><ele>10.4</ele><time>2026-04-18T10:48:37.696Z</time></trkpt><trkpt lat="8.8882496" lon="-75.766168"><ele>10.2</ele><time>2026-04-18T10:48:38.695Z</time></trkpt><trkpt lat="8.8883143" lon="-75.7662325"><ele>10.0</ele><time>2026-04-18T10:48:39.695Z</time></trkpt><trkpt lat="8.8883757" lon="-75.7663013"><ele>10.0</ele><time>2026-04-18T10:48:40.696Z</time></trkpt><trkpt lat="8.8884358" lon="-75.7663703"><ele>10.0</ele><time>2026-04-18T10:48:41.695Z</time></trkpt><trkpt lat="8.8884946" lon="-75.7664344"><ele>10.0</ele><time>2026-04-18T10:48:42.695Z</time></trkpt><trkpt lat="8.8885519" lon="-75.7664961"><ele>10.0</ele><time>2026-04-18T10:48:43.695Z</time></trkpt><trkpt lat="8.8886104" lon="-75.7665591"><ele>10.0</ele><time>2026-04-18T10:48:44.694Z</time></trkpt><trkpt lat="8.8886675" lon="-75.7666186"><ele>10.0</ele><time>2026-04-18T10:48:45.695Z</time></trkpt><trkpt lat="8.8887235" lon="-75.7666811"><ele>10.0</ele><time>2026-04-18T10:48:46.695Z</time></trkpt><trkpt lat="8.8887797" lon="-75.7667405"><ele>10.0</ele><time>2026-04-18T10:48:47.695Z</time></trkpt><trkpt lat="8.8888358" lon="-75.7668027"><ele>10.0</ele><time>2026-04-18T10:48:48.695Z</time></trkpt><trkpt lat="8.8888909" lon="-75.7668664"><ele>10.0</ele><time>2026-04-18T10:48:49.696Z</time></trkpt><trkpt lat="8.8889549" lon="-75.7669291"><ele>10.0</ele><time>2026-04-18T10:48:50.696Z</time></trkpt><trkpt lat="8.8890113" lon="-75.766993"><ele>10.0</ele><time>2026-04-18T10:48:51.696Z</time></trkpt><trkpt lat="8.8890681" lon="-75.7670564"><ele>10.0</ele><time>2026-04-18T10:48:52.696Z</time></trkpt><trkpt lat="8.8891296" lon="-75.7671199"><ele>10.0</ele><time>2026-04-18T10:48:53.695Z</time></trkpt><trkpt lat="8.8891849" lon="-75.7671842"><ele>10.0</ele><time>2026-04-18T10:48:54.695Z</time></trkpt><trkpt lat="8.8892437" lon="-75.7672481"><ele>10.0</ele><time>2026-04-18T10:48:55.695Z</time></trkpt><trkpt lat="8.8893018" lon="-75.7673096"><ele>10.0</ele><time>2026-04-18T10:48:56.696Z</time></trkpt><trkpt lat="8.8893636" lon="-75.7673731"><ele>10.0</ele><time>2026-04-18T10:48:57.695Z</time></trkpt><trkpt lat="8.8894224" lon="-75.7674334"><ele>10.0</ele><time>2026-04-18T10:48:58.695Z</time></trkpt><trkpt lat="8.889479" lon="-75.7674982"><ele>10.0</ele><time>2026-04-18T10:48:59.696Z</time></trkpt><trkpt lat="8.8895341" lon="-75.7675652"><ele>10.0</ele><time>2026-04-18T10:49:00.696Z</time></trkpt><trkpt lat="8.8895928" lon="-75.7676275"><ele>10.0</ele><time>2026-04-18T10:49:01.696Z</time></trkpt><trkpt lat="8.8896477" lon="-75.7676894"><ele>10.0</ele><time>2026-04-18T10:49:02.695Z</time></trkpt><trkpt lat="8.8897022" lon="-75.7677538"><ele>10.0</ele><time>2026-04-18T10:49:03.696Z</time></trkpt><trkpt lat="8.8897587" lon="-75.7678198"><ele>10.0</ele><time>2026-04-18T10:49:04.696Z</time></trkpt><trkpt lat="8.8898156" lon="-75.7678864"><ele>10.0</ele><time>2026-04-18T10:49:05.695Z</time></trkpt><trkpt lat="8.8898712" lon="-75.7679518"><ele>10.0</ele><time>2026-04-18T10:49:06.697Z</time></trkpt><trkpt lat="8.8899281" lon="-75.7680179"><ele>10.0</ele><time>2026-04-18T10:49:07.696Z</time></trkpt><trkpt lat="8.8899843" lon="-75.7680784"><ele>10.0</ele><time>2026-04-18T10:49:08.694Z</time></trkpt><trkpt lat="8.8900404" lon="-75.7681431"><ele>10.0</ele><time>2026-04-18T10:49:09.696Z</time></trkpt><trkpt lat="8.8900921" lon="-75.7682042"><ele>10.0</ele><time>2026-04-18T10:49:10.695Z</time></trkpt><trkpt lat="8.8901474" lon="-75.7682714"><ele>10.0</ele><time>2026-04-18T10:49:11.695Z</time></trkpt><trkpt lat="8.8902022" lon="-75.7683369"><ele>10.0</ele><time>2026-04-18T10:49:12.695Z</time></trkpt><trkpt lat="8.8902586" lon="-75.768402"><ele>10.0</ele><time>2026-04-18T10:49:13.696Z</time></trkpt><trkpt lat="8.8903128" lon="-75.7684678"><ele>10.0</ele><time>2026-04-18T10:49:14.696Z</time></trkpt><trkpt lat="8.8903671" lon="-75.7685414"><ele>10.0</ele><time>2026-04-18T10:49:15.695Z</time></trkpt><trkpt lat="8.8904211" lon="-75.7686062"><ele>10.166666666666668</ele><time>2026-04-18T10:49:16.696Z</time></trkpt><trkpt lat="8.8904777" lon="-75.7686714"><ele>10.333333333333334</ele><time>2026-04-18T10:49:17.696Z</time></trkpt><trkpt lat="8.8905336" lon="-75.7687365"><ele>10.5</ele><time>2026-04-18T10:49:18.695Z</time></trkpt><trkpt lat="8.8905873" lon="-75.7688038"><ele>10.666666666666666</ele><time>2026-04-18T10:49:19.696Z</time></trkpt><trkpt lat="8.8906419" lon="-75.7688683"><ele>10.833333333333332</ele><time>2026-04-18T10:49:20.695Z</time></trkpt><trkpt lat="8.8906971" lon="-75.7689356"><ele>11.0</ele><time>2026-04-18T10:49:21.695Z</time></trkpt><trkpt lat="8.8907484" lon="-75.7690004"><ele>11.0</ele><time>2026-04-18T10:49:22.696Z</time></trkpt><trkpt lat="8.8907996" lon="-75.769061"><ele>11.0</ele><time>2026-04-18T10:49:23.695Z</time></trkpt><trkpt lat="8.8908507" lon="-75.7691213"><ele>11.0</ele><time>2026-04-18T10:49:24.695Z</time></trkpt><trkpt lat="8.8909002" lon="-75.7691789"><ele>11.0</ele><time>2026-04-18T10:49:25.694Z</time></trkpt><trkpt lat="8.8909521" lon="-75.7692397"><ele>11.0</ele><time>2026-04-18T10:49:26.695Z</time></trkpt><trkpt lat="8.8910034" lon="-75.7693008"><ele>11.0</ele><time>2026-04-18T10:49:27.696Z</time></trkpt><trkpt lat="8.891055" lon="-75.7693655"><ele>10.666666666666666</ele><time>2026-04-18T10:49:28.696Z</time></trkpt><trkpt lat="8.8911107" lon="-75.7694341"><ele>10.333333333333332</ele><time>2026-04-18T10:49:29.696Z</time></trkpt><trkpt lat="8.891167" lon="-75.769506"><ele>10.0</ele><time>2026-04-18T10:49:30.695Z</time></trkpt><trkpt lat="8.8912225" lon="-75.7695726"><ele>9.666666666666666</ele><time>2026-04-18T10:49:31.695Z</time></trkpt><trkpt lat="8.8912771" lon="-75.7696404"><ele>9.333333333333334</ele><time>2026-04-18T10:49:32.695Z</time></trkpt><trkpt lat="8.8913279" lon="-75.76971"><ele>9.0</ele><time>2026-04-18T10:49:33.695Z</time></trkpt><trkpt lat="8.8913791" lon="-75.7697763"><ele>9.0</ele><time>2026-04-18T10:49:34.696Z</time></trkpt><trkpt lat="8.8914316" lon="-75.769845"><ele>9.0</ele><time>2026-04-18T10:49:35.695Z</time></trkpt><trkpt lat="8.8914806" lon="-75.7699129"><ele>9.0</ele><time>2026-04-18T10:49:36.695Z</time></trkpt><trkpt lat="8.8915327" lon="-75.7699814"><ele>9.0</ele><time>2026-04-18T10:49:37.696Z</time></trkpt><trkpt lat="8.8915833" lon="-75.7700524"><ele>9.0</ele><time>2026-04-18T10:49:38.696Z</time></trkpt><trkpt lat="8.891634" lon="-75.7701231"><ele>9.0</ele><time>2026-04-18T10:49:39.695Z</time></trkpt><trkpt lat="8.8916895" lon="-75.7701884"><ele>8.833333333333334</ele><time>2026-04-18T10:49:40.695Z</time></trkpt><trkpt lat="8.8917412" lon="-75.7702559"><ele>8.666666666666666</ele><time>2026-04-18T10:49:41.696Z</time></trkpt><trkpt lat="8.8917924" lon="-75.7703239"><ele>8.5</ele><time>2026-04-18T10:49:42.696Z</time></trkpt><trkpt lat="8.8918466" lon="-75.7703889"><ele>8.333333333333332</ele><time>2026-04-18T10:49:43.694Z</time></trkpt><trkpt lat="8.8918986" lon="-75.7704608"><ele>8.166666666666666</ele><time>2026-04-18T10:49:44.695Z</time></trkpt><trkpt lat="8.8919492" lon="-75.7705273"><ele>8.0</ele><time>2026-04-18T10:49:45.694Z</time></trkpt><trkpt lat="8.891999" lon="-75.7705936"><ele>7.833333333333333</ele><time>2026-04-18T10:49:46.694Z</time></trkpt><trkpt lat="8.8920496" lon="-75.7706627"><ele>7.666666666666666</ele><time>2026-04-18T10:49:47.695Z</time></trkpt><trkpt lat="8.8921022" lon="-75.7707278"><ele>7.5</ele><time>2026-04-18T10:49:48.695Z</time></trkpt><trkpt lat="8.8921557" lon="-75.7707948"><ele>7.333333333333334</ele><time>2026-04-18T10:49:49.694Z</time></trkpt><trkpt lat="8.8922056" lon="-75.770862"><ele>7.166666666666667</ele><time>2026-04-18T10:49:50.696Z</time></trkpt><trkpt lat="8.8922571" lon="-75.7709271"><ele>7.0</ele><time>2026-04-18T10:49:51.695Z</time></trkpt><trkpt lat="8.8923063" lon="-75.7709942"><ele>7.000000000000001</ele><time>2026-04-18T10:49:52.695Z</time></trkpt><trkpt lat="8.8923601" lon="-75.7710661"><ele>7.0</ele><time>2026-04-18T10:49:53.695Z</time></trkpt><trkpt lat="8.892413" lon="-75.771128"><ele>7.0</ele><time>2026-04-18T10:49:54.697Z</time></trkpt><trkpt lat="8.8924689" lon="-75.771199"><ele>7.0</ele><time>2026-04-18T10:49:55.695Z</time></trkpt><trkpt lat="8.8925196" lon="-75.7712753"><ele>7.000000000000001</ele><time>2026-04-18T10:49:56.695Z</time></trkpt><trkpt lat="8.892573" lon="-75.7713457"><ele>7.0</ele><time>2026-04-18T10:49:57.694Z</time></trkpt><trkpt lat="8.8926213" lon="-75.7714183"><ele>7.000000000000001</ele><time>2026-04-18T10:49:58.695Z</time></trkpt><trkpt lat="8.8926749" lon="-75.771487"><ele>7.0</ele><time>2026-04-18T10:49:59.694Z</time></trkpt><trkpt lat="8.8927336" lon="-75.7715567"><ele>7.0</ele><time>2026-04-18T10:50:00.695Z</time></trkpt><trkpt lat="8.8927882" lon="-75.7716261"><ele>7.0</ele><time>2026-04-18T10:50:01.695Z</time></trkpt><trkpt lat="8.8928431" lon="-75.7716978"><ele>7.000000000000001</ele><time>2026-04-18T10:50:02.695Z</time></trkpt><trkpt lat="8.8928943" lon="-75.7717657"><ele>7.0</ele><time>2026-04-18T10:50:03.696Z</time></trkpt><trkpt lat="8.8929482" lon="-75.7718368"><ele>7.166666666666667</ele><time>2026-04-18T10:50:04.695Z</time></trkpt><trkpt lat="8.8930021" lon="-75.7719015"><ele>7.333333333333334</ele><time>2026-04-18T10:50:05.695Z</time></trkpt><trkpt lat="8.8930525" lon="-75.7719706"><ele>7.5</ele><time>2026-04-18T10:50:06.695Z</time></trkpt><trkpt lat="8.8931066" lon="-75.7720383"><ele>7.666666666666666</ele><time>2026-04-18T10:50:07.696Z</time></trkpt><trkpt lat="8.8931605" lon="-75.7721072"><ele>7.833333333333333</ele><time>2026-04-18T10:50:08.697Z</time></trkpt><trkpt lat="8.8932125" lon="-75.7721765"><ele>8.0</ele><time>2026-04-18T10:50:09.695Z</time></trkpt><trkpt lat="8.8932629" lon="-75.7722476"><ele>7.999999999999999</ele><time>2026-04-18T10:50:10.695Z</time></trkpt><trkpt lat="8.8933158" lon="-75.7723154"><ele>8.0</ele><time>2026-04-18T10:50:11.695Z</time></trkpt><trkpt lat="8.8933685" lon="-75.7723844"><ele>8.0</ele><time>2026-04-18T10:50:12.695Z</time></trkpt><trkpt lat="8.8934212" lon="-75.7724524"><ele>8.0</ele><time>2026-04-18T10:50:13.696Z</time></trkpt><trkpt lat="8.8934735" lon="-75.7725224"><ele>7.999999999999999</ele><time>2026-04-18T10:50:14.696Z</time></trkpt><trkpt lat="8.8935228" lon="-75.7725923"><ele>8.0</ele><time>2026-04-18T10:50:15.695Z</time></trkpt><trkpt lat="8.893577" lon="-75.7726602"><ele>7.999999999999999</ele><time>2026-04-18T10:50:16.695Z</time></trkpt><trkpt lat="8.8936268" lon="-75.7727301"><ele>8.0</ele><time>2026-04-18T10:50:17.695Z</time></trkpt><trkpt lat="8.8936751" lon="-75.7728009"><ele>8.0</ele><time>2026-04-18T10:50:18.697Z</time></trkpt><trkpt lat="8.8937258" lon="-75.7728744"><ele>8.0</ele><time>2026-04-18T10:50:19.695Z</time></trkpt><trkpt lat="8.8937769" lon="-75.7729402"><ele>7.999999999999999</ele><time>2026-04-18T10:50:20.695Z</time></trkpt><trkpt lat="8.8938335" lon="-75.7730078"><ele>8.0</ele><time>2026-04-18T10:50:21.695Z</time></trkpt><trkpt lat="8.8938883" lon="-75.7730804"><ele>8.0</ele><time>2026-04-18T10:50:22.696Z</time></trkpt><trkpt lat="8.8939416" lon="-75.7731581"><ele>8.0</ele><time>2026-04-18T10:50:23.695Z</time></trkpt><trkpt lat="8.8939948" lon="-75.7732395"><ele>8.0</ele><time>2026-04-18T10:50:24.695Z</time></trkpt><trkpt lat="8.8940506" lon="-75.7733204"><ele>8.0</ele><time>2026-04-18T10:50:25.695Z</time></trkpt><trkpt lat="8.8941077" lon="-75.7734033"><ele>8.0</ele><time>2026-04-18T10:50:26.695Z</time></trkpt><trkpt lat="8.8941677" lon="-75.7734852"><ele>8.200000000000001</ele><time>2026-04-18T10:50:27.695Z</time></trkpt><trkpt lat="8.8942279" lon="-75.7735624"><ele>8.4</ele><time>2026-04-18T10:50:28.695Z</time></trkpt><trkpt lat="8.8942873" lon="-75.7736471"><ele>8.600000000000001</ele><time>2026-04-18T10:50:29.696Z</time></trkpt><trkpt lat="8.8943414" lon="-75.7737247"><ele>8.8</ele><time>2026-04-18T10:50:30.695Z</time></trkpt><trkpt lat="8.8943938" lon="-75.7738071"><ele>9.0</ele><time>2026-04-18T10:50:31.695Z</time></trkpt><trkpt lat="8.8944508" lon="-75.7738889"><ele>8.6</ele><time>2026-04-18T10:50:32.696Z</time></trkpt><trkpt lat="8.8945059" lon="-75.7739689"><ele>8.2</ele><time>2026-04-18T10:50:33.695Z</time></trkpt><trkpt lat="8.8945628" lon="-75.7740474"><ele>7.799999999999999</ele><time>2026-04-18T10:50:34.695Z</time></trkpt><trkpt lat="8.8946172" lon="-75.7741293"><ele>7.3999999999999995</ele><time>2026-04-18T10:50:35.695Z</time></trkpt><trkpt lat="8.8946714" lon="-75.7742141"><ele>7.0</ele><time>2026-04-18T10:50:36.696Z</time></trkpt><trkpt lat="8.8947261" lon="-75.7742993"><ele>7.6</ele><time>2026-04-18T10:50:37.696Z</time></trkpt><trkpt lat="8.8947809" lon="-75.7743874"><ele>8.2</ele><time>2026-04-18T10:50:38.695Z</time></trkpt><trkpt lat="8.8948393" lon="-75.7744691"><ele>8.8</ele><time>2026-04-18T10:50:39.695Z</time></trkpt><trkpt lat="8.8948957" lon="-75.7745522"><ele>9.4</ele><time>2026-04-18T10:50:40.695Z</time></trkpt><trkpt lat="8.8949492" lon="-75.7746378"><ele>10.0</ele><time>2026-04-18T10:50:41.695Z</time></trkpt><trkpt lat="8.895006" lon="-75.7747234"><ele>10.0</ele><time>2026-04-18T10:50:42.695Z</time></trkpt><trkpt lat="8.8950638" lon="-75.7748065"><ele>10.0</ele><time>2026-04-18T10:50:43.695Z</time></trkpt><trkpt lat="8.8951181" lon="-75.7748899"><ele>10.0</ele><time>2026-04-18T10:50:44.694Z</time></trkpt><trkpt lat="8.895174" lon="-75.7749726"><ele>10.0</ele><time>2026-04-18T10:50:45.695Z</time></trkpt><trkpt lat="8.8952298" lon="-75.7750558"><ele>10.0</ele><time>2026-04-18T10:50:46.695Z</time></trkpt><trkpt lat="8.8952847" lon="-75.7751387"><ele>10.6</ele><time>2026-04-18T10:50:47.695Z</time></trkpt><trkpt lat="8.8953404" lon="-75.7752231"><ele>11.2</ele><time>2026-04-18T10:50:48.695Z</time></trkpt><trkpt lat="8.8953956" lon="-75.7753042"><ele>11.8</ele><time>2026-04-18T10:50:49.695Z</time></trkpt><trkpt lat="8.8954485" lon="-75.7753893"><ele>12.4</ele><time>2026-04-18T10:50:50.695Z</time></trkpt><trkpt lat="8.8955028" lon="-75.775474"><ele>13.0</ele><time>2026-04-18T10:50:51.695Z</time></trkpt><trkpt lat="8.8955558" lon="-75.7755575"><ele>13.0</ele><time>2026-04-18T10:50:52.695Z</time></trkpt><trkpt lat="8.8956074" lon="-75.7756404"><ele>13.0</ele><time>2026-04-18T10:50:53.695Z</time></trkpt><trkpt lat="8.8956586" lon="-75.7757194"><ele>13.0</ele><time>2026-04-18T10:50:54.695Z</time></trkpt><trkpt lat="8.8957084" lon="-75.7758003"><ele>13.0</ele><time>2026-04-18T10:50:55.695Z</time></trkpt><trkpt lat="8.8957571" lon="-75.775878"><ele>13.0</ele><time>2026-04-18T10:50:56.696Z</time></trkpt><trkpt lat="8.8958045" lon="-75.7759544"><ele>13.166666666666666</ele><time>2026-04-18T10:50:57.695Z</time></trkpt><trkpt lat="8.8958555" lon="-75.7760346"><ele>13.333333333333332</ele><time>2026-04-18T10:50:58.695Z</time></trkpt><trkpt lat="8.8959026" lon="-75.7761072"><ele>13.5</ele><time>2026-04-18T10:50:59.697Z</time></trkpt><trkpt lat="8.8959522" lon="-75.7761779"><ele>13.666666666666668</ele><time>2026-04-18T10:51:00.695Z</time></trkpt><trkpt lat="8.8959959" lon="-75.7762443"><ele>13.833333333333334</ele><time>2026-04-18T10:51:01.696Z</time></trkpt><trkpt lat="8.8960421" lon="-75.7763101"><ele>14.0</ele><time>2026-04-18T10:51:02.695Z</time></trkpt><trkpt lat="8.8960817" lon="-75.7763772"><ele>13.714285714285714</ele><time>2026-04-18T10:51:03.695Z</time></trkpt><trkpt lat="8.8961212" lon="-75.7764432"><ele>13.428571428571429</ele><time>2026-04-18T10:51:04.696Z</time></trkpt><trkpt lat="8.8961588" lon="-75.7765052"><ele>13.142857142857142</ele><time>2026-04-18T10:51:05.695Z</time></trkpt><trkpt lat="8.8961954" lon="-75.7765663"><ele>12.857142857142858</ele><time>2026-04-18T10:51:06.695Z</time></trkpt><trkpt lat="8.8962344" lon="-75.7766207"><ele>12.571428571428571</ele><time>2026-04-18T10:51:07.695Z</time></trkpt><trkpt lat="8.8962693" lon="-75.7766783"><ele>12.285714285714285</ele><time>2026-04-18T10:51:08.695Z</time></trkpt><trkpt lat="8.8963036" lon="-75.7767361"><ele>12.0</ele><time>2026-04-18T10:51:09.695Z</time></trkpt><trkpt lat="8.8963732" lon="-75.776839"><ele>11.6</ele><time>2026-04-18T10:51:11.695Z</time></trkpt><trkpt lat="8.8964444" lon="-75.7769435"><ele>11.2</ele><time>2026-04-18T10:51:13.695Z</time></trkpt><trkpt lat="8.8965138" lon="-75.7770399"><ele>10.8</ele><time>2026-04-18T10:51:15.695Z</time></trkpt><trkpt lat="8.8965839" lon="-75.7771385"><ele>10.4</ele><time>2026-04-18T10:51:17.695Z</time></trkpt><trkpt lat="8.8966199" lon="-75.7771945"><ele>10.0</ele><time>2026-04-18T10:51:18.694Z</time></trkpt><trkpt lat="8.8966563" lon="-75.7772486"><ele>10.0</ele><time>2026-04-18T10:51:19.695Z</time></trkpt><trkpt lat="8.8966936" lon="-75.7773096"><ele>10.0</ele><time>2026-04-18T10:51:20.697Z</time></trkpt><trkpt lat="8.8967398" lon="-75.7773701"><ele>10.0</ele><time>2026-04-18T10:51:21.696Z</time></trkpt><trkpt lat="8.8967826" lon="-75.7774336"><ele>10.0</ele><time>2026-04-18T10:51:22.695Z</time></trkpt><trkpt lat="8.8968227" lon="-75.7774986"><ele>10.0</ele><time>2026-04-18T10:51:23.695Z</time></trkpt><trkpt lat="8.8968658" lon="-75.7775676"><ele>10.0</ele><time>2026-04-18T10:51:24.695Z</time></trkpt><trkpt lat="8.8969075" lon="-75.7776348"><ele>10.0</ele><time>2026-04-18T10:51:25.695Z</time></trkpt><trkpt lat="8.8969514" lon="-75.7776987"><ele>10.0</ele><time>2026-04-18T10:51:26.695Z</time></trkpt><trkpt lat="8.896997" lon="-75.7777667"><ele>10.0</ele><time>2026-04-18T10:51:27.695Z</time></trkpt><trkpt lat="8.8970444" lon="-75.7778362"><ele>10.0</ele><time>2026-04-18T10:51:28.695Z</time></trkpt><trkpt lat="8.8970873" lon="-75.7779048"><ele>10.0</ele><time>2026-04-18T10:51:29.695Z</time></trkpt><trkpt lat="8.8971369" lon="-75.7779714"><ele>10.0</ele><time>2026-04-18T10:51:30.695Z</time></trkpt><trkpt lat="8.8971816" lon="-75.7780381"><ele>10.0</ele><time>2026-04-18T10:51:31.695Z</time></trkpt><trkpt lat="8.8972212" lon="-75.7781014"><ele>10.0</ele><time>2026-04-18T10:51:32.695Z</time></trkpt><trkpt lat="8.8972607" lon="-75.7781562"><ele>10.0</ele><time>2026-04-18T10:51:33.695Z</time></trkpt><trkpt lat="8.8972992" lon="-75.7782126"><ele>10.0</ele><time>2026-04-18T10:51:34.695Z</time></trkpt><trkpt lat="8.8973374" lon="-75.7782708"><ele>10.0</ele><time>2026-04-18T10:51:35.695Z</time></trkpt><trkpt lat="8.897374" lon="-75.7783228"><ele>10.0</ele><time>2026-04-18T10:51:36.694Z</time></trkpt><trkpt lat="8.8974403" lon="-75.7784291"><ele>10.0</ele><time>2026-04-18T10:51:38.695Z</time></trkpt><trkpt lat="8.8974752" lon="-75.778485"><ele>10.0</ele><time>2026-04-18T10:51:39.695Z</time></trkpt><trkpt lat="8.8975399" lon="-75.77859"><ele>10.0</ele><time>2026-04-18T10:51:41.695Z</time></trkpt><trkpt lat="8.8976076" lon="-75.7786879"><ele>10.0</ele><time>2026-04-18T10:51:43.694Z</time></trkpt><trkpt lat="8.8976678" lon="-75.7787751"><ele>10.0</ele><time>2026-04-18T10:51:45.695Z</time></trkpt><trkpt lat="8.8977345" lon="-75.7788585"><ele>10.0</ele><time>2026-04-18T10:51:47.695Z</time></trkpt><trkpt lat="8.897801" lon="-75.7789447"><ele>10.0</ele><time>2026-04-18T10:51:49.695Z</time></trkpt><trkpt lat="8.8978669" lon="-75.7790335"><ele>10.0</ele><time>2026-04-18T10:51:51.695Z</time></trkpt><trkpt lat="8.8979367" lon="-75.7791299"><ele>10.0</ele><time>2026-04-18T10:51:53.695Z</time></trkpt><trkpt lat="8.8980144" lon="-75.7792202"><ele>10.0</ele><time>2026-04-18T10:51:55.695Z</time></trkpt><trkpt lat="8.8980586" lon="-75.7792682"><ele>10.0</ele><time>2026-04-18T10:51:56.695Z</time></trkpt><trkpt lat="8.8981033" lon="-75.7793196"><ele>10.0</ele><time>2026-04-18T10:51:57.695Z</time></trkpt><trkpt lat="8.8981533" lon="-75.7793657"><ele>10.0</ele><time>2026-04-18T10:51:58.695Z</time></trkpt><trkpt lat="8.8982" lon="-75.7794151"><ele>10.0</ele><time>2026-04-18T10:51:59.695Z</time></trkpt><trkpt lat="8.8982464" lon="-75.7794695"><ele>10.0</ele><time>2026-04-18T10:52:00.695Z</time></trkpt><trkpt lat="8.8982953" lon="-75.7795242"><ele>10.0</ele><time>2026-04-18T10:52:01.695Z</time></trkpt><trkpt lat="8.8983431" lon="-75.7795747"><ele>10.142857142857142</ele><time>2026-04-18T10:52:02.695Z</time></trkpt><trkpt lat="8.8983902" lon="-75.779631"><ele>10.285714285714286</ele><time>2026-04-18T10:52:03.695Z</time></trkpt><trkpt lat="8.8984397" lon="-75.7796828"><ele>10.428571428571429</ele><time>2026-04-18T10:52:04.696Z</time></trkpt><trkpt lat="8.898493" lon="-75.7797361"><ele>10.571428571428571</ele><time>2026-04-18T10:52:05.696Z</time></trkpt><trkpt lat="8.8985427" lon="-75.779788"><ele>10.714285714285714</ele><time>2026-04-18T10:52:06.695Z</time></trkpt><trkpt lat="8.8985891" lon="-75.7798473"><ele>10.857142857142858</ele><time>2026-04-18T10:52:07.695Z</time></trkpt><trkpt lat="8.8986389" lon="-75.7798989"><ele>11.0</ele><time>2026-04-18T10:52:08.694Z</time></trkpt><trkpt lat="8.8986871" lon="-75.7799566"><ele>11.0</ele><time>2026-04-18T10:52:09.695Z</time></trkpt><trkpt lat="8.8987384" lon="-75.7800132"><ele>11.0</ele><time>2026-04-18T10:52:10.695Z</time></trkpt><trkpt lat="8.8987924" lon="-75.7800691"><ele>11.0</ele><time>2026-04-18T10:52:11.694Z</time></trkpt><trkpt lat="8.8988466" lon="-75.7801233"><ele>11.0</ele><time>2026-04-18T10:52:12.695Z</time></trkpt><trkpt lat="8.898899" lon="-75.7801782"><ele>11.0</ele><time>2026-04-18T10:52:13.696Z</time></trkpt><trkpt lat="8.898952" lon="-75.7802372"><ele>11.0</ele><time>2026-04-18T10:52:14.695Z</time></trkpt><trkpt lat="8.8990076" lon="-75.7802999"><ele>11.0</ele><time>2026-04-18T10:52:15.695Z</time></trkpt><trkpt lat="8.8990643" lon="-75.7803632"><ele>11.0</ele><time>2026-04-18T10:52:16.695Z</time></trkpt><trkpt lat="8.8991218" lon="-75.7804271"><ele>11.0</ele><time>2026-04-18T10:52:17.695Z</time></trkpt><trkpt lat="8.8991805" lon="-75.7804877"><ele>11.0</ele><time>2026-04-18T10:52:18.695Z</time></trkpt><trkpt lat="8.8992371" lon="-75.7805527"><ele>11.0</ele><time>2026-04-18T10:52:19.695Z</time></trkpt><trkpt lat="8.899297" lon="-75.7806195"><ele>11.0</ele><time>2026-04-18T10:52:20.695Z</time></trkpt><trkpt lat="8.8993512" lon="-75.7806758"><ele>11.0</ele><time>2026-04-18T10:52:21.694Z</time></trkpt><trkpt lat="8.8994033" lon="-75.7807345"><ele>11.0</ele><time>2026-04-18T10:52:22.695Z</time></trkpt><trkpt lat="8.8994519" lon="-75.780791"><ele>11.0</ele><time>2026-04-18T10:52:23.694Z</time></trkpt><trkpt lat="8.8995015" lon="-75.7808443"><ele>11.0</ele><time>2026-04-18T10:52:24.694Z</time></trkpt><trkpt lat="8.8995437" lon="-75.780896"><ele>11.0</ele><time>2026-04-18T10:52:25.696Z</time></trkpt><trkpt lat="8.899584" lon="-75.7809481"><ele>11.0</ele><time>2026-04-18T10:52:26.695Z</time></trkpt><trkpt lat="8.8996674" lon="-75.7810372"><ele>10.0</ele><time>2026-04-18T10:52:28.695Z</time></trkpt><trkpt lat="8.8997118" lon="-75.7810837"><ele>9.0</ele><time>2026-04-18T10:52:29.695Z</time></trkpt><trkpt lat="8.899755" lon="-75.7811302"><ele>8.0</ele><time>2026-04-18T10:52:30.695Z</time></trkpt><trkpt lat="8.8998386" lon="-75.7812187"><ele>7.0</ele><time>2026-04-18T10:52:32.695Z</time></trkpt><trkpt lat="8.8999147" lon="-75.7812933"><ele>6.0</ele><time>2026-04-18T10:52:34.696Z</time></trkpt><trkpt lat="8.8999928" lon="-75.7813782"><ele>6.0</ele><time>2026-04-18T10:52:36.694Z</time></trkpt><trkpt lat="8.9000711" lon="-75.7814627"><ele>6.0</ele><time>2026-04-18T10:52:38.696Z</time></trkpt><trkpt lat="8.9001569" lon="-75.7815567"><ele>6.0</ele><time>2026-04-18T10:52:40.695Z</time></trkpt><trkpt lat="8.9002039" lon="-75.7816026"><ele>6.0</ele><time>2026-04-18T10:52:41.694Z</time></trkpt><trkpt lat="8.9002511" lon="-75.781653"><ele>6.0</ele><time>2026-04-18T10:52:42.695Z</time></trkpt><trkpt lat="8.9002964" lon="-75.7817056"><ele>6.0</ele><time>2026-04-18T10:52:43.695Z</time></trkpt><trkpt lat="8.9003431" lon="-75.7817641"><ele>6.428571428571428</ele><time>2026-04-18T10:52:44.695Z</time></trkpt><trkpt lat="8.9003927" lon="-75.7818165"><ele>6.857142857142858</ele><time>2026-04-18T10:52:45.695Z</time></trkpt><trkpt lat="8.9004427" lon="-75.7818689"><ele>7.2857142857142865</ele><time>2026-04-18T10:52:46.695Z</time></trkpt><trkpt lat="8.9004907" lon="-75.7819222"><ele>7.714285714285714</ele><time>2026-04-18T10:52:47.695Z</time></trkpt><trkpt lat="8.9005378" lon="-75.7819712"><ele>8.142857142857142</ele><time>2026-04-18T10:52:48.695Z</time></trkpt><trkpt lat="8.9005863" lon="-75.7820238"><ele>8.571428571428573</ele><time>2026-04-18T10:52:49.695Z</time></trkpt><trkpt lat="8.9006319" lon="-75.7820739"><ele>9.0</ele><time>2026-04-18T10:52:50.696Z</time></trkpt><trkpt lat="8.900678" lon="-75.7821268"><ele>9.0</ele><time>2026-04-18T10:52:51.694Z</time></trkpt><trkpt lat="8.9007248" lon="-75.782179"><ele>9.0</ele><time>2026-04-18T10:52:52.695Z</time></trkpt><trkpt lat="8.9007697" lon="-75.7822295"><ele>9.0</ele><time>2026-04-18T10:52:53.695Z</time></trkpt><trkpt lat="8.9008151" lon="-75.7822759"><ele>9.0</ele><time>2026-04-18T10:52:54.696Z</time></trkpt><trkpt lat="8.9008957" lon="-75.7823594"><ele>9.0</ele><time>2026-04-18T10:52:56.695Z</time></trkpt><trkpt lat="8.9009684" lon="-75.7824406"><ele>9.0</ele><time>2026-04-18T10:52:58.695Z</time></trkpt><trkpt lat="8.9010409" lon="-75.782522"><ele>9.0</ele><time>2026-04-18T10:53:00.696Z</time></trkpt><trkpt lat="8.9011076" lon="-75.7825971"><ele>9.0</ele><time>2026-04-18T10:53:02.694Z</time></trkpt><trkpt lat="8.9011738" lon="-75.7826727"><ele>9.0</ele><time>2026-04-18T10:53:04.695Z</time></trkpt><trkpt lat="8.9012486" lon="-75.7827578"><ele>9.0</ele><time>2026-04-18T10:53:06.695Z</time></trkpt><trkpt lat="8.9013182" lon="-75.7828442"><ele>9.0</ele><time>2026-04-18T10:53:08.695Z</time></trkpt><trkpt lat="8.9013849" lon="-75.7829333"><ele>9.166666666666666</ele><time>2026-04-18T10:53:10.695Z</time></trkpt><trkpt lat="8.9014526" lon="-75.7830365"><ele>9.333333333333334</ele><time>2026-04-18T10:53:12.695Z</time></trkpt><trkpt lat="8.9015148" lon="-75.7831401"><ele>9.5</ele><time>2026-04-18T10:53:14.696Z</time></trkpt><trkpt lat="8.9015469" lon="-75.7832001"><ele>9.666666666666668</ele><time>2026-04-18T10:53:15.695Z</time></trkpt><trkpt lat="8.9015768" lon="-75.7832571"><ele>9.833333333333334</ele><time>2026-04-18T10:53:16.695Z</time></trkpt><trkpt lat="8.9016048" lon="-75.7833152"><ele>10.0</ele><time>2026-04-18T10:53:17.695Z</time></trkpt><trkpt lat="8.9016351" lon="-75.7833733"><ele>10.0</ele><time>2026-04-18T10:53:18.695Z</time></trkpt><trkpt lat="8.9016905" lon="-75.7834829"><ele>10.0</ele><time>2026-04-18T10:53:20.695Z</time></trkpt><trkpt lat="8.9017441" lon="-75.783597"><ele>10.0</ele><time>2026-04-18T10:53:22.695Z</time></trkpt><trkpt lat="8.9017734" lon="-75.7836602"><ele>10.0</ele><time>2026-04-18T10:53:23.695Z</time></trkpt><trkpt lat="8.9017971" lon="-75.7837239"><ele>10.0</ele><time>2026-04-18T10:53:24.695Z</time></trkpt><trkpt lat="8.9018187" lon="-75.7837882"><ele>10.142857142857142</ele><time>2026-04-18T10:53:25.695Z</time></trkpt><trkpt lat="8.9018422" lon="-75.7838558"><ele>10.285714285714286</ele><time>2026-04-18T10:53:26.695Z</time></trkpt><trkpt lat="8.9018636" lon="-75.7839199"><ele>10.428571428571429</ele><time>2026-04-18T10:53:27.694Z</time></trkpt><trkpt lat="8.9018853" lon="-75.7839864"><ele>10.571428571428571</ele><time>2026-04-18T10:53:28.696Z</time></trkpt><trkpt lat="8.9019134" lon="-75.7840515"><ele>10.714285714285714</ele><time>2026-04-18T10:53:29.693Z</time></trkpt><trkpt lat="8.9019378" lon="-75.7841262"><ele>10.857142857142858</ele><time>2026-04-18T10:53:30.695Z</time></trkpt><trkpt lat="8.9019583" lon="-75.7841985"><ele>11.0</ele><time>2026-04-18T10:53:31.695Z</time></trkpt><trkpt lat="8.9019781" lon="-75.7842704"><ele>11.0</ele><time>2026-04-18T10:53:32.694Z</time></trkpt><trkpt lat="8.9020003" lon="-75.7843414"><ele>11.0</ele><time>2026-04-18T10:53:33.695Z</time></trkpt><trkpt lat="8.9020175" lon="-75.7844154"><ele>11.0</ele><time>2026-04-18T10:53:34.696Z</time></trkpt><trkpt lat="8.9020352" lon="-75.7844876"><ele>11.0</ele><time>2026-04-18T10:53:35.695Z</time></trkpt><trkpt lat="8.9020499" lon="-75.7845565"><ele>11.0</ele><time>2026-04-18T10:53:36.694Z</time></trkpt><trkpt lat="8.9020701" lon="-75.7846231"><ele>11.0</ele><time>2026-04-18T10:53:37.695Z</time></trkpt><trkpt lat="8.9020864" lon="-75.7846932"><ele>11.0</ele><time>2026-04-18T10:53:38.695Z</time></trkpt><trkpt lat="8.9021016" lon="-75.7847577"><ele>11.0</ele><time>2026-04-18T10:53:39.695Z</time></trkpt><trkpt lat="8.9021168" lon="-75.7848236"><ele>11.0</ele><time>2026-04-18T10:53:40.695Z</time></trkpt><trkpt lat="8.9021339" lon="-75.7848924"><ele>11.0</ele><time>2026-04-18T10:53:41.695Z</time></trkpt><trkpt lat="8.9021517" lon="-75.7849589"><ele>11.0</ele><time>2026-04-18T10:53:42.694Z</time></trkpt><trkpt lat="8.9021704" lon="-75.7850277"><ele>11.0</ele><time>2026-04-18T10:53:43.696Z</time></trkpt><trkpt lat="8.902191" lon="-75.7850938"><ele>11.0</ele><time>2026-04-18T10:53:44.695Z</time></trkpt><trkpt lat="8.9022084" lon="-75.7851595"><ele>11.0</ele><time>2026-04-18T10:53:45.695Z</time></trkpt><trkpt lat="8.9022257" lon="-75.7852275"><ele>11.428571428571429</ele><time>2026-04-18T10:53:46.696Z</time></trkpt><trkpt lat="8.9022435" lon="-75.7852934"><ele>11.857142857142858</ele><time>2026-04-18T10:53:47.695Z</time></trkpt><trkpt lat="8.9022614" lon="-75.7853559"><ele>12.285714285714285</ele><time>2026-04-18T10:53:48.694Z</time></trkpt><trkpt lat="8.9022784" lon="-75.7854214"><ele>12.714285714285715</ele><time>2026-04-18T10:53:49.694Z</time></trkpt><trkpt lat="8.9022935" lon="-75.7854855"><ele>13.142857142857142</ele><time>2026-04-18T10:53:50.695Z</time></trkpt><trkpt lat="8.9023132" lon="-75.7855539"><ele>13.571428571428571</ele><time>2026-04-18T10:53:51.696Z</time></trkpt><trkpt lat="8.9023317" lon="-75.7856158"><ele>14.0</ele><time>2026-04-18T10:53:52.694Z</time></trkpt><trkpt lat="8.9023476" lon="-75.7856834"><ele>14.0</ele><time>2026-04-18T10:53:53.696Z</time></trkpt><trkpt lat="8.9023677" lon="-75.7857495"><ele>14.0</ele><time>2026-04-18T10:53:54.695Z</time></trkpt><trkpt lat="8.9023888" lon="-75.7858131"><ele>14.0</ele><time>2026-04-18T10:53:55.694Z</time></trkpt><trkpt lat="8.9024066" lon="-75.7858847"><ele>14.0</ele><time>2026-04-18T10:53:56.695Z</time></trkpt><trkpt lat="8.9024288" lon="-75.7859534"><ele>14.0</ele><time>2026-04-18T10:53:57.694Z</time></trkpt><trkpt lat="8.9024457" lon="-75.7860261"><ele>14.0</ele><time>2026-04-18T10:53:58.695Z</time></trkpt><trkpt lat="8.9024642" lon="-75.7861017"><ele>14.0</ele><time>2026-04-18T10:53:59.695Z</time></trkpt><trkpt lat="8.9024847" lon="-75.7861807"><ele>13.833333333333334</ele><time>2026-04-18T10:54:00.695Z</time></trkpt><trkpt lat="8.9025034" lon="-75.7862557"><ele>13.666666666666668</ele><time>2026-04-18T10:54:01.694Z</time></trkpt><trkpt lat="8.9025254" lon="-75.7863299"><ele>13.5</ele><time>2026-04-18T10:54:02.695Z</time></trkpt><trkpt lat="8.9025447" lon="-75.7864079"><ele>13.333333333333332</ele><time>2026-04-18T10:54:03.695Z</time></trkpt><trkpt lat="8.9025673" lon="-75.7864876"><ele>13.166666666666666</ele><time>2026-04-18T10:54:04.696Z</time></trkpt><trkpt lat="8.9025903" lon="-75.7865687"><ele>13.0</ele><time>2026-04-18T10:54:05.695Z</time></trkpt><trkpt lat="8.9026122" lon="-75.7866535"><ele>12.999999999999998</ele><time>2026-04-18T10:54:06.694Z</time></trkpt><trkpt lat="8.9026367" lon="-75.7867368"><ele>13.0</ele><time>2026-04-18T10:54:07.695Z</time></trkpt><trkpt lat="8.9026595" lon="-75.7868218"><ele>13.0</ele><time>2026-04-18T10:54:08.695Z</time></trkpt><trkpt lat="8.9026808" lon="-75.7869032"><ele>13.0</ele><time>2026-04-18T10:54:09.695Z</time></trkpt><trkpt lat="8.9027032" lon="-75.7869846"><ele>12.999999999999998</ele><time>2026-04-18T10:54:10.694Z</time></trkpt><trkpt lat="8.9027276" lon="-75.7870683"><ele>13.0</ele><time>2026-04-18T10:54:11.696Z</time></trkpt><trkpt lat="8.9027545" lon="-75.7871535"><ele>12.666666666666666</ele><time>2026-04-18T10:54:12.694Z</time></trkpt><trkpt lat="8.9027763" lon="-75.787243"><ele>12.333333333333332</ele><time>2026-04-18T10:54:13.695Z</time></trkpt><trkpt lat="8.9027981" lon="-75.787328"><ele>12.0</ele><time>2026-04-18T10:54:14.695Z</time></trkpt><trkpt lat="8.9028214" lon="-75.7874148"><ele>11.666666666666666</ele><time>2026-04-18T10:54:15.696Z</time></trkpt><trkpt lat="8.9028459" lon="-75.7875052"><ele>11.333333333333332</ele><time>2026-04-18T10:54:16.694Z</time></trkpt><trkpt lat="8.9028698" lon="-75.7875897"><ele>11.0</ele><time>2026-04-18T10:54:17.695Z</time></trkpt><trkpt lat="8.9028947" lon="-75.7876796"><ele>11.0</ele><time>2026-04-18T10:54:18.695Z</time></trkpt><trkpt lat="8.9029213" lon="-75.7877728"><ele>11.0</ele><time>2026-04-18T10:54:19.695Z</time></trkpt><trkpt lat="8.9029484" lon="-75.7878648"><ele>11.0</ele><time>2026-04-18T10:54:20.695Z</time></trkpt><trkpt lat="8.9029748" lon="-75.7879523"><ele>11.0</ele><time>2026-04-18T10:54:21.694Z</time></trkpt><trkpt lat="8.9029984" lon="-75.7880422"><ele>11.0</ele><time>2026-04-18T10:54:22.695Z</time></trkpt><trkpt lat="8.9030219" lon="-75.7881321"><ele>11.0</ele><time>2026-04-18T10:54:23.697Z</time></trkpt><trkpt lat="8.9030469" lon="-75.7882267"><ele>11.0</ele><time>2026-04-18T10:54:24.695Z</time></trkpt><trkpt lat="8.903074" lon="-75.7883189"><ele>11.0</ele><time>2026-04-18T10:54:25.695Z</time></trkpt><trkpt lat="8.9031007" lon="-75.7884167"><ele>11.0</ele><time>2026-04-18T10:54:26.697Z</time></trkpt><trkpt lat="8.9031275" lon="-75.7885104"><ele>11.0</ele><time>2026-04-18T10:54:27.695Z</time></trkpt><trkpt lat="8.9031529" lon="-75.7886068"><ele>11.0</ele><time>2026-04-18T10:54:28.696Z</time></trkpt><trkpt lat="8.9031782" lon="-75.788705"><ele>11.0</ele><time>2026-04-18T10:54:29.695Z</time></trkpt><trkpt lat="8.903203" lon="-75.7888024"><ele>11.0</ele><time>2026-04-18T10:54:30.695Z</time></trkpt><trkpt lat="8.9032277" lon="-75.7888921"><ele>11.0</ele><time>2026-04-18T10:54:31.696Z</time></trkpt><trkpt lat="8.9032449" lon="-75.788986"><ele>11.0</ele><time>2026-04-18T10:54:32.695Z</time></trkpt><trkpt lat="8.9032673" lon="-75.7890838"><ele>11.0</ele><time>2026-04-18T10:54:33.695Z</time></trkpt><trkpt lat="8.9032902" lon="-75.7891786"><ele>11.0</ele><time>2026-04-18T10:54:34.694Z</time></trkpt><trkpt lat="8.9033076" lon="-75.7892734"><ele>11.0</ele><time>2026-04-18T10:54:35.695Z</time></trkpt><trkpt lat="8.9033304" lon="-75.789368"><ele>11.0</ele><time>2026-04-18T10:54:36.696Z</time></trkpt><trkpt lat="8.9033498" lon="-75.7894609"><ele>11.0</ele><time>2026-04-18T10:54:37.695Z</time></trkpt><trkpt lat="8.9033708" lon="-75.7895544"><ele>11.200000000000001</ele><time>2026-04-18T10:54:38.695Z</time></trkpt><trkpt lat="8.9033945" lon="-75.7896435"><ele>11.4</ele><time>2026-04-18T10:54:39.695Z</time></trkpt><trkpt lat="8.9034158" lon="-75.7897382"><ele>11.6</ele><time>2026-04-18T10:54:40.696Z</time></trkpt><trkpt lat="8.9034335" lon="-75.7898336"><ele>11.8</ele><time>2026-04-18T10:54:41.696Z</time></trkpt><trkpt lat="8.9034501" lon="-75.7899307"><ele>12.0</ele><time>2026-04-18T10:54:42.695Z</time></trkpt><trkpt lat="8.9034684" lon="-75.7900256"><ele>11.8</ele><time>2026-04-18T10:54:43.695Z</time></trkpt><trkpt lat="8.9034814" lon="-75.7901225"><ele>11.6</ele><time>2026-04-18T10:54:44.696Z</time></trkpt><trkpt lat="8.9035004" lon="-75.7902184"><ele>11.4</ele><time>2026-04-18T10:54:45.694Z</time></trkpt><trkpt lat="8.9035184" lon="-75.7903165"><ele>11.200000000000001</ele><time>2026-04-18T10:54:46.695Z</time></trkpt><trkpt lat="8.90354" lon="-75.7904118"><ele>11.0</ele><time>2026-04-18T10:54:47.695Z</time></trkpt><trkpt lat="8.9035521" lon="-75.7905082"><ele>11.0</ele><time>2026-04-18T10:54:48.694Z</time></trkpt><trkpt lat="8.9035722" lon="-75.7906067"><ele>11.0</ele><time>2026-04-18T10:54:49.695Z</time></trkpt><trkpt lat="8.9035887" lon="-75.7907"><ele>11.0</ele><time>2026-04-18T10:54:50.695Z</time></trkpt><trkpt lat="8.9036057" lon="-75.7907992"><ele>11.0</ele><time>2026-04-18T10:54:51.694Z</time></trkpt><trkpt lat="8.9036235" lon="-75.7908999"><ele>11.0</ele><time>2026-04-18T10:54:52.695Z</time></trkpt><trkpt lat="8.9036374" lon="-75.7909952"><ele>11.200000000000001</ele><time>2026-04-18T10:54:53.694Z</time></trkpt><trkpt lat="8.9036525" lon="-75.7910926"><ele>11.4</ele><time>2026-04-18T10:54:54.694Z</time></trkpt><trkpt lat="8.9036669" lon="-75.791187"><ele>11.6</ele><time>2026-04-18T10:54:55.695Z</time></trkpt><trkpt lat="8.9036837" lon="-75.7912865"><ele>11.8</ele><time>2026-04-18T10:54:56.694Z</time></trkpt><trkpt lat="8.9037017" lon="-75.7913841"><ele>12.0</ele><time>2026-04-18T10:54:57.695Z</time></trkpt><trkpt lat="8.9037218" lon="-75.7914838"><ele>12.0</ele><time>2026-04-18T10:54:58.695Z</time></trkpt><trkpt lat="8.9037423" lon="-75.7915783"><ele>12.0</ele><time>2026-04-18T10:54:59.695Z</time></trkpt><trkpt lat="8.903755" lon="-75.7916771"><ele>12.0</ele><time>2026-04-18T10:55:00.695Z</time></trkpt><trkpt lat="8.9037705" lon="-75.791771"><ele>12.0</ele><time>2026-04-18T10:55:01.695Z</time></trkpt><trkpt lat="8.903784" lon="-75.7918666"><ele>12.0</ele><time>2026-04-18T10:55:02.694Z</time></trkpt><trkpt lat="8.903798" lon="-75.7919635"><ele>11.8</ele><time>2026-04-18T10:55:03.695Z</time></trkpt><trkpt lat="8.9038103" lon="-75.7920586"><ele>11.6</ele><time>2026-04-18T10:55:04.696Z</time></trkpt><trkpt lat="8.9038283" lon="-75.7921569"><ele>11.4</ele><time>2026-04-18T10:55:05.694Z</time></trkpt><trkpt lat="8.9038412" lon="-75.7922495"><ele>11.200000000000001</ele><time>2026-04-18T10:55:06.694Z</time></trkpt><trkpt lat="8.9038589" lon="-75.7923461"><ele>11.0</ele><time>2026-04-18T10:55:07.695Z</time></trkpt><trkpt lat="8.9038763" lon="-75.7924449"><ele>11.0</ele><time>2026-04-18T10:55:08.695Z</time></trkpt><trkpt lat="8.903895" lon="-75.7925428"><ele>11.0</ele><time>2026-04-18T10:55:09.696Z</time></trkpt><trkpt lat="8.9039136" lon="-75.7926392"><ele>11.0</ele><time>2026-04-18T10:55:10.695Z</time></trkpt><trkpt lat="8.9039287" lon="-75.7927332"><ele>11.0</ele><time>2026-04-18T10:55:11.695Z</time></trkpt><trkpt lat="8.9039409" lon="-75.7928344"><ele>11.0</ele><time>2026-04-18T10:55:12.694Z</time></trkpt><trkpt lat="8.9039616" lon="-75.7929317"><ele>11.0</ele><time>2026-04-18T10:55:13.695Z</time></trkpt><trkpt lat="8.9039754" lon="-75.7930303"><ele>11.0</ele><time>2026-04-18T10:55:14.696Z</time></trkpt><trkpt lat="8.9039933" lon="-75.7931281"><ele>11.0</ele><time>2026-04-18T10:55:15.695Z</time></trkpt><trkpt lat="8.9040098" lon="-75.7932218"><ele>11.0</ele><time>2026-04-18T10:55:16.695Z</time></trkpt><trkpt lat="8.9040245" lon="-75.7933187"><ele>11.0</ele><time>2026-04-18T10:55:17.695Z</time></trkpt><trkpt lat="8.9040431" lon="-75.7934164"><ele>11.0</ele><time>2026-04-18T10:55:18.695Z</time></trkpt><trkpt lat="8.9040572" lon="-75.7935147"><ele>11.0</ele><time>2026-04-18T10:55:19.695Z</time></trkpt><trkpt lat="8.904072" lon="-75.7936106"><ele>11.0</ele><time>2026-04-18T10:55:20.694Z</time></trkpt><trkpt lat="8.9040903" lon="-75.7937055"><ele>11.0</ele><time>2026-04-18T10:55:21.696Z</time></trkpt><trkpt lat="8.9041076" lon="-75.7938011"><ele>11.0</ele><time>2026-04-18T10:55:22.695Z</time></trkpt><trkpt lat="8.9041256" lon="-75.7938976"><ele>11.0</ele><time>2026-04-18T10:55:23.695Z</time></trkpt><trkpt lat="8.9041376" lon="-75.7939957"><ele>11.0</ele><time>2026-04-18T10:55:24.694Z</time></trkpt><trkpt lat="8.9041534" lon="-75.7940917"><ele>11.0</ele><time>2026-04-18T10:55:25.694Z</time></trkpt><trkpt lat="8.9041689" lon="-75.7941885"><ele>11.0</ele><time>2026-04-18T10:55:26.694Z</time></trkpt><trkpt lat="8.9041794" lon="-75.7942849"><ele>11.0</ele><time>2026-04-18T10:55:27.695Z</time></trkpt><trkpt lat="8.904197" lon="-75.7943891"><ele>10.8</ele><time>2026-04-18T10:55:28.695Z</time></trkpt><trkpt lat="8.9042131" lon="-75.7944879"><ele>10.600000000000001</ele><time>2026-04-18T10:55:29.694Z</time></trkpt><trkpt lat="8.9042304" lon="-75.7945888"><ele>10.4</ele><time>2026-04-18T10:55:30.695Z</time></trkpt><trkpt lat="8.9042501" lon="-75.7946874"><ele>10.2</ele><time>2026-04-18T10:55:31.694Z</time></trkpt><trkpt lat="8.9042664" lon="-75.7947871"><ele>10.0</ele><time>2026-04-18T10:55:32.696Z</time></trkpt><trkpt lat="8.9042827" lon="-75.7948865"><ele>10.0</ele><time>2026-04-18T10:55:33.695Z</time></trkpt><trkpt lat="8.9042999" lon="-75.7949857"><ele>10.0</ele><time>2026-04-18T10:55:34.695Z</time></trkpt><trkpt lat="8.9043157" lon="-75.7950836"><ele>10.0</ele><time>2026-04-18T10:55:35.696Z</time></trkpt><trkpt lat="8.9043314" lon="-75.7951818"><ele>10.0</ele><time>2026-04-18T10:55:36.695Z</time></trkpt><trkpt lat="8.9043502" lon="-75.7952779"><ele>10.0</ele><time>2026-04-18T10:55:37.695Z</time></trkpt><trkpt lat="8.9043675" lon="-75.7953761"><ele>10.0</ele><time>2026-04-18T10:55:38.695Z</time></trkpt><trkpt lat="8.9043821" lon="-75.7954741"><ele>10.0</ele><time>2026-04-18T10:55:39.695Z</time></trkpt><trkpt lat="8.9043996" lon="-75.7955724"><ele>10.0</ele><time>2026-04-18T10:55:40.695Z</time></trkpt><trkpt lat="8.9044159" lon="-75.7956713"><ele>10.0</ele><time>2026-04-18T10:55:41.695Z</time></trkpt><trkpt lat="8.9044302" lon="-75.7957664"><ele>10.0</ele><time>2026-04-18T10:55:42.694Z</time></trkpt><trkpt lat="8.9044465" lon="-75.7958587"><ele>10.0</ele><time>2026-04-18T10:55:43.694Z</time></trkpt><trkpt lat="8.9044609" lon="-75.7959542"><ele>10.0</ele><time>2026-04-18T10:55:44.695Z</time></trkpt><trkpt lat="8.9044789" lon="-75.7960489"><ele>10.0</ele><time>2026-04-18T10:55:45.695Z</time></trkpt><trkpt lat="8.9044958" lon="-75.7961436"><ele>10.0</ele><time>2026-04-18T10:55:46.694Z</time></trkpt><trkpt lat="8.9045098" lon="-75.7962399"><ele>10.0</ele><time>2026-04-18T10:55:47.694Z</time></trkpt><trkpt lat="8.9045279" lon="-75.7963343"><ele>10.0</ele><time>2026-04-18T10:55:48.695Z</time></trkpt><trkpt lat="8.9045433" lon="-75.7964298"><ele>10.0</ele><time>2026-04-18T10:55:49.695Z</time></trkpt><trkpt lat="8.9045597" lon="-75.7965213"><ele>10.0</ele><time>2026-04-18T10:55:50.695Z</time></trkpt><trkpt lat="8.9045778" lon="-75.796617"><ele>10.0</ele><time>2026-04-18T10:55:51.694Z</time></trkpt><trkpt lat="8.9045927" lon="-75.796716"><ele>10.0</ele><time>2026-04-18T10:55:52.696Z</time></trkpt><trkpt lat="8.9046087" lon="-75.7968092"><ele>10.0</ele><time>2026-04-18T10:55:53.695Z</time></trkpt><trkpt lat="8.9046275" lon="-75.7969062"><ele>10.0</ele><time>2026-04-18T10:55:54.695Z</time></trkpt><trkpt lat="8.9046469" lon="-75.7970061"><ele>10.0</ele><time>2026-04-18T10:55:55.695Z</time></trkpt><trkpt lat="8.9046649" lon="-75.7971037"><ele>10.0</ele><time>2026-04-18T10:55:56.693Z</time></trkpt><trkpt lat="8.9046807" lon="-75.7972012"><ele>10.0</ele><time>2026-04-18T10:55:57.695Z</time></trkpt><trkpt lat="8.9046962" lon="-75.7972956"><ele>10.0</ele><time>2026-04-18T10:55:58.694Z</time></trkpt><trkpt lat="8.904712" lon="-75.7973936"><ele>10.0</ele><time>2026-04-18T10:55:59.696Z</time></trkpt><trkpt lat="8.9047293" lon="-75.7974911"><ele>10.0</ele><time>2026-04-18T10:56:00.694Z</time></trkpt><trkpt lat="8.9047439" lon="-75.7975841"><ele>10.0</ele><time>2026-04-18T10:56:01.695Z</time></trkpt><trkpt lat="8.9047614" lon="-75.7976787"><ele>10.0</ele><time>2026-04-18T10:56:02.695Z</time></trkpt><trkpt lat="8.9047787" lon="-75.7977737"><ele>10.0</ele><time>2026-04-18T10:56:03.695Z</time></trkpt><trkpt lat="8.9047976" lon="-75.7978735"><ele>10.0</ele><time>2026-04-18T10:56:04.695Z</time></trkpt><trkpt lat="8.9048163" lon="-75.7979718"><ele>10.0</ele><time>2026-04-18T10:56:05.695Z</time></trkpt><trkpt lat="8.9048338" lon="-75.7980677"><ele>10.0</ele><time>2026-04-18T10:56:06.694Z</time></trkpt><trkpt lat="8.9048562" lon="-75.7981626"><ele>10.0</ele><time>2026-04-18T10:56:07.695Z</time></trkpt><trkpt lat="8.9048781" lon="-75.7982592"><ele>10.0</ele><time>2026-04-18T10:56:08.695Z</time></trkpt><trkpt lat="8.9048978" lon="-75.7983564"><ele>10.0</ele><time>2026-04-18T10:56:09.696Z</time></trkpt><trkpt lat="8.904917" lon="-75.7984475"><ele>10.0</ele><time>2026-04-18T10:56:10.694Z</time></trkpt><trkpt lat="8.904937" lon="-75.7985413"><ele>10.0</ele><time>2026-04-18T10:56:11.696Z</time></trkpt><trkpt lat="8.9049543" lon="-75.79863"><ele>10.0</ele><time>2026-04-18T10:56:12.694Z</time></trkpt><trkpt lat="8.9049719" lon="-75.7987218"><ele>10.6</ele><time>2026-04-18T10:56:13.696Z</time></trkpt><trkpt lat="8.904991" lon="-75.798814"><ele>11.2</ele><time>2026-04-18T10:56:14.695Z</time></trkpt><trkpt lat="8.9050094" lon="-75.7989093"><ele>11.8</ele><time>2026-04-18T10:56:15.696Z</time></trkpt><trkpt lat="8.9050284" lon="-75.7990012"><ele>12.4</ele><time>2026-04-18T10:56:16.695Z</time></trkpt><trkpt lat="8.9050478" lon="-75.7990941"><ele>13.0</ele><time>2026-04-18T10:56:17.694Z</time></trkpt><trkpt lat="8.9050667" lon="-75.7991798"><ele>12.8</ele><time>2026-04-18T10:56:18.695Z</time></trkpt><trkpt lat="8.905082" lon="-75.7992683"><ele>12.600000000000001</ele><time>2026-04-18T10:56:19.695Z</time></trkpt><trkpt lat="8.9051012" lon="-75.7993607"><ele>12.399999999999999</ele><time>2026-04-18T10:56:20.696Z</time></trkpt><trkpt lat="8.9051202" lon="-75.7994526"><ele>12.2</ele><time>2026-04-18T10:56:21.695Z</time></trkpt><trkpt lat="8.9051356" lon="-75.7995484"><ele>12.0</ele><time>2026-04-18T10:56:22.694Z</time></trkpt><trkpt lat="8.9051561" lon="-75.799642"><ele>12.0</ele><time>2026-04-18T10:56:23.695Z</time></trkpt><trkpt lat="8.9051757" lon="-75.7997302"><ele>12.0</ele><time>2026-04-18T10:56:24.695Z</time></trkpt><trkpt lat="8.9051965" lon="-75.7998245"><ele>12.0</ele><time>2026-04-18T10:56:25.695Z</time></trkpt><trkpt lat="8.9052166" lon="-75.7999172"><ele>12.0</ele><time>2026-04-18T10:56:26.695Z</time></trkpt><trkpt lat="8.9052292" lon="-75.8000099"><ele>12.0</ele><time>2026-04-18T10:56:27.695Z</time></trkpt><trkpt lat="8.9052466" lon="-75.8000986"><ele>12.333333333333334</ele><time>2026-04-18T10:56:28.694Z</time></trkpt><trkpt lat="8.9052671" lon="-75.8001868"><ele>12.666666666666668</ele><time>2026-04-18T10:56:29.694Z</time></trkpt><trkpt lat="8.9052827" lon="-75.8002726"><ele>13.0</ele><time>2026-04-18T10:56:30.694Z</time></trkpt><trkpt lat="8.9052993" lon="-75.8003608"><ele>13.333333333333334</ele><time>2026-04-18T10:56:31.694Z</time></trkpt><trkpt lat="8.9053189" lon="-75.8004499"><ele>13.666666666666668</ele><time>2026-04-18T10:56:32.694Z</time></trkpt><trkpt lat="8.905339" lon="-75.8005434"><ele>14.0</ele><time>2026-04-18T10:56:33.695Z</time></trkpt><trkpt lat="8.9053579" lon="-75.8006299"><ele>14.000000000000002</ele><time>2026-04-18T10:56:34.694Z</time></trkpt><trkpt lat="8.9053785" lon="-75.8007152"><ele>14.0</ele><time>2026-04-18T10:56:35.695Z</time></trkpt><trkpt lat="8.9053964" lon="-75.8008044"><ele>14.0</ele><time>2026-04-18T10:56:36.694Z</time></trkpt><trkpt lat="8.9054176" lon="-75.8008854"><ele>14.0</ele><time>2026-04-18T10:56:37.694Z</time></trkpt><trkpt lat="8.9054351" lon="-75.8009765"><ele>14.000000000000002</ele><time>2026-04-18T10:56:38.694Z</time></trkpt><trkpt lat="8.9054515" lon="-75.8010631"><ele>14.0</ele><time>2026-04-18T10:56:39.694Z</time></trkpt><trkpt lat="8.9054705" lon="-75.801153"><ele>13.2</ele><time>2026-04-18T10:56:40.695Z</time></trkpt><trkpt lat="8.9054903" lon="-75.8012434"><ele>12.399999999999999</ele><time>2026-04-18T10:56:41.694Z</time></trkpt><trkpt lat="8.9055071" lon="-75.8013357"><ele>11.6</ele><time>2026-04-18T10:56:42.694Z</time></trkpt><trkpt lat="8.9055229" lon="-75.8014187"><ele>10.8</ele><time>2026-04-18T10:56:43.694Z</time></trkpt><trkpt lat="8.9055416" lon="-75.8015122"><ele>10.0</ele><time>2026-04-18T10:56:44.695Z</time></trkpt><trkpt lat="8.9055583" lon="-75.8016007"><ele>10.0</ele><time>2026-04-18T10:56:45.695Z</time></trkpt><trkpt lat="8.9055797" lon="-75.8016884"><ele>10.0</ele><time>2026-04-18T10:56:46.694Z</time></trkpt><trkpt lat="8.9055997" lon="-75.8017747"><ele>10.0</ele><time>2026-04-18T10:56:47.695Z</time></trkpt><trkpt lat="8.9056164" lon="-75.8018599"><ele>10.0</ele><time>2026-04-18T10:56:48.695Z</time></trkpt><trkpt lat="8.9056383" lon="-75.8019426"><ele>10.0</ele><time>2026-04-18T10:56:49.695Z</time></trkpt><trkpt lat="8.9056545" lon="-75.8020321"><ele>10.0</ele><time>2026-04-18T10:56:50.694Z</time></trkpt><trkpt lat="8.9056709" lon="-75.8021194"><ele>10.0</ele><time>2026-04-18T10:56:51.694Z</time></trkpt><trkpt lat="8.9056871" lon="-75.8022055"><ele>10.0</ele><time>2026-04-18T10:56:52.695Z</time></trkpt><trkpt lat="8.9057067" lon="-75.8022927"><ele>10.0</ele><time>2026-04-18T10:56:53.694Z</time></trkpt><trkpt lat="8.9057223" lon="-75.8023809"><ele>10.0</ele><time>2026-04-18T10:56:54.695Z</time></trkpt><trkpt lat="8.9057451" lon="-75.8024646"><ele>10.0</ele><time>2026-04-18T10:56:55.695Z</time></trkpt><trkpt lat="8.9057609" lon="-75.8025488"><ele>10.0</ele><time>2026-04-18T10:56:56.694Z</time></trkpt><trkpt lat="8.9057793" lon="-75.8026359"><ele>9.833333333333334</ele><time>2026-04-18T10:56:57.695Z</time></trkpt><trkpt lat="8.9057958" lon="-75.8027191"><ele>9.666666666666668</ele><time>2026-04-18T10:56:58.694Z</time></trkpt><trkpt lat="8.9058096" lon="-75.802805"><ele>9.5</ele><time>2026-04-18T10:56:59.695Z</time></trkpt><trkpt lat="8.9058255" lon="-75.8028915"><ele>9.333333333333334</ele><time>2026-04-18T10:57:00.694Z</time></trkpt><trkpt lat="8.9058439" lon="-75.8029761"><ele>9.166666666666666</ele><time>2026-04-18T10:57:01.694Z</time></trkpt><trkpt lat="8.9058635" lon="-75.8030595"><ele>9.0</ele><time>2026-04-18T10:57:02.693Z</time></trkpt><trkpt lat="8.9058796" lon="-75.8031421"><ele>9.0</ele><time>2026-04-18T10:57:03.695Z</time></trkpt><trkpt lat="8.9058989" lon="-75.8032231"><ele>9.0</ele><time>2026-04-18T10:57:04.693Z</time></trkpt><trkpt lat="8.9059205" lon="-75.8033031"><ele>9.0</ele><time>2026-04-18T10:57:05.695Z</time></trkpt><trkpt lat="8.9059446" lon="-75.8033824"><ele>9.0</ele><time>2026-04-18T10:57:06.695Z</time></trkpt><trkpt lat="8.9059642" lon="-75.80346"><ele>9.0</ele><time>2026-04-18T10:57:07.695Z</time></trkpt><trkpt lat="8.9059841" lon="-75.8035417"><ele>9.0</ele><time>2026-04-18T10:57:08.695Z</time></trkpt><trkpt lat="8.9060044" lon="-75.803623"><ele>9.0</ele><time>2026-04-18T10:57:09.696Z</time></trkpt><trkpt lat="8.9060297" lon="-75.8037056"><ele>9.0</ele><time>2026-04-18T10:57:10.695Z</time></trkpt><trkpt lat="8.9060494" lon="-75.8037898"><ele>9.0</ele><time>2026-04-18T10:57:11.694Z</time></trkpt><trkpt lat="8.9060704" lon="-75.8038756"><ele>9.0</ele><time>2026-04-18T10:57:12.694Z</time></trkpt><trkpt lat="8.9060941" lon="-75.8039575"><ele>9.0</ele><time>2026-04-18T10:57:13.694Z</time></trkpt><trkpt lat="8.9061195" lon="-75.8040405"><ele>9.0</ele><time>2026-04-18T10:57:14.696Z</time></trkpt><trkpt lat="8.9061463" lon="-75.80412"><ele>9.0</ele><time>2026-04-18T10:57:15.695Z</time></trkpt><trkpt lat="8.9061753" lon="-75.8041996"><ele>9.0</ele><time>2026-04-18T10:57:16.693Z</time></trkpt><trkpt lat="8.9062058" lon="-75.8042815"><ele>9.0</ele><time>2026-04-18T10:57:17.695Z</time></trkpt><trkpt lat="8.9062376" lon="-75.8043618"><ele>9.0</ele><time>2026-04-18T10:57:18.695Z</time></trkpt><trkpt lat="8.9062725" lon="-75.804441"><ele>9.0</ele><time>2026-04-18T10:57:19.694Z</time></trkpt><trkpt lat="8.9063051" lon="-75.80452"><ele>9.0</ele><time>2026-04-18T10:57:20.694Z</time></trkpt><trkpt lat="8.9063414" lon="-75.804601"><ele>9.166666666666666</ele><time>2026-04-18T10:57:21.694Z</time></trkpt><trkpt lat="8.9063815" lon="-75.8046759"><ele>9.333333333333334</ele><time>2026-04-18T10:57:22.694Z</time></trkpt><trkpt lat="8.9064234" lon="-75.8047486"><ele>9.5</ele><time>2026-04-18T10:57:23.695Z</time></trkpt><trkpt lat="8.9064671" lon="-75.8048243"><ele>9.666666666666668</ele><time>2026-04-18T10:57:24.694Z</time></trkpt><trkpt lat="8.906514" lon="-75.8048956"><ele>9.833333333333334</ele><time>2026-04-18T10:57:25.694Z</time></trkpt><trkpt lat="8.9065585" lon="-75.8049632"><ele>10.0</ele><time>2026-04-18T10:57:26.696Z</time></trkpt><trkpt lat="8.9066044" lon="-75.8050322"><ele>10.0</ele><time>2026-04-18T10:57:27.694Z</time></trkpt><trkpt lat="8.9066571" lon="-75.8051001"><ele>10.0</ele><time>2026-04-18T10:57:28.695Z</time></trkpt><trkpt lat="8.9067072" lon="-75.8051689"><ele>10.0</ele><time>2026-04-18T10:57:29.693Z</time></trkpt><trkpt lat="8.9067617" lon="-75.8052348"><ele>10.0</ele><time>2026-04-18T10:57:30.694Z</time></trkpt><trkpt lat="8.906819" lon="-75.8052984"><ele>10.0</ele><time>2026-04-18T10:57:31.694Z</time></trkpt><trkpt lat="8.9068774" lon="-75.8053607"><ele>10.0</ele><time>2026-04-18T10:57:32.694Z</time></trkpt><trkpt lat="8.9069353" lon="-75.8054213"><ele>10.5</ele><time>2026-04-18T10:57:33.694Z</time></trkpt><trkpt lat="8.9069923" lon="-75.8054772"><ele>11.0</ele><time>2026-04-18T10:57:34.694Z</time></trkpt><trkpt lat="8.907052" lon="-75.8055359"><ele>11.5</ele><time>2026-04-18T10:57:35.695Z</time></trkpt><trkpt lat="8.9071144" lon="-75.8055915"><ele>12.0</ele><time>2026-04-18T10:57:36.695Z</time></trkpt><trkpt lat="8.9071773" lon="-75.8056468"><ele>12.499999999999998</ele><time>2026-04-18T10:57:37.695Z</time></trkpt><trkpt lat="8.9072369" lon="-75.8057059"><ele>13.0</ele><time>2026-04-18T10:57:38.694Z</time></trkpt><trkpt lat="8.907298" lon="-75.8057641"><ele>12.999999999999998</ele><time>2026-04-18T10:57:39.694Z</time></trkpt><trkpt lat="8.9073592" lon="-75.8058255"><ele>13.0</ele><time>2026-04-18T10:57:40.694Z</time></trkpt><trkpt lat="8.9074166" lon="-75.8058849"><ele>13.0</ele><time>2026-04-18T10:57:41.695Z</time></trkpt><trkpt lat="8.9074731" lon="-75.8059438"><ele>13.0</ele><time>2026-04-18T10:57:42.695Z</time></trkpt><trkpt lat="8.9075275" lon="-75.8060067"><ele>12.999999999999998</ele><time>2026-04-18T10:57:43.694Z</time></trkpt><trkpt lat="8.9075811" lon="-75.8060652"><ele>13.0</ele><time>2026-04-18T10:57:44.695Z</time></trkpt><trkpt lat="8.9076314" lon="-75.8061247"><ele>13.0</ele><time>2026-04-18T10:57:45.694Z</time></trkpt><trkpt lat="8.9076864" lon="-75.8061784"><ele>13.0</ele><time>2026-04-18T10:57:46.694Z</time></trkpt><trkpt lat="8.9077424" lon="-75.806228"><ele>13.0</ele><time>2026-04-18T10:57:47.696Z</time></trkpt><trkpt lat="8.9078008" lon="-75.8062702"><ele>13.0</ele><time>2026-04-18T10:57:48.694Z</time></trkpt><trkpt lat="8.9078617" lon="-75.8063109"><ele>13.0</ele><time>2026-04-18T10:57:49.694Z</time></trkpt><trkpt lat="8.907923" lon="-75.8063507"><ele>13.0</ele><time>2026-04-18T10:57:50.695Z</time></trkpt><trkpt lat="8.9079866" lon="-75.8063867"><ele>13.0</ele><time>2026-04-18T10:57:51.695Z</time></trkpt><trkpt lat="8.9080493" lon="-75.806421"><ele>12.999999999999998</ele><time>2026-04-18T10:57:52.694Z</time></trkpt><trkpt lat="8.908113" lon="-75.8064546"><ele>13.0</ele><time>2026-04-18T10:57:53.694Z</time></trkpt><trkpt lat="8.9081772" lon="-75.8064916"><ele>13.0</ele><time>2026-04-18T10:57:54.694Z</time></trkpt><trkpt lat="8.9082427" lon="-75.8065286"><ele>13.0</ele><time>2026-04-18T10:57:55.695Z</time></trkpt><trkpt lat="8.9083125" lon="-75.8065714"><ele>12.999999999999998</ele><time>2026-04-18T10:57:56.695Z</time></trkpt><trkpt lat="8.9083801" lon="-75.8066187"><ele>13.0</ele><time>2026-04-18T10:57:57.695Z</time></trkpt><trkpt lat="8.9084444" lon="-75.8066524"><ele>12.833333333333332</ele><time>2026-04-18T10:57:58.695Z</time></trkpt><trkpt lat="8.9085144" lon="-75.8066911"><ele>12.666666666666666</ele><time>2026-04-18T10:57:59.694Z</time></trkpt><trkpt lat="8.9085712" lon="-75.8067236"><ele>12.5</ele><time>2026-04-18T10:58:00.694Z</time></trkpt><trkpt lat="8.9086417" lon="-75.8067593"><ele>12.333333333333332</ele><time>2026-04-18T10:58:01.694Z</time></trkpt><trkpt lat="8.908712" lon="-75.8067983"><ele>12.166666666666666</ele><time>2026-04-18T10:58:02.694Z</time></trkpt><trkpt lat="8.9087785" lon="-75.8068381"><ele>12.0</ele><time>2026-04-18T10:58:03.695Z</time></trkpt><trkpt lat="8.9088504" lon="-75.8068752"><ele>12.0</ele><time>2026-04-18T10:58:04.696Z</time></trkpt><trkpt lat="8.908916" lon="-75.8069118"><ele>12.0</ele><time>2026-04-18T10:58:05.694Z</time></trkpt><trkpt lat="8.9089825" lon="-75.8069515"><ele>12.0</ele><time>2026-04-18T10:58:06.694Z</time></trkpt><trkpt lat="8.9090566" lon="-75.8069909"><ele>12.0</ele><time>2026-04-18T10:58:07.695Z</time></trkpt><trkpt lat="8.9091287" lon="-75.8070333"><ele>12.0</ele><time>2026-04-18T10:58:08.695Z</time></trkpt><trkpt lat="8.9091972" lon="-75.8070748"><ele>12.0</ele><time>2026-04-18T10:58:09.695Z</time></trkpt><trkpt lat="8.9092678" lon="-75.8071191"><ele>11.833333333333334</ele><time>2026-04-18T10:58:10.695Z</time></trkpt><trkpt lat="8.9093404" lon="-75.8071623"><ele>11.666666666666666</ele><time>2026-04-18T10:58:11.694Z</time></trkpt><trkpt lat="8.9094115" lon="-75.8071988"><ele>11.5</ele><time>2026-04-18T10:58:12.694Z</time></trkpt><trkpt lat="8.9094792" lon="-75.8072377"><ele>11.333333333333332</ele><time>2026-04-18T10:58:13.694Z</time></trkpt><trkpt lat="8.9095483" lon="-75.8072784"><ele>11.166666666666666</ele><time>2026-04-18T10:58:14.695Z</time></trkpt><trkpt lat="8.9096172" lon="-75.807318"><ele>11.0</ele><time>2026-04-18T10:58:15.694Z</time></trkpt><trkpt lat="8.9096843" lon="-75.8073582"><ele>11.0</ele><time>2026-04-18T10:58:16.694Z</time></trkpt><trkpt lat="8.9097492" lon="-75.8073983"><ele>11.0</ele><time>2026-04-18T10:58:17.694Z</time></trkpt><trkpt lat="8.9098159" lon="-75.8074428"><ele>11.0</ele><time>2026-04-18T10:58:18.695Z</time></trkpt><trkpt lat="8.9098836" lon="-75.8074872"><ele>11.0</ele><time>2026-04-18T10:58:19.694Z</time></trkpt><trkpt lat="8.9099562" lon="-75.8075311"><ele>11.0</ele><time>2026-04-18T10:58:20.694Z</time></trkpt><trkpt lat="8.9100275" lon="-75.8075753"><ele>11.0</ele><time>2026-04-18T10:58:21.693Z</time></trkpt><trkpt lat="8.9100996" lon="-75.8076196"><ele>11.666666666666666</ele><time>2026-04-18T10:58:22.694Z</time></trkpt><trkpt lat="8.9101725" lon="-75.8076651"><ele>12.333333333333332</ele><time>2026-04-18T10:58:23.695Z</time></trkpt><trkpt lat="8.910244" lon="-75.8077088"><ele>13.0</ele><time>2026-04-18T10:58:24.694Z</time></trkpt><trkpt lat="8.9103136" lon="-75.8077531"><ele>13.666666666666666</ele><time>2026-04-18T10:58:25.694Z</time></trkpt><trkpt lat="8.9103877" lon="-75.807793"><ele>14.333333333333334</ele><time>2026-04-18T10:58:26.694Z</time></trkpt><trkpt lat="8.91046" lon="-75.8078352"><ele>15.0</ele><time>2026-04-18T10:58:27.695Z</time></trkpt><trkpt lat="8.91053" lon="-75.8078801"><ele>15.0</ele><time>2026-04-18T10:58:28.695Z</time></trkpt><trkpt lat="8.9106037" lon="-75.8079251"><ele>15.0</ele><time>2026-04-18T10:58:29.696Z</time></trkpt><trkpt lat="8.9106704" lon="-75.8079652"><ele>15.0</ele><time>2026-04-18T10:58:30.694Z</time></trkpt><trkpt lat="8.9107439" lon="-75.8080102"><ele>15.0</ele><time>2026-04-18T10:58:31.694Z</time></trkpt><trkpt lat="8.9108165" lon="-75.8080542"><ele>15.0</ele><time>2026-04-18T10:58:32.694Z</time></trkpt><trkpt lat="8.9108891" lon="-75.8080978"><ele>15.0</ele><time>2026-04-18T10:58:33.695Z</time></trkpt><trkpt lat="8.9109603" lon="-75.8081421"><ele>14.666666666666666</ele><time>2026-04-18T10:58:34.695Z</time></trkpt><trkpt lat="8.9110311" lon="-75.8081868"><ele>14.333333333333332</ele><time>2026-04-18T10:58:35.694Z</time></trkpt><trkpt lat="8.911101" lon="-75.8082325"><ele>14.0</ele><time>2026-04-18T10:58:36.696Z</time></trkpt><trkpt lat="8.9111734" lon="-75.8082758"><ele>13.666666666666666</ele><time>2026-04-18T10:58:37.694Z</time></trkpt><trkpt lat="8.9112421" lon="-75.8083153"><ele>13.333333333333332</ele><time>2026-04-18T10:58:38.694Z</time></trkpt><trkpt lat="8.9113163" lon="-75.8083607"><ele>13.0</ele><time>2026-04-18T10:58:39.695Z</time></trkpt><trkpt lat="8.9113914" lon="-75.8084044"><ele>12.999999999999998</ele><time>2026-04-18T10:58:40.694Z</time></trkpt><trkpt lat="8.9114657" lon="-75.8084472"><ele>13.0</ele><time>2026-04-18T10:58:41.696Z</time></trkpt><trkpt lat="8.9115401" lon="-75.8084963"><ele>13.0</ele><time>2026-04-18T10:58:42.695Z</time></trkpt><trkpt lat="8.9116144" lon="-75.8085388"><ele>13.0</ele><time>2026-04-18T10:58:43.694Z</time></trkpt><trkpt lat="8.9116906" lon="-75.8085812"><ele>12.999999999999998</ele><time>2026-04-18T10:58:44.694Z</time></trkpt><trkpt lat="8.9117628" lon="-75.8086255"><ele>13.0</ele><time>2026-04-18T10:58:45.694Z</time></trkpt><trkpt lat="8.9118382" lon="-75.8086717"><ele>12.833333333333332</ele><time>2026-04-18T10:58:46.694Z</time></trkpt><trkpt lat="8.9119143" lon="-75.8087154"><ele>12.666666666666666</ele><time>2026-04-18T10:58:47.695Z</time></trkpt><trkpt lat="8.9119945" lon="-75.808761"><ele>12.5</ele><time>2026-04-18T10:58:48.694Z</time></trkpt><trkpt lat="8.9120669" lon="-75.808805"><ele>12.333333333333332</ele><time>2026-04-18T10:58:49.694Z</time></trkpt><trkpt lat="8.9121405" lon="-75.8088463"><ele>12.166666666666666</ele><time>2026-04-18T10:58:50.694Z</time></trkpt><trkpt lat="8.9122108" lon="-75.8088908"><ele>12.0</ele><time>2026-04-18T10:58:51.694Z</time></trkpt><trkpt lat="8.9122821" lon="-75.8089324"><ele>12.0</ele><time>2026-04-18T10:58:52.694Z</time></trkpt><trkpt lat="8.9123545" lon="-75.8089775"><ele>12.0</ele><time>2026-04-18T10:58:53.695Z</time></trkpt><trkpt lat="8.9124251" lon="-75.8090204"><ele>12.0</ele><time>2026-04-18T10:58:54.695Z</time></trkpt><trkpt lat="8.9124948" lon="-75.8090626"><ele>12.0</ele><time>2026-04-18T10:58:55.695Z</time></trkpt><trkpt lat="8.9125687" lon="-75.809106"><ele>12.0</ele><time>2026-04-18T10:58:56.694Z</time></trkpt><trkpt lat="8.9126421" lon="-75.8091508"><ele>12.0</ele><time>2026-04-18T10:58:57.696Z</time></trkpt><trkpt lat="8.9127157" lon="-75.8091944"><ele>12.166666666666666</ele><time>2026-04-18T10:58:58.694Z</time></trkpt><trkpt lat="8.9127895" lon="-75.8092337"><ele>12.333333333333332</ele><time>2026-04-18T10:58:59.695Z</time></trkpt><trkpt lat="8.9128645" lon="-75.8092771"><ele>12.5</ele><time>2026-04-18T10:59:00.694Z</time></trkpt><trkpt lat="8.912933" lon="-75.8093212"><ele>12.666666666666666</ele><time>2026-04-18T10:59:01.694Z</time></trkpt><trkpt lat="8.9130025" lon="-75.8093665"><ele>12.833333333333332</ele><time>2026-04-18T10:59:02.694Z</time></trkpt><trkpt lat="8.9130709" lon="-75.809409"><ele>13.0</ele><time>2026-04-18T10:59:03.694Z</time></trkpt><trkpt lat="8.9131403" lon="-75.8094535"><ele>13.142857142857142</ele><time>2026-04-18T10:59:04.695Z</time></trkpt><trkpt lat="8.9132088" lon="-75.8094925"><ele>13.285714285714286</ele><time>2026-04-18T10:59:05.694Z</time></trkpt><trkpt lat="8.9132758" lon="-75.8095309"><ele>13.428571428571429</ele><time>2026-04-18T10:59:06.694Z</time></trkpt><trkpt lat="8.9133377" lon="-75.8095705"><ele>13.571428571428571</ele><time>2026-04-18T10:59:07.694Z</time></trkpt><trkpt lat="8.9133996" lon="-75.8096068"><ele>13.714285714285715</ele><time>2026-04-18T10:59:08.695Z</time></trkpt><trkpt lat="8.9134569" lon="-75.809643"><ele>13.857142857142858</ele><time>2026-04-18T10:59:09.694Z</time></trkpt><trkpt lat="8.91351" lon="-75.8096821"><ele>14.0</ele><time>2026-04-18T10:59:10.694Z</time></trkpt><trkpt lat="8.9136122" lon="-75.8097446"><ele>14.000000000000002</ele><time>2026-04-18T10:59:12.695Z</time></trkpt><trkpt lat="8.9137022" lon="-75.8097964"><ele>14.0</ele><time>2026-04-18T10:59:14.697Z</time></trkpt><trkpt lat="8.9137682" lon="-75.8098367"><ele>14.0</ele><time>2026-04-18T10:59:16.694Z</time></trkpt><trkpt lat="8.9138285" lon="-75.809863"><ele>14.0</ele><time>2026-04-18T10:59:18.694Z</time></trkpt><trkpt lat="8.9139025" lon="-75.8099081"><ele>14.000000000000002</ele><time>2026-04-18T10:59:20.695Z</time></trkpt><trkpt lat="8.913996" lon="-75.8099581"><ele>14.0</ele><time>2026-04-18T10:59:22.696Z</time></trkpt><trkpt lat="8.9141137" lon="-75.8099948"><ele>14.0</ele><time>2026-04-18T10:59:24.694Z</time></trkpt><trkpt lat="8.9141759" lon="-75.810011"><ele>14.0</ele><time>2026-04-18T10:59:25.694Z</time></trkpt><trkpt lat="8.9142387" lon="-75.8100274"><ele>14.0</ele><time>2026-04-18T10:59:26.696Z</time></trkpt><trkpt lat="8.9143049" lon="-75.8100497"><ele>14.0</ele><time>2026-04-18T10:59:27.694Z</time></trkpt><trkpt lat="8.9143674" lon="-75.8100775"><ele>14.0</ele><time>2026-04-18T10:59:28.694Z</time></trkpt><trkpt lat="8.9144266" lon="-75.810107"><ele>14.0</ele><time>2026-04-18T10:59:29.694Z</time></trkpt><trkpt lat="8.9144855" lon="-75.810145"><ele>14.0</ele><time>2026-04-18T10:59:30.695Z</time></trkpt><trkpt lat="8.9145473" lon="-75.8101768"><ele>14.166666666666668</ele><time>2026-04-18T10:59:31.694Z</time></trkpt><trkpt lat="8.9146166" lon="-75.8102184"><ele>14.333333333333334</ele><time>2026-04-18T10:59:32.695Z</time></trkpt><trkpt lat="8.9146843" lon="-75.8102498"><ele>14.5</ele><time>2026-04-18T10:59:33.694Z</time></trkpt><trkpt lat="8.9147488" lon="-75.8102823"><ele>14.666666666666668</ele><time>2026-04-18T10:59:34.693Z</time></trkpt><trkpt lat="8.9148156" lon="-75.8103158"><ele>14.833333333333334</ele><time>2026-04-18T10:59:35.694Z</time></trkpt><trkpt lat="8.9148801" lon="-75.8103509"><ele>15.0</ele><time>2026-04-18T10:59:36.695Z</time></trkpt><trkpt lat="8.9149446" lon="-75.8103903"><ele>15.0</ele><time>2026-04-18T10:59:37.694Z</time></trkpt><trkpt lat="8.9150061" lon="-75.8104256"><ele>15.0</ele><time>2026-04-18T10:59:38.694Z</time></trkpt><trkpt lat="8.9150685" lon="-75.8104578"><ele>15.0</ele><time>2026-04-18T10:59:39.694Z</time></trkpt><trkpt lat="8.9151291" lon="-75.8104925"><ele>15.0</ele><time>2026-04-18T10:59:40.694Z</time></trkpt><trkpt lat="8.91519" lon="-75.8105303"><ele>15.0</ele><time>2026-04-18T10:59:41.695Z</time></trkpt><trkpt lat="8.9152495" lon="-75.8105675"><ele>15.0</ele><time>2026-04-18T10:59:42.697Z</time></trkpt><trkpt lat="8.9153092" lon="-75.8106042"><ele>15.0</ele><time>2026-04-18T10:59:43.694Z</time></trkpt><trkpt lat="8.9153704" lon="-75.810638"><ele>14.571428571428571</ele><time>2026-04-18T10:59:44.694Z</time></trkpt><trkpt lat="8.9154328" lon="-75.8106744"><ele>14.142857142857142</ele><time>2026-04-18T10:59:45.694Z</time></trkpt><trkpt lat="8.9154967" lon="-75.8107084"><ele>13.714285714285714</ele><time>2026-04-18T10:59:46.694Z</time></trkpt><trkpt lat="8.9155584" lon="-75.8107417"><ele>13.285714285714285</ele><time>2026-04-18T10:59:47.695Z</time></trkpt><trkpt lat="8.9156144" lon="-75.8107795"><ele>12.857142857142858</ele><time>2026-04-18T10:59:48.695Z</time></trkpt><trkpt lat="8.9156766" lon="-75.8108191"><ele>12.428571428571427</ele><time>2026-04-18T10:59:49.694Z</time></trkpt><trkpt lat="8.9157376" lon="-75.8108549"><ele>12.0</ele><time>2026-04-18T10:59:50.693Z</time></trkpt><trkpt lat="8.9157991" lon="-75.8108898"><ele>11.999999999999998</ele><time>2026-04-18T10:59:51.694Z</time></trkpt><trkpt lat="8.9158629" lon="-75.8109281"><ele>12.0</ele><time>2026-04-18T10:59:52.694Z</time></trkpt><trkpt lat="8.9159248" lon="-75.8109679"><ele>12.0</ele><time>2026-04-18T10:59:53.694Z</time></trkpt><trkpt lat="8.9159879" lon="-75.8110049"><ele>12.0</ele><time>2026-04-18T10:59:54.694Z</time></trkpt><trkpt lat="8.9160517" lon="-75.8110445"><ele>12.0</ele><time>2026-04-18T10:59:55.694Z</time></trkpt><trkpt lat="8.9161152" lon="-75.8110855"><ele>11.999999999999998</ele><time>2026-04-18T10:59:56.694Z</time></trkpt><trkpt lat="8.916179" lon="-75.8111219"><ele>12.0</ele><time>2026-04-18T10:59:57.696Z</time></trkpt><trkpt lat="8.9162403" lon="-75.8111547"><ele>12.0</ele><time>2026-04-18T10:59:58.695Z</time></trkpt><trkpt lat="8.9163059" lon="-75.8111936"><ele>12.0</ele><time>2026-04-18T10:59:59.695Z</time></trkpt><trkpt lat="8.9163717" lon="-75.8112353"><ele>12.0</ele><time>2026-04-18T11:00:00.694Z</time></trkpt><trkpt lat="8.9164371" lon="-75.8112762"><ele>12.0</ele><time>2026-04-18T11:00:01.694Z</time></trkpt><trkpt lat="8.9165032" lon="-75.8113142"><ele>12.0</ele><time>2026-04-18T11:00:02.694Z</time></trkpt><trkpt lat="8.9165651" lon="-75.8113499"><ele>12.0</ele><time>2026-04-18T11:00:03.693Z</time></trkpt><trkpt lat="8.9166301" lon="-75.8113859"><ele>12.0</ele><time>2026-04-18T11:00:04.696Z</time></trkpt><trkpt lat="8.9166971" lon="-75.8114234"><ele>12.0</ele><time>2026-04-18T11:00:05.694Z</time></trkpt><trkpt lat="8.9167632" lon="-75.811462"><ele>12.0</ele><time>2026-04-18T11:00:06.693Z</time></trkpt><trkpt lat="8.9168322" lon="-75.8115027"><ele>12.0</ele><time>2026-04-18T11:00:07.694Z</time></trkpt><trkpt lat="8.9168961" lon="-75.8115411"><ele>12.0</ele><time>2026-04-18T11:00:08.694Z</time></trkpt><trkpt lat="8.9169625" lon="-75.8115803"><ele>12.0</ele><time>2026-04-18T11:00:09.695Z</time></trkpt><trkpt lat="8.9170259" lon="-75.8116187"><ele>12.166666666666666</ele><time>2026-04-18T11:00:10.694Z</time></trkpt><trkpt lat="8.9170913" lon="-75.81166"><ele>12.333333333333332</ele><time>2026-04-18T11:00:11.693Z</time></trkpt><trkpt lat="8.9171562" lon="-75.8116998"><ele>12.5</ele><time>2026-04-18T11:00:12.695Z</time></trkpt><trkpt lat="8.9172237" lon="-75.81174"><ele>12.666666666666666</ele><time>2026-04-18T11:00:13.694Z</time></trkpt><trkpt lat="8.9172904" lon="-75.8117782"><ele>12.833333333333332</ele><time>2026-04-18T11:00:14.695Z</time></trkpt><trkpt lat="8.9173552" lon="-75.8118223"><ele>13.0</ele><time>2026-04-18T11:00:15.694Z</time></trkpt><trkpt lat="8.9174166" lon="-75.8118674"><ele>12.999999999999998</ele><time>2026-04-18T11:00:16.693Z</time></trkpt><trkpt lat="8.9174835" lon="-75.8119096"><ele>13.0</ele><time>2026-04-18T11:00:17.695Z</time></trkpt><trkpt lat="8.9175505" lon="-75.8119534"><ele>13.0</ele><time>2026-04-18T11:00:18.694Z</time></trkpt><trkpt lat="8.9176192" lon="-75.8119984"><ele>13.0</ele><time>2026-04-18T11:00:19.694Z</time></trkpt><trkpt lat="8.917693" lon="-75.8120441"><ele>12.999999999999998</ele><time>2026-04-18T11:00:20.694Z</time></trkpt><trkpt lat="8.9177694" lon="-75.8120869"><ele>13.0</ele><time>2026-04-18T11:00:21.694Z</time></trkpt><trkpt lat="8.9178456" lon="-75.8121319"><ele>12.833333333333332</ele><time>2026-04-18T11:00:22.694Z</time></trkpt><trkpt lat="8.9179255" lon="-75.8121814"><ele>12.666666666666666</ele><time>2026-04-18T11:00:23.694Z</time></trkpt><trkpt lat="8.9180021" lon="-75.8122331"><ele>12.5</ele><time>2026-04-18T11:00:24.695Z</time></trkpt><trkpt lat="8.9180785" lon="-75.81228"><ele>12.333333333333332</ele><time>2026-04-18T11:00:25.694Z</time></trkpt><trkpt lat="8.9181491" lon="-75.8123269"><ele>12.166666666666666</ele><time>2026-04-18T11:00:26.694Z</time></trkpt><trkpt lat="8.9182214" lon="-75.8123769"><ele>12.0</ele><time>2026-04-18T11:00:27.695Z</time></trkpt><trkpt lat="8.9182934" lon="-75.8124232"><ele>12.0</ele><time>2026-04-18T11:00:28.695Z</time></trkpt><trkpt lat="8.9183603" lon="-75.8124683"><ele>12.0</ele><time>2026-04-18T11:00:29.695Z</time></trkpt><trkpt lat="8.9184313" lon="-75.8125142"><ele>12.0</ele><time>2026-04-18T11:00:30.695Z</time></trkpt><trkpt lat="8.9185014" lon="-75.8125617"><ele>12.0</ele><time>2026-04-18T11:00:31.695Z</time></trkpt><trkpt lat="8.9185751" lon="-75.812609"><ele>12.0</ele><time>2026-04-18T11:00:32.695Z</time></trkpt><trkpt lat="8.918646" lon="-75.8126575"><ele>12.0</ele><time>2026-04-18T11:00:33.694Z</time></trkpt><trkpt lat="8.9187232" lon="-75.8126987"><ele>12.0</ele><time>2026-04-18T11:00:34.695Z</time></trkpt><trkpt lat="8.9187955" lon="-75.8127472"><ele>12.0</ele><time>2026-04-18T11:00:35.694Z</time></trkpt><trkpt lat="8.918865" lon="-75.8127973"><ele>12.0</ele><time>2026-04-18T11:00:36.695Z</time></trkpt><trkpt lat="8.9189362" lon="-75.812847"><ele>12.0</ele><time>2026-04-18T11:00:37.695Z</time></trkpt><trkpt lat="8.9190102" lon="-75.8128956"><ele>12.0</ele><time>2026-04-18T11:00:38.695Z</time></trkpt><trkpt lat="8.9190815" lon="-75.8129457"><ele>12.0</ele><time>2026-04-18T11:00:39.695Z</time></trkpt><trkpt lat="8.9191518" lon="-75.8129948"><ele>12.0</ele><time>2026-04-18T11:00:40.694Z</time></trkpt><trkpt lat="8.9192239" lon="-75.8130449"><ele>12.0</ele><time>2026-04-18T11:00:41.695Z</time></trkpt><trkpt lat="8.9192941" lon="-75.8130931"><ele>12.0</ele><time>2026-04-18T11:00:42.695Z</time></trkpt><trkpt lat="8.9193673" lon="-75.8131391"><ele>12.0</ele><time>2026-04-18T11:00:43.693Z</time></trkpt><trkpt lat="8.9194443" lon="-75.8131904"><ele>12.0</ele><time>2026-04-18T11:00:44.694Z</time></trkpt><trkpt lat="8.9195187" lon="-75.8132369"><ele>12.0</ele><time>2026-04-18T11:00:45.694Z</time></trkpt><trkpt lat="8.9195919" lon="-75.813284"><ele>12.0</ele><time>2026-04-18T11:00:46.694Z</time></trkpt><trkpt lat="8.9196663" lon="-75.8133379"><ele>12.0</ele><time>2026-04-18T11:00:47.695Z</time></trkpt><trkpt lat="8.9197406" lon="-75.8133848"><ele>12.0</ele><time>2026-04-18T11:00:48.694Z</time></trkpt><trkpt lat="8.9198114" lon="-75.8134311"><ele>12.0</ele><time>2026-04-18T11:00:49.694Z</time></trkpt><trkpt lat="8.9198784" lon="-75.8134764"><ele>12.0</ele><time>2026-04-18T11:00:50.694Z</time></trkpt><trkpt lat="8.9199523" lon="-75.8135224"><ele>12.0</ele><time>2026-04-18T11:00:51.694Z</time></trkpt><trkpt lat="8.9200251" lon="-75.8135704"><ele>12.333333333333334</ele><time>2026-04-18T11:00:52.694Z</time></trkpt><trkpt lat="8.9201006" lon="-75.8136191"><ele>12.666666666666668</ele><time>2026-04-18T11:00:53.695Z</time></trkpt><trkpt lat="8.920179" lon="-75.8136649"><ele>13.0</ele><time>2026-04-18T11:00:54.694Z</time></trkpt><trkpt lat="8.9202517" lon="-75.8137144"><ele>13.333333333333334</ele><time>2026-04-18T11:00:55.694Z</time></trkpt><trkpt lat="8.9203268" lon="-75.8137648"><ele>13.666666666666668</ele><time>2026-04-18T11:00:56.694Z</time></trkpt><trkpt lat="8.9204029" lon="-75.8138132"><ele>14.0</ele><time>2026-04-18T11:00:57.694Z</time></trkpt><trkpt lat="8.9204787" lon="-75.8138569"><ele>14.000000000000002</ele><time>2026-04-18T11:00:58.694Z</time></trkpt><trkpt lat="8.9205545" lon="-75.8139001"><ele>14.0</ele><time>2026-04-18T11:00:59.694Z</time></trkpt><trkpt lat="8.9206326" lon="-75.8139478"><ele>14.0</ele><time>2026-04-18T11:01:00.695Z</time></trkpt><trkpt lat="8.9207083" lon="-75.8139922"><ele>14.0</ele><time>2026-04-18T11:01:01.695Z</time></trkpt><trkpt lat="8.9207861" lon="-75.8140332"><ele>14.000000000000002</ele><time>2026-04-18T11:01:02.694Z</time></trkpt><trkpt lat="8.9208638" lon="-75.8140782"><ele>14.0</ele><time>2026-04-18T11:01:03.694Z</time></trkpt><trkpt lat="8.9209399" lon="-75.8141209"><ele>14.000000000000002</ele><time>2026-04-18T11:01:04.694Z</time></trkpt><trkpt lat="8.9210148" lon="-75.8141643"><ele>14.0</ele><time>2026-04-18T11:01:05.694Z</time></trkpt><trkpt lat="8.9210913" lon="-75.8142037"><ele>14.0</ele><time>2026-04-18T11:01:06.695Z</time></trkpt><trkpt lat="8.9211683" lon="-75.8142506"><ele>14.0</ele><time>2026-04-18T11:01:07.695Z</time></trkpt><trkpt lat="8.921244" lon="-75.8142937"><ele>14.000000000000002</ele><time>2026-04-18T11:01:08.694Z</time></trkpt><trkpt lat="8.9213242" lon="-75.8143442"><ele>14.0</ele><time>2026-04-18T11:01:09.695Z</time></trkpt><trkpt lat="8.9214042" lon="-75.8143924"><ele>14.0</ele><time>2026-04-18T11:01:10.695Z</time></trkpt><trkpt lat="8.9214837" lon="-75.8144387"><ele>13.999999999999998</ele><time>2026-04-18T11:01:11.695Z</time></trkpt><trkpt lat="8.9215596" lon="-75.8144871"><ele>13.999999999999998</ele><time>2026-04-18T11:01:12.694Z</time></trkpt><trkpt lat="8.9216386" lon="-75.8145358"><ele>14.0</ele><time>2026-04-18T11:01:13.695Z</time></trkpt><trkpt lat="8.9217171" lon="-75.8145793"><ele>14.0</ele><time>2026-04-18T11:01:14.694Z</time></trkpt><trkpt lat="8.921795" lon="-75.8146273"><ele>14.0</ele><time>2026-04-18T11:01:15.694Z</time></trkpt><trkpt lat="8.9218747" lon="-75.8146737"><ele>13.999999999999998</ele><time>2026-04-18T11:01:16.694Z</time></trkpt><trkpt lat="8.9219572" lon="-75.814716"><ele>13.999999999999998</ele><time>2026-04-18T11:01:17.694Z</time></trkpt><trkpt lat="8.922042" lon="-75.8147671"><ele>14.0</ele><time>2026-04-18T11:01:18.694Z</time></trkpt><trkpt lat="8.9221226" lon="-75.8148188"><ele>14.0</ele><time>2026-04-18T11:01:19.694Z</time></trkpt><trkpt lat="8.9222089" lon="-75.8148729"><ele>14.0</ele><time>2026-04-18T11:01:20.694Z</time></trkpt><trkpt lat="8.9222928" lon="-75.8149242"><ele>13.999999999999998</ele><time>2026-04-18T11:01:21.694Z</time></trkpt><trkpt lat="8.9223765" lon="-75.8149765"><ele>13.999999999999998</ele><time>2026-04-18T11:01:22.694Z</time></trkpt><trkpt lat="8.9224616" lon="-75.8150293"><ele>14.0</ele><time>2026-04-18T11:01:23.694Z</time></trkpt><trkpt lat="8.9225493" lon="-75.8150824"><ele>14.0</ele><time>2026-04-18T11:01:24.694Z</time></trkpt><trkpt lat="8.9226321" lon="-75.8151323"><ele>14.0</ele><time>2026-04-18T11:01:25.693Z</time></trkpt><trkpt lat="8.9227143" lon="-75.815182"><ele>13.999999999999998</ele><time>2026-04-18T11:01:26.695Z</time></trkpt><trkpt lat="8.9227972" lon="-75.8152298"><ele>13.999999999999998</ele><time>2026-04-18T11:01:27.694Z</time></trkpt><trkpt lat="8.9228822" lon="-75.8152798"><ele>14.0</ele><time>2026-04-18T11:01:28.694Z</time></trkpt><trkpt lat="8.9229635" lon="-75.8153243"><ele>14.0</ele><time>2026-04-18T11:01:29.694Z</time></trkpt><trkpt lat="8.9230474" lon="-75.815371"><ele>14.0</ele><time>2026-04-18T11:01:30.693Z</time></trkpt><trkpt lat="8.9231291" lon="-75.815419"><ele>13.999999999999998</ele><time>2026-04-18T11:01:31.694Z</time></trkpt><trkpt lat="8.9232099" lon="-75.8154682"><ele>13.999999999999998</ele><time>2026-04-18T11:01:32.694Z</time></trkpt><trkpt lat="8.9232938" lon="-75.8155173"><ele>14.0</ele><time>2026-04-18T11:01:33.694Z</time></trkpt><trkpt lat="8.9233751" lon="-75.8155682"><ele>14.0</ele><time>2026-04-18T11:01:34.694Z</time></trkpt><trkpt lat="8.9234543" lon="-75.8156144"><ele>13.6</ele><time>2026-04-18T11:01:35.694Z</time></trkpt><trkpt lat="8.9235362" lon="-75.8156637"><ele>13.2</ele><time>2026-04-18T11:01:36.694Z</time></trkpt><trkpt lat="8.9236159" lon="-75.8157117"><ele>12.799999999999999</ele><time>2026-04-18T11:01:37.693Z</time></trkpt><trkpt lat="8.9236945" lon="-75.8157592"><ele>12.399999999999999</ele><time>2026-04-18T11:01:38.694Z</time></trkpt><trkpt lat="8.923778" lon="-75.8158074"><ele>12.0</ele><time>2026-04-18T11:01:39.694Z</time></trkpt><trkpt lat="8.9238589" lon="-75.8158584"><ele>12.0</ele><time>2026-04-18T11:01:40.695Z</time></trkpt><trkpt lat="8.9239414" lon="-75.8159053"><ele>12.0</ele><time>2026-04-18T11:01:41.694Z</time></trkpt><trkpt lat="8.9240229" lon="-75.8159534"><ele>12.0</ele><time>2026-04-18T11:01:42.694Z</time></trkpt><trkpt lat="8.9241067" lon="-75.8160012"><ele>12.0</ele><time>2026-04-18T11:01:43.694Z</time></trkpt><trkpt lat="8.9241894" lon="-75.8160481"><ele>12.0</ele><time>2026-04-18T11:01:44.694Z</time></trkpt><trkpt lat="8.9242731" lon="-75.8160963"><ele>12.0</ele><time>2026-04-18T11:01:45.695Z</time></trkpt><trkpt lat="8.9243573" lon="-75.8161459"><ele>12.0</ele><time>2026-04-18T11:01:46.695Z</time></trkpt><trkpt lat="8.9244392" lon="-75.8161943"><ele>12.0</ele><time>2026-04-18T11:01:47.694Z</time></trkpt><trkpt lat="8.9245233" lon="-75.8162466"><ele>12.0</ele><time>2026-04-18T11:01:48.695Z</time></trkpt><trkpt lat="8.9246107" lon="-75.8162946"><ele>12.0</ele><time>2026-04-18T11:01:49.694Z</time></trkpt><trkpt lat="8.9246934" lon="-75.8163427"><ele>12.0</ele><time>2026-04-18T11:01:50.694Z</time></trkpt><trkpt lat="8.9247791" lon="-75.8163917"><ele>12.0</ele><time>2026-04-18T11:01:51.695Z</time></trkpt><trkpt lat="8.9248622" lon="-75.816439"><ele>12.0</ele><time>2026-04-18T11:01:52.694Z</time></trkpt><trkpt lat="8.9249489" lon="-75.8164904"><ele>12.0</ele><time>2026-04-18T11:01:53.694Z</time></trkpt><trkpt lat="8.9250324" lon="-75.8165346"><ele>12.0</ele><time>2026-04-18T11:01:54.694Z</time></trkpt><trkpt lat="8.9251124" lon="-75.8165869"><ele>12.0</ele><time>2026-04-18T11:01:55.694Z</time></trkpt><trkpt lat="8.9251936" lon="-75.8166371"><ele>12.0</ele><time>2026-04-18T11:01:56.694Z</time></trkpt><trkpt lat="8.9252745" lon="-75.8166832"><ele>12.0</ele><time>2026-04-18T11:01:57.694Z</time></trkpt><trkpt lat="8.9253521" lon="-75.8167335"><ele>12.0</ele><time>2026-04-18T11:01:58.695Z</time></trkpt><trkpt lat="8.9254306" lon="-75.8167845"><ele>12.0</ele><time>2026-04-18T11:01:59.695Z</time></trkpt><trkpt lat="8.9255137" lon="-75.8168314"><ele>12.0</ele><time>2026-04-18T11:02:00.694Z</time></trkpt><trkpt lat="8.9255922" lon="-75.8168771"><ele>12.0</ele><time>2026-04-18T11:02:01.695Z</time></trkpt><trkpt lat="8.9256732" lon="-75.816928"><ele>12.0</ele><time>2026-04-18T11:02:02.694Z</time></trkpt><trkpt lat="8.9257557" lon="-75.81698"><ele>12.0</ele><time>2026-04-18T11:02:03.694Z</time></trkpt><trkpt lat="8.9258403" lon="-75.8170269"><ele>12.0</ele><time>2026-04-18T11:02:04.694Z</time></trkpt><trkpt lat="8.9259239" lon="-75.8170757"><ele>12.0</ele><time>2026-04-18T11:02:05.694Z</time></trkpt><trkpt lat="8.9260085" lon="-75.8171264"><ele>12.0</ele><time>2026-04-18T11:02:06.694Z</time></trkpt><trkpt lat="8.9260923" lon="-75.817174"><ele>12.0</ele><time>2026-04-18T11:02:07.694Z</time></trkpt><trkpt lat="8.9261737" lon="-75.8172218"><ele>12.0</ele><time>2026-04-18T11:02:08.695Z</time></trkpt><trkpt lat="8.9262541" lon="-75.8172701"><ele>12.0</ele><time>2026-04-18T11:02:09.694Z</time></trkpt><trkpt lat="8.9263375" lon="-75.8173199"><ele>12.0</ele><time>2026-04-18T11:02:10.694Z</time></trkpt><trkpt lat="8.9264215" lon="-75.8173706"><ele>12.0</ele><time>2026-04-18T11:02:11.694Z</time></trkpt><trkpt lat="8.9265034" lon="-75.8174203"><ele>12.0</ele><time>2026-04-18T11:02:12.694Z</time></trkpt><trkpt lat="8.9265882" lon="-75.8174709"><ele>12.0</ele><time>2026-04-18T11:02:13.694Z</time></trkpt><trkpt lat="8.9266735" lon="-75.81752"><ele>12.0</ele><time>2026-04-18T11:02:14.695Z</time></trkpt><trkpt lat="8.9267533" lon="-75.8175656"><ele>11.6</ele><time>2026-04-18T11:02:15.694Z</time></trkpt><trkpt lat="8.9268362" lon="-75.8176138"><ele>11.2</ele><time>2026-04-18T11:02:16.695Z</time></trkpt><trkpt lat="8.9269186" lon="-75.8176654"><ele>10.8</ele><time>2026-04-18T11:02:17.694Z</time></trkpt><trkpt lat="8.9270009" lon="-75.8177156"><ele>10.4</ele><time>2026-04-18T11:02:18.695Z</time></trkpt><trkpt lat="8.9270853" lon="-75.8177683"><ele>10.0</ele><time>2026-04-18T11:02:19.693Z</time></trkpt><trkpt lat="8.9271641" lon="-75.8178197"><ele>10.0</ele><time>2026-04-18T11:02:20.694Z</time></trkpt><trkpt lat="8.9272453" lon="-75.8178685"><ele>10.0</ele><time>2026-04-18T11:02:21.694Z</time></trkpt><trkpt lat="8.9273299" lon="-75.8179146"><ele>10.0</ele><time>2026-04-18T11:02:22.694Z</time></trkpt><trkpt lat="8.9274105" lon="-75.8179622"><ele>10.0</ele><time>2026-04-18T11:02:23.694Z</time></trkpt><trkpt lat="8.9274903" lon="-75.8180083"><ele>10.0</ele><time>2026-04-18T11:02:24.694Z</time></trkpt><trkpt lat="8.9275723" lon="-75.818058"><ele>10.0</ele><time>2026-04-18T11:02:25.695Z</time></trkpt><trkpt lat="8.9276564" lon="-75.8181071"><ele>10.0</ele><time>2026-04-18T11:02:26.694Z</time></trkpt><trkpt lat="8.9277381" lon="-75.8181576"><ele>10.0</ele><time>2026-04-18T11:02:27.695Z</time></trkpt><trkpt lat="8.9278215" lon="-75.8182068"><ele>10.0</ele><time>2026-04-18T11:02:28.695Z</time></trkpt><trkpt lat="8.9279052" lon="-75.8182564"><ele>10.0</ele><time>2026-04-18T11:02:29.693Z</time></trkpt><trkpt lat="8.9279885" lon="-75.8183067"><ele>10.0</ele><time>2026-04-18T11:02:30.693Z</time></trkpt><trkpt lat="8.9280706" lon="-75.8183576"><ele>10.0</ele><time>2026-04-18T11:02:31.694Z</time></trkpt><trkpt lat="8.9281536" lon="-75.8184072"><ele>10.0</ele><time>2026-04-18T11:02:32.695Z</time></trkpt><trkpt lat="8.9282355" lon="-75.8184562"><ele>10.0</ele><time>2026-04-18T11:02:33.695Z</time></trkpt><trkpt lat="8.9283205" lon="-75.818506"><ele>10.0</ele><time>2026-04-18T11:02:34.694Z</time></trkpt><trkpt lat="8.9284022" lon="-75.8185591"><ele>9.8</ele><time>2026-04-18T11:02:35.695Z</time></trkpt><trkpt lat="8.9284897" lon="-75.8186108"><ele>9.6</ele><time>2026-04-18T11:02:36.695Z</time></trkpt><trkpt lat="8.9285759" lon="-75.8186575"><ele>9.4</ele><time>2026-04-18T11:02:37.694Z</time></trkpt><trkpt lat="8.9286631" lon="-75.8187102"><ele>9.2</ele><time>2026-04-18T11:02:38.694Z</time></trkpt><trkpt lat="8.9287452" lon="-75.8187581"><ele>9.0</ele><time>2026-04-18T11:02:39.694Z</time></trkpt><trkpt lat="8.9288277" lon="-75.8188094"><ele>9.0</ele><time>2026-04-18T11:02:40.694Z</time></trkpt><trkpt lat="8.9289123" lon="-75.8188594"><ele>9.0</ele><time>2026-04-18T11:02:41.695Z</time></trkpt><trkpt lat="8.9289941" lon="-75.8189133"><ele>9.0</ele><time>2026-04-18T11:02:42.695Z</time></trkpt><trkpt lat="8.9290748" lon="-75.8189614"><ele>9.0</ele><time>2026-04-18T11:02:43.695Z</time></trkpt><trkpt lat="8.9291583" lon="-75.8190134"><ele>9.0</ele><time>2026-04-18T11:02:44.694Z</time></trkpt><trkpt lat="8.9292421" lon="-75.819062"><ele>9.0</ele><time>2026-04-18T11:02:45.694Z</time></trkpt><trkpt lat="8.9293265" lon="-75.8191105"><ele>9.0</ele><time>2026-04-18T11:02:46.693Z</time></trkpt><trkpt lat="8.9294072" lon="-75.8191616"><ele>9.0</ele><time>2026-04-18T11:02:47.694Z</time></trkpt><trkpt lat="8.9294901" lon="-75.8192126"><ele>9.0</ele><time>2026-04-18T11:02:48.694Z</time></trkpt><trkpt lat="8.929574" lon="-75.8192625"><ele>9.0</ele><time>2026-04-18T11:02:49.694Z</time></trkpt><trkpt lat="8.9296526" lon="-75.8193118"><ele>9.2</ele><time>2026-04-18T11:02:50.694Z</time></trkpt><trkpt lat="8.9297309" lon="-75.8193648"><ele>9.4</ele><time>2026-04-18T11:02:51.694Z</time></trkpt><trkpt lat="8.9298155" lon="-75.8194163"><ele>9.6</ele><time>2026-04-18T11:02:52.693Z</time></trkpt><trkpt lat="8.9298968" lon="-75.8194641"><ele>9.8</ele><time>2026-04-18T11:02:53.695Z</time></trkpt><trkpt lat="8.9299796" lon="-75.8195149"><ele>10.0</ele><time>2026-04-18T11:02:54.694Z</time></trkpt><trkpt lat="8.9300617" lon="-75.8195612"><ele>10.6</ele><time>2026-04-18T11:02:55.694Z</time></trkpt><trkpt lat="8.9301458" lon="-75.8196076"><ele>11.2</ele><time>2026-04-18T11:02:56.694Z</time></trkpt><trkpt lat="8.9302298" lon="-75.8196582"><ele>11.8</ele><time>2026-04-18T11:02:57.695Z</time></trkpt><trkpt lat="8.9303134" lon="-75.8197102"><ele>12.4</ele><time>2026-04-18T11:02:58.694Z</time></trkpt><trkpt lat="8.9303977" lon="-75.8197592"><ele>13.0</ele><time>2026-04-18T11:02:59.694Z</time></trkpt><trkpt lat="8.9304788" lon="-75.819811"><ele>13.0</ele><time>2026-04-18T11:03:00.695Z</time></trkpt><trkpt lat="8.9305624" lon="-75.8198613"><ele>13.0</ele><time>2026-04-18T11:03:01.694Z</time></trkpt><trkpt lat="8.930645" lon="-75.8199139"><ele>13.0</ele><time>2026-04-18T11:03:02.695Z</time></trkpt><trkpt lat="8.9307334" lon="-75.8199647"><ele>13.0</ele><time>2026-04-18T11:03:03.694Z</time></trkpt><trkpt lat="8.9308214" lon="-75.8200116"><ele>13.0</ele><time>2026-04-18T11:03:04.694Z</time></trkpt><trkpt lat="8.9309036" lon="-75.8200604"><ele>12.8</ele><time>2026-04-18T11:03:05.694Z</time></trkpt><trkpt lat="8.9309876" lon="-75.8201075"><ele>12.600000000000001</ele><time>2026-04-18T11:03:06.694Z</time></trkpt><trkpt lat="8.9310731" lon="-75.820157"><ele>12.399999999999999</ele><time>2026-04-18T11:03:07.694Z</time></trkpt><trkpt lat="8.931156" lon="-75.8202066"><ele>12.2</ele><time>2026-04-18T11:03:08.694Z</time></trkpt><trkpt lat="8.9312387" lon="-75.820252"><ele>12.0</ele><time>2026-04-18T11:03:09.694Z</time></trkpt><trkpt lat="8.9313213" lon="-75.8203001"><ele>12.0</ele><time>2026-04-18T11:03:10.694Z</time></trkpt><trkpt lat="8.9314029" lon="-75.8203535"><ele>12.0</ele><time>2026-04-18T11:03:11.694Z</time></trkpt><trkpt lat="8.9314845" lon="-75.8204014"><ele>12.0</ele><time>2026-04-18T11:03:12.694Z</time></trkpt><trkpt lat="8.9315618" lon="-75.820446"><ele>12.0</ele><time>2026-04-18T11:03:13.694Z</time></trkpt><trkpt lat="8.9316375" lon="-75.8204876"><ele>12.0</ele><time>2026-04-18T11:03:14.694Z</time></trkpt><trkpt lat="8.9317142" lon="-75.820529"><ele>12.333333333333334</ele><time>2026-04-18T11:03:15.694Z</time></trkpt><trkpt lat="8.9317865" lon="-75.8205723"><ele>12.666666666666668</ele><time>2026-04-18T11:03:16.694Z</time></trkpt><trkpt lat="8.9318551" lon="-75.820614"><ele>13.0</ele><time>2026-04-18T11:03:17.695Z</time></trkpt><trkpt lat="8.9319265" lon="-75.8206535"><ele>13.333333333333334</ele><time>2026-04-18T11:03:18.693Z</time></trkpt><trkpt lat="8.931993" lon="-75.8206971"><ele>13.666666666666668</ele><time>2026-04-18T11:03:19.694Z</time></trkpt><trkpt lat="8.9320627" lon="-75.8207382"><ele>14.0</ele><time>2026-04-18T11:03:20.693Z</time></trkpt><trkpt lat="8.9321287" lon="-75.8207837"><ele>14.000000000000002</ele><time>2026-04-18T11:03:21.695Z</time></trkpt><trkpt lat="8.9321953" lon="-75.8208246"><ele>14.0</ele><time>2026-04-18T11:03:22.695Z</time></trkpt><trkpt lat="8.9322597" lon="-75.8208663"><ele>14.0</ele><time>2026-04-18T11:03:23.694Z</time></trkpt><trkpt lat="8.9323216" lon="-75.820908"><ele>14.0</ele><time>2026-04-18T11:03:24.693Z</time></trkpt><trkpt lat="8.9323835" lon="-75.8209413"><ele>14.000000000000002</ele><time>2026-04-18T11:03:25.694Z</time></trkpt><trkpt lat="8.9324448" lon="-75.8209726"><ele>14.0</ele><time>2026-04-18T11:03:26.693Z</time></trkpt><trkpt lat="8.9325422" lon="-75.8210281"><ele>13.399999999999999</ele><time>2026-04-18T11:03:28.694Z</time></trkpt><trkpt lat="8.9326409" lon="-75.8210767"><ele>12.799999999999999</ele><time>2026-04-18T11:03:30.694Z</time></trkpt><trkpt lat="8.932738" lon="-75.8211318"><ele>12.2</ele><time>2026-04-18T11:03:32.695Z</time></trkpt><trkpt lat="8.9328409" lon="-75.8211971"><ele>11.600000000000001</ele><time>2026-04-18T11:03:34.695Z</time></trkpt><trkpt lat="8.9328971" lon="-75.8212315"><ele>11.0</ele><time>2026-04-18T11:03:35.694Z</time></trkpt><trkpt lat="8.9329539" lon="-75.8212743"><ele>11.0</ele><time>2026-04-18T11:03:36.694Z</time></trkpt><trkpt lat="8.9330101" lon="-75.821315"><ele>11.0</ele><time>2026-04-18T11:03:37.694Z</time></trkpt><trkpt lat="8.9330628" lon="-75.8213536"><ele>11.0</ele><time>2026-04-18T11:03:38.694Z</time></trkpt><trkpt lat="8.9331174" lon="-75.8213944"><ele>11.0</ele><time>2026-04-18T11:03:39.694Z</time></trkpt><trkpt lat="8.9332159" lon="-75.8214647"><ele>11.0</ele><time>2026-04-18T11:03:41.694Z</time></trkpt><trkpt lat="8.9332852" lon="-75.8215401"><ele>11.0</ele><time>2026-04-18T11:03:43.694Z</time></trkpt><trkpt lat="8.9333528" lon="-75.8216197"><ele>11.8</ele><time>2026-04-18T11:03:45.694Z</time></trkpt><trkpt lat="8.9334224" lon="-75.8216949"><ele>12.600000000000001</ele><time>2026-04-18T11:03:47.694Z</time></trkpt><trkpt lat="8.9335056" lon="-75.8217512"><ele>13.4</ele><time>2026-04-18T11:03:49.694Z</time></trkpt><trkpt lat="8.9335977" lon="-75.8218094"><ele>14.2</ele><time>2026-04-18T11:03:51.694Z</time></trkpt><trkpt lat="8.9337123" lon="-75.8218708"><ele>15.0</ele><time>2026-04-18T11:03:53.693Z</time></trkpt><trkpt lat="8.9337694" lon="-75.821908"><ele>15.0</ele><time>2026-04-18T11:03:54.694Z</time></trkpt><trkpt lat="8.9338301" lon="-75.8219458"><ele>15.0</ele><time>2026-04-18T11:03:55.694Z</time></trkpt><trkpt lat="8.9338941" lon="-75.8219853"><ele>15.0</ele><time>2026-04-18T11:03:56.694Z</time></trkpt><trkpt lat="8.9339592" lon="-75.8220241"><ele>15.0</ele><time>2026-04-18T11:03:57.695Z</time></trkpt><trkpt lat="8.9340284" lon="-75.8220641"><ele>15.0</ele><time>2026-04-18T11:03:58.694Z</time></trkpt><trkpt lat="8.9341028" lon="-75.8221043"><ele>15.0</ele><time>2026-04-18T11:03:59.694Z</time></trkpt><trkpt lat="8.9341715" lon="-75.8221449"><ele>15.0</ele><time>2026-04-18T11:04:00.694Z</time></trkpt><trkpt lat="8.934242" lon="-75.8221824"><ele>15.0</ele><time>2026-04-18T11:04:01.693Z</time></trkpt><trkpt lat="8.9343104" lon="-75.8222214"><ele>15.0</ele><time>2026-04-18T11:04:02.693Z</time></trkpt><trkpt lat="8.9343766" lon="-75.8222631"><ele>15.0</ele><time>2026-04-18T11:04:03.693Z</time></trkpt><trkpt lat="8.9344395" lon="-75.8223003"><ele>15.0</ele><time>2026-04-18T11:04:04.693Z</time></trkpt><trkpt lat="8.9345066" lon="-75.8223362"><ele>15.0</ele><time>2026-04-18T11:04:05.694Z</time></trkpt><trkpt lat="8.934574" lon="-75.8223727"><ele>15.0</ele><time>2026-04-18T11:04:06.694Z</time></trkpt><trkpt lat="8.9346418" lon="-75.8224148"><ele>15.0</ele><time>2026-04-18T11:04:07.694Z</time></trkpt><trkpt lat="8.9347143" lon="-75.8224556"><ele>15.0</ele><time>2026-04-18T11:04:08.693Z</time></trkpt><trkpt lat="8.9347844" lon="-75.8224947"><ele>15.0</ele><time>2026-04-18T11:04:09.694Z</time></trkpt><trkpt lat="8.9348562" lon="-75.8225341"><ele>15.0</ele><time>2026-04-18T11:04:10.694Z</time></trkpt><trkpt lat="8.9349268" lon="-75.8225742"><ele>15.0</ele><time>2026-04-18T11:04:11.694Z</time></trkpt><trkpt lat="8.9349998" lon="-75.8226125"><ele>14.833333333333334</ele><time>2026-04-18T11:04:12.694Z</time></trkpt><trkpt lat="8.9350726" lon="-75.8226467"><ele>14.666666666666668</ele><time>2026-04-18T11:04:13.694Z</time></trkpt><trkpt lat="8.9351488" lon="-75.8226811"><ele>14.5</ele><time>2026-04-18T11:04:14.694Z</time></trkpt><trkpt lat="8.9352187" lon="-75.8227184"><ele>14.333333333333334</ele><time>2026-04-18T11:04:15.693Z</time></trkpt><trkpt lat="8.9352881" lon="-75.8227523"><ele>14.166666666666668</ele><time>2026-04-18T11:04:16.694Z</time></trkpt><trkpt lat="8.9353638" lon="-75.8227785"><ele>14.0</ele><time>2026-04-18T11:04:17.694Z</time></trkpt><trkpt lat="8.9354396" lon="-75.8228109"><ele>13.833333333333334</ele><time>2026-04-18T11:04:18.694Z</time></trkpt><trkpt lat="8.935512" lon="-75.8228486"><ele>13.666666666666668</ele><time>2026-04-18T11:04:19.694Z</time></trkpt><trkpt lat="8.9355868" lon="-75.82289"><ele>13.5</ele><time>2026-04-18T11:04:20.695Z</time></trkpt><trkpt lat="8.9356632" lon="-75.8229257"><ele>13.333333333333332</ele><time>2026-04-18T11:04:21.694Z</time></trkpt><trkpt lat="8.9357376" lon="-75.8229654"><ele>13.166666666666666</ele><time>2026-04-18T11:04:22.694Z</time></trkpt><trkpt lat="8.9358123" lon="-75.8230048"><ele>13.0</ele><time>2026-04-18T11:04:23.694Z</time></trkpt><trkpt lat="8.9358899" lon="-75.8230395"><ele>12.999999999999998</ele><time>2026-04-18T11:04:24.695Z</time></trkpt><trkpt lat="8.9359663" lon="-75.8230785"><ele>13.0</ele><time>2026-04-18T11:04:25.694Z</time></trkpt><trkpt lat="8.9360451" lon="-75.8231151"><ele>13.0</ele><time>2026-04-18T11:04:26.694Z</time></trkpt><trkpt lat="8.9361207" lon="-75.8231516"><ele>13.0</ele><time>2026-04-18T11:04:27.693Z</time></trkpt><trkpt lat="8.936196" lon="-75.823189"><ele>12.999999999999998</ele><time>2026-04-18T11:04:28.695Z</time></trkpt><trkpt lat="8.9362748" lon="-75.8232258"><ele>13.0</ele><time>2026-04-18T11:04:29.694Z</time></trkpt><trkpt lat="8.9363533" lon="-75.8232649"><ele>12.999999999999998</ele><time>2026-04-18T11:04:30.694Z</time></trkpt><trkpt lat="8.9364316" lon="-75.8233096"><ele>13.0</ele><time>2026-04-18T11:04:31.694Z</time></trkpt><trkpt lat="8.9365111" lon="-75.8233496"><ele>13.0</ele><time>2026-04-18T11:04:32.694Z</time></trkpt><trkpt lat="8.936589" lon="-75.823392"><ele>13.0</ele><time>2026-04-18T11:04:33.694Z</time></trkpt><trkpt lat="8.9366703" lon="-75.8234364"><ele>12.999999999999998</ele><time>2026-04-18T11:04:34.694Z</time></trkpt><trkpt lat="8.9367477" lon="-75.823481"><ele>13.0</ele><time>2026-04-18T11:04:35.694Z</time></trkpt><trkpt lat="8.9368222" lon="-75.8235257"><ele>13.166666666666666</ele><time>2026-04-18T11:04:36.694Z</time></trkpt><trkpt lat="8.9368919" lon="-75.8235699"><ele>13.333333333333332</ele><time>2026-04-18T11:04:37.694Z</time></trkpt><trkpt lat="8.9369688" lon="-75.8236131"><ele>13.5</ele><time>2026-04-18T11:04:38.695Z</time></trkpt><trkpt lat="8.937044" lon="-75.8236541"><ele>13.666666666666668</ele><time>2026-04-18T11:04:39.693Z</time></trkpt><trkpt lat="8.9371193" lon="-75.8236953"><ele>13.833333333333334</ele><time>2026-04-18T11:04:40.694Z</time></trkpt><trkpt lat="8.9371986" lon="-75.8237385"><ele>14.0</ele><time>2026-04-18T11:04:41.694Z</time></trkpt><trkpt lat="8.9372795" lon="-75.8237805"><ele>14.000000000000002</ele><time>2026-04-18T11:04:42.694Z</time></trkpt><trkpt lat="8.9373621" lon="-75.8238199"><ele>14.0</ele><time>2026-04-18T11:04:43.695Z</time></trkpt><trkpt lat="8.9374381" lon="-75.8238615"><ele>14.0</ele><time>2026-04-18T11:04:44.694Z</time></trkpt><trkpt lat="8.9375187" lon="-75.8239079"><ele>14.0</ele><time>2026-04-18T11:04:45.694Z</time></trkpt><trkpt lat="8.9375896" lon="-75.8239531"><ele>14.000000000000002</ele><time>2026-04-18T11:04:46.695Z</time></trkpt><trkpt lat="8.9376651" lon="-75.824001"><ele>14.0</ele><time>2026-04-18T11:04:47.694Z</time></trkpt><trkpt lat="8.9377331" lon="-75.8240457"><ele>14.000000000000002</ele><time>2026-04-18T11:04:48.694Z</time></trkpt><trkpt lat="8.9378019" lon="-75.8240873"><ele>14.0</ele><time>2026-04-18T11:04:49.694Z</time></trkpt><trkpt lat="8.9378703" lon="-75.8241281"><ele>14.0</ele><time>2026-04-18T11:04:50.694Z</time></trkpt><trkpt lat="8.9379348" lon="-75.8241638"><ele>14.0</ele><time>2026-04-18T11:04:51.694Z</time></trkpt><trkpt lat="8.938001" lon="-75.8242"><ele>14.000000000000002</ele><time>2026-04-18T11:04:52.694Z</time></trkpt><trkpt lat="8.9380617" lon="-75.8242328"><ele>14.0</ele><time>2026-04-18T11:04:53.695Z</time></trkpt><trkpt lat="8.9381537" lon="-75.8242905"><ele>14.000000000000002</ele><time>2026-04-18T11:04:55.694Z</time></trkpt><trkpt lat="8.9382361" lon="-75.8243348"><ele>14.0</ele><time>2026-04-18T11:04:57.695Z</time></trkpt><trkpt lat="8.9383073" lon="-75.824378"><ele>14.0</ele><time>2026-04-18T11:04:59.694Z</time></trkpt><trkpt lat="8.9383629" lon="-75.8244183"><ele>14.0</ele><time>2026-04-18T11:05:01.693Z</time></trkpt><trkpt lat="8.9384247" lon="-75.8244616"><ele>14.000000000000002</ele><time>2026-04-18T11:05:03.694Z</time></trkpt><trkpt lat="8.9384999" lon="-75.8245016"><ele>14.0</ele><time>2026-04-18T11:05:05.695Z</time></trkpt><trkpt lat="8.9385846" lon="-75.8245479"><ele>13.833333333333334</ele><time>2026-04-18T11:05:07.693Z</time></trkpt><trkpt lat="8.9386681" lon="-75.824601"><ele>13.666666666666668</ele><time>2026-04-18T11:05:09.693Z</time></trkpt><trkpt lat="8.9387395" lon="-75.8246453"><ele>13.5</ele><time>2026-04-18T11:05:11.693Z</time></trkpt><trkpt lat="8.9387983" lon="-75.8246826"><ele>13.333333333333332</ele><time>2026-04-18T11:05:13.694Z</time></trkpt><trkpt lat="8.9388713" lon="-75.8247267"><ele>13.166666666666666</ele><time>2026-04-18T11:05:15.694Z</time></trkpt><trkpt lat="8.9389499" lon="-75.824777"><ele>13.0</ele><time>2026-04-18T11:05:17.693Z</time></trkpt><trkpt lat="8.9390415" lon="-75.8248255"><ele>13.0</ele><time>2026-04-18T11:05:19.694Z</time></trkpt><trkpt lat="8.9391456" lon="-75.8248855"><ele>13.0</ele><time>2026-04-18T11:05:21.695Z</time></trkpt><trkpt lat="8.9392526" lon="-75.8249472"><ele>13.0</ele><time>2026-04-18T11:05:23.694Z</time></trkpt><trkpt lat="8.9393109" lon="-75.8249826"><ele>13.0</ele><time>2026-04-18T11:05:24.694Z</time></trkpt><trkpt lat="8.9393732" lon="-75.8250189"><ele>13.0</ele><time>2026-04-18T11:05:25.694Z</time></trkpt><trkpt lat="8.9394348" lon="-75.8250543"><ele>13.0</ele><time>2026-04-18T11:05:26.694Z</time></trkpt><trkpt lat="8.9394964" lon="-75.8250896"><ele>13.0</ele><time>2026-04-18T11:05:27.693Z</time></trkpt><trkpt lat="8.9395586" lon="-75.8251275"><ele>13.0</ele><time>2026-04-18T11:05:28.694Z</time></trkpt><trkpt lat="8.9396158" lon="-75.8251645"><ele>13.0</ele><time>2026-04-18T11:05:29.693Z</time></trkpt><trkpt lat="8.9396792" lon="-75.8252016"><ele>13.0</ele><time>2026-04-18T11:05:30.695Z</time></trkpt><trkpt lat="8.9397432" lon="-75.8252378"><ele>13.0</ele><time>2026-04-18T11:05:31.694Z</time></trkpt><trkpt lat="8.9398061" lon="-75.8252739"><ele>13.0</ele><time>2026-04-18T11:05:32.694Z</time></trkpt><trkpt lat="8.9398677" lon="-75.8253117"><ele>13.0</ele><time>2026-04-18T11:05:33.694Z</time></trkpt><trkpt lat="8.9399311" lon="-75.8253479"><ele>13.0</ele><time>2026-04-18T11:05:34.694Z</time></trkpt><trkpt lat="8.9399945" lon="-75.8253845"><ele>13.0</ele><time>2026-04-18T11:05:35.693Z</time></trkpt><trkpt lat="8.9400555" lon="-75.8254207"><ele>13.0</ele><time>2026-04-18T11:05:36.694Z</time></trkpt><trkpt lat="8.9401175" lon="-75.8254576"><ele>13.0</ele><time>2026-04-18T11:05:37.694Z</time></trkpt><trkpt lat="8.9401805" lon="-75.8254961"><ele>13.0</ele><time>2026-04-18T11:05:38.694Z</time></trkpt><trkpt lat="8.9402427" lon="-75.8255309"><ele>13.0</ele><time>2026-04-18T11:05:39.694Z</time></trkpt><trkpt lat="8.9403046" lon="-75.8255689"><ele>12.714285714285714</ele><time>2026-04-18T11:05:40.695Z</time></trkpt><trkpt lat="8.9403701" lon="-75.8256063"><ele>12.428571428571429</ele><time>2026-04-18T11:05:41.695Z</time></trkpt><trkpt lat="8.9404355" lon="-75.8256461"><ele>12.142857142857142</ele><time>2026-04-18T11:05:42.695Z</time></trkpt><trkpt lat="8.9404985" lon="-75.8256803"><ele>11.857142857142858</ele><time>2026-04-18T11:05:43.694Z</time></trkpt><trkpt lat="8.9405595" lon="-75.8257153"><ele>11.571428571428571</ele><time>2026-04-18T11:05:44.694Z</time></trkpt><trkpt lat="8.9406219" lon="-75.8257524"><ele>11.285714285714286</ele><time>2026-04-18T11:05:45.693Z</time></trkpt><trkpt lat="8.9406832" lon="-75.8257881"><ele>11.0</ele><time>2026-04-18T11:05:46.693Z</time></trkpt><trkpt lat="8.9407501" lon="-75.8258223"><ele>11.0</ele><time>2026-04-18T11:05:47.694Z</time></trkpt><trkpt lat="8.9408164" lon="-75.8258595"><ele>11.0</ele><time>2026-04-18T11:05:48.694Z</time></trkpt><trkpt lat="8.9408786" lon="-75.8258984"><ele>11.0</ele><time>2026-04-18T11:05:49.694Z</time></trkpt><trkpt lat="8.9409426" lon="-75.8259402"><ele>11.0</ele><time>2026-04-18T11:05:50.694Z</time></trkpt><trkpt lat="8.941005" lon="-75.8259799"><ele>11.0</ele><time>2026-04-18T11:05:51.693Z</time></trkpt><trkpt lat="8.9410664" lon="-75.8260217"><ele>11.0</ele><time>2026-04-18T11:05:52.694Z</time></trkpt><trkpt lat="8.9411312" lon="-75.8260631"><ele>11.0</ele><time>2026-04-18T11:05:53.693Z</time></trkpt><trkpt lat="8.9411929" lon="-75.8261032"><ele>10.857142857142858</ele><time>2026-04-18T11:05:54.694Z</time></trkpt><trkpt lat="8.9412568" lon="-75.8261413"><ele>10.714285714285714</ele><time>2026-04-18T11:05:55.693Z</time></trkpt><trkpt lat="8.9413152" lon="-75.8261805"><ele>10.571428571428571</ele><time>2026-04-18T11:05:56.693Z</time></trkpt><trkpt lat="8.941377" lon="-75.8262174"><ele>10.428571428571429</ele><time>2026-04-18T11:05:57.694Z</time></trkpt><trkpt lat="8.9414384" lon="-75.8262555"><ele>10.285714285714286</ele><time>2026-04-18T11:05:58.693Z</time></trkpt><trkpt lat="8.9415034" lon="-75.8262915"><ele>10.142857142857142</ele><time>2026-04-18T11:05:59.693Z</time></trkpt><trkpt lat="8.9415688" lon="-75.8263303"><ele>10.0</ele><time>2026-04-18T11:06:00.693Z</time></trkpt><trkpt lat="8.941637" lon="-75.8263682"><ele>10.0</ele><time>2026-04-18T11:06:01.694Z</time></trkpt><trkpt lat="8.9417044" lon="-75.82641"><ele>10.0</ele><time>2026-04-18T11:06:02.694Z</time></trkpt><trkpt lat="8.9417691" lon="-75.8264464"><ele>10.0</ele><time>2026-04-18T11:06:03.693Z</time></trkpt><trkpt lat="8.9418367" lon="-75.8264854"><ele>10.0</ele><time>2026-04-18T11:06:04.694Z</time></trkpt><trkpt lat="8.9419016" lon="-75.826525"><ele>10.0</ele><time>2026-04-18T11:06:05.693Z</time></trkpt><trkpt lat="8.9419636" lon="-75.8265635"><ele>10.0</ele><time>2026-04-18T11:06:06.694Z</time></trkpt><trkpt lat="8.9420268" lon="-75.8266004"><ele>10.142857142857142</ele><time>2026-04-18T11:06:07.694Z</time></trkpt><trkpt lat="8.9420879" lon="-75.8266358"><ele>10.285714285714286</ele><time>2026-04-18T11:06:08.694Z</time></trkpt><trkpt lat="8.9421498" lon="-75.82667"><ele>10.428571428571429</ele><time>2026-04-18T11:06:09.695Z</time></trkpt><trkpt lat="8.9422103" lon="-75.8267027"><ele>10.571428571428571</ele><time>2026-04-18T11:06:10.694Z</time></trkpt><trkpt lat="8.9422718" lon="-75.8267401"><ele>10.714285714285714</ele><time>2026-04-18T11:06:11.695Z</time></trkpt><trkpt lat="8.9423339" lon="-75.8267737"><ele>10.857142857142858</ele><time>2026-04-18T11:06:12.694Z</time></trkpt><trkpt lat="8.9423962" lon="-75.8268099"><ele>11.0</ele><time>2026-04-18T11:06:13.695Z</time></trkpt><trkpt lat="8.9424639" lon="-75.8268423"><ele>11.0</ele><time>2026-04-18T11:06:14.694Z</time></trkpt><trkpt lat="8.9425334" lon="-75.8268745"><ele>11.0</ele><time>2026-04-18T11:06:15.694Z</time></trkpt><trkpt lat="8.9426058" lon="-75.8269094"><ele>11.0</ele><time>2026-04-18T11:06:16.693Z</time></trkpt><trkpt lat="8.9426799" lon="-75.8269392"><ele>11.0</ele><time>2026-04-18T11:06:17.694Z</time></trkpt><trkpt lat="8.9427503" lon="-75.8269727"><ele>11.0</ele><time>2026-04-18T11:06:18.694Z</time></trkpt><trkpt lat="8.9428232" lon="-75.8270118"><ele>11.0</ele><time>2026-04-18T11:06:19.694Z</time></trkpt><trkpt lat="8.9428975" lon="-75.8270554"><ele>11.0</ele><time>2026-04-18T11:06:20.695Z</time></trkpt><trkpt lat="8.9429701" lon="-75.8271016"><ele>11.0</ele><time>2026-04-18T11:06:21.693Z</time></trkpt><trkpt lat="8.9430426" lon="-75.8271481"><ele>11.0</ele><time>2026-04-18T11:06:22.694Z</time></trkpt><trkpt lat="8.9431168" lon="-75.827197"><ele>11.0</ele><time>2026-04-18T11:06:23.694Z</time></trkpt><trkpt lat="8.9431866" lon="-75.8272426"><ele>11.0</ele><time>2026-04-18T11:06:24.694Z</time></trkpt><trkpt lat="8.9432602" lon="-75.8272882"><ele>11.0</ele><time>2026-04-18T11:06:25.694Z</time></trkpt><trkpt lat="8.9433324" lon="-75.8273382"><ele>11.0</ele><time>2026-04-18T11:06:26.694Z</time></trkpt><trkpt lat="8.9434029" lon="-75.8273855"><ele>11.0</ele><time>2026-04-18T11:06:27.693Z</time></trkpt><trkpt lat="8.9434713" lon="-75.8274319"><ele>11.0</ele><time>2026-04-18T11:06:28.693Z</time></trkpt><trkpt lat="8.9435429" lon="-75.8274751"><ele>11.0</ele><time>2026-04-18T11:06:29.694Z</time></trkpt><trkpt lat="8.9436114" lon="-75.8275235"><ele>11.0</ele><time>2026-04-18T11:06:30.694Z</time></trkpt><trkpt lat="8.9436812" lon="-75.8275685"><ele>11.0</ele><time>2026-04-18T11:06:31.693Z</time></trkpt><trkpt lat="8.9437523" lon="-75.8276117"><ele>10.666666666666666</ele><time>2026-04-18T11:06:32.694Z</time></trkpt><trkpt lat="8.9438264" lon="-75.8276569"><ele>10.333333333333332</ele><time>2026-04-18T11:06:33.693Z</time></trkpt><trkpt lat="8.9438966" lon="-75.8277038"><ele>10.0</ele><time>2026-04-18T11:06:34.693Z</time></trkpt><trkpt lat="8.9439678" lon="-75.8277491"><ele>9.666666666666666</ele><time>2026-04-18T11:06:35.694Z</time></trkpt><trkpt lat="8.9440374" lon="-75.8277887"><ele>9.333333333333334</ele><time>2026-04-18T11:06:36.693Z</time></trkpt><trkpt lat="8.9441101" lon="-75.8278254"><ele>9.0</ele><time>2026-04-18T11:06:37.693Z</time></trkpt><trkpt lat="8.9441783" lon="-75.8278718"><ele>9.5</ele><time>2026-04-18T11:06:38.694Z</time></trkpt><trkpt lat="8.9442458" lon="-75.8279114"><ele>10.0</ele><time>2026-04-18T11:06:39.694Z</time></trkpt><trkpt lat="8.9443151" lon="-75.8279517"><ele>10.5</ele><time>2026-04-18T11:06:40.693Z</time></trkpt><trkpt lat="8.944388" lon="-75.8279966"><ele>11.0</ele><time>2026-04-18T11:06:41.695Z</time></trkpt><trkpt lat="8.9444617" lon="-75.8280382"><ele>11.5</ele><time>2026-04-18T11:06:42.695Z</time></trkpt><trkpt lat="8.9445354" lon="-75.8280831"><ele>12.0</ele><time>2026-04-18T11:06:43.694Z</time></trkpt><trkpt lat="8.9446087" lon="-75.828125"><ele>12.0</ele><time>2026-04-18T11:06:44.694Z</time></trkpt><trkpt lat="8.9446827" lon="-75.828165"><ele>12.0</ele><time>2026-04-18T11:06:45.693Z</time></trkpt><trkpt lat="8.9447532" lon="-75.8282089"><ele>12.0</ele><time>2026-04-18T11:06:46.693Z</time></trkpt><trkpt lat="8.9448273" lon="-75.8282518"><ele>12.0</ele><time>2026-04-18T11:06:47.694Z</time></trkpt><trkpt lat="8.9449027" lon="-75.8282959"><ele>12.0</ele><time>2026-04-18T11:06:48.693Z</time></trkpt><trkpt lat="8.9449761" lon="-75.8283404"><ele>12.0</ele><time>2026-04-18T11:06:49.694Z</time></trkpt><trkpt lat="8.9450492" lon="-75.8283854"><ele>12.0</ele><time>2026-04-18T11:06:50.693Z</time></trkpt><trkpt lat="8.945119" lon="-75.8284292"><ele>12.0</ele><time>2026-04-18T11:06:51.694Z</time></trkpt><trkpt lat="8.9451878" lon="-75.8284774"><ele>12.0</ele><time>2026-04-18T11:06:52.693Z</time></trkpt><trkpt lat="8.9452569" lon="-75.8285172"><ele>12.0</ele><time>2026-04-18T11:06:53.693Z</time></trkpt><trkpt lat="8.9453332" lon="-75.8285592"><ele>12.0</ele><time>2026-04-18T11:06:54.693Z</time></trkpt><trkpt lat="8.9454056" lon="-75.8286048"><ele>12.0</ele><time>2026-04-18T11:06:55.694Z</time></trkpt><trkpt lat="8.9454812" lon="-75.8286453"><ele>12.0</ele><time>2026-04-18T11:06:56.695Z</time></trkpt><trkpt lat="8.9455549" lon="-75.8286895"><ele>12.0</ele><time>2026-04-18T11:06:57.695Z</time></trkpt><trkpt lat="8.9456279" lon="-75.8287396"><ele>12.0</ele><time>2026-04-18T11:06:58.694Z</time></trkpt><trkpt lat="8.9456984" lon="-75.8287811"><ele>12.0</ele><time>2026-04-18T11:06:59.693Z</time></trkpt><trkpt lat="8.9457692" lon="-75.8288213"><ele>12.0</ele><time>2026-04-18T11:07:00.694Z</time></trkpt><trkpt lat="8.9458423" lon="-75.8288604"><ele>12.0</ele><time>2026-04-18T11:07:01.694Z</time></trkpt><trkpt lat="8.9459127" lon="-75.8289031"><ele>11.666666666666666</ele><time>2026-04-18T11:07:02.694Z</time></trkpt><trkpt lat="8.945983" lon="-75.8289409"><ele>11.333333333333334</ele><time>2026-04-18T11:07:03.694Z</time></trkpt><trkpt lat="8.9460513" lon="-75.8289809"><ele>11.0</ele><time>2026-04-18T11:07:04.694Z</time></trkpt><trkpt lat="8.9461215" lon="-75.8290186"><ele>10.666666666666668</ele><time>2026-04-18T11:07:05.693Z</time></trkpt><trkpt lat="8.946194" lon="-75.8290585"><ele>10.333333333333334</ele><time>2026-04-18T11:07:06.694Z</time></trkpt><trkpt lat="8.946267" lon="-75.8290991"><ele>10.0</ele><time>2026-04-18T11:07:07.695Z</time></trkpt><trkpt lat="8.9463379" lon="-75.8291416"><ele>10.0</ele><time>2026-04-18T11:07:08.693Z</time></trkpt><trkpt lat="8.94641" lon="-75.8291813"><ele>10.0</ele><time>2026-04-18T11:07:09.693Z</time></trkpt><trkpt lat="8.9464815" lon="-75.8292268"><ele>10.0</ele><time>2026-04-18T11:07:10.694Z</time></trkpt><trkpt lat="8.9465473" lon="-75.8292696"><ele>10.0</ele><time>2026-04-18T11:07:11.693Z</time></trkpt><trkpt lat="8.9466166" lon="-75.8293143"><ele>10.0</ele><time>2026-04-18T11:07:12.694Z</time></trkpt><trkpt lat="8.9466845" lon="-75.8293559"><ele>10.0</ele><time>2026-04-18T11:07:13.694Z</time></trkpt><trkpt lat="8.9467514" lon="-75.8293981"><ele>10.142857142857142</ele><time>2026-04-18T11:07:14.695Z</time></trkpt><trkpt lat="8.9468186" lon="-75.8294354"><ele>10.285714285714286</ele><time>2026-04-18T11:07:15.693Z</time></trkpt><trkpt lat="8.9468851" lon="-75.8294719"><ele>10.428571428571429</ele><time>2026-04-18T11:07:16.693Z</time></trkpt><trkpt lat="8.9469497" lon="-75.8295079"><ele>10.571428571428571</ele><time>2026-04-18T11:07:17.694Z</time></trkpt><trkpt lat="8.9470161" lon="-75.8295457"><ele>10.714285714285714</ele><time>2026-04-18T11:07:18.693Z</time></trkpt><trkpt lat="8.9470832" lon="-75.8295815"><ele>10.857142857142858</ele><time>2026-04-18T11:07:19.693Z</time></trkpt><trkpt lat="8.9471436" lon="-75.8296198"><ele>11.0</ele><time>2026-04-18T11:07:20.695Z</time></trkpt><trkpt lat="8.9472092" lon="-75.8296605"><ele>11.0</ele><time>2026-04-18T11:07:21.694Z</time></trkpt><trkpt lat="8.9472737" lon="-75.8297008"><ele>11.0</ele><time>2026-04-18T11:07:22.693Z</time></trkpt><trkpt lat="8.9473408" lon="-75.8297429"><ele>11.0</ele><time>2026-04-18T11:07:23.694Z</time></trkpt><trkpt lat="8.9474083" lon="-75.8297815"><ele>11.0</ele><time>2026-04-18T11:07:24.693Z</time></trkpt><trkpt lat="8.9474767" lon="-75.8298202"><ele>11.0</ele><time>2026-04-18T11:07:25.694Z</time></trkpt><trkpt lat="8.9475375" lon="-75.8298575"><ele>11.0</ele><time>2026-04-18T11:07:26.694Z</time></trkpt><trkpt lat="8.9476046" lon="-75.8298994"><ele>10.833333333333332</ele><time>2026-04-18T11:07:27.694Z</time></trkpt><trkpt lat="8.9476679" lon="-75.8299405"><ele>10.666666666666666</ele><time>2026-04-18T11:07:28.693Z</time></trkpt><trkpt lat="8.9477361" lon="-75.8299791"><ele>10.5</ele><time>2026-04-18T11:07:29.694Z</time></trkpt><trkpt lat="8.9478014" lon="-75.8300219"><ele>10.333333333333334</ele><time>2026-04-18T11:07:30.696Z</time></trkpt><trkpt lat="8.947866" lon="-75.8300618"><ele>10.166666666666668</ele><time>2026-04-18T11:07:31.692Z</time></trkpt><trkpt lat="8.947931" lon="-75.8301057"><ele>10.0</ele><time>2026-04-18T11:07:32.693Z</time></trkpt><trkpt lat="8.9479934" lon="-75.8301404"><ele>10.0</ele><time>2026-04-18T11:07:33.693Z</time></trkpt><trkpt lat="8.9480575" lon="-75.8301785"><ele>10.0</ele><time>2026-04-18T11:07:34.694Z</time></trkpt><trkpt lat="8.9481257" lon="-75.8302204"><ele>10.0</ele><time>2026-04-18T11:07:35.694Z</time></trkpt><trkpt lat="8.9481932" lon="-75.8302592"><ele>10.0</ele><time>2026-04-18T11:07:36.694Z</time></trkpt><trkpt lat="8.948257" lon="-75.8302977"><ele>10.0</ele><time>2026-04-18T11:07:37.694Z</time></trkpt><trkpt lat="8.9483263" lon="-75.8303375"><ele>10.0</ele><time>2026-04-18T11:07:38.694Z</time></trkpt><trkpt lat="8.9483934" lon="-75.8303794"><ele>10.0</ele><time>2026-04-18T11:07:39.693Z</time></trkpt><trkpt lat="8.948465" lon="-75.8304181"><ele>10.0</ele><time>2026-04-18T11:07:40.694Z</time></trkpt><trkpt lat="8.9485328" lon="-75.8304625"><ele>10.0</ele><time>2026-04-18T11:07:41.693Z</time></trkpt><trkpt lat="8.948607" lon="-75.8305037"><ele>10.0</ele><time>2026-04-18T11:07:42.694Z</time></trkpt><trkpt lat="8.9486802" lon="-75.8305448"><ele>10.0</ele><time>2026-04-18T11:07:43.693Z</time></trkpt><trkpt lat="8.9487557" lon="-75.8305797"><ele>10.0</ele><time>2026-04-18T11:07:44.694Z</time></trkpt><trkpt lat="8.9488286" lon="-75.8306231"><ele>10.0</ele><time>2026-04-18T11:07:45.694Z</time></trkpt><trkpt lat="8.9489011" lon="-75.830664"><ele>10.0</ele><time>2026-04-18T11:07:46.693Z</time></trkpt><trkpt lat="8.9489747" lon="-75.8307053"><ele>10.0</ele><time>2026-04-18T11:07:47.694Z</time></trkpt><trkpt lat="8.9490471" lon="-75.8307474"><ele>10.0</ele><time>2026-04-18T11:07:48.693Z</time></trkpt><trkpt lat="8.9491153" lon="-75.830792"><ele>10.0</ele><time>2026-04-18T11:07:49.694Z</time></trkpt><trkpt lat="8.9491861" lon="-75.830836"><ele>10.0</ele><time>2026-04-18T11:07:50.694Z</time></trkpt><trkpt lat="8.949263" lon="-75.8308779"><ele>10.0</ele><time>2026-04-18T11:07:51.693Z</time></trkpt><trkpt lat="8.9493392" lon="-75.8309238"><ele>10.0</ele><time>2026-04-18T11:07:52.694Z</time></trkpt><trkpt lat="8.9494122" lon="-75.8309705"><ele>10.0</ele><time>2026-04-18T11:07:53.693Z</time></trkpt><trkpt lat="8.9494857" lon="-75.8310121"><ele>10.0</ele><time>2026-04-18T11:07:54.693Z</time></trkpt><trkpt lat="8.9495578" lon="-75.8310533"><ele>10.0</ele><time>2026-04-18T11:07:55.693Z</time></trkpt><trkpt lat="8.9496317" lon="-75.8310994"><ele>10.0</ele><time>2026-04-18T11:07:56.694Z</time></trkpt><trkpt lat="8.9497092" lon="-75.8311367"><ele>10.0</ele><time>2026-04-18T11:07:57.693Z</time></trkpt><trkpt lat="8.9497846" lon="-75.8311791"><ele>10.0</ele><time>2026-04-18T11:07:58.694Z</time></trkpt><trkpt lat="8.9498595" lon="-75.8312197"><ele>10.0</ele><time>2026-04-18T11:07:59.693Z</time></trkpt><trkpt lat="8.9499325" lon="-75.8312659"><ele>10.0</ele><time>2026-04-18T11:08:00.694Z</time></trkpt><trkpt lat="8.9500071" lon="-75.8313128"><ele>10.0</ele><time>2026-04-18T11:08:01.693Z</time></trkpt><trkpt lat="8.9500809" lon="-75.8313569"><ele>10.0</ele><time>2026-04-18T11:08:02.693Z</time></trkpt><trkpt lat="8.9501527" lon="-75.8313989"><ele>10.0</ele><time>2026-04-18T11:08:03.693Z</time></trkpt><trkpt lat="8.9502271" lon="-75.8314459"><ele>10.0</ele><time>2026-04-18T11:08:04.693Z</time></trkpt><trkpt lat="8.9502985" lon="-75.8314894"><ele>10.0</ele><time>2026-04-18T11:08:05.695Z</time></trkpt><trkpt lat="8.9503777" lon="-75.8315355"><ele>10.0</ele><time>2026-04-18T11:08:06.693Z</time></trkpt><trkpt lat="8.9504527" lon="-75.8315806"><ele>10.0</ele><time>2026-04-18T11:08:07.694Z</time></trkpt><trkpt lat="8.9505288" lon="-75.8316251"><ele>10.0</ele><time>2026-04-18T11:08:08.694Z</time></trkpt><trkpt lat="8.9506046" lon="-75.8316717"><ele>10.0</ele><time>2026-04-18T11:08:09.694Z</time></trkpt><trkpt lat="8.9506812" lon="-75.8317155"><ele>10.0</ele><time>2026-04-18T11:08:10.693Z</time></trkpt><trkpt lat="8.9507547" lon="-75.8317555"><ele>10.0</ele><time>2026-04-18T11:08:11.693Z</time></trkpt><trkpt lat="8.9508302" lon="-75.8317973"><ele>10.0</ele><time>2026-04-18T11:08:12.694Z</time></trkpt><trkpt lat="8.9509045" lon="-75.8318394"><ele>10.0</ele><time>2026-04-18T11:08:13.694Z</time></trkpt><trkpt lat="8.9509786" lon="-75.8318802"><ele>10.0</ele><time>2026-04-18T11:08:14.694Z</time></trkpt><trkpt lat="8.9510506" lon="-75.8319207"><ele>10.0</ele><time>2026-04-18T11:08:15.693Z</time></trkpt><trkpt lat="8.9511237" lon="-75.8319569"><ele>10.0</ele><time>2026-04-18T11:08:16.694Z</time></trkpt><trkpt lat="8.9511924" lon="-75.831995"><ele>10.0</ele><time>2026-04-18T11:08:17.694Z</time></trkpt><trkpt lat="8.9512635" lon="-75.8320336"><ele>10.0</ele><time>2026-04-18T11:08:18.694Z</time></trkpt><trkpt lat="8.9513327" lon="-75.8320683"><ele>10.0</ele><time>2026-04-18T11:08:19.695Z</time></trkpt><trkpt lat="8.9514034" lon="-75.8321036"><ele>10.0</ele><time>2026-04-18T11:08:20.693Z</time></trkpt><trkpt lat="8.9514744" lon="-75.8321424"><ele>10.0</ele><time>2026-04-18T11:08:21.695Z</time></trkpt><trkpt lat="8.9515388" lon="-75.8321745"><ele>10.0</ele><time>2026-04-18T11:08:22.693Z</time></trkpt><trkpt lat="8.9515976" lon="-75.8322102"><ele>10.0</ele><time>2026-04-18T11:08:23.693Z</time></trkpt><trkpt lat="8.9517065" lon="-75.8322618"><ele>10.0</ele><time>2026-04-18T11:08:25.694Z</time></trkpt><trkpt lat="8.9518124" lon="-75.8323192"><ele>10.0</ele><time>2026-04-18T11:08:27.695Z</time></trkpt><trkpt lat="8.9518748" lon="-75.8323484"><ele>10.0</ele><time>2026-04-18T11:08:28.694Z</time></trkpt><trkpt lat="8.9519349" lon="-75.8323801"><ele>9.833333333333334</ele><time>2026-04-18T11:08:29.694Z</time></trkpt><trkpt lat="8.9519983" lon="-75.8324109"><ele>9.666666666666668</ele><time>2026-04-18T11:08:30.693Z</time></trkpt><trkpt lat="8.9520654" lon="-75.8324394"><ele>9.5</ele><time>2026-04-18T11:08:31.694Z</time></trkpt><trkpt lat="8.952136" lon="-75.8324761"><ele>9.333333333333334</ele><time>2026-04-18T11:08:32.694Z</time></trkpt><trkpt lat="8.9522097" lon="-75.832514"><ele>9.166666666666666</ele><time>2026-04-18T11:08:33.694Z</time></trkpt><trkpt lat="8.9522819" lon="-75.832548"><ele>9.0</ele><time>2026-04-18T11:08:34.694Z</time></trkpt><trkpt lat="8.9523582" lon="-75.8325899"><ele>9.0</ele><time>2026-04-18T11:08:35.693Z</time></trkpt><trkpt lat="8.9524354" lon="-75.8326327"><ele>9.0</ele><time>2026-04-18T11:08:36.693Z</time></trkpt><trkpt lat="8.9525085" lon="-75.8326772"><ele>9.0</ele><time>2026-04-18T11:08:37.693Z</time></trkpt><trkpt lat="8.9525842" lon="-75.8327219"><ele>9.0</ele><time>2026-04-18T11:08:38.694Z</time></trkpt><trkpt lat="8.9526607" lon="-75.8327708"><ele>9.0</ele><time>2026-04-18T11:08:39.693Z</time></trkpt><trkpt lat="8.9527361" lon="-75.8328141"><ele>9.0</ele><time>2026-04-18T11:08:40.694Z</time></trkpt><trkpt lat="8.9528131" lon="-75.8328579"><ele>9.2</ele><time>2026-04-18T11:08:41.694Z</time></trkpt><trkpt lat="8.9528888" lon="-75.8329031"><ele>9.4</ele><time>2026-04-18T11:08:42.693Z</time></trkpt><trkpt lat="8.9529649" lon="-75.8329502"><ele>9.6</ele><time>2026-04-18T11:08:43.695Z</time></trkpt><trkpt lat="8.953048" lon="-75.8329948"><ele>9.8</ele><time>2026-04-18T11:08:44.694Z</time></trkpt><trkpt lat="8.953129" lon="-75.833044"><ele>10.0</ele><time>2026-04-18T11:08:45.694Z</time></trkpt><trkpt lat="8.9532153" lon="-75.8330893"><ele>10.0</ele><time>2026-04-18T11:08:46.693Z</time></trkpt><trkpt lat="8.953302" lon="-75.8331315"><ele>10.0</ele><time>2026-04-18T11:08:47.695Z</time></trkpt><trkpt lat="8.9533863" lon="-75.8331741"><ele>10.0</ele><time>2026-04-18T11:08:48.694Z</time></trkpt><trkpt lat="8.9534671" lon="-75.8332257"><ele>10.0</ele><time>2026-04-18T11:08:49.694Z</time></trkpt><trkpt lat="8.9535494" lon="-75.8332781"><ele>10.0</ele><time>2026-04-18T11:08:50.693Z</time></trkpt><trkpt lat="8.9536261" lon="-75.8333305"><ele>10.0</ele><time>2026-04-18T11:08:51.693Z</time></trkpt><trkpt lat="8.9537044" lon="-75.833378"><ele>10.0</ele><time>2026-04-18T11:08:52.694Z</time></trkpt><trkpt lat="8.953786" lon="-75.8334238"><ele>10.0</ele><time>2026-04-18T11:08:53.693Z</time></trkpt><trkpt lat="8.9538691" lon="-75.833469"><ele>10.0</ele><time>2026-04-18T11:08:54.694Z</time></trkpt><trkpt lat="8.9539537" lon="-75.8335189"><ele>10.0</ele><time>2026-04-18T11:08:55.693Z</time></trkpt><trkpt lat="8.9540377" lon="-75.8335666"><ele>10.0</ele><time>2026-04-18T11:08:56.694Z</time></trkpt><trkpt lat="8.9541217" lon="-75.8336155"><ele>10.0</ele><time>2026-04-18T11:08:57.694Z</time></trkpt><trkpt lat="8.9542058" lon="-75.8336663"><ele>10.0</ele><time>2026-04-18T11:08:58.693Z</time></trkpt><trkpt lat="8.9542859" lon="-75.833714"><ele>10.0</ele><time>2026-04-18T11:08:59.693Z</time></trkpt><trkpt lat="8.9543704" lon="-75.8337665"><ele>10.0</ele><time>2026-04-18T11:09:00.693Z</time></trkpt><trkpt lat="8.954452" lon="-75.8338145"><ele>9.6</ele><time>2026-04-18T11:09:01.693Z</time></trkpt><trkpt lat="8.9545348" lon="-75.8338609"><ele>9.2</ele><time>2026-04-18T11:09:02.693Z</time></trkpt><trkpt lat="8.954619" lon="-75.83391"><ele>8.8</ele><time>2026-04-18T11:09:03.694Z</time></trkpt><trkpt lat="8.954703" lon="-75.8339581"><ele>8.4</ele><time>2026-04-18T11:09:04.694Z</time></trkpt><trkpt lat="8.9547868" lon="-75.8340092"><ele>8.0</ele><time>2026-04-18T11:09:05.693Z</time></trkpt><trkpt lat="8.9548723" lon="-75.8340614"><ele>8.0</ele><time>2026-04-18T11:09:06.695Z</time></trkpt><trkpt lat="8.9549577" lon="-75.8341107"><ele>8.0</ele><time>2026-04-18T11:09:07.693Z</time></trkpt><trkpt lat="8.9550414" lon="-75.8341591"><ele>8.0</ele><time>2026-04-18T11:09:08.694Z</time></trkpt><trkpt lat="8.9551226" lon="-75.8342103"><ele>8.0</ele><time>2026-04-18T11:09:09.695Z</time></trkpt><trkpt lat="8.9551998" lon="-75.8342615"><ele>8.0</ele><time>2026-04-18T11:09:10.693Z</time></trkpt><trkpt lat="8.9552796" lon="-75.8343067"><ele>8.166666666666666</ele><time>2026-04-18T11:09:11.693Z</time></trkpt><trkpt lat="8.9553602" lon="-75.8343559"><ele>8.333333333333332</ele><time>2026-04-18T11:09:12.694Z</time></trkpt><trkpt lat="8.9554398" lon="-75.8344028"><ele>8.5</ele><time>2026-04-18T11:09:13.693Z</time></trkpt><trkpt lat="8.9555165" lon="-75.8344476"><ele>8.666666666666666</ele><time>2026-04-18T11:09:14.694Z</time></trkpt><trkpt lat="8.9555912" lon="-75.8344913"><ele>8.833333333333334</ele><time>2026-04-18T11:09:15.695Z</time></trkpt><trkpt lat="8.9556647" lon="-75.8345335"><ele>9.0</ele><time>2026-04-18T11:09:16.693Z</time></trkpt><trkpt lat="8.9557351" lon="-75.8345767"><ele>9.0</ele><time>2026-04-18T11:09:17.693Z</time></trkpt><trkpt lat="8.9558052" lon="-75.8346192"><ele>9.0</ele><time>2026-04-18T11:09:18.694Z</time></trkpt><trkpt lat="8.9558782" lon="-75.8346562"><ele>9.0</ele><time>2026-04-18T11:09:19.695Z</time></trkpt><trkpt lat="8.9559518" lon="-75.8346981"><ele>9.0</ele><time>2026-04-18T11:09:20.694Z</time></trkpt><trkpt lat="8.9560248" lon="-75.8347377"><ele>9.0</ele><time>2026-04-18T11:09:21.693Z</time></trkpt><trkpt lat="8.9560951" lon="-75.8347772"><ele>9.0</ele><time>2026-04-18T11:09:22.694Z</time></trkpt><trkpt lat="8.956168" lon="-75.8348195"><ele>9.166666666666666</ele><time>2026-04-18T11:09:23.693Z</time></trkpt><trkpt lat="8.9562427" lon="-75.8348606"><ele>9.333333333333334</ele><time>2026-04-18T11:09:24.694Z</time></trkpt><trkpt lat="8.9563163" lon="-75.8349015"><ele>9.5</ele><time>2026-04-18T11:09:25.694Z</time></trkpt><trkpt lat="8.9563897" lon="-75.834948"><ele>9.666666666666668</ele><time>2026-04-18T11:09:26.694Z</time></trkpt><trkpt lat="8.9564614" lon="-75.834994"><ele>9.833333333333334</ele><time>2026-04-18T11:09:27.694Z</time></trkpt><trkpt lat="8.9565349" lon="-75.8350393"><ele>10.0</ele><time>2026-04-18T11:09:28.694Z</time></trkpt><trkpt lat="8.9566104" lon="-75.8350844"><ele>10.0</ele><time>2026-04-18T11:09:29.694Z</time></trkpt><trkpt lat="8.9566845" lon="-75.8351278"><ele>10.0</ele><time>2026-04-18T11:09:30.694Z</time></trkpt><trkpt lat="8.9567615" lon="-75.8351706"><ele>10.0</ele><time>2026-04-18T11:09:31.693Z</time></trkpt><trkpt lat="8.9568295" lon="-75.835216"><ele>10.0</ele><time>2026-04-18T11:09:32.693Z</time></trkpt><trkpt lat="8.9569097" lon="-75.8352559"><ele>10.0</ele><time>2026-04-18T11:09:33.693Z</time></trkpt><trkpt lat="8.9569874" lon="-75.8352942"><ele>10.0</ele><time>2026-04-18T11:09:34.694Z</time></trkpt><trkpt lat="8.9570621" lon="-75.8353292"><ele>10.0</ele><time>2026-04-18T11:09:35.694Z</time></trkpt><trkpt lat="8.9571388" lon="-75.8353669"><ele>10.0</ele><time>2026-04-18T11:09:36.694Z</time></trkpt><trkpt lat="8.9572218" lon="-75.8354041"><ele>10.0</ele><time>2026-04-18T11:09:37.693Z</time></trkpt><trkpt lat="8.9573043" lon="-75.8354393"><ele>10.0</ele><time>2026-04-18T11:09:38.693Z</time></trkpt><trkpt lat="8.9573829" lon="-75.8354722"><ele>10.0</ele><time>2026-04-18T11:09:39.692Z</time></trkpt><trkpt lat="8.9574607" lon="-75.8355015"><ele>10.0</ele><time>2026-04-18T11:09:40.693Z</time></trkpt><trkpt lat="8.9575408" lon="-75.8355318"><ele>10.0</ele><time>2026-04-18T11:09:41.694Z</time></trkpt><trkpt lat="8.9576242" lon="-75.8355602"><ele>10.0</ele><time>2026-04-18T11:09:42.693Z</time></trkpt><trkpt lat="8.957707" lon="-75.8355885"><ele>10.0</ele><time>2026-04-18T11:09:43.693Z</time></trkpt><trkpt lat="8.95779" lon="-75.8356151"><ele>10.0</ele><time>2026-04-18T11:09:44.693Z</time></trkpt><trkpt lat="8.9578717" lon="-75.8356385"><ele>10.0</ele><time>2026-04-18T11:09:45.695Z</time></trkpt><trkpt lat="8.9579529" lon="-75.8356629"><ele>10.0</ele><time>2026-04-18T11:09:46.693Z</time></trkpt><trkpt lat="8.9580324" lon="-75.8356836"><ele>10.0</ele><time>2026-04-18T11:09:47.694Z</time></trkpt><trkpt lat="8.9581088" lon="-75.8357041"><ele>10.0</ele><time>2026-04-18T11:09:48.695Z</time></trkpt><trkpt lat="8.9581847" lon="-75.8357188"><ele>10.0</ele><time>2026-04-18T11:09:49.694Z</time></trkpt><trkpt lat="8.9582591" lon="-75.8357332"><ele>10.0</ele><time>2026-04-18T11:09:50.694Z</time></trkpt><trkpt lat="8.958335" lon="-75.8357493"><ele>10.0</ele><time>2026-04-18T11:09:51.693Z</time></trkpt><trkpt lat="8.9584075" lon="-75.8357636"><ele>10.0</ele><time>2026-04-18T11:09:52.695Z</time></trkpt><trkpt lat="8.9584799" lon="-75.83578"><ele>10.166666666666668</ele><time>2026-04-18T11:09:53.693Z</time></trkpt><trkpt lat="8.9585526" lon="-75.835789"><ele>10.333333333333334</ele><time>2026-04-18T11:09:54.693Z</time></trkpt><trkpt lat="8.9586165" lon="-75.8357991"><ele>10.5</ele><time>2026-04-18T11:09:55.692Z</time></trkpt><trkpt lat="8.9587284" lon="-75.8358121"><ele>10.666666666666666</ele><time>2026-04-18T11:09:57.693Z</time></trkpt><trkpt lat="8.9588381" lon="-75.8358182"><ele>10.833333333333332</ele><time>2026-04-18T11:09:59.693Z</time></trkpt><trkpt lat="8.9589267" lon="-75.8358239"><ele>11.0</ele><time>2026-04-18T11:10:01.693Z</time></trkpt><trkpt lat="8.9589945" lon="-75.8358265"><ele>11.0</ele><time>2026-04-18T11:10:03.693Z</time></trkpt><trkpt lat="8.9590695" lon="-75.8358281"><ele>11.0</ele><time>2026-04-18T11:10:06.694Z</time></trkpt><trkpt lat="8.9591437" lon="-75.8358254"><ele>11.0</ele><time>2026-04-18T11:10:09.692Z</time></trkpt><trkpt lat="8.9592251" lon="-75.8358228"><ele>11.0</ele><time>2026-04-18T11:10:12.694Z</time></trkpt><trkpt lat="8.9592941" lon="-75.835821"><ele>11.0</ele><time>2026-04-18T11:10:14.694Z</time></trkpt><trkpt lat="8.9593851" lon="-75.8358237"><ele>11.0</ele><time>2026-04-18T11:10:16.694Z</time></trkpt><trkpt lat="8.9594852" lon="-75.8358245"><ele>10.8</ele><time>2026-04-18T11:10:18.694Z</time></trkpt><trkpt lat="8.95959" lon="-75.8358217"><ele>10.600000000000001</ele><time>2026-04-18T11:10:20.693Z</time></trkpt><trkpt lat="8.9596946" lon="-75.8358092"><ele>10.4</ele><time>2026-04-18T11:10:22.693Z</time></trkpt><trkpt lat="8.9597964" lon="-75.8358045"><ele>10.2</ele><time>2026-04-18T11:10:24.693Z</time></trkpt><trkpt lat="8.9598911" lon="-75.8358007"><ele>10.0</ele><time>2026-04-18T11:10:26.694Z</time></trkpt><trkpt lat="8.9599986" lon="-75.8358074"><ele>10.0</ele><time>2026-04-18T11:10:28.694Z</time></trkpt><trkpt lat="8.9601056" lon="-75.8358183"><ele>10.0</ele><time>2026-04-18T11:10:30.694Z</time></trkpt><trkpt lat="8.9602167" lon="-75.8358371"><ele>10.0</ele><time>2026-04-18T11:10:32.693Z</time></trkpt><trkpt lat="8.9603359" lon="-75.8358432"><ele>10.0</ele><time>2026-04-18T11:10:34.693Z</time></trkpt><trkpt lat="8.9604601" lon="-75.8358366"><ele>10.0</ele><time>2026-04-18T11:10:36.693Z</time></trkpt><trkpt lat="8.9605242" lon="-75.8358329"><ele>10.0</ele><time>2026-04-18T11:10:37.693Z</time></trkpt><trkpt lat="8.96059" lon="-75.8358245"><ele>10.0</ele><time>2026-04-18T11:10:38.693Z</time></trkpt><trkpt lat="8.9606571" lon="-75.8358198"><ele>10.0</ele><time>2026-04-18T11:10:39.693Z</time></trkpt><trkpt lat="8.9607208" lon="-75.8358188"><ele>10.0</ele><time>2026-04-18T11:10:40.694Z</time></trkpt><trkpt lat="8.9608387" lon="-75.8358084"><ele>10.0</ele><time>2026-04-18T11:10:42.693Z</time></trkpt><trkpt lat="8.9609368" lon="-75.8357935"><ele>10.166666666666668</ele><time>2026-04-18T11:10:44.693Z</time></trkpt><trkpt lat="8.9610116" lon="-75.8357826"><ele>10.333333333333334</ele><time>2026-04-18T11:10:46.695Z</time></trkpt><trkpt lat="8.9610817" lon="-75.8357731"><ele>10.5</ele><time>2026-04-18T11:10:48.693Z</time></trkpt><trkpt lat="8.9611548" lon="-75.8357722"><ele>10.666666666666666</ele><time>2026-04-18T11:10:50.693Z</time></trkpt><trkpt lat="8.9612417" lon="-75.8357565"><ele>10.833333333333332</ele><time>2026-04-18T11:10:52.693Z</time></trkpt><trkpt lat="8.9613494" lon="-75.835743"><ele>11.0</ele><time>2026-04-18T11:10:54.693Z</time></trkpt><trkpt lat="8.9614707" lon="-75.8357293"><ele>11.0</ele><time>2026-04-18T11:10:56.694Z</time></trkpt><trkpt lat="8.9615357" lon="-75.8357229"><ele>11.0</ele><time>2026-04-18T11:10:57.693Z</time></trkpt><trkpt lat="8.9616011" lon="-75.8357189"><ele>11.0</ele><time>2026-04-18T11:10:58.694Z</time></trkpt><trkpt lat="8.9616701" lon="-75.8357122"><ele>11.0</ele><time>2026-04-18T11:10:59.693Z</time></trkpt><trkpt lat="8.9617387" lon="-75.8357048"><ele>11.0</ele><time>2026-04-18T11:11:00.693Z</time></trkpt><trkpt lat="8.9618125" lon="-75.8356997"><ele>11.0</ele><time>2026-04-18T11:11:01.693Z</time></trkpt><trkpt lat="8.9618841" lon="-75.8356915"><ele>11.0</ele><time>2026-04-18T11:11:02.693Z</time></trkpt><trkpt lat="8.9619529" lon="-75.8356822"><ele>11.0</ele><time>2026-04-18T11:11:03.693Z</time></trkpt><trkpt lat="8.962021" lon="-75.835673"><ele>11.0</ele><time>2026-04-18T11:11:04.693Z</time></trkpt><trkpt lat="8.962093" lon="-75.8356669"><ele>11.0</ele><time>2026-04-18T11:11:05.695Z</time></trkpt><trkpt lat="8.9621634" lon="-75.8356544"><ele>11.0</ele><time>2026-04-18T11:11:06.692Z</time></trkpt><trkpt lat="8.9622367" lon="-75.8356445"><ele>11.0</ele><time>2026-04-18T11:11:07.693Z</time></trkpt><trkpt lat="8.9623131" lon="-75.8356352"><ele>11.0</ele><time>2026-04-18T11:11:08.693Z</time></trkpt><trkpt lat="8.9623916" lon="-75.8356306"><ele>11.0</ele><time>2026-04-18T11:11:09.694Z</time></trkpt><trkpt lat="8.9624666" lon="-75.8356208"><ele>10.666666666666666</ele><time>2026-04-18T11:11:10.695Z</time></trkpt><trkpt lat="8.9625427" lon="-75.8356108"><ele>10.333333333333332</ele><time>2026-04-18T11:11:11.693Z</time></trkpt><trkpt lat="8.9626227" lon="-75.8356057"><ele>10.0</ele><time>2026-04-18T11:11:12.693Z</time></trkpt><trkpt lat="8.9627023" lon="-75.8355943"><ele>9.666666666666666</ele><time>2026-04-18T11:11:13.693Z</time></trkpt><trkpt lat="8.9627805" lon="-75.8355846"><ele>9.333333333333334</ele><time>2026-04-18T11:11:14.693Z</time></trkpt><trkpt lat="8.9628588" lon="-75.8355804"><ele>9.0</ele><time>2026-04-18T11:11:15.694Z</time></trkpt><trkpt lat="8.962936" lon="-75.8355693"><ele>9.0</ele><time>2026-04-18T11:11:16.695Z</time></trkpt><trkpt lat="8.9630188" lon="-75.8355554"><ele>9.0</ele><time>2026-04-18T11:11:17.693Z</time></trkpt><trkpt lat="8.9630961" lon="-75.8355425"><ele>9.0</ele><time>2026-04-18T11:11:18.694Z</time></trkpt><trkpt lat="8.9631772" lon="-75.8355354"><ele>9.0</ele><time>2026-04-18T11:11:19.693Z</time></trkpt><trkpt lat="8.9632576" lon="-75.8355278"><ele>9.0</ele><time>2026-04-18T11:11:20.693Z</time></trkpt><trkpt lat="8.9633377" lon="-75.8355196"><ele>9.0</ele><time>2026-04-18T11:11:21.693Z</time></trkpt><trkpt lat="8.9634177" lon="-75.8355098"><ele>9.333333333333334</ele><time>2026-04-18T11:11:22.693Z</time></trkpt><trkpt lat="8.9635034" lon="-75.8355045"><ele>9.666666666666666</ele><time>2026-04-18T11:11:23.693Z</time></trkpt><trkpt lat="8.9635882" lon="-75.835496"><ele>10.0</ele><time>2026-04-18T11:11:24.693Z</time></trkpt><trkpt lat="8.9636661" lon="-75.8354903"><ele>10.333333333333332</ele><time>2026-04-18T11:11:25.693Z</time></trkpt><trkpt lat="8.9637467" lon="-75.8354814"><ele>10.666666666666666</ele><time>2026-04-18T11:11:26.693Z</time></trkpt><trkpt lat="8.9638295" lon="-75.8354666"><ele>11.0</ele><time>2026-04-18T11:11:27.693Z</time></trkpt><trkpt lat="8.9639109" lon="-75.8354603"><ele>11.0</ele><time>2026-04-18T11:11:28.693Z</time></trkpt><trkpt lat="8.9639965" lon="-75.835453"><ele>11.0</ele><time>2026-04-18T11:11:29.693Z</time></trkpt><trkpt lat="8.9640801" lon="-75.835444"><ele>11.0</ele><time>2026-04-18T11:11:30.693Z</time></trkpt><trkpt lat="8.964164" lon="-75.8354361"><ele>11.0</ele><time>2026-04-18T11:11:31.694Z</time></trkpt><trkpt lat="8.964247" lon="-75.8354259"><ele>11.0</ele><time>2026-04-18T11:11:32.693Z</time></trkpt><trkpt lat="8.9643307" lon="-75.8354172"><ele>11.0</ele><time>2026-04-18T11:11:33.693Z</time></trkpt><trkpt lat="8.9644161" lon="-75.8354076"><ele>11.5</ele><time>2026-04-18T11:11:34.695Z</time></trkpt><trkpt lat="8.9645068" lon="-75.8353941"><ele>12.0</ele><time>2026-04-18T11:11:35.694Z</time></trkpt><trkpt lat="8.964595" lon="-75.8353846"><ele>12.5</ele><time>2026-04-18T11:11:36.693Z</time></trkpt><trkpt lat="8.9646797" lon="-75.8353743"><ele>13.0</ele><time>2026-04-18T11:11:37.693Z</time></trkpt><trkpt lat="8.9647603" lon="-75.8353635"><ele>13.500000000000002</ele><time>2026-04-18T11:11:38.693Z</time></trkpt><trkpt lat="8.9648468" lon="-75.8353535"><ele>14.0</ele><time>2026-04-18T11:11:39.693Z</time></trkpt><trkpt lat="8.9649288" lon="-75.8353403"><ele>14.000000000000002</ele><time>2026-04-18T11:11:40.693Z</time></trkpt><trkpt lat="8.9650156" lon="-75.8353324"><ele>14.0</ele><time>2026-04-18T11:11:41.694Z</time></trkpt><trkpt lat="8.9651014" lon="-75.835321"><ele>14.0</ele><time>2026-04-18T11:11:42.694Z</time></trkpt><trkpt lat="8.9651884" lon="-75.8353139"><ele>14.0</ele><time>2026-04-18T11:11:43.693Z</time></trkpt><trkpt lat="8.9652749" lon="-75.8353034"><ele>14.000000000000002</ele><time>2026-04-18T11:11:44.694Z</time></trkpt><trkpt lat="8.9653592" lon="-75.8352913"><ele>14.0</ele><time>2026-04-18T11:11:45.693Z</time></trkpt><trkpt lat="8.9654463" lon="-75.83528"><ele>14.166666666666668</ele><time>2026-04-18T11:11:46.693Z</time></trkpt><trkpt lat="8.9655342" lon="-75.8352722"><ele>14.333333333333334</ele><time>2026-04-18T11:11:47.693Z</time></trkpt><trkpt lat="8.9656233" lon="-75.8352587"><ele>14.5</ele><time>2026-04-18T11:11:48.693Z</time></trkpt><trkpt lat="8.9657117" lon="-75.8352479"><ele>14.666666666666668</ele><time>2026-04-18T11:11:49.693Z</time></trkpt><trkpt lat="8.9657983" lon="-75.8352389"><ele>14.833333333333334</ele><time>2026-04-18T11:11:50.693Z</time></trkpt><trkpt lat="8.9658835" lon="-75.835227"><ele>15.0</ele><time>2026-04-18T11:11:51.693Z</time></trkpt><trkpt lat="8.9659704" lon="-75.8352166"><ele>14.6</ele><time>2026-04-18T11:11:52.692Z</time></trkpt><trkpt lat="8.9660612" lon="-75.8352113"><ele>14.2</ele><time>2026-04-18T11:11:53.693Z</time></trkpt><trkpt lat="8.9661473" lon="-75.8351989"><ele>13.8</ele><time>2026-04-18T11:11:54.693Z</time></trkpt><trkpt lat="8.9662381" lon="-75.8351891"><ele>13.4</ele><time>2026-04-18T11:11:55.693Z</time></trkpt><trkpt lat="8.9663297" lon="-75.8351821"><ele>13.0</ele><time>2026-04-18T11:11:56.693Z</time></trkpt><trkpt lat="8.966421" lon="-75.8351726"><ele>13.0</ele><time>2026-04-18T11:11:57.694Z</time></trkpt><trkpt lat="8.9665092" lon="-75.8351654"><ele>13.0</ele><time>2026-04-18T11:11:58.693Z</time></trkpt><trkpt lat="8.9666005" lon="-75.8351579"><ele>13.0</ele><time>2026-04-18T11:11:59.694Z</time></trkpt><trkpt lat="8.9666895" lon="-75.8351487"><ele>13.0</ele><time>2026-04-18T11:12:00.695Z</time></trkpt><trkpt lat="8.9667809" lon="-75.8351378"><ele>13.0</ele><time>2026-04-18T11:12:01.693Z</time></trkpt><trkpt lat="8.966873" lon="-75.8351263"><ele>12.666666666666666</ele><time>2026-04-18T11:12:02.693Z</time></trkpt><trkpt lat="8.9669563" lon="-75.8351153"><ele>12.333333333333332</ele><time>2026-04-18T11:12:03.693Z</time></trkpt><trkpt lat="8.9670475" lon="-75.8351036"><ele>12.0</ele><time>2026-04-18T11:12:04.693Z</time></trkpt><trkpt lat="8.9671329" lon="-75.8350936"><ele>11.666666666666666</ele><time>2026-04-18T11:12:05.693Z</time></trkpt><trkpt lat="8.9672238" lon="-75.8350844"><ele>11.333333333333332</ele><time>2026-04-18T11:12:06.693Z</time></trkpt><trkpt lat="8.9673095" lon="-75.8350747"><ele>11.0</ele><time>2026-04-18T11:12:07.694Z</time></trkpt><trkpt lat="8.9673944" lon="-75.8350658"><ele>11.0</ele><time>2026-04-18T11:12:08.693Z</time></trkpt><trkpt lat="8.9674796" lon="-75.8350581"><ele>11.0</ele><time>2026-04-18T11:12:09.693Z</time></trkpt><trkpt lat="8.9675625" lon="-75.8350455"><ele>11.0</ele><time>2026-04-18T11:12:10.693Z</time></trkpt><trkpt lat="8.9676457" lon="-75.8350341"><ele>11.0</ele><time>2026-04-18T11:12:11.694Z</time></trkpt><trkpt lat="8.9677348" lon="-75.8350281"><ele>11.0</ele><time>2026-04-18T11:12:12.693Z</time></trkpt><trkpt lat="8.9678189" lon="-75.835015"><ele>11.0</ele><time>2026-04-18T11:12:13.693Z</time></trkpt><trkpt lat="8.9679047" lon="-75.8350053"><ele>10.833333333333332</ele><time>2026-04-18T11:12:14.693Z</time></trkpt><trkpt lat="8.9679939" lon="-75.834996"><ele>10.666666666666666</ele><time>2026-04-18T11:12:15.693Z</time></trkpt><trkpt lat="8.9680796" lon="-75.8349863"><ele>10.5</ele><time>2026-04-18T11:12:16.693Z</time></trkpt><trkpt lat="8.9681645" lon="-75.8349726"><ele>10.333333333333334</ele><time>2026-04-18T11:12:17.694Z</time></trkpt><trkpt lat="8.9682483" lon="-75.8349673"><ele>10.166666666666668</ele><time>2026-04-18T11:12:18.693Z</time></trkpt><trkpt lat="8.9683317" lon="-75.8349566"><ele>10.0</ele><time>2026-04-18T11:12:19.694Z</time></trkpt><trkpt lat="8.9684172" lon="-75.8349435"><ele>10.0</ele><time>2026-04-18T11:12:20.693Z</time></trkpt><trkpt lat="8.968504" lon="-75.8349338"><ele>10.0</ele><time>2026-04-18T11:12:21.693Z</time></trkpt><trkpt lat="8.9685874" lon="-75.8349257"><ele>10.0</ele><time>2026-04-18T11:12:22.694Z</time></trkpt><trkpt lat="8.9686772" lon="-75.8349193"><ele>10.0</ele><time>2026-04-18T11:12:23.693Z</time></trkpt><trkpt lat="8.9687644" lon="-75.8349094"><ele>10.0</ele><time>2026-04-18T11:12:24.693Z</time></trkpt><trkpt lat="8.9688525" lon="-75.8348991"><ele>10.0</ele><time>2026-04-18T11:12:25.693Z</time></trkpt><trkpt lat="8.9689399" lon="-75.8348912"><ele>10.0</ele><time>2026-04-18T11:12:26.693Z</time></trkpt><trkpt lat="8.9690242" lon="-75.8348871"><ele>10.0</ele><time>2026-04-18T11:12:27.694Z</time></trkpt><trkpt lat="8.9691059" lon="-75.8348788"><ele>10.0</ele><time>2026-04-18T11:12:28.694Z</time></trkpt><trkpt lat="8.9691893" lon="-75.8348664"><ele>10.0</ele><time>2026-04-18T11:12:29.693Z</time></trkpt><trkpt lat="8.9692736" lon="-75.8348564"><ele>10.0</ele><time>2026-04-18T11:12:30.694Z</time></trkpt><trkpt lat="8.9693589" lon="-75.834845"><ele>10.0</ele><time>2026-04-18T11:12:31.693Z</time></trkpt><trkpt lat="8.9694441" lon="-75.8348289"><ele>10.0</ele><time>2026-04-18T11:12:32.693Z</time></trkpt><trkpt lat="8.969528" lon="-75.8348216"><ele>10.0</ele><time>2026-04-18T11:12:33.693Z</time></trkpt><trkpt lat="8.9696101" lon="-75.8348153"><ele>10.0</ele><time>2026-04-18T11:12:34.693Z</time></trkpt><trkpt lat="8.9696926" lon="-75.8348059"><ele>10.0</ele><time>2026-04-18T11:12:35.693Z</time></trkpt><trkpt lat="8.9697775" lon="-75.8347937"><ele>10.0</ele><time>2026-04-18T11:12:36.693Z</time></trkpt><trkpt lat="8.9698527" lon="-75.8347799"><ele>10.0</ele><time>2026-04-18T11:12:37.694Z</time></trkpt><trkpt lat="8.9699342" lon="-75.8347755"><ele>10.0</ele><time>2026-04-18T11:12:38.693Z</time></trkpt><trkpt lat="8.9700161" lon="-75.8347719"><ele>10.0</ele><time>2026-04-18T11:12:39.693Z</time></trkpt><trkpt lat="8.9700907" lon="-75.8347622"><ele>10.0</ele><time>2026-04-18T11:12:40.693Z</time></trkpt><trkpt lat="8.9701723" lon="-75.8347558"><ele>10.0</ele><time>2026-04-18T11:12:41.693Z</time></trkpt><trkpt lat="8.9702526" lon="-75.8347534"><ele>10.0</ele><time>2026-04-18T11:12:42.693Z</time></trkpt><trkpt lat="8.9703329" lon="-75.8347456"><ele>10.0</ele><time>2026-04-18T11:12:43.693Z</time></trkpt><trkpt lat="8.9705002" lon="-75.8347248"><ele>10.166666666666668</ele><time>2026-04-18T11:12:45.693Z</time></trkpt><trkpt lat="8.9705855" lon="-75.8347192"><ele>10.333333333333334</ele><time>2026-04-18T11:12:46.693Z</time></trkpt><trkpt lat="8.9706698" lon="-75.8347044"><ele>10.5</ele><time>2026-04-18T11:12:47.693Z</time></trkpt><trkpt lat="8.9707546" lon="-75.8346936"><ele>10.666666666666666</ele><time>2026-04-18T11:12:48.693Z</time></trkpt><trkpt lat="8.9708407" lon="-75.8346842"><ele>10.833333333333332</ele><time>2026-04-18T11:12:49.693Z</time></trkpt><trkpt lat="8.9709279" lon="-75.8346718"><ele>11.0</ele><time>2026-04-18T11:12:50.693Z</time></trkpt><trkpt lat="8.9710148" lon="-75.8346644"><ele>10.666666666666666</ele><time>2026-04-18T11:12:51.693Z</time></trkpt><trkpt lat="8.9710999" lon="-75.8346548"><ele>10.333333333333332</ele><time>2026-04-18T11:12:52.694Z</time></trkpt><trkpt lat="8.9711851" lon="-75.8346481"><ele>10.0</ele><time>2026-04-18T11:12:53.693Z</time></trkpt><trkpt lat="8.9712713" lon="-75.834636"><ele>9.666666666666666</ele><time>2026-04-18T11:12:54.693Z</time></trkpt><trkpt lat="8.9713567" lon="-75.8346179"><ele>9.333333333333334</ele><time>2026-04-18T11:12:55.693Z</time></trkpt><trkpt lat="8.9714406" lon="-75.8346105"><ele>9.0</ele><time>2026-04-18T11:12:56.693Z</time></trkpt><trkpt lat="8.971529" lon="-75.8346005"><ele>9.0</ele><time>2026-04-18T11:12:57.693Z</time></trkpt><trkpt lat="8.9716156" lon="-75.8345894"><ele>9.0</ele><time>2026-04-18T11:12:58.693Z</time></trkpt><trkpt lat="8.9717026" lon="-75.8345809"><ele>9.0</ele><time>2026-04-18T11:12:59.693Z</time></trkpt><trkpt lat="8.9717926" lon="-75.8345709"><ele>9.0</ele><time>2026-04-18T11:13:00.693Z</time></trkpt><trkpt lat="8.9718726" lon="-75.8345592"><ele>9.0</ele><time>2026-04-18T11:13:01.692Z</time></trkpt><trkpt lat="8.971955" lon="-75.8345486"><ele>9.0</ele><time>2026-04-18T11:13:02.693Z</time></trkpt><trkpt lat="8.9720414" lon="-75.8345379"><ele>9.166666666666666</ele><time>2026-04-18T11:13:03.692Z</time></trkpt><trkpt lat="8.9721261" lon="-75.8345286"><ele>9.333333333333334</ele><time>2026-04-18T11:13:04.692Z</time></trkpt><trkpt lat="8.9722159" lon="-75.8345238"><ele>9.5</ele><time>2026-04-18T11:13:05.694Z</time></trkpt><trkpt lat="8.9723021" lon="-75.8345173"><ele>9.666666666666668</ele><time>2026-04-18T11:13:06.694Z</time></trkpt><trkpt lat="8.9723878" lon="-75.8345118"><ele>9.833333333333334</ele><time>2026-04-18T11:13:07.693Z</time></trkpt><trkpt lat="8.972473" lon="-75.8345029"><ele>10.0</ele><time>2026-04-18T11:13:08.693Z</time></trkpt><trkpt lat="8.9725616" lon="-75.8344961"><ele>10.333333333333334</ele><time>2026-04-18T11:13:09.693Z</time></trkpt><trkpt lat="8.9726457" lon="-75.8344856"><ele>10.666666666666668</ele><time>2026-04-18T11:13:10.694Z</time></trkpt><trkpt lat="8.9727317" lon="-75.8344745"><ele>11.0</ele><time>2026-04-18T11:13:11.693Z</time></trkpt><trkpt lat="8.9728187" lon="-75.8344647"><ele>11.333333333333334</ele><time>2026-04-18T11:13:12.693Z</time></trkpt><trkpt lat="8.9729067" lon="-75.8344575"><ele>11.666666666666666</ele><time>2026-04-18T11:13:13.693Z</time></trkpt><trkpt lat="8.9729976" lon="-75.8344471"><ele>12.0</ele><time>2026-04-18T11:13:14.693Z</time></trkpt><trkpt lat="8.9730816" lon="-75.8344334"><ele>12.0</ele><time>2026-04-18T11:13:15.693Z</time></trkpt><trkpt lat="8.9731706" lon="-75.8344205"><ele>12.0</ele><time>2026-04-18T11:13:16.694Z</time></trkpt><trkpt lat="8.9732603" lon="-75.834415"><ele>12.0</ele><time>2026-04-18T11:13:17.693Z</time></trkpt><trkpt lat="8.9733479" lon="-75.8344064"><ele>12.0</ele><time>2026-04-18T11:13:18.693Z</time></trkpt><trkpt lat="8.9734376" lon="-75.834399"><ele>12.0</ele><time>2026-04-18T11:13:19.693Z</time></trkpt><trkpt lat="8.9735278" lon="-75.8343901"><ele>12.0</ele><time>2026-04-18T11:13:20.693Z</time></trkpt><trkpt lat="8.9736171" lon="-75.8343804"><ele>11.833333333333334</ele><time>2026-04-18T11:13:21.693Z</time></trkpt><trkpt lat="8.9737029" lon="-75.8343715"><ele>11.666666666666666</ele><time>2026-04-18T11:13:22.693Z</time></trkpt><trkpt lat="8.973791" lon="-75.8343626"><ele>11.5</ele><time>2026-04-18T11:13:23.693Z</time></trkpt><trkpt lat="8.9738793" lon="-75.8343532"><ele>11.333333333333332</ele><time>2026-04-18T11:13:24.693Z</time></trkpt><trkpt lat="8.9739679" lon="-75.8343433"><ele>11.166666666666666</ele><time>2026-04-18T11:13:25.694Z</time></trkpt><trkpt lat="8.9740552" lon="-75.8343377"><ele>11.0</ele><time>2026-04-18T11:13:26.693Z</time></trkpt><trkpt lat="8.9741425" lon="-75.8343304"><ele>11.0</ele><time>2026-04-18T11:13:27.693Z</time></trkpt><trkpt lat="8.9742305" lon="-75.8343222"><ele>11.0</ele><time>2026-04-18T11:13:28.693Z</time></trkpt><trkpt lat="8.9743141" lon="-75.8343125"><ele>11.0</ele><time>2026-04-18T11:13:29.693Z</time></trkpt><trkpt lat="8.9744064" lon="-75.8343057"><ele>11.0</ele><time>2026-04-18T11:13:30.694Z</time></trkpt><trkpt lat="8.9744927" lon="-75.8342942"><ele>11.0</ele><time>2026-04-18T11:13:31.693Z</time></trkpt><trkpt lat="8.9745775" lon="-75.8342834"><ele>11.0</ele><time>2026-04-18T11:13:32.693Z</time></trkpt><trkpt lat="8.9746656" lon="-75.8342724"><ele>11.0</ele><time>2026-04-18T11:13:33.693Z</time></trkpt><trkpt lat="8.974753" lon="-75.8342608"><ele>11.0</ele><time>2026-04-18T11:13:34.694Z</time></trkpt><trkpt lat="8.9748391" lon="-75.8342552"><ele>11.0</ele><time>2026-04-18T11:13:35.693Z</time></trkpt><trkpt lat="8.9749307" lon="-75.8342465"><ele>11.0</ele><time>2026-04-18T11:13:36.692Z</time></trkpt><trkpt lat="8.9750222" lon="-75.8342313"><ele>11.0</ele><time>2026-04-18T11:13:37.694Z</time></trkpt><trkpt lat="8.9751093" lon="-75.8342182"><ele>11.0</ele><time>2026-04-18T11:13:38.694Z</time></trkpt><trkpt lat="8.9751943" lon="-75.8342083"><ele>11.0</ele><time>2026-04-18T11:13:39.693Z</time></trkpt><trkpt lat="8.9752769" lon="-75.8342008"><ele>11.0</ele><time>2026-04-18T11:13:40.693Z</time></trkpt><trkpt lat="8.9753595" lon="-75.8341925"><ele>11.0</ele><time>2026-04-18T11:13:41.693Z</time></trkpt><trkpt lat="8.9754448" lon="-75.8341824"><ele>11.0</ele><time>2026-04-18T11:13:42.693Z</time></trkpt><trkpt lat="8.9755298" lon="-75.8341662"><ele>11.0</ele><time>2026-04-18T11:13:43.694Z</time></trkpt><trkpt lat="8.9756191" lon="-75.8341559"><ele>11.0</ele><time>2026-04-18T11:13:44.693Z</time></trkpt><trkpt lat="8.9757088" lon="-75.8341501"><ele>11.0</ele><time>2026-04-18T11:13:45.694Z</time></trkpt><trkpt lat="8.9757964" lon="-75.8341418"><ele>11.0</ele><time>2026-04-18T11:13:46.693Z</time></trkpt><trkpt lat="8.9758823" lon="-75.8341319"><ele>11.0</ele><time>2026-04-18T11:13:47.693Z</time></trkpt><trkpt lat="8.975965" lon="-75.8341155"><ele>11.0</ele><time>2026-04-18T11:13:48.691Z</time></trkpt><trkpt lat="8.9760523" lon="-75.8341076"><ele>11.0</ele><time>2026-04-18T11:13:49.694Z</time></trkpt><trkpt lat="8.9761358" lon="-75.8340961"><ele>11.0</ele><time>2026-04-18T11:13:50.693Z</time></trkpt><trkpt lat="8.9762203" lon="-75.8340786"><ele>11.0</ele><time>2026-04-18T11:13:51.693Z</time></trkpt><trkpt lat="8.9763053" lon="-75.8340673"><ele>11.0</ele><time>2026-04-18T11:13:52.693Z</time></trkpt><trkpt lat="8.9763905" lon="-75.8340638"><ele>11.0</ele><time>2026-04-18T11:13:53.693Z</time></trkpt><trkpt lat="8.9764812" lon="-75.834061"><ele>11.0</ele><time>2026-04-18T11:13:54.694Z</time></trkpt><trkpt lat="8.976562" lon="-75.834054"><ele>11.0</ele><time>2026-04-18T11:13:55.693Z</time></trkpt><trkpt lat="8.9766488" lon="-75.8340449"><ele>11.0</ele><time>2026-04-18T11:13:56.692Z</time></trkpt><trkpt lat="8.9767318" lon="-75.8340342"><ele>10.833333333333332</ele><time>2026-04-18T11:13:57.693Z</time></trkpt><trkpt lat="8.9768166" lon="-75.8340289"><ele>10.666666666666666</ele><time>2026-04-18T11:13:58.693Z</time></trkpt><trkpt lat="8.9768989" lon="-75.8340211"><ele>10.5</ele><time>2026-04-18T11:13:59.692Z</time></trkpt><trkpt lat="8.9769827" lon="-75.8340144"><ele>10.333333333333334</ele><time>2026-04-18T11:14:00.692Z</time></trkpt><trkpt lat="8.9770727" lon="-75.8340055"><ele>10.166666666666668</ele><time>2026-04-18T11:14:01.692Z</time></trkpt><trkpt lat="8.9771549" lon="-75.8339929"><ele>10.0</ele><time>2026-04-18T11:14:02.693Z</time></trkpt><trkpt lat="8.977242" lon="-75.8339816"><ele>10.0</ele><time>2026-04-18T11:14:03.694Z</time></trkpt><trkpt lat="8.9773259" lon="-75.8339737"><ele>10.0</ele><time>2026-04-18T11:14:04.694Z</time></trkpt><trkpt lat="8.9774068" lon="-75.8339604"><ele>10.0</ele><time>2026-04-18T11:14:05.693Z</time></trkpt><trkpt lat="8.9774919" lon="-75.8339491"><ele>10.0</ele><time>2026-04-18T11:14:06.693Z</time></trkpt><trkpt lat="8.9775751" lon="-75.8339374"><ele>10.0</ele><time>2026-04-18T11:14:07.692Z</time></trkpt><trkpt lat="8.9776615" lon="-75.8339248"><ele>10.0</ele><time>2026-04-18T11:14:08.693Z</time></trkpt><trkpt lat="8.9777446" lon="-75.8339125"><ele>10.166666666666668</ele><time>2026-04-18T11:14:09.692Z</time></trkpt><trkpt lat="8.9778308" lon="-75.8339017"><ele>10.333333333333334</ele><time>2026-04-18T11:14:10.693Z</time></trkpt><trkpt lat="8.9779152" lon="-75.8338931"><ele>10.5</ele><time>2026-04-18T11:14:11.693Z</time></trkpt><trkpt lat="8.9779989" lon="-75.8338829"><ele>10.666666666666666</ele><time>2026-04-18T11:14:12.692Z</time></trkpt><trkpt lat="8.9780839" lon="-75.8338792"><ele>10.833333333333332</ele><time>2026-04-18T11:14:13.693Z</time></trkpt><trkpt lat="8.9781664" lon="-75.8338707"><ele>11.0</ele><time>2026-04-18T11:14:14.693Z</time></trkpt><trkpt lat="8.978253" lon="-75.8338636"><ele>11.0</ele><time>2026-04-18T11:14:15.693Z</time></trkpt><trkpt lat="8.9783379" lon="-75.8338574"><ele>11.0</ele><time>2026-04-18T11:14:16.694Z</time></trkpt><trkpt lat="8.9784263" lon="-75.833852"><ele>11.0</ele><time>2026-04-18T11:14:17.693Z</time></trkpt><trkpt lat="8.9785176" lon="-75.8338423"><ele>11.0</ele><time>2026-04-18T11:14:18.693Z</time></trkpt><trkpt lat="8.9786066" lon="-75.8338309"><ele>11.0</ele><time>2026-04-18T11:14:19.693Z</time></trkpt><trkpt lat="8.9786972" lon="-75.8338204"><ele>11.0</ele><time>2026-04-18T11:14:20.692Z</time></trkpt><trkpt lat="8.9787876" lon="-75.8338111"><ele>10.833333333333332</ele><time>2026-04-18T11:14:21.693Z</time></trkpt><trkpt lat="8.9788725" lon="-75.8338026"><ele>10.666666666666666</ele><time>2026-04-18T11:14:22.692Z</time></trkpt><trkpt lat="8.9789592" lon="-75.833795"><ele>10.5</ele><time>2026-04-18T11:14:23.693Z</time></trkpt><trkpt lat="8.9790448" lon="-75.8337896"><ele>10.333333333333334</ele><time>2026-04-18T11:14:24.693Z</time></trkpt><trkpt lat="8.9791356" lon="-75.8337827"><ele>10.166666666666668</ele><time>2026-04-18T11:14:25.692Z</time></trkpt><trkpt lat="8.9792177" lon="-75.8337736"><ele>10.0</ele><time>2026-04-18T11:14:26.693Z</time></trkpt><trkpt lat="8.9793064" lon="-75.8337624"><ele>10.0</ele><time>2026-04-18T11:14:27.692Z</time></trkpt><trkpt lat="8.9793976" lon="-75.8337462"><ele>10.0</ele><time>2026-04-18T11:14:28.694Z</time></trkpt><trkpt lat="8.9794753" lon="-75.8337369"><ele>10.0</ele><time>2026-04-18T11:14:29.693Z</time></trkpt><trkpt lat="8.9795557" lon="-75.8337253"><ele>10.0</ele><time>2026-04-18T11:14:30.694Z</time></trkpt><trkpt lat="8.9796402" lon="-75.8337159"><ele>10.0</ele><time>2026-04-18T11:14:31.693Z</time></trkpt><trkpt lat="8.9797257" lon="-75.8337004"><ele>10.0</ele><time>2026-04-18T11:14:32.691Z</time></trkpt><trkpt lat="8.9798043" lon="-75.8336862"><ele>10.0</ele><time>2026-04-18T11:14:33.693Z</time></trkpt><trkpt lat="8.9798866" lon="-75.8336816"><ele>10.0</ele><time>2026-04-18T11:14:34.693Z</time></trkpt><trkpt lat="8.9799677" lon="-75.8336714"><ele>10.0</ele><time>2026-04-18T11:14:35.692Z</time></trkpt><trkpt lat="8.9800432" lon="-75.8336639"><ele>10.0</ele><time>2026-04-18T11:14:36.692Z</time></trkpt><trkpt lat="8.9801169" lon="-75.8336567"><ele>10.0</ele><time>2026-04-18T11:14:37.692Z</time></trkpt><trkpt lat="8.9801942" lon="-75.8336478"><ele>10.0</ele><time>2026-04-18T11:14:38.692Z</time></trkpt><trkpt lat="8.9802684" lon="-75.8336467"><ele>10.142857142857142</ele><time>2026-04-18T11:14:39.693Z</time></trkpt><trkpt lat="8.9803406" lon="-75.8336391"><ele>10.285714285714286</ele><time>2026-04-18T11:14:40.693Z</time></trkpt><trkpt lat="8.9804113" lon="-75.833634"><ele>10.428571428571429</ele><time>2026-04-18T11:14:41.693Z</time></trkpt><trkpt lat="8.9804809" lon="-75.8336266"><ele>10.571428571428571</ele><time>2026-04-18T11:14:42.693Z</time></trkpt><trkpt lat="8.9805443" lon="-75.8336162"><ele>10.714285714285714</ele><time>2026-04-18T11:14:43.692Z</time></trkpt><trkpt lat="8.9806142" lon="-75.8336079"><ele>10.857142857142858</ele><time>2026-04-18T11:14:44.693Z</time></trkpt><trkpt lat="8.9806832" lon="-75.8336004"><ele>11.0</ele><time>2026-04-18T11:14:45.693Z</time></trkpt><trkpt lat="8.9807526" lon="-75.8335906"><ele>11.0</ele><time>2026-04-18T11:14:46.693Z</time></trkpt><trkpt lat="8.9808278" lon="-75.833584"><ele>11.0</ele><time>2026-04-18T11:14:47.693Z</time></trkpt><trkpt lat="8.9809096" lon="-75.8335765"><ele>11.0</ele><time>2026-04-18T11:14:48.692Z</time></trkpt><trkpt lat="8.9809735" lon="-75.833566"><ele>11.0</ele><time>2026-04-18T11:14:49.693Z</time></trkpt><trkpt lat="8.9810496" lon="-75.8335466"><ele>11.0</ele><time>2026-04-18T11:14:50.693Z</time></trkpt><trkpt lat="8.9811229" lon="-75.8335392"><ele>11.0</ele><time>2026-04-18T11:14:51.693Z</time></trkpt><trkpt lat="8.9811858" lon="-75.8335322"><ele>11.0</ele><time>2026-04-18T11:14:52.692Z</time></trkpt><trkpt lat="8.9813141" lon="-75.8335275"><ele>11.0</ele><time>2026-04-18T11:14:54.693Z</time></trkpt><trkpt lat="8.9813837" lon="-75.8335214"><ele>11.0</ele><time>2026-04-18T11:14:55.693Z</time></trkpt><trkpt lat="8.9814543" lon="-75.8335116"><ele>11.0</ele><time>2026-04-18T11:14:56.693Z</time></trkpt><trkpt lat="8.9815344" lon="-75.8335013"><ele>11.0</ele><time>2026-04-18T11:14:57.693Z</time></trkpt><trkpt lat="8.9816074" lon="-75.8334885"><ele>11.0</ele><time>2026-04-18T11:14:58.693Z</time></trkpt><trkpt lat="8.9816775" lon="-75.833474"><ele>11.0</ele><time>2026-04-18T11:14:59.693Z</time></trkpt><trkpt lat="8.9817528" lon="-75.8334665"><ele>11.0</ele><time>2026-04-18T11:15:00.694Z</time></trkpt><trkpt lat="8.981827" lon="-75.8334673"><ele>11.0</ele><time>2026-04-18T11:15:01.693Z</time></trkpt><trkpt lat="8.9818957" lon="-75.8334588"><ele>11.0</ele><time>2026-04-18T11:15:02.693Z</time></trkpt><trkpt lat="8.9819721" lon="-75.8334527"><ele>11.0</ele><time>2026-04-18T11:15:03.692Z</time></trkpt><trkpt lat="8.9820439" lon="-75.8334478"><ele>11.0</ele><time>2026-04-18T11:15:04.693Z</time></trkpt><trkpt lat="8.9821215" lon="-75.8334409"><ele>11.0</ele><time>2026-04-18T11:15:05.693Z</time></trkpt><trkpt lat="8.9821927" lon="-75.8334305"><ele>11.0</ele><time>2026-04-18T11:15:06.691Z</time></trkpt><trkpt lat="8.9822711" lon="-75.8334279"><ele>11.0</ele><time>2026-04-18T11:15:07.693Z</time></trkpt><trkpt lat="8.9823479" lon="-75.8334169"><ele>11.0</ele><time>2026-04-18T11:15:08.693Z</time></trkpt><trkpt lat="8.982423" lon="-75.8334072"><ele>11.0</ele><time>2026-04-18T11:15:09.693Z</time></trkpt><trkpt lat="8.9824995" lon="-75.8333997"><ele>11.0</ele><time>2026-04-18T11:15:10.694Z</time></trkpt><trkpt lat="8.9825734" lon="-75.8333891"><ele>11.0</ele><time>2026-04-18T11:15:11.694Z</time></trkpt><trkpt lat="8.98265" lon="-75.8333778"><ele>11.0</ele><time>2026-04-18T11:15:12.693Z</time></trkpt><trkpt lat="8.9827236" lon="-75.8333678"><ele>11.0</ele><time>2026-04-18T11:15:13.692Z</time></trkpt><trkpt lat="8.9828025" lon="-75.8333538"><ele>11.333333333333332</ele><time>2026-04-18T11:15:14.693Z</time></trkpt><trkpt lat="8.9828792" lon="-75.8333456"><ele>11.666666666666666</ele><time>2026-04-18T11:15:15.693Z</time></trkpt><trkpt lat="8.9829502" lon="-75.8333396"><ele>12.0</ele><time>2026-04-18T11:15:16.693Z</time></trkpt><trkpt lat="8.9830292" lon="-75.8333318"><ele>12.333333333333332</ele><time>2026-04-18T11:15:17.692Z</time></trkpt><trkpt lat="8.9831068" lon="-75.8333252"><ele>12.666666666666666</ele><time>2026-04-18T11:15:18.692Z</time></trkpt><trkpt lat="8.983188" lon="-75.8333198"><ele>13.0</ele><time>2026-04-18T11:15:19.693Z</time></trkpt><trkpt lat="8.9832642" lon="-75.8333071"><ele>12.999999999999998</ele><time>2026-04-18T11:15:20.691Z</time></trkpt><trkpt lat="8.9833441" lon="-75.8332974"><ele>13.0</ele><time>2026-04-18T11:15:21.693Z</time></trkpt><trkpt lat="8.9834229" lon="-75.8332877"><ele>13.0</ele><time>2026-04-18T11:15:22.693Z</time></trkpt><trkpt lat="8.9835009" lon="-75.8332784"><ele>13.0</ele><time>2026-04-18T11:15:23.693Z</time></trkpt><trkpt lat="8.9835831" lon="-75.8332711"><ele>12.999999999999998</ele><time>2026-04-18T11:15:24.693Z</time></trkpt><trkpt lat="8.983664" lon="-75.8332632"><ele>13.0</ele><time>2026-04-18T11:15:25.693Z</time></trkpt><trkpt lat="8.9837438" lon="-75.8332548"><ele>12.833333333333332</ele><time>2026-04-18T11:15:26.693Z</time></trkpt><trkpt lat="8.9838234" lon="-75.8332478"><ele>12.666666666666666</ele><time>2026-04-18T11:15:27.692Z</time></trkpt><trkpt lat="8.9839046" lon="-75.8332417"><ele>12.5</ele><time>2026-04-18T11:15:28.692Z</time></trkpt><trkpt lat="8.9839903" lon="-75.8332319"><ele>12.333333333333332</ele><time>2026-04-18T11:15:29.693Z</time></trkpt><trkpt lat="8.9840748" lon="-75.8332263"><ele>12.166666666666666</ele><time>2026-04-18T11:15:30.692Z</time></trkpt><trkpt lat="8.9841527" lon="-75.8332145"><ele>12.0</ele><time>2026-04-18T11:15:31.692Z</time></trkpt><trkpt lat="8.984232" lon="-75.8332052"><ele>12.0</ele><time>2026-04-18T11:15:32.693Z</time></trkpt><trkpt lat="8.9843144" lon="-75.8332"><ele>12.0</ele><time>2026-04-18T11:15:33.692Z</time></trkpt><trkpt lat="8.9843939" lon="-75.833194"><ele>12.0</ele><time>2026-04-18T11:15:34.693Z</time></trkpt><trkpt lat="8.9844762" lon="-75.8331888"><ele>12.0</ele><time>2026-04-18T11:15:35.694Z</time></trkpt><trkpt lat="8.9845536" lon="-75.8331789"><ele>12.0</ele><time>2026-04-18T11:15:36.694Z</time></trkpt><trkpt lat="8.9846325" lon="-75.8331683"><ele>12.0</ele><time>2026-04-18T11:15:37.693Z</time></trkpt><trkpt lat="8.9847089" lon="-75.8331569"><ele>12.0</ele><time>2026-04-18T11:15:38.693Z</time></trkpt><trkpt lat="8.9847863" lon="-75.8331431"><ele>12.0</ele><time>2026-04-18T11:15:39.692Z</time></trkpt><trkpt lat="8.9848597" lon="-75.8331292"><ele>12.0</ele><time>2026-04-18T11:15:40.693Z</time></trkpt><trkpt lat="8.9849398" lon="-75.8331145"><ele>12.0</ele><time>2026-04-18T11:15:41.693Z</time></trkpt><trkpt lat="8.9850126" lon="-75.8331124"><ele>12.0</ele><time>2026-04-18T11:15:42.693Z</time></trkpt><trkpt lat="8.9850829" lon="-75.8331122"><ele>12.0</ele><time>2026-04-18T11:15:43.693Z</time></trkpt><trkpt lat="8.9851546" lon="-75.8331086"><ele>11.857142857142856</ele><time>2026-04-18T11:15:44.692Z</time></trkpt><trkpt lat="8.9852222" lon="-75.8331027"><ele>11.714285714285714</ele><time>2026-04-18T11:15:45.693Z</time></trkpt><trkpt lat="8.985291" lon="-75.8330951"><ele>11.571428571428571</ele><time>2026-04-18T11:15:46.693Z</time></trkpt><trkpt lat="8.9853619" lon="-75.8330903"><ele>11.428571428571427</ele><time>2026-04-18T11:15:47.694Z</time></trkpt><trkpt lat="8.9854312" lon="-75.8330908"><ele>11.285714285714285</ele><time>2026-04-18T11:15:48.692Z</time></trkpt><trkpt lat="8.9855054" lon="-75.8330889"><ele>11.142857142857142</ele><time>2026-04-18T11:15:49.693Z</time></trkpt><trkpt lat="8.985578" lon="-75.8330815"><ele>11.0</ele><time>2026-04-18T11:15:50.692Z</time></trkpt><trkpt lat="8.9856517" lon="-75.833075"><ele>11.0</ele><time>2026-04-18T11:15:51.693Z</time></trkpt><trkpt lat="8.9857197" lon="-75.8330657"><ele>11.0</ele><time>2026-04-18T11:15:52.693Z</time></trkpt><trkpt lat="8.9857896" lon="-75.8330582"><ele>11.0</ele><time>2026-04-18T11:15:53.693Z</time></trkpt><trkpt lat="8.9858598" lon="-75.8330411"><ele>11.0</ele><time>2026-04-18T11:15:54.694Z</time></trkpt><trkpt lat="8.9859281" lon="-75.8330283"><ele>11.0</ele><time>2026-04-18T11:15:55.693Z</time></trkpt><trkpt lat="8.985994" lon="-75.8330171"><ele>11.0</ele><time>2026-04-18T11:15:56.695Z</time></trkpt><trkpt lat="8.9860644" lon="-75.8330112"><ele>11.0</ele><time>2026-04-18T11:15:57.693Z</time></trkpt><trkpt lat="8.9861351" lon="-75.833004"><ele>11.142857142857142</ele><time>2026-04-18T11:15:58.693Z</time></trkpt><trkpt lat="8.986206" lon="-75.8329914"><ele>11.285714285714285</ele><time>2026-04-18T11:15:59.693Z</time></trkpt><trkpt lat="8.9862801" lon="-75.8329868"><ele>11.428571428571427</ele><time>2026-04-18T11:16:00.693Z</time></trkpt><trkpt lat="8.9863541" lon="-75.8329777"><ele>11.571428571428571</ele><time>2026-04-18T11:16:01.693Z</time></trkpt><trkpt lat="8.9864239" lon="-75.8329665"><ele>11.714285714285714</ele><time>2026-04-18T11:16:02.693Z</time></trkpt><trkpt lat="8.9864977" lon="-75.832956"><ele>11.857142857142856</ele><time>2026-04-18T11:16:03.693Z</time></trkpt><trkpt lat="8.9865718" lon="-75.8329533"><ele>12.0</ele><time>2026-04-18T11:16:04.693Z</time></trkpt><trkpt lat="8.9866411" lon="-75.8329471"><ele>12.0</ele><time>2026-04-18T11:16:05.692Z</time></trkpt><trkpt lat="8.9867166" lon="-75.83294"><ele>12.0</ele><time>2026-04-18T11:16:06.693Z</time></trkpt><trkpt lat="8.9867902" lon="-75.8329331"><ele>12.0</ele><time>2026-04-18T11:16:07.693Z</time></trkpt><trkpt lat="8.9868623" lon="-75.8329249"><ele>12.0</ele><time>2026-04-18T11:16:08.693Z</time></trkpt><trkpt lat="8.9869405" lon="-75.8329141"><ele>12.0</ele><time>2026-04-18T11:16:09.693Z</time></trkpt><trkpt lat="8.9870166" lon="-75.832905"><ele>12.0</ele><time>2026-04-18T11:16:10.693Z</time></trkpt><trkpt lat="8.9870918" lon="-75.8328982"><ele>12.0</ele><time>2026-04-18T11:16:11.693Z</time></trkpt><trkpt lat="8.9871687" lon="-75.8328896"><ele>12.0</ele><time>2026-04-18T11:16:12.694Z</time></trkpt><trkpt lat="8.9872513" lon="-75.832877"><ele>12.0</ele><time>2026-04-18T11:16:13.693Z</time></trkpt><trkpt lat="8.9873296" lon="-75.8328649"><ele>12.0</ele><time>2026-04-18T11:16:14.693Z</time></trkpt><trkpt lat="8.987405" lon="-75.8328502"><ele>12.0</ele><time>2026-04-18T11:16:15.693Z</time></trkpt><trkpt lat="8.9874793" lon="-75.83284"><ele>12.0</ele><time>2026-04-18T11:16:16.692Z</time></trkpt><trkpt lat="8.9875522" lon="-75.8328323"><ele>11.833333333333334</ele><time>2026-04-18T11:16:17.694Z</time></trkpt><trkpt lat="8.987629" lon="-75.8328239"><ele>11.666666666666666</ele><time>2026-04-18T11:16:18.693Z</time></trkpt><trkpt lat="8.987708" lon="-75.832814"><ele>11.5</ele><time>2026-04-18T11:16:19.694Z</time></trkpt><trkpt lat="8.9877864" lon="-75.8328102"><ele>11.333333333333332</ele><time>2026-04-18T11:16:20.694Z</time></trkpt><trkpt lat="8.9878651" lon="-75.8327999"><ele>11.166666666666666</ele><time>2026-04-18T11:16:21.693Z</time></trkpt><trkpt lat="8.9879422" lon="-75.8327941"><ele>11.0</ele><time>2026-04-18T11:16:22.692Z</time></trkpt><trkpt lat="8.9880161" lon="-75.8327862"><ele>11.0</ele><time>2026-04-18T11:16:23.693Z</time></trkpt><trkpt lat="8.988086" lon="-75.8327721"><ele>11.0</ele><time>2026-04-18T11:16:24.694Z</time></trkpt><trkpt lat="8.9881656" lon="-75.8327655"><ele>11.0</ele><time>2026-04-18T11:16:25.692Z</time></trkpt><trkpt lat="8.9882443" lon="-75.8327576"><ele>11.0</ele><time>2026-04-18T11:16:26.693Z</time></trkpt><trkpt lat="8.9883205" lon="-75.8327549"><ele>11.0</ele><time>2026-04-18T11:16:27.693Z</time></trkpt><trkpt lat="8.9884007" lon="-75.8327466"><ele>11.0</ele><time>2026-04-18T11:16:28.692Z</time></trkpt><trkpt lat="8.9884763" lon="-75.8327341"><ele>11.333333333333332</ele><time>2026-04-18T11:16:29.693Z</time></trkpt><trkpt lat="8.9885507" lon="-75.8327195"><ele>11.666666666666666</ele><time>2026-04-18T11:16:30.693Z</time></trkpt><trkpt lat="8.988632" lon="-75.832709"><ele>12.0</ele><time>2026-04-18T11:16:31.693Z</time></trkpt><trkpt lat="8.9887117" lon="-75.8327001"><ele>12.333333333333332</ele><time>2026-04-18T11:16:32.693Z</time></trkpt><trkpt lat="8.9887919" lon="-75.8326922"><ele>12.666666666666666</ele><time>2026-04-18T11:16:33.693Z</time></trkpt><trkpt lat="8.9888741" lon="-75.8326838"><ele>13.0</ele><time>2026-04-18T11:16:34.693Z</time></trkpt><trkpt lat="8.9889519" lon="-75.8326765"><ele>12.999999999999998</ele><time>2026-04-18T11:16:35.693Z</time></trkpt><trkpt lat="8.9890286" lon="-75.8326661"><ele>13.0</ele><time>2026-04-18T11:16:36.693Z</time></trkpt><trkpt lat="8.9891086" lon="-75.8326578"><ele>13.0</ele><time>2026-04-18T11:16:37.693Z</time></trkpt><trkpt lat="8.9891862" lon="-75.832648"><ele>13.0</ele><time>2026-04-18T11:16:38.694Z</time></trkpt><trkpt lat="8.9892654" lon="-75.8326411"><ele>12.999999999999998</ele><time>2026-04-18T11:16:39.692Z</time></trkpt><trkpt lat="8.989346" lon="-75.8326366"><ele>13.0</ele><time>2026-04-18T11:16:40.692Z</time></trkpt><trkpt lat="8.9894239" lon="-75.8326282"><ele>12.833333333333332</ele><time>2026-04-18T11:16:41.693Z</time></trkpt><trkpt lat="8.9894996" lon="-75.83262"><ele>12.666666666666666</ele><time>2026-04-18T11:16:42.693Z</time></trkpt><trkpt lat="8.9895785" lon="-75.8326076"><ele>12.5</ele><time>2026-04-18T11:16:43.694Z</time></trkpt><trkpt lat="8.9896564" lon="-75.8326001"><ele>12.333333333333332</ele><time>2026-04-18T11:16:44.692Z</time></trkpt><trkpt lat="8.9897372" lon="-75.8325933"><ele>12.166666666666666</ele><time>2026-04-18T11:16:45.693Z</time></trkpt><trkpt lat="8.989817" lon="-75.8325884"><ele>12.0</ele><time>2026-04-18T11:16:46.694Z</time></trkpt><trkpt lat="8.9898958" lon="-75.8325824"><ele>12.0</ele><time>2026-04-18T11:16:47.694Z</time></trkpt><trkpt lat="8.9899734" lon="-75.8325744"><ele>12.0</ele><time>2026-04-18T11:16:48.694Z</time></trkpt><trkpt lat="8.9900536" lon="-75.832567"><ele>12.0</ele><time>2026-04-18T11:16:49.692Z</time></trkpt><trkpt lat="8.9901303" lon="-75.8325595"><ele>12.0</ele><time>2026-04-18T11:16:50.692Z</time></trkpt><trkpt lat="8.9902011" lon="-75.8325496"><ele>12.0</ele><time>2026-04-18T11:16:51.692Z</time></trkpt><trkpt lat="8.9902768" lon="-75.8325391"><ele>12.0</ele><time>2026-04-18T11:16:52.692Z</time></trkpt><trkpt lat="8.9903536" lon="-75.8325257"><ele>11.833333333333334</ele><time>2026-04-18T11:16:53.691Z</time></trkpt><trkpt lat="8.9904333" lon="-75.8325199"><ele>11.666666666666666</ele><time>2026-04-18T11:16:54.693Z</time></trkpt><trkpt lat="8.9905126" lon="-75.8325157"><ele>11.5</ele><time>2026-04-18T11:16:55.693Z</time></trkpt><trkpt lat="8.9905956" lon="-75.8325047"><ele>11.333333333333332</ele><time>2026-04-18T11:16:56.692Z</time></trkpt><trkpt lat="8.9906728" lon="-75.8324946"><ele>11.166666666666666</ele><time>2026-04-18T11:16:57.693Z</time></trkpt><trkpt lat="8.9907459" lon="-75.8324854"><ele>11.0</ele><time>2026-04-18T11:16:58.692Z</time></trkpt><trkpt lat="8.9908324" lon="-75.8324762"><ele>10.833333333333332</ele><time>2026-04-18T11:16:59.693Z</time></trkpt><trkpt lat="8.9909042" lon="-75.832466"><ele>10.666666666666666</ele><time>2026-04-18T11:17:00.692Z</time></trkpt><trkpt lat="8.9909827" lon="-75.8324561"><ele>10.5</ele><time>2026-04-18T11:17:01.692Z</time></trkpt><trkpt lat="8.9910644" lon="-75.8324521"><ele>10.333333333333334</ele><time>2026-04-18T11:17:02.692Z</time></trkpt><trkpt lat="8.9911453" lon="-75.8324421"><ele>10.166666666666668</ele><time>2026-04-18T11:17:03.693Z</time></trkpt><trkpt lat="8.9912235" lon="-75.8324319"><ele>10.0</ele><time>2026-04-18T11:17:04.692Z</time></trkpt><trkpt lat="8.9913004" lon="-75.8324225"><ele>10.0</ele><time>2026-04-18T11:17:05.693Z</time></trkpt><trkpt lat="8.9913793" lon="-75.8324157"><ele>10.0</ele><time>2026-04-18T11:17:06.691Z</time></trkpt><trkpt lat="8.9914638" lon="-75.8324122"><ele>10.0</ele><time>2026-04-18T11:17:07.693Z</time></trkpt><trkpt lat="8.9915399" lon="-75.8324047"><ele>10.0</ele><time>2026-04-18T11:17:08.693Z</time></trkpt><trkpt lat="8.9916221" lon="-75.832395"><ele>10.0</ele><time>2026-04-18T11:17:09.692Z</time></trkpt><trkpt lat="8.9917019" lon="-75.8323817"><ele>10.0</ele><time>2026-04-18T11:17:10.692Z</time></trkpt><trkpt lat="8.9917819" lon="-75.8323665"><ele>10.0</ele><time>2026-04-18T11:17:11.693Z</time></trkpt><trkpt lat="8.9918659" lon="-75.8323536"><ele>10.0</ele><time>2026-04-18T11:17:12.693Z</time></trkpt><trkpt lat="8.9919523" lon="-75.8323449"><ele>10.0</ele><time>2026-04-18T11:17:13.694Z</time></trkpt><trkpt lat="8.9920358" lon="-75.8323352"><ele>10.0</ele><time>2026-04-18T11:17:14.693Z</time></trkpt><trkpt lat="8.9921237" lon="-75.8323232"><ele>10.0</ele><time>2026-04-18T11:17:15.692Z</time></trkpt><trkpt lat="8.9922074" lon="-75.8323081"><ele>10.0</ele><time>2026-04-18T11:17:16.692Z</time></trkpt><trkpt lat="8.9922955" lon="-75.8323019"><ele>10.0</ele><time>2026-04-18T11:17:17.693Z</time></trkpt><trkpt lat="8.9923775" lon="-75.832294"><ele>10.0</ele><time>2026-04-18T11:17:18.692Z</time></trkpt><trkpt lat="8.9924649" lon="-75.8322838"><ele>10.0</ele><time>2026-04-18T11:17:19.692Z</time></trkpt><trkpt lat="8.9925471" lon="-75.8322792"><ele>10.0</ele><time>2026-04-18T11:17:20.692Z</time></trkpt><trkpt lat="8.9926314" lon="-75.8322733"><ele>10.0</ele><time>2026-04-18T11:17:21.693Z</time></trkpt><trkpt lat="8.992712" lon="-75.8322666"><ele>10.0</ele><time>2026-04-18T11:17:22.692Z</time></trkpt><trkpt lat="8.9927937" lon="-75.8322559"><ele>9.833333333333334</ele><time>2026-04-18T11:17:23.693Z</time></trkpt><trkpt lat="8.9928782" lon="-75.8322459"><ele>9.666666666666668</ele><time>2026-04-18T11:17:24.692Z</time></trkpt><trkpt lat="8.9929592" lon="-75.8322386"><ele>9.5</ele><time>2026-04-18T11:17:25.692Z</time></trkpt><trkpt lat="8.9930416" lon="-75.8322313"><ele>9.333333333333334</ele><time>2026-04-18T11:17:26.692Z</time></trkpt><trkpt lat="8.9931241" lon="-75.8322199"><ele>9.166666666666666</ele><time>2026-04-18T11:17:27.694Z</time></trkpt><trkpt lat="8.9932043" lon="-75.8322107"><ele>9.0</ele><time>2026-04-18T11:17:28.693Z</time></trkpt><trkpt lat="8.9932878" lon="-75.832204"><ele>9.333333333333334</ele><time>2026-04-18T11:17:29.694Z</time></trkpt><trkpt lat="8.9933723" lon="-75.8321954"><ele>9.666666666666666</ele><time>2026-04-18T11:17:30.692Z</time></trkpt><trkpt lat="8.9934524" lon="-75.8321885"><ele>10.0</ele><time>2026-04-18T11:17:31.692Z</time></trkpt><trkpt lat="8.9935349" lon="-75.8321812"><ele>10.333333333333332</ele><time>2026-04-18T11:17:32.693Z</time></trkpt><trkpt lat="8.9936213" lon="-75.8321704"><ele>10.666666666666666</ele><time>2026-04-18T11:17:33.691Z</time></trkpt><trkpt lat="8.9937061" lon="-75.832161"><ele>11.0</ele><time>2026-04-18T11:17:34.693Z</time></trkpt><trkpt lat="8.9937902" lon="-75.8321512"><ele>11.0</ele><time>2026-04-18T11:17:35.693Z</time></trkpt><trkpt lat="8.9938746" lon="-75.8321463"><ele>11.0</ele><time>2026-04-18T11:17:36.693Z</time></trkpt><trkpt lat="8.9939631" lon="-75.832138"><ele>11.0</ele><time>2026-04-18T11:17:37.692Z</time></trkpt><trkpt lat="8.9940493" lon="-75.832131"><ele>11.0</ele><time>2026-04-18T11:17:38.693Z</time></trkpt><trkpt lat="8.9941352" lon="-75.8321198"><ele>11.0</ele><time>2026-04-18T11:17:39.693Z</time></trkpt><trkpt lat="8.9942188" lon="-75.8321099"><ele>11.0</ele><time>2026-04-18T11:17:40.694Z</time></trkpt><trkpt lat="8.9943047" lon="-75.8321004"><ele>10.833333333333332</ele><time>2026-04-18T11:17:41.694Z</time></trkpt><trkpt lat="8.9943952" lon="-75.8320883"><ele>10.666666666666666</ele><time>2026-04-18T11:17:42.692Z</time></trkpt><trkpt lat="8.9944826" lon="-75.8320776"><ele>10.5</ele><time>2026-04-18T11:17:43.692Z</time></trkpt><trkpt lat="8.9945703" lon="-75.8320677"><ele>10.333333333333334</ele><time>2026-04-18T11:17:44.693Z</time></trkpt><trkpt lat="8.9946612" lon="-75.8320562"><ele>10.166666666666668</ele><time>2026-04-18T11:17:45.693Z</time></trkpt><trkpt lat="8.9947477" lon="-75.8320424"><ele>10.0</ele><time>2026-04-18T11:17:46.693Z</time></trkpt><trkpt lat="8.9948359" lon="-75.8320292"><ele>10.0</ele><time>2026-04-18T11:17:47.693Z</time></trkpt><trkpt lat="8.9949225" lon="-75.8320176"><ele>10.0</ele><time>2026-04-18T11:17:48.693Z</time></trkpt><trkpt lat="8.9950087" lon="-75.8320077"><ele>10.0</ele><time>2026-04-18T11:17:49.694Z</time></trkpt><trkpt lat="8.9950993" lon="-75.8319911"><ele>10.0</ele><time>2026-04-18T11:17:50.693Z</time></trkpt><trkpt lat="8.9951796" lon="-75.8319778"><ele>10.0</ele><time>2026-04-18T11:17:51.693Z</time></trkpt><trkpt lat="8.9952663" lon="-75.8319602"><ele>10.0</ele><time>2026-04-18T11:17:52.692Z</time></trkpt><trkpt lat="8.9953515" lon="-75.8319413"><ele>10.0</ele><time>2026-04-18T11:17:53.692Z</time></trkpt><trkpt lat="8.9954353" lon="-75.8319242"><ele>10.0</ele><time>2026-04-18T11:17:54.693Z</time></trkpt><trkpt lat="8.995528" lon="-75.8319096"><ele>10.0</ele><time>2026-04-18T11:17:55.693Z</time></trkpt><trkpt lat="8.9956112" lon="-75.8318924"><ele>10.0</ele><time>2026-04-18T11:17:56.692Z</time></trkpt><trkpt lat="8.9956989" lon="-75.8318785"><ele>10.0</ele><time>2026-04-18T11:17:57.693Z</time></trkpt><trkpt lat="8.995784" lon="-75.8318564"><ele>10.0</ele><time>2026-04-18T11:17:58.692Z</time></trkpt><trkpt lat="8.9958666" lon="-75.83184"><ele>9.833333333333334</ele><time>2026-04-18T11:17:59.693Z</time></trkpt><trkpt lat="8.9959524" lon="-75.8318249"><ele>9.666666666666668</ele><time>2026-04-18T11:18:00.693Z</time></trkpt><trkpt lat="8.9960406" lon="-75.8318113"><ele>9.5</ele><time>2026-04-18T11:18:01.693Z</time></trkpt><trkpt lat="8.9961299" lon="-75.8317963"><ele>9.333333333333334</ele><time>2026-04-18T11:18:02.694Z</time></trkpt><trkpt lat="8.9962128" lon="-75.8317743"><ele>9.166666666666666</ele><time>2026-04-18T11:18:03.693Z</time></trkpt><trkpt lat="8.9963007" lon="-75.8317573"><ele>9.0</ele><time>2026-04-18T11:18:04.692Z</time></trkpt><trkpt lat="8.9963933" lon="-75.8317402"><ele>9.0</ele><time>2026-04-18T11:18:05.693Z</time></trkpt><trkpt lat="8.9964759" lon="-75.8317203"><ele>9.0</ele><time>2026-04-18T11:18:06.693Z</time></trkpt><trkpt lat="8.9965641" lon="-75.8317046"><ele>9.0</ele><time>2026-04-18T11:18:07.692Z</time></trkpt><trkpt lat="8.9966484" lon="-75.8316885"><ele>9.0</ele><time>2026-04-18T11:18:08.693Z</time></trkpt><trkpt lat="8.9967353" lon="-75.8316758"><ele>9.0</ele><time>2026-04-18T11:18:09.693Z</time></trkpt><trkpt lat="8.9968256" lon="-75.8316619"><ele>9.0</ele><time>2026-04-18T11:18:10.693Z</time></trkpt><trkpt lat="8.9969121" lon="-75.8316503"><ele>9.0</ele><time>2026-04-18T11:18:11.694Z</time></trkpt><trkpt lat="8.9969958" lon="-75.8316378"><ele>9.0</ele><time>2026-04-18T11:18:12.693Z</time></trkpt><trkpt lat="8.9970789" lon="-75.8316262"><ele>9.0</ele><time>2026-04-18T11:18:13.692Z</time></trkpt><trkpt lat="8.9971674" lon="-75.8316099"><ele>9.0</ele><time>2026-04-18T11:18:14.693Z</time></trkpt><trkpt lat="8.9972508" lon="-75.8315968"><ele>9.0</ele><time>2026-04-18T11:18:15.692Z</time></trkpt><trkpt lat="8.9973351" lon="-75.8315855"><ele>9.0</ele><time>2026-04-18T11:18:16.693Z</time></trkpt><trkpt lat="8.9974156" lon="-75.8315697"><ele>9.0</ele><time>2026-04-18T11:18:17.693Z</time></trkpt><trkpt lat="8.9974996" lon="-75.8315589"><ele>9.0</ele><time>2026-04-18T11:18:18.693Z</time></trkpt><trkpt lat="8.9975813" lon="-75.8315465"><ele>9.0</ele><time>2026-04-18T11:18:19.692Z</time></trkpt><trkpt lat="8.9976663" lon="-75.8315335"><ele>9.0</ele><time>2026-04-18T11:18:20.693Z</time></trkpt><trkpt lat="8.9977497" lon="-75.8315243"><ele>9.0</ele><time>2026-04-18T11:18:21.692Z</time></trkpt><trkpt lat="8.9978353" lon="-75.831516"><ele>9.0</ele><time>2026-04-18T11:18:22.693Z</time></trkpt><trkpt lat="8.9979115" lon="-75.8315036"><ele>9.0</ele><time>2026-04-18T11:18:23.692Z</time></trkpt><trkpt lat="8.9979933" lon="-75.8314938"><ele>9.0</ele><time>2026-04-18T11:18:24.691Z</time></trkpt><trkpt lat="8.9980775" lon="-75.831487"><ele>9.0</ele><time>2026-04-18T11:18:25.692Z</time></trkpt><trkpt lat="8.9981578" lon="-75.8314785"><ele>9.0</ele><time>2026-04-18T11:18:26.692Z</time></trkpt><trkpt lat="8.998243" lon="-75.8314711"><ele>9.0</ele><time>2026-04-18T11:18:27.692Z</time></trkpt><trkpt lat="8.9983201" lon="-75.8314616"><ele>9.0</ele><time>2026-04-18T11:18:28.693Z</time></trkpt><trkpt lat="8.9984037" lon="-75.8314512"><ele>9.0</ele><time>2026-04-18T11:18:29.692Z</time></trkpt><trkpt lat="8.998488" lon="-75.8314392"><ele>9.0</ele><time>2026-04-18T11:18:30.692Z</time></trkpt><trkpt lat="8.998573" lon="-75.8314297"><ele>9.0</ele><time>2026-04-18T11:18:31.693Z</time></trkpt><trkpt lat="8.9986588" lon="-75.8314218"><ele>9.0</ele><time>2026-04-18T11:18:32.692Z</time></trkpt><trkpt lat="8.9987425" lon="-75.8314144"><ele>9.0</ele><time>2026-04-18T11:18:33.692Z</time></trkpt><trkpt lat="8.9988242" lon="-75.8314057"><ele>9.0</ele><time>2026-04-18T11:18:34.692Z</time></trkpt><trkpt lat="8.998908" lon="-75.8313979"><ele>9.0</ele><time>2026-04-18T11:18:35.692Z</time></trkpt><trkpt lat="8.9989948" lon="-75.8313917"><ele>9.0</ele><time>2026-04-18T11:18:36.692Z</time></trkpt><trkpt lat="8.9990746" lon="-75.8313815"><ele>9.0</ele><time>2026-04-18T11:18:37.692Z</time></trkpt><trkpt lat="8.9991571" lon="-75.8313751"><ele>9.0</ele><time>2026-04-18T11:18:38.693Z</time></trkpt><trkpt lat="8.9992388" lon="-75.8313738"><ele>9.0</ele><time>2026-04-18T11:18:39.694Z</time></trkpt><trkpt lat="8.9993203" lon="-75.831366"><ele>9.0</ele><time>2026-04-18T11:18:40.693Z</time></trkpt><trkpt lat="8.9993998" lon="-75.8313527"><ele>9.166666666666666</ele><time>2026-04-18T11:18:41.693Z</time></trkpt><trkpt lat="8.9994822" lon="-75.8313424"><ele>9.333333333333334</ele><time>2026-04-18T11:18:42.693Z</time></trkpt><trkpt lat="8.9995649" lon="-75.8313352"><ele>9.5</ele><time>2026-04-18T11:18:43.693Z</time></trkpt><trkpt lat="8.999648" lon="-75.8313288"><ele>9.666666666666668</ele><time>2026-04-18T11:18:44.693Z</time></trkpt><trkpt lat="8.9997317" lon="-75.8313183"><ele>9.833333333333334</ele><time>2026-04-18T11:18:45.692Z</time></trkpt><trkpt lat="8.9998179" lon="-75.8313111"><ele>10.0</ele><time>2026-04-18T11:18:46.692Z</time></trkpt><trkpt lat="8.9999078" lon="-75.8313058"><ele>10.0</ele><time>2026-04-18T11:18:47.692Z</time></trkpt><trkpt lat="8.9999933" lon="-75.831294"><ele>10.0</ele><time>2026-04-18T11:18:48.692Z</time></trkpt><trkpt lat="9.0000804" lon="-75.8312856"><ele>10.0</ele><time>2026-04-18T11:18:49.692Z</time></trkpt><trkpt lat="9.000164" lon="-75.8312752"><ele>10.0</ele><time>2026-04-18T11:18:50.693Z</time></trkpt><trkpt lat="9.0002469" lon="-75.8312676"><ele>10.0</ele><time>2026-04-18T11:18:51.692Z</time></trkpt><trkpt lat="9.000333" lon="-75.8312629"><ele>10.0</ele><time>2026-04-18T11:18:52.693Z</time></trkpt><trkpt lat="9.0004207" lon="-75.8312504"><ele>10.0</ele><time>2026-04-18T11:18:53.692Z</time></trkpt><trkpt lat="9.0005054" lon="-75.8312391"><ele>10.0</ele><time>2026-04-18T11:18:54.692Z</time></trkpt><trkpt lat="9.0005897" lon="-75.8312294"><ele>10.0</ele><time>2026-04-18T11:18:55.693Z</time></trkpt><trkpt lat="9.0006738" lon="-75.8312178"><ele>10.0</ele><time>2026-04-18T11:18:56.693Z</time></trkpt><trkpt lat="9.0007636" lon="-75.831208"><ele>10.0</ele><time>2026-04-18T11:18:57.693Z</time></trkpt><trkpt lat="9.0008463" lon="-75.8312012"><ele>10.0</ele><time>2026-04-18T11:18:58.692Z</time></trkpt><trkpt lat="9.0009282" lon="-75.831197"><ele>10.0</ele><time>2026-04-18T11:18:59.692Z</time></trkpt><trkpt lat="9.0010122" lon="-75.8311827"><ele>10.0</ele><time>2026-04-18T11:19:00.692Z</time></trkpt><trkpt lat="9.0010959" lon="-75.8311752"><ele>10.0</ele><time>2026-04-18T11:19:01.693Z</time></trkpt><trkpt lat="9.001176" lon="-75.8311645"><ele>10.0</ele><time>2026-04-18T11:19:02.692Z</time></trkpt><trkpt lat="9.0012589" lon="-75.8311562"><ele>10.0</ele><time>2026-04-18T11:19:03.692Z</time></trkpt><trkpt lat="9.0013505" lon="-75.8311464"><ele>10.0</ele><time>2026-04-18T11:19:04.693Z</time></trkpt><trkpt lat="9.0014389" lon="-75.8311356"><ele>10.0</ele><time>2026-04-18T11:19:05.692Z</time></trkpt><trkpt lat="9.0015212" lon="-75.8311222"><ele>10.0</ele><time>2026-04-18T11:19:06.693Z</time></trkpt><trkpt lat="9.0016044" lon="-75.8311094"><ele>10.0</ele><time>2026-04-18T11:19:07.693Z</time></trkpt><trkpt lat="9.0016887" lon="-75.8311016"><ele>10.0</ele><time>2026-04-18T11:19:08.692Z</time></trkpt><trkpt lat="9.0017738" lon="-75.8310923"><ele>10.0</ele><time>2026-04-18T11:19:09.693Z</time></trkpt><trkpt lat="9.0018608" lon="-75.8310849"><ele>10.0</ele><time>2026-04-18T11:19:10.692Z</time></trkpt><trkpt lat="9.0019429" lon="-75.831073"><ele>9.5</ele><time>2026-04-18T11:19:11.692Z</time></trkpt><trkpt lat="9.0020273" lon="-75.8310615"><ele>9.0</ele><time>2026-04-18T11:19:12.693Z</time></trkpt><trkpt lat="9.0021085" lon="-75.8310512"><ele>8.5</ele><time>2026-04-18T11:19:13.692Z</time></trkpt><trkpt lat="9.0021939" lon="-75.8310439"><ele>8.0</ele><time>2026-04-18T11:19:14.692Z</time></trkpt><trkpt lat="9.0022803" lon="-75.8310381"><ele>7.500000000000001</ele><time>2026-04-18T11:19:15.693Z</time></trkpt><trkpt lat="9.0023663" lon="-75.8310297"><ele>7.0</ele><time>2026-04-18T11:19:16.693Z</time></trkpt><trkpt lat="9.0024487" lon="-75.8310194"><ele>7.000000000000001</ele><time>2026-04-18T11:19:17.692Z</time></trkpt><trkpt lat="9.0025358" lon="-75.83101"><ele>7.0</ele><time>2026-04-18T11:19:18.692Z</time></trkpt><trkpt lat="9.0026244" lon="-75.8309967"><ele>7.0</ele><time>2026-04-18T11:19:19.692Z</time></trkpt><trkpt lat="9.0026986" lon="-75.830986"><ele>7.0</ele><time>2026-04-18T11:19:20.692Z</time></trkpt><trkpt lat="9.0027733" lon="-75.8309805"><ele>7.000000000000001</ele><time>2026-04-18T11:19:21.692Z</time></trkpt><trkpt lat="9.0028499" lon="-75.8309747"><ele>7.0</ele><time>2026-04-18T11:19:22.692Z</time></trkpt><trkpt lat="9.0029188" lon="-75.8309641"><ele>7.0</ele><time>2026-04-18T11:19:23.693Z</time></trkpt><trkpt lat="9.0029939" lon="-75.8309463"><ele>7.0</ele><time>2026-04-18T11:19:24.692Z</time></trkpt><trkpt lat="9.0030646" lon="-75.8309211"><ele>7.0</ele><time>2026-04-18T11:19:25.692Z</time></trkpt><trkpt lat="9.0031299" lon="-75.8308865"><ele>7.0</ele><time>2026-04-18T11:19:26.693Z</time></trkpt><trkpt lat="9.0031918" lon="-75.8308478"><ele>7.0</ele><time>2026-04-18T11:19:27.692Z</time></trkpt><trkpt lat="9.0032532" lon="-75.8308103"><ele>7.0</ele><time>2026-04-18T11:19:28.693Z</time></trkpt><trkpt lat="9.0033169" lon="-75.8307814"><ele>7.0</ele><time>2026-04-18T11:19:29.693Z</time></trkpt><trkpt lat="9.0033875" lon="-75.8307607"><ele>7.333333333333334</ele><time>2026-04-18T11:19:30.693Z</time></trkpt><trkpt lat="9.0034607" lon="-75.8307424"><ele>7.666666666666667</ele><time>2026-04-18T11:19:31.692Z</time></trkpt><trkpt lat="9.0035288" lon="-75.830723"><ele>8.0</ele><time>2026-04-18T11:19:32.692Z</time></trkpt><trkpt lat="9.0036039" lon="-75.8307151"><ele>8.333333333333334</ele><time>2026-04-18T11:19:33.693Z</time></trkpt><trkpt lat="9.0036815" lon="-75.8307118"><ele>8.666666666666666</ele><time>2026-04-18T11:19:34.693Z</time></trkpt><trkpt lat="9.0037555" lon="-75.8307041"><ele>9.0</ele><time>2026-04-18T11:19:35.694Z</time></trkpt><trkpt lat="9.0038328" lon="-75.8306935"><ele>9.0</ele><time>2026-04-18T11:19:36.692Z</time></trkpt><trkpt lat="9.0039128" lon="-75.8306842"><ele>9.0</ele><time>2026-04-18T11:19:37.693Z</time></trkpt><trkpt lat="9.0039939" lon="-75.8306738"><ele>9.0</ele><time>2026-04-18T11:19:38.692Z</time></trkpt><trkpt lat="9.0040767" lon="-75.8306648"><ele>9.0</ele><time>2026-04-18T11:19:39.692Z</time></trkpt><trkpt lat="9.0041576" lon="-75.8306567"><ele>9.0</ele><time>2026-04-18T11:19:40.693Z</time></trkpt><trkpt lat="9.0042424" lon="-75.8306449"><ele>9.0</ele><time>2026-04-18T11:19:41.692Z</time></trkpt><trkpt lat="9.0043249" lon="-75.8306316"><ele>8.666666666666666</ele><time>2026-04-18T11:19:42.692Z</time></trkpt><trkpt lat="9.004407" lon="-75.8306199"><ele>8.333333333333334</ele><time>2026-04-18T11:19:43.693Z</time></trkpt><trkpt lat="9.0044922" lon="-75.8306037"><ele>8.0</ele><time>2026-04-18T11:19:44.693Z</time></trkpt><trkpt lat="9.0045756" lon="-75.8305875"><ele>7.666666666666667</ele><time>2026-04-18T11:19:45.694Z</time></trkpt><trkpt lat="9.0046599" lon="-75.8305748"><ele>7.333333333333334</ele><time>2026-04-18T11:19:46.693Z</time></trkpt><trkpt lat="9.0047391" lon="-75.8305636"><ele>7.0</ele><time>2026-04-18T11:19:47.693Z</time></trkpt><trkpt lat="9.0048223" lon="-75.8305474"><ele>7.000000000000001</ele><time>2026-04-18T11:19:48.692Z</time></trkpt><trkpt lat="9.0049022" lon="-75.8305325"><ele>7.0</ele><time>2026-04-18T11:19:49.692Z</time></trkpt><trkpt lat="9.0049796" lon="-75.8305174"><ele>7.0</ele><time>2026-04-18T11:19:50.692Z</time></trkpt><trkpt lat="9.005064" lon="-75.830501"><ele>7.0</ele><time>2026-04-18T11:19:51.692Z</time></trkpt><trkpt lat="9.0051462" lon="-75.8304829"><ele>7.000000000000001</ele><time>2026-04-18T11:19:52.693Z</time></trkpt><trkpt lat="9.0052267" lon="-75.8304653"><ele>7.0</ele><time>2026-04-18T11:19:53.692Z</time></trkpt><trkpt lat="9.0053121" lon="-75.8304507"><ele>7.000000000000001</ele><time>2026-04-18T11:19:54.692Z</time></trkpt><trkpt lat="9.0053898" lon="-75.8304313"><ele>7.0</ele><time>2026-04-18T11:19:55.692Z</time></trkpt><trkpt lat="9.0054712" lon="-75.8304161"><ele>7.0</ele><time>2026-04-18T11:19:56.693Z</time></trkpt><trkpt lat="9.0055554" lon="-75.8304005"><ele>7.0</ele><time>2026-04-18T11:19:57.692Z</time></trkpt><trkpt lat="9.0056399" lon="-75.8303841"><ele>7.000000000000001</ele><time>2026-04-18T11:19:58.693Z</time></trkpt><trkpt lat="9.0057247" lon="-75.8303678"><ele>7.0</ele><time>2026-04-18T11:19:59.692Z</time></trkpt><trkpt lat="9.005814" lon="-75.8303519"><ele>7.166666666666667</ele><time>2026-04-18T11:20:00.692Z</time></trkpt><trkpt lat="9.0058953" lon="-75.830336"><ele>7.333333333333334</ele><time>2026-04-18T11:20:01.693Z</time></trkpt><trkpt lat="9.0059789" lon="-75.8303175"><ele>7.5</ele><time>2026-04-18T11:20:02.693Z</time></trkpt><trkpt lat="9.0060605" lon="-75.8303011"><ele>7.666666666666666</ele><time>2026-04-18T11:20:03.692Z</time></trkpt><trkpt lat="9.0061436" lon="-75.8302833"><ele>7.833333333333333</ele><time>2026-04-18T11:20:04.692Z</time></trkpt><trkpt lat="9.0062298" lon="-75.8302706"><ele>8.0</ele><time>2026-04-18T11:20:05.692Z</time></trkpt><trkpt lat="9.0063137" lon="-75.8302503"><ele>7.999999999999999</ele><time>2026-04-18T11:20:06.693Z</time></trkpt><trkpt lat="9.0063972" lon="-75.8302324"><ele>8.0</ele><time>2026-04-18T11:20:07.693Z</time></trkpt><trkpt lat="9.0064794" lon="-75.8302137"><ele>8.0</ele><time>2026-04-18T11:20:08.692Z</time></trkpt><trkpt lat="9.0065611" lon="-75.8301928"><ele>8.0</ele><time>2026-04-18T11:20:09.693Z</time></trkpt><trkpt lat="9.0066453" lon="-75.8301764"><ele>7.999999999999999</ele><time>2026-04-18T11:20:10.692Z</time></trkpt><trkpt lat="9.0067322" lon="-75.8301635"><ele>8.0</ele><time>2026-04-18T11:20:11.692Z</time></trkpt><trkpt lat="9.0068176" lon="-75.8301444"><ele>7.999999999999999</ele><time>2026-04-18T11:20:12.692Z</time></trkpt><trkpt lat="9.0069029" lon="-75.8301287"><ele>8.0</ele><time>2026-04-18T11:20:13.692Z</time></trkpt><trkpt lat="9.0069883" lon="-75.8301123"><ele>8.0</ele><time>2026-04-18T11:20:14.692Z</time></trkpt><trkpt lat="9.0070693" lon="-75.830094"><ele>8.0</ele><time>2026-04-18T11:20:15.692Z</time></trkpt><trkpt lat="9.0071569" lon="-75.8300791"><ele>7.999999999999999</ele><time>2026-04-18T11:20:16.692Z</time></trkpt><trkpt lat="9.0072415" lon="-75.8300596"><ele>8.0</ele><time>2026-04-18T11:20:17.693Z</time></trkpt><trkpt lat="9.0073279" lon="-75.8300416"><ele>7.999999999999999</ele><time>2026-04-18T11:20:18.692Z</time></trkpt><trkpt lat="9.0074172" lon="-75.8300225"><ele>8.0</ele><time>2026-04-18T11:20:19.692Z</time></trkpt><trkpt lat="9.0075031" lon="-75.8300109"><ele>8.0</ele><time>2026-04-18T11:20:20.692Z</time></trkpt><trkpt lat="9.0075863" lon="-75.829995"><ele>8.0</ele><time>2026-04-18T11:20:21.692Z</time></trkpt><trkpt lat="9.0076722" lon="-75.8299851"><ele>7.999999999999999</ele><time>2026-04-18T11:20:22.692Z</time></trkpt><trkpt lat="9.0077572" lon="-75.8299753"><ele>8.0</ele><time>2026-04-18T11:20:23.694Z</time></trkpt><trkpt lat="9.0078419" lon="-75.8299623"><ele>7.999999999999999</ele><time>2026-04-18T11:20:24.693Z</time></trkpt><trkpt lat="9.0079262" lon="-75.8299556"><ele>8.0</ele><time>2026-04-18T11:20:25.692Z</time></trkpt><trkpt lat="9.0080153" lon="-75.829945"><ele>8.0</ele><time>2026-04-18T11:20:26.692Z</time></trkpt><trkpt lat="9.0080967" lon="-75.8299352"><ele>8.0</ele><time>2026-04-18T11:20:27.692Z</time></trkpt><trkpt lat="9.0081837" lon="-75.8299271"><ele>7.999999999999999</ele><time>2026-04-18T11:20:28.693Z</time></trkpt><trkpt lat="9.0082701" lon="-75.8299173"><ele>8.0</ele><time>2026-04-18T11:20:29.692Z</time></trkpt><trkpt lat="9.0083546" lon="-75.829909"><ele>7.999999999999999</ele><time>2026-04-18T11:20:30.691Z</time></trkpt><trkpt lat="9.00844" lon="-75.8299022"><ele>8.0</ele><time>2026-04-18T11:20:31.692Z</time></trkpt><trkpt lat="9.0085236" lon="-75.8298985"><ele>8.0</ele><time>2026-04-18T11:20:32.692Z</time></trkpt><trkpt lat="9.008612" lon="-75.8298969"><ele>8.0</ele><time>2026-04-18T11:20:33.692Z</time></trkpt><trkpt lat="9.0086974" lon="-75.8298959"><ele>7.999999999999999</ele><time>2026-04-18T11:20:34.693Z</time></trkpt><trkpt lat="9.0087813" lon="-75.8298917"><ele>8.0</ele><time>2026-04-18T11:20:35.694Z</time></trkpt><trkpt lat="9.0088709" lon="-75.8298905"><ele>7.999999999999999</ele><time>2026-04-18T11:20:36.693Z</time></trkpt><trkpt lat="9.0089599" lon="-75.8298899"><ele>8.0</ele><time>2026-04-18T11:20:37.692Z</time></trkpt><trkpt lat="9.0090437" lon="-75.8298897"><ele>8.0</ele><time>2026-04-18T11:20:38.693Z</time></trkpt><trkpt lat="9.0091256" lon="-75.8298861"><ele>8.0</ele><time>2026-04-18T11:20:39.692Z</time></trkpt><trkpt lat="9.0092099" lon="-75.8298867"><ele>7.999999999999999</ele><time>2026-04-18T11:20:40.692Z</time></trkpt><trkpt lat="9.0092962" lon="-75.8298879"><ele>8.0</ele><time>2026-04-18T11:20:41.692Z</time></trkpt><trkpt lat="9.0093833" lon="-75.8298887"><ele>7.833333333333333</ele><time>2026-04-18T11:20:42.693Z</time></trkpt><trkpt lat="9.0094723" lon="-75.8298891"><ele>7.666666666666666</ele><time>2026-04-18T11:20:43.694Z</time></trkpt><trkpt lat="9.0095573" lon="-75.8298858"><ele>7.5</ele><time>2026-04-18T11:20:44.693Z</time></trkpt><trkpt lat="9.0096479" lon="-75.8298848"><ele>7.333333333333334</ele><time>2026-04-18T11:20:45.692Z</time></trkpt><trkpt lat="9.0097349" lon="-75.8298846"><ele>7.166666666666667</ele><time>2026-04-18T11:20:46.692Z</time></trkpt><trkpt lat="9.0098209" lon="-75.8298848"><ele>7.0</ele><time>2026-04-18T11:20:47.692Z</time></trkpt><trkpt lat="9.0099115" lon="-75.8298829"><ele>7.000000000000001</ele><time>2026-04-18T11:20:48.692Z</time></trkpt><trkpt lat="9.0100021" lon="-75.8298832"><ele>7.0</ele><time>2026-04-18T11:20:49.693Z</time></trkpt><trkpt lat="9.010088" lon="-75.8298796"><ele>7.0</ele><time>2026-04-18T11:20:50.692Z</time></trkpt><trkpt lat="9.0101741" lon="-75.8298792"><ele>7.0</ele><time>2026-04-18T11:20:51.692Z</time></trkpt><trkpt lat="9.0102633" lon="-75.8298769"><ele>7.000000000000001</ele><time>2026-04-18T11:20:52.692Z</time></trkpt><trkpt lat="9.0103482" lon="-75.8298714"><ele>7.0</ele><time>2026-04-18T11:20:53.692Z</time></trkpt><trkpt lat="9.0104298" lon="-75.8298673"><ele>7.000000000000001</ele><time>2026-04-18T11:20:54.692Z</time></trkpt><trkpt lat="9.0105155" lon="-75.8298574"><ele>7.0</ele><time>2026-04-18T11:20:55.693Z</time></trkpt><trkpt lat="9.0106064" lon="-75.8298538"><ele>7.0</ele><time>2026-04-18T11:20:56.692Z</time></trkpt><trkpt lat="9.0106977" lon="-75.8298545"><ele>7.0</ele><time>2026-04-18T11:20:57.693Z</time></trkpt><trkpt lat="9.0107896" lon="-75.8298593"><ele>7.000000000000001</ele><time>2026-04-18T11:20:58.692Z</time></trkpt><trkpt lat="9.0108752" lon="-75.8298631"><ele>7.0</ele><time>2026-04-18T11:20:59.691Z</time></trkpt><trkpt lat="9.0109626" lon="-75.8298622"><ele>7.166666666666667</ele><time>2026-04-18T11:21:00.692Z</time></trkpt><trkpt lat="9.0110524" lon="-75.8298633"><ele>7.333333333333334</ele><time>2026-04-18T11:21:01.693Z</time></trkpt><trkpt lat="9.0111374" lon="-75.8298626"><ele>7.5</ele><time>2026-04-18T11:21:02.692Z</time></trkpt><trkpt lat="9.0112265" lon="-75.8298613"><ele>7.666666666666666</ele><time>2026-04-18T11:21:03.691Z</time></trkpt><trkpt lat="9.0113121" lon="-75.8298584"><ele>7.833333333333333</ele><time>2026-04-18T11:21:04.693Z</time></trkpt><trkpt lat="9.0114025" lon="-75.8298572"><ele>8.0</ele><time>2026-04-18T11:21:05.692Z</time></trkpt><trkpt lat="9.0114936" lon="-75.8298509"><ele>8.0</ele><time>2026-04-18T11:21:06.693Z</time></trkpt><trkpt lat="9.0115835" lon="-75.829846"><ele>8.0</ele><time>2026-04-18T11:21:07.692Z</time></trkpt><trkpt lat="9.0116766" lon="-75.8298432"><ele>8.0</ele><time>2026-04-18T11:21:08.691Z</time></trkpt><trkpt lat="9.0117654" lon="-75.8298338"><ele>8.0</ele><time>2026-04-18T11:21:09.692Z</time></trkpt><trkpt lat="9.0118571" lon="-75.8298295"><ele>8.0</ele><time>2026-04-18T11:21:10.692Z</time></trkpt><trkpt lat="9.0119474" lon="-75.8298235"><ele>7.6000000000000005</ele><time>2026-04-18T11:21:11.693Z</time></trkpt><trkpt lat="9.012039" lon="-75.829816"><ele>7.200000000000001</ele><time>2026-04-18T11:21:12.692Z</time></trkpt><trkpt lat="9.0121295" lon="-75.8298081"><ele>6.8</ele><time>2026-04-18T11:21:13.692Z</time></trkpt><trkpt lat="9.0122184" lon="-75.8297966"><ele>6.4</ele><time>2026-04-18T11:21:14.693Z</time></trkpt><trkpt lat="9.0123109" lon="-75.829789"><ele>6.0</ele><time>2026-04-18T11:21:15.692Z</time></trkpt><trkpt lat="9.0124041" lon="-75.8297824"><ele>6.0</ele><time>2026-04-18T11:21:16.692Z</time></trkpt><trkpt lat="9.0125012" lon="-75.8297702"><ele>6.0</ele><time>2026-04-18T11:21:17.692Z</time></trkpt><trkpt lat="9.0125944" lon="-75.8297582"><ele>6.0</ele><time>2026-04-18T11:21:18.692Z</time></trkpt><trkpt lat="9.0126842" lon="-75.8297506"><ele>6.0</ele><time>2026-04-18T11:21:19.693Z</time></trkpt><trkpt lat="9.0127786" lon="-75.829744"><ele>6.0</ele><time>2026-04-18T11:21:20.692Z</time></trkpt><trkpt lat="9.0128668" lon="-75.8297351"><ele>6.0</ele><time>2026-04-18T11:21:21.691Z</time></trkpt><trkpt lat="9.0129549" lon="-75.8297223"><ele>6.0</ele><time>2026-04-18T11:21:22.693Z</time></trkpt><trkpt lat="9.0130458" lon="-75.8297134"><ele>6.0</ele><time>2026-04-18T11:21:23.692Z</time></trkpt><trkpt lat="9.013139" lon="-75.8297036"><ele>6.0</ele><time>2026-04-18T11:21:24.692Z</time></trkpt><trkpt lat="9.0132307" lon="-75.8296927"><ele>6.0</ele><time>2026-04-18T11:21:25.693Z</time></trkpt><trkpt lat="9.0133256" lon="-75.8296811"><ele>6.4</ele><time>2026-04-18T11:21:26.692Z</time></trkpt><trkpt lat="9.0134181" lon="-75.8296704"><ele>6.8</ele><time>2026-04-18T11:21:27.692Z</time></trkpt><trkpt lat="9.0135063" lon="-75.8296613"><ele>7.200000000000001</ele><time>2026-04-18T11:21:28.692Z</time></trkpt><trkpt lat="9.0136018" lon="-75.829651"><ele>7.6000000000000005</ele><time>2026-04-18T11:21:29.692Z</time></trkpt><trkpt lat="9.0136982" lon="-75.8296413"><ele>8.0</ele><time>2026-04-18T11:21:30.692Z</time></trkpt><trkpt lat="9.0137894" lon="-75.8296289"><ele>8.0</ele><time>2026-04-18T11:21:31.692Z</time></trkpt><trkpt lat="9.0138868" lon="-75.8296196"><ele>8.0</ele><time>2026-04-18T11:21:32.692Z</time></trkpt><trkpt lat="9.0139824" lon="-75.8296101"><ele>8.0</ele><time>2026-04-18T11:21:33.692Z</time></trkpt><trkpt lat="9.0140709" lon="-75.8296036"><ele>8.0</ele><time>2026-04-18T11:21:34.692Z</time></trkpt><trkpt lat="9.0141618" lon="-75.8295943"><ele>8.0</ele><time>2026-04-18T11:21:35.693Z</time></trkpt><trkpt lat="9.0142549" lon="-75.8295825"><ele>7.6000000000000005</ele><time>2026-04-18T11:21:36.692Z</time></trkpt><trkpt lat="9.0143477" lon="-75.8295749"><ele>7.200000000000001</ele><time>2026-04-18T11:21:37.693Z</time></trkpt><trkpt lat="9.0144393" lon="-75.8295673"><ele>6.8</ele><time>2026-04-18T11:21:38.692Z</time></trkpt><trkpt lat="9.0145297" lon="-75.8295536"><ele>6.4</ele><time>2026-04-18T11:21:39.692Z</time></trkpt><trkpt lat="9.0146207" lon="-75.8295483"><ele>6.0</ele><time>2026-04-18T11:21:40.692Z</time></trkpt><trkpt lat="9.0147095" lon="-75.8295367"><ele>6.0</ele><time>2026-04-18T11:21:41.692Z</time></trkpt><trkpt lat="9.0148002" lon="-75.8295287"><ele>6.0</ele><time>2026-04-18T11:21:42.693Z</time></trkpt><trkpt lat="9.0148884" lon="-75.8295209"><ele>6.0</ele><time>2026-04-18T11:21:43.692Z</time></trkpt><trkpt lat="9.0149754" lon="-75.8295117"><ele>6.0</ele><time>2026-04-18T11:21:44.692Z</time></trkpt><trkpt lat="9.015065" lon="-75.8294998"><ele>6.0</ele><time>2026-04-18T11:21:45.693Z</time></trkpt><trkpt lat="9.0151556" lon="-75.8294909"><ele>6.0</ele><time>2026-04-18T11:21:46.692Z</time></trkpt><trkpt lat="9.0152432" lon="-75.8294815"><ele>6.166666666666667</ele><time>2026-04-18T11:21:47.692Z</time></trkpt><trkpt lat="9.0153339" lon="-75.8294743"><ele>6.333333333333334</ele><time>2026-04-18T11:21:48.692Z</time></trkpt><trkpt lat="9.0154198" lon="-75.8294628"><ele>6.5</ele><time>2026-04-18T11:21:49.692Z</time></trkpt><trkpt lat="9.0155117" lon="-75.8294553"><ele>6.666666666666667</ele><time>2026-04-18T11:21:50.693Z</time></trkpt><trkpt lat="9.0155999" lon="-75.8294468"><ele>6.833333333333334</ele><time>2026-04-18T11:21:51.691Z</time></trkpt><trkpt lat="9.0156893" lon="-75.8294336"><ele>7.0</ele><time>2026-04-18T11:21:52.692Z</time></trkpt><trkpt lat="9.0157738" lon="-75.8294218"><ele>7.0</ele><time>2026-04-18T11:21:53.693Z</time></trkpt><trkpt lat="9.0158676" lon="-75.8294129"><ele>6.999999999999999</ele><time>2026-04-18T11:21:54.692Z</time></trkpt><trkpt lat="9.0159634" lon="-75.8294026"><ele>6.999999999999999</ele><time>2026-04-18T11:21:55.692Z</time></trkpt><trkpt lat="9.0160568" lon="-75.8293913"><ele>7.0</ele><time>2026-04-18T11:21:56.692Z</time></trkpt><trkpt lat="9.0161465" lon="-75.8293767"><ele>7.0</ele><time>2026-04-18T11:21:57.692Z</time></trkpt><trkpt lat="9.0162379" lon="-75.8293657"><ele>7.0</ele><time>2026-04-18T11:21:58.692Z</time></trkpt><trkpt lat="9.0163281" lon="-75.8293579"><ele>6.999999999999999</ele><time>2026-04-18T11:21:59.692Z</time></trkpt><trkpt lat="9.0164163" lon="-75.8293506"><ele>6.999999999999999</ele><time>2026-04-18T11:22:00.693Z</time></trkpt><trkpt lat="9.0165083" lon="-75.829341"><ele>7.0</ele><time>2026-04-18T11:22:01.692Z</time></trkpt><trkpt lat="9.0165995" lon="-75.8293311"><ele>7.0</ele><time>2026-04-18T11:22:02.692Z</time></trkpt><trkpt lat="9.0166867" lon="-75.8293198"><ele>6.8</ele><time>2026-04-18T11:22:03.692Z</time></trkpt><trkpt lat="9.0167768" lon="-75.8293083"><ele>6.6</ele><time>2026-04-18T11:22:04.692Z</time></trkpt><trkpt lat="9.0168692" lon="-75.8292958"><ele>6.3999999999999995</ele><time>2026-04-18T11:22:05.693Z</time></trkpt><trkpt lat="9.0169583" lon="-75.8292824"><ele>6.199999999999999</ele><time>2026-04-18T11:22:06.692Z</time></trkpt><trkpt lat="9.0170473" lon="-75.8292661"><ele>6.0</ele><time>2026-04-18T11:22:07.692Z</time></trkpt><trkpt lat="9.0171337" lon="-75.8292532"><ele>6.0</ele><time>2026-04-18T11:22:08.691Z</time></trkpt><trkpt lat="9.017221" lon="-75.8292432"><ele>6.0</ele><time>2026-04-18T11:22:09.692Z</time></trkpt><trkpt lat="9.0173127" lon="-75.8292344"><ele>6.0</ele><time>2026-04-18T11:22:10.692Z</time></trkpt><trkpt lat="9.0174011" lon="-75.8292263"><ele>6.0</ele><time>2026-04-18T11:22:11.692Z</time></trkpt><trkpt lat="9.0174856" lon="-75.8292097"><ele>6.0</ele><time>2026-04-18T11:22:12.692Z</time></trkpt><trkpt lat="9.0175739" lon="-75.8291993"><ele>6.0</ele><time>2026-04-18T11:22:13.692Z</time></trkpt><trkpt lat="9.0176637" lon="-75.8291876"><ele>6.166666666666667</ele><time>2026-04-18T11:22:14.692Z</time></trkpt><trkpt lat="9.0177529" lon="-75.8291735"><ele>6.333333333333334</ele><time>2026-04-18T11:22:15.693Z</time></trkpt><trkpt lat="9.0178418" lon="-75.829159"><ele>6.5</ele><time>2026-04-18T11:22:16.692Z</time></trkpt><trkpt lat="9.0179313" lon="-75.8291462"><ele>6.666666666666667</ele><time>2026-04-18T11:22:17.692Z</time></trkpt><trkpt lat="9.0180195" lon="-75.8291337"><ele>6.833333333333334</ele><time>2026-04-18T11:22:18.692Z</time></trkpt><trkpt lat="9.0181068" lon="-75.8291184"><ele>7.0</ele><time>2026-04-18T11:22:19.692Z</time></trkpt><trkpt lat="9.018195" lon="-75.8291031"><ele>7.000000000000001</ele><time>2026-04-18T11:22:20.692Z</time></trkpt><trkpt lat="9.0182853" lon="-75.8290884"><ele>7.0</ele><time>2026-04-18T11:22:21.693Z</time></trkpt><trkpt lat="9.0183711" lon="-75.8290738"><ele>7.0</ele><time>2026-04-18T11:22:22.692Z</time></trkpt><trkpt lat="9.0184577" lon="-75.8290624"><ele>7.0</ele><time>2026-04-18T11:22:23.692Z</time></trkpt><trkpt lat="9.018545" lon="-75.8290507"><ele>7.000000000000001</ele><time>2026-04-18T11:22:24.692Z</time></trkpt><trkpt lat="9.0186301" lon="-75.8290336"><ele>7.0</ele><time>2026-04-18T11:22:25.692Z</time></trkpt><trkpt lat="9.0187195" lon="-75.8290169"><ele>7.000000000000001</ele><time>2026-04-18T11:22:26.692Z</time></trkpt><trkpt lat="9.0188047" lon="-75.8289992"><ele>7.0</ele><time>2026-04-18T11:22:27.692Z</time></trkpt><trkpt lat="9.0188902" lon="-75.8289851"><ele>7.0</ele><time>2026-04-18T11:22:28.692Z</time></trkpt><trkpt lat="9.0189792" lon="-75.82897"><ele>7.0</ele><time>2026-04-18T11:22:29.692Z</time></trkpt><trkpt lat="9.0190638" lon="-75.8289509"><ele>7.000000000000001</ele><time>2026-04-18T11:22:30.691Z</time></trkpt><trkpt lat="9.0191515" lon="-75.8289394"><ele>7.0</ele><time>2026-04-18T11:22:31.692Z</time></trkpt><trkpt lat="9.0192335" lon="-75.8289183"><ele>7.000000000000001</ele><time>2026-04-18T11:22:32.692Z</time></trkpt><trkpt lat="9.0193176" lon="-75.8289047"><ele>7.0</ele><time>2026-04-18T11:22:33.693Z</time></trkpt><trkpt lat="9.0194003" lon="-75.8288851"><ele>7.0</ele><time>2026-04-18T11:22:34.692Z</time></trkpt><trkpt lat="9.0194912" lon="-75.8288735"><ele>7.0</ele><time>2026-04-18T11:22:35.692Z</time></trkpt><trkpt lat="9.0195754" lon="-75.8288558"><ele>7.000000000000001</ele><time>2026-04-18T11:22:36.692Z</time></trkpt><trkpt lat="9.0196627" lon="-75.8288431"><ele>7.0</ele><time>2026-04-18T11:22:37.692Z</time></trkpt><trkpt lat="9.0197518" lon="-75.8288279"><ele>7.000000000000001</ele><time>2026-04-18T11:22:38.692Z</time></trkpt><trkpt lat="9.0198391" lon="-75.8288128"><ele>7.0</ele><time>2026-04-18T11:22:39.692Z</time></trkpt><trkpt lat="9.0199262" lon="-75.8287952"><ele>7.0</ele><time>2026-04-18T11:22:40.692Z</time></trkpt><trkpt lat="9.0200126" lon="-75.8287768"><ele>7.0</ele><time>2026-04-18T11:22:41.693Z</time></trkpt><trkpt lat="9.0200998" lon="-75.828763"><ele>7.000000000000001</ele><time>2026-04-18T11:22:42.692Z</time></trkpt><trkpt lat="9.0201888" lon="-75.8287442"><ele>7.0</ele><time>2026-04-18T11:22:43.692Z</time></trkpt><trkpt lat="9.020277" lon="-75.8287284"><ele>6.833333333333334</ele><time>2026-04-18T11:22:44.693Z</time></trkpt><trkpt lat="9.0203658" lon="-75.8287133"><ele>6.666666666666667</ele><time>2026-04-18T11:22:45.692Z</time></trkpt><trkpt lat="9.0204538" lon="-75.8286974"><ele>6.5</ele><time>2026-04-18T11:22:46.692Z</time></trkpt><trkpt lat="9.0205415" lon="-75.8286817"><ele>6.333333333333334</ele><time>2026-04-18T11:22:47.692Z</time></trkpt><trkpt lat="9.0206302" lon="-75.8286685"><ele>6.166666666666667</ele><time>2026-04-18T11:22:48.693Z</time></trkpt><trkpt lat="9.0207125" lon="-75.828654"><ele>6.0</ele><time>2026-04-18T11:22:49.692Z</time></trkpt><trkpt lat="9.0207987" lon="-75.8286437"><ele>6.333333333333333</ele><time>2026-04-18T11:22:50.692Z</time></trkpt><trkpt lat="9.0208861" lon="-75.8286363"><ele>6.666666666666666</ele><time>2026-04-18T11:22:51.693Z</time></trkpt><trkpt lat="9.020973" lon="-75.8286253"><ele>7.0</ele><time>2026-04-18T11:22:52.692Z</time></trkpt><trkpt lat="9.0210596" lon="-75.8286154"><ele>7.333333333333333</ele><time>2026-04-18T11:22:53.692Z</time></trkpt><trkpt lat="9.0211475" lon="-75.8286043"><ele>7.666666666666666</ele><time>2026-04-18T11:22:54.692Z</time></trkpt><trkpt lat="9.0212293" lon="-75.8285909"><ele>8.0</ele><time>2026-04-18T11:22:55.692Z</time></trkpt><trkpt lat="9.0213172" lon="-75.8285786"><ele>7.999999999999999</ele><time>2026-04-18T11:22:56.691Z</time></trkpt><trkpt lat="9.0214056" lon="-75.8285671"><ele>8.0</ele><time>2026-04-18T11:22:57.692Z</time></trkpt><trkpt lat="9.0214914" lon="-75.8285556"><ele>8.0</ele><time>2026-04-18T11:22:58.692Z</time></trkpt><trkpt lat="9.0215769" lon="-75.8285437"><ele>8.0</ele><time>2026-04-18T11:22:59.692Z</time></trkpt><trkpt lat="9.0216691" lon="-75.8285338"><ele>7.999999999999999</ele><time>2026-04-18T11:23:00.692Z</time></trkpt><trkpt lat="9.0217594" lon="-75.8285235"><ele>8.0</ele><time>2026-04-18T11:23:01.691Z</time></trkpt><trkpt lat="9.0218466" lon="-75.8285101"><ele>8.166666666666666</ele><time>2026-04-18T11:23:02.692Z</time></trkpt><trkpt lat="9.0219381" lon="-75.8285026"><ele>8.333333333333332</ele><time>2026-04-18T11:23:03.692Z</time></trkpt><trkpt lat="9.0220244" lon="-75.8284934"><ele>8.5</ele><time>2026-04-18T11:23:04.692Z</time></trkpt><trkpt lat="9.0221097" lon="-75.8284872"><ele>8.666666666666666</ele><time>2026-04-18T11:23:05.692Z</time></trkpt><trkpt lat="9.022196" lon="-75.8284786"><ele>8.833333333333334</ele><time>2026-04-18T11:23:06.691Z</time></trkpt><trkpt lat="9.0222842" lon="-75.8284676"><ele>9.0</ele><time>2026-04-18T11:23:07.692Z</time></trkpt><trkpt lat="9.0223762" lon="-75.8284581"><ele>9.166666666666666</ele><time>2026-04-18T11:23:08.692Z</time></trkpt><trkpt lat="9.0224626" lon="-75.8284538"><ele>9.333333333333334</ele><time>2026-04-18T11:23:09.691Z</time></trkpt><trkpt lat="9.0225519" lon="-75.8284501"><ele>9.5</ele><time>2026-04-18T11:23:10.692Z</time></trkpt><trkpt lat="9.0226422" lon="-75.8284446"><ele>9.666666666666668</ele><time>2026-04-18T11:23:11.692Z</time></trkpt><trkpt lat="9.0227281" lon="-75.8284357"><ele>9.833333333333334</ele><time>2026-04-18T11:23:12.692Z</time></trkpt><trkpt lat="9.0228132" lon="-75.8284257"><ele>10.0</ele><time>2026-04-18T11:23:13.692Z</time></trkpt><trkpt lat="9.0228995" lon="-75.8284165"><ele>10.0</ele><time>2026-04-18T11:23:14.692Z</time></trkpt><trkpt lat="9.0229903" lon="-75.8284076"><ele>10.0</ele><time>2026-04-18T11:23:15.692Z</time></trkpt><trkpt lat="9.0230786" lon="-75.8283987"><ele>10.0</ele><time>2026-04-18T11:23:16.691Z</time></trkpt><trkpt lat="9.0231649" lon="-75.8283907"><ele>10.0</ele><time>2026-04-18T11:23:17.692Z</time></trkpt><trkpt lat="9.0232533" lon="-75.828385"><ele>10.0</ele><time>2026-04-18T11:23:18.692Z</time></trkpt><trkpt lat="9.0233481" lon="-75.8283758"><ele>9.833333333333334</ele><time>2026-04-18T11:23:19.692Z</time></trkpt><trkpt lat="9.02343" lon="-75.8283642"><ele>9.666666666666668</ele><time>2026-04-18T11:23:20.692Z</time></trkpt><trkpt lat="9.0235219" lon="-75.8283538"><ele>9.5</ele><time>2026-04-18T11:23:21.692Z</time></trkpt><trkpt lat="9.0236072" lon="-75.8283455"><ele>9.333333333333334</ele><time>2026-04-18T11:23:22.692Z</time></trkpt><trkpt lat="9.0236977" lon="-75.8283404"><ele>9.166666666666666</ele><time>2026-04-18T11:23:23.693Z</time></trkpt><trkpt lat="9.0237818" lon="-75.8283309"><ele>9.0</ele><time>2026-04-18T11:23:24.692Z</time></trkpt><trkpt lat="9.0238695" lon="-75.8283233"><ele>9.0</ele><time>2026-04-18T11:23:25.693Z</time></trkpt><trkpt lat="9.0239567" lon="-75.8283207"><ele>9.0</ele><time>2026-04-18T11:23:26.692Z</time></trkpt><trkpt lat="9.0240434" lon="-75.8283126"><ele>9.0</ele><time>2026-04-18T11:23:27.692Z</time></trkpt><trkpt lat="9.0241299" lon="-75.8283055"><ele>9.0</ele><time>2026-04-18T11:23:28.691Z</time></trkpt><trkpt lat="9.0242179" lon="-75.8282968"><ele>9.0</ele><time>2026-04-18T11:23:29.692Z</time></trkpt><trkpt lat="9.0243039" lon="-75.8282947"><ele>9.0</ele><time>2026-04-18T11:23:30.692Z</time></trkpt><trkpt lat="9.0243926" lon="-75.8282916"><ele>8.666666666666666</ele><time>2026-04-18T11:23:31.692Z</time></trkpt><trkpt lat="9.0244806" lon="-75.828288"><ele>8.333333333333334</ele><time>2026-04-18T11:23:32.692Z</time></trkpt><trkpt lat="9.0245669" lon="-75.8282834"><ele>8.0</ele><time>2026-04-18T11:23:33.692Z</time></trkpt><trkpt lat="9.0246526" lon="-75.8282717"><ele>7.666666666666667</ele><time>2026-04-18T11:23:34.692Z</time></trkpt><trkpt lat="9.0247375" lon="-75.8282631"><ele>7.333333333333334</ele><time>2026-04-18T11:23:35.692Z</time></trkpt><trkpt lat="9.0248226" lon="-75.8282507"><ele>7.0</ele><time>2026-04-18T11:23:36.693Z</time></trkpt><trkpt lat="9.0249063" lon="-75.8282459"><ele>6.666666666666667</ele><time>2026-04-18T11:23:37.692Z</time></trkpt><trkpt lat="9.0249922" lon="-75.8282373"><ele>6.333333333333334</ele><time>2026-04-18T11:23:38.692Z</time></trkpt><trkpt lat="9.025083" lon="-75.8282357"><ele>6.0</ele><time>2026-04-18T11:23:39.692Z</time></trkpt><trkpt lat="9.0251708" lon="-75.8282294"><ele>5.666666666666667</ele><time>2026-04-18T11:23:40.692Z</time></trkpt><trkpt lat="9.025259" lon="-75.8282253"><ele>5.333333333333334</ele><time>2026-04-18T11:23:41.693Z</time></trkpt><trkpt lat="9.0253423" lon="-75.8282186"><ele>5.0</ele><time>2026-04-18T11:23:42.692Z</time></trkpt><trkpt lat="9.0254271" lon="-75.8282142"><ele>5.0</ele><time>2026-04-18T11:23:43.692Z</time></trkpt><trkpt lat="9.0255111" lon="-75.8282064"><ele>5.0</ele><time>2026-04-18T11:23:44.692Z</time></trkpt><trkpt lat="9.0256" lon="-75.8282024"><ele>5.0</ele><time>2026-04-18T11:23:45.692Z</time></trkpt><trkpt lat="9.0256882" lon="-75.8281994"><ele>5.0</ele><time>2026-04-18T11:23:46.693Z</time></trkpt><trkpt lat="9.0257725" lon="-75.8281923"><ele>5.0</ele><time>2026-04-18T11:23:47.692Z</time></trkpt><trkpt lat="9.0258567" lon="-75.8281876"><ele>5.0</ele><time>2026-04-18T11:23:48.692Z</time></trkpt><trkpt lat="9.0259439" lon="-75.8281839"><ele>5.333333333333334</ele><time>2026-04-18T11:23:49.692Z</time></trkpt><trkpt lat="9.02603" lon="-75.8281722"><ele>5.666666666666667</ele><time>2026-04-18T11:23:50.691Z</time></trkpt><trkpt lat="9.0261171" lon="-75.8281638"><ele>6.0</ele><time>2026-04-18T11:23:51.692Z</time></trkpt><trkpt lat="9.0261997" lon="-75.8281568"><ele>6.333333333333334</ele><time>2026-04-18T11:23:52.692Z</time></trkpt><trkpt lat="9.0262818" lon="-75.8281483"><ele>6.666666666666667</ele><time>2026-04-18T11:23:53.693Z</time></trkpt><trkpt lat="9.0263645" lon="-75.8281381"><ele>7.0</ele><time>2026-04-18T11:23:54.692Z</time></trkpt><trkpt lat="9.0264495" lon="-75.8281265"><ele>7.000000000000001</ele><time>2026-04-18T11:23:55.692Z</time></trkpt><trkpt lat="9.0265346" lon="-75.8281185"><ele>7.0</ele><time>2026-04-18T11:23:56.692Z</time></trkpt><trkpt lat="9.0266186" lon="-75.8281099"><ele>7.0</ele><time>2026-04-18T11:23:57.692Z</time></trkpt><trkpt lat="9.0267064" lon="-75.8281028"><ele>7.0</ele><time>2026-04-18T11:23:58.693Z</time></trkpt><trkpt lat="9.026792" lon="-75.8280922"><ele>7.000000000000001</ele><time>2026-04-18T11:23:59.693Z</time></trkpt><trkpt lat="9.0268772" lon="-75.8280838"><ele>7.0</ele><time>2026-04-18T11:24:00.692Z</time></trkpt><trkpt lat="9.0269679" lon="-75.8280769"><ele>6.833333333333334</ele><time>2026-04-18T11:24:01.692Z</time></trkpt><trkpt lat="9.0270526" lon="-75.8280664"><ele>6.666666666666667</ele><time>2026-04-18T11:24:02.692Z</time></trkpt><trkpt lat="9.0271396" lon="-75.8280551"><ele>6.5</ele><time>2026-04-18T11:24:03.692Z</time></trkpt><trkpt lat="9.02723" lon="-75.8280426"><ele>6.333333333333334</ele><time>2026-04-18T11:24:04.693Z</time></trkpt><trkpt lat="9.0273161" lon="-75.8280316"><ele>6.166666666666667</ele><time>2026-04-18T11:24:05.693Z</time></trkpt><trkpt lat="9.0274044" lon="-75.8280222"><ele>6.0</ele><time>2026-04-18T11:24:06.692Z</time></trkpt><trkpt lat="9.027493" lon="-75.8280107"><ele>6.0</ele><time>2026-04-18T11:24:07.692Z</time></trkpt><trkpt lat="9.0275794" lon="-75.8280025"><ele>6.0</ele><time>2026-04-18T11:24:08.691Z</time></trkpt><trkpt lat="9.0276608" lon="-75.827994"><ele>6.0</ele><time>2026-04-18T11:24:09.692Z</time></trkpt><trkpt lat="9.0277489" lon="-75.8279911"><ele>6.0</ele><time>2026-04-18T11:24:10.692Z</time></trkpt><trkpt lat="9.0278342" lon="-75.8279833"><ele>6.0</ele><time>2026-04-18T11:24:11.692Z</time></trkpt><trkpt lat="9.0279187" lon="-75.8279771"><ele>6.0</ele><time>2026-04-18T11:24:12.693Z</time></trkpt><trkpt lat="9.0280046" lon="-75.8279677"><ele>6.0</ele><time>2026-04-18T11:24:13.692Z</time></trkpt><trkpt lat="9.0280876" lon="-75.8279566"><ele>6.0</ele><time>2026-04-18T11:24:14.692Z</time></trkpt><trkpt lat="9.0281689" lon="-75.8279478"><ele>6.0</ele><time>2026-04-18T11:24:15.691Z</time></trkpt><trkpt lat="9.0282523" lon="-75.8279397"><ele>6.0</ele><time>2026-04-18T11:24:16.692Z</time></trkpt><trkpt lat="9.0283385" lon="-75.8279331"><ele>6.0</ele><time>2026-04-18T11:24:17.692Z</time></trkpt><trkpt lat="9.0284286" lon="-75.8279238"><ele>6.0</ele><time>2026-04-18T11:24:18.691Z</time></trkpt><trkpt lat="9.0285203" lon="-75.8279121"><ele>6.166666666666667</ele><time>2026-04-18T11:24:19.692Z</time></trkpt><trkpt lat="9.0286048" lon="-75.8279057"><ele>6.333333333333334</ele><time>2026-04-18T11:24:20.692Z</time></trkpt><trkpt lat="9.0286879" lon="-75.8278948"><ele>6.5</ele><time>2026-04-18T11:24:21.693Z</time></trkpt><trkpt lat="9.0287722" lon="-75.8278861"><ele>6.666666666666667</ele><time>2026-04-18T11:24:22.692Z</time></trkpt><trkpt lat="9.0288583" lon="-75.827872"><ele>6.833333333333334</ele><time>2026-04-18T11:24:23.691Z</time></trkpt><trkpt lat="9.0289442" lon="-75.8278612"><ele>7.0</ele><time>2026-04-18T11:24:24.691Z</time></trkpt><trkpt lat="9.0290295" lon="-75.8278523"><ele>7.000000000000001</ele><time>2026-04-18T11:24:25.692Z</time></trkpt><trkpt lat="9.0291156" lon="-75.827839"><ele>7.0</ele><time>2026-04-18T11:24:26.692Z</time></trkpt><trkpt lat="9.0292005" lon="-75.8278372"><ele>7.0</ele><time>2026-04-18T11:24:27.691Z</time></trkpt><trkpt lat="9.0292843" lon="-75.8278263"><ele>7.0</ele><time>2026-04-18T11:24:28.693Z</time></trkpt><trkpt lat="9.0293721" lon="-75.8278188"><ele>7.000000000000001</ele><time>2026-04-18T11:24:29.691Z</time></trkpt><trkpt lat="9.02946" lon="-75.8278089"><ele>7.0</ele><time>2026-04-18T11:24:30.693Z</time></trkpt><trkpt lat="9.0295509" lon="-75.8277988"><ele>7.000000000000001</ele><time>2026-04-18T11:24:31.692Z</time></trkpt><trkpt lat="9.0296349" lon="-75.8277853"><ele>7.0</ele><time>2026-04-18T11:24:32.693Z</time></trkpt><trkpt lat="9.0297205" lon="-75.8277752"><ele>7.0</ele><time>2026-04-18T11:24:33.692Z</time></trkpt><trkpt lat="9.0298073" lon="-75.8277631"><ele>7.0</ele><time>2026-04-18T11:24:34.692Z</time></trkpt><trkpt lat="9.0298945" lon="-75.8277511"><ele>7.000000000000001</ele><time>2026-04-18T11:24:35.692Z</time></trkpt><trkpt lat="9.0299834" lon="-75.8277395"><ele>7.0</ele><time>2026-04-18T11:24:36.693Z</time></trkpt><trkpt lat="9.0300705" lon="-75.8277305"><ele>7.000000000000001</ele><time>2026-04-18T11:24:37.692Z</time></trkpt><trkpt lat="9.0301573" lon="-75.8277187"><ele>7.0</ele><time>2026-04-18T11:24:38.692Z</time></trkpt><trkpt lat="9.0302418" lon="-75.8277037"><ele>7.0</ele><time>2026-04-18T11:24:39.692Z</time></trkpt><trkpt lat="9.0303286" lon="-75.8276941"><ele>7.0</ele><time>2026-04-18T11:24:40.692Z</time></trkpt><trkpt lat="9.0304131" lon="-75.8276828"><ele>7.000000000000001</ele><time>2026-04-18T11:24:41.691Z</time></trkpt><trkpt lat="9.0304988" lon="-75.827672"><ele>7.0</ele><time>2026-04-18T11:24:42.692Z</time></trkpt><trkpt lat="9.0305857" lon="-75.8276619"><ele>7.000000000000001</ele><time>2026-04-18T11:24:43.692Z</time></trkpt><trkpt lat="9.0306717" lon="-75.8276568"><ele>7.0</ele><time>2026-04-18T11:24:44.692Z</time></trkpt><trkpt lat="9.0307578" lon="-75.827648"><ele>7.0</ele><time>2026-04-18T11:24:45.692Z</time></trkpt><trkpt lat="9.0308411" lon="-75.8276392"><ele>7.0</ele><time>2026-04-18T11:24:46.691Z</time></trkpt><trkpt lat="9.0309241" lon="-75.8276307"><ele>7.000000000000001</ele><time>2026-04-18T11:24:47.691Z</time></trkpt><trkpt lat="9.0310092" lon="-75.8276219"><ele>7.0</ele><time>2026-04-18T11:24:48.692Z</time></trkpt><trkpt lat="9.0311" lon="-75.8276152"><ele>7.0</ele><time>2026-04-18T11:24:49.693Z</time></trkpt><trkpt lat="9.0311906" lon="-75.8276073"><ele>6.999999999999999</ele><time>2026-04-18T11:24:50.692Z</time></trkpt><trkpt lat="9.031279" lon="-75.8275993"><ele>6.999999999999999</ele><time>2026-04-18T11:24:51.693Z</time></trkpt><trkpt lat="9.0313654" lon="-75.8275897"><ele>7.0</ele><time>2026-04-18T11:24:52.691Z</time></trkpt><trkpt lat="9.031456" lon="-75.8275772"><ele>7.0</ele><time>2026-04-18T11:24:53.692Z</time></trkpt><trkpt lat="9.0315471" lon="-75.8275677"><ele>7.000000000000001</ele><time>2026-04-18T11:24:54.692Z</time></trkpt><trkpt lat="9.0316322" lon="-75.827556"><ele>7.0</ele><time>2026-04-18T11:24:55.693Z</time></trkpt><trkpt lat="9.0317215" lon="-75.8275435"><ele>7.0</ele><time>2026-04-18T11:24:56.691Z</time></trkpt><trkpt lat="9.0318104" lon="-75.8275335"><ele>7.0</ele><time>2026-04-18T11:24:57.692Z</time></trkpt><trkpt lat="9.0318968" lon="-75.827522"><ele>7.000000000000001</ele><time>2026-04-18T11:24:58.692Z</time></trkpt><trkpt lat="9.0319846" lon="-75.8275122"><ele>7.0</ele><time>2026-04-18T11:24:59.692Z</time></trkpt><trkpt lat="9.0320743" lon="-75.8274995"><ele>6.8</ele><time>2026-04-18T11:25:00.693Z</time></trkpt><trkpt lat="9.0321639" lon="-75.8274863"><ele>6.6</ele><time>2026-04-18T11:25:01.692Z</time></trkpt><trkpt lat="9.0322558" lon="-75.8274744"><ele>6.3999999999999995</ele><time>2026-04-18T11:25:02.693Z</time></trkpt><trkpt lat="9.0323442" lon="-75.8274609"><ele>6.199999999999999</ele><time>2026-04-18T11:25:03.692Z</time></trkpt><trkpt lat="9.0324362" lon="-75.8274493"><ele>6.0</ele><time>2026-04-18T11:25:04.693Z</time></trkpt><trkpt lat="9.0325247" lon="-75.8274409"><ele>5.833333333333333</ele><time>2026-04-18T11:25:05.692Z</time></trkpt><trkpt lat="9.0326146" lon="-75.8274279"><ele>5.666666666666667</ele><time>2026-04-18T11:25:06.693Z</time></trkpt><trkpt lat="9.0327065" lon="-75.8274179"><ele>5.5</ele><time>2026-04-18T11:25:07.692Z</time></trkpt><trkpt lat="9.0327937" lon="-75.8274055"><ele>5.333333333333334</ele><time>2026-04-18T11:25:08.692Z</time></trkpt><trkpt lat="9.0328796" lon="-75.8273936"><ele>5.166666666666667</ele><time>2026-04-18T11:25:09.692Z</time></trkpt><trkpt lat="9.032969" lon="-75.827384"><ele>5.0</ele><time>2026-04-18T11:25:10.692Z</time></trkpt><trkpt lat="9.0330581" lon="-75.827374"><ele>5.0</ele><time>2026-04-18T11:25:11.692Z</time></trkpt><trkpt lat="9.0331471" lon="-75.827364"><ele>5.0</ele><time>2026-04-18T11:25:12.692Z</time></trkpt><trkpt lat="9.0332382" lon="-75.8273511"><ele>5.0</ele><time>2026-04-18T11:25:13.693Z</time></trkpt><trkpt lat="9.0333332" lon="-75.8273397"><ele>5.0</ele><time>2026-04-18T11:25:14.692Z</time></trkpt><trkpt lat="9.0334245" lon="-75.8273285"><ele>5.0</ele><time>2026-04-18T11:25:15.692Z</time></trkpt><trkpt lat="9.0335154" lon="-75.8273155"><ele>5.0</ele><time>2026-04-18T11:25:16.691Z</time></trkpt><trkpt lat="9.0336073" lon="-75.8273037"><ele>5.0</ele><time>2026-04-18T11:25:17.692Z</time></trkpt><trkpt lat="9.0336967" lon="-75.8272914"><ele>5.0</ele><time>2026-04-18T11:25:18.692Z</time></trkpt><trkpt lat="9.0337866" lon="-75.8272804"><ele>5.0</ele><time>2026-04-18T11:25:19.691Z</time></trkpt><trkpt lat="9.0338743" lon="-75.8272705"><ele>5.0</ele><time>2026-04-18T11:25:20.692Z</time></trkpt><trkpt lat="9.0339638" lon="-75.8272611"><ele>5.0</ele><time>2026-04-18T11:25:21.691Z</time></trkpt><trkpt lat="9.0340494" lon="-75.8272505"><ele>5.0</ele><time>2026-04-18T11:25:22.693Z</time></trkpt><trkpt lat="9.0341375" lon="-75.8272379"><ele>5.0</ele><time>2026-04-18T11:25:23.691Z</time></trkpt><trkpt lat="9.0342233" lon="-75.8272261"><ele>5.0</ele><time>2026-04-18T11:25:24.692Z</time></trkpt><trkpt lat="9.0343062" lon="-75.8272148"><ele>5.0</ele><time>2026-04-18T11:25:25.692Z</time></trkpt><trkpt lat="9.0343962" lon="-75.8272053"><ele>5.0</ele><time>2026-04-18T11:25:26.691Z</time></trkpt><trkpt lat="9.0344848" lon="-75.8271971"><ele>4.8</ele><time>2026-04-18T11:25:27.692Z</time></trkpt><trkpt lat="9.0345756" lon="-75.8271855"><ele>4.6</ele><time>2026-04-18T11:25:28.691Z</time></trkpt><trkpt lat="9.0346648" lon="-75.8271725"><ele>4.4</ele><time>2026-04-18T11:25:29.692Z</time></trkpt><trkpt lat="9.0347566" lon="-75.8271606"><ele>4.2</ele><time>2026-04-18T11:25:30.692Z</time></trkpt><trkpt lat="9.0348433" lon="-75.8271463"><ele>4.0</ele><time>2026-04-18T11:25:31.692Z</time></trkpt><trkpt lat="9.0349344" lon="-75.8271352"><ele>4.166666666666666</ele><time>2026-04-18T11:25:32.692Z</time></trkpt><trkpt lat="9.0350248" lon="-75.8271236"><ele>4.333333333333333</ele><time>2026-04-18T11:25:33.692Z</time></trkpt><trkpt lat="9.0351128" lon="-75.8271098"><ele>4.5</ele><time>2026-04-18T11:25:34.691Z</time></trkpt><trkpt lat="9.0351996" lon="-75.8270974"><ele>4.666666666666667</ele><time>2026-04-18T11:25:35.692Z</time></trkpt><trkpt lat="9.0352917" lon="-75.8270887"><ele>4.833333333333334</ele><time>2026-04-18T11:25:36.692Z</time></trkpt><trkpt lat="9.035378" lon="-75.827078"><ele>5.0</ele><time>2026-04-18T11:25:37.692Z</time></trkpt><trkpt lat="9.0354678" lon="-75.8270697"><ele>5.0</ele><time>2026-04-18T11:25:38.691Z</time></trkpt><trkpt lat="9.0355567" lon="-75.8270578"><ele>5.0</ele><time>2026-04-18T11:25:39.691Z</time></trkpt><trkpt lat="9.0356435" lon="-75.8270446"><ele>5.0</ele><time>2026-04-18T11:25:40.693Z</time></trkpt><trkpt lat="9.0357305" lon="-75.8270308"><ele>5.0</ele><time>2026-04-18T11:25:41.691Z</time></trkpt><trkpt lat="9.0358207" lon="-75.8270256"><ele>5.0</ele><time>2026-04-18T11:25:42.692Z</time></trkpt><trkpt lat="9.0359087" lon="-75.8270132"><ele>5.0</ele><time>2026-04-18T11:25:43.692Z</time></trkpt><trkpt lat="9.035995" lon="-75.8270046"><ele>5.4</ele><time>2026-04-18T11:25:44.692Z</time></trkpt><trkpt lat="9.036084" lon="-75.8269919"><ele>5.8</ele><time>2026-04-18T11:25:45.692Z</time></trkpt><trkpt lat="9.0361709" lon="-75.8269824"><ele>6.199999999999999</ele><time>2026-04-18T11:25:46.69Z</time></trkpt><trkpt lat="9.0362612" lon="-75.8269732"><ele>6.6</ele><time>2026-04-18T11:25:47.691Z</time></trkpt><trkpt lat="9.0363506" lon="-75.8269618"><ele>7.0</ele><time>2026-04-18T11:25:48.692Z</time></trkpt><trkpt lat="9.0364452" lon="-75.8269511"><ele>7.000000000000001</ele><time>2026-04-18T11:25:49.692Z</time></trkpt><trkpt lat="9.0365322" lon="-75.8269422"><ele>7.0</ele><time>2026-04-18T11:25:50.692Z</time></trkpt><trkpt lat="9.0366235" lon="-75.8269284"><ele>7.0</ele><time>2026-04-18T11:25:51.691Z</time></trkpt><trkpt lat="9.0367105" lon="-75.8269203"><ele>7.0</ele><time>2026-04-18T11:25:52.691Z</time></trkpt><trkpt lat="9.0367973" lon="-75.8269172"><ele>7.000000000000001</ele><time>2026-04-18T11:25:53.692Z</time></trkpt><trkpt lat="9.0368845" lon="-75.8269097"><ele>7.0</ele><time>2026-04-18T11:25:54.691Z</time></trkpt><trkpt lat="9.0369721" lon="-75.8269035"><ele>6.8</ele><time>2026-04-18T11:25:55.691Z</time></trkpt><trkpt lat="9.0370662" lon="-75.8268973"><ele>6.6</ele><time>2026-04-18T11:25:56.692Z</time></trkpt><trkpt lat="9.0371554" lon="-75.8268876"><ele>6.3999999999999995</ele><time>2026-04-18T11:25:57.692Z</time></trkpt><trkpt lat="9.0372468" lon="-75.826884"><ele>6.199999999999999</ele><time>2026-04-18T11:25:58.693Z</time></trkpt><trkpt lat="9.0373393" lon="-75.8268768"><ele>6.0</ele><time>2026-04-18T11:25:59.692Z</time></trkpt><trkpt lat="9.037425" lon="-75.8268699"><ele>6.166666666666667</ele><time>2026-04-18T11:26:00.691Z</time></trkpt><trkpt lat="9.037513" lon="-75.8268649"><ele>6.333333333333334</ele><time>2026-04-18T11:26:01.691Z</time></trkpt><trkpt lat="9.0376023" lon="-75.826859"><ele>6.5</ele><time>2026-04-18T11:26:02.691Z</time></trkpt><trkpt lat="9.0376904" lon="-75.8268493"><ele>6.666666666666667</ele><time>2026-04-18T11:26:03.691Z</time></trkpt><trkpt lat="9.0377771" lon="-75.826843"><ele>6.833333333333334</ele><time>2026-04-18T11:26:04.692Z</time></trkpt><trkpt lat="9.0378649" lon="-75.8268338"><ele>7.0</ele><time>2026-04-18T11:26:05.691Z</time></trkpt><trkpt lat="9.0379547" lon="-75.8268313"><ele>7.000000000000001</ele><time>2026-04-18T11:26:06.693Z</time></trkpt><trkpt lat="9.0380467" lon="-75.8268236"><ele>7.0</ele><time>2026-04-18T11:26:07.692Z</time></trkpt><trkpt lat="9.0381335" lon="-75.8268136"><ele>7.0</ele><time>2026-04-18T11:26:08.693Z</time></trkpt><trkpt lat="9.0382215" lon="-75.8268066"><ele>7.0</ele><time>2026-04-18T11:26:09.692Z</time></trkpt><trkpt lat="9.0383089" lon="-75.8267973"><ele>7.000000000000001</ele><time>2026-04-18T11:26:10.692Z</time></trkpt><trkpt lat="9.0383996" lon="-75.8267933"><ele>7.0</ele><time>2026-04-18T11:26:11.691Z</time></trkpt><trkpt lat="9.0384892" lon="-75.826786"><ele>6.6</ele><time>2026-04-18T11:26:12.693Z</time></trkpt><trkpt lat="9.0385779" lon="-75.8267789"><ele>6.199999999999999</ele><time>2026-04-18T11:26:13.691Z</time></trkpt><trkpt lat="9.038666" lon="-75.826771"><ele>5.8</ele><time>2026-04-18T11:26:14.692Z</time></trkpt><trkpt lat="9.0387573" lon="-75.8267609"><ele>5.4</ele><time>2026-04-18T11:26:15.691Z</time></trkpt><trkpt lat="9.0388465" lon="-75.8267567"><ele>5.0</ele><time>2026-04-18T11:26:16.692Z</time></trkpt><trkpt lat="9.0389376" lon="-75.8267521"><ele>5.0</ele><time>2026-04-18T11:26:17.691Z</time></trkpt><trkpt lat="9.0390263" lon="-75.8267476"><ele>5.0</ele><time>2026-04-18T11:26:18.691Z</time></trkpt><trkpt lat="9.0391165" lon="-75.8267403"><ele>5.0</ele><time>2026-04-18T11:26:19.691Z</time></trkpt><trkpt lat="9.039208" lon="-75.8267358"><ele>5.0</ele><time>2026-04-18T11:26:20.691Z</time></trkpt><trkpt lat="9.0392987" lon="-75.8267288"><ele>5.0</ele><time>2026-04-18T11:26:21.692Z</time></trkpt><trkpt lat="9.0393874" lon="-75.8267276"><ele>5.8</ele><time>2026-04-18T11:26:22.691Z</time></trkpt><trkpt lat="9.0394757" lon="-75.8267248"><ele>6.6</ele><time>2026-04-18T11:26:23.692Z</time></trkpt><trkpt lat="9.0395638" lon="-75.8267224"><ele>7.4</ele><time>2026-04-18T11:26:24.692Z</time></trkpt><trkpt lat="9.0396529" lon="-75.8267158"><ele>8.2</ele><time>2026-04-18T11:26:25.692Z</time></trkpt><trkpt lat="9.0397452" lon="-75.8267088"><ele>9.0</ele><time>2026-04-18T11:26:26.692Z</time></trkpt><trkpt lat="9.0398382" lon="-75.8266988"><ele>9.0</ele><time>2026-04-18T11:26:27.692Z</time></trkpt><trkpt lat="9.0399254" lon="-75.8266946"><ele>9.0</ele><time>2026-04-18T11:26:28.691Z</time></trkpt><trkpt lat="9.0400111" lon="-75.826689"><ele>9.0</ele><time>2026-04-18T11:26:29.692Z</time></trkpt><trkpt lat="9.0401002" lon="-75.8266853"><ele>9.0</ele><time>2026-04-18T11:26:30.692Z</time></trkpt><trkpt lat="9.0401884" lon="-75.8266842"><ele>9.0</ele><time>2026-04-18T11:26:31.691Z</time></trkpt><trkpt lat="9.0402756" lon="-75.8266817"><ele>9.0</ele><time>2026-04-18T11:26:32.691Z</time></trkpt><trkpt lat="9.0403626" lon="-75.826678"><ele>9.0</ele><time>2026-04-18T11:26:33.692Z</time></trkpt><trkpt lat="9.040453" lon="-75.826678"><ele>9.0</ele><time>2026-04-18T11:26:34.691Z</time></trkpt><trkpt lat="9.0405405" lon="-75.8266758"><ele>9.0</ele><time>2026-04-18T11:26:35.692Z</time></trkpt><trkpt lat="9.0406296" lon="-75.8266775"><ele>9.0</ele><time>2026-04-18T11:26:36.692Z</time></trkpt><trkpt lat="9.0407169" lon="-75.8266768"><ele>9.0</ele><time>2026-04-18T11:26:37.691Z</time></trkpt><trkpt lat="9.0408051" lon="-75.8266777"><ele>9.0</ele><time>2026-04-18T11:26:38.692Z</time></trkpt><trkpt lat="9.0408837" lon="-75.8266734"><ele>9.0</ele><time>2026-04-18T11:26:39.691Z</time></trkpt><trkpt lat="9.0409628" lon="-75.8266703"><ele>9.0</ele><time>2026-04-18T11:26:40.691Z</time></trkpt><trkpt lat="9.0410395" lon="-75.8266712"><ele>9.0</ele><time>2026-04-18T11:26:41.693Z</time></trkpt><trkpt lat="9.0411163" lon="-75.826668"><ele>9.0</ele><time>2026-04-18T11:26:42.691Z</time></trkpt><trkpt lat="9.0411891" lon="-75.8266641"><ele>9.0</ele><time>2026-04-18T11:26:43.69Z</time></trkpt><trkpt lat="9.0412655" lon="-75.8266629"><ele>9.0</ele><time>2026-04-18T11:26:44.691Z</time></trkpt><trkpt lat="9.0413395" lon="-75.8266656"><ele>9.0</ele><time>2026-04-18T11:26:45.692Z</time></trkpt><trkpt lat="9.0414127" lon="-75.8266645"><ele>9.0</ele><time>2026-04-18T11:26:46.691Z</time></trkpt><trkpt lat="9.041484" lon="-75.82666"><ele>9.0</ele><time>2026-04-18T11:26:47.692Z</time></trkpt><trkpt lat="9.0415582" lon="-75.8266566"><ele>9.0</ele><time>2026-04-18T11:26:48.692Z</time></trkpt><trkpt lat="9.0416341" lon="-75.826652"><ele>9.0</ele><time>2026-04-18T11:26:49.692Z</time></trkpt><trkpt lat="9.041715" lon="-75.8266512"><ele>9.0</ele><time>2026-04-18T11:26:50.692Z</time></trkpt><trkpt lat="9.0417976" lon="-75.8266491"><ele>8.666666666666666</ele><time>2026-04-18T11:26:51.692Z</time></trkpt><trkpt lat="9.041883" lon="-75.8266488"><ele>8.333333333333334</ele><time>2026-04-18T11:26:52.692Z</time></trkpt><trkpt lat="9.0419663" lon="-75.8266475"><ele>8.0</ele><time>2026-04-18T11:26:53.69Z</time></trkpt><trkpt lat="9.0420508" lon="-75.8266451"><ele>7.666666666666667</ele><time>2026-04-18T11:26:54.691Z</time></trkpt><trkpt lat="9.0421327" lon="-75.8266422"><ele>7.333333333333334</ele><time>2026-04-18T11:26:55.692Z</time></trkpt><trkpt lat="9.042216" lon="-75.8266382"><ele>7.0</ele><time>2026-04-18T11:26:56.692Z</time></trkpt><trkpt lat="9.042298" lon="-75.826635"><ele>7.000000000000001</ele><time>2026-04-18T11:26:57.691Z</time></trkpt><trkpt lat="9.0423795" lon="-75.8266337"><ele>7.0</ele><time>2026-04-18T11:26:58.691Z</time></trkpt><trkpt lat="9.0424592" lon="-75.8266304"><ele>7.0</ele><time>2026-04-18T11:26:59.692Z</time></trkpt><trkpt lat="9.0425373" lon="-75.8266247"><ele>7.0</ele><time>2026-04-18T11:27:00.691Z</time></trkpt><trkpt lat="9.0426174" lon="-75.8266135"><ele>7.000000000000001</ele><time>2026-04-18T11:27:01.692Z</time></trkpt><trkpt lat="9.0426986" lon="-75.8266062"><ele>7.0</ele><time>2026-04-18T11:27:02.692Z</time></trkpt><trkpt lat="9.0427809" lon="-75.826599"><ele>7.000000000000001</ele><time>2026-04-18T11:27:03.692Z</time></trkpt><trkpt lat="9.0428671" lon="-75.8265878"><ele>7.0</ele><time>2026-04-18T11:27:04.692Z</time></trkpt><trkpt lat="9.0429494" lon="-75.826576"><ele>7.0</ele><time>2026-04-18T11:27:05.692Z</time></trkpt><trkpt lat="9.0430326" lon="-75.8265654"><ele>7.0</ele><time>2026-04-18T11:27:06.691Z</time></trkpt><trkpt lat="9.0431104" lon="-75.8265595"><ele>7.000000000000001</ele><time>2026-04-18T11:27:07.693Z</time></trkpt><trkpt lat="9.0431879" lon="-75.8265491"><ele>7.0</ele><time>2026-04-18T11:27:08.692Z</time></trkpt><trkpt lat="9.0432708" lon="-75.8265372"><ele>7.500000000000001</ele><time>2026-04-18T11:27:09.692Z</time></trkpt><trkpt lat="9.0433519" lon="-75.8265236"><ele>8.0</ele><time>2026-04-18T11:27:10.691Z</time></trkpt><trkpt lat="9.0434337" lon="-75.8265087"><ele>8.5</ele><time>2026-04-18T11:27:11.691Z</time></trkpt><trkpt lat="9.0435197" lon="-75.8264953"><ele>9.0</ele><time>2026-04-18T11:27:12.692Z</time></trkpt><trkpt lat="9.0436068" lon="-75.826482"><ele>9.5</ele><time>2026-04-18T11:27:13.692Z</time></trkpt><trkpt lat="9.0436915" lon="-75.8264659"><ele>10.0</ele><time>2026-04-18T11:27:14.691Z</time></trkpt><trkpt lat="9.0437776" lon="-75.8264539"><ele>10.0</ele><time>2026-04-18T11:27:15.692Z</time></trkpt><trkpt lat="9.0438615" lon="-75.8264368"><ele>10.0</ele><time>2026-04-18T11:27:16.692Z</time></trkpt><trkpt lat="9.0439435" lon="-75.826423"><ele>10.0</ele><time>2026-04-18T11:27:17.691Z</time></trkpt><trkpt lat="9.0440268" lon="-75.8264059"><ele>10.0</ele><time>2026-04-18T11:27:18.692Z</time></trkpt><trkpt lat="9.0441138" lon="-75.8263925"><ele>10.0</ele><time>2026-04-18T11:27:19.692Z</time></trkpt><trkpt lat="9.0441988" lon="-75.8263754"><ele>10.0</ele><time>2026-04-18T11:27:20.691Z</time></trkpt><trkpt lat="9.0442839" lon="-75.8263612"><ele>9.5</ele><time>2026-04-18T11:27:21.692Z</time></trkpt><trkpt lat="9.0443691" lon="-75.8263509"><ele>9.0</ele><time>2026-04-18T11:27:22.691Z</time></trkpt><trkpt lat="9.0444542" lon="-75.8263362"><ele>8.5</ele><time>2026-04-18T11:27:23.691Z</time></trkpt><trkpt lat="9.0445395" lon="-75.8263259"><ele>8.0</ele><time>2026-04-18T11:27:24.692Z</time></trkpt><trkpt lat="9.0446185" lon="-75.8263069"><ele>7.500000000000001</ele><time>2026-04-18T11:27:25.691Z</time></trkpt><trkpt lat="9.0447055" lon="-75.8262933"><ele>7.0</ele><time>2026-04-18T11:27:26.691Z</time></trkpt><trkpt lat="9.0447922" lon="-75.8262801"><ele>7.000000000000001</ele><time>2026-04-18T11:27:27.691Z</time></trkpt><trkpt lat="9.0448797" lon="-75.8262638"><ele>7.0</ele><time>2026-04-18T11:27:28.692Z</time></trkpt><trkpt lat="9.0449589" lon="-75.8262489"><ele>7.0</ele><time>2026-04-18T11:27:29.691Z</time></trkpt><trkpt lat="9.0450464" lon="-75.8262345"><ele>7.0</ele><time>2026-04-18T11:27:30.691Z</time></trkpt><trkpt lat="9.0451302" lon="-75.8262197"><ele>7.000000000000001</ele><time>2026-04-18T11:27:31.691Z</time></trkpt><trkpt lat="9.0452119" lon="-75.8262034"><ele>7.0</ele><time>2026-04-18T11:27:32.692Z</time></trkpt><trkpt lat="9.045301" lon="-75.8261926"><ele>7.166666666666667</ele><time>2026-04-18T11:27:33.691Z</time></trkpt><trkpt lat="9.0453899" lon="-75.8261781"><ele>7.333333333333334</ele><time>2026-04-18T11:27:34.691Z</time></trkpt><trkpt lat="9.045476" lon="-75.826165"><ele>7.5</ele><time>2026-04-18T11:27:35.692Z</time></trkpt><trkpt lat="9.0455606" lon="-75.8261494"><ele>7.666666666666666</ele><time>2026-04-18T11:27:36.691Z</time></trkpt><trkpt lat="9.0456514" lon="-75.8261364"><ele>7.833333333333333</ele><time>2026-04-18T11:27:37.692Z</time></trkpt><trkpt lat="9.0457396" lon="-75.8261237"><ele>8.0</ele><time>2026-04-18T11:27:38.691Z</time></trkpt><trkpt lat="9.0458254" lon="-75.8261083"><ele>7.999999999999999</ele><time>2026-04-18T11:27:39.691Z</time></trkpt><trkpt lat="9.0459132" lon="-75.8260915"><ele>8.0</ele><time>2026-04-18T11:27:40.691Z</time></trkpt><trkpt lat="9.046" lon="-75.8260759"><ele>8.0</ele><time>2026-04-18T11:27:41.692Z</time></trkpt><trkpt lat="9.0460841" lon="-75.8260565"><ele>8.0</ele><time>2026-04-18T11:27:42.691Z</time></trkpt><trkpt lat="9.0461669" lon="-75.8260454"><ele>7.999999999999999</ele><time>2026-04-18T11:27:43.691Z</time></trkpt><trkpt lat="9.0462545" lon="-75.826028"><ele>8.0</ele><time>2026-04-18T11:27:44.693Z</time></trkpt><trkpt lat="9.0463397" lon="-75.8260163"><ele>7.999999999999999</ele><time>2026-04-18T11:27:45.692Z</time></trkpt><trkpt lat="9.0464265" lon="-75.8260057"><ele>8.0</ele><time>2026-04-18T11:27:46.692Z</time></trkpt><trkpt lat="9.0465165" lon="-75.8259938"><ele>8.0</ele><time>2026-04-18T11:27:47.691Z</time></trkpt><trkpt lat="9.046601" lon="-75.825978"><ele>8.0</ele><time>2026-04-18T11:27:48.691Z</time></trkpt><trkpt lat="9.046688" lon="-75.8259633"><ele>7.999999999999999</ele><time>2026-04-18T11:27:49.691Z</time></trkpt><trkpt lat="9.0467769" lon="-75.82595"><ele>8.0</ele><time>2026-04-18T11:27:50.692Z</time></trkpt><trkpt lat="9.046862" lon="-75.8259323"><ele>7.666666666666666</ele><time>2026-04-18T11:27:51.692Z</time></trkpt><trkpt lat="9.04695" lon="-75.8259177"><ele>7.333333333333333</ele><time>2026-04-18T11:27:52.691Z</time></trkpt><trkpt lat="9.0470377" lon="-75.8259014"><ele>7.0</ele><time>2026-04-18T11:27:53.692Z</time></trkpt><trkpt lat="9.0471246" lon="-75.8258853"><ele>6.666666666666666</ele><time>2026-04-18T11:27:54.69Z</time></trkpt><trkpt lat="9.0472087" lon="-75.8258699"><ele>6.333333333333333</ele><time>2026-04-18T11:27:55.691Z</time></trkpt><trkpt lat="9.0472951" lon="-75.825855"><ele>6.0</ele><time>2026-04-18T11:27:56.692Z</time></trkpt><trkpt lat="9.047378" lon="-75.8258372"><ele>6.166666666666667</ele><time>2026-04-18T11:27:57.692Z</time></trkpt><trkpt lat="9.0474643" lon="-75.8258232"><ele>6.333333333333334</ele><time>2026-04-18T11:27:58.691Z</time></trkpt><trkpt lat="9.0475512" lon="-75.8258083"><ele>6.5</ele><time>2026-04-18T11:27:59.691Z</time></trkpt><trkpt lat="9.0476354" lon="-75.8257918"><ele>6.666666666666667</ele><time>2026-04-18T11:28:00.693Z</time></trkpt><trkpt lat="9.0477219" lon="-75.8257759"><ele>6.833333333333334</ele><time>2026-04-18T11:28:01.691Z</time></trkpt><trkpt lat="9.0478115" lon="-75.8257603"><ele>7.0</ele><time>2026-04-18T11:28:02.692Z</time></trkpt><trkpt lat="9.0478995" lon="-75.8257442"><ele>7.000000000000001</ele><time>2026-04-18T11:28:03.692Z</time></trkpt><trkpt lat="9.0479839" lon="-75.825726"><ele>7.0</ele><time>2026-04-18T11:28:04.691Z</time></trkpt><trkpt lat="9.0480705" lon="-75.8257092"><ele>7.0</ele><time>2026-04-18T11:28:05.693Z</time></trkpt><trkpt lat="9.0481513" lon="-75.8256883"><ele>7.0</ele><time>2026-04-18T11:28:06.691Z</time></trkpt><trkpt lat="9.0482394" lon="-75.8256748"><ele>7.000000000000001</ele><time>2026-04-18T11:28:07.691Z</time></trkpt><trkpt lat="9.0483278" lon="-75.8256619"><ele>7.0</ele><time>2026-04-18T11:28:08.692Z</time></trkpt><trkpt lat="9.0484145" lon="-75.8256487"><ele>7.333333333333334</ele><time>2026-04-18T11:28:09.692Z</time></trkpt><trkpt lat="9.0485032" lon="-75.8256325"><ele>7.666666666666667</ele><time>2026-04-18T11:28:10.691Z</time></trkpt><trkpt lat="9.0485862" lon="-75.8256095"><ele>8.0</ele><time>2026-04-18T11:28:11.691Z</time></trkpt><trkpt lat="9.0486714" lon="-75.8255948"><ele>8.333333333333334</ele><time>2026-04-18T11:28:12.692Z</time></trkpt><trkpt lat="9.0487581" lon="-75.8255728"><ele>8.666666666666666</ele><time>2026-04-18T11:28:13.691Z</time></trkpt><trkpt lat="9.0488475" lon="-75.8255546"><ele>9.0</ele><time>2026-04-18T11:28:14.691Z</time></trkpt><trkpt lat="9.048937" lon="-75.8255329"><ele>9.0</ele><time>2026-04-18T11:28:15.691Z</time></trkpt><trkpt lat="9.0490263" lon="-75.8255188"><ele>9.0</ele><time>2026-04-18T11:28:16.692Z</time></trkpt><trkpt lat="9.0491112" lon="-75.8255079"><ele>9.0</ele><time>2026-04-18T11:28:17.691Z</time></trkpt><trkpt lat="9.0491982" lon="-75.8254912"><ele>9.0</ele><time>2026-04-18T11:28:18.692Z</time></trkpt><trkpt lat="9.0492854" lon="-75.8254792"><ele>9.0</ele><time>2026-04-18T11:28:19.691Z</time></trkpt><trkpt lat="9.0493735" lon="-75.825468"><ele>9.0</ele><time>2026-04-18T11:28:20.691Z</time></trkpt><trkpt lat="9.049462" lon="-75.8254546"><ele>9.0</ele><time>2026-04-18T11:28:21.691Z</time></trkpt><trkpt lat="9.0495479" lon="-75.8254362"><ele>9.0</ele><time>2026-04-18T11:28:22.691Z</time></trkpt><trkpt lat="9.0496363" lon="-75.825415"><ele>9.0</ele><time>2026-04-18T11:28:23.692Z</time></trkpt><trkpt lat="9.0497264" lon="-75.8254"><ele>9.0</ele><time>2026-04-18T11:28:24.692Z</time></trkpt><trkpt lat="9.0498131" lon="-75.8253832"><ele>9.0</ele><time>2026-04-18T11:28:25.693Z</time></trkpt><trkpt lat="9.0498976" lon="-75.8253663"><ele>9.0</ele><time>2026-04-18T11:28:26.691Z</time></trkpt><trkpt lat="9.049986" lon="-75.8253502"><ele>8.5</ele><time>2026-04-18T11:28:27.692Z</time></trkpt><trkpt lat="9.050073" lon="-75.8253351"><ele>8.0</ele><time>2026-04-18T11:28:28.692Z</time></trkpt><trkpt lat="9.0501599" lon="-75.8253224"><ele>7.5</ele><time>2026-04-18T11:28:29.692Z</time></trkpt><trkpt lat="9.0502441" lon="-75.8253102"><ele>7.0</ele><time>2026-04-18T11:28:30.691Z</time></trkpt><trkpt lat="9.0503316" lon="-75.8252954"><ele>6.5</ele><time>2026-04-18T11:28:31.691Z</time></trkpt><trkpt lat="9.0504203" lon="-75.8252821"><ele>6.0</ele><time>2026-04-18T11:28:32.691Z</time></trkpt><trkpt lat="9.0505107" lon="-75.8252732"><ele>6.0</ele><time>2026-04-18T11:28:33.691Z</time></trkpt><trkpt lat="9.0506007" lon="-75.8252657"><ele>6.0</ele><time>2026-04-18T11:28:34.691Z</time></trkpt><trkpt lat="9.0506862" lon="-75.8252555"><ele>6.0</ele><time>2026-04-18T11:28:35.693Z</time></trkpt><trkpt lat="9.0507712" lon="-75.825246"><ele>6.0</ele><time>2026-04-18T11:28:36.691Z</time></trkpt><trkpt lat="9.0508615" lon="-75.825236"><ele>6.0</ele><time>2026-04-18T11:28:37.691Z</time></trkpt><trkpt lat="9.0509512" lon="-75.8252311"><ele>6.0</ele><time>2026-04-18T11:28:38.691Z</time></trkpt><trkpt lat="9.0510385" lon="-75.825225"><ele>5.833333333333333</ele><time>2026-04-18T11:28:39.691Z</time></trkpt><trkpt lat="9.051128" lon="-75.8252177"><ele>5.666666666666667</ele><time>2026-04-18T11:28:40.691Z</time></trkpt><trkpt lat="9.0512161" lon="-75.8252133"><ele>5.5</ele><time>2026-04-18T11:28:41.691Z</time></trkpt><trkpt lat="9.0513021" lon="-75.8252094"><ele>5.333333333333334</ele><time>2026-04-18T11:28:42.691Z</time></trkpt><trkpt lat="9.0513925" lon="-75.8252059"><ele>5.166666666666667</ele><time>2026-04-18T11:28:43.692Z</time></trkpt><trkpt lat="9.0514824" lon="-75.8252018"><ele>5.0</ele><time>2026-04-18T11:28:44.691Z</time></trkpt><trkpt lat="9.0515733" lon="-75.8251955"><ele>5.2</ele><time>2026-04-18T11:28:45.691Z</time></trkpt><trkpt lat="9.0516653" lon="-75.8251925"><ele>5.4</ele><time>2026-04-18T11:28:46.691Z</time></trkpt><trkpt lat="9.0517594" lon="-75.8251922"><ele>5.6</ele><time>2026-04-18T11:28:47.691Z</time></trkpt><trkpt lat="9.0518537" lon="-75.8251906"><ele>5.8</ele><time>2026-04-18T11:28:48.692Z</time></trkpt><trkpt lat="9.0519436" lon="-75.8251908"><ele>6.0</ele><time>2026-04-18T11:28:49.692Z</time></trkpt><trkpt lat="9.0520353" lon="-75.8251878"><ele>6.0</ele><time>2026-04-18T11:28:50.691Z</time></trkpt><trkpt lat="9.0521257" lon="-75.8251841"><ele>6.0</ele><time>2026-04-18T11:28:51.692Z</time></trkpt><trkpt lat="9.0522165" lon="-75.8251796"><ele>6.0</ele><time>2026-04-18T11:28:52.692Z</time></trkpt><trkpt lat="9.0523067" lon="-75.825175"><ele>6.0</ele><time>2026-04-18T11:28:53.691Z</time></trkpt><trkpt lat="9.0523946" lon="-75.825173"><ele>6.0</ele><time>2026-04-18T11:28:54.692Z</time></trkpt><trkpt lat="9.0524865" lon="-75.8251712"><ele>5.8</ele><time>2026-04-18T11:28:55.692Z</time></trkpt><trkpt lat="9.0525787" lon="-75.8251702"><ele>5.6</ele><time>2026-04-18T11:28:56.692Z</time></trkpt><trkpt lat="9.0526663" lon="-75.8251663"><ele>5.4</ele><time>2026-04-18T11:28:57.691Z</time></trkpt><trkpt lat="9.052761" lon="-75.8251604"><ele>5.2</ele><time>2026-04-18T11:28:58.691Z</time></trkpt><trkpt lat="9.0528511" lon="-75.8251593"><ele>5.0</ele><time>2026-04-18T11:28:59.691Z</time></trkpt><trkpt lat="9.052943" lon="-75.8251535"><ele>5.0</ele><time>2026-04-18T11:29:00.691Z</time></trkpt><trkpt lat="9.053032" lon="-75.8251512"><ele>5.0</ele><time>2026-04-18T11:29:01.692Z</time></trkpt><trkpt lat="9.0531249" lon="-75.8251453"><ele>5.0</ele><time>2026-04-18T11:29:02.691Z</time></trkpt><trkpt lat="9.0532124" lon="-75.8251366"><ele>5.0</ele><time>2026-04-18T11:29:03.691Z</time></trkpt><trkpt lat="9.0533006" lon="-75.8251328"><ele>5.0</ele><time>2026-04-18T11:29:04.692Z</time></trkpt><trkpt lat="9.0533933" lon="-75.8251266"><ele>5.0</ele><time>2026-04-18T11:29:05.692Z</time></trkpt><trkpt lat="9.0534833" lon="-75.8251246"><ele>5.0</ele><time>2026-04-18T11:29:06.692Z</time></trkpt><trkpt lat="9.0535734" lon="-75.8251165"><ele>5.0</ele><time>2026-04-18T11:29:07.691Z</time></trkpt><trkpt lat="9.0536664" lon="-75.8251053"><ele>5.0</ele><time>2026-04-18T11:29:08.692Z</time></trkpt><trkpt lat="9.0537535" lon="-75.8250983"><ele>5.0</ele><time>2026-04-18T11:29:09.691Z</time></trkpt><trkpt lat="9.0538449" lon="-75.825091"><ele>5.0</ele><time>2026-04-18T11:29:10.691Z</time></trkpt><trkpt lat="9.0539303" lon="-75.8250797"><ele>5.0</ele><time>2026-04-18T11:29:11.692Z</time></trkpt><trkpt lat="9.0540203" lon="-75.8250714"><ele>5.0</ele><time>2026-04-18T11:29:12.691Z</time></trkpt><trkpt lat="9.0541086" lon="-75.8250625"><ele>5.0</ele><time>2026-04-18T11:29:13.692Z</time></trkpt><trkpt lat="9.0542027" lon="-75.8250561"><ele>5.0</ele><time>2026-04-18T11:29:14.691Z</time></trkpt><trkpt lat="9.0542904" lon="-75.825044"><ele>5.0</ele><time>2026-04-18T11:29:15.692Z</time></trkpt><trkpt lat="9.054378" lon="-75.8250344"><ele>5.333333333333334</ele><time>2026-04-18T11:29:16.691Z</time></trkpt><trkpt lat="9.0544685" lon="-75.8250239"><ele>5.666666666666667</ele><time>2026-04-18T11:29:17.692Z</time></trkpt><trkpt lat="9.0545561" lon="-75.8250108"><ele>6.0</ele><time>2026-04-18T11:29:18.691Z</time></trkpt><trkpt lat="9.0546488" lon="-75.825001"><ele>6.333333333333334</ele><time>2026-04-18T11:29:19.691Z</time></trkpt><trkpt lat="9.0547386" lon="-75.8249916"><ele>6.666666666666667</ele><time>2026-04-18T11:29:20.692Z</time></trkpt><trkpt lat="9.054823" lon="-75.8249805"><ele>7.0</ele><time>2026-04-18T11:29:21.692Z</time></trkpt><trkpt lat="9.05491" lon="-75.8249708"><ele>7.0</ele><time>2026-04-18T11:29:22.691Z</time></trkpt><trkpt lat="9.0549974" lon="-75.8249569"><ele>6.999999999999999</ele><time>2026-04-18T11:29:23.692Z</time></trkpt><trkpt lat="9.0550853" lon="-75.8249406"><ele>6.999999999999999</ele><time>2026-04-18T11:29:24.691Z</time></trkpt><trkpt lat="9.0551721" lon="-75.824924"><ele>7.0</ele><time>2026-04-18T11:29:25.69Z</time></trkpt><trkpt lat="9.055263" lon="-75.824907"><ele>7.0</ele><time>2026-04-18T11:29:26.691Z</time></trkpt><trkpt lat="9.0553542" lon="-75.8248926"><ele>7.000000000000001</ele><time>2026-04-18T11:29:27.691Z</time></trkpt><trkpt lat="9.0554422" lon="-75.8248829"><ele>7.0</ele><time>2026-04-18T11:29:28.693Z</time></trkpt><trkpt lat="9.0555268" lon="-75.8248623"><ele>7.0</ele><time>2026-04-18T11:29:29.691Z</time></trkpt><trkpt lat="9.055613" lon="-75.8248451"><ele>7.0</ele><time>2026-04-18T11:29:30.691Z</time></trkpt><trkpt lat="9.0557007" lon="-75.8248295"><ele>7.000000000000001</ele><time>2026-04-18T11:29:31.691Z</time></trkpt><trkpt lat="9.0557922" lon="-75.8248154"><ele>7.0</ele><time>2026-04-18T11:29:32.691Z</time></trkpt><trkpt lat="9.0558818" lon="-75.8248026"><ele>6.6</ele><time>2026-04-18T11:29:33.692Z</time></trkpt><trkpt lat="9.0559723" lon="-75.8247849"><ele>6.199999999999999</ele><time>2026-04-18T11:29:34.691Z</time></trkpt><trkpt lat="9.0560615" lon="-75.8247712"><ele>5.8</ele><time>2026-04-18T11:29:35.691Z</time></trkpt><trkpt lat="9.0561522" lon="-75.8247606"><ele>5.4</ele><time>2026-04-18T11:29:36.693Z</time></trkpt><trkpt lat="9.0562449" lon="-75.824749"><ele>5.0</ele><time>2026-04-18T11:29:37.692Z</time></trkpt><trkpt lat="9.0563334" lon="-75.8247349"><ele>5.0</ele><time>2026-04-18T11:29:38.692Z</time></trkpt><trkpt lat="9.0564253" lon="-75.8247213"><ele>5.0</ele><time>2026-04-18T11:29:39.692Z</time></trkpt><trkpt lat="9.0565152" lon="-75.8247068"><ele>5.0</ele><time>2026-04-18T11:29:40.691Z</time></trkpt><trkpt lat="9.0566029" lon="-75.8246914"><ele>5.0</ele><time>2026-04-18T11:29:41.692Z</time></trkpt><trkpt lat="9.056696" lon="-75.8246787"><ele>5.0</ele><time>2026-04-18T11:29:42.691Z</time></trkpt><trkpt lat="9.0567879" lon="-75.8246693"><ele>5.6</ele><time>2026-04-18T11:29:43.691Z</time></trkpt><trkpt lat="9.056881" lon="-75.8246596"><ele>6.2</ele><time>2026-04-18T11:29:44.691Z</time></trkpt><trkpt lat="9.0569721" lon="-75.8246457"><ele>6.800000000000001</ele><time>2026-04-18T11:29:45.692Z</time></trkpt><trkpt lat="9.0570639" lon="-75.8246343"><ele>7.4</ele><time>2026-04-18T11:29:46.692Z</time></trkpt><trkpt lat="9.0571541" lon="-75.8246238"><ele>8.0</ele><time>2026-04-18T11:29:47.691Z</time></trkpt><trkpt lat="9.0572455" lon="-75.8246113"><ele>8.0</ele><time>2026-04-18T11:29:48.692Z</time></trkpt><trkpt lat="9.0573372" lon="-75.8245977"><ele>8.0</ele><time>2026-04-18T11:29:49.692Z</time></trkpt><trkpt lat="9.0574253" lon="-75.8245864"><ele>8.0</ele><time>2026-04-18T11:29:50.692Z</time></trkpt><trkpt lat="9.0575132" lon="-75.8245772"><ele>8.0</ele><time>2026-04-18T11:29:51.692Z</time></trkpt><trkpt lat="9.0576055" lon="-75.8245691"><ele>8.0</ele><time>2026-04-18T11:29:52.692Z</time></trkpt><trkpt lat="9.0576944" lon="-75.8245579"><ele>7.4</ele><time>2026-04-18T11:29:53.691Z</time></trkpt><trkpt lat="9.0577847" lon="-75.8245505"><ele>6.800000000000001</ele><time>2026-04-18T11:29:54.691Z</time></trkpt><trkpt lat="9.0578758" lon="-75.8245481"><ele>6.2</ele><time>2026-04-18T11:29:55.692Z</time></trkpt><trkpt lat="9.0579635" lon="-75.8245392"><ele>5.6</ele><time>2026-04-18T11:29:56.691Z</time></trkpt><trkpt lat="9.0580531" lon="-75.8245299"><ele>5.0</ele><time>2026-04-18T11:29:57.691Z</time></trkpt><trkpt lat="9.0581448" lon="-75.8245194"><ele>5.0</ele><time>2026-04-18T11:29:58.691Z</time></trkpt><trkpt lat="9.0582378" lon="-75.8245096"><ele>5.0</ele><time>2026-04-18T11:29:59.692Z</time></trkpt><trkpt lat="9.0583369" lon="-75.8244999"><ele>5.0</ele><time>2026-04-18T11:30:00.693Z</time></trkpt><trkpt lat="9.0584338" lon="-75.8244889"><ele>5.0</ele><time>2026-04-18T11:30:01.692Z</time></trkpt><trkpt lat="9.0585273" lon="-75.8244813"><ele>5.0</ele><time>2026-04-18T11:30:02.691Z</time></trkpt><trkpt lat="9.0586255" lon="-75.8244742"><ele>5.2</ele><time>2026-04-18T11:30:03.692Z</time></trkpt><trkpt lat="9.0587183" lon="-75.824472"><ele>5.4</ele><time>2026-04-18T11:30:04.691Z</time></trkpt><trkpt lat="9.0588092" lon="-75.8244631"><ele>5.6</ele><time>2026-04-18T11:30:05.692Z</time></trkpt><trkpt lat="9.058903" lon="-75.8244561"><ele>5.8</ele><time>2026-04-18T11:30:06.692Z</time></trkpt><trkpt lat="9.0589962" lon="-75.8244482"><ele>6.0</ele><time>2026-04-18T11:30:07.691Z</time></trkpt><trkpt lat="9.0590892" lon="-75.8244379"><ele>6.6</ele><time>2026-04-18T11:30:08.692Z</time></trkpt><trkpt lat="9.0591818" lon="-75.8244309"><ele>7.199999999999999</ele><time>2026-04-18T11:30:09.69Z</time></trkpt><trkpt lat="9.0592746" lon="-75.8244217"><ele>7.800000000000001</ele><time>2026-04-18T11:30:10.691Z</time></trkpt><trkpt lat="9.0593679" lon="-75.8244186"><ele>8.4</ele><time>2026-04-18T11:30:11.691Z</time></trkpt><trkpt lat="9.0594647" lon="-75.8244134"><ele>9.0</ele><time>2026-04-18T11:30:12.692Z</time></trkpt><trkpt lat="9.0595554" lon="-75.8244054"><ele>9.0</ele><time>2026-04-18T11:30:13.691Z</time></trkpt><trkpt lat="9.059651" lon="-75.8243943"><ele>9.0</ele><time>2026-04-18T11:30:14.691Z</time></trkpt><trkpt lat="9.0597458" lon="-75.8243852"><ele>9.0</ele><time>2026-04-18T11:30:15.691Z</time></trkpt><trkpt lat="9.0598408" lon="-75.8243762"><ele>9.0</ele><time>2026-04-18T11:30:16.691Z</time></trkpt><trkpt lat="9.0599306" lon="-75.8243643"><ele>9.0</ele><time>2026-04-18T11:30:17.692Z</time></trkpt><trkpt lat="9.0600256" lon="-75.8243537"><ele>9.0</ele><time>2026-04-18T11:30:18.691Z</time></trkpt><trkpt lat="9.0601159" lon="-75.8243452"><ele>9.0</ele><time>2026-04-18T11:30:19.691Z</time></trkpt><trkpt lat="9.0602114" lon="-75.824343"><ele>9.0</ele><time>2026-04-18T11:30:20.691Z</time></trkpt><trkpt lat="9.0603014" lon="-75.8243369"><ele>9.0</ele><time>2026-04-18T11:30:21.692Z</time></trkpt><trkpt lat="9.0603925" lon="-75.8243321"><ele>9.0</ele><time>2026-04-18T11:30:22.691Z</time></trkpt><trkpt lat="9.0604836" lon="-75.8243223"><ele>9.0</ele><time>2026-04-18T11:30:23.691Z</time></trkpt><trkpt lat="9.0605763" lon="-75.8243176"><ele>9.0</ele><time>2026-04-18T11:30:24.691Z</time></trkpt><trkpt lat="9.0606679" lon="-75.8243147"><ele>9.0</ele><time>2026-04-18T11:30:25.692Z</time></trkpt><trkpt lat="9.0607571" lon="-75.8243059"><ele>9.0</ele><time>2026-04-18T11:30:26.691Z</time></trkpt><trkpt lat="9.0608509" lon="-75.8242991"><ele>9.0</ele><time>2026-04-18T11:30:27.693Z</time></trkpt><trkpt lat="9.060943" lon="-75.8242926"><ele>8.4</ele><time>2026-04-18T11:30:28.691Z</time></trkpt><trkpt lat="9.0610346" lon="-75.8242832"><ele>7.800000000000001</ele><time>2026-04-18T11:30:29.691Z</time></trkpt><trkpt lat="9.0611269" lon="-75.8242758"><ele>7.199999999999999</ele><time>2026-04-18T11:30:30.691Z</time></trkpt><trkpt lat="9.061216" lon="-75.8242678"><ele>6.6</ele><time>2026-04-18T11:30:31.691Z</time></trkpt><trkpt lat="9.0613058" lon="-75.8242572"><ele>6.0</ele><time>2026-04-18T11:30:32.692Z</time></trkpt><trkpt lat="9.0613994" lon="-75.8242524"><ele>6.0</ele><time>2026-04-18T11:30:33.69Z</time></trkpt><trkpt lat="9.0614902" lon="-75.8242429"><ele>6.0</ele><time>2026-04-18T11:30:34.692Z</time></trkpt><trkpt lat="9.0615831" lon="-75.824234"><ele>6.0</ele><time>2026-04-18T11:30:35.691Z</time></trkpt><trkpt lat="9.0616755" lon="-75.8242256"><ele>6.0</ele><time>2026-04-18T11:30:36.692Z</time></trkpt><trkpt lat="9.0617663" lon="-75.8242159"><ele>6.0</ele><time>2026-04-18T11:30:37.691Z</time></trkpt><trkpt lat="9.0618577" lon="-75.8242066"><ele>6.4</ele><time>2026-04-18T11:30:38.691Z</time></trkpt><trkpt lat="9.0619505" lon="-75.8241982"><ele>6.8</ele><time>2026-04-18T11:30:39.692Z</time></trkpt><trkpt lat="9.0620479" lon="-75.8241927"><ele>7.200000000000001</ele><time>2026-04-18T11:30:40.691Z</time></trkpt><trkpt lat="9.0621392" lon="-75.8241815"><ele>7.6000000000000005</ele><time>2026-04-18T11:30:41.692Z</time></trkpt><trkpt lat="9.062234" lon="-75.824175"><ele>8.0</ele><time>2026-04-18T11:30:42.692Z</time></trkpt><trkpt lat="9.0623279" lon="-75.8241648"><ele>8.0</ele><time>2026-04-18T11:30:43.691Z</time></trkpt><trkpt lat="9.0624202" lon="-75.8241567"><ele>8.0</ele><time>2026-04-18T11:30:44.691Z</time></trkpt><trkpt lat="9.0625127" lon="-75.8241499"><ele>8.0</ele><time>2026-04-18T11:30:45.691Z</time></trkpt><trkpt lat="9.0626051" lon="-75.8241436"><ele>8.0</ele><time>2026-04-18T11:30:46.692Z</time></trkpt><trkpt lat="9.0627009" lon="-75.8241397"><ele>8.0</ele><time>2026-04-18T11:30:47.691Z</time></trkpt><trkpt lat="9.0627953" lon="-75.8241337"><ele>8.4</ele><time>2026-04-18T11:30:48.691Z</time></trkpt><trkpt lat="9.0628911" lon="-75.8241301"><ele>8.8</ele><time>2026-04-18T11:30:49.691Z</time></trkpt><trkpt lat="9.0629825" lon="-75.8241222"><ele>9.2</ele><time>2026-04-18T11:30:50.691Z</time></trkpt><trkpt lat="9.0630746" lon="-75.8241124"><ele>9.6</ele><time>2026-04-18T11:30:51.691Z</time></trkpt><trkpt lat="9.0631649" lon="-75.8241039"><ele>10.0</ele><time>2026-04-18T11:30:52.691Z</time></trkpt><trkpt lat="9.063259" lon="-75.8241013"><ele>10.0</ele><time>2026-04-18T11:30:53.691Z</time></trkpt><trkpt lat="9.0633505" lon="-75.8240973"><ele>10.0</ele><time>2026-04-18T11:30:54.691Z</time></trkpt><trkpt lat="9.0634434" lon="-75.8240894"><ele>10.0</ele><time>2026-04-18T11:30:55.691Z</time></trkpt><trkpt lat="9.0635375" lon="-75.8240844"><ele>10.0</ele><time>2026-04-18T11:30:56.691Z</time></trkpt><trkpt lat="9.0636326" lon="-75.8240806"><ele>10.0</ele><time>2026-04-18T11:30:57.691Z</time></trkpt><trkpt lat="9.0637244" lon="-75.8240749"><ele>10.0</ele><time>2026-04-18T11:30:58.691Z</time></trkpt><trkpt lat="9.0638149" lon="-75.8240649"><ele>10.0</ele><time>2026-04-18T11:30:59.691Z</time></trkpt><trkpt lat="9.0639078" lon="-75.8240607"><ele>10.0</ele><time>2026-04-18T11:31:00.692Z</time></trkpt><trkpt lat="9.0640027" lon="-75.8240614"><ele>10.0</ele><time>2026-04-18T11:31:01.691Z</time></trkpt><trkpt lat="9.0640926" lon="-75.8240628"><ele>10.0</ele><time>2026-04-18T11:31:02.691Z</time></trkpt><trkpt lat="9.0641856" lon="-75.8240572"><ele>9.6</ele><time>2026-04-18T11:31:03.692Z</time></trkpt><trkpt lat="9.0642798" lon="-75.8240545"><ele>9.2</ele><time>2026-04-18T11:31:04.691Z</time></trkpt><trkpt lat="9.0643714" lon="-75.8240526"><ele>8.8</ele><time>2026-04-18T11:31:05.691Z</time></trkpt><trkpt lat="9.0644604" lon="-75.8240525"><ele>8.4</ele><time>2026-04-18T11:31:06.691Z</time></trkpt><trkpt lat="9.0645508" lon="-75.8240521"><ele>8.0</ele><time>2026-04-18T11:31:07.692Z</time></trkpt><trkpt lat="9.0646423" lon="-75.8240502"><ele>7.999999999999999</ele><time>2026-04-18T11:31:08.692Z</time></trkpt><trkpt lat="9.0647313" lon="-75.8240477"><ele>8.0</ele><time>2026-04-18T11:31:09.691Z</time></trkpt><trkpt lat="9.0648215" lon="-75.8240441"><ele>8.0</ele><time>2026-04-18T11:31:10.691Z</time></trkpt><trkpt lat="9.0649129" lon="-75.8240408"><ele>8.0</ele><time>2026-04-18T11:31:11.691Z</time></trkpt><trkpt lat="9.0650015" lon="-75.8240377"><ele>7.999999999999999</ele><time>2026-04-18T11:31:12.692Z</time></trkpt><trkpt lat="9.0650881" lon="-75.8240314"><ele>8.0</ele><time>2026-04-18T11:31:13.691Z</time></trkpt><trkpt lat="9.0651787" lon="-75.8240308"><ele>7.666666666666666</ele><time>2026-04-18T11:31:14.691Z</time></trkpt><trkpt lat="9.0652688" lon="-75.824027"><ele>7.333333333333333</ele><time>2026-04-18T11:31:15.691Z</time></trkpt><trkpt lat="9.0653576" lon="-75.8240231"><ele>7.0</ele><time>2026-04-18T11:31:16.691Z</time></trkpt><trkpt lat="9.0654436" lon="-75.8240179"><ele>6.666666666666666</ele><time>2026-04-18T11:31:17.692Z</time></trkpt><trkpt lat="9.0655315" lon="-75.8240179"><ele>6.333333333333333</ele><time>2026-04-18T11:31:18.691Z</time></trkpt><trkpt lat="9.0656214" lon="-75.8240158"><ele>6.0</ele><time>2026-04-18T11:31:19.691Z</time></trkpt><trkpt lat="9.0657083" lon="-75.8240128"><ele>6.166666666666667</ele><time>2026-04-18T11:31:20.691Z</time></trkpt><trkpt lat="9.0657973" lon="-75.8240109"><ele>6.333333333333334</ele><time>2026-04-18T11:31:21.691Z</time></trkpt><trkpt lat="9.0658866" lon="-75.8240074"><ele>6.5</ele><time>2026-04-18T11:31:22.691Z</time></trkpt><trkpt lat="9.0659753" lon="-75.8240014"><ele>6.666666666666667</ele><time>2026-04-18T11:31:23.69Z</time></trkpt><trkpt lat="9.0660637" lon="-75.8239925"><ele>6.833333333333334</ele><time>2026-04-18T11:31:24.69Z</time></trkpt><trkpt lat="9.0661527" lon="-75.8239849"><ele>7.0</ele><time>2026-04-18T11:31:25.691Z</time></trkpt><trkpt lat="9.066244" lon="-75.8239774"><ele>7.0</ele><time>2026-04-18T11:31:26.691Z</time></trkpt><trkpt lat="9.0663328" lon="-75.8239742"><ele>6.999999999999999</ele><time>2026-04-18T11:31:27.691Z</time></trkpt><trkpt lat="9.0664214" lon="-75.8239672"><ele>6.999999999999999</ele><time>2026-04-18T11:31:28.691Z</time></trkpt><trkpt lat="9.0665126" lon="-75.8239649"><ele>7.0</ele><time>2026-04-18T11:31:29.691Z</time></trkpt><trkpt lat="9.0666046" lon="-75.8239586"><ele>7.0</ele><time>2026-04-18T11:31:30.691Z</time></trkpt><trkpt lat="9.0666941" lon="-75.8239538"><ele>7.0</ele><time>2026-04-18T11:31:31.692Z</time></trkpt><trkpt lat="9.0667861" lon="-75.823946"><ele>6.999999999999999</ele><time>2026-04-18T11:31:32.691Z</time></trkpt><trkpt lat="9.0668745" lon="-75.8239372"><ele>6.999999999999999</ele><time>2026-04-18T11:31:33.691Z</time></trkpt><trkpt lat="9.0669652" lon="-75.8239304"><ele>7.0</ele><time>2026-04-18T11:31:34.691Z</time></trkpt><trkpt lat="9.0670575" lon="-75.8239238"><ele>7.0</ele><time>2026-04-18T11:31:35.691Z</time></trkpt><trkpt lat="9.0671504" lon="-75.8239162"><ele>7.0</ele><time>2026-04-18T11:31:36.691Z</time></trkpt><trkpt lat="9.0672401" lon="-75.8239034"><ele>6.999999999999999</ele><time>2026-04-18T11:31:37.691Z</time></trkpt><trkpt lat="9.0673292" lon="-75.8238971"><ele>6.999999999999999</ele><time>2026-04-18T11:31:38.691Z</time></trkpt><trkpt lat="9.06742" lon="-75.8238902"><ele>7.0</ele><time>2026-04-18T11:31:39.692Z</time></trkpt><trkpt lat="9.0675098" lon="-75.8238796"><ele>7.0</ele><time>2026-04-18T11:31:40.691Z</time></trkpt><trkpt lat="9.0676003" lon="-75.8238696"><ele>7.199999999999999</ele><time>2026-04-18T11:31:41.692Z</time></trkpt><trkpt lat="9.067695" lon="-75.8238594"><ele>7.3999999999999995</ele><time>2026-04-18T11:31:42.691Z</time></trkpt><trkpt lat="9.0677891" lon="-75.8238507"><ele>7.6000000000000005</ele><time>2026-04-18T11:31:43.69Z</time></trkpt><trkpt lat="9.067883" lon="-75.8238417"><ele>7.800000000000001</ele><time>2026-04-18T11:31:44.691Z</time></trkpt><trkpt lat="9.0679721" lon="-75.8238336"><ele>8.0</ele><time>2026-04-18T11:31:45.691Z</time></trkpt><trkpt lat="9.0680667" lon="-75.8238252"><ele>7.999999999999999</ele><time>2026-04-18T11:31:46.69Z</time></trkpt><trkpt lat="9.0681517" lon="-75.8238137"><ele>8.0</ele><time>2026-04-18T11:31:47.69Z</time></trkpt><trkpt lat="9.0682429" lon="-75.823804"><ele>8.0</ele><time>2026-04-18T11:31:48.691Z</time></trkpt><trkpt lat="9.0683324" lon="-75.8237962"><ele>8.0</ele><time>2026-04-18T11:31:49.692Z</time></trkpt><trkpt lat="9.0684226" lon="-75.8237882"><ele>7.999999999999999</ele><time>2026-04-18T11:31:50.691Z</time></trkpt><trkpt lat="9.0685126" lon="-75.823778"><ele>8.0</ele><time>2026-04-18T11:31:51.691Z</time></trkpt><trkpt lat="9.0686034" lon="-75.8237668"><ele>7.800000000000001</ele><time>2026-04-18T11:31:52.692Z</time></trkpt><trkpt lat="9.0686987" lon="-75.8237548"><ele>7.6000000000000005</ele><time>2026-04-18T11:31:53.691Z</time></trkpt><trkpt lat="9.0687898" lon="-75.8237461"><ele>7.3999999999999995</ele><time>2026-04-18T11:31:54.692Z</time></trkpt><trkpt lat="9.0688788" lon="-75.8237327"><ele>7.199999999999999</ele><time>2026-04-18T11:31:55.691Z</time></trkpt><trkpt lat="9.0689714" lon="-75.8237242"><ele>7.0</ele><time>2026-04-18T11:31:56.691Z</time></trkpt><trkpt lat="9.0690618" lon="-75.8237146"><ele>7.0</ele><time>2026-04-18T11:31:57.692Z</time></trkpt><trkpt lat="9.069152" lon="-75.8237065"><ele>6.999999999999999</ele><time>2026-04-18T11:31:58.691Z</time></trkpt><trkpt lat="9.0692455" lon="-75.8236957"><ele>6.999999999999999</ele><time>2026-04-18T11:31:59.691Z</time></trkpt><trkpt lat="9.0693337" lon="-75.8236825"><ele>7.0</ele><time>2026-04-18T11:32:00.691Z</time></trkpt><trkpt lat="9.0694289" lon="-75.8236773"><ele>7.0</ele><time>2026-04-18T11:32:01.691Z</time></trkpt><trkpt lat="9.0695189" lon="-75.823665"><ele>7.0</ele><time>2026-04-18T11:32:02.691Z</time></trkpt><trkpt lat="9.0696079" lon="-75.8236519"><ele>6.999999999999999</ele><time>2026-04-18T11:32:03.691Z</time></trkpt><trkpt lat="9.0696994" lon="-75.8236379"><ele>6.999999999999999</ele><time>2026-04-18T11:32:04.691Z</time></trkpt><trkpt lat="9.0697901" lon="-75.8236275"><ele>7.0</ele><time>2026-04-18T11:32:05.69Z</time></trkpt><trkpt lat="9.0698791" lon="-75.8236124"><ele>7.0</ele><time>2026-04-18T11:32:06.691Z</time></trkpt><trkpt lat="9.0699693" lon="-75.8235996"><ele>7.0</ele><time>2026-04-18T11:32:07.692Z</time></trkpt><trkpt lat="9.0700556" lon="-75.8235861"><ele>6.999999999999999</ele><time>2026-04-18T11:32:08.692Z</time></trkpt><trkpt lat="9.0701452" lon="-75.8235736"><ele>6.999999999999999</ele><time>2026-04-18T11:32:09.691Z</time></trkpt><trkpt lat="9.0702358" lon="-75.8235586"><ele>7.0</ele><time>2026-04-18T11:32:10.693Z</time></trkpt><trkpt lat="9.0703254" lon="-75.823548"><ele>7.0</ele><time>2026-04-18T11:32:11.692Z</time></trkpt><trkpt lat="9.0704162" lon="-75.8235302"><ele>7.0</ele><time>2026-04-18T11:32:12.691Z</time></trkpt><trkpt lat="9.0705061" lon="-75.8235136"><ele>6.999999999999999</ele><time>2026-04-18T11:32:13.69Z</time></trkpt><trkpt lat="9.0705955" lon="-75.8234967"><ele>6.999999999999999</ele><time>2026-04-18T11:32:14.691Z</time></trkpt><trkpt lat="9.070686" lon="-75.8234804"><ele>7.0</ele><time>2026-04-18T11:32:15.691Z</time></trkpt><trkpt lat="9.0707732" lon="-75.823459"><ele>7.0</ele><time>2026-04-18T11:32:16.691Z</time></trkpt><trkpt lat="9.0708614" lon="-75.8234421"><ele>7.6</ele><time>2026-04-18T11:32:17.691Z</time></trkpt><trkpt lat="9.070948" lon="-75.8234224"><ele>8.2</ele><time>2026-04-18T11:32:18.691Z</time></trkpt><trkpt lat="9.071037" lon="-75.8234038"><ele>8.8</ele><time>2026-04-18T11:32:19.691Z</time></trkpt><trkpt lat="9.0711236" lon="-75.8233852"><ele>9.4</ele><time>2026-04-18T11:32:20.69Z</time></trkpt><trkpt lat="9.071212" lon="-75.8233655"><ele>10.0</ele><time>2026-04-18T11:32:21.69Z</time></trkpt><trkpt lat="9.0713004" lon="-75.8233443"><ele>10.0</ele><time>2026-04-18T11:32:22.69Z</time></trkpt><trkpt lat="9.0713893" lon="-75.8233223"><ele>10.0</ele><time>2026-04-18T11:32:23.691Z</time></trkpt><trkpt lat="9.071481" lon="-75.8233024"><ele>10.0</ele><time>2026-04-18T11:32:24.691Z</time></trkpt><trkpt lat="9.0715707" lon="-75.8232804"><ele>10.0</ele><time>2026-04-18T11:32:25.692Z</time></trkpt><trkpt lat="9.0716636" lon="-75.8232603"><ele>10.0</ele><time>2026-04-18T11:32:26.691Z</time></trkpt><trkpt lat="9.0717545" lon="-75.8232387"><ele>10.0</ele><time>2026-04-18T11:32:27.691Z</time></trkpt><trkpt lat="9.0718444" lon="-75.8232152"><ele>10.0</ele><time>2026-04-18T11:32:28.692Z</time></trkpt><trkpt lat="9.0719372" lon="-75.823192"><ele>10.0</ele><time>2026-04-18T11:32:29.691Z</time></trkpt><trkpt lat="9.0720271" lon="-75.823171"><ele>10.0</ele><time>2026-04-18T11:32:30.691Z</time></trkpt><trkpt lat="9.0721188" lon="-75.8231504"><ele>10.0</ele><time>2026-04-18T11:32:31.691Z</time></trkpt><trkpt lat="9.0722144" lon="-75.8231291"><ele>10.0</ele><time>2026-04-18T11:32:32.69Z</time></trkpt><trkpt lat="9.0723064" lon="-75.8231094"><ele>10.0</ele><time>2026-04-18T11:32:33.691Z</time></trkpt><trkpt lat="9.0723984" lon="-75.8230891"><ele>10.0</ele><time>2026-04-18T11:32:34.691Z</time></trkpt><trkpt lat="9.0724927" lon="-75.823071"><ele>10.0</ele><time>2026-04-18T11:32:35.691Z</time></trkpt><trkpt lat="9.0725895" lon="-75.8230555"><ele>10.0</ele><time>2026-04-18T11:32:36.691Z</time></trkpt><trkpt lat="9.0726785" lon="-75.8230359"><ele>10.0</ele><time>2026-04-18T11:32:37.692Z</time></trkpt><trkpt lat="9.0727696" lon="-75.8230206"><ele>10.0</ele><time>2026-04-18T11:32:38.691Z</time></trkpt><trkpt lat="9.0728665" lon="-75.8230061"><ele>10.0</ele><time>2026-04-18T11:32:39.69Z</time></trkpt><trkpt lat="9.0729624" lon="-75.8229879"><ele>10.0</ele><time>2026-04-18T11:32:40.691Z</time></trkpt><trkpt lat="9.0730567" lon="-75.8229688"><ele>10.0</ele><time>2026-04-18T11:32:41.691Z</time></trkpt><trkpt lat="9.073153" lon="-75.8229542"><ele>10.0</ele><time>2026-04-18T11:32:42.691Z</time></trkpt><trkpt lat="9.0732454" lon="-75.8229337"><ele>10.0</ele><time>2026-04-18T11:32:43.692Z</time></trkpt><trkpt lat="9.0733386" lon="-75.8229171"><ele>10.0</ele><time>2026-04-18T11:32:44.691Z</time></trkpt><trkpt lat="9.0734275" lon="-75.8228979"><ele>10.0</ele><time>2026-04-18T11:32:45.69Z</time></trkpt><trkpt lat="9.073518" lon="-75.8228813"><ele>10.0</ele><time>2026-04-18T11:32:46.69Z</time></trkpt><trkpt lat="9.0736103" lon="-75.8228643"><ele>9.4</ele><time>2026-04-18T11:32:47.691Z</time></trkpt><trkpt lat="9.0737038" lon="-75.8228491"><ele>8.8</ele><time>2026-04-18T11:32:48.691Z</time></trkpt><trkpt lat="9.0737962" lon="-75.8228315"><ele>8.2</ele><time>2026-04-18T11:32:49.691Z</time></trkpt><trkpt lat="9.0738892" lon="-75.8228223"><ele>7.6</ele><time>2026-04-18T11:32:50.69Z</time></trkpt><trkpt lat="9.0739833" lon="-75.8228088"><ele>7.0</ele><time>2026-04-18T11:32:51.691Z</time></trkpt><trkpt lat="9.0740754" lon="-75.8227943"><ele>7.0</ele><time>2026-04-18T11:32:52.691Z</time></trkpt><trkpt lat="9.0741707" lon="-75.8227796"><ele>6.999999999999999</ele><time>2026-04-18T11:32:53.692Z</time></trkpt><trkpt lat="9.0742583" lon="-75.8227593"><ele>6.999999999999999</ele><time>2026-04-18T11:32:54.691Z</time></trkpt><trkpt lat="9.0743504" lon="-75.8227405"><ele>7.0</ele><time>2026-04-18T11:32:55.691Z</time></trkpt><trkpt lat="9.0744439" lon="-75.8227228"><ele>7.0</ele><time>2026-04-18T11:32:56.691Z</time></trkpt><trkpt lat="9.0745341" lon="-75.8227083"><ele>7.0</ele><time>2026-04-18T11:32:57.692Z</time></trkpt><trkpt lat="9.0746282" lon="-75.8226899"><ele>6.999999999999999</ele><time>2026-04-18T11:32:58.691Z</time></trkpt><trkpt lat="9.0747204" lon="-75.8226765"><ele>6.999999999999999</ele><time>2026-04-18T11:32:59.69Z</time></trkpt><trkpt lat="9.0748126" lon="-75.8226628"><ele>7.0</ele><time>2026-04-18T11:33:00.692Z</time></trkpt><trkpt lat="9.0749034" lon="-75.8226452"><ele>7.0</ele><time>2026-04-18T11:33:01.691Z</time></trkpt><trkpt lat="9.0749951" lon="-75.8226272"><ele>7.0</ele><time>2026-04-18T11:33:02.69Z</time></trkpt><trkpt lat="9.0750883" lon="-75.8226101"><ele>6.999999999999999</ele><time>2026-04-18T11:33:03.691Z</time></trkpt><trkpt lat="9.0751814" lon="-75.8225942"><ele>6.999999999999999</ele><time>2026-04-18T11:33:04.691Z</time></trkpt><trkpt lat="9.075274" lon="-75.8225785"><ele>7.0</ele><time>2026-04-18T11:33:05.692Z</time></trkpt><trkpt lat="9.0753659" lon="-75.8225607"><ele>7.0</ele><time>2026-04-18T11:33:06.692Z</time></trkpt><trkpt lat="9.0754624" lon="-75.8225439"><ele>7.0</ele><time>2026-04-18T11:33:07.691Z</time></trkpt><trkpt lat="9.07555" lon="-75.8225276"><ele>6.999999999999999</ele><time>2026-04-18T11:33:08.69Z</time></trkpt><trkpt lat="9.0756406" lon="-75.8225104"><ele>6.999999999999999</ele><time>2026-04-18T11:33:09.69Z</time></trkpt><trkpt lat="9.0757328" lon="-75.8224946"><ele>7.0</ele><time>2026-04-18T11:33:10.691Z</time></trkpt><trkpt lat="9.0758225" lon="-75.8224831"><ele>7.0</ele><time>2026-04-18T11:33:11.69Z</time></trkpt><trkpt lat="9.0759139" lon="-75.8224652"><ele>7.199999999999999</ele><time>2026-04-18T11:33:12.691Z</time></trkpt><trkpt lat="9.0760038" lon="-75.8224503"><ele>7.3999999999999995</ele><time>2026-04-18T11:33:13.692Z</time></trkpt><trkpt lat="9.0760934" lon="-75.822433"><ele>7.6000000000000005</ele><time>2026-04-18T11:33:14.69Z</time></trkpt><trkpt lat="9.0761846" lon="-75.8224148"><ele>7.800000000000001</ele><time>2026-04-18T11:33:15.69Z</time></trkpt><trkpt lat="9.0762765" lon="-75.8223954"><ele>8.0</ele><time>2026-04-18T11:33:16.691Z</time></trkpt><trkpt lat="9.0763632" lon="-75.8223736"><ele>8.0</ele><time>2026-04-18T11:33:17.692Z</time></trkpt><trkpt lat="9.0764493" lon="-75.8223554"><ele>8.0</ele><time>2026-04-18T11:33:18.691Z</time></trkpt><trkpt lat="9.0765444" lon="-75.8223387"><ele>8.0</ele><time>2026-04-18T11:33:19.691Z</time></trkpt><trkpt lat="9.0766302" lon="-75.8223177"><ele>8.0</ele><time>2026-04-18T11:33:20.69Z</time></trkpt><trkpt lat="9.0767188" lon="-75.8223036"><ele>8.0</ele><time>2026-04-18T11:33:21.691Z</time></trkpt><trkpt lat="9.0768101" lon="-75.8222893"><ele>7.999999999999999</ele><time>2026-04-18T11:33:22.691Z</time></trkpt><trkpt lat="9.0768993" lon="-75.8222734"><ele>8.0</ele><time>2026-04-18T11:33:23.692Z</time></trkpt><trkpt lat="9.0769877" lon="-75.8222551"><ele>8.0</ele><time>2026-04-18T11:33:24.691Z</time></trkpt><trkpt lat="9.0770751" lon="-75.8222433"><ele>8.0</ele><time>2026-04-18T11:33:25.691Z</time></trkpt><trkpt lat="9.0771632" lon="-75.8222248"><ele>7.999999999999999</ele><time>2026-04-18T11:33:26.692Z</time></trkpt><trkpt lat="9.077248" lon="-75.8222087"><ele>8.0</ele><time>2026-04-18T11:33:27.691Z</time></trkpt><trkpt lat="9.0773363" lon="-75.822188"><ele>8.0</ele><time>2026-04-18T11:33:28.691Z</time></trkpt><trkpt lat="9.0774285" lon="-75.8221739"><ele>8.0</ele><time>2026-04-18T11:33:29.691Z</time></trkpt><trkpt lat="9.0775177" lon="-75.8221603"><ele>8.0</ele><time>2026-04-18T11:33:30.691Z</time></trkpt><trkpt lat="9.0776019" lon="-75.8221438"><ele>8.0</ele><time>2026-04-18T11:33:31.692Z</time></trkpt><trkpt lat="9.0776889" lon="-75.8221281"><ele>8.0</ele><time>2026-04-18T11:33:32.691Z</time></trkpt><trkpt lat="9.0777797" lon="-75.8221115"><ele>7.999999999999999</ele><time>2026-04-18T11:33:33.69Z</time></trkpt><trkpt lat="9.0778661" lon="-75.8220939"><ele>8.0</ele><time>2026-04-18T11:33:34.691Z</time></trkpt><trkpt lat="9.0779514" lon="-75.8220795"><ele>8.0</ele><time>2026-04-18T11:33:35.692Z</time></trkpt><trkpt lat="9.0780397" lon="-75.822064"><ele>8.0</ele><time>2026-04-18T11:33:36.691Z</time></trkpt><trkpt lat="9.0781292" lon="-75.8220486"><ele>7.999999999999999</ele><time>2026-04-18T11:33:37.69Z</time></trkpt><trkpt lat="9.0782169" lon="-75.8220321"><ele>8.0</ele><time>2026-04-18T11:33:38.691Z</time></trkpt><trkpt lat="9.0783046" lon="-75.8220142"><ele>7.999999999999999</ele><time>2026-04-18T11:33:39.691Z</time></trkpt><trkpt lat="9.0783895" lon="-75.8219979"><ele>8.0</ele><time>2026-04-18T11:33:40.691Z</time></trkpt><trkpt lat="9.0784751" lon="-75.8219839"><ele>8.0</ele><time>2026-04-18T11:33:41.691Z</time></trkpt><trkpt lat="9.0785633" lon="-75.821968"><ele>8.0</ele><time>2026-04-18T11:33:42.691Z</time></trkpt><trkpt lat="9.0786483" lon="-75.8219526"><ele>7.999999999999999</ele><time>2026-04-18T11:33:43.691Z</time></trkpt><trkpt lat="9.0787365" lon="-75.8219361"><ele>8.0</ele><time>2026-04-18T11:33:44.691Z</time></trkpt><trkpt lat="9.0788255" lon="-75.821926"><ele>7.999999999999999</ele><time>2026-04-18T11:33:45.691Z</time></trkpt><trkpt lat="9.0789124" lon="-75.821907"><ele>8.0</ele><time>2026-04-18T11:33:46.691Z</time></trkpt><trkpt lat="9.0790036" lon="-75.8218971"><ele>8.0</ele><time>2026-04-18T11:33:47.691Z</time></trkpt><trkpt lat="9.0790876" lon="-75.8218821"><ele>8.0</ele><time>2026-04-18T11:33:48.691Z</time></trkpt><trkpt lat="9.0791734" lon="-75.8218658"><ele>7.999999999999999</ele><time>2026-04-18T11:33:49.691Z</time></trkpt><trkpt lat="9.0792596" lon="-75.8218556"><ele>8.0</ele><time>2026-04-18T11:33:50.691Z</time></trkpt><trkpt lat="9.0793427" lon="-75.8218366"><ele>8.166666666666666</ele><time>2026-04-18T11:33:51.69Z</time></trkpt><trkpt lat="9.0794291" lon="-75.8218184"><ele>8.333333333333332</ele><time>2026-04-18T11:33:52.691Z</time></trkpt><trkpt lat="9.0795167" lon="-75.8218037"><ele>8.5</ele><time>2026-04-18T11:33:53.691Z</time></trkpt><trkpt lat="9.0796035" lon="-75.8217903"><ele>8.666666666666666</ele><time>2026-04-18T11:33:54.69Z</time></trkpt><trkpt lat="9.0796872" lon="-75.8217724"><ele>8.833333333333334</ele><time>2026-04-18T11:33:55.691Z</time></trkpt><trkpt lat="9.0797744" lon="-75.8217574"><ele>9.0</ele><time>2026-04-18T11:33:56.691Z</time></trkpt><trkpt lat="9.0798657" lon="-75.8217426"><ele>8.333333333333334</ele><time>2026-04-18T11:33:57.691Z</time></trkpt><trkpt lat="9.0799546" lon="-75.8217235"><ele>7.666666666666667</ele><time>2026-04-18T11:33:58.691Z</time></trkpt><trkpt lat="9.0800415" lon="-75.821706"><ele>7.0</ele><time>2026-04-18T11:33:59.691Z</time></trkpt><trkpt lat="9.0801331" lon="-75.8216884"><ele>6.333333333333334</ele><time>2026-04-18T11:34:00.691Z</time></trkpt><trkpt lat="9.0802204" lon="-75.8216697"><ele>5.666666666666667</ele><time>2026-04-18T11:34:01.689Z</time></trkpt><trkpt lat="9.0803054" lon="-75.8216573"><ele>5.0</ele><time>2026-04-18T11:34:02.692Z</time></trkpt><trkpt lat="9.0803956" lon="-75.8216448"><ele>5.0</ele><time>2026-04-18T11:34:03.69Z</time></trkpt><trkpt lat="9.0804871" lon="-75.8216368"><ele>5.0</ele><time>2026-04-18T11:34:04.691Z</time></trkpt><trkpt lat="9.0805756" lon="-75.8216196"><ele>5.0</ele><time>2026-04-18T11:34:05.69Z</time></trkpt><trkpt lat="9.080661" lon="-75.8216014"><ele>5.0</ele><time>2026-04-18T11:34:06.692Z</time></trkpt><trkpt lat="9.0807473" lon="-75.82159"><ele>5.0</ele><time>2026-04-18T11:34:07.691Z</time></trkpt><trkpt lat="9.0808345" lon="-75.8215692"><ele>5.0</ele><time>2026-04-18T11:34:08.69Z</time></trkpt><trkpt lat="9.08092" lon="-75.8215536"><ele>5.333333333333334</ele><time>2026-04-18T11:34:09.691Z</time></trkpt><trkpt lat="9.0810037" lon="-75.8215375"><ele>5.666666666666667</ele><time>2026-04-18T11:34:10.692Z</time></trkpt><trkpt lat="9.0810936" lon="-75.8215237"><ele>6.0</ele><time>2026-04-18T11:34:11.691Z</time></trkpt><trkpt lat="9.0811807" lon="-75.8215093"><ele>6.333333333333334</ele><time>2026-04-18T11:34:12.691Z</time></trkpt><trkpt lat="9.0812672" lon="-75.8214937"><ele>6.666666666666667</ele><time>2026-04-18T11:34:13.691Z</time></trkpt><trkpt lat="9.0813505" lon="-75.821479"><ele>7.0</ele><time>2026-04-18T11:34:14.69Z</time></trkpt><trkpt lat="9.0814368" lon="-75.8214609"><ele>7.000000000000001</ele><time>2026-04-18T11:34:15.689Z</time></trkpt><trkpt lat="9.0815248" lon="-75.8214493"><ele>7.0</ele><time>2026-04-18T11:34:16.691Z</time></trkpt><trkpt lat="9.0816108" lon="-75.8214319"><ele>7.0</ele><time>2026-04-18T11:34:17.69Z</time></trkpt><trkpt lat="9.0816991" lon="-75.8214191"><ele>7.0</ele><time>2026-04-18T11:34:18.691Z</time></trkpt><trkpt lat="9.0817825" lon="-75.8214032"><ele>7.000000000000001</ele><time>2026-04-18T11:34:19.691Z</time></trkpt><trkpt lat="9.0818731" lon="-75.8213917"><ele>7.0</ele><time>2026-04-18T11:34:20.69Z</time></trkpt><trkpt lat="9.0819612" lon="-75.8213763"><ele>6.833333333333334</ele><time>2026-04-18T11:34:21.691Z</time></trkpt><trkpt lat="9.0820492" lon="-75.8213611"><ele>6.666666666666667</ele><time>2026-04-18T11:34:22.69Z</time></trkpt><trkpt lat="9.0821403" lon="-75.8213474"><ele>6.5</ele><time>2026-04-18T11:34:23.691Z</time></trkpt><trkpt lat="9.0822265" lon="-75.8213319"><ele>6.333333333333334</ele><time>2026-04-18T11:34:24.69Z</time></trkpt><trkpt lat="9.0823128" lon="-75.8213161"><ele>6.166666666666667</ele><time>2026-04-18T11:34:25.691Z</time></trkpt><trkpt lat="9.0823998" lon="-75.821301"><ele>6.0</ele><time>2026-04-18T11:34:26.691Z</time></trkpt><trkpt lat="9.0824865" lon="-75.821286"><ele>6.5</ele><time>2026-04-18T11:34:27.692Z</time></trkpt><trkpt lat="9.0825715" lon="-75.8212706"><ele>7.0</ele><time>2026-04-18T11:34:28.692Z</time></trkpt><trkpt lat="9.0826587" lon="-75.8212591"><ele>7.5</ele><time>2026-04-18T11:34:29.69Z</time></trkpt><trkpt lat="9.0827422" lon="-75.8212419"><ele>8.0</ele><time>2026-04-18T11:34:30.691Z</time></trkpt><trkpt lat="9.082828" lon="-75.8212256"><ele>8.5</ele><time>2026-04-18T11:34:31.691Z</time></trkpt><trkpt lat="9.0829142" lon="-75.8212072"><ele>9.0</ele><time>2026-04-18T11:34:32.691Z</time></trkpt><trkpt lat="9.0829997" lon="-75.8211907"><ele>9.0</ele><time>2026-04-18T11:34:33.69Z</time></trkpt><trkpt lat="9.0830864" lon="-75.8211727"><ele>9.0</ele><time>2026-04-18T11:34:34.691Z</time></trkpt><trkpt lat="9.083171" lon="-75.8211499"><ele>9.0</ele><time>2026-04-18T11:34:35.691Z</time></trkpt><trkpt lat="9.0832537" lon="-75.8211233"><ele>9.0</ele><time>2026-04-18T11:34:36.691Z</time></trkpt><trkpt lat="9.0833394" lon="-75.8211007"><ele>9.0</ele><time>2026-04-18T11:34:37.691Z</time></trkpt><trkpt lat="9.0834237" lon="-75.8210729"><ele>9.0</ele><time>2026-04-18T11:34:38.69Z</time></trkpt><trkpt lat="9.0835084" lon="-75.8210437"><ele>8.833333333333334</ele><time>2026-04-18T11:34:39.691Z</time></trkpt><trkpt lat="9.0835918" lon="-75.8210139"><ele>8.666666666666666</ele><time>2026-04-18T11:34:40.691Z</time></trkpt><trkpt lat="9.0836721" lon="-75.8209799"><ele>8.5</ele><time>2026-04-18T11:34:41.692Z</time></trkpt><trkpt lat="9.0837481" lon="-75.820946"><ele>8.333333333333332</ele><time>2026-04-18T11:34:42.69Z</time></trkpt><trkpt lat="9.0838279" lon="-75.8209068"><ele>8.166666666666666</ele><time>2026-04-18T11:34:43.691Z</time></trkpt><trkpt lat="9.0839004" lon="-75.8208677"><ele>8.0</ele><time>2026-04-18T11:34:44.691Z</time></trkpt><trkpt lat="9.0839763" lon="-75.82083"><ele>7.999999999999999</ele><time>2026-04-18T11:34:45.69Z</time></trkpt><trkpt lat="9.0840534" lon="-75.8207896"><ele>8.0</ele><time>2026-04-18T11:34:46.691Z</time></trkpt><trkpt lat="9.084127" lon="-75.8207506"><ele>8.0</ele><time>2026-04-18T11:34:47.691Z</time></trkpt><trkpt lat="9.0842023" lon="-75.8207123"><ele>8.0</ele><time>2026-04-18T11:34:48.69Z</time></trkpt><trkpt lat="9.0842768" lon="-75.8206743"><ele>7.999999999999999</ele><time>2026-04-18T11:34:49.691Z</time></trkpt><trkpt lat="9.0843488" lon="-75.8206325"><ele>8.0</ele><time>2026-04-18T11:34:50.69Z</time></trkpt><trkpt lat="9.0844208" lon="-75.8205912"><ele>7.999999999999999</ele><time>2026-04-18T11:34:51.692Z</time></trkpt><trkpt lat="9.084495" lon="-75.8205525"><ele>8.0</ele><time>2026-04-18T11:34:52.69Z</time></trkpt><trkpt lat="9.0845711" lon="-75.8205156"><ele>8.0</ele><time>2026-04-18T11:34:53.691Z</time></trkpt><trkpt lat="9.0846434" lon="-75.8204792"><ele>8.0</ele><time>2026-04-18T11:34:54.69Z</time></trkpt><trkpt lat="9.0847216" lon="-75.8204446"><ele>7.999999999999999</ele><time>2026-04-18T11:34:55.691Z</time></trkpt><trkpt lat="9.084803" lon="-75.8204152"><ele>8.0</ele><time>2026-04-18T11:34:56.691Z</time></trkpt><trkpt lat="9.0848844" lon="-75.8203854"><ele>7.999999999999999</ele><time>2026-04-18T11:34:57.69Z</time></trkpt><trkpt lat="9.0849669" lon="-75.8203574"><ele>8.0</ele><time>2026-04-18T11:34:58.691Z</time></trkpt><trkpt lat="9.0850464" lon="-75.8203314"><ele>8.0</ele><time>2026-04-18T11:34:59.691Z</time></trkpt><trkpt lat="9.0851285" lon="-75.820307"><ele>8.0</ele><time>2026-04-18T11:35:00.69Z</time></trkpt><trkpt lat="9.0852128" lon="-75.8202864"><ele>7.999999999999999</ele><time>2026-04-18T11:35:01.691Z</time></trkpt><trkpt lat="9.0852983" lon="-75.8202684"><ele>8.0</ele><time>2026-04-18T11:35:02.69Z</time></trkpt><trkpt lat="9.0853836" lon="-75.8202518"><ele>7.999999999999999</ele><time>2026-04-18T11:35:03.69Z</time></trkpt><trkpt lat="9.0854689" lon="-75.8202345"><ele>8.0</ele><time>2026-04-18T11:35:04.691Z</time></trkpt><trkpt lat="9.0855532" lon="-75.8202132"><ele>8.0</ele><time>2026-04-18T11:35:05.69Z</time></trkpt><trkpt lat="9.0856352" lon="-75.820197"><ele>8.0</ele><time>2026-04-18T11:35:06.691Z</time></trkpt><trkpt lat="9.0857228" lon="-75.8201814"><ele>7.999999999999999</ele><time>2026-04-18T11:35:07.691Z</time></trkpt><trkpt lat="9.0858108" lon="-75.8201688"><ele>8.0</ele><time>2026-04-18T11:35:08.69Z</time></trkpt><trkpt lat="9.0858962" lon="-75.8201552"><ele>7.999999999999999</ele><time>2026-04-18T11:35:09.69Z</time></trkpt><trkpt lat="9.0859783" lon="-75.8201349"><ele>8.0</ele><time>2026-04-18T11:35:10.691Z</time></trkpt><trkpt lat="9.0860642" lon="-75.8201183"><ele>8.0</ele><time>2026-04-18T11:35:11.69Z</time></trkpt><trkpt lat="9.0861444" lon="-75.8200979"><ele>8.0</ele><time>2026-04-18T11:35:12.691Z</time></trkpt><trkpt lat="9.0862296" lon="-75.8200787"><ele>7.999999999999999</ele><time>2026-04-18T11:35:13.691Z</time></trkpt><trkpt lat="9.0863141" lon="-75.8200679"><ele>8.0</ele><time>2026-04-18T11:35:14.691Z</time></trkpt><trkpt lat="9.0864001" lon="-75.8200525"><ele>7.999999999999999</ele><time>2026-04-18T11:35:15.689Z</time></trkpt><trkpt lat="9.0864899" lon="-75.8200405"><ele>8.0</ele><time>2026-04-18T11:35:16.69Z</time></trkpt><trkpt lat="9.0865744" lon="-75.8200217"><ele>8.0</ele><time>2026-04-18T11:35:17.689Z</time></trkpt><trkpt lat="9.0866651" lon="-75.8200088"><ele>8.0</ele><time>2026-04-18T11:35:18.691Z</time></trkpt><trkpt lat="9.0867508" lon="-75.8199907"><ele>7.999999999999999</ele><time>2026-04-18T11:35:19.69Z</time></trkpt><trkpt lat="9.0868375" lon="-75.8199789"><ele>8.0</ele><time>2026-04-18T11:35:20.69Z</time></trkpt><trkpt lat="9.0869283" lon="-75.8199703"><ele>7.833333333333333</ele><time>2026-04-18T11:35:21.691Z</time></trkpt><trkpt lat="9.0870158" lon="-75.8199592"><ele>7.666666666666666</ele><time>2026-04-18T11:35:22.69Z</time></trkpt><trkpt lat="9.0871051" lon="-75.8199517"><ele>7.5</ele><time>2026-04-18T11:35:23.69Z</time></trkpt><trkpt lat="9.0871901" lon="-75.8199455"><ele>7.333333333333334</ele><time>2026-04-18T11:35:24.69Z</time></trkpt><trkpt lat="9.0872721" lon="-75.8199344"><ele>7.166666666666667</ele><time>2026-04-18T11:35:25.69Z</time></trkpt><trkpt lat="9.0873639" lon="-75.8199317"><ele>7.0</ele><time>2026-04-18T11:35:26.691Z</time></trkpt><trkpt lat="9.0874511" lon="-75.8199274"><ele>6.833333333333334</ele><time>2026-04-18T11:35:27.691Z</time></trkpt><trkpt lat="9.0875397" lon="-75.8199285"><ele>6.666666666666667</ele><time>2026-04-18T11:35:28.69Z</time></trkpt><trkpt lat="9.0876295" lon="-75.8199314"><ele>6.5</ele><time>2026-04-18T11:35:29.69Z</time></trkpt><trkpt lat="9.0877141" lon="-75.819933"><ele>6.333333333333334</ele><time>2026-04-18T11:35:30.69Z</time></trkpt><trkpt lat="9.0878045" lon="-75.8199362"><ele>6.166666666666667</ele><time>2026-04-18T11:35:31.691Z</time></trkpt><trkpt lat="9.0878928" lon="-75.8199491"><ele>6.0</ele><time>2026-04-18T11:35:32.69Z</time></trkpt><trkpt lat="9.0879799" lon="-75.8199579"><ele>6.0</ele><time>2026-04-18T11:35:33.691Z</time></trkpt><trkpt lat="9.0880694" lon="-75.8199698"><ele>6.0</ele><time>2026-04-18T11:35:34.691Z</time></trkpt><trkpt lat="9.08816" lon="-75.8199806"><ele>6.0</ele><time>2026-04-18T11:35:35.69Z</time></trkpt><trkpt lat="9.0882506" lon="-75.8199903"><ele>6.0</ele><time>2026-04-18T11:35:36.691Z</time></trkpt><trkpt lat="9.0883416" lon="-75.8199986"><ele>6.0</ele><time>2026-04-18T11:35:37.691Z</time></trkpt><trkpt lat="9.0884298" lon="-75.8200079"><ele>6.333333333333333</ele><time>2026-04-18T11:35:38.689Z</time></trkpt><trkpt lat="9.0885171" lon="-75.820012"><ele>6.666666666666666</ele><time>2026-04-18T11:35:39.691Z</time></trkpt><trkpt lat="9.0886023" lon="-75.8200182"><ele>7.0</ele><time>2026-04-18T11:35:40.691Z</time></trkpt><trkpt lat="9.0886847" lon="-75.8200227"><ele>7.333333333333333</ele><time>2026-04-18T11:35:41.691Z</time></trkpt><trkpt lat="9.0887658" lon="-75.8200266"><ele>7.666666666666666</ele><time>2026-04-18T11:35:42.69Z</time></trkpt><trkpt lat="9.0888499" lon="-75.8200261"><ele>8.0</ele><time>2026-04-18T11:35:43.691Z</time></trkpt><trkpt lat="9.0889311" lon="-75.820029"><ele>7.999999999999999</ele><time>2026-04-18T11:35:44.69Z</time></trkpt><trkpt lat="9.0890084" lon="-75.8200214"><ele>8.0</ele><time>2026-04-18T11:35:45.69Z</time></trkpt><trkpt lat="9.0890878" lon="-75.820019"><ele>8.0</ele><time>2026-04-18T11:35:46.691Z</time></trkpt><trkpt lat="9.0891648" lon="-75.8200125"><ele>8.0</ele><time>2026-04-18T11:35:47.69Z</time></trkpt><trkpt lat="9.0892432" lon="-75.8199991"><ele>7.999999999999999</ele><time>2026-04-18T11:35:48.69Z</time></trkpt><trkpt lat="9.0893244" lon="-75.8199808"><ele>8.0</ele><time>2026-04-18T11:35:49.691Z</time></trkpt><trkpt lat="9.089407" lon="-75.8199662"><ele>7.7142857142857135</ele><time>2026-04-18T11:35:50.69Z</time></trkpt><trkpt lat="9.0894878" lon="-75.8199534"><ele>7.428571428571428</ele><time>2026-04-18T11:35:51.69Z</time></trkpt><trkpt lat="9.0895635" lon="-75.8199359"><ele>7.142857142857142</ele><time>2026-04-18T11:35:52.691Z</time></trkpt><trkpt lat="9.0896396" lon="-75.8199185"><ele>6.857142857142857</ele><time>2026-04-18T11:35:53.691Z</time></trkpt><trkpt lat="9.0897138" lon="-75.8199033"><ele>6.571428571428571</ele><time>2026-04-18T11:35:54.69Z</time></trkpt><trkpt lat="9.0897784" lon="-75.8198863"><ele>6.285714285714285</ele><time>2026-04-18T11:35:55.69Z</time></trkpt><trkpt lat="9.0898416" lon="-75.8198728"><ele>6.0</ele><time>2026-04-18T11:35:56.69Z</time></trkpt><trkpt lat="9.0899093" lon="-75.8198636"><ele>5.666666666666667</ele><time>2026-04-18T11:35:57.691Z</time></trkpt><trkpt lat="9.0899776" lon="-75.8198501"><ele>5.333333333333333</ele><time>2026-04-18T11:35:58.691Z</time></trkpt><trkpt lat="9.090041" lon="-75.8198336"><ele>5.0</ele><time>2026-04-18T11:35:59.69Z</time></trkpt><trkpt lat="9.090103" lon="-75.8198211"><ele>4.666666666666666</ele><time>2026-04-18T11:36:00.69Z</time></trkpt><trkpt lat="9.0902178" lon="-75.8197964"><ele>4.333333333333333</ele><time>2026-04-18T11:36:02.692Z</time></trkpt><trkpt lat="9.0903258" lon="-75.8197707"><ele>4.0</ele><time>2026-04-18T11:36:04.691Z</time></trkpt><trkpt lat="9.0904131" lon="-75.8197528"><ele>3.9999999999999996</ele><time>2026-04-18T11:36:06.691Z</time></trkpt><trkpt lat="9.0904987" lon="-75.8197327"><ele>4.0</ele><time>2026-04-18T11:36:09.69Z</time></trkpt><trkpt lat="9.0905641" lon="-75.8197194"><ele>4.0</ele><time>2026-04-18T11:36:12.689Z</time></trkpt><trkpt lat="9.0906314" lon="-75.819709"><ele>4.0</ele><time>2026-04-18T11:36:15.691Z</time></trkpt><trkpt lat="9.0907018" lon="-75.8197117"><ele>3.9999999999999996</ele><time>2026-04-18T11:36:18.691Z</time></trkpt><trkpt lat="9.0907747" lon="-75.8197055"><ele>4.0</ele><time>2026-04-18T11:36:20.69Z</time></trkpt><trkpt lat="9.0908686" lon="-75.8196909"><ele>3.9999999999999996</ele><time>2026-04-18T11:36:22.69Z</time></trkpt><trkpt lat="9.0909681" lon="-75.8196733"><ele>4.0</ele><time>2026-04-18T11:36:24.691Z</time></trkpt><trkpt lat="9.0910831" lon="-75.8196576"><ele>4.0</ele><time>2026-04-18T11:36:26.69Z</time></trkpt><trkpt lat="9.0911462" lon="-75.8196509"><ele>4.0</ele><time>2026-04-18T11:36:27.69Z</time></trkpt><trkpt lat="9.091213" lon="-75.819643"><ele>3.9999999999999996</ele><time>2026-04-18T11:36:28.69Z</time></trkpt><trkpt lat="9.0912775" lon="-75.8196319"><ele>4.0</ele><time>2026-04-18T11:36:29.69Z</time></trkpt><trkpt lat="9.0913493" lon="-75.8196221"><ele>3.9999999999999996</ele><time>2026-04-18T11:36:30.691Z</time></trkpt><trkpt lat="9.091418" lon="-75.8196088"><ele>4.0</ele><time>2026-04-18T11:36:31.69Z</time></trkpt><trkpt lat="9.0914952" lon="-75.8195946"><ele>4.0</ele><time>2026-04-18T11:36:32.69Z</time></trkpt><trkpt lat="9.0915703" lon="-75.8195818"><ele>4.0</ele><time>2026-04-18T11:36:33.69Z</time></trkpt><trkpt lat="9.0916468" lon="-75.8195673"><ele>3.9999999999999996</ele><time>2026-04-18T11:36:34.691Z</time></trkpt><trkpt lat="9.0917241" lon="-75.8195482"><ele>4.0</ele><time>2026-04-18T11:36:35.691Z</time></trkpt><trkpt lat="9.0918057" lon="-75.819527"><ele>4.166666666666666</ele><time>2026-04-18T11:36:36.69Z</time></trkpt><trkpt lat="9.0918911" lon="-75.8195105"><ele>4.333333333333333</ele><time>2026-04-18T11:36:37.69Z</time></trkpt><trkpt lat="9.0919708" lon="-75.8194971"><ele>4.5</ele><time>2026-04-18T11:36:38.691Z</time></trkpt><trkpt lat="9.0920516" lon="-75.8194862"><ele>4.666666666666667</ele><time>2026-04-18T11:36:39.69Z</time></trkpt><trkpt lat="9.0921285" lon="-75.8194674"><ele>4.833333333333334</ele><time>2026-04-18T11:36:40.69Z</time></trkpt><trkpt lat="9.0922102" lon="-75.8194508"><ele>5.0</ele><time>2026-04-18T11:36:41.692Z</time></trkpt><trkpt lat="9.0922931" lon="-75.8194332"><ele>5.0</ele><time>2026-04-18T11:36:42.691Z</time></trkpt><trkpt lat="9.092373" lon="-75.8194161"><ele>5.0</ele><time>2026-04-18T11:36:43.689Z</time></trkpt><trkpt lat="9.0924526" lon="-75.8193962"><ele>5.0</ele><time>2026-04-18T11:36:44.69Z</time></trkpt><trkpt lat="9.0925336" lon="-75.8193809"><ele>5.0</ele><time>2026-04-18T11:36:45.69Z</time></trkpt><trkpt lat="9.0926124" lon="-75.8193542"><ele>5.0</ele><time>2026-04-18T11:36:46.69Z</time></trkpt><trkpt lat="9.0926961" lon="-75.8193265"><ele>5.0</ele><time>2026-04-18T11:36:47.689Z</time></trkpt><trkpt lat="9.0927848" lon="-75.8192987"><ele>4.8</ele><time>2026-04-18T11:36:48.69Z</time></trkpt><trkpt lat="9.0928675" lon="-75.8192732"><ele>4.6</ele><time>2026-04-18T11:36:49.692Z</time></trkpt><trkpt lat="9.0929541" lon="-75.819245"><ele>4.4</ele><time>2026-04-18T11:36:50.691Z</time></trkpt><trkpt lat="9.0930377" lon="-75.8192121"><ele>4.2</ele><time>2026-04-18T11:36:51.691Z</time></trkpt><trkpt lat="9.0931272" lon="-75.8191817"><ele>4.0</ele><time>2026-04-18T11:36:52.691Z</time></trkpt><trkpt lat="9.0932154" lon="-75.8191477"><ele>4.2</ele><time>2026-04-18T11:36:53.691Z</time></trkpt><trkpt lat="9.0933099" lon="-75.819118"><ele>4.4</ele><time>2026-04-18T11:36:54.69Z</time></trkpt><trkpt lat="9.0933992" lon="-75.8190825"><ele>4.6</ele><time>2026-04-18T11:36:55.69Z</time></trkpt><trkpt lat="9.0934962" lon="-75.8190521"><ele>4.8</ele><time>2026-04-18T11:36:56.691Z</time></trkpt><trkpt lat="9.0935836" lon="-75.8190196"><ele>5.0</ele><time>2026-04-18T11:36:57.691Z</time></trkpt><trkpt lat="9.093676" lon="-75.8189885"><ele>5.0</ele><time>2026-04-18T11:36:58.69Z</time></trkpt><trkpt lat="9.0937669" lon="-75.8189591"><ele>5.0</ele><time>2026-04-18T11:36:59.69Z</time></trkpt><trkpt lat="9.0938548" lon="-75.8189339"><ele>5.0</ele><time>2026-04-18T11:37:00.69Z</time></trkpt><trkpt lat="9.0939477" lon="-75.8189087"><ele>5.0</ele><time>2026-04-18T11:37:01.691Z</time></trkpt><trkpt lat="9.094039" lon="-75.8188914"><ele>5.0</ele><time>2026-04-18T11:37:02.691Z</time></trkpt><trkpt lat="9.0941299" lon="-75.8188728"><ele>5.4</ele><time>2026-04-18T11:37:03.691Z</time></trkpt><trkpt lat="9.0942233" lon="-75.8188527"><ele>5.8</ele><time>2026-04-18T11:37:04.69Z</time></trkpt><trkpt lat="9.0943122" lon="-75.8188337"><ele>6.199999999999999</ele><time>2026-04-18T11:37:05.691Z</time></trkpt><trkpt lat="9.0944026" lon="-75.8188179"><ele>6.6</ele><time>2026-04-18T11:37:06.69Z</time></trkpt><trkpt lat="9.0944956" lon="-75.8188064"><ele>7.0</ele><time>2026-04-18T11:37:07.691Z</time></trkpt><trkpt lat="9.094584" lon="-75.8187951"><ele>7.0</ele><time>2026-04-18T11:37:08.692Z</time></trkpt><trkpt lat="9.0946765" lon="-75.8187846"><ele>6.999999999999999</ele><time>2026-04-18T11:37:09.69Z</time></trkpt><trkpt lat="9.0947694" lon="-75.8187778"><ele>6.999999999999999</ele><time>2026-04-18T11:37:10.691Z</time></trkpt><trkpt lat="9.0948638" lon="-75.8187726"><ele>7.0</ele><time>2026-04-18T11:37:11.691Z</time></trkpt><trkpt lat="9.0949594" lon="-75.8187717"><ele>7.0</ele><time>2026-04-18T11:37:12.69Z</time></trkpt><trkpt lat="9.0950548" lon="-75.8187757"><ele>6.6</ele><time>2026-04-18T11:37:13.691Z</time></trkpt><trkpt lat="9.0951508" lon="-75.8187807"><ele>6.199999999999999</ele><time>2026-04-18T11:37:14.69Z</time></trkpt><trkpt lat="9.0952489" lon="-75.8187878"><ele>5.8</ele><time>2026-04-18T11:37:15.69Z</time></trkpt><trkpt lat="9.0953465" lon="-75.8187954"><ele>5.4</ele><time>2026-04-18T11:37:16.69Z</time></trkpt><trkpt lat="9.0954481" lon="-75.8188097"><ele>5.0</ele><time>2026-04-18T11:37:17.691Z</time></trkpt><trkpt lat="9.0955478" lon="-75.8188252"><ele>5.0</ele><time>2026-04-18T11:37:18.69Z</time></trkpt><trkpt lat="9.0956487" lon="-75.8188396"><ele>5.0</ele><time>2026-04-18T11:37:19.69Z</time></trkpt><trkpt lat="9.0957494" lon="-75.8188575"><ele>5.0</ele><time>2026-04-18T11:37:20.69Z</time></trkpt><trkpt lat="9.0958473" lon="-75.8188791"><ele>5.0</ele><time>2026-04-18T11:37:21.691Z</time></trkpt><trkpt lat="9.0959447" lon="-75.8188961"><ele>5.0</ele><time>2026-04-18T11:37:22.69Z</time></trkpt><trkpt lat="9.0960443" lon="-75.818916"><ele>5.4</ele><time>2026-04-18T11:37:23.691Z</time></trkpt><trkpt lat="9.096141" lon="-75.8189374"><ele>5.8</ele><time>2026-04-18T11:37:24.69Z</time></trkpt><trkpt lat="9.0962337" lon="-75.8189575"><ele>6.199999999999999</ele><time>2026-04-18T11:37:25.692Z</time></trkpt><trkpt lat="9.0963297" lon="-75.8189831"><ele>6.6</ele><time>2026-04-18T11:37:26.692Z</time></trkpt><trkpt lat="9.0964224" lon="-75.819005"><ele>7.0</ele><time>2026-04-18T11:37:27.691Z</time></trkpt><trkpt lat="9.0965158" lon="-75.819024"><ele>6.8</ele><time>2026-04-18T11:37:28.69Z</time></trkpt><trkpt lat="9.0966082" lon="-75.8190453"><ele>6.6</ele><time>2026-04-18T11:37:29.691Z</time></trkpt><trkpt lat="9.0967" lon="-75.819065"><ele>6.3999999999999995</ele><time>2026-04-18T11:37:30.691Z</time></trkpt><trkpt lat="9.096798" lon="-75.8190894"><ele>6.199999999999999</ele><time>2026-04-18T11:37:31.69Z</time></trkpt><trkpt lat="9.0968954" lon="-75.8191137"><ele>6.0</ele><time>2026-04-18T11:37:32.69Z</time></trkpt><trkpt lat="9.096995" lon="-75.8191357"><ele>6.0</ele><time>2026-04-18T11:37:33.691Z</time></trkpt><trkpt lat="9.0970961" lon="-75.8191582"><ele>6.0</ele><time>2026-04-18T11:37:34.691Z</time></trkpt><trkpt lat="9.0971945" lon="-75.8191776"><ele>6.0</ele><time>2026-04-18T11:37:35.69Z</time></trkpt><trkpt lat="9.0972938" lon="-75.8191989"><ele>6.0</ele><time>2026-04-18T11:37:36.69Z</time></trkpt><trkpt lat="9.0973917" lon="-75.8192218"><ele>6.0</ele><time>2026-04-18T11:37:37.691Z</time></trkpt><trkpt lat="9.0974926" lon="-75.8192443"><ele>6.0</ele><time>2026-04-18T11:37:38.69Z</time></trkpt><trkpt lat="9.0975925" lon="-75.8192681"><ele>6.0</ele><time>2026-04-18T11:37:39.691Z</time></trkpt><trkpt lat="9.0976928" lon="-75.8192909"><ele>6.0</ele><time>2026-04-18T11:37:40.69Z</time></trkpt><trkpt lat="9.0977914" lon="-75.8193082"><ele>6.0</ele><time>2026-04-18T11:37:41.69Z</time></trkpt><trkpt lat="9.0978958" lon="-75.8193276"><ele>6.0</ele><time>2026-04-18T11:37:42.69Z</time></trkpt><trkpt lat="9.0979968" lon="-75.8193469"><ele>5.8</ele><time>2026-04-18T11:37:43.691Z</time></trkpt><trkpt lat="9.0980971" lon="-75.8193677"><ele>5.6</ele><time>2026-04-18T11:37:44.69Z</time></trkpt><trkpt lat="9.0981966" lon="-75.8193881"><ele>5.4</ele><time>2026-04-18T11:37:45.69Z</time></trkpt><trkpt lat="9.0982962" lon="-75.8194136"><ele>5.2</ele><time>2026-04-18T11:37:46.69Z</time></trkpt><trkpt lat="9.098399" lon="-75.8194347"><ele>5.0</ele><time>2026-04-18T11:37:47.69Z</time></trkpt><trkpt lat="9.0984939" lon="-75.8194546"><ele>5.0</ele><time>2026-04-18T11:37:48.69Z</time></trkpt><trkpt lat="9.0985907" lon="-75.8194822"><ele>5.0</ele><time>2026-04-18T11:37:49.69Z</time></trkpt><trkpt lat="9.0986823" lon="-75.8195053"><ele>5.0</ele><time>2026-04-18T11:37:50.691Z</time></trkpt><trkpt lat="9.0987723" lon="-75.8195231"><ele>5.0</ele><time>2026-04-18T11:37:51.69Z</time></trkpt><trkpt lat="9.0988617" lon="-75.819544"><ele>5.0</ele><time>2026-04-18T11:37:52.69Z</time></trkpt><trkpt lat="9.0989531" lon="-75.8195668"><ele>5.0</ele><time>2026-04-18T11:37:53.69Z</time></trkpt><trkpt lat="9.0990417" lon="-75.8195916"><ele>5.0</ele><time>2026-04-18T11:37:54.69Z</time></trkpt><trkpt lat="9.0991299" lon="-75.8196145"><ele>5.0</ele><time>2026-04-18T11:37:55.692Z</time></trkpt><trkpt lat="9.0992193" lon="-75.8196355"><ele>5.0</ele><time>2026-04-18T11:37:56.69Z</time></trkpt><trkpt lat="9.0993073" lon="-75.8196604"><ele>5.0</ele><time>2026-04-18T11:37:57.691Z</time></trkpt><trkpt lat="9.0993948" lon="-75.8196836"><ele>4.6</ele><time>2026-04-18T11:37:58.69Z</time></trkpt><trkpt lat="9.0994812" lon="-75.8197069"><ele>4.2</ele><time>2026-04-18T11:37:59.69Z</time></trkpt><trkpt lat="9.0995664" lon="-75.819732"><ele>3.8</ele><time>2026-04-18T11:38:00.692Z</time></trkpt><trkpt lat="9.0996562" lon="-75.8197572"><ele>3.4</ele><time>2026-04-18T11:38:01.69Z</time></trkpt><trkpt lat="9.0997446" lon="-75.8197808"><ele>3.0</ele><time>2026-04-18T11:38:02.69Z</time></trkpt><trkpt lat="9.0998336" lon="-75.8198102"><ele>3.2</ele><time>2026-04-18T11:38:03.69Z</time></trkpt><trkpt lat="9.0999215" lon="-75.8198396"><ele>3.4</ele><time>2026-04-18T11:38:04.69Z</time></trkpt><trkpt lat="9.1000167" lon="-75.8198591"><ele>3.6000000000000005</ele><time>2026-04-18T11:38:05.69Z</time></trkpt><trkpt lat="9.1001058" lon="-75.8198861"><ele>3.8000000000000003</ele><time>2026-04-18T11:38:06.691Z</time></trkpt><trkpt lat="9.1001996" lon="-75.8199134"><ele>4.0</ele><time>2026-04-18T11:38:07.69Z</time></trkpt><trkpt lat="9.1002893" lon="-75.8199468"><ele>4.0</ele><time>2026-04-18T11:38:08.69Z</time></trkpt><trkpt lat="9.1003791" lon="-75.8199786"><ele>4.0</ele><time>2026-04-18T11:38:09.691Z</time></trkpt><trkpt lat="9.100467" lon="-75.8200098"><ele>4.0</ele><time>2026-04-18T11:38:10.691Z</time></trkpt><trkpt lat="9.1005556" lon="-75.8200416"><ele>4.0</ele><time>2026-04-18T11:38:11.69Z</time></trkpt><trkpt lat="9.1006457" lon="-75.8200704"><ele>4.0</ele><time>2026-04-18T11:38:12.691Z</time></trkpt><trkpt lat="9.1007393" lon="-75.8201012"><ele>4.0</ele><time>2026-04-18T11:38:13.69Z</time></trkpt><trkpt lat="9.1008277" lon="-75.8201283"><ele>4.0</ele><time>2026-04-18T11:38:14.691Z</time></trkpt><trkpt lat="9.1009184" lon="-75.8201571"><ele>4.0</ele><time>2026-04-18T11:38:15.69Z</time></trkpt><trkpt lat="9.1010098" lon="-75.8201853"><ele>4.0</ele><time>2026-04-18T11:38:16.69Z</time></trkpt><trkpt lat="9.1010999" lon="-75.8202153"><ele>4.0</ele><time>2026-04-18T11:38:17.691Z</time></trkpt><trkpt lat="9.1011955" lon="-75.8202466"><ele>4.2</ele><time>2026-04-18T11:38:18.691Z</time></trkpt><trkpt lat="9.1012883" lon="-75.8202767"><ele>4.4</ele><time>2026-04-18T11:38:19.69Z</time></trkpt><trkpt lat="9.1013769" lon="-75.8203069"><ele>4.6</ele><time>2026-04-18T11:38:20.69Z</time></trkpt><trkpt lat="9.1014678" lon="-75.8203373"><ele>4.8</ele><time>2026-04-18T11:38:21.69Z</time></trkpt><trkpt lat="9.1015565" lon="-75.8203655"><ele>5.0</ele><time>2026-04-18T11:38:22.691Z</time></trkpt><trkpt lat="9.1016436" lon="-75.8203911"><ele>5.0</ele><time>2026-04-18T11:38:23.691Z</time></trkpt><trkpt lat="9.1017308" lon="-75.820419"><ele>5.0</ele><time>2026-04-18T11:38:24.691Z</time></trkpt><trkpt lat="9.1018242" lon="-75.820446"><ele>5.0</ele><time>2026-04-18T11:38:25.692Z</time></trkpt><trkpt lat="9.1019192" lon="-75.8204731"><ele>5.0</ele><time>2026-04-18T11:38:26.69Z</time></trkpt><trkpt lat="9.1020101" lon="-75.8204977"><ele>5.0</ele><time>2026-04-18T11:38:27.691Z</time></trkpt><trkpt lat="9.1021002" lon="-75.8205255"><ele>5.0</ele><time>2026-04-18T11:38:28.69Z</time></trkpt><trkpt lat="9.102191" lon="-75.8205564"><ele>5.0</ele><time>2026-04-18T11:38:29.69Z</time></trkpt><trkpt lat="9.1022798" lon="-75.8205817"><ele>5.0</ele><time>2026-04-18T11:38:30.69Z</time></trkpt><trkpt lat="9.1023666" lon="-75.8206103"><ele>5.0</ele><time>2026-04-18T11:38:31.69Z</time></trkpt><trkpt lat="9.1024544" lon="-75.8206411"><ele>5.0</ele><time>2026-04-18T11:38:32.69Z</time></trkpt><trkpt lat="9.1025423" lon="-75.8206725"><ele>5.0</ele><time>2026-04-18T11:38:33.69Z</time></trkpt><trkpt lat="9.1026284" lon="-75.8207011"><ele>5.0</ele><time>2026-04-18T11:38:34.691Z</time></trkpt><trkpt lat="9.1027162" lon="-75.8207336"><ele>5.0</ele><time>2026-04-18T11:38:35.689Z</time></trkpt><trkpt lat="9.1028055" lon="-75.8207676"><ele>5.0</ele><time>2026-04-18T11:38:36.691Z</time></trkpt><trkpt lat="9.1028958" lon="-75.8207986"><ele>5.0</ele><time>2026-04-18T11:38:37.69Z</time></trkpt><trkpt lat="9.1029858" lon="-75.8208278"><ele>5.0</ele><time>2026-04-18T11:38:38.69Z</time></trkpt><trkpt lat="9.1030771" lon="-75.82086"><ele>5.0</ele><time>2026-04-18T11:38:39.689Z</time></trkpt><trkpt lat="9.1031667" lon="-75.8208909"><ele>5.0</ele><time>2026-04-18T11:38:40.69Z</time></trkpt><trkpt lat="9.1032578" lon="-75.820915"><ele>5.0</ele><time>2026-04-18T11:38:41.69Z</time></trkpt><trkpt lat="9.1033452" lon="-75.8209395"><ele>5.0</ele><time>2026-04-18T11:38:42.69Z</time></trkpt><trkpt lat="9.1034346" lon="-75.8209667"><ele>4.8</ele><time>2026-04-18T11:38:43.691Z</time></trkpt><trkpt lat="9.1035235" lon="-75.8209944"><ele>4.6</ele><time>2026-04-18T11:38:44.69Z</time></trkpt><trkpt lat="9.1036108" lon="-75.8210207"><ele>4.4</ele><time>2026-04-18T11:38:45.69Z</time></trkpt><trkpt lat="9.1036991" lon="-75.8210495"><ele>4.2</ele><time>2026-04-18T11:38:46.69Z</time></trkpt><trkpt lat="9.1037895" lon="-75.8210745"><ele>4.0</ele><time>2026-04-18T11:38:47.69Z</time></trkpt><trkpt lat="9.1038782" lon="-75.8210963"><ele>4.0</ele><time>2026-04-18T11:38:48.691Z</time></trkpt><trkpt lat="9.1039642" lon="-75.8211212"><ele>4.0</ele><time>2026-04-18T11:38:49.69Z</time></trkpt><trkpt lat="9.10405" lon="-75.821152"><ele>4.0</ele><time>2026-04-18T11:38:50.69Z</time></trkpt><trkpt lat="9.1041428" lon="-75.8211796"><ele>4.0</ele><time>2026-04-18T11:38:51.69Z</time></trkpt><trkpt lat="9.104236" lon="-75.8212089"><ele>4.0</ele><time>2026-04-18T11:38:52.692Z</time></trkpt><trkpt lat="9.1043219" lon="-75.8212355"><ele>4.0</ele><time>2026-04-18T11:38:53.69Z</time></trkpt><trkpt lat="9.1044123" lon="-75.8212641"><ele>4.0</ele><time>2026-04-18T11:38:54.69Z</time></trkpt><trkpt lat="9.1044972" lon="-75.8212896"><ele>4.0</ele><time>2026-04-18T11:38:55.691Z</time></trkpt><trkpt lat="9.1045899" lon="-75.821315"><ele>4.0</ele><time>2026-04-18T11:38:56.69Z</time></trkpt><trkpt lat="9.1046807" lon="-75.8213422"><ele>4.0</ele><time>2026-04-18T11:38:57.69Z</time></trkpt><trkpt lat="9.1047724" lon="-75.8213681"><ele>4.0</ele><time>2026-04-18T11:38:58.69Z</time></trkpt><trkpt lat="9.1048649" lon="-75.8213973"><ele>4.0</ele><time>2026-04-18T11:38:59.69Z</time></trkpt><trkpt lat="9.1049568" lon="-75.8214255"><ele>4.0</ele><time>2026-04-18T11:39:00.69Z</time></trkpt><trkpt lat="9.1050469" lon="-75.8214504"><ele>4.0</ele><time>2026-04-18T11:39:01.69Z</time></trkpt><trkpt lat="9.1051398" lon="-75.8214719"><ele>4.0</ele><time>2026-04-18T11:39:02.69Z</time></trkpt><trkpt lat="9.1052304" lon="-75.8214957"><ele>4.2</ele><time>2026-04-18T11:39:03.69Z</time></trkpt><trkpt lat="9.105324" lon="-75.8215218"><ele>4.4</ele><time>2026-04-18T11:39:04.691Z</time></trkpt><trkpt lat="9.1054138" lon="-75.8215489"><ele>4.6</ele><time>2026-04-18T11:39:05.69Z</time></trkpt><trkpt lat="9.1055052" lon="-75.8215791"><ele>4.8</ele><time>2026-04-18T11:39:06.689Z</time></trkpt><trkpt lat="9.1055955" lon="-75.8216027"><ele>5.0</ele><time>2026-04-18T11:39:07.69Z</time></trkpt><trkpt lat="9.1056873" lon="-75.8216239"><ele>5.4</ele><time>2026-04-18T11:39:08.691Z</time></trkpt><trkpt lat="9.1057795" lon="-75.8216519"><ele>5.8</ele><time>2026-04-18T11:39:09.691Z</time></trkpt><trkpt lat="9.1058699" lon="-75.8216768"><ele>6.199999999999999</ele><time>2026-04-18T11:39:10.69Z</time></trkpt><trkpt lat="9.1059585" lon="-75.8216998"><ele>6.6</ele><time>2026-04-18T11:39:11.691Z</time></trkpt><trkpt lat="9.1060491" lon="-75.8217232"><ele>7.0</ele><time>2026-04-18T11:39:12.69Z</time></trkpt><trkpt lat="9.1061377" lon="-75.8217498"><ele>7.0</ele><time>2026-04-18T11:39:13.69Z</time></trkpt><trkpt lat="9.1062282" lon="-75.8217767"><ele>6.999999999999999</ele><time>2026-04-18T11:39:14.69Z</time></trkpt><trkpt lat="9.1063167" lon="-75.821799"><ele>6.999999999999999</ele><time>2026-04-18T11:39:15.69Z</time></trkpt><trkpt lat="9.1064074" lon="-75.8218263"><ele>7.0</ele><time>2026-04-18T11:39:16.69Z</time></trkpt><trkpt lat="9.1065019" lon="-75.821851"><ele>7.0</ele><time>2026-04-18T11:39:17.691Z</time></trkpt><trkpt lat="9.1065936" lon="-75.8218782"><ele>7.3999999999999995</ele><time>2026-04-18T11:39:18.69Z</time></trkpt><trkpt lat="9.1066892" lon="-75.8219048"><ele>7.799999999999999</ele><time>2026-04-18T11:39:19.69Z</time></trkpt><trkpt lat="9.1067835" lon="-75.8219271"><ele>8.2</ele><time>2026-04-18T11:39:20.69Z</time></trkpt><trkpt lat="9.1068796" lon="-75.8219531"><ele>8.6</ele><time>2026-04-18T11:39:21.69Z</time></trkpt><trkpt lat="9.1069665" lon="-75.8219798"><ele>9.0</ele><time>2026-04-18T11:39:22.69Z</time></trkpt><trkpt lat="9.1070548" lon="-75.822003"><ele>9.0</ele><time>2026-04-18T11:39:23.69Z</time></trkpt><trkpt lat="9.107151" lon="-75.8220329"><ele>9.0</ele><time>2026-04-18T11:39:24.69Z</time></trkpt><trkpt lat="9.1072424" lon="-75.8220622"><ele>9.0</ele><time>2026-04-18T11:39:25.69Z</time></trkpt><trkpt lat="9.1073321" lon="-75.8220883"><ele>9.0</ele><time>2026-04-18T11:39:26.69Z</time></trkpt><trkpt lat="9.1074226" lon="-75.822113"><ele>9.0</ele><time>2026-04-18T11:39:27.69Z</time></trkpt><trkpt lat="9.1075124" lon="-75.8221347"><ele>9.0</ele><time>2026-04-18T11:39:28.69Z</time></trkpt><trkpt lat="9.1076058" lon="-75.822163"><ele>9.0</ele><time>2026-04-18T11:39:29.69Z</time></trkpt><trkpt lat="9.1076997" lon="-75.8221927"><ele>9.0</ele><time>2026-04-18T11:39:30.691Z</time></trkpt><trkpt lat="9.1077892" lon="-75.8222171"><ele>9.0</ele><time>2026-04-18T11:39:31.69Z</time></trkpt><trkpt lat="9.1078801" lon="-75.8222442"><ele>9.0</ele><time>2026-04-18T11:39:32.69Z</time></trkpt><trkpt lat="9.107973" lon="-75.8222707"><ele>9.0</ele><time>2026-04-18T11:39:33.69Z</time></trkpt><trkpt lat="9.1080657" lon="-75.8223007"><ele>9.0</ele><time>2026-04-18T11:39:34.69Z</time></trkpt><trkpt lat="9.1081569" lon="-75.822324"><ele>9.0</ele><time>2026-04-18T11:39:35.69Z</time></trkpt><trkpt lat="9.1082431" lon="-75.8223476"><ele>9.0</ele><time>2026-04-18T11:39:36.69Z</time></trkpt><trkpt lat="9.1083303" lon="-75.8223719"><ele>9.0</ele><time>2026-04-18T11:39:37.69Z</time></trkpt><trkpt lat="9.1084138" lon="-75.8223972"><ele>8.4</ele><time>2026-04-18T11:39:38.69Z</time></trkpt><trkpt lat="9.1084994" lon="-75.8224226"><ele>7.800000000000001</ele><time>2026-04-18T11:39:39.691Z</time></trkpt><trkpt lat="9.1085865" lon="-75.8224453"><ele>7.199999999999999</ele><time>2026-04-18T11:39:40.691Z</time></trkpt><trkpt lat="9.1086725" lon="-75.8224685"><ele>6.6</ele><time>2026-04-18T11:39:41.69Z</time></trkpt><trkpt lat="9.1087623" lon="-75.8224972"><ele>6.0</ele><time>2026-04-18T11:39:42.69Z</time></trkpt><trkpt lat="9.1088516" lon="-75.8225213"><ele>6.0</ele><time>2026-04-18T11:39:43.69Z</time></trkpt><trkpt lat="9.1089412" lon="-75.8225489"><ele>6.0</ele><time>2026-04-18T11:39:44.69Z</time></trkpt><trkpt lat="9.1090306" lon="-75.8225761"><ele>6.0</ele><time>2026-04-18T11:39:45.69Z</time></trkpt><trkpt lat="9.1091221" lon="-75.8225982"><ele>6.0</ele><time>2026-04-18T11:39:46.69Z</time></trkpt><trkpt lat="9.1092142" lon="-75.8226286"><ele>6.0</ele><time>2026-04-18T11:39:47.69Z</time></trkpt><trkpt lat="9.1093056" lon="-75.8226531"><ele>5.6</ele><time>2026-04-18T11:39:48.691Z</time></trkpt><trkpt lat="9.1093939" lon="-75.8226748"><ele>5.199999999999999</ele><time>2026-04-18T11:39:49.69Z</time></trkpt><trkpt lat="9.109485" lon="-75.8226973"><ele>4.800000000000001</ele><time>2026-04-18T11:39:50.69Z</time></trkpt><trkpt lat="9.1095761" lon="-75.8227203"><ele>4.4</ele><time>2026-04-18T11:39:51.69Z</time></trkpt><trkpt lat="9.1096662" lon="-75.8227449"><ele>4.0</ele><time>2026-04-18T11:39:52.69Z</time></trkpt><trkpt lat="9.1097556" lon="-75.8227702"><ele>4.0</ele><time>2026-04-18T11:39:53.69Z</time></trkpt><trkpt lat="9.1098423" lon="-75.8227989"><ele>4.0</ele><time>2026-04-18T11:39:54.69Z</time></trkpt><trkpt lat="9.1099295" lon="-75.8228253"><ele>4.0</ele><time>2026-04-18T11:39:55.689Z</time></trkpt><trkpt lat="9.110019" lon="-75.8228541"><ele>4.0</ele><time>2026-04-18T11:39:56.691Z</time></trkpt><trkpt lat="9.1101137" lon="-75.822879"><ele>4.0</ele><time>2026-04-18T11:39:57.691Z</time></trkpt><trkpt lat="9.1102067" lon="-75.8229057"><ele>4.0</ele><time>2026-04-18T11:39:58.69Z</time></trkpt><trkpt lat="9.1102942" lon="-75.82293"><ele>4.0</ele><time>2026-04-18T11:39:59.69Z</time></trkpt><trkpt lat="9.1103788" lon="-75.822951"><ele>4.0</ele><time>2026-04-18T11:40:00.69Z</time></trkpt><trkpt lat="9.1104694" lon="-75.8229809"><ele>4.0</ele><time>2026-04-18T11:40:01.69Z</time></trkpt><trkpt lat="9.1105571" lon="-75.8230059"><ele>4.0</ele><time>2026-04-18T11:40:02.689Z</time></trkpt><trkpt lat="9.1106439" lon="-75.8230303"><ele>4.0</ele><time>2026-04-18T11:40:03.69Z</time></trkpt><trkpt lat="9.1107349" lon="-75.8230596"><ele>4.0</ele><time>2026-04-18T11:40:04.69Z</time></trkpt><trkpt lat="9.1108255" lon="-75.8230893"><ele>4.0</ele><time>2026-04-18T11:40:05.69Z</time></trkpt><trkpt lat="9.1109179" lon="-75.8231188"><ele>4.0</ele><time>2026-04-18T11:40:06.69Z</time></trkpt><trkpt lat="9.1110073" lon="-75.8231463"><ele>4.0</ele><time>2026-04-18T11:40:07.691Z</time></trkpt><trkpt lat="9.1110951" lon="-75.8231699"><ele>3.8000000000000003</ele><time>2026-04-18T11:40:08.69Z</time></trkpt><trkpt lat="9.1111832" lon="-75.8232"><ele>3.6000000000000005</ele><time>2026-04-18T11:40:09.691Z</time></trkpt><trkpt lat="9.1112757" lon="-75.8232269"><ele>3.4</ele><time>2026-04-18T11:40:10.69Z</time></trkpt><trkpt lat="9.1113617" lon="-75.8232527"><ele>3.2</ele><time>2026-04-18T11:40:11.69Z</time></trkpt><trkpt lat="9.1114538" lon="-75.8232795"><ele>3.0</ele><time>2026-04-18T11:40:12.69Z</time></trkpt><trkpt lat="9.1115418" lon="-75.8233056"><ele>3.2</ele><time>2026-04-18T11:40:13.69Z</time></trkpt><trkpt lat="9.1116324" lon="-75.8233328"><ele>3.4</ele><time>2026-04-18T11:40:14.69Z</time></trkpt><trkpt lat="9.1117191" lon="-75.8233636"><ele>3.6000000000000005</ele><time>2026-04-18T11:40:15.69Z</time></trkpt><trkpt lat="9.111809" lon="-75.8233845"><ele>3.8000000000000003</ele><time>2026-04-18T11:40:16.69Z</time></trkpt><trkpt lat="9.1118935" lon="-75.823413"><ele>4.0</ele><time>2026-04-18T11:40:17.69Z</time></trkpt><trkpt lat="9.1119864" lon="-75.8234391"><ele>4.0</ele><time>2026-04-18T11:40:18.69Z</time></trkpt><trkpt lat="9.1120827" lon="-75.8234648"><ele>4.0</ele><time>2026-04-18T11:40:19.691Z</time></trkpt><trkpt lat="9.1121704" lon="-75.8234861"><ele>4.0</ele><time>2026-04-18T11:40:20.69Z</time></trkpt><trkpt lat="9.1122591" lon="-75.8235122"><ele>4.0</ele><time>2026-04-18T11:40:21.69Z</time></trkpt><trkpt lat="9.1123447" lon="-75.8235366"><ele>4.0</ele><time>2026-04-18T11:40:22.69Z</time></trkpt><trkpt lat="9.1124315" lon="-75.8235611"><ele>4.0</ele><time>2026-04-18T11:40:23.691Z</time></trkpt><trkpt lat="9.1125193" lon="-75.8235872"><ele>4.0</ele><time>2026-04-18T11:40:24.69Z</time></trkpt><trkpt lat="9.1126081" lon="-75.8236126"><ele>4.0</ele><time>2026-04-18T11:40:25.69Z</time></trkpt><trkpt lat="9.1126908" lon="-75.8236457"><ele>4.0</ele><time>2026-04-18T11:40:26.69Z</time></trkpt><trkpt lat="9.112778" lon="-75.8236732"><ele>4.0</ele><time>2026-04-18T11:40:27.691Z</time></trkpt><trkpt lat="9.1128637" lon="-75.8237003"><ele>4.0</ele><time>2026-04-18T11:40:28.691Z</time></trkpt><trkpt lat="9.1129494" lon="-75.8237251"><ele>4.0</ele><time>2026-04-18T11:40:29.69Z</time></trkpt><trkpt lat="9.1130399" lon="-75.823751"><ele>4.0</ele><time>2026-04-18T11:40:30.69Z</time></trkpt><trkpt lat="9.1131287" lon="-75.8237758"><ele>4.0</ele><time>2026-04-18T11:40:31.69Z</time></trkpt><trkpt lat="9.1132159" lon="-75.8238012"><ele>4.0</ele><time>2026-04-18T11:40:32.691Z</time></trkpt><trkpt lat="9.1133089" lon="-75.8238233"><ele>3.8000000000000003</ele><time>2026-04-18T11:40:33.689Z</time></trkpt><trkpt lat="9.1133997" lon="-75.8238508"><ele>3.6000000000000005</ele><time>2026-04-18T11:40:34.69Z</time></trkpt><trkpt lat="9.1134918" lon="-75.8238743"><ele>3.4</ele><time>2026-04-18T11:40:35.69Z</time></trkpt><trkpt lat="9.1135785" lon="-75.823903"><ele>3.2</ele><time>2026-04-18T11:40:36.691Z</time></trkpt><trkpt lat="9.1136674" lon="-75.8239297"><ele>3.0</ele><time>2026-04-18T11:40:37.691Z</time></trkpt><trkpt lat="9.1137578" lon="-75.8239564"><ele>3.0</ele><time>2026-04-18T11:40:38.689Z</time></trkpt><trkpt lat="9.113852" lon="-75.823984"><ele>3.0</ele><time>2026-04-18T11:40:39.69Z</time></trkpt><trkpt lat="9.1139423" lon="-75.8240101"><ele>3.0</ele><time>2026-04-18T11:40:40.689Z</time></trkpt><trkpt lat="9.1140304" lon="-75.8240346"><ele>3.0</ele><time>2026-04-18T11:40:41.69Z</time></trkpt><trkpt lat="9.1141217" lon="-75.824064"><ele>3.0</ele><time>2026-04-18T11:40:42.69Z</time></trkpt><trkpt lat="9.1142139" lon="-75.824092"><ele>3.4</ele><time>2026-04-18T11:40:43.691Z</time></trkpt><trkpt lat="9.1143031" lon="-75.8241187"><ele>3.8</ele><time>2026-04-18T11:40:44.69Z</time></trkpt><trkpt lat="9.1143948" lon="-75.8241465"><ele>4.2</ele><time>2026-04-18T11:40:45.69Z</time></trkpt><trkpt lat="9.1144843" lon="-75.8241706"><ele>4.6</ele><time>2026-04-18T11:40:46.69Z</time></trkpt><trkpt lat="9.114576" lon="-75.8242005"><ele>5.0</ele><time>2026-04-18T11:40:47.689Z</time></trkpt><trkpt lat="9.1146673" lon="-75.8242282"><ele>5.0</ele><time>2026-04-18T11:40:48.69Z</time></trkpt><trkpt lat="9.1147558" lon="-75.8242529"><ele>5.0</ele><time>2026-04-18T11:40:49.69Z</time></trkpt><trkpt lat="9.1148468" lon="-75.8242752"><ele>5.0</ele><time>2026-04-18T11:40:50.689Z</time></trkpt><trkpt lat="9.1149376" lon="-75.8243036"><ele>5.0</ele><time>2026-04-18T11:40:51.69Z</time></trkpt><trkpt lat="9.1150287" lon="-75.8243313"><ele>5.0</ele><time>2026-04-18T11:40:52.69Z</time></trkpt><trkpt lat="9.1151178" lon="-75.8243576"><ele>5.4</ele><time>2026-04-18T11:40:53.69Z</time></trkpt><trkpt lat="9.1152086" lon="-75.8243875"><ele>5.8</ele><time>2026-04-18T11:40:54.69Z</time></trkpt><trkpt lat="9.115297" lon="-75.8244144"><ele>6.199999999999999</ele><time>2026-04-18T11:40:55.69Z</time></trkpt><trkpt lat="9.1153833" lon="-75.8244437"><ele>6.6</ele><time>2026-04-18T11:40:56.691Z</time></trkpt><trkpt lat="9.1154695" lon="-75.8244684"><ele>7.0</ele><time>2026-04-18T11:40:57.69Z</time></trkpt><trkpt lat="9.1155597" lon="-75.8244939"><ele>7.0</ele><time>2026-04-18T11:40:58.69Z</time></trkpt><trkpt lat="9.1156458" lon="-75.8245153"><ele>6.999999999999999</ele><time>2026-04-18T11:40:59.69Z</time></trkpt><trkpt lat="9.1157364" lon="-75.8245413"><ele>6.999999999999999</ele><time>2026-04-18T11:41:00.69Z</time></trkpt><trkpt lat="9.115825" lon="-75.8245662"><ele>7.0</ele><time>2026-04-18T11:41:01.691Z</time></trkpt><trkpt lat="9.1159138" lon="-75.8245925"><ele>7.0</ele><time>2026-04-18T11:41:02.69Z</time></trkpt><trkpt lat="9.1160043" lon="-75.8246156"><ele>7.0</ele><time>2026-04-18T11:41:03.689Z</time></trkpt><trkpt lat="9.1160963" lon="-75.8246421"><ele>6.999999999999999</ele><time>2026-04-18T11:41:04.69Z</time></trkpt><trkpt lat="9.1161863" lon="-75.8246697"><ele>6.999999999999999</ele><time>2026-04-18T11:41:05.69Z</time></trkpt><trkpt lat="9.1162747" lon="-75.8246969"><ele>7.0</ele><time>2026-04-18T11:41:06.69Z</time></trkpt><trkpt lat="9.1163631" lon="-75.8247237"><ele>7.0</ele><time>2026-04-18T11:41:07.689Z</time></trkpt><trkpt lat="9.11645" lon="-75.8247477"><ele>7.0</ele><time>2026-04-18T11:41:08.689Z</time></trkpt><trkpt lat="9.1165387" lon="-75.8247732"><ele>6.999999999999999</ele><time>2026-04-18T11:41:09.69Z</time></trkpt><trkpt lat="9.1166237" lon="-75.8247984"><ele>6.999999999999999</ele><time>2026-04-18T11:41:10.69Z</time></trkpt><trkpt lat="9.1167131" lon="-75.8248256"><ele>7.0</ele><time>2026-04-18T11:41:11.69Z</time></trkpt><trkpt lat="9.1167978" lon="-75.8248489"><ele>7.0</ele><time>2026-04-18T11:41:12.69Z</time></trkpt><trkpt lat="9.1168831" lon="-75.8248758"><ele>6.666666666666667</ele><time>2026-04-18T11:41:13.69Z</time></trkpt><trkpt lat="9.1169669" lon="-75.8249011"><ele>6.333333333333334</ele><time>2026-04-18T11:41:14.691Z</time></trkpt><trkpt lat="9.1170558" lon="-75.8249254"><ele>6.0</ele><time>2026-04-18T11:41:15.69Z</time></trkpt><trkpt lat="9.1171392" lon="-75.824953"><ele>5.666666666666667</ele><time>2026-04-18T11:41:16.69Z</time></trkpt><trkpt lat="9.1172266" lon="-75.82498"><ele>5.333333333333334</ele><time>2026-04-18T11:41:17.69Z</time></trkpt><trkpt lat="9.1173138" lon="-75.8250033"><ele>5.0</ele><time>2026-04-18T11:41:18.691Z</time></trkpt><trkpt lat="9.1173957" lon="-75.825025"><ele>5.0</ele><time>2026-04-18T11:41:19.69Z</time></trkpt><trkpt lat="9.1174819" lon="-75.8250482"><ele>5.0</ele><time>2026-04-18T11:41:20.69Z</time></trkpt><trkpt lat="9.1175691" lon="-75.8250754"><ele>5.0</ele><time>2026-04-18T11:41:21.69Z</time></trkpt><trkpt lat="9.1176553" lon="-75.8250986"><ele>5.0</ele><time>2026-04-18T11:41:22.691Z</time></trkpt><trkpt lat="9.1177452" lon="-75.8251251"><ele>5.0</ele><time>2026-04-18T11:41:23.69Z</time></trkpt><trkpt lat="9.1178325" lon="-75.8251452"><ele>5.0</ele><time>2026-04-18T11:41:24.69Z</time></trkpt><trkpt lat="9.1179185" lon="-75.8251719"><ele>5.0</ele><time>2026-04-18T11:41:25.69Z</time></trkpt><trkpt lat="9.1180083" lon="-75.8252003"><ele>5.0</ele><time>2026-04-18T11:41:26.689Z</time></trkpt><trkpt lat="9.1180969" lon="-75.8252285"><ele>5.0</ele><time>2026-04-18T11:41:27.69Z</time></trkpt><trkpt lat="9.1181864" lon="-75.825255"><ele>5.0</ele><time>2026-04-18T11:41:28.689Z</time></trkpt><trkpt lat="9.1182746" lon="-75.825282"><ele>5.333333333333334</ele><time>2026-04-18T11:41:29.689Z</time></trkpt><trkpt lat="9.1183566" lon="-75.8253088"><ele>5.666666666666667</ele><time>2026-04-18T11:41:30.689Z</time></trkpt><trkpt lat="9.1184425" lon="-75.8253345"><ele>6.0</ele><time>2026-04-18T11:41:31.689Z</time></trkpt><trkpt lat="9.118527" lon="-75.8253586"><ele>6.333333333333334</ele><time>2026-04-18T11:41:32.691Z</time></trkpt><trkpt lat="9.118613" lon="-75.825382"><ele>6.666666666666667</ele><time>2026-04-18T11:41:33.69Z</time></trkpt><trkpt lat="9.1187007" lon="-75.825409"><ele>7.0</ele><time>2026-04-18T11:41:34.69Z</time></trkpt><trkpt lat="9.1187878" lon="-75.825436"><ele>7.0</ele><time>2026-04-18T11:41:35.69Z</time></trkpt><trkpt lat="9.1188798" lon="-75.8254624"><ele>6.999999999999999</ele><time>2026-04-18T11:41:36.689Z</time></trkpt><trkpt lat="9.1189652" lon="-75.8254921"><ele>6.999999999999999</ele><time>2026-04-18T11:41:37.691Z</time></trkpt><trkpt lat="9.1190497" lon="-75.8255199"><ele>7.0</ele><time>2026-04-18T11:41:38.69Z</time></trkpt><trkpt lat="9.1191342" lon="-75.8255496"><ele>7.0</ele><time>2026-04-18T11:41:39.69Z</time></trkpt><trkpt lat="9.1192203" lon="-75.8255778"><ele>6.833333333333334</ele><time>2026-04-18T11:41:40.689Z</time></trkpt><trkpt lat="9.1193059" lon="-75.8256052"><ele>6.666666666666667</ele><time>2026-04-18T11:41:41.689Z</time></trkpt><trkpt lat="9.1193898" lon="-75.8256372"><ele>6.5</ele><time>2026-04-18T11:41:42.69Z</time></trkpt><trkpt lat="9.1194733" lon="-75.8256657"><ele>6.333333333333334</ele><time>2026-04-18T11:41:43.69Z</time></trkpt><trkpt lat="9.1195572" lon="-75.8256932"><ele>6.166666666666667</ele><time>2026-04-18T11:41:44.69Z</time></trkpt><trkpt lat="9.1196417" lon="-75.8257199"><ele>6.0</ele><time>2026-04-18T11:41:45.69Z</time></trkpt><trkpt lat="9.1197292" lon="-75.8257496"><ele>6.0</ele><time>2026-04-18T11:41:46.691Z</time></trkpt><trkpt lat="9.1198201" lon="-75.8257818"><ele>6.0</ele><time>2026-04-18T11:41:47.69Z</time></trkpt><trkpt lat="9.119909" lon="-75.8258119"><ele>6.0</ele><time>2026-04-18T11:41:48.69Z</time></trkpt><trkpt lat="9.1199981" lon="-75.8258489"><ele>6.0</ele><time>2026-04-18T11:41:49.69Z</time></trkpt><trkpt lat="9.1200863" lon="-75.8258812"><ele>6.0</ele><time>2026-04-18T11:41:50.689Z</time></trkpt><trkpt lat="9.1201725" lon="-75.8259128"><ele>6.0</ele><time>2026-04-18T11:41:51.69Z</time></trkpt><trkpt lat="9.1202587" lon="-75.8259445"><ele>6.0</ele><time>2026-04-18T11:41:52.69Z</time></trkpt><trkpt lat="9.1203454" lon="-75.8259753"><ele>6.0</ele><time>2026-04-18T11:41:53.69Z</time></trkpt><trkpt lat="9.1204288" lon="-75.8260078"><ele>6.0</ele><time>2026-04-18T11:41:54.691Z</time></trkpt><trkpt lat="9.120513" lon="-75.8260364"><ele>6.0</ele><time>2026-04-18T11:41:55.69Z</time></trkpt><trkpt lat="9.1205974" lon="-75.8260683"><ele>6.0</ele><time>2026-04-18T11:41:56.691Z</time></trkpt><trkpt lat="9.1206818" lon="-75.8260954"><ele>6.0</ele><time>2026-04-18T11:41:57.69Z</time></trkpt><trkpt lat="9.1207616" lon="-75.8261256"><ele>6.0</ele><time>2026-04-18T11:41:58.691Z</time></trkpt><trkpt lat="9.1208451" lon="-75.8261564"><ele>6.0</ele><time>2026-04-18T11:41:59.69Z</time></trkpt><trkpt lat="9.120929" lon="-75.8261896"><ele>6.0</ele><time>2026-04-18T11:42:00.69Z</time></trkpt><trkpt lat="9.121013" lon="-75.8262209"><ele>6.0</ele><time>2026-04-18T11:42:01.689Z</time></trkpt><trkpt lat="9.1210956" lon="-75.8262528"><ele>5.8</ele><time>2026-04-18T11:42:02.69Z</time></trkpt><trkpt lat="9.1211799" lon="-75.826283"><ele>5.6</ele><time>2026-04-18T11:42:03.689Z</time></trkpt><trkpt lat="9.1212646" lon="-75.8263203"><ele>5.4</ele><time>2026-04-18T11:42:04.69Z</time></trkpt><trkpt lat="9.1213491" lon="-75.8263502"><ele>5.2</ele><time>2026-04-18T11:42:05.69Z</time></trkpt><trkpt lat="9.1214304" lon="-75.8263792"><ele>5.0</ele><time>2026-04-18T11:42:06.689Z</time></trkpt><trkpt lat="9.1215176" lon="-75.8264122"><ele>5.4</ele><time>2026-04-18T11:42:07.689Z</time></trkpt><trkpt lat="9.121603" lon="-75.8264475"><ele>5.8</ele><time>2026-04-18T11:42:08.69Z</time></trkpt><trkpt lat="9.1216869" lon="-75.8264812"><ele>6.199999999999999</ele><time>2026-04-18T11:42:09.689Z</time></trkpt><trkpt lat="9.1217716" lon="-75.8265131"><ele>6.6</ele><time>2026-04-18T11:42:10.69Z</time></trkpt><trkpt lat="9.1218563" lon="-75.8265449"><ele>7.0</ele><time>2026-04-18T11:42:11.69Z</time></trkpt><trkpt lat="9.1219418" lon="-75.8265725"><ele>7.000000000000001</ele><time>2026-04-18T11:42:12.689Z</time></trkpt><trkpt lat="9.1220241" lon="-75.826603"><ele>7.0</ele><time>2026-04-18T11:42:13.69Z</time></trkpt><trkpt lat="9.122108" lon="-75.8266349"><ele>7.0</ele><time>2026-04-18T11:42:14.689Z</time></trkpt><trkpt lat="9.1221905" lon="-75.8266656"><ele>7.0</ele><time>2026-04-18T11:42:15.691Z</time></trkpt><trkpt lat="9.1222733" lon="-75.8266953"><ele>7.000000000000001</ele><time>2026-04-18T11:42:16.689Z</time></trkpt><trkpt lat="9.1223568" lon="-75.8267253"><ele>7.0</ele><time>2026-04-18T11:42:17.69Z</time></trkpt><trkpt lat="9.1224393" lon="-75.8267554"><ele>7.000000000000001</ele><time>2026-04-18T11:42:18.69Z</time></trkpt><trkpt lat="9.1225229" lon="-75.8267836"><ele>7.0</ele><time>2026-04-18T11:42:19.69Z</time></trkpt><trkpt lat="9.1226049" lon="-75.8268142"><ele>7.0</ele><time>2026-04-18T11:42:20.69Z</time></trkpt><trkpt lat="9.1226904" lon="-75.8268464"><ele>7.0</ele><time>2026-04-18T11:42:21.69Z</time></trkpt><trkpt lat="9.122772" lon="-75.8268764"><ele>7.000000000000001</ele><time>2026-04-18T11:42:22.69Z</time></trkpt><trkpt lat="9.1228583" lon="-75.8269102"><ele>7.0</ele><time>2026-04-18T11:42:23.69Z</time></trkpt><trkpt lat="9.1229402" lon="-75.8269448"><ele>7.0</ele><time>2026-04-18T11:42:24.689Z</time></trkpt><trkpt lat="9.1230244" lon="-75.8269762"><ele>6.999999999999999</ele><time>2026-04-18T11:42:25.689Z</time></trkpt><trkpt lat="9.1231089" lon="-75.8270067"><ele>6.999999999999999</ele><time>2026-04-18T11:42:26.69Z</time></trkpt><trkpt lat="9.1231941" lon="-75.8270404"><ele>7.0</ele><time>2026-04-18T11:42:27.691Z</time></trkpt><trkpt lat="9.123277" lon="-75.8270727"><ele>7.0</ele><time>2026-04-18T11:42:28.689Z</time></trkpt><trkpt lat="9.1233613" lon="-75.8271048"><ele>6.666666666666667</ele><time>2026-04-18T11:42:29.69Z</time></trkpt><trkpt lat="9.123441" lon="-75.8271379"><ele>6.333333333333334</ele><time>2026-04-18T11:42:30.69Z</time></trkpt><trkpt lat="9.1235242" lon="-75.8271727"><ele>6.0</ele><time>2026-04-18T11:42:31.69Z</time></trkpt><trkpt lat="9.1236077" lon="-75.8272029"><ele>5.666666666666667</ele><time>2026-04-18T11:42:32.689Z</time></trkpt><trkpt lat="9.1236909" lon="-75.8272341"><ele>5.333333333333334</ele><time>2026-04-18T11:42:33.689Z</time></trkpt><trkpt lat="9.1237732" lon="-75.8272632"><ele>5.0</ele><time>2026-04-18T11:42:34.69Z</time></trkpt><trkpt lat="9.1238573" lon="-75.827292"><ele>5.0</ele><time>2026-04-18T11:42:35.691Z</time></trkpt><trkpt lat="9.1239404" lon="-75.8273265"><ele>5.0</ele><time>2026-04-18T11:42:36.69Z</time></trkpt><trkpt lat="9.1240221" lon="-75.8273586"><ele>5.0</ele><time>2026-04-18T11:42:37.69Z</time></trkpt><trkpt lat="9.1241035" lon="-75.8273936"><ele>5.0</ele><time>2026-04-18T11:42:38.689Z</time></trkpt><trkpt lat="9.1241843" lon="-75.827422"><ele>5.0</ele><time>2026-04-18T11:42:39.689Z</time></trkpt><trkpt lat="9.1242638" lon="-75.8274506"><ele>5.0</ele><time>2026-04-18T11:42:40.689Z</time></trkpt><trkpt lat="9.1243381" lon="-75.8274813"><ele>5.666666666666667</ele><time>2026-04-18T11:42:41.689Z</time></trkpt><trkpt lat="9.124412" lon="-75.827509"><ele>6.333333333333334</ele><time>2026-04-18T11:42:42.689Z</time></trkpt><trkpt lat="9.1244902" lon="-75.8275376"><ele>7.0</ele><time>2026-04-18T11:42:43.689Z</time></trkpt><trkpt lat="9.1245647" lon="-75.8275644"><ele>7.666666666666667</ele><time>2026-04-18T11:42:44.69Z</time></trkpt><trkpt lat="9.1246327" lon="-75.8275901"><ele>8.333333333333334</ele><time>2026-04-18T11:42:45.69Z</time></trkpt><trkpt lat="9.1247008" lon="-75.8276177"><ele>9.0</ele><time>2026-04-18T11:42:46.69Z</time></trkpt><trkpt lat="9.1247725" lon="-75.8276439"><ele>9.000000000000002</ele><time>2026-04-18T11:42:47.691Z</time></trkpt><trkpt lat="9.124842" lon="-75.8276684"><ele>9.0</ele><time>2026-04-18T11:42:48.689Z</time></trkpt><trkpt lat="9.1249067" lon="-75.8276939"><ele>9.0</ele><time>2026-04-18T11:42:49.69Z</time></trkpt><trkpt lat="9.1249712" lon="-75.8277218"><ele>9.0</ele><time>2026-04-18T11:42:50.69Z</time></trkpt><trkpt lat="9.125037" lon="-75.8277442"><ele>9.0</ele><time>2026-04-18T11:42:51.69Z</time></trkpt><trkpt lat="9.1251054" lon="-75.8277636"><ele>9.000000000000002</ele><time>2026-04-18T11:42:52.69Z</time></trkpt><trkpt lat="9.1251784" lon="-75.8277915"><ele>9.0</ele><time>2026-04-18T11:42:53.69Z</time></trkpt><trkpt lat="9.1252507" lon="-75.8278197"><ele>9.166666666666666</ele><time>2026-04-18T11:42:54.689Z</time></trkpt><trkpt lat="9.1253286" lon="-75.8278495"><ele>9.333333333333334</ele><time>2026-04-18T11:42:55.688Z</time></trkpt><trkpt lat="9.1254086" lon="-75.8278835"><ele>9.5</ele><time>2026-04-18T11:42:56.69Z</time></trkpt><trkpt lat="9.1254863" lon="-75.8279135"><ele>9.666666666666668</ele><time>2026-04-18T11:42:57.69Z</time></trkpt><trkpt lat="9.1255646" lon="-75.8279449"><ele>9.833333333333334</ele><time>2026-04-18T11:42:58.689Z</time></trkpt><trkpt lat="9.1256412" lon="-75.8279747"><ele>10.0</ele><time>2026-04-18T11:42:59.689Z</time></trkpt><trkpt lat="9.1257172" lon="-75.8280017"><ele>9.833333333333334</ele><time>2026-04-18T11:43:00.689Z</time></trkpt><trkpt lat="9.1257959" lon="-75.8280297"><ele>9.666666666666668</ele><time>2026-04-18T11:43:01.689Z</time></trkpt><trkpt lat="9.1258749" lon="-75.8280607"><ele>9.5</ele><time>2026-04-18T11:43:02.69Z</time></trkpt><trkpt lat="9.1259541" lon="-75.8280916"><ele>9.333333333333334</ele><time>2026-04-18T11:43:03.69Z</time></trkpt><trkpt lat="9.1260295" lon="-75.8281195"><ele>9.166666666666666</ele><time>2026-04-18T11:43:04.688Z</time></trkpt><trkpt lat="9.1261059" lon="-75.8281487"><ele>9.0</ele><time>2026-04-18T11:43:05.689Z</time></trkpt><trkpt lat="9.1261844" lon="-75.8281817"><ele>9.0</ele><time>2026-04-18T11:43:06.69Z</time></trkpt><trkpt lat="9.1262633" lon="-75.8282122"><ele>9.0</ele><time>2026-04-18T11:43:07.69Z</time></trkpt><trkpt lat="9.1263451" lon="-75.8282407"><ele>9.0</ele><time>2026-04-18T11:43:08.689Z</time></trkpt><trkpt lat="9.1264244" lon="-75.8282672"><ele>9.0</ele><time>2026-04-18T11:43:09.69Z</time></trkpt><trkpt lat="9.1265079" lon="-75.8282967"><ele>9.0</ele><time>2026-04-18T11:43:10.691Z</time></trkpt><trkpt lat="9.1265899" lon="-75.8283274"><ele>9.0</ele><time>2026-04-18T11:43:11.689Z</time></trkpt><trkpt lat="9.1266718" lon="-75.8283595"><ele>9.0</ele><time>2026-04-18T11:43:12.689Z</time></trkpt><trkpt lat="9.1267526" lon="-75.828389"><ele>9.0</ele><time>2026-04-18T11:43:13.689Z</time></trkpt><trkpt lat="9.1268355" lon="-75.8284234"><ele>9.0</ele><time>2026-04-18T11:43:14.69Z</time></trkpt><trkpt lat="9.1269197" lon="-75.8284548"><ele>9.0</ele><time>2026-04-18T11:43:15.689Z</time></trkpt><trkpt lat="9.1270027" lon="-75.8284879"><ele>9.0</ele><time>2026-04-18T11:43:16.69Z</time></trkpt><trkpt lat="9.1270858" lon="-75.828518"><ele>9.0</ele><time>2026-04-18T11:43:17.689Z</time></trkpt><trkpt lat="9.1271686" lon="-75.8285508"><ele>9.0</ele><time>2026-04-18T11:43:18.689Z</time></trkpt><trkpt lat="9.1272491" lon="-75.8285843"><ele>9.0</ele><time>2026-04-18T11:43:19.689Z</time></trkpt><trkpt lat="9.1273304" lon="-75.8286149"><ele>9.0</ele><time>2026-04-18T11:43:20.69Z</time></trkpt><trkpt lat="9.1274113" lon="-75.8286435"><ele>9.0</ele><time>2026-04-18T11:43:21.689Z</time></trkpt><trkpt lat="9.1274928" lon="-75.8286703"><ele>9.0</ele><time>2026-04-18T11:43:22.689Z</time></trkpt><trkpt lat="9.1275748" lon="-75.8286994"><ele>9.0</ele><time>2026-04-18T11:43:23.688Z</time></trkpt><trkpt lat="9.1276546" lon="-75.8287286"><ele>8.666666666666666</ele><time>2026-04-18T11:43:24.689Z</time></trkpt><trkpt lat="9.1277361" lon="-75.8287571"><ele>8.333333333333334</ele><time>2026-04-18T11:43:25.69Z</time></trkpt><trkpt lat="9.1278178" lon="-75.828787"><ele>8.0</ele><time>2026-04-18T11:43:26.689Z</time></trkpt><trkpt lat="9.127901" lon="-75.8288177"><ele>7.666666666666667</ele><time>2026-04-18T11:43:27.689Z</time></trkpt><trkpt lat="9.1279844" lon="-75.8288453"><ele>7.333333333333334</ele><time>2026-04-18T11:43:28.689Z</time></trkpt><trkpt lat="9.1280643" lon="-75.8288792"><ele>7.0</ele><time>2026-04-18T11:43:29.689Z</time></trkpt><trkpt lat="9.1281453" lon="-75.8289117"><ele>7.166666666666667</ele><time>2026-04-18T11:43:30.689Z</time></trkpt><trkpt lat="9.1282272" lon="-75.8289471"><ele>7.333333333333334</ele><time>2026-04-18T11:43:31.689Z</time></trkpt><trkpt lat="9.1283094" lon="-75.8289811"><ele>7.5</ele><time>2026-04-18T11:43:32.689Z</time></trkpt><trkpt lat="9.1283912" lon="-75.8290145"><ele>7.666666666666666</ele><time>2026-04-18T11:43:33.689Z</time></trkpt><trkpt lat="9.1284721" lon="-75.8290427"><ele>7.833333333333333</ele><time>2026-04-18T11:43:34.69Z</time></trkpt><trkpt lat="9.1285543" lon="-75.8290696"><ele>8.0</ele><time>2026-04-18T11:43:35.689Z</time></trkpt><trkpt lat="9.1286368" lon="-75.8291"><ele>7.999999999999999</ele><time>2026-04-18T11:43:36.689Z</time></trkpt><trkpt lat="9.1287182" lon="-75.8291285"><ele>8.0</ele><time>2026-04-18T11:43:37.69Z</time></trkpt><trkpt lat="9.1287995" lon="-75.8291586"><ele>8.0</ele><time>2026-04-18T11:43:38.69Z</time></trkpt><trkpt lat="9.1288842" lon="-75.8291849"><ele>8.0</ele><time>2026-04-18T11:43:39.69Z</time></trkpt><trkpt lat="9.1289686" lon="-75.8292186"><ele>7.999999999999999</ele><time>2026-04-18T11:43:40.689Z</time></trkpt><trkpt lat="9.1290534" lon="-75.8292515"><ele>8.0</ele><time>2026-04-18T11:43:41.689Z</time></trkpt><trkpt lat="9.1291434" lon="-75.8292847"><ele>8.200000000000001</ele><time>2026-04-18T11:43:42.69Z</time></trkpt><trkpt lat="9.1292289" lon="-75.8293132"><ele>8.4</ele><time>2026-04-18T11:43:43.69Z</time></trkpt><trkpt lat="9.1293154" lon="-75.8293438"><ele>8.600000000000001</ele><time>2026-04-18T11:43:44.688Z</time></trkpt><trkpt lat="9.1294016" lon="-75.8293818"><ele>8.8</ele><time>2026-04-18T11:43:45.689Z</time></trkpt><trkpt lat="9.1294811" lon="-75.8294161"><ele>9.0</ele><time>2026-04-18T11:43:46.69Z</time></trkpt><trkpt lat="9.1295678" lon="-75.8294506"><ele>9.0</ele><time>2026-04-18T11:43:47.689Z</time></trkpt><trkpt lat="9.129656" lon="-75.8294824"><ele>9.0</ele><time>2026-04-18T11:43:48.689Z</time></trkpt><trkpt lat="9.1297423" lon="-75.8295164"><ele>9.0</ele><time>2026-04-18T11:43:49.69Z</time></trkpt><trkpt lat="9.1298277" lon="-75.8295528"><ele>9.0</ele><time>2026-04-18T11:43:50.689Z</time></trkpt><trkpt lat="9.1299134" lon="-75.8295845"><ele>9.0</ele><time>2026-04-18T11:43:51.69Z</time></trkpt><trkpt lat="9.1299986" lon="-75.8296179"><ele>9.0</ele><time>2026-04-18T11:43:52.69Z</time></trkpt><trkpt lat="9.1300872" lon="-75.8296522"><ele>9.0</ele><time>2026-04-18T11:43:53.689Z</time></trkpt><trkpt lat="9.1301757" lon="-75.8296872"><ele>9.0</ele><time>2026-04-18T11:43:54.69Z</time></trkpt><trkpt lat="9.1302604" lon="-75.8297205"><ele>9.0</ele><time>2026-04-18T11:43:55.689Z</time></trkpt><trkpt lat="9.1303445" lon="-75.829752"><ele>9.0</ele><time>2026-04-18T11:43:56.689Z</time></trkpt><trkpt lat="9.1304299" lon="-75.8297826"><ele>9.0</ele><time>2026-04-18T11:43:57.689Z</time></trkpt><trkpt lat="9.1305167" lon="-75.8298159"><ele>9.0</ele><time>2026-04-18T11:43:58.689Z</time></trkpt><trkpt lat="9.1306054" lon="-75.8298499"><ele>9.0</ele><time>2026-04-18T11:43:59.69Z</time></trkpt><trkpt lat="9.130692" lon="-75.8298822"><ele>9.0</ele><time>2026-04-18T11:44:00.689Z</time></trkpt><trkpt lat="9.1307773" lon="-75.8299078"><ele>9.0</ele><time>2026-04-18T11:44:01.69Z</time></trkpt><trkpt lat="9.1308626" lon="-75.8299423"><ele>8.8</ele><time>2026-04-18T11:44:02.69Z</time></trkpt><trkpt lat="9.1309522" lon="-75.8299745"><ele>8.600000000000001</ele><time>2026-04-18T11:44:03.69Z</time></trkpt><trkpt lat="9.1310393" lon="-75.830009"><ele>8.4</ele><time>2026-04-18T11:44:04.691Z</time></trkpt><trkpt lat="9.1311237" lon="-75.8300445"><ele>8.200000000000001</ele><time>2026-04-18T11:44:05.69Z</time></trkpt><trkpt lat="9.1312094" lon="-75.8300775"><ele>8.0</ele><time>2026-04-18T11:44:06.691Z</time></trkpt><trkpt lat="9.1312953" lon="-75.8301113"><ele>8.0</ele><time>2026-04-18T11:44:07.69Z</time></trkpt><trkpt lat="9.131381" lon="-75.830147"><ele>8.0</ele><time>2026-04-18T11:44:08.69Z</time></trkpt><trkpt lat="9.1314655" lon="-75.8301765"><ele>8.0</ele><time>2026-04-18T11:44:09.689Z</time></trkpt><trkpt lat="9.1315495" lon="-75.8302088"><ele>8.0</ele><time>2026-04-18T11:44:10.688Z</time></trkpt><trkpt lat="9.131632" lon="-75.8302407"><ele>8.0</ele><time>2026-04-18T11:44:11.69Z</time></trkpt><trkpt lat="9.1317186" lon="-75.8302735"><ele>7.999999999999999</ele><time>2026-04-18T11:44:12.689Z</time></trkpt><trkpt lat="9.1318015" lon="-75.8303059"><ele>8.0</ele><time>2026-04-18T11:44:13.69Z</time></trkpt><trkpt lat="9.1318862" lon="-75.8303389"><ele>8.0</ele><time>2026-04-18T11:44:14.689Z</time></trkpt><trkpt lat="9.1319661" lon="-75.8303726"><ele>8.0</ele><time>2026-04-18T11:44:15.689Z</time></trkpt><trkpt lat="9.1320486" lon="-75.8304044"><ele>7.999999999999999</ele><time>2026-04-18T11:44:16.689Z</time></trkpt><trkpt lat="9.1321349" lon="-75.8304348"><ele>8.0</ele><time>2026-04-18T11:44:17.689Z</time></trkpt><trkpt lat="9.1322222" lon="-75.8304667"><ele>8.0</ele><time>2026-04-18T11:44:18.69Z</time></trkpt><trkpt lat="9.1323083" lon="-75.8305026"><ele>8.0</ele><time>2026-04-18T11:44:19.69Z</time></trkpt><trkpt lat="9.1323903" lon="-75.8305302"><ele>8.0</ele><time>2026-04-18T11:44:20.69Z</time></trkpt><trkpt lat="9.1324737" lon="-75.8305645"><ele>8.0</ele><time>2026-04-18T11:44:21.689Z</time></trkpt><trkpt lat="9.132556" lon="-75.8305967"><ele>8.0</ele><time>2026-04-18T11:44:22.69Z</time></trkpt><trkpt lat="9.1326413" lon="-75.8306313"><ele>7.999999999999999</ele><time>2026-04-18T11:44:23.69Z</time></trkpt><trkpt lat="9.1327298" lon="-75.8306628"><ele>8.0</ele><time>2026-04-18T11:44:24.69Z</time></trkpt><trkpt lat="9.1328081" lon="-75.8306952"><ele>8.0</ele><time>2026-04-18T11:44:25.69Z</time></trkpt><trkpt lat="9.1328913" lon="-75.8307282"><ele>8.0</ele><time>2026-04-18T11:44:26.69Z</time></trkpt><trkpt lat="9.1329753" lon="-75.8307587"><ele>7.999999999999999</ele><time>2026-04-18T11:44:27.689Z</time></trkpt><trkpt lat="9.1330561" lon="-75.8307917"><ele>8.0</ele><time>2026-04-18T11:44:28.691Z</time></trkpt><trkpt lat="9.1331386" lon="-75.8308181"><ele>7.999999999999999</ele><time>2026-04-18T11:44:29.689Z</time></trkpt><trkpt lat="9.1332214" lon="-75.8308499"><ele>8.0</ele><time>2026-04-18T11:44:30.69Z</time></trkpt><trkpt lat="9.1333072" lon="-75.8308798"><ele>8.0</ele><time>2026-04-18T11:44:31.69Z</time></trkpt><trkpt lat="9.1333938" lon="-75.830911"><ele>8.0</ele><time>2026-04-18T11:44:32.689Z</time></trkpt><trkpt lat="9.1334783" lon="-75.8309437"><ele>7.999999999999999</ele><time>2026-04-18T11:44:33.688Z</time></trkpt><trkpt lat="9.1335596" lon="-75.8309711"><ele>8.0</ele><time>2026-04-18T11:44:34.689Z</time></trkpt><trkpt lat="9.1336445" lon="-75.8310024"><ele>7.999999999999999</ele><time>2026-04-18T11:44:35.69Z</time></trkpt><trkpt lat="9.1337284" lon="-75.8310335"><ele>8.0</ele><time>2026-04-18T11:44:36.689Z</time></trkpt><trkpt lat="9.133813" lon="-75.8310622"><ele>8.0</ele><time>2026-04-18T11:44:37.689Z</time></trkpt><trkpt lat="9.1338949" lon="-75.831093"><ele>8.0</ele><time>2026-04-18T11:44:38.69Z</time></trkpt><trkpt lat="9.1339791" lon="-75.831121"><ele>7.999999999999999</ele><time>2026-04-18T11:44:39.689Z</time></trkpt><trkpt lat="9.1340582" lon="-75.8311511"><ele>8.0</ele><time>2026-04-18T11:44:40.689Z</time></trkpt><trkpt lat="9.1341457" lon="-75.8311822"><ele>7.6000000000000005</ele><time>2026-04-18T11:44:41.689Z</time></trkpt><trkpt lat="9.1342318" lon="-75.8312122"><ele>7.200000000000001</ele><time>2026-04-18T11:44:42.69Z</time></trkpt><trkpt lat="9.134319" lon="-75.8312401"><ele>6.8</ele><time>2026-04-18T11:44:43.69Z</time></trkpt><trkpt lat="9.1344034" lon="-75.831267"><ele>6.4</ele><time>2026-04-18T11:44:44.69Z</time></trkpt><trkpt lat="9.1344902" lon="-75.8312951"><ele>6.0</ele><time>2026-04-18T11:44:45.689Z</time></trkpt><trkpt lat="9.1345783" lon="-75.8313226"><ele>6.0</ele><time>2026-04-18T11:44:46.691Z</time></trkpt><trkpt lat="9.134666" lon="-75.8313499"><ele>6.0</ele><time>2026-04-18T11:44:47.689Z</time></trkpt><trkpt lat="9.1347562" lon="-75.8313775"><ele>6.0</ele><time>2026-04-18T11:44:48.689Z</time></trkpt><trkpt lat="9.1348407" lon="-75.8314041"><ele>6.0</ele><time>2026-04-18T11:44:49.691Z</time></trkpt><trkpt lat="9.1349296" lon="-75.8314289"><ele>6.0</ele><time>2026-04-18T11:44:50.689Z</time></trkpt><trkpt lat="9.1350177" lon="-75.8314563"><ele>6.199999999999999</ele><time>2026-04-18T11:44:51.689Z</time></trkpt><trkpt lat="9.1351086" lon="-75.8314816"><ele>6.3999999999999995</ele><time>2026-04-18T11:44:52.69Z</time></trkpt><trkpt lat="9.1351981" lon="-75.8315079"><ele>6.6</ele><time>2026-04-18T11:44:53.689Z</time></trkpt><trkpt lat="9.1352851" lon="-75.8315339"><ele>6.8</ele><time>2026-04-18T11:44:54.688Z</time></trkpt><trkpt lat="9.1353745" lon="-75.8315605"><ele>7.0</ele><time>2026-04-18T11:44:55.691Z</time></trkpt><trkpt lat="9.1354634" lon="-75.831589"><ele>7.0</ele><time>2026-04-18T11:44:56.689Z</time></trkpt><trkpt lat="9.1355547" lon="-75.8316179"><ele>6.999999999999999</ele><time>2026-04-18T11:44:57.688Z</time></trkpt><trkpt lat="9.1356407" lon="-75.8316454"><ele>6.999999999999999</ele><time>2026-04-18T11:44:58.69Z</time></trkpt><trkpt lat="9.1357287" lon="-75.8316743"><ele>7.0</ele><time>2026-04-18T11:44:59.689Z</time></trkpt><trkpt lat="9.1358169" lon="-75.8317072"><ele>7.0</ele><time>2026-04-18T11:45:00.691Z</time></trkpt><trkpt lat="9.1359025" lon="-75.8317365"><ele>7.0</ele><time>2026-04-18T11:45:01.69Z</time></trkpt><trkpt lat="9.1359912" lon="-75.8317679"><ele>6.999999999999999</ele><time>2026-04-18T11:45:02.69Z</time></trkpt><trkpt lat="9.1360778" lon="-75.8317993"><ele>6.999999999999999</ele><time>2026-04-18T11:45:03.689Z</time></trkpt><trkpt lat="9.1361638" lon="-75.8318338"><ele>7.0</ele><time>2026-04-18T11:45:04.69Z</time></trkpt><trkpt lat="9.1362509" lon="-75.8318637"><ele>7.0</ele><time>2026-04-18T11:45:05.689Z</time></trkpt><trkpt lat="9.1363369" lon="-75.831898"><ele>7.0</ele><time>2026-04-18T11:45:06.689Z</time></trkpt><trkpt lat="9.1364242" lon="-75.8319309"><ele>6.999999999999999</ele><time>2026-04-18T11:45:07.689Z</time></trkpt><trkpt lat="9.1365087" lon="-75.8319671"><ele>6.999999999999999</ele><time>2026-04-18T11:45:08.689Z</time></trkpt><trkpt lat="9.1365987" lon="-75.8320036"><ele>7.0</ele><time>2026-04-18T11:45:09.691Z</time></trkpt><trkpt lat="9.1366828" lon="-75.8320401"><ele>7.0</ele><time>2026-04-18T11:45:10.689Z</time></trkpt><trkpt lat="9.1367669" lon="-75.8320775"><ele>6.6</ele><time>2026-04-18T11:45:11.689Z</time></trkpt><trkpt lat="9.1368517" lon="-75.8321156"><ele>6.199999999999999</ele><time>2026-04-18T11:45:12.688Z</time></trkpt><trkpt lat="9.1369351" lon="-75.8321524"><ele>5.8</ele><time>2026-04-18T11:45:13.689Z</time></trkpt><trkpt lat="9.1370214" lon="-75.8321922"><ele>5.4</ele><time>2026-04-18T11:45:14.689Z</time></trkpt><trkpt lat="9.1371048" lon="-75.8322318"><ele>5.0</ele><time>2026-04-18T11:45:15.69Z</time></trkpt><trkpt lat="9.137191" lon="-75.8322694"><ele>5.0</ele><time>2026-04-18T11:45:16.689Z</time></trkpt><trkpt lat="9.1372734" lon="-75.8323076"><ele>5.0</ele><time>2026-04-18T11:45:17.69Z</time></trkpt><trkpt lat="9.1373558" lon="-75.8323435"><ele>5.0</ele><time>2026-04-18T11:45:18.689Z</time></trkpt><trkpt lat="9.1374387" lon="-75.8323771"><ele>5.0</ele><time>2026-04-18T11:45:19.689Z</time></trkpt><trkpt lat="9.1375216" lon="-75.8324171"><ele>5.0</ele><time>2026-04-18T11:45:20.69Z</time></trkpt><trkpt lat="9.1376074" lon="-75.8324582"><ele>5.0</ele><time>2026-04-18T11:45:21.689Z</time></trkpt><trkpt lat="9.137691" lon="-75.8324972"><ele>5.0</ele><time>2026-04-18T11:45:22.689Z</time></trkpt><trkpt lat="9.1377697" lon="-75.8325317"><ele>5.0</ele><time>2026-04-18T11:45:23.69Z</time></trkpt><trkpt lat="9.1378554" lon="-75.8325665"><ele>5.0</ele><time>2026-04-18T11:45:24.689Z</time></trkpt><trkpt lat="9.1379363" lon="-75.8325992"><ele>5.0</ele><time>2026-04-18T11:45:25.689Z</time></trkpt><trkpt lat="9.1380197" lon="-75.8326343"><ele>5.0</ele><time>2026-04-18T11:45:26.69Z</time></trkpt><trkpt lat="9.1381037" lon="-75.8326677"><ele>5.166666666666667</ele><time>2026-04-18T11:45:27.689Z</time></trkpt><trkpt lat="9.1381843" lon="-75.8327032"><ele>5.333333333333334</ele><time>2026-04-18T11:45:28.69Z</time></trkpt><trkpt lat="9.1382686" lon="-75.8327364"><ele>5.5</ele><time>2026-04-18T11:45:29.689Z</time></trkpt><trkpt lat="9.1383519" lon="-75.8327727"><ele>5.666666666666667</ele><time>2026-04-18T11:45:30.689Z</time></trkpt><trkpt lat="9.1384359" lon="-75.8328088"><ele>5.833333333333333</ele><time>2026-04-18T11:45:31.69Z</time></trkpt><trkpt lat="9.1385177" lon="-75.8328429"><ele>6.0</ele><time>2026-04-18T11:45:32.69Z</time></trkpt><trkpt lat="9.1385993" lon="-75.8328791"><ele>6.0</ele><time>2026-04-18T11:45:33.689Z</time></trkpt><trkpt lat="9.1386818" lon="-75.8329132"><ele>6.0</ele><time>2026-04-18T11:45:34.689Z</time></trkpt><trkpt lat="9.1387658" lon="-75.8329452"><ele>6.0</ele><time>2026-04-18T11:45:35.689Z</time></trkpt><trkpt lat="9.1388478" lon="-75.8329755"><ele>6.0</ele><time>2026-04-18T11:45:36.689Z</time></trkpt><trkpt lat="9.1389335" lon="-75.8330069"><ele>6.0</ele><time>2026-04-18T11:45:37.689Z</time></trkpt><trkpt lat="9.1390172" lon="-75.8330406"><ele>6.0</ele><time>2026-04-18T11:45:38.69Z</time></trkpt><trkpt lat="9.1391022" lon="-75.833072"><ele>6.0</ele><time>2026-04-18T11:45:39.689Z</time></trkpt><trkpt lat="9.1391835" lon="-75.8331033"><ele>6.0</ele><time>2026-04-18T11:45:40.689Z</time></trkpt><trkpt lat="9.1392676" lon="-75.8331375"><ele>6.0</ele><time>2026-04-18T11:45:41.689Z</time></trkpt><trkpt lat="9.1393519" lon="-75.8331699"><ele>6.0</ele><time>2026-04-18T11:45:42.689Z</time></trkpt><trkpt lat="9.1394356" lon="-75.8332002"><ele>6.0</ele><time>2026-04-18T11:45:43.69Z</time></trkpt><trkpt lat="9.1395205" lon="-75.83323"><ele>6.0</ele><time>2026-04-18T11:45:44.69Z</time></trkpt><trkpt lat="9.1396072" lon="-75.8332612"><ele>6.0</ele><time>2026-04-18T11:45:45.688Z</time></trkpt><trkpt lat="9.139692" lon="-75.833294"><ele>6.0</ele><time>2026-04-18T11:45:46.69Z</time></trkpt><trkpt lat="9.1397791" lon="-75.8333242"><ele>6.0</ele><time>2026-04-18T11:45:47.689Z</time></trkpt><trkpt lat="9.139862" lon="-75.8333513"><ele>6.0</ele><time>2026-04-18T11:45:48.689Z</time></trkpt><trkpt lat="9.1399459" lon="-75.8333809"><ele>6.0</ele><time>2026-04-18T11:45:49.689Z</time></trkpt><trkpt lat="9.1400301" lon="-75.8334138"><ele>6.0</ele><time>2026-04-18T11:45:50.689Z</time></trkpt><trkpt lat="9.14011" lon="-75.8334469"><ele>6.0</ele><time>2026-04-18T11:45:51.691Z</time></trkpt><trkpt lat="9.1401898" lon="-75.8334798"><ele>6.0</ele><time>2026-04-18T11:45:52.69Z</time></trkpt><trkpt lat="9.1402731" lon="-75.8335087"><ele>6.0</ele><time>2026-04-18T11:45:53.69Z</time></trkpt><trkpt lat="9.1403561" lon="-75.8335406"><ele>6.0</ele><time>2026-04-18T11:45:54.689Z</time></trkpt><trkpt lat="9.1404431" lon="-75.8335744"><ele>6.0</ele><time>2026-04-18T11:45:55.689Z</time></trkpt><trkpt lat="9.1405262" lon="-75.8336057"><ele>6.0</ele><time>2026-04-18T11:45:56.689Z</time></trkpt><trkpt lat="9.1406084" lon="-75.8336368"><ele>6.0</ele><time>2026-04-18T11:45:57.689Z</time></trkpt><trkpt lat="9.1406922" lon="-75.833667"><ele>6.0</ele><time>2026-04-18T11:45:58.689Z</time></trkpt><trkpt lat="9.1407784" lon="-75.8336964"><ele>6.0</ele><time>2026-04-18T11:45:59.689Z</time></trkpt><trkpt lat="9.1408627" lon="-75.8337249"><ele>6.0</ele><time>2026-04-18T11:46:00.689Z</time></trkpt><trkpt lat="9.140947" lon="-75.8337552"><ele>6.0</ele><time>2026-04-18T11:46:01.689Z</time></trkpt><trkpt lat="9.1410291" lon="-75.8337839"><ele>6.0</ele><time>2026-04-18T11:46:02.689Z</time></trkpt><trkpt lat="9.1411137" lon="-75.8338146"><ele>5.666666666666667</ele><time>2026-04-18T11:46:03.69Z</time></trkpt><trkpt lat="9.1411977" lon="-75.8338466"><ele>5.333333333333333</ele><time>2026-04-18T11:46:04.689Z</time></trkpt><trkpt lat="9.1412805" lon="-75.8338794"><ele>5.0</ele><time>2026-04-18T11:46:05.689Z</time></trkpt><trkpt lat="9.1413655" lon="-75.8339108"><ele>4.666666666666666</ele><time>2026-04-18T11:46:06.689Z</time></trkpt><trkpt lat="9.1414471" lon="-75.8339398"><ele>4.333333333333333</ele><time>2026-04-18T11:46:07.689Z</time></trkpt><trkpt lat="9.1415309" lon="-75.8339714"><ele>4.0</ele><time>2026-04-18T11:46:08.689Z</time></trkpt><trkpt lat="9.1416134" lon="-75.8339998"><ele>3.833333333333333</ele><time>2026-04-18T11:46:09.689Z</time></trkpt><trkpt lat="9.1416947" lon="-75.8340322"><ele>3.6666666666666665</ele><time>2026-04-18T11:46:10.689Z</time></trkpt><trkpt lat="9.1417755" lon="-75.8340626"><ele>3.5</ele><time>2026-04-18T11:46:11.689Z</time></trkpt><trkpt lat="9.141858" lon="-75.8340931"><ele>3.333333333333333</ele><time>2026-04-18T11:46:12.689Z</time></trkpt><trkpt lat="9.1419427" lon="-75.8341269"><ele>3.1666666666666665</ele><time>2026-04-18T11:46:13.689Z</time></trkpt><trkpt lat="9.1420269" lon="-75.8341585"><ele>3.0</ele><time>2026-04-18T11:46:14.69Z</time></trkpt><trkpt lat="9.1421101" lon="-75.834187"><ele>3.0</ele><time>2026-04-18T11:46:15.688Z</time></trkpt><trkpt lat="9.1421931" lon="-75.834218"><ele>3.0</ele><time>2026-04-18T11:46:16.689Z</time></trkpt><trkpt lat="9.1422763" lon="-75.8342489"><ele>3.0</ele><time>2026-04-18T11:46:17.689Z</time></trkpt><trkpt lat="9.1423595" lon="-75.8342809"><ele>3.0</ele><time>2026-04-18T11:46:18.69Z</time></trkpt><trkpt lat="9.1424413" lon="-75.8343119"><ele>3.0</ele><time>2026-04-18T11:46:19.689Z</time></trkpt><trkpt lat="9.1425241" lon="-75.8343439"><ele>3.0</ele><time>2026-04-18T11:46:20.69Z</time></trkpt><trkpt lat="9.1426089" lon="-75.8343754"><ele>3.833333333333333</ele><time>2026-04-18T11:46:21.69Z</time></trkpt><trkpt lat="9.1426921" lon="-75.8344044"><ele>4.666666666666666</ele><time>2026-04-18T11:46:22.69Z</time></trkpt><trkpt lat="9.142772" lon="-75.8344381"><ele>5.5</ele><time>2026-04-18T11:46:23.689Z</time></trkpt><trkpt lat="9.1428518" lon="-75.8344717"><ele>6.333333333333333</ele><time>2026-04-18T11:46:24.689Z</time></trkpt><trkpt lat="9.1429322" lon="-75.834504"><ele>7.166666666666666</ele><time>2026-04-18T11:46:25.689Z</time></trkpt><trkpt lat="9.1430144" lon="-75.834533"><ele>8.0</ele><time>2026-04-18T11:46:26.689Z</time></trkpt><trkpt lat="9.1430966" lon="-75.8345649"><ele>8.0</ele><time>2026-04-18T11:46:27.689Z</time></trkpt><trkpt lat="9.1431797" lon="-75.8345982"><ele>8.0</ele><time>2026-04-18T11:46:28.689Z</time></trkpt><trkpt lat="9.1432638" lon="-75.8346274"><ele>8.0</ele><time>2026-04-18T11:46:29.689Z</time></trkpt><trkpt lat="9.1433467" lon="-75.8346597"><ele>8.0</ele><time>2026-04-18T11:46:30.689Z</time></trkpt><trkpt lat="9.1434319" lon="-75.8346945"><ele>8.0</ele><time>2026-04-18T11:46:31.689Z</time></trkpt><trkpt lat="9.1435166" lon="-75.834729"><ele>7.999999999999999</ele><time>2026-04-18T11:46:32.689Z</time></trkpt><trkpt lat="9.1435999" lon="-75.8347625"><ele>8.0</ele><time>2026-04-18T11:46:33.689Z</time></trkpt><trkpt lat="9.1436835" lon="-75.8347981"><ele>8.0</ele><time>2026-04-18T11:46:34.689Z</time></trkpt><trkpt lat="9.1437655" lon="-75.8348326"><ele>8.0</ele><time>2026-04-18T11:46:35.689Z</time></trkpt><trkpt lat="9.1438482" lon="-75.8348635"><ele>7.999999999999999</ele><time>2026-04-18T11:46:36.689Z</time></trkpt><trkpt lat="9.1439334" lon="-75.8348948"><ele>8.0</ele><time>2026-04-18T11:46:37.689Z</time></trkpt><trkpt lat="9.1440167" lon="-75.8349254"><ele>7.333333333333333</ele><time>2026-04-18T11:46:38.689Z</time></trkpt><trkpt lat="9.1440994" lon="-75.8349606"><ele>6.666666666666666</ele><time>2026-04-18T11:46:39.689Z</time></trkpt><trkpt lat="9.1441814" lon="-75.8349911"><ele>6.0</ele><time>2026-04-18T11:46:40.689Z</time></trkpt><trkpt lat="9.1442612" lon="-75.8350229"><ele>5.333333333333333</ele><time>2026-04-18T11:46:41.689Z</time></trkpt><trkpt lat="9.1443459" lon="-75.8350536"><ele>4.666666666666666</ele><time>2026-04-18T11:46:42.689Z</time></trkpt><trkpt lat="9.144427" lon="-75.8350865"><ele>4.0</ele><time>2026-04-18T11:46:43.69Z</time></trkpt><trkpt lat="9.1445125" lon="-75.8351158"><ele>3.9999999999999996</ele><time>2026-04-18T11:46:44.69Z</time></trkpt><trkpt lat="9.1445932" lon="-75.8351454"><ele>4.0</ele><time>2026-04-18T11:46:45.688Z</time></trkpt><trkpt lat="9.1446754" lon="-75.8351774"><ele>4.0</ele><time>2026-04-18T11:46:46.689Z</time></trkpt><trkpt lat="9.1447628" lon="-75.8352051"><ele>4.0</ele><time>2026-04-18T11:46:47.689Z</time></trkpt><trkpt lat="9.1448456" lon="-75.8352333"><ele>3.9999999999999996</ele><time>2026-04-18T11:46:48.689Z</time></trkpt><trkpt lat="9.144925" lon="-75.8352668"><ele>4.0</ele><time>2026-04-18T11:46:49.689Z</time></trkpt><trkpt lat="9.1450065" lon="-75.8353014"><ele>3.9999999999999996</ele><time>2026-04-18T11:46:50.689Z</time></trkpt><trkpt lat="9.1450905" lon="-75.8353288"><ele>4.0</ele><time>2026-04-18T11:46:51.689Z</time></trkpt><trkpt lat="9.1451739" lon="-75.835358"><ele>4.0</ele><time>2026-04-18T11:46:52.69Z</time></trkpt><trkpt lat="9.145258" lon="-75.8353883"><ele>4.0</ele><time>2026-04-18T11:46:53.689Z</time></trkpt><trkpt lat="9.1453423" lon="-75.8354189"><ele>3.9999999999999996</ele><time>2026-04-18T11:46:54.689Z</time></trkpt><trkpt lat="9.145426" lon="-75.8354469"><ele>4.0</ele><time>2026-04-18T11:46:55.689Z</time></trkpt><trkpt lat="9.1455111" lon="-75.8354768"><ele>3.9999999999999996</ele><time>2026-04-18T11:46:56.69Z</time></trkpt><trkpt lat="9.1455966" lon="-75.8355104"><ele>4.0</ele><time>2026-04-18T11:46:57.69Z</time></trkpt><trkpt lat="9.1456751" lon="-75.8355472"><ele>4.0</ele><time>2026-04-18T11:46:58.689Z</time></trkpt><trkpt lat="9.1457584" lon="-75.835581"><ele>4.0</ele><time>2026-04-18T11:46:59.686Z</time></trkpt><trkpt lat="9.1458391" lon="-75.835618"><ele>3.9999999999999996</ele><time>2026-04-18T11:47:00.69Z</time></trkpt><trkpt lat="9.145924" lon="-75.8356521"><ele>4.0</ele><time>2026-04-18T11:47:01.689Z</time></trkpt><trkpt lat="9.1460072" lon="-75.8356812"><ele>4.2</ele><time>2026-04-18T11:47:02.688Z</time></trkpt><trkpt lat="9.1460889" lon="-75.8357127"><ele>4.4</ele><time>2026-04-18T11:47:03.689Z</time></trkpt><trkpt lat="9.1461746" lon="-75.8357441"><ele>4.6</ele><time>2026-04-18T11:47:04.689Z</time></trkpt><trkpt lat="9.1462583" lon="-75.8357737"><ele>4.8</ele><time>2026-04-18T11:47:05.689Z</time></trkpt><trkpt lat="9.1463441" lon="-75.8358079"><ele>5.0</ele><time>2026-04-18T11:47:06.689Z</time></trkpt><trkpt lat="9.1464304" lon="-75.8358386"><ele>5.0</ele><time>2026-04-18T11:47:07.689Z</time></trkpt><trkpt lat="9.1465163" lon="-75.8358685"><ele>5.0</ele><time>2026-04-18T11:47:08.689Z</time></trkpt><trkpt lat="9.1466031" lon="-75.8359034"><ele>5.0</ele><time>2026-04-18T11:47:09.69Z</time></trkpt><trkpt lat="9.1466883" lon="-75.8359339"><ele>5.0</ele><time>2026-04-18T11:47:10.689Z</time></trkpt><trkpt lat="9.1467752" lon="-75.8359641"><ele>5.0</ele><time>2026-04-18T11:47:11.69Z</time></trkpt><trkpt lat="9.1468605" lon="-75.8359973"><ele>5.4</ele><time>2026-04-18T11:47:12.69Z</time></trkpt><trkpt lat="9.1469471" lon="-75.8360247"><ele>5.8</ele><time>2026-04-18T11:47:13.689Z</time></trkpt><trkpt lat="9.1470311" lon="-75.8360513"><ele>6.199999999999999</ele><time>2026-04-18T11:47:14.69Z</time></trkpt><trkpt lat="9.1471155" lon="-75.8360817"><ele>6.6</ele><time>2026-04-18T11:47:15.689Z</time></trkpt><trkpt lat="9.1472018" lon="-75.8361152"><ele>7.0</ele><time>2026-04-18T11:47:16.689Z</time></trkpt><trkpt lat="9.1472882" lon="-75.8361446"><ele>7.000000000000001</ele><time>2026-04-18T11:47:17.689Z</time></trkpt><trkpt lat="9.1473741" lon="-75.8361742"><ele>7.0</ele><time>2026-04-18T11:47:18.69Z</time></trkpt><trkpt lat="9.1474576" lon="-75.8362005"><ele>7.0</ele><time>2026-04-18T11:47:19.689Z</time></trkpt><trkpt lat="9.147543" lon="-75.8362279"><ele>7.0</ele><time>2026-04-18T11:47:20.689Z</time></trkpt><trkpt lat="9.1476298" lon="-75.8362545"><ele>7.000000000000001</ele><time>2026-04-18T11:47:21.689Z</time></trkpt><trkpt lat="9.1477141" lon="-75.8362833"><ele>7.0</ele><time>2026-04-18T11:47:22.69Z</time></trkpt><trkpt lat="9.1477993" lon="-75.83631"><ele>7.0</ele><time>2026-04-18T11:47:23.689Z</time></trkpt><trkpt lat="9.1478839" lon="-75.8363402"><ele>6.999999999999999</ele><time>2026-04-18T11:47:24.689Z</time></trkpt><trkpt lat="9.1479702" lon="-75.8363687"><ele>6.999999999999999</ele><time>2026-04-18T11:47:25.689Z</time></trkpt><trkpt lat="9.1480554" lon="-75.8363935"><ele>7.0</ele><time>2026-04-18T11:47:26.689Z</time></trkpt><trkpt lat="9.1481433" lon="-75.8364192"><ele>7.0</ele><time>2026-04-18T11:47:27.69Z</time></trkpt><trkpt lat="9.1482289" lon="-75.8364462"><ele>7.0</ele><time>2026-04-18T11:47:28.689Z</time></trkpt><trkpt lat="9.1483129" lon="-75.8364784"><ele>6.999999999999999</ele><time>2026-04-18T11:47:29.689Z</time></trkpt><trkpt lat="9.1483981" lon="-75.8365076"><ele>6.999999999999999</ele><time>2026-04-18T11:47:30.688Z</time></trkpt><trkpt lat="9.1484848" lon="-75.8365336"><ele>7.0</ele><time>2026-04-18T11:47:31.688Z</time></trkpt><trkpt lat="9.1485736" lon="-75.8365597"><ele>7.0</ele><time>2026-04-18T11:47:32.689Z</time></trkpt><trkpt lat="9.1486624" lon="-75.8365927"><ele>7.0</ele><time>2026-04-18T11:47:33.689Z</time></trkpt><trkpt lat="9.1487483" lon="-75.8366247"><ele>6.999999999999999</ele><time>2026-04-18T11:47:34.689Z</time></trkpt><trkpt lat="9.1488368" lon="-75.8366527"><ele>6.999999999999999</ele><time>2026-04-18T11:47:35.689Z</time></trkpt><trkpt lat="9.1489269" lon="-75.8366843"><ele>7.0</ele><time>2026-04-18T11:47:36.69Z</time></trkpt><trkpt lat="9.1490163" lon="-75.8367149"><ele>7.0</ele><time>2026-04-18T11:47:37.688Z</time></trkpt><trkpt lat="9.1491068" lon="-75.8367427"><ele>7.0</ele><time>2026-04-18T11:47:38.689Z</time></trkpt><trkpt lat="9.149199" lon="-75.8367716"><ele>6.999999999999999</ele><time>2026-04-18T11:47:39.689Z</time></trkpt><trkpt lat="9.1492884" lon="-75.8368008"><ele>6.999999999999999</ele><time>2026-04-18T11:47:40.689Z</time></trkpt><trkpt lat="9.1493791" lon="-75.8368299"><ele>7.0</ele><time>2026-04-18T11:47:41.688Z</time></trkpt><trkpt lat="9.1494673" lon="-75.8368588"><ele>7.0</ele><time>2026-04-18T11:47:42.689Z</time></trkpt><trkpt lat="9.1495522" lon="-75.8368868"><ele>7.0</ele><time>2026-04-18T11:47:43.687Z</time></trkpt><trkpt lat="9.1496385" lon="-75.8369118"><ele>6.999999999999999</ele><time>2026-04-18T11:47:44.688Z</time></trkpt><trkpt lat="9.1497245" lon="-75.8369391"><ele>6.999999999999999</ele><time>2026-04-18T11:47:45.69Z</time></trkpt><trkpt lat="9.1498125" lon="-75.8369655"><ele>7.0</ele><time>2026-04-18T11:47:46.688Z</time></trkpt><trkpt lat="9.1498973" lon="-75.836994"><ele>7.0</ele><time>2026-04-18T11:47:47.689Z</time></trkpt><trkpt lat="9.1499886" lon="-75.8370165"><ele>7.0</ele><time>2026-04-18T11:47:48.689Z</time></trkpt><trkpt lat="9.1500788" lon="-75.8370398"><ele>6.999999999999999</ele><time>2026-04-18T11:47:49.688Z</time></trkpt><trkpt lat="9.1501704" lon="-75.8370616"><ele>6.999999999999999</ele><time>2026-04-18T11:47:50.689Z</time></trkpt><trkpt lat="9.1502633" lon="-75.8370842"><ele>7.0</ele><time>2026-04-18T11:47:51.69Z</time></trkpt><trkpt lat="9.1503519" lon="-75.8371014"><ele>7.0</ele><time>2026-04-18T11:47:52.689Z</time></trkpt><trkpt lat="9.1504416" lon="-75.8371194"><ele>7.0</ele><time>2026-04-18T11:47:53.689Z</time></trkpt><trkpt lat="9.1505315" lon="-75.8371341"><ele>6.999999999999999</ele><time>2026-04-18T11:47:54.689Z</time></trkpt><trkpt lat="9.15062" lon="-75.837148"><ele>6.999999999999999</ele><time>2026-04-18T11:47:55.69Z</time></trkpt><trkpt lat="9.1507125" lon="-75.837159"><ele>7.0</ele><time>2026-04-18T11:47:56.69Z</time></trkpt><trkpt lat="9.150804" lon="-75.8371676"><ele>7.0</ele><time>2026-04-18T11:47:57.689Z</time></trkpt><trkpt lat="9.1508942" lon="-75.8371748"><ele>7.199999999999999</ele><time>2026-04-18T11:47:58.689Z</time></trkpt><trkpt lat="9.1509864" lon="-75.8371784"><ele>7.3999999999999995</ele><time>2026-04-18T11:47:59.69Z</time></trkpt><trkpt lat="9.1510782" lon="-75.8371815"><ele>7.6000000000000005</ele><time>2026-04-18T11:48:00.689Z</time></trkpt><trkpt lat="9.1511705" lon="-75.8371843"><ele>7.800000000000001</ele><time>2026-04-18T11:48:01.688Z</time></trkpt><trkpt lat="9.1512594" lon="-75.8371847"><ele>8.0</ele><time>2026-04-18T11:48:02.688Z</time></trkpt><trkpt lat="9.1513499" lon="-75.8371829"><ele>8.0</ele><time>2026-04-18T11:48:03.689Z</time></trkpt><trkpt lat="9.1514461" lon="-75.8371788"><ele>8.0</ele><time>2026-04-18T11:48:04.688Z</time></trkpt><trkpt lat="9.1515404" lon="-75.8371771"><ele>8.0</ele><time>2026-04-18T11:48:05.688Z</time></trkpt><trkpt lat="9.1516341" lon="-75.83717"><ele>8.0</ele><time>2026-04-18T11:48:06.69Z</time></trkpt><trkpt lat="9.1517291" lon="-75.8371656"><ele>8.0</ele><time>2026-04-18T11:48:07.688Z</time></trkpt><trkpt lat="9.1518186" lon="-75.8371598"><ele>7.800000000000001</ele><time>2026-04-18T11:48:08.689Z</time></trkpt><trkpt lat="9.1519098" lon="-75.8371511"><ele>7.6000000000000005</ele><time>2026-04-18T11:48:09.689Z</time></trkpt><trkpt lat="9.1519991" lon="-75.8371393"><ele>7.3999999999999995</ele><time>2026-04-18T11:48:10.69Z</time></trkpt><trkpt lat="9.152088" lon="-75.8371254"><ele>7.199999999999999</ele><time>2026-04-18T11:48:11.69Z</time></trkpt><trkpt lat="9.1521798" lon="-75.8371115"><ele>7.0</ele><time>2026-04-18T11:48:12.688Z</time></trkpt><trkpt lat="9.1522704" lon="-75.8370944"><ele>7.0</ele><time>2026-04-18T11:48:13.689Z</time></trkpt><trkpt lat="9.1523604" lon="-75.8370736"><ele>6.999999999999999</ele><time>2026-04-18T11:48:14.688Z</time></trkpt><trkpt lat="9.1524503" lon="-75.8370525"><ele>6.999999999999999</ele><time>2026-04-18T11:48:15.689Z</time></trkpt><trkpt lat="9.1525422" lon="-75.8370318"><ele>7.0</ele><time>2026-04-18T11:48:16.689Z</time></trkpt><trkpt lat="9.1526344" lon="-75.8370095"><ele>7.0</ele><time>2026-04-18T11:48:17.689Z</time></trkpt><trkpt lat="9.1527246" lon="-75.8369865"><ele>7.6</ele><time>2026-04-18T11:48:18.689Z</time></trkpt><trkpt lat="9.1528118" lon="-75.8369594"><ele>8.2</ele><time>2026-04-18T11:48:19.689Z</time></trkpt><trkpt lat="9.1529016" lon="-75.8369261"><ele>8.8</ele><time>2026-04-18T11:48:20.689Z</time></trkpt><trkpt lat="9.1529915" lon="-75.8368935"><ele>9.4</ele><time>2026-04-18T11:48:21.689Z</time></trkpt><trkpt lat="9.153075" lon="-75.836864"><ele>10.0</ele><time>2026-04-18T11:48:22.69Z</time></trkpt><trkpt lat="9.1531619" lon="-75.8368292"><ele>9.6</ele><time>2026-04-18T11:48:23.689Z</time></trkpt><trkpt lat="9.1532491" lon="-75.8367979"><ele>9.2</ele><time>2026-04-18T11:48:24.689Z</time></trkpt><trkpt lat="9.153335" lon="-75.8367621"><ele>8.8</ele><time>2026-04-18T11:48:25.688Z</time></trkpt><trkpt lat="9.1534206" lon="-75.836724"><ele>8.4</ele><time>2026-04-18T11:48:26.689Z</time></trkpt><trkpt lat="9.1535043" lon="-75.8366859"><ele>8.0</ele><time>2026-04-18T11:48:27.688Z</time></trkpt><trkpt lat="9.1535869" lon="-75.8366441"><ele>8.0</ele><time>2026-04-18T11:48:28.689Z</time></trkpt><trkpt lat="9.1536708" lon="-75.8366014"><ele>8.0</ele><time>2026-04-18T11:48:29.69Z</time></trkpt><trkpt lat="9.1537521" lon="-75.8365576"><ele>8.0</ele><time>2026-04-18T11:48:30.689Z</time></trkpt><trkpt lat="9.153831" lon="-75.8365104"><ele>8.0</ele><time>2026-04-18T11:48:31.69Z</time></trkpt><trkpt lat="9.153907" lon="-75.8364638"><ele>8.0</ele><time>2026-04-18T11:48:32.687Z</time></trkpt><trkpt lat="9.1539836" lon="-75.8364144"><ele>8.200000000000001</ele><time>2026-04-18T11:48:33.688Z</time></trkpt><trkpt lat="9.1540615" lon="-75.836363"><ele>8.4</ele><time>2026-04-18T11:48:34.69Z</time></trkpt><trkpt lat="9.1541407" lon="-75.8363125"><ele>8.600000000000001</ele><time>2026-04-18T11:48:35.688Z</time></trkpt><trkpt lat="9.1542135" lon="-75.8362608"><ele>8.8</ele><time>2026-04-18T11:48:36.689Z</time></trkpt><trkpt lat="9.1542921" lon="-75.8362105"><ele>9.0</ele><time>2026-04-18T11:48:37.688Z</time></trkpt><trkpt lat="9.1543629" lon="-75.8361557"><ele>9.0</ele><time>2026-04-18T11:48:38.689Z</time></trkpt><trkpt lat="9.1544383" lon="-75.8361019"><ele>9.0</ele><time>2026-04-18T11:48:39.688Z</time></trkpt><trkpt lat="9.1545092" lon="-75.8360467"><ele>9.0</ele><time>2026-04-18T11:48:40.688Z</time></trkpt><trkpt lat="9.1545801" lon="-75.8359917"><ele>9.0</ele><time>2026-04-18T11:48:41.689Z</time></trkpt><trkpt lat="9.1546514" lon="-75.8359362"><ele>9.0</ele><time>2026-04-18T11:48:42.688Z</time></trkpt><trkpt lat="9.1547257" lon="-75.8358829"><ele>8.4</ele><time>2026-04-18T11:48:43.689Z</time></trkpt><trkpt lat="9.1547913" lon="-75.8358228"><ele>7.800000000000001</ele><time>2026-04-18T11:48:44.688Z</time></trkpt><trkpt lat="9.1548632" lon="-75.8357636"><ele>7.199999999999999</ele><time>2026-04-18T11:48:45.689Z</time></trkpt><trkpt lat="9.1549357" lon="-75.8357088"><ele>6.6</ele><time>2026-04-18T11:48:46.689Z</time></trkpt><trkpt lat="9.1550087" lon="-75.835649"><ele>6.0</ele><time>2026-04-18T11:48:47.688Z</time></trkpt><trkpt lat="9.1550795" lon="-75.8355886"><ele>6.0</ele><time>2026-04-18T11:48:48.69Z</time></trkpt><trkpt lat="9.1551511" lon="-75.8355343"><ele>6.0</ele><time>2026-04-18T11:48:49.689Z</time></trkpt><trkpt lat="9.1552198" lon="-75.8354789"><ele>6.0</ele><time>2026-04-18T11:48:50.69Z</time></trkpt><trkpt lat="9.1552916" lon="-75.8354218"><ele>6.0</ele><time>2026-04-18T11:48:51.688Z</time></trkpt><trkpt lat="9.1553646" lon="-75.835361"><ele>6.0</ele><time>2026-04-18T11:48:52.689Z</time></trkpt><trkpt lat="9.1554353" lon="-75.8353077"><ele>6.0</ele><time>2026-04-18T11:48:53.689Z</time></trkpt><trkpt lat="9.1555079" lon="-75.8352486"><ele>6.0</ele><time>2026-04-18T11:48:54.689Z</time></trkpt><trkpt lat="9.1555759" lon="-75.835189"><ele>6.0</ele><time>2026-04-18T11:48:55.689Z</time></trkpt><trkpt lat="9.1556441" lon="-75.8351315"><ele>6.0</ele><time>2026-04-18T11:48:56.689Z</time></trkpt><trkpt lat="9.1557184" lon="-75.8350745"><ele>6.0</ele><time>2026-04-18T11:48:57.688Z</time></trkpt><trkpt lat="9.1557863" lon="-75.8350182"><ele>6.0</ele><time>2026-04-18T11:48:58.688Z</time></trkpt><trkpt lat="9.1558594" lon="-75.8349614"><ele>6.0</ele><time>2026-04-18T11:48:59.689Z</time></trkpt><trkpt lat="9.1559298" lon="-75.8349045"><ele>6.0</ele><time>2026-04-18T11:49:00.689Z</time></trkpt><trkpt lat="9.1560014" lon="-75.8348512"><ele>6.0</ele><time>2026-04-18T11:49:01.689Z</time></trkpt><trkpt lat="9.1560706" lon="-75.8347996"><ele>6.0</ele><time>2026-04-18T11:49:02.69Z</time></trkpt><trkpt lat="9.1561415" lon="-75.8347427"><ele>6.0</ele><time>2026-04-18T11:49:03.689Z</time></trkpt><trkpt lat="9.1562102" lon="-75.8346856"><ele>6.0</ele><time>2026-04-18T11:49:04.688Z</time></trkpt><trkpt lat="9.1562812" lon="-75.8346251"><ele>6.0</ele><time>2026-04-18T11:49:05.689Z</time></trkpt><trkpt lat="9.1563543" lon="-75.834569"><ele>6.0</ele><time>2026-04-18T11:49:06.689Z</time></trkpt><trkpt lat="9.1564262" lon="-75.8345096"><ele>6.0</ele><time>2026-04-18T11:49:07.688Z</time></trkpt><trkpt lat="9.156499" lon="-75.8344535"><ele>6.0</ele><time>2026-04-18T11:49:08.689Z</time></trkpt><trkpt lat="9.1565674" lon="-75.834395"><ele>6.0</ele><time>2026-04-18T11:49:09.689Z</time></trkpt><trkpt lat="9.1566381" lon="-75.8343401"><ele>6.0</ele><time>2026-04-18T11:49:10.688Z</time></trkpt><trkpt lat="9.1567064" lon="-75.8342818"><ele>6.0</ele><time>2026-04-18T11:49:11.689Z</time></trkpt><trkpt lat="9.156777" lon="-75.8342205"><ele>6.0</ele><time>2026-04-18T11:49:12.69Z</time></trkpt><trkpt lat="9.1568523" lon="-75.8341621"><ele>6.0</ele><time>2026-04-18T11:49:13.689Z</time></trkpt><trkpt lat="9.156922" lon="-75.8341049"><ele>5.8</ele><time>2026-04-18T11:49:14.69Z</time></trkpt><trkpt lat="9.1569953" lon="-75.8340465"><ele>5.6</ele><time>2026-04-18T11:49:15.688Z</time></trkpt><trkpt lat="9.1570639" lon="-75.8339896"><ele>5.4</ele><time>2026-04-18T11:49:16.689Z</time></trkpt><trkpt lat="9.1571291" lon="-75.8339296"><ele>5.2</ele><time>2026-04-18T11:49:17.69Z</time></trkpt><trkpt lat="9.1571935" lon="-75.8338674"><ele>5.0</ele><time>2026-04-18T11:49:18.689Z</time></trkpt><trkpt lat="9.1572614" lon="-75.8338022"><ele>5.0</ele><time>2026-04-18T11:49:19.689Z</time></trkpt><trkpt lat="9.1573296" lon="-75.8337371"><ele>5.0</ele><time>2026-04-18T11:49:20.689Z</time></trkpt><trkpt lat="9.1573938" lon="-75.8336722"><ele>5.0</ele><time>2026-04-18T11:49:21.689Z</time></trkpt><trkpt lat="9.1574502" lon="-75.8336053"><ele>5.0</ele><time>2026-04-18T11:49:22.689Z</time></trkpt><trkpt lat="9.1575118" lon="-75.8335417"><ele>5.0</ele><time>2026-04-18T11:49:23.689Z</time></trkpt><trkpt lat="9.157575" lon="-75.8334735"><ele>5.0</ele><time>2026-04-18T11:49:24.688Z</time></trkpt><trkpt lat="9.1576347" lon="-75.8334018"><ele>5.0</ele><time>2026-04-18T11:49:25.687Z</time></trkpt><trkpt lat="9.1576917" lon="-75.8333338"><ele>5.0</ele><time>2026-04-18T11:49:26.689Z</time></trkpt><trkpt lat="9.1577474" lon="-75.8332684"><ele>5.0</ele><time>2026-04-18T11:49:27.689Z</time></trkpt><trkpt lat="9.1578033" lon="-75.8331978"><ele>5.0</ele><time>2026-04-18T11:49:28.69Z</time></trkpt><trkpt lat="9.1578625" lon="-75.8331303"><ele>5.0</ele><time>2026-04-18T11:49:29.689Z</time></trkpt><trkpt lat="9.1579214" lon="-75.833064"><ele>5.0</ele><time>2026-04-18T11:49:30.688Z</time></trkpt><trkpt lat="9.15798" lon="-75.832995"><ele>5.0</ele><time>2026-04-18T11:49:31.689Z</time></trkpt><trkpt lat="9.1580355" lon="-75.8329292"><ele>5.0</ele><time>2026-04-18T11:49:32.688Z</time></trkpt><trkpt lat="9.1580913" lon="-75.8328577"><ele>5.0</ele><time>2026-04-18T11:49:33.688Z</time></trkpt><trkpt lat="9.1581484" lon="-75.8327907"><ele>5.0</ele><time>2026-04-18T11:49:34.69Z</time></trkpt><trkpt lat="9.1582043" lon="-75.8327226"><ele>5.0</ele><time>2026-04-18T11:49:35.689Z</time></trkpt><trkpt lat="9.1582638" lon="-75.8326533"><ele>4.6</ele><time>2026-04-18T11:49:36.69Z</time></trkpt><trkpt lat="9.1583178" lon="-75.8325828"><ele>4.2</ele><time>2026-04-18T11:49:37.688Z</time></trkpt><trkpt lat="9.1583776" lon="-75.832515"><ele>3.8</ele><time>2026-04-18T11:49:38.689Z</time></trkpt><trkpt lat="9.1584397" lon="-75.8324427"><ele>3.4</ele><time>2026-04-18T11:49:39.689Z</time></trkpt><trkpt lat="9.1585016" lon="-75.8323745"><ele>3.0</ele><time>2026-04-18T11:49:40.689Z</time></trkpt><trkpt lat="9.1585639" lon="-75.832309"><ele>3.0</ele><time>2026-04-18T11:49:41.69Z</time></trkpt><trkpt lat="9.1586275" lon="-75.8322472"><ele>3.0</ele><time>2026-04-18T11:49:42.69Z</time></trkpt><trkpt lat="9.1586921" lon="-75.8321838"><ele>3.0</ele><time>2026-04-18T11:49:43.689Z</time></trkpt><trkpt lat="9.1587585" lon="-75.8321222"><ele>3.0</ele><time>2026-04-18T11:49:44.688Z</time></trkpt><trkpt lat="9.1588273" lon="-75.832063"><ele>3.0</ele><time>2026-04-18T11:49:45.688Z</time></trkpt><trkpt lat="9.1588968" lon="-75.8320074"><ele>3.0</ele><time>2026-04-18T11:49:46.688Z</time></trkpt><trkpt lat="9.1589683" lon="-75.8319503"><ele>3.0</ele><time>2026-04-18T11:49:47.688Z</time></trkpt><trkpt lat="9.1590395" lon="-75.8318965"><ele>3.0</ele><time>2026-04-18T11:49:48.69Z</time></trkpt><trkpt lat="9.159113" lon="-75.8318409"><ele>3.0</ele><time>2026-04-18T11:49:49.689Z</time></trkpt><trkpt lat="9.1591884" lon="-75.831788"><ele>3.0</ele><time>2026-04-18T11:49:50.69Z</time></trkpt><trkpt lat="9.1592644" lon="-75.8317376"><ele>3.0</ele><time>2026-04-18T11:49:51.688Z</time></trkpt><trkpt lat="9.1593437" lon="-75.8316846"><ele>3.0</ele><time>2026-04-18T11:49:52.689Z</time></trkpt><trkpt lat="9.15942" lon="-75.8316306"><ele>3.0</ele><time>2026-04-18T11:49:53.689Z</time></trkpt><trkpt lat="9.1594962" lon="-75.8315794"><ele>3.0</ele><time>2026-04-18T11:49:54.689Z</time></trkpt><trkpt lat="9.1595757" lon="-75.8315305"><ele>3.0</ele><time>2026-04-18T11:49:55.689Z</time></trkpt><trkpt lat="9.1596571" lon="-75.8314812"><ele>3.0</ele><time>2026-04-18T11:49:56.688Z</time></trkpt><trkpt lat="9.1597327" lon="-75.8314308"><ele>3.0</ele><time>2026-04-18T11:49:57.688Z</time></trkpt><trkpt lat="9.1598151" lon="-75.8313799"><ele>3.0</ele><time>2026-04-18T11:49:58.688Z</time></trkpt><trkpt lat="9.1598964" lon="-75.8313271"><ele>3.0</ele><time>2026-04-18T11:49:59.688Z</time></trkpt><trkpt lat="9.1599791" lon="-75.8312767"><ele>3.0</ele><time>2026-04-18T11:50:00.69Z</time></trkpt><trkpt lat="9.1600608" lon="-75.8312275"><ele>3.0</ele><time>2026-04-18T11:50:01.688Z</time></trkpt><trkpt lat="9.1601418" lon="-75.8311765"><ele>3.2</ele><time>2026-04-18T11:50:02.688Z</time></trkpt><trkpt lat="9.1602209" lon="-75.831125"><ele>3.4</ele><time>2026-04-18T11:50:03.688Z</time></trkpt><trkpt lat="9.1602991" lon="-75.8310722"><ele>3.6000000000000005</ele><time>2026-04-18T11:50:04.689Z</time></trkpt><trkpt lat="9.1603805" lon="-75.831022"><ele>3.8000000000000003</ele><time>2026-04-18T11:50:05.689Z</time></trkpt><trkpt lat="9.1604603" lon="-75.8309684"><ele>4.0</ele><time>2026-04-18T11:50:06.689Z</time></trkpt><trkpt lat="9.1605387" lon="-75.8309165"><ele>4.0</ele><time>2026-04-18T11:50:07.689Z</time></trkpt><trkpt lat="9.1606167" lon="-75.8308627"><ele>4.0</ele><time>2026-04-18T11:50:08.688Z</time></trkpt><trkpt lat="9.1606946" lon="-75.830806"><ele>4.0</ele><time>2026-04-18T11:50:09.689Z</time></trkpt><trkpt lat="9.1607656" lon="-75.8307475"><ele>4.0</ele><time>2026-04-18T11:50:10.688Z</time></trkpt><trkpt lat="9.160843" lon="-75.83069"><ele>4.0</ele><time>2026-04-18T11:50:11.688Z</time></trkpt><trkpt lat="9.1609159" lon="-75.8306311"><ele>4.4</ele><time>2026-04-18T11:50:12.688Z</time></trkpt><trkpt lat="9.1609898" lon="-75.8305755"><ele>4.800000000000001</ele><time>2026-04-18T11:50:13.688Z</time></trkpt><trkpt lat="9.1610615" lon="-75.8305133"><ele>5.199999999999999</ele><time>2026-04-18T11:50:14.688Z</time></trkpt><trkpt lat="9.1611365" lon="-75.8304514"><ele>5.6</ele><time>2026-04-18T11:50:15.689Z</time></trkpt><trkpt lat="9.1612081" lon="-75.8303957"><ele>6.0</ele><time>2026-04-18T11:50:16.689Z</time></trkpt><trkpt lat="9.1612778" lon="-75.8303359"><ele>6.0</ele><time>2026-04-18T11:50:17.688Z</time></trkpt><trkpt lat="9.1613512" lon="-75.8302737"><ele>6.0</ele><time>2026-04-18T11:50:18.688Z</time></trkpt><trkpt lat="9.1614192" lon="-75.830211"><ele>6.0</ele><time>2026-04-18T11:50:19.689Z</time></trkpt><trkpt lat="9.1614898" lon="-75.8301496"><ele>6.0</ele><time>2026-04-18T11:50:20.688Z</time></trkpt><trkpt lat="9.1615583" lon="-75.830088"><ele>6.0</ele><time>2026-04-18T11:50:21.688Z</time></trkpt><trkpt lat="9.1616271" lon="-75.8300261"><ele>5.6</ele><time>2026-04-18T11:50:22.689Z</time></trkpt><trkpt lat="9.1616969" lon="-75.8299638"><ele>5.199999999999999</ele><time>2026-04-18T11:50:23.689Z</time></trkpt><trkpt lat="9.1617684" lon="-75.8299036"><ele>4.800000000000001</ele><time>2026-04-18T11:50:24.688Z</time></trkpt><trkpt lat="9.1618391" lon="-75.8298424"><ele>4.4</ele><time>2026-04-18T11:50:25.688Z</time></trkpt><trkpt lat="9.1619076" lon="-75.8297814"><ele>4.0</ele><time>2026-04-18T11:50:26.689Z</time></trkpt><trkpt lat="9.1619749" lon="-75.8297191"><ele>4.0</ele><time>2026-04-18T11:50:27.688Z</time></trkpt><trkpt lat="9.1620463" lon="-75.829657"><ele>4.0</ele><time>2026-04-18T11:50:28.688Z</time></trkpt><trkpt lat="9.1621183" lon="-75.8295963"><ele>4.0</ele><time>2026-04-18T11:50:29.689Z</time></trkpt><trkpt lat="9.1621895" lon="-75.8295346"><ele>4.0</ele><time>2026-04-18T11:50:30.689Z</time></trkpt><trkpt lat="9.1622594" lon="-75.8294714"><ele>4.0</ele><time>2026-04-18T11:50:31.688Z</time></trkpt><trkpt lat="9.16233" lon="-75.8294087"><ele>4.2</ele><time>2026-04-18T11:50:32.688Z</time></trkpt><trkpt lat="9.1624018" lon="-75.8293486"><ele>4.4</ele><time>2026-04-18T11:50:33.689Z</time></trkpt><trkpt lat="9.1624735" lon="-75.829291"><ele>4.6</ele><time>2026-04-18T11:50:34.689Z</time></trkpt><trkpt lat="9.1625406" lon="-75.8292277"><ele>4.8</ele><time>2026-04-18T11:50:35.688Z</time></trkpt><trkpt lat="9.1626102" lon="-75.8291705"><ele>5.0</ele><time>2026-04-18T11:50:36.689Z</time></trkpt><trkpt lat="9.1626784" lon="-75.8291069"><ele>5.0</ele><time>2026-04-18T11:50:37.688Z</time></trkpt><trkpt lat="9.1627495" lon="-75.8290487"><ele>5.0</ele><time>2026-04-18T11:50:38.688Z</time></trkpt><trkpt lat="9.1628181" lon="-75.8289874"><ele>5.0</ele><time>2026-04-18T11:50:39.689Z</time></trkpt><trkpt lat="9.1628898" lon="-75.8289279"><ele>5.0</ele><time>2026-04-18T11:50:40.69Z</time></trkpt><trkpt lat="9.1629605" lon="-75.8288684"><ele>5.0</ele><time>2026-04-18T11:50:41.688Z</time></trkpt><trkpt lat="9.1630272" lon="-75.8288104"><ele>5.0</ele><time>2026-04-18T11:50:42.688Z</time></trkpt><trkpt lat="9.1630966" lon="-75.8287515"><ele>5.0</ele><time>2026-04-18T11:50:43.689Z</time></trkpt><trkpt lat="9.1631686" lon="-75.8286899"><ele>5.0</ele><time>2026-04-18T11:50:44.688Z</time></trkpt><trkpt lat="9.1632392" lon="-75.8286309"><ele>5.0</ele><time>2026-04-18T11:50:45.688Z</time></trkpt><trkpt lat="9.1633105" lon="-75.8285709"><ele>5.0</ele><time>2026-04-18T11:50:46.688Z</time></trkpt><trkpt lat="9.1633833" lon="-75.828511"><ele>4.8</ele><time>2026-04-18T11:50:47.688Z</time></trkpt><trkpt lat="9.1634529" lon="-75.8284516"><ele>4.6</ele><time>2026-04-18T11:50:48.688Z</time></trkpt><trkpt lat="9.163523" lon="-75.8283917"><ele>4.4</ele><time>2026-04-18T11:50:49.689Z</time></trkpt><trkpt lat="9.1635928" lon="-75.8283329"><ele>4.2</ele><time>2026-04-18T11:50:50.689Z</time></trkpt><trkpt lat="9.1636659" lon="-75.8282736"><ele>4.0</ele><time>2026-04-18T11:50:51.688Z</time></trkpt><trkpt lat="9.1637361" lon="-75.8282162"><ele>4.0</ele><time>2026-04-18T11:50:52.689Z</time></trkpt><trkpt lat="9.1638062" lon="-75.8281567"><ele>4.0</ele><time>2026-04-18T11:50:53.689Z</time></trkpt><trkpt lat="9.163874" lon="-75.8280982"><ele>4.0</ele><time>2026-04-18T11:50:54.688Z</time></trkpt><trkpt lat="9.1639425" lon="-75.8280382"><ele>4.0</ele><time>2026-04-18T11:50:55.689Z</time></trkpt><trkpt lat="9.1640139" lon="-75.82798"><ele>4.0</ele><time>2026-04-18T11:50:56.688Z</time></trkpt><trkpt lat="9.1640832" lon="-75.8279208"><ele>4.166666666666666</ele><time>2026-04-18T11:50:57.688Z</time></trkpt><trkpt lat="9.1641519" lon="-75.8278596"><ele>4.333333333333333</ele><time>2026-04-18T11:50:58.689Z</time></trkpt><trkpt lat="9.1642198" lon="-75.8278017"><ele>4.5</ele><time>2026-04-18T11:50:59.688Z</time></trkpt><trkpt lat="9.1642893" lon="-75.8277449"><ele>4.666666666666667</ele><time>2026-04-18T11:51:00.688Z</time></trkpt><trkpt lat="9.1643592" lon="-75.8276878"><ele>4.833333333333334</ele><time>2026-04-18T11:51:01.689Z</time></trkpt><trkpt lat="9.1644266" lon="-75.8276318"><ele>5.0</ele><time>2026-04-18T11:51:02.688Z</time></trkpt><trkpt lat="9.1644949" lon="-75.827577"><ele>5.166666666666667</ele><time>2026-04-18T11:51:03.689Z</time></trkpt><trkpt lat="9.1645658" lon="-75.827521"><ele>5.333333333333334</ele><time>2026-04-18T11:51:04.689Z</time></trkpt><trkpt lat="9.1646323" lon="-75.8274653"><ele>5.5</ele><time>2026-04-18T11:51:05.689Z</time></trkpt><trkpt lat="9.1647006" lon="-75.8274076"><ele>5.666666666666667</ele><time>2026-04-18T11:51:06.688Z</time></trkpt><trkpt lat="9.1647707" lon="-75.8273539"><ele>5.833333333333333</ele><time>2026-04-18T11:51:07.688Z</time></trkpt><trkpt lat="9.1648414" lon="-75.827297"><ele>6.0</ele><time>2026-04-18T11:51:08.688Z</time></trkpt><trkpt lat="9.1649114" lon="-75.827243"><ele>6.0</ele><time>2026-04-18T11:51:09.689Z</time></trkpt><trkpt lat="9.1649841" lon="-75.8271868"><ele>6.0</ele><time>2026-04-18T11:51:10.689Z</time></trkpt><trkpt lat="9.1650545" lon="-75.8271306"><ele>6.0</ele><time>2026-04-18T11:51:11.689Z</time></trkpt><trkpt lat="9.1651241" lon="-75.8270769"><ele>6.0</ele><time>2026-04-18T11:51:12.689Z</time></trkpt><trkpt lat="9.1651949" lon="-75.8270175"><ele>6.0</ele><time>2026-04-18T11:51:13.688Z</time></trkpt><trkpt lat="9.1652658" lon="-75.8269627"><ele>6.0</ele><time>2026-04-18T11:51:14.689Z</time></trkpt><trkpt lat="9.165334" lon="-75.8269075"><ele>6.0</ele><time>2026-04-18T11:51:15.688Z</time></trkpt><trkpt lat="9.1654056" lon="-75.8268527"><ele>6.0</ele><time>2026-04-18T11:51:16.69Z</time></trkpt><trkpt lat="9.1654737" lon="-75.8267986"><ele>6.0</ele><time>2026-04-18T11:51:17.688Z</time></trkpt><trkpt lat="9.1655439" lon="-75.8267429"><ele>6.0</ele><time>2026-04-18T11:51:18.688Z</time></trkpt><trkpt lat="9.1656193" lon="-75.8266873"><ele>6.0</ele><time>2026-04-18T11:51:19.688Z</time></trkpt><trkpt lat="9.1656902" lon="-75.8266316"><ele>6.0</ele><time>2026-04-18T11:51:20.688Z</time></trkpt><trkpt lat="9.1657613" lon="-75.8265709"><ele>6.0</ele><time>2026-04-18T11:51:21.689Z</time></trkpt><trkpt lat="9.1658304" lon="-75.8265158"><ele>6.0</ele><time>2026-04-18T11:51:22.689Z</time></trkpt><trkpt lat="9.1659" lon="-75.8264616"><ele>6.0</ele><time>2026-04-18T11:51:23.688Z</time></trkpt><trkpt lat="9.1659733" lon="-75.8264053"><ele>6.0</ele><time>2026-04-18T11:51:24.689Z</time></trkpt><trkpt lat="9.1660455" lon="-75.826345"><ele>6.0</ele><time>2026-04-18T11:51:25.689Z</time></trkpt><trkpt lat="9.1661164" lon="-75.8262887"><ele>6.0</ele><time>2026-04-18T11:51:26.69Z</time></trkpt><trkpt lat="9.1661864" lon="-75.8262384"><ele>6.0</ele><time>2026-04-18T11:51:27.689Z</time></trkpt><trkpt lat="9.1662571" lon="-75.826184"><ele>6.0</ele><time>2026-04-18T11:51:28.688Z</time></trkpt><trkpt lat="9.1663263" lon="-75.8261305"><ele>6.0</ele><time>2026-04-18T11:51:29.688Z</time></trkpt><trkpt lat="9.1663948" lon="-75.8260754"><ele>6.0</ele><time>2026-04-18T11:51:30.688Z</time></trkpt><trkpt lat="9.1664662" lon="-75.8260195"><ele>5.833333333333333</ele><time>2026-04-18T11:51:31.689Z</time></trkpt><trkpt lat="9.1665385" lon="-75.8259655"><ele>5.666666666666667</ele><time>2026-04-18T11:51:32.688Z</time></trkpt><trkpt lat="9.1666083" lon="-75.8259138"><ele>5.5</ele><time>2026-04-18T11:51:33.689Z</time></trkpt><trkpt lat="9.1666819" lon="-75.8258602"><ele>5.333333333333334</ele><time>2026-04-18T11:51:34.688Z</time></trkpt><trkpt lat="9.166753" lon="-75.8258045"><ele>5.166666666666667</ele><time>2026-04-18T11:51:35.688Z</time></trkpt><trkpt lat="9.1668232" lon="-75.8257492"><ele>5.0</ele><time>2026-04-18T11:51:36.688Z</time></trkpt><trkpt lat="9.1668896" lon="-75.8256912"><ele>5.0</ele><time>2026-04-18T11:51:37.688Z</time></trkpt><trkpt lat="9.1669595" lon="-75.8256345"><ele>5.0</ele><time>2026-04-18T11:51:38.688Z</time></trkpt><trkpt lat="9.1670313" lon="-75.8255802"><ele>5.0</ele><time>2026-04-18T11:51:39.688Z</time></trkpt><trkpt lat="9.1671023" lon="-75.8255214"><ele>5.0</ele><time>2026-04-18T11:51:40.688Z</time></trkpt><trkpt lat="9.1671755" lon="-75.8254659"><ele>5.0</ele><time>2026-04-18T11:51:41.688Z</time></trkpt><trkpt lat="9.1672452" lon="-75.8254125"><ele>5.0</ele><time>2026-04-18T11:51:42.689Z</time></trkpt><trkpt lat="9.1673122" lon="-75.8253585"><ele>5.0</ele><time>2026-04-18T11:51:43.688Z</time></trkpt><trkpt lat="9.16738" lon="-75.8253022"><ele>5.0</ele><time>2026-04-18T11:51:44.688Z</time></trkpt><trkpt lat="9.1674497" lon="-75.8252497"><ele>5.0</ele><time>2026-04-18T11:51:45.688Z</time></trkpt><trkpt lat="9.167519" lon="-75.8251939"><ele>5.0</ele><time>2026-04-18T11:51:46.688Z</time></trkpt><trkpt lat="9.1675872" lon="-75.8251367"><ele>5.0</ele><time>2026-04-18T11:51:47.688Z</time></trkpt><trkpt lat="9.1676557" lon="-75.8250802"><ele>5.0</ele><time>2026-04-18T11:51:48.689Z</time></trkpt><trkpt lat="9.1677203" lon="-75.8250263"><ele>5.0</ele><time>2026-04-18T11:51:49.689Z</time></trkpt><trkpt lat="9.1677903" lon="-75.8249705"><ele>5.0</ele><time>2026-04-18T11:51:50.688Z</time></trkpt><trkpt lat="9.1678575" lon="-75.8249136"><ele>5.0</ele><time>2026-04-18T11:51:51.689Z</time></trkpt><trkpt lat="9.1679234" lon="-75.8248573"><ele>5.0</ele><time>2026-04-18T11:51:52.689Z</time></trkpt><trkpt lat="9.1679947" lon="-75.8248039"><ele>5.0</ele><time>2026-04-18T11:51:53.688Z</time></trkpt><trkpt lat="9.1680601" lon="-75.8247496"><ele>5.0</ele><time>2026-04-18T11:51:54.688Z</time></trkpt><trkpt lat="9.1681297" lon="-75.8246985"><ele>5.0</ele><time>2026-04-18T11:51:55.688Z</time></trkpt><trkpt lat="9.1681943" lon="-75.824645"><ele>5.0</ele><time>2026-04-18T11:51:56.687Z</time></trkpt><trkpt lat="9.1682577" lon="-75.824592"><ele>5.0</ele><time>2026-04-18T11:51:57.688Z</time></trkpt><trkpt lat="9.168326" lon="-75.8245395"><ele>5.0</ele><time>2026-04-18T11:51:58.688Z</time></trkpt><trkpt lat="9.1683925" lon="-75.8244867"><ele>5.0</ele><time>2026-04-18T11:51:59.689Z</time></trkpt><trkpt lat="9.1684583" lon="-75.8244333"><ele>5.0</ele><time>2026-04-18T11:52:00.689Z</time></trkpt><trkpt lat="9.1685261" lon="-75.8243798"><ele>5.0</ele><time>2026-04-18T11:52:01.688Z</time></trkpt><trkpt lat="9.1685921" lon="-75.8243292"><ele>5.0</ele><time>2026-04-18T11:52:02.689Z</time></trkpt><trkpt lat="9.1686563" lon="-75.8242758"><ele>5.0</ele><time>2026-04-18T11:52:03.688Z</time></trkpt><trkpt lat="9.1687204" lon="-75.8242207"><ele>5.0</ele><time>2026-04-18T11:52:04.688Z</time></trkpt><trkpt lat="9.1687868" lon="-75.8241722"><ele>5.0</ele><time>2026-04-18T11:52:05.688Z</time></trkpt><trkpt lat="9.1688511" lon="-75.8241148"><ele>4.833333333333334</ele><time>2026-04-18T11:52:06.689Z</time></trkpt><trkpt lat="9.1689168" lon="-75.8240634"><ele>4.666666666666667</ele><time>2026-04-18T11:52:07.688Z</time></trkpt><trkpt lat="9.1689853" lon="-75.8240092"><ele>4.5</ele><time>2026-04-18T11:52:08.688Z</time></trkpt><trkpt lat="9.1690487" lon="-75.8239535"><ele>4.333333333333333</ele><time>2026-04-18T11:52:09.689Z</time></trkpt><trkpt lat="9.1691115" lon="-75.823892"><ele>4.166666666666666</ele><time>2026-04-18T11:52:10.689Z</time></trkpt><trkpt lat="9.1691754" lon="-75.8238397"><ele>4.0</ele><time>2026-04-18T11:52:11.689Z</time></trkpt><trkpt lat="9.1692467" lon="-75.8237831"><ele>3.9999999999999996</ele><time>2026-04-18T11:52:12.688Z</time></trkpt><trkpt lat="9.16932" lon="-75.8237317"><ele>4.0</ele><time>2026-04-18T11:52:13.689Z</time></trkpt><trkpt lat="9.1693881" lon="-75.8236781"><ele>4.0</ele><time>2026-04-18T11:52:14.689Z</time></trkpt><trkpt lat="9.16945" lon="-75.8236258"><ele>4.0</ele><time>2026-04-18T11:52:15.688Z</time></trkpt><trkpt lat="9.1695163" lon="-75.823572"><ele>3.9999999999999996</ele><time>2026-04-18T11:52:16.688Z</time></trkpt><trkpt lat="9.1695797" lon="-75.8235196"><ele>4.0</ele><time>2026-04-18T11:52:17.689Z</time></trkpt><trkpt lat="9.1696466" lon="-75.8234642"><ele>4.166666666666666</ele><time>2026-04-18T11:52:18.688Z</time></trkpt><trkpt lat="9.1697125" lon="-75.823412"><ele>4.333333333333333</ele><time>2026-04-18T11:52:19.688Z</time></trkpt><trkpt lat="9.1697806" lon="-75.8233608"><ele>4.5</ele><time>2026-04-18T11:52:20.688Z</time></trkpt><trkpt lat="9.1698477" lon="-75.8233058"><ele>4.666666666666667</ele><time>2026-04-18T11:52:21.688Z</time></trkpt><trkpt lat="9.1699147" lon="-75.8232523"><ele>4.833333333333334</ele><time>2026-04-18T11:52:22.688Z</time></trkpt><trkpt lat="9.1699821" lon="-75.8232022"><ele>5.0</ele><time>2026-04-18T11:52:23.689Z</time></trkpt><trkpt lat="9.1700506" lon="-75.8231487"><ele>5.0</ele><time>2026-04-18T11:52:24.688Z</time></trkpt><trkpt lat="9.1701196" lon="-75.823092"><ele>5.0</ele><time>2026-04-18T11:52:25.688Z</time></trkpt><trkpt lat="9.1701827" lon="-75.8230355"><ele>5.0</ele><time>2026-04-18T11:52:26.688Z</time></trkpt><trkpt lat="9.1702518" lon="-75.8229773"><ele>5.0</ele><time>2026-04-18T11:52:27.689Z</time></trkpt><trkpt lat="9.170324" lon="-75.822922"><ele>5.0</ele><time>2026-04-18T11:52:28.688Z</time></trkpt><trkpt lat="9.1703918" lon="-75.8228674"><ele>5.0</ele><time>2026-04-18T11:52:29.688Z</time></trkpt><trkpt lat="9.1704577" lon="-75.8228044"><ele>5.0</ele><time>2026-04-18T11:52:30.688Z</time></trkpt><trkpt lat="9.1705275" lon="-75.8227465"><ele>5.0</ele><time>2026-04-18T11:52:31.688Z</time></trkpt><trkpt lat="9.1705968" lon="-75.8226887"><ele>5.0</ele><time>2026-04-18T11:52:32.69Z</time></trkpt><trkpt lat="9.1706653" lon="-75.8226339"><ele>5.0</ele><time>2026-04-18T11:52:33.688Z</time></trkpt><trkpt lat="9.1707371" lon="-75.8225778"><ele>5.0</ele><time>2026-04-18T11:52:34.688Z</time></trkpt><trkpt lat="9.1708094" lon="-75.822522"><ele>5.0</ele><time>2026-04-18T11:52:35.688Z</time></trkpt><trkpt lat="9.1708794" lon="-75.8224659"><ele>5.666666666666667</ele><time>2026-04-18T11:52:36.688Z</time></trkpt><trkpt lat="9.1709491" lon="-75.8224111"><ele>6.333333333333334</ele><time>2026-04-18T11:52:37.689Z</time></trkpt><trkpt lat="9.1710197" lon="-75.8223583"><ele>7.0</ele><time>2026-04-18T11:52:38.688Z</time></trkpt><trkpt lat="9.171087" lon="-75.8223009"><ele>7.666666666666667</ele><time>2026-04-18T11:52:39.688Z</time></trkpt><trkpt lat="9.1711538" lon="-75.8222424"><ele>8.333333333333334</ele><time>2026-04-18T11:52:40.688Z</time></trkpt><trkpt lat="9.1712209" lon="-75.8221876"><ele>9.0</ele><time>2026-04-18T11:52:41.688Z</time></trkpt><trkpt lat="9.1712915" lon="-75.8221328"><ele>9.0</ele><time>2026-04-18T11:52:42.688Z</time></trkpt><trkpt lat="9.1713629" lon="-75.8220774"><ele>9.0</ele><time>2026-04-18T11:52:43.688Z</time></trkpt><trkpt lat="9.1714349" lon="-75.8220202"><ele>9.0</ele><time>2026-04-18T11:52:44.688Z</time></trkpt><trkpt lat="9.1715029" lon="-75.8219657"><ele>9.0</ele><time>2026-04-18T11:52:45.688Z</time></trkpt><trkpt lat="9.171573" lon="-75.8219088"><ele>9.0</ele><time>2026-04-18T11:52:46.689Z</time></trkpt><trkpt lat="9.1716452" lon="-75.8218534"><ele>9.0</ele><time>2026-04-18T11:52:47.688Z</time></trkpt><trkpt lat="9.1717158" lon="-75.8217966"><ele>8.833333333333334</ele><time>2026-04-18T11:52:48.689Z</time></trkpt><trkpt lat="9.1717844" lon="-75.8217407"><ele>8.666666666666666</ele><time>2026-04-18T11:52:49.688Z</time></trkpt><trkpt lat="9.1718535" lon="-75.8216865"><ele>8.5</ele><time>2026-04-18T11:52:50.687Z</time></trkpt><trkpt lat="9.1719206" lon="-75.8216334"><ele>8.333333333333332</ele><time>2026-04-18T11:52:51.688Z</time></trkpt><trkpt lat="9.1719878" lon="-75.8215805"><ele>8.166666666666666</ele><time>2026-04-18T11:52:52.688Z</time></trkpt><trkpt lat="9.1720549" lon="-75.821531"><ele>8.0</ele><time>2026-04-18T11:52:53.688Z</time></trkpt><trkpt lat="9.1721222" lon="-75.8214797"><ele>7.999999999999999</ele><time>2026-04-18T11:52:54.688Z</time></trkpt><trkpt lat="9.1721947" lon="-75.8214277"><ele>8.0</ele><time>2026-04-18T11:52:55.688Z</time></trkpt><trkpt lat="9.172262" lon="-75.8213727"><ele>8.0</ele><time>2026-04-18T11:52:56.688Z</time></trkpt><trkpt lat="9.1723291" lon="-75.8213198"><ele>8.0</ele><time>2026-04-18T11:52:57.688Z</time></trkpt><trkpt lat="9.1723986" lon="-75.821269"><ele>7.999999999999999</ele><time>2026-04-18T11:52:58.688Z</time></trkpt><trkpt lat="9.1724627" lon="-75.8212074"><ele>8.0</ele><time>2026-04-18T11:52:59.688Z</time></trkpt><trkpt lat="9.1725342" lon="-75.8211483"><ele>8.0</ele><time>2026-04-18T11:53:00.688Z</time></trkpt><trkpt lat="9.1726057" lon="-75.8210933"><ele>8.0</ele><time>2026-04-18T11:53:01.688Z</time></trkpt><trkpt lat="9.1726764" lon="-75.8210345"><ele>8.0</ele><time>2026-04-18T11:53:02.688Z</time></trkpt><trkpt lat="9.1727467" lon="-75.8209778"><ele>8.0</ele><time>2026-04-18T11:53:03.689Z</time></trkpt><trkpt lat="9.1728171" lon="-75.8209212"><ele>8.0</ele><time>2026-04-18T11:53:04.689Z</time></trkpt><trkpt lat="9.1728868" lon="-75.8208646"><ele>7.999999999999999</ele><time>2026-04-18T11:53:05.688Z</time></trkpt><trkpt lat="9.1729531" lon="-75.8208069"><ele>8.0</ele><time>2026-04-18T11:53:06.688Z</time></trkpt><trkpt lat="9.1730231" lon="-75.8207509"><ele>8.0</ele><time>2026-04-18T11:53:07.688Z</time></trkpt><trkpt lat="9.1730898" lon="-75.8206959"><ele>8.0</ele><time>2026-04-18T11:53:08.688Z</time></trkpt><trkpt lat="9.1731599" lon="-75.8206408"><ele>7.999999999999999</ele><time>2026-04-18T11:53:09.689Z</time></trkpt><trkpt lat="9.1732287" lon="-75.8205835"><ele>8.0</ele><time>2026-04-18T11:53:10.688Z</time></trkpt><trkpt lat="9.1732982" lon="-75.8205286"><ele>7.499999999999999</ele><time>2026-04-18T11:53:11.688Z</time></trkpt><trkpt lat="9.1733703" lon="-75.82047"><ele>7.0</ele><time>2026-04-18T11:53:12.688Z</time></trkpt><trkpt lat="9.1734359" lon="-75.8204137"><ele>6.5</ele><time>2026-04-18T11:53:13.688Z</time></trkpt><trkpt lat="9.1735038" lon="-75.8203593"><ele>6.0</ele><time>2026-04-18T11:53:14.689Z</time></trkpt><trkpt lat="9.1735716" lon="-75.820302"><ele>5.5</ele><time>2026-04-18T11:53:15.688Z</time></trkpt><trkpt lat="9.1736391" lon="-75.8202425"><ele>5.0</ele><time>2026-04-18T11:53:16.688Z</time></trkpt><trkpt lat="9.1737092" lon="-75.8201844"><ele>5.166666666666667</ele><time>2026-04-18T11:53:17.688Z</time></trkpt><trkpt lat="9.1737781" lon="-75.8201314"><ele>5.333333333333334</ele><time>2026-04-18T11:53:18.688Z</time></trkpt><trkpt lat="9.1738499" lon="-75.8200747"><ele>5.5</ele><time>2026-04-18T11:53:19.688Z</time></trkpt><trkpt lat="9.1739196" lon="-75.8200173"><ele>5.666666666666667</ele><time>2026-04-18T11:53:20.688Z</time></trkpt><trkpt lat="9.173989" lon="-75.8199568"><ele>5.833333333333333</ele><time>2026-04-18T11:53:21.688Z</time></trkpt><trkpt lat="9.1740549" lon="-75.8198989"><ele>6.0</ele><time>2026-04-18T11:53:22.688Z</time></trkpt><trkpt lat="9.1741233" lon="-75.8198441"><ele>6.0</ele><time>2026-04-18T11:53:23.688Z</time></trkpt><trkpt lat="9.1741943" lon="-75.8197849"><ele>6.0</ele><time>2026-04-18T11:53:24.688Z</time></trkpt><trkpt lat="9.1742616" lon="-75.819731"><ele>6.0</ele><time>2026-04-18T11:53:25.688Z</time></trkpt><trkpt lat="9.1743316" lon="-75.8196752"><ele>6.0</ele><time>2026-04-18T11:53:26.688Z</time></trkpt><trkpt lat="9.174404" lon="-75.8196176"><ele>6.0</ele><time>2026-04-18T11:53:27.687Z</time></trkpt><trkpt lat="9.1744735" lon="-75.8195623"><ele>6.0</ele><time>2026-04-18T11:53:28.689Z</time></trkpt><trkpt lat="9.1745444" lon="-75.8195086"><ele>6.0</ele><time>2026-04-18T11:53:29.688Z</time></trkpt><trkpt lat="9.1746134" lon="-75.8194525"><ele>6.0</ele><time>2026-04-18T11:53:30.688Z</time></trkpt><trkpt lat="9.174684" lon="-75.8193936"><ele>6.0</ele><time>2026-04-18T11:53:31.688Z</time></trkpt><trkpt lat="9.1747546" lon="-75.8193352"><ele>6.0</ele><time>2026-04-18T11:53:32.688Z</time></trkpt><trkpt lat="9.1748231" lon="-75.8192781"><ele>6.0</ele><time>2026-04-18T11:53:33.688Z</time></trkpt><trkpt lat="9.1748932" lon="-75.8192253"><ele>6.0</ele><time>2026-04-18T11:53:34.688Z</time></trkpt><trkpt lat="9.1749646" lon="-75.8191692"><ele>5.666666666666667</ele><time>2026-04-18T11:53:35.688Z</time></trkpt><trkpt lat="9.175034" lon="-75.8191177"><ele>5.333333333333333</ele><time>2026-04-18T11:53:36.688Z</time></trkpt><trkpt lat="9.1751078" lon="-75.8190639"><ele>5.0</ele><time>2026-04-18T11:53:37.688Z</time></trkpt><trkpt lat="9.1751818" lon="-75.8190149"><ele>4.666666666666666</ele><time>2026-04-18T11:53:38.688Z</time></trkpt><trkpt lat="9.175258" lon="-75.818966"><ele>4.333333333333333</ele><time>2026-04-18T11:53:39.688Z</time></trkpt><trkpt lat="9.1753303" lon="-75.8189197"><ele>4.0</ele><time>2026-04-18T11:53:40.688Z</time></trkpt><trkpt lat="9.175404" lon="-75.818874"><ele>3.9999999999999996</ele><time>2026-04-18T11:53:41.688Z</time></trkpt><trkpt lat="9.1754789" lon="-75.818829"><ele>4.0</ele><time>2026-04-18T11:53:42.689Z</time></trkpt><trkpt lat="9.1755573" lon="-75.8187833"><ele>4.0</ele><time>2026-04-18T11:53:43.688Z</time></trkpt><trkpt lat="9.1756352" lon="-75.8187385"><ele>4.0</ele><time>2026-04-18T11:53:44.688Z</time></trkpt><trkpt lat="9.1757126" lon="-75.8186933"><ele>3.9999999999999996</ele><time>2026-04-18T11:53:45.688Z</time></trkpt><trkpt lat="9.1757894" lon="-75.8186472"><ele>4.0</ele><time>2026-04-18T11:53:46.688Z</time></trkpt><trkpt lat="9.1758694" lon="-75.8186018"><ele>4.166666666666666</ele><time>2026-04-18T11:53:47.688Z</time></trkpt><trkpt lat="9.1759442" lon="-75.8185581"><ele>4.333333333333333</ele><time>2026-04-18T11:53:48.688Z</time></trkpt><trkpt lat="9.1760192" lon="-75.818512"><ele>4.5</ele><time>2026-04-18T11:53:49.688Z</time></trkpt><trkpt lat="9.1760971" lon="-75.8184678"><ele>4.666666666666667</ele><time>2026-04-18T11:53:50.688Z</time></trkpt><trkpt lat="9.176176" lon="-75.8184205"><ele>4.833333333333334</ele><time>2026-04-18T11:53:51.688Z</time></trkpt><trkpt lat="9.1762546" lon="-75.8183797"><ele>5.0</ele><time>2026-04-18T11:53:52.687Z</time></trkpt><trkpt lat="9.1763304" lon="-75.8183349"><ele>5.166666666666667</ele><time>2026-04-18T11:53:53.688Z</time></trkpt><trkpt lat="9.176403" lon="-75.8182877"><ele>5.333333333333334</ele><time>2026-04-18T11:53:54.688Z</time></trkpt><trkpt lat="9.1764769" lon="-75.8182422"><ele>5.5</ele><time>2026-04-18T11:53:55.688Z</time></trkpt><trkpt lat="9.1765514" lon="-75.8181949"><ele>5.666666666666667</ele><time>2026-04-18T11:53:56.689Z</time></trkpt><trkpt lat="9.1766227" lon="-75.8181454"><ele>5.833333333333333</ele><time>2026-04-18T11:53:57.688Z</time></trkpt><trkpt lat="9.1766946" lon="-75.8180973"><ele>6.0</ele><time>2026-04-18T11:53:58.688Z</time></trkpt><trkpt lat="9.1767605" lon="-75.818048"><ele>6.0</ele><time>2026-04-18T11:53:59.688Z</time></trkpt><trkpt lat="9.1768335" lon="-75.8179979"><ele>6.0</ele><time>2026-04-18T11:54:00.688Z</time></trkpt><trkpt lat="9.1769071" lon="-75.8179475"><ele>6.0</ele><time>2026-04-18T11:54:01.686Z</time></trkpt><trkpt lat="9.1769771" lon="-75.817898"><ele>6.0</ele><time>2026-04-18T11:54:02.688Z</time></trkpt><trkpt lat="9.1770488" lon="-75.8178444"><ele>6.0</ele><time>2026-04-18T11:54:03.688Z</time></trkpt><trkpt lat="9.1771141" lon="-75.8177897"><ele>6.0</ele><time>2026-04-18T11:54:04.688Z</time></trkpt><trkpt lat="9.1771794" lon="-75.8177323"><ele>6.0</ele><time>2026-04-18T11:54:05.689Z</time></trkpt><trkpt lat="9.1772485" lon="-75.8176793"><ele>6.0</ele><time>2026-04-18T11:54:06.689Z</time></trkpt><trkpt lat="9.1773157" lon="-75.8176233"><ele>6.0</ele><time>2026-04-18T11:54:07.689Z</time></trkpt><trkpt lat="9.1773845" lon="-75.8175685"><ele>6.0</ele><time>2026-04-18T11:54:08.688Z</time></trkpt><trkpt lat="9.1774506" lon="-75.8175123"><ele>6.0</ele><time>2026-04-18T11:54:09.688Z</time></trkpt><trkpt lat="9.1775167" lon="-75.817457"><ele>6.0</ele><time>2026-04-18T11:54:10.688Z</time></trkpt><trkpt lat="9.1775865" lon="-75.8174026"><ele>6.0</ele><time>2026-04-18T11:54:11.688Z</time></trkpt><trkpt lat="9.1776536" lon="-75.8173496"><ele>6.0</ele><time>2026-04-18T11:54:12.688Z</time></trkpt><trkpt lat="9.1777243" lon="-75.8172936"><ele>6.0</ele><time>2026-04-18T11:54:13.687Z</time></trkpt><trkpt lat="9.1777928" lon="-75.8172402"><ele>6.0</ele><time>2026-04-18T11:54:14.688Z</time></trkpt><trkpt lat="9.1778624" lon="-75.817185"><ele>6.0</ele><time>2026-04-18T11:54:15.688Z</time></trkpt><trkpt lat="9.1779291" lon="-75.8171312"><ele>6.0</ele><time>2026-04-18T11:54:16.688Z</time></trkpt><trkpt lat="9.1779982" lon="-75.8170767"><ele>6.0</ele><time>2026-04-18T11:54:17.688Z</time></trkpt><trkpt lat="9.1780668" lon="-75.8170178"><ele>6.0</ele><time>2026-04-18T11:54:18.688Z</time></trkpt><trkpt lat="9.1781346" lon="-75.8169627"><ele>6.0</ele><time>2026-04-18T11:54:19.688Z</time></trkpt><trkpt lat="9.1782033" lon="-75.8169074"><ele>6.0</ele><time>2026-04-18T11:54:20.688Z</time></trkpt><trkpt lat="9.1782716" lon="-75.8168522"><ele>6.0</ele><time>2026-04-18T11:54:21.688Z</time></trkpt><trkpt lat="9.1783438" lon="-75.8167978"><ele>6.0</ele><time>2026-04-18T11:54:22.688Z</time></trkpt><trkpt lat="9.1784128" lon="-75.816741"><ele>5.833333333333333</ele><time>2026-04-18T11:54:23.687Z</time></trkpt><trkpt lat="9.1784817" lon="-75.8166839"><ele>5.666666666666667</ele><time>2026-04-18T11:54:24.687Z</time></trkpt><trkpt lat="9.17855" lon="-75.8166328"><ele>5.5</ele><time>2026-04-18T11:54:25.689Z</time></trkpt><trkpt lat="9.1786199" lon="-75.8165798"><ele>5.333333333333334</ele><time>2026-04-18T11:54:26.688Z</time></trkpt><trkpt lat="9.1786882" lon="-75.8165249"><ele>5.166666666666667</ele><time>2026-04-18T11:54:27.688Z</time></trkpt><trkpt lat="9.1787591" lon="-75.8164747"><ele>5.0</ele><time>2026-04-18T11:54:28.687Z</time></trkpt><trkpt lat="9.1788292" lon="-75.8164243"><ele>5.0</ele><time>2026-04-18T11:54:29.689Z</time></trkpt><trkpt lat="9.1788972" lon="-75.8163752"><ele>5.0</ele><time>2026-04-18T11:54:30.688Z</time></trkpt><trkpt lat="9.1789705" lon="-75.8163283"><ele>5.0</ele><time>2026-04-18T11:54:31.687Z</time></trkpt><trkpt lat="9.1790413" lon="-75.81628"><ele>5.0</ele><time>2026-04-18T11:54:32.688Z</time></trkpt><trkpt lat="9.1791131" lon="-75.8162303"><ele>5.0</ele><time>2026-04-18T11:54:33.687Z</time></trkpt><trkpt lat="9.1791868" lon="-75.816185"><ele>5.0</ele><time>2026-04-18T11:54:34.688Z</time></trkpt><trkpt lat="9.1792621" lon="-75.8161399"><ele>5.166666666666667</ele><time>2026-04-18T11:54:35.688Z</time></trkpt><trkpt lat="9.1793382" lon="-75.8160981"><ele>5.333333333333334</ele><time>2026-04-18T11:54:36.688Z</time></trkpt><trkpt lat="9.179414" lon="-75.816057"><ele>5.5</ele><time>2026-04-18T11:54:37.689Z</time></trkpt><trkpt lat="9.1794896" lon="-75.816016"><ele>5.666666666666667</ele><time>2026-04-18T11:54:38.688Z</time></trkpt><trkpt lat="9.1795656" lon="-75.8159759"><ele>5.833333333333333</ele><time>2026-04-18T11:54:39.688Z</time></trkpt><trkpt lat="9.1796434" lon="-75.8159384"><ele>6.0</ele><time>2026-04-18T11:54:40.687Z</time></trkpt><trkpt lat="9.1797189" lon="-75.8159025"><ele>5.833333333333333</ele><time>2026-04-18T11:54:41.689Z</time></trkpt><trkpt lat="9.1797963" lon="-75.8158647"><ele>5.666666666666667</ele><time>2026-04-18T11:54:42.688Z</time></trkpt><trkpt lat="9.1798764" lon="-75.815832"><ele>5.5</ele><time>2026-04-18T11:54:43.688Z</time></trkpt><trkpt lat="9.1799547" lon="-75.8157977"><ele>5.333333333333334</ele><time>2026-04-18T11:54:44.689Z</time></trkpt><trkpt lat="9.1800377" lon="-75.815769"><ele>5.166666666666667</ele><time>2026-04-18T11:54:45.688Z</time></trkpt><trkpt lat="9.1801201" lon="-75.8157411"><ele>5.0</ele><time>2026-04-18T11:54:46.688Z</time></trkpt><trkpt lat="9.1801983" lon="-75.8157144"><ele>5.0</ele><time>2026-04-18T11:54:47.687Z</time></trkpt><trkpt lat="9.1802801" lon="-75.8156837"><ele>5.0</ele><time>2026-04-18T11:54:48.687Z</time></trkpt><trkpt lat="9.1803628" lon="-75.8156557"><ele>5.0</ele><time>2026-04-18T11:54:49.688Z</time></trkpt><trkpt lat="9.1804424" lon="-75.8156327"><ele>5.0</ele><time>2026-04-18T11:54:50.688Z</time></trkpt><trkpt lat="9.1805268" lon="-75.8156066"><ele>5.0</ele><time>2026-04-18T11:54:51.688Z</time></trkpt><trkpt lat="9.1806102" lon="-75.8155862"><ele>5.0</ele><time>2026-04-18T11:54:52.689Z</time></trkpt><trkpt lat="9.1806927" lon="-75.8155653"><ele>4.833333333333334</ele><time>2026-04-18T11:54:53.688Z</time></trkpt><trkpt lat="9.1807795" lon="-75.8155445"><ele>4.666666666666667</ele><time>2026-04-18T11:54:54.686Z</time></trkpt><trkpt lat="9.1808656" lon="-75.8155285"><ele>4.5</ele><time>2026-04-18T11:54:55.688Z</time></trkpt><trkpt lat="9.1809527" lon="-75.8155122"><ele>4.333333333333333</ele><time>2026-04-18T11:54:56.688Z</time></trkpt><trkpt lat="9.181041" lon="-75.8154956"><ele>4.166666666666666</ele><time>2026-04-18T11:54:57.688Z</time></trkpt><trkpt lat="9.1811268" lon="-75.8154805"><ele>4.0</ele><time>2026-04-18T11:54:58.688Z</time></trkpt><trkpt lat="9.1812125" lon="-75.8154695"><ele>3.9999999999999996</ele><time>2026-04-18T11:54:59.688Z</time></trkpt><trkpt lat="9.1813009" lon="-75.8154577"><ele>4.0</ele><time>2026-04-18T11:55:00.688Z</time></trkpt><trkpt lat="9.1813899" lon="-75.8154474"><ele>4.0</ele><time>2026-04-18T11:55:01.687Z</time></trkpt><trkpt lat="9.1814784" lon="-75.8154436"><ele>4.0</ele><time>2026-04-18T11:55:02.688Z</time></trkpt><trkpt lat="9.1815629" lon="-75.8154339"><ele>3.9999999999999996</ele><time>2026-04-18T11:55:03.688Z</time></trkpt><trkpt lat="9.1816509" lon="-75.81543"><ele>4.0</ele><time>2026-04-18T11:55:04.687Z</time></trkpt><trkpt lat="9.1817384" lon="-75.81543"><ele>3.8000000000000003</ele><time>2026-04-18T11:55:05.688Z</time></trkpt><trkpt lat="9.1818328" lon="-75.8154249"><ele>3.6000000000000005</ele><time>2026-04-18T11:55:06.688Z</time></trkpt><trkpt lat="9.1819255" lon="-75.8154246"><ele>3.4</ele><time>2026-04-18T11:55:07.688Z</time></trkpt><trkpt lat="9.1820142" lon="-75.8154278"><ele>3.2</ele><time>2026-04-18T11:55:08.688Z</time></trkpt><trkpt lat="9.1821041" lon="-75.8154289"><ele>3.0</ele><time>2026-04-18T11:55:09.688Z</time></trkpt><trkpt lat="9.1821944" lon="-75.8154306"><ele>3.0</ele><time>2026-04-18T11:55:10.689Z</time></trkpt><trkpt lat="9.1822849" lon="-75.8154345"><ele>3.0</ele><time>2026-04-18T11:55:11.687Z</time></trkpt><trkpt lat="9.1823728" lon="-75.8154378"><ele>3.0</ele><time>2026-04-18T11:55:12.688Z</time></trkpt><trkpt lat="9.1824608" lon="-75.8154442"><ele>3.0</ele><time>2026-04-18T11:55:13.688Z</time></trkpt><trkpt lat="9.1825493" lon="-75.8154489"><ele>3.0</ele><time>2026-04-18T11:55:14.688Z</time></trkpt><trkpt lat="9.1826383" lon="-75.8154492"><ele>3.0</ele><time>2026-04-18T11:55:15.688Z</time></trkpt><trkpt lat="9.1827273" lon="-75.8154489"><ele>3.3333333333333335</ele><time>2026-04-18T11:55:16.688Z</time></trkpt><trkpt lat="9.1828133" lon="-75.8154538"><ele>3.666666666666667</ele><time>2026-04-18T11:55:17.688Z</time></trkpt><trkpt lat="9.1828993" lon="-75.8154591"><ele>4.0</ele><time>2026-04-18T11:55:18.689Z</time></trkpt><trkpt lat="9.1829852" lon="-75.8154622"><ele>4.333333333333334</ele><time>2026-04-18T11:55:19.687Z</time></trkpt><trkpt lat="9.1830707" lon="-75.8154648"><ele>4.666666666666667</ele><time>2026-04-18T11:55:20.688Z</time></trkpt><trkpt lat="9.1831533" lon="-75.8154651"><ele>5.0</ele><time>2026-04-18T11:55:21.689Z</time></trkpt><trkpt lat="9.1832399" lon="-75.815469"><ele>5.0</ele><time>2026-04-18T11:55:22.688Z</time></trkpt><trkpt lat="9.183325" lon="-75.8154713"><ele>5.0</ele><time>2026-04-18T11:55:23.688Z</time></trkpt><trkpt lat="9.1834091" lon="-75.8154736"><ele>5.0</ele><time>2026-04-18T11:55:24.689Z</time></trkpt><trkpt lat="9.1834972" lon="-75.8154788"><ele>5.0</ele><time>2026-04-18T11:55:25.688Z</time></trkpt><trkpt lat="9.1835828" lon="-75.815486"><ele>5.0</ele><time>2026-04-18T11:55:26.687Z</time></trkpt><trkpt lat="9.1836657" lon="-75.8154865"><ele>5.0</ele><time>2026-04-18T11:55:27.688Z</time></trkpt><trkpt lat="9.1837503" lon="-75.815488"><ele>5.0</ele><time>2026-04-18T11:55:28.688Z</time></trkpt><trkpt lat="9.1838359" lon="-75.8154904"><ele>5.0</ele><time>2026-04-18T11:55:29.688Z</time></trkpt><trkpt lat="9.1839229" lon="-75.8154922"><ele>5.0</ele><time>2026-04-18T11:55:30.688Z</time></trkpt><trkpt lat="9.1840104" lon="-75.8154974"><ele>5.0</ele><time>2026-04-18T11:55:31.687Z</time></trkpt><trkpt lat="9.1840949" lon="-75.8154985"><ele>5.0</ele><time>2026-04-18T11:55:32.688Z</time></trkpt><trkpt lat="9.1841827" lon="-75.8155022"><ele>5.0</ele><time>2026-04-18T11:55:33.688Z</time></trkpt><trkpt lat="9.1842695" lon="-75.8155071"><ele>4.833333333333334</ele><time>2026-04-18T11:55:34.687Z</time></trkpt><trkpt lat="9.1843526" lon="-75.8155101"><ele>4.666666666666667</ele><time>2026-04-18T11:55:35.688Z</time></trkpt><trkpt lat="9.1844415" lon="-75.8155123"><ele>4.5</ele><time>2026-04-18T11:55:36.688Z</time></trkpt><trkpt lat="9.1845309" lon="-75.815519"><ele>4.333333333333333</ele><time>2026-04-18T11:55:37.688Z</time></trkpt><trkpt lat="9.1846161" lon="-75.8155197"><ele>4.166666666666666</ele><time>2026-04-18T11:55:38.687Z</time></trkpt><trkpt lat="9.1847046" lon="-75.815523"><ele>4.0</ele><time>2026-04-18T11:55:39.688Z</time></trkpt><trkpt lat="9.184792" lon="-75.8155268"><ele>3.9999999999999996</ele><time>2026-04-18T11:55:40.687Z</time></trkpt><trkpt lat="9.184881" lon="-75.8155303"><ele>4.0</ele><time>2026-04-18T11:55:41.688Z</time></trkpt><trkpt lat="9.1849702" lon="-75.8155325"><ele>4.0</ele><time>2026-04-18T11:55:42.689Z</time></trkpt><trkpt lat="9.1850592" lon="-75.8155362"><ele>4.0</ele><time>2026-04-18T11:55:43.689Z</time></trkpt><trkpt lat="9.1851461" lon="-75.8155389"><ele>3.9999999999999996</ele><time>2026-04-18T11:55:44.688Z</time></trkpt><trkpt lat="9.1852264" lon="-75.8155422"><ele>4.0</ele><time>2026-04-18T11:55:45.688Z</time></trkpt><trkpt lat="9.185311" lon="-75.8155441"><ele>3.9999999999999996</ele><time>2026-04-18T11:55:46.687Z</time></trkpt><trkpt lat="9.185395" lon="-75.8155459"><ele>4.0</ele><time>2026-04-18T11:55:47.688Z</time></trkpt><trkpt lat="9.1854832" lon="-75.8155516"><ele>4.0</ele><time>2026-04-18T11:55:48.687Z</time></trkpt><trkpt lat="9.1855694" lon="-75.8155564"><ele>4.0</ele><time>2026-04-18T11:55:49.688Z</time></trkpt><trkpt lat="9.185653" lon="-75.8155545"><ele>3.9999999999999996</ele><time>2026-04-18T11:55:50.688Z</time></trkpt><trkpt lat="9.1857398" lon="-75.8155623"><ele>4.0</ele><time>2026-04-18T11:55:51.688Z</time></trkpt><trkpt lat="9.1858276" lon="-75.8155673"><ele>3.833333333333333</ele><time>2026-04-18T11:55:52.687Z</time></trkpt><trkpt lat="9.185915" lon="-75.81557"><ele>3.6666666666666665</ele><time>2026-04-18T11:55:53.688Z</time></trkpt><trkpt lat="9.1860012" lon="-75.8155717"><ele>3.5</ele><time>2026-04-18T11:55:54.688Z</time></trkpt><trkpt lat="9.1860894" lon="-75.8155739"><ele>3.333333333333333</ele><time>2026-04-18T11:55:55.688Z</time></trkpt><trkpt lat="9.1861801" lon="-75.8155793"><ele>3.1666666666666665</ele><time>2026-04-18T11:55:56.687Z</time></trkpt><trkpt lat="9.1862663" lon="-75.815586"><ele>3.0</ele><time>2026-04-18T11:55:57.687Z</time></trkpt><trkpt lat="9.1863527" lon="-75.8155929"><ele>3.0</ele><time>2026-04-18T11:55:58.687Z</time></trkpt><trkpt lat="9.1864415" lon="-75.8155975"><ele>3.0</ele><time>2026-04-18T11:55:59.688Z</time></trkpt><trkpt lat="9.1865296" lon="-75.8155982"><ele>3.0</ele><time>2026-04-18T11:56:00.688Z</time></trkpt><trkpt lat="9.1866181" lon="-75.8156027"><ele>3.0</ele><time>2026-04-18T11:56:01.688Z</time></trkpt><trkpt lat="9.1867048" lon="-75.815606"><ele>3.0</ele><time>2026-04-18T11:56:02.687Z</time></trkpt><trkpt lat="9.186793" lon="-75.8156124"><ele>3.0</ele><time>2026-04-18T11:56:03.687Z</time></trkpt><trkpt lat="9.1868815" lon="-75.8156152"><ele>3.1666666666666665</ele><time>2026-04-18T11:56:04.687Z</time></trkpt><trkpt lat="9.1869684" lon="-75.8156171"><ele>3.333333333333333</ele><time>2026-04-18T11:56:05.687Z</time></trkpt><trkpt lat="9.187058" lon="-75.8156181"><ele>3.5</ele><time>2026-04-18T11:56:06.688Z</time></trkpt><trkpt lat="9.1871459" lon="-75.8156153"><ele>3.6666666666666665</ele><time>2026-04-18T11:56:07.689Z</time></trkpt><trkpt lat="9.187232" lon="-75.8156164"><ele>3.833333333333333</ele><time>2026-04-18T11:56:08.687Z</time></trkpt><trkpt lat="9.1873218" lon="-75.8156209"><ele>4.0</ele><time>2026-04-18T11:56:09.688Z</time></trkpt><trkpt lat="9.1874086" lon="-75.8156204"><ele>3.9999999999999996</ele><time>2026-04-18T11:56:10.687Z</time></trkpt><trkpt lat="9.1874969" lon="-75.8156271"><ele>4.0</ele><time>2026-04-18T11:56:11.687Z</time></trkpt><trkpt lat="9.1875759" lon="-75.8156335"><ele>4.0</ele><time>2026-04-18T11:56:12.688Z</time></trkpt><trkpt lat="9.1876594" lon="-75.8156359"><ele>4.0</ele><time>2026-04-18T11:56:13.689Z</time></trkpt><trkpt lat="9.1877441" lon="-75.8156441"><ele>3.9999999999999996</ele><time>2026-04-18T11:56:14.688Z</time></trkpt><trkpt lat="9.1878287" lon="-75.8156495"><ele>4.0</ele><time>2026-04-18T11:56:15.687Z</time></trkpt><trkpt lat="9.1879125" lon="-75.815652"><ele>3.9999999999999996</ele><time>2026-04-18T11:56:16.688Z</time></trkpt><trkpt lat="9.1879961" lon="-75.8156568"><ele>4.0</ele><time>2026-04-18T11:56:17.688Z</time></trkpt><trkpt lat="9.1880839" lon="-75.8156599"><ele>4.0</ele><time>2026-04-18T11:56:18.687Z</time></trkpt><trkpt lat="9.1881696" lon="-75.8156621"><ele>4.0</ele><time>2026-04-18T11:56:19.687Z</time></trkpt><trkpt lat="9.1882569" lon="-75.8156655"><ele>3.9999999999999996</ele><time>2026-04-18T11:56:20.687Z</time></trkpt><trkpt lat="9.1883441" lon="-75.815667"><ele>4.0</ele><time>2026-04-18T11:56:21.687Z</time></trkpt><trkpt lat="9.1884306" lon="-75.8156708"><ele>4.5</ele><time>2026-04-18T11:56:22.688Z</time></trkpt><trkpt lat="9.1885191" lon="-75.8156729"><ele>5.0</ele><time>2026-04-18T11:56:23.688Z</time></trkpt><trkpt lat="9.1886065" lon="-75.8156756"><ele>5.5</ele><time>2026-04-18T11:56:24.689Z</time></trkpt><trkpt lat="9.1886955" lon="-75.8156795"><ele>6.0</ele><time>2026-04-18T11:56:25.687Z</time></trkpt><trkpt lat="9.1887836" lon="-75.8156839"><ele>6.500000000000001</ele><time>2026-04-18T11:56:26.688Z</time></trkpt><trkpt lat="9.1888683" lon="-75.8156866"><ele>7.0</ele><time>2026-04-18T11:56:27.688Z</time></trkpt><trkpt lat="9.1889541" lon="-75.8156894"><ele>7.166666666666667</ele><time>2026-04-18T11:56:28.688Z</time></trkpt><trkpt lat="9.1890428" lon="-75.8156931"><ele>7.333333333333334</ele><time>2026-04-18T11:56:29.687Z</time></trkpt><trkpt lat="9.189132" lon="-75.8156984"><ele>7.5</ele><time>2026-04-18T11:56:30.689Z</time></trkpt><trkpt lat="9.1892166" lon="-75.8157036"><ele>7.666666666666666</ele><time>2026-04-18T11:56:31.688Z</time></trkpt><trkpt lat="9.1893041" lon="-75.8157065"><ele>7.833333333333333</ele><time>2026-04-18T11:56:32.687Z</time></trkpt><trkpt lat="9.1893896" lon="-75.8157041"><ele>8.0</ele><time>2026-04-18T11:56:33.688Z</time></trkpt><trkpt lat="9.1894782" lon="-75.8157102"><ele>7.999999999999999</ele><time>2026-04-18T11:56:34.688Z</time></trkpt><trkpt lat="9.1895668" lon="-75.8157143"><ele>8.0</ele><time>2026-04-18T11:56:35.687Z</time></trkpt><trkpt lat="9.1896511" lon="-75.8157177"><ele>8.0</ele><time>2026-04-18T11:56:36.687Z</time></trkpt><trkpt lat="9.1897319" lon="-75.8157217"><ele>8.0</ele><time>2026-04-18T11:56:37.688Z</time></trkpt><trkpt lat="9.1898225" lon="-75.8157267"><ele>7.999999999999999</ele><time>2026-04-18T11:56:38.688Z</time></trkpt><trkpt lat="9.1899114" lon="-75.8157332"><ele>8.0</ele><time>2026-04-18T11:56:39.689Z</time></trkpt><trkpt lat="9.1899979" lon="-75.815735"><ele>8.166666666666666</ele><time>2026-04-18T11:56:40.688Z</time></trkpt><trkpt lat="9.1900843" lon="-75.8157405"><ele>8.333333333333332</ele><time>2026-04-18T11:56:41.688Z</time></trkpt><trkpt lat="9.1901688" lon="-75.8157448"><ele>8.5</ele><time>2026-04-18T11:56:42.687Z</time></trkpt><trkpt lat="9.1902546" lon="-75.8157473"><ele>8.666666666666666</ele><time>2026-04-18T11:56:43.687Z</time></trkpt><trkpt lat="9.1903379" lon="-75.8157432"><ele>8.833333333333334</ele><time>2026-04-18T11:56:44.688Z</time></trkpt><trkpt lat="9.1904196" lon="-75.8157488"><ele>9.0</ele><time>2026-04-18T11:56:45.688Z</time></trkpt><trkpt lat="9.1905043" lon="-75.815755"><ele>9.0</ele><time>2026-04-18T11:56:46.687Z</time></trkpt><trkpt lat="9.1905914" lon="-75.8157564"><ele>9.0</ele><time>2026-04-18T11:56:47.688Z</time></trkpt><trkpt lat="9.1906787" lon="-75.8157591"><ele>9.0</ele><time>2026-04-18T11:56:48.688Z</time></trkpt><trkpt lat="9.1907638" lon="-75.8157613"><ele>9.0</ele><time>2026-04-18T11:56:49.688Z</time></trkpt><trkpt lat="9.1908451" lon="-75.8157616"><ele>9.0</ele><time>2026-04-18T11:56:50.687Z</time></trkpt><trkpt lat="9.1909332" lon="-75.8157678"><ele>9.0</ele><time>2026-04-18T11:56:51.688Z</time></trkpt><trkpt lat="9.1910193" lon="-75.8157718"><ele>8.5</ele><time>2026-04-18T11:56:52.687Z</time></trkpt><trkpt lat="9.1911042" lon="-75.815778"><ele>8.0</ele><time>2026-04-18T11:56:53.687Z</time></trkpt><trkpt lat="9.1911938" lon="-75.8157813"><ele>7.5</ele><time>2026-04-18T11:56:54.689Z</time></trkpt><trkpt lat="9.1912813" lon="-75.815786"><ele>7.0</ele><time>2026-04-18T11:56:55.688Z</time></trkpt><trkpt lat="9.1913654" lon="-75.8157909"><ele>6.5</ele><time>2026-04-18T11:56:56.688Z</time></trkpt><trkpt lat="9.1914524" lon="-75.815793"><ele>6.0</ele><time>2026-04-18T11:56:57.688Z</time></trkpt><trkpt lat="9.1915378" lon="-75.8157935"><ele>5.833333333333333</ele><time>2026-04-18T11:56:58.687Z</time></trkpt><trkpt lat="9.1916246" lon="-75.815797"><ele>5.666666666666667</ele><time>2026-04-18T11:56:59.687Z</time></trkpt><trkpt lat="9.1917165" lon="-75.8157988"><ele>5.5</ele><time>2026-04-18T11:57:00.688Z</time></trkpt><trkpt lat="9.1918043" lon="-75.8158002"><ele>5.333333333333334</ele><time>2026-04-18T11:57:01.687Z</time></trkpt><trkpt lat="9.1918909" lon="-75.8158039"><ele>5.166666666666667</ele><time>2026-04-18T11:57:02.688Z</time></trkpt><trkpt lat="9.191976" lon="-75.8158067"><ele>5.0</ele><time>2026-04-18T11:57:03.689Z</time></trkpt><trkpt lat="9.1920646" lon="-75.8158095"><ele>5.0</ele><time>2026-04-18T11:57:04.687Z</time></trkpt><trkpt lat="9.1921528" lon="-75.8158115"><ele>5.0</ele><time>2026-04-18T11:57:05.687Z</time></trkpt><trkpt lat="9.1922433" lon="-75.8158106"><ele>5.0</ele><time>2026-04-18T11:57:06.687Z</time></trkpt><trkpt lat="9.1923276" lon="-75.815815"><ele>5.0</ele><time>2026-04-18T11:57:07.688Z</time></trkpt><trkpt lat="9.1924118" lon="-75.815824"><ele>5.0</ele><time>2026-04-18T11:57:08.688Z</time></trkpt><trkpt lat="9.1924963" lon="-75.8158292"><ele>5.0</ele><time>2026-04-18T11:57:09.689Z</time></trkpt><trkpt lat="9.1925842" lon="-75.8158335"><ele>4.833333333333334</ele><time>2026-04-18T11:57:10.688Z</time></trkpt><trkpt lat="9.1926694" lon="-75.815838"><ele>4.666666666666667</ele><time>2026-04-18T11:57:11.687Z</time></trkpt><trkpt lat="9.1927572" lon="-75.8158429"><ele>4.5</ele><time>2026-04-18T11:57:12.687Z</time></trkpt><trkpt lat="9.1928489" lon="-75.8158501"><ele>4.333333333333333</ele><time>2026-04-18T11:57:13.688Z</time></trkpt><trkpt lat="9.1929364" lon="-75.8158526"><ele>4.166666666666666</ele><time>2026-04-18T11:57:14.687Z</time></trkpt><trkpt lat="9.1930242" lon="-75.8158557"><ele>4.0</ele><time>2026-04-18T11:57:15.687Z</time></trkpt><trkpt lat="9.1931121" lon="-75.8158578"><ele>3.9999999999999996</ele><time>2026-04-18T11:57:16.687Z</time></trkpt><trkpt lat="9.1931945" lon="-75.8158559"><ele>4.0</ele><time>2026-04-18T11:57:17.687Z</time></trkpt><trkpt lat="9.1932806" lon="-75.815858"><ele>4.0</ele><time>2026-04-18T11:57:18.689Z</time></trkpt><trkpt lat="9.193365" lon="-75.8158599"><ele>4.0</ele><time>2026-04-18T11:57:19.688Z</time></trkpt><trkpt lat="9.1934525" lon="-75.8158667"><ele>3.9999999999999996</ele><time>2026-04-18T11:57:20.687Z</time></trkpt><trkpt lat="9.1935385" lon="-75.8158745"><ele>4.0</ele><time>2026-04-18T11:57:21.688Z</time></trkpt><trkpt lat="9.1936221" lon="-75.815879"><ele>3.9999999999999996</ele><time>2026-04-18T11:57:22.687Z</time></trkpt><trkpt lat="9.1937076" lon="-75.815888"><ele>4.0</ele><time>2026-04-18T11:57:23.687Z</time></trkpt><trkpt lat="9.1937948" lon="-75.8158922"><ele>4.0</ele><time>2026-04-18T11:57:24.687Z</time></trkpt><trkpt lat="9.1938779" lon="-75.8158976"><ele>4.0</ele><time>2026-04-18T11:57:25.687Z</time></trkpt><trkpt lat="9.1939634" lon="-75.8159038"><ele>3.9999999999999996</ele><time>2026-04-18T11:57:26.687Z</time></trkpt><trkpt lat="9.1940475" lon="-75.8159062"><ele>4.0</ele><time>2026-04-18T11:57:27.687Z</time></trkpt><trkpt lat="9.1941322" lon="-75.8159119"><ele>4.333333333333333</ele><time>2026-04-18T11:57:28.687Z</time></trkpt><trkpt lat="9.1942191" lon="-75.8159193"><ele>4.666666666666666</ele><time>2026-04-18T11:57:29.688Z</time></trkpt><trkpt lat="9.1943052" lon="-75.8159269"><ele>5.0</ele><time>2026-04-18T11:57:30.687Z</time></trkpt><trkpt lat="9.1943921" lon="-75.815935"><ele>5.333333333333333</ele><time>2026-04-18T11:57:31.687Z</time></trkpt><trkpt lat="9.194478" lon="-75.8159421"><ele>5.666666666666667</ele><time>2026-04-18T11:57:32.688Z</time></trkpt><trkpt lat="9.1945641" lon="-75.8159482"><ele>6.0</ele><time>2026-04-18T11:57:33.688Z</time></trkpt><trkpt lat="9.1946503" lon="-75.8159536"><ele>6.0</ele><time>2026-04-18T11:57:34.688Z</time></trkpt><trkpt lat="9.1947345" lon="-75.8159619"><ele>6.0</ele><time>2026-04-18T11:57:35.688Z</time></trkpt><trkpt lat="9.1948194" lon="-75.8159687"><ele>6.0</ele><time>2026-04-18T11:57:36.688Z</time></trkpt><trkpt lat="9.194908" lon="-75.8159732"><ele>6.0</ele><time>2026-04-18T11:57:37.688Z</time></trkpt><trkpt lat="9.1949942" lon="-75.8159808"><ele>6.0</ele><time>2026-04-18T11:57:38.688Z</time></trkpt><trkpt lat="9.1950795" lon="-75.8159929"><ele>6.0</ele><time>2026-04-18T11:57:39.688Z</time></trkpt><trkpt lat="9.195167" lon="-75.8160041"><ele>5.666666666666667</ele><time>2026-04-18T11:57:40.688Z</time></trkpt><trkpt lat="9.1952531" lon="-75.8160096"><ele>5.333333333333333</ele><time>2026-04-18T11:57:41.687Z</time></trkpt><trkpt lat="9.1953403" lon="-75.8160178"><ele>5.0</ele><time>2026-04-18T11:57:42.688Z</time></trkpt><trkpt lat="9.1954237" lon="-75.8160262"><ele>4.666666666666666</ele><time>2026-04-18T11:57:43.688Z</time></trkpt><trkpt lat="9.1955065" lon="-75.816033"><ele>4.333333333333333</ele><time>2026-04-18T11:57:44.688Z</time></trkpt><trkpt lat="9.1955938" lon="-75.8160389"><ele>4.0</ele><time>2026-04-18T11:57:45.687Z</time></trkpt><trkpt lat="9.1956825" lon="-75.8160476"><ele>3.9999999999999996</ele><time>2026-04-18T11:57:46.687Z</time></trkpt><trkpt lat="9.1957731" lon="-75.8160569"><ele>4.0</ele><time>2026-04-18T11:57:47.688Z</time></trkpt><trkpt lat="9.1958631" lon="-75.8160631"><ele>4.0</ele><time>2026-04-18T11:57:48.688Z</time></trkpt><trkpt lat="9.1959524" lon="-75.8160684"><ele>4.0</ele><time>2026-04-18T11:57:49.688Z</time></trkpt><trkpt lat="9.1960403" lon="-75.8160754"><ele>3.9999999999999996</ele><time>2026-04-18T11:57:50.688Z</time></trkpt><trkpt lat="9.1961296" lon="-75.8160782"><ele>4.0</ele><time>2026-04-18T11:57:51.687Z</time></trkpt><trkpt lat="9.1962166" lon="-75.8160818"><ele>3.9999999999999996</ele><time>2026-04-18T11:57:52.687Z</time></trkpt><trkpt lat="9.1963049" lon="-75.8160869"><ele>4.0</ele><time>2026-04-18T11:57:53.689Z</time></trkpt><trkpt lat="9.1963935" lon="-75.8160934"><ele>4.0</ele><time>2026-04-18T11:57:54.688Z</time></trkpt><trkpt lat="9.1964836" lon="-75.8160961"><ele>4.0</ele><time>2026-04-18T11:57:55.688Z</time></trkpt><trkpt lat="9.1965688" lon="-75.8161048"><ele>3.9999999999999996</ele><time>2026-04-18T11:57:56.688Z</time></trkpt><trkpt lat="9.1966584" lon="-75.8161122"><ele>4.0</ele><time>2026-04-18T11:57:57.687Z</time></trkpt><trkpt lat="9.1967469" lon="-75.8161191"><ele>4.333333333333333</ele><time>2026-04-18T11:57:58.687Z</time></trkpt><trkpt lat="9.196834" lon="-75.816123"><ele>4.666666666666666</ele><time>2026-04-18T11:57:59.688Z</time></trkpt><trkpt lat="9.1969183" lon="-75.8161262"><ele>5.0</ele><time>2026-04-18T11:58:00.688Z</time></trkpt><trkpt lat="9.1970089" lon="-75.8161269"><ele>5.333333333333333</ele><time>2026-04-18T11:58:01.687Z</time></trkpt><trkpt lat="9.1970983" lon="-75.8161277"><ele>5.666666666666667</ele><time>2026-04-18T11:58:02.687Z</time></trkpt><trkpt lat="9.1971854" lon="-75.8161345"><ele>6.0</ele><time>2026-04-18T11:58:03.687Z</time></trkpt><trkpt lat="9.1972721" lon="-75.8161385"><ele>5.833333333333333</ele><time>2026-04-18T11:58:04.688Z</time></trkpt><trkpt lat="9.1973565" lon="-75.816144"><ele>5.666666666666667</ele><time>2026-04-18T11:58:05.688Z</time></trkpt><trkpt lat="9.1974431" lon="-75.8161435"><ele>5.5</ele><time>2026-04-18T11:58:06.687Z</time></trkpt><trkpt lat="9.1975308" lon="-75.8161455"><ele>5.333333333333334</ele><time>2026-04-18T11:58:07.687Z</time></trkpt><trkpt lat="9.1976173" lon="-75.8161508"><ele>5.166666666666667</ele><time>2026-04-18T11:58:08.687Z</time></trkpt><trkpt lat="9.1977066" lon="-75.8161543"><ele>5.0</ele><time>2026-04-18T11:58:09.687Z</time></trkpt><trkpt lat="9.197796" lon="-75.8161592"><ele>5.0</ele><time>2026-04-18T11:58:10.688Z</time></trkpt><trkpt lat="9.1978845" lon="-75.8161629"><ele>5.0</ele><time>2026-04-18T11:58:11.687Z</time></trkpt><trkpt lat="9.1979722" lon="-75.8161689"><ele>5.0</ele><time>2026-04-18T11:58:12.687Z</time></trkpt><trkpt lat="9.1980627" lon="-75.8161744"><ele>5.0</ele><time>2026-04-18T11:58:13.689Z</time></trkpt><trkpt lat="9.198151" lon="-75.8161766"><ele>5.0</ele><time>2026-04-18T11:58:14.687Z</time></trkpt><trkpt lat="9.1982411" lon="-75.8161793"><ele>5.0</ele><time>2026-04-18T11:58:15.687Z</time></trkpt><trkpt lat="9.1983287" lon="-75.8161808"><ele>5.0</ele><time>2026-04-18T11:58:16.688Z</time></trkpt><trkpt lat="9.198419" lon="-75.8161838"><ele>5.0</ele><time>2026-04-18T11:58:17.688Z</time></trkpt><trkpt lat="9.1985076" lon="-75.8161902"><ele>5.0</ele><time>2026-04-18T11:58:18.688Z</time></trkpt><trkpt lat="9.1985983" lon="-75.8161934"><ele>5.0</ele><time>2026-04-18T11:58:19.688Z</time></trkpt><trkpt lat="9.1986874" lon="-75.816198"><ele>5.0</ele><time>2026-04-18T11:58:20.688Z</time></trkpt><trkpt lat="9.1987742" lon="-75.8162004"><ele>5.0</ele><time>2026-04-18T11:58:21.688Z</time></trkpt><trkpt lat="9.1988648" lon="-75.8162046"><ele>5.0</ele><time>2026-04-18T11:58:22.687Z</time></trkpt><trkpt lat="9.1989522" lon="-75.8162077"><ele>5.0</ele><time>2026-04-18T11:58:23.687Z</time></trkpt><trkpt lat="9.1990396" lon="-75.8162076"><ele>5.0</ele><time>2026-04-18T11:58:24.689Z</time></trkpt><trkpt lat="9.1991298" lon="-75.8162132"><ele>5.0</ele><time>2026-04-18T11:58:25.688Z</time></trkpt><trkpt lat="9.1992222" lon="-75.8162182"><ele>5.0</ele><time>2026-04-18T11:58:26.688Z</time></trkpt><trkpt lat="9.1993119" lon="-75.8162213"><ele>5.0</ele><time>2026-04-18T11:58:27.687Z</time></trkpt><trkpt lat="9.1993989" lon="-75.8162268"><ele>5.0</ele><time>2026-04-18T11:58:28.687Z</time></trkpt><trkpt lat="9.1994854" lon="-75.8162299"><ele>5.0</ele><time>2026-04-18T11:58:29.687Z</time></trkpt><trkpt lat="9.1995761" lon="-75.8162361"><ele>5.0</ele><time>2026-04-18T11:58:30.688Z</time></trkpt><trkpt lat="9.1996623" lon="-75.8162398"><ele>5.0</ele><time>2026-04-18T11:58:31.688Z</time></trkpt><trkpt lat="9.1997482" lon="-75.8162459"><ele>5.0</ele><time>2026-04-18T11:58:32.687Z</time></trkpt><trkpt lat="9.1998358" lon="-75.8162486"><ele>5.0</ele><time>2026-04-18T11:58:33.688Z</time></trkpt><trkpt lat="9.1999218" lon="-75.8162512"><ele>5.166666666666667</ele><time>2026-04-18T11:58:34.687Z</time></trkpt><trkpt lat="9.2000106" lon="-75.8162544"><ele>5.333333333333334</ele><time>2026-04-18T11:58:35.688Z</time></trkpt><trkpt lat="9.2001024" lon="-75.8162594"><ele>5.5</ele><time>2026-04-18T11:58:36.688Z</time></trkpt><trkpt lat="9.2001903" lon="-75.8162629"><ele>5.666666666666667</ele><time>2026-04-18T11:58:37.688Z</time></trkpt><trkpt lat="9.200277" lon="-75.8162705"><ele>5.833333333333333</ele><time>2026-04-18T11:58:38.687Z</time></trkpt><trkpt lat="9.200366" lon="-75.8162734"><ele>6.0</ele><time>2026-04-18T11:58:39.687Z</time></trkpt><trkpt lat="9.2004579" lon="-75.8162778"><ele>6.0</ele><time>2026-04-18T11:58:40.687Z</time></trkpt><trkpt lat="9.2005497" lon="-75.8162775"><ele>6.0</ele><time>2026-04-18T11:58:41.688Z</time></trkpt><trkpt lat="9.200641" lon="-75.8162848"><ele>6.0</ele><time>2026-04-18T11:58:42.688Z</time></trkpt><trkpt lat="9.2007284" lon="-75.81629"><ele>6.0</ele><time>2026-04-18T11:58:43.688Z</time></trkpt><trkpt lat="9.2008177" lon="-75.8162927"><ele>6.0</ele><time>2026-04-18T11:58:44.687Z</time></trkpt><trkpt lat="9.2009075" lon="-75.8162949"><ele>6.0</ele><time>2026-04-18T11:58:45.687Z</time></trkpt><trkpt lat="9.2009963" lon="-75.8162968"><ele>6.0</ele><time>2026-04-18T11:58:46.688Z</time></trkpt><trkpt lat="9.2010864" lon="-75.8162997"><ele>6.0</ele><time>2026-04-18T11:58:47.687Z</time></trkpt><trkpt lat="9.2011817" lon="-75.8163034"><ele>6.0</ele><time>2026-04-18T11:58:48.687Z</time></trkpt><trkpt lat="9.2012744" lon="-75.8163054"><ele>6.0</ele><time>2026-04-18T11:58:49.687Z</time></trkpt><trkpt lat="9.2013614" lon="-75.8163121"><ele>6.0</ele><time>2026-04-18T11:58:50.687Z</time></trkpt><trkpt lat="9.2014513" lon="-75.8163151"><ele>6.0</ele><time>2026-04-18T11:58:51.687Z</time></trkpt><trkpt lat="9.2015408" lon="-75.8163155"><ele>6.0</ele><time>2026-04-18T11:58:52.687Z</time></trkpt><trkpt lat="9.2016247" lon="-75.8163214"><ele>6.0</ele><time>2026-04-18T11:58:53.687Z</time></trkpt><trkpt lat="9.2017123" lon="-75.8163248"><ele>6.0</ele><time>2026-04-18T11:58:54.688Z</time></trkpt><trkpt lat="9.2018034" lon="-75.8163267"><ele>6.0</ele><time>2026-04-18T11:58:55.688Z</time></trkpt><trkpt lat="9.2018906" lon="-75.8163321"><ele>5.833333333333333</ele><time>2026-04-18T11:58:56.688Z</time></trkpt><trkpt lat="9.2019816" lon="-75.8163336"><ele>5.666666666666667</ele><time>2026-04-18T11:58:57.687Z</time></trkpt><trkpt lat="9.2020721" lon="-75.8163411"><ele>5.5</ele><time>2026-04-18T11:58:58.688Z</time></trkpt><trkpt lat="9.2021602" lon="-75.816346"><ele>5.333333333333334</ele><time>2026-04-18T11:58:59.689Z</time></trkpt><trkpt lat="9.2022493" lon="-75.8163501"><ele>5.166666666666667</ele><time>2026-04-18T11:59:00.688Z</time></trkpt><trkpt lat="9.2023389" lon="-75.8163502"><ele>5.0</ele><time>2026-04-18T11:59:01.687Z</time></trkpt><trkpt lat="9.2024268" lon="-75.8163565"><ele>5.0</ele><time>2026-04-18T11:59:02.688Z</time></trkpt><trkpt lat="9.2025151" lon="-75.8163568"><ele>5.0</ele><time>2026-04-18T11:59:03.687Z</time></trkpt><trkpt lat="9.2026043" lon="-75.8163505"><ele>5.0</ele><time>2026-04-18T11:59:04.687Z</time></trkpt><trkpt lat="9.2026942" lon="-75.8163444"><ele>5.0</ele><time>2026-04-18T11:59:05.688Z</time></trkpt><trkpt lat="9.202786" lon="-75.8163381"><ele>5.0</ele><time>2026-04-18T11:59:06.687Z</time></trkpt><trkpt lat="9.2028749" lon="-75.8163377"><ele>5.0</ele><time>2026-04-18T11:59:07.687Z</time></trkpt><trkpt lat="9.2029678" lon="-75.8163351"><ele>5.0</ele><time>2026-04-18T11:59:08.687Z</time></trkpt><trkpt lat="9.2030586" lon="-75.8163312"><ele>5.0</ele><time>2026-04-18T11:59:09.687Z</time></trkpt><trkpt lat="9.2031516" lon="-75.8163258"><ele>5.0</ele><time>2026-04-18T11:59:10.689Z</time></trkpt><trkpt lat="9.2032415" lon="-75.8163152"><ele>5.0</ele><time>2026-04-18T11:59:11.687Z</time></trkpt><trkpt lat="9.2033311" lon="-75.8163023"><ele>5.0</ele><time>2026-04-18T11:59:12.687Z</time></trkpt><trkpt lat="9.2034182" lon="-75.8162877"><ele>4.833333333333334</ele><time>2026-04-18T11:59:13.687Z</time></trkpt><trkpt lat="9.2035067" lon="-75.8162729"><ele>4.666666666666667</ele><time>2026-04-18T11:59:14.687Z</time></trkpt><trkpt lat="9.2035945" lon="-75.8162549"><ele>4.5</ele><time>2026-04-18T11:59:15.688Z</time></trkpt><trkpt lat="9.2036812" lon="-75.8162401"><ele>4.333333333333333</ele><time>2026-04-18T11:59:16.687Z</time></trkpt><trkpt lat="9.2037688" lon="-75.8162257"><ele>4.166666666666666</ele><time>2026-04-18T11:59:17.689Z</time></trkpt><trkpt lat="9.2038589" lon="-75.8162087"><ele>4.0</ele><time>2026-04-18T11:59:18.688Z</time></trkpt><trkpt lat="9.2039449" lon="-75.8161897"><ele>4.2</ele><time>2026-04-18T11:59:19.687Z</time></trkpt><trkpt lat="9.2040353" lon="-75.8161705"><ele>4.4</ele><time>2026-04-18T11:59:20.687Z</time></trkpt><trkpt lat="9.2041255" lon="-75.816155"><ele>4.6</ele><time>2026-04-18T11:59:21.687Z</time></trkpt><trkpt lat="9.2042117" lon="-75.8161352"><ele>4.8</ele><time>2026-04-18T11:59:22.687Z</time></trkpt><trkpt lat="9.2042981" lon="-75.8161151"><ele>5.0</ele><time>2026-04-18T11:59:23.687Z</time></trkpt><trkpt lat="9.2043854" lon="-75.8160996"><ele>5.0</ele><time>2026-04-18T11:59:24.687Z</time></trkpt><trkpt lat="9.2044779" lon="-75.8160816"><ele>5.0</ele><time>2026-04-18T11:59:25.687Z</time></trkpt><trkpt lat="9.2045633" lon="-75.8160626"><ele>5.0</ele><time>2026-04-18T11:59:26.686Z</time></trkpt><trkpt lat="9.2046495" lon="-75.8160451"><ele>5.0</ele><time>2026-04-18T11:59:27.687Z</time></trkpt><trkpt lat="9.2047375" lon="-75.8160286"><ele>5.0</ele><time>2026-04-18T11:59:28.687Z</time></trkpt><trkpt lat="9.2048254" lon="-75.8160099"><ele>5.0</ele><time>2026-04-18T11:59:29.688Z</time></trkpt><trkpt lat="9.20491" lon="-75.8159923"><ele>5.2</ele><time>2026-04-18T11:59:30.688Z</time></trkpt><trkpt lat="9.2049979" lon="-75.8159712"><ele>5.4</ele><time>2026-04-18T11:59:31.687Z</time></trkpt><trkpt lat="9.2050844" lon="-75.8159537"><ele>5.6</ele><time>2026-04-18T11:59:32.687Z</time></trkpt><trkpt lat="9.2051709" lon="-75.8159345"><ele>5.8</ele><time>2026-04-18T11:59:33.687Z</time></trkpt><trkpt lat="9.2052644" lon="-75.8159157"><ele>6.0</ele><time>2026-04-18T11:59:34.687Z</time></trkpt><trkpt lat="9.2053527" lon="-75.8158962"><ele>6.0</ele><time>2026-04-18T11:59:35.688Z</time></trkpt><trkpt lat="9.205441" lon="-75.815874"><ele>6.0</ele><time>2026-04-18T11:59:36.687Z</time></trkpt><trkpt lat="9.2055322" lon="-75.815854"><ele>6.0</ele><time>2026-04-18T11:59:37.687Z</time></trkpt><trkpt lat="9.2056215" lon="-75.8158333"><ele>6.0</ele><time>2026-04-18T11:59:38.687Z</time></trkpt><trkpt lat="9.2057092" lon="-75.8158146"><ele>6.0</ele><time>2026-04-18T11:59:39.687Z</time></trkpt><trkpt lat="9.2058012" lon="-75.8157961"><ele>5.8</ele><time>2026-04-18T11:59:40.687Z</time></trkpt><trkpt lat="9.2058903" lon="-75.8157816"><ele>5.6</ele><time>2026-04-18T11:59:41.687Z</time></trkpt><trkpt lat="9.2059809" lon="-75.8157659"><ele>5.4</ele><time>2026-04-18T11:59:42.687Z</time></trkpt><trkpt lat="9.2060693" lon="-75.8157489"><ele>5.2</ele><time>2026-04-18T11:59:43.689Z</time></trkpt><trkpt lat="9.2061566" lon="-75.8157292"><ele>5.0</ele><time>2026-04-18T11:59:44.688Z</time></trkpt><trkpt lat="9.2062477" lon="-75.8157075"><ele>5.0</ele><time>2026-04-18T11:59:45.687Z</time></trkpt><trkpt lat="9.2063392" lon="-75.8156892"><ele>5.0</ele><time>2026-04-18T11:59:46.687Z</time></trkpt><trkpt lat="9.2064266" lon="-75.8156705"><ele>5.0</ele><time>2026-04-18T11:59:47.687Z</time></trkpt><trkpt lat="9.2065134" lon="-75.8156506"><ele>5.0</ele><time>2026-04-18T11:59:48.687Z</time></trkpt><trkpt lat="9.2066058" lon="-75.8156347"><ele>5.0</ele><time>2026-04-18T11:59:49.687Z</time></trkpt><trkpt lat="9.2066961" lon="-75.8156164"><ele>5.2</ele><time>2026-04-18T11:59:50.687Z</time></trkpt><trkpt lat="9.2067879" lon="-75.8155975"><ele>5.4</ele><time>2026-04-18T11:59:51.687Z</time></trkpt><trkpt lat="9.2068822" lon="-75.8155837"><ele>5.6</ele><time>2026-04-18T11:59:52.687Z</time></trkpt><trkpt lat="9.2069714" lon="-75.8155641"><ele>5.8</ele><time>2026-04-18T11:59:53.688Z</time></trkpt><trkpt lat="9.2070602" lon="-75.8155448"><ele>6.0</ele><time>2026-04-18T11:59:54.688Z</time></trkpt><trkpt lat="9.2071494" lon="-75.8155247"><ele>6.0</ele><time>2026-04-18T11:59:55.687Z</time></trkpt><trkpt lat="9.2072422" lon="-75.8155103"><ele>6.0</ele><time>2026-04-18T11:59:56.687Z</time></trkpt><trkpt lat="9.2073356" lon="-75.8154892"><ele>6.0</ele><time>2026-04-18T11:59:57.687Z</time></trkpt><trkpt lat="9.2074274" lon="-75.8154724"><ele>6.0</ele><time>2026-04-18T11:59:58.687Z</time></trkpt><trkpt lat="9.207519" lon="-75.8154549"><ele>6.0</ele><time>2026-04-18T11:59:59.687Z</time></trkpt><trkpt lat="9.2076106" lon="-75.8154351"><ele>5.8</ele><time>2026-04-18T12:00:00.686Z</time></trkpt><trkpt lat="9.2077039" lon="-75.815418"><ele>5.6</ele><time>2026-04-18T12:00:01.687Z</time></trkpt><trkpt lat="9.2077959" lon="-75.8154031"><ele>5.4</ele><time>2026-04-18T12:00:02.688Z</time></trkpt><trkpt lat="9.2078835" lon="-75.8153845"><ele>5.2</ele><time>2026-04-18T12:00:03.687Z</time></trkpt><trkpt lat="9.2079739" lon="-75.8153606"><ele>5.0</ele><time>2026-04-18T12:00:04.688Z</time></trkpt><trkpt lat="9.2080645" lon="-75.8153409"><ele>5.0</ele><time>2026-04-18T12:00:05.687Z</time></trkpt><trkpt lat="9.2081577" lon="-75.8153209"><ele>5.0</ele><time>2026-04-18T12:00:06.687Z</time></trkpt><trkpt lat="9.2082476" lon="-75.8153061"><ele>5.0</ele><time>2026-04-18T12:00:07.687Z</time></trkpt><trkpt lat="9.2083396" lon="-75.8152895"><ele>5.0</ele><time>2026-04-18T12:00:08.688Z</time></trkpt><trkpt lat="9.2084274" lon="-75.8152666"><ele>5.0</ele><time>2026-04-18T12:00:09.687Z</time></trkpt><trkpt lat="9.2085196" lon="-75.8152523"><ele>4.8</ele><time>2026-04-18T12:00:10.688Z</time></trkpt><trkpt lat="9.208608" lon="-75.815237"><ele>4.6</ele><time>2026-04-18T12:00:11.687Z</time></trkpt><trkpt lat="9.2087001" lon="-75.8152156"><ele>4.4</ele><time>2026-04-18T12:00:12.687Z</time></trkpt><trkpt lat="9.2087853" lon="-75.8151955"><ele>4.2</ele><time>2026-04-18T12:00:13.687Z</time></trkpt><trkpt lat="9.2088747" lon="-75.8151754"><ele>4.0</ele><time>2026-04-18T12:00:14.688Z</time></trkpt><trkpt lat="9.208961" lon="-75.8151555"><ele>4.166666666666666</ele><time>2026-04-18T12:00:15.688Z</time></trkpt><trkpt lat="9.2090485" lon="-75.8151388"><ele>4.333333333333333</ele><time>2026-04-18T12:00:16.687Z</time></trkpt><trkpt lat="9.2091357" lon="-75.8151227"><ele>4.5</ele><time>2026-04-18T12:00:17.688Z</time></trkpt><trkpt lat="9.2092209" lon="-75.8151055"><ele>4.666666666666667</ele><time>2026-04-18T12:00:18.687Z</time></trkpt><trkpt lat="9.2093087" lon="-75.8150869"><ele>4.833333333333334</ele><time>2026-04-18T12:00:19.687Z</time></trkpt><trkpt lat="9.209398" lon="-75.8150669"><ele>5.0</ele><time>2026-04-18T12:00:20.688Z</time></trkpt><trkpt lat="9.2094818" lon="-75.8150448"><ele>5.0</ele><time>2026-04-18T12:00:21.687Z</time></trkpt><trkpt lat="9.2095732" lon="-75.8150254"><ele>5.0</ele><time>2026-04-18T12:00:22.687Z</time></trkpt><trkpt lat="9.2096689" lon="-75.8150062"><ele>5.0</ele><time>2026-04-18T12:00:23.687Z</time></trkpt><trkpt lat="9.2097602" lon="-75.8149884"><ele>5.0</ele><time>2026-04-18T12:00:24.687Z</time></trkpt><trkpt lat="9.2098461" lon="-75.8149699"><ele>5.0</ele><time>2026-04-18T12:00:25.687Z</time></trkpt><trkpt lat="9.2099382" lon="-75.8149492"><ele>4.8</ele><time>2026-04-18T12:00:26.687Z</time></trkpt><trkpt lat="9.2100299" lon="-75.814931"><ele>4.6</ele><time>2026-04-18T12:00:27.687Z</time></trkpt><trkpt lat="9.2101203" lon="-75.8149124"><ele>4.4</ele><time>2026-04-18T12:00:28.687Z</time></trkpt><trkpt lat="9.2102071" lon="-75.8148941"><ele>4.2</ele><time>2026-04-18T12:00:29.687Z</time></trkpt><trkpt lat="9.2102952" lon="-75.8148745"><ele>4.0</ele><time>2026-04-18T12:00:30.687Z</time></trkpt><trkpt lat="9.2103807" lon="-75.814854"><ele>4.0</ele><time>2026-04-18T12:00:31.687Z</time></trkpt><trkpt lat="9.2104689" lon="-75.8148352"><ele>4.0</ele><time>2026-04-18T12:00:32.687Z</time></trkpt><trkpt lat="9.2105547" lon="-75.8148146"><ele>4.0</ele><time>2026-04-18T12:00:33.687Z</time></trkpt><trkpt lat="9.2106441" lon="-75.8147965"><ele>4.0</ele><time>2026-04-18T12:00:34.687Z</time></trkpt><trkpt lat="9.210732" lon="-75.8147812"><ele>4.0</ele><time>2026-04-18T12:00:35.688Z</time></trkpt><trkpt lat="9.2108251" lon="-75.8147619"><ele>4.0</ele><time>2026-04-18T12:00:36.687Z</time></trkpt><trkpt lat="9.2109131" lon="-75.8147408"><ele>4.0</ele><time>2026-04-18T12:00:37.687Z</time></trkpt><trkpt lat="9.211004" lon="-75.8147227"><ele>4.0</ele><time>2026-04-18T12:00:38.687Z</time></trkpt><trkpt lat="9.2110949" lon="-75.8147044"><ele>4.0</ele><time>2026-04-18T12:00:39.687Z</time></trkpt><trkpt lat="9.211186" lon="-75.8146881"><ele>4.0</ele><time>2026-04-18T12:00:40.687Z</time></trkpt><trkpt lat="9.2112738" lon="-75.8146717"><ele>4.0</ele><time>2026-04-18T12:00:41.687Z</time></trkpt><trkpt lat="9.2113595" lon="-75.8146509"><ele>4.0</ele><time>2026-04-18T12:00:42.686Z</time></trkpt><trkpt lat="9.2114537" lon="-75.8146346"><ele>4.0</ele><time>2026-04-18T12:00:43.686Z</time></trkpt><trkpt lat="9.2115464" lon="-75.8146195"><ele>4.0</ele><time>2026-04-18T12:00:44.687Z</time></trkpt><trkpt lat="9.2116373" lon="-75.8146029"><ele>4.0</ele><time>2026-04-18T12:00:45.686Z</time></trkpt><trkpt lat="9.2117212" lon="-75.8145823"><ele>3.6</ele><time>2026-04-18T12:00:46.687Z</time></trkpt><trkpt lat="9.2118082" lon="-75.814558"><ele>3.2</ele><time>2026-04-18T12:00:47.687Z</time></trkpt><trkpt lat="9.211896" lon="-75.8145397"><ele>2.8000000000000003</ele><time>2026-04-18T12:00:48.687Z</time></trkpt><trkpt lat="9.2119858" lon="-75.8145212"><ele>2.4000000000000004</ele><time>2026-04-18T12:00:49.687Z</time></trkpt><trkpt lat="9.2120765" lon="-75.8145048"><ele>2.0</ele><time>2026-04-18T12:00:50.687Z</time></trkpt><trkpt lat="9.2121662" lon="-75.8144832"><ele>2.0</ele><time>2026-04-18T12:00:51.686Z</time></trkpt><trkpt lat="9.2122523" lon="-75.8144677"><ele>2.0</ele><time>2026-04-18T12:00:52.686Z</time></trkpt><trkpt lat="9.2123426" lon="-75.8144501"><ele>2.0</ele><time>2026-04-18T12:00:53.687Z</time></trkpt><trkpt lat="9.2124334" lon="-75.8144325"><ele>2.0</ele><time>2026-04-18T12:00:54.687Z</time></trkpt><trkpt lat="9.2125228" lon="-75.8144152"><ele>2.0</ele><time>2026-04-18T12:00:55.687Z</time></trkpt><trkpt lat="9.2126115" lon="-75.8143939"><ele>2.1666666666666665</ele><time>2026-04-18T12:00:56.688Z</time></trkpt><trkpt lat="9.2126964" lon="-75.814375"><ele>2.333333333333333</ele><time>2026-04-18T12:00:57.687Z</time></trkpt><trkpt lat="9.2127865" lon="-75.814358"><ele>2.5</ele><time>2026-04-18T12:00:58.686Z</time></trkpt><trkpt lat="9.2128748" lon="-75.8143371"><ele>2.6666666666666665</ele><time>2026-04-18T12:00:59.687Z</time></trkpt><trkpt lat="9.2129625" lon="-75.8143185"><ele>2.8333333333333335</ele><time>2026-04-18T12:01:00.688Z</time></trkpt><trkpt lat="9.2130505" lon="-75.8142968"><ele>3.0</ele><time>2026-04-18T12:01:01.687Z</time></trkpt><trkpt lat="9.2131408" lon="-75.8142779"><ele>3.1666666666666665</ele><time>2026-04-18T12:01:02.687Z</time></trkpt><trkpt lat="9.2132289" lon="-75.8142597"><ele>3.333333333333333</ele><time>2026-04-18T12:01:03.687Z</time></trkpt><trkpt lat="9.2133204" lon="-75.8142406"><ele>3.5</ele><time>2026-04-18T12:01:04.687Z</time></trkpt><trkpt lat="9.213406" lon="-75.8142229"><ele>3.6666666666666665</ele><time>2026-04-18T12:01:05.687Z</time></trkpt><trkpt lat="9.2134935" lon="-75.8142042"><ele>3.833333333333333</ele><time>2026-04-18T12:01:06.687Z</time></trkpt><trkpt lat="9.2135815" lon="-75.8141885"><ele>4.0</ele><time>2026-04-18T12:01:07.687Z</time></trkpt><trkpt lat="9.2136657" lon="-75.8141715"><ele>3.9999999999999996</ele><time>2026-04-18T12:01:08.687Z</time></trkpt><trkpt lat="9.2137542" lon="-75.8141507"><ele>4.0</ele><time>2026-04-18T12:01:09.688Z</time></trkpt><trkpt lat="9.213843" lon="-75.8141325"><ele>4.0</ele><time>2026-04-18T12:01:10.686Z</time></trkpt><trkpt lat="9.21393" lon="-75.8141152"><ele>4.0</ele><time>2026-04-18T12:01:11.687Z</time></trkpt><trkpt lat="9.2140152" lon="-75.814099"><ele>3.9999999999999996</ele><time>2026-04-18T12:01:12.687Z</time></trkpt><trkpt lat="9.2141038" lon="-75.81408"><ele>4.0</ele><time>2026-04-18T12:01:13.687Z</time></trkpt><trkpt lat="9.2141943" lon="-75.8140617"><ele>4.166666666666666</ele><time>2026-04-18T12:01:14.687Z</time></trkpt><trkpt lat="9.2142829" lon="-75.8140439"><ele>4.333333333333333</ele><time>2026-04-18T12:01:15.687Z</time></trkpt><trkpt lat="9.2143708" lon="-75.8140276"><ele>4.5</ele><time>2026-04-18T12:01:16.687Z</time></trkpt><trkpt lat="9.2144582" lon="-75.8140132"><ele>4.666666666666667</ele><time>2026-04-18T12:01:17.686Z</time></trkpt><trkpt lat="9.2145443" lon="-75.8139918"><ele>4.833333333333334</ele><time>2026-04-18T12:01:18.687Z</time></trkpt><trkpt lat="9.2146296" lon="-75.8139734"><ele>5.0</ele><time>2026-04-18T12:01:19.687Z</time></trkpt><trkpt lat="9.2147198" lon="-75.8139523"><ele>5.0</ele><time>2026-04-18T12:01:20.687Z</time></trkpt><trkpt lat="9.2148086" lon="-75.8139367"><ele>5.0</ele><time>2026-04-18T12:01:21.687Z</time></trkpt><trkpt lat="9.2148979" lon="-75.8139238"><ele>5.0</ele><time>2026-04-18T12:01:22.686Z</time></trkpt><trkpt lat="9.2149848" lon="-75.813907"><ele>5.0</ele><time>2026-04-18T12:01:23.687Z</time></trkpt><trkpt lat="9.2150691" lon="-75.8138883"><ele>5.0</ele><time>2026-04-18T12:01:24.687Z</time></trkpt><trkpt lat="9.2151532" lon="-75.8138682"><ele>5.0</ele><time>2026-04-18T12:01:25.687Z</time></trkpt><trkpt lat="9.2152389" lon="-75.8138516"><ele>4.5</ele><time>2026-04-18T12:01:26.687Z</time></trkpt><trkpt lat="9.2153249" lon="-75.8138314"><ele>4.0</ele><time>2026-04-18T12:01:27.687Z</time></trkpt><trkpt lat="9.2154114" lon="-75.813811"><ele>3.5</ele><time>2026-04-18T12:01:28.686Z</time></trkpt><trkpt lat="9.2154971" lon="-75.8137912"><ele>3.0</ele><time>2026-04-18T12:01:29.687Z</time></trkpt><trkpt lat="9.2155837" lon="-75.8137724"><ele>2.5</ele><time>2026-04-18T12:01:30.687Z</time></trkpt><trkpt lat="9.2156669" lon="-75.8137547"><ele>2.0</ele><time>2026-04-18T12:01:31.687Z</time></trkpt><trkpt lat="9.2157533" lon="-75.8137352"><ele>1.9999999999999998</ele><time>2026-04-18T12:01:32.687Z</time></trkpt><trkpt lat="9.2158405" lon="-75.8137188"><ele>2.0</ele><time>2026-04-18T12:01:33.686Z</time></trkpt><trkpt lat="9.2159244" lon="-75.8137043"><ele>2.0</ele><time>2026-04-18T12:01:34.687Z</time></trkpt><trkpt lat="9.2160125" lon="-75.8136902"><ele>2.0</ele><time>2026-04-18T12:01:35.687Z</time></trkpt><trkpt lat="9.2160982" lon="-75.8136723"><ele>1.9999999999999998</ele><time>2026-04-18T12:01:36.685Z</time></trkpt><trkpt lat="9.2161832" lon="-75.8136547"><ele>2.0</ele><time>2026-04-18T12:01:37.687Z</time></trkpt><trkpt lat="9.2162709" lon="-75.813636"><ele>1.9999999999999998</ele><time>2026-04-18T12:01:38.687Z</time></trkpt><trkpt lat="9.2163541" lon="-75.8136206"><ele>2.0</ele><time>2026-04-18T12:01:39.687Z</time></trkpt><trkpt lat="9.2164396" lon="-75.8136035"><ele>2.0</ele><time>2026-04-18T12:01:40.686Z</time></trkpt><trkpt lat="9.2165254" lon="-75.8135874"><ele>2.0</ele><time>2026-04-18T12:01:41.686Z</time></trkpt><trkpt lat="9.2166149" lon="-75.8135649"><ele>1.9999999999999998</ele><time>2026-04-18T12:01:42.687Z</time></trkpt><trkpt lat="9.2167034" lon="-75.8135512"><ele>2.0</ele><time>2026-04-18T12:01:43.687Z</time></trkpt><trkpt lat="9.2167898" lon="-75.8135372"><ele>2.333333333333333</ele><time>2026-04-18T12:01:44.687Z</time></trkpt><trkpt lat="9.2168767" lon="-75.8135205"><ele>2.6666666666666665</ele><time>2026-04-18T12:01:45.687Z</time></trkpt><trkpt lat="9.2169634" lon="-75.8135038"><ele>3.0</ele><time>2026-04-18T12:01:46.687Z</time></trkpt><trkpt lat="9.2170549" lon="-75.813485"><ele>3.333333333333333</ele><time>2026-04-18T12:01:47.687Z</time></trkpt><trkpt lat="9.2171382" lon="-75.8134688"><ele>3.6666666666666665</ele><time>2026-04-18T12:01:48.687Z</time></trkpt><trkpt lat="9.2172255" lon="-75.8134483"><ele>4.0</ele><time>2026-04-18T12:01:49.687Z</time></trkpt><trkpt lat="9.2173151" lon="-75.8134309"><ele>4.0</ele><time>2026-04-18T12:01:50.686Z</time></trkpt><trkpt lat="9.217404" lon="-75.8134073"><ele>4.0</ele><time>2026-04-18T12:01:51.687Z</time></trkpt><trkpt lat="9.2174939" lon="-75.8133893"><ele>4.0</ele><time>2026-04-18T12:01:52.686Z</time></trkpt><trkpt lat="9.2175819" lon="-75.8133707"><ele>4.0</ele><time>2026-04-18T12:01:53.687Z</time></trkpt><trkpt lat="9.2176712" lon="-75.8133523"><ele>4.0</ele><time>2026-04-18T12:01:54.687Z</time></trkpt><trkpt lat="9.2177589" lon="-75.813336"><ele>4.0</ele><time>2026-04-18T12:01:55.688Z</time></trkpt><trkpt lat="9.2178525" lon="-75.8133154"><ele>4.0</ele><time>2026-04-18T12:01:56.687Z</time></trkpt><trkpt lat="9.2179474" lon="-75.8132962"><ele>4.0</ele><time>2026-04-18T12:01:57.686Z</time></trkpt><trkpt lat="9.2180379" lon="-75.8132758"><ele>4.0</ele><time>2026-04-18T12:01:58.687Z</time></trkpt><trkpt lat="9.2181279" lon="-75.8132591"><ele>4.0</ele><time>2026-04-18T12:01:59.686Z</time></trkpt><trkpt lat="9.2182158" lon="-75.8132439"><ele>3.6</ele><time>2026-04-18T12:02:00.688Z</time></trkpt><trkpt lat="9.2183077" lon="-75.8132288"><ele>3.2</ele><time>2026-04-18T12:02:01.687Z</time></trkpt><trkpt lat="9.2183977" lon="-75.8132206"><ele>2.8000000000000003</ele><time>2026-04-18T12:02:02.687Z</time></trkpt><trkpt lat="9.218485" lon="-75.8132104"><ele>2.4000000000000004</ele><time>2026-04-18T12:02:03.688Z</time></trkpt><trkpt lat="9.2185774" lon="-75.8132008"><ele>2.0</ele><time>2026-04-18T12:02:04.686Z</time></trkpt><trkpt lat="9.2186706" lon="-75.8131945"><ele>2.0</ele><time>2026-04-18T12:02:05.687Z</time></trkpt><trkpt lat="9.2187644" lon="-75.8131886"><ele>2.0</ele><time>2026-04-18T12:02:06.687Z</time></trkpt><trkpt lat="9.2188555" lon="-75.8131783"><ele>2.0</ele><time>2026-04-18T12:02:07.687Z</time></trkpt><trkpt lat="9.2189467" lon="-75.8131725"><ele>2.0</ele><time>2026-04-18T12:02:08.688Z</time></trkpt><trkpt lat="9.2190381" lon="-75.8131686"><ele>2.0</ele><time>2026-04-18T12:02:09.687Z</time></trkpt><trkpt lat="9.2191333" lon="-75.8131667"><ele>2.333333333333333</ele><time>2026-04-18T12:02:10.687Z</time></trkpt><trkpt lat="9.2192267" lon="-75.8131653"><ele>2.6666666666666665</ele><time>2026-04-18T12:02:11.687Z</time></trkpt><trkpt lat="9.2193174" lon="-75.8131673"><ele>3.0</ele><time>2026-04-18T12:02:12.687Z</time></trkpt><trkpt lat="9.2194064" lon="-75.8131728"><ele>3.333333333333333</ele><time>2026-04-18T12:02:13.685Z</time></trkpt><trkpt lat="9.2194959" lon="-75.8131728"><ele>3.6666666666666665</ele><time>2026-04-18T12:02:14.687Z</time></trkpt><trkpt lat="9.2195802" lon="-75.8131777"><ele>4.0</ele><time>2026-04-18T12:02:15.687Z</time></trkpt><trkpt lat="9.2196655" lon="-75.8131852"><ele>3.9999999999999996</ele><time>2026-04-18T12:02:16.687Z</time></trkpt><trkpt lat="9.2197457" lon="-75.8131916"><ele>4.0</ele><time>2026-04-18T12:02:17.688Z</time></trkpt><trkpt lat="9.2198304" lon="-75.813207"><ele>4.0</ele><time>2026-04-18T12:02:18.687Z</time></trkpt><trkpt lat="9.2199102" lon="-75.81322"><ele>4.0</ele><time>2026-04-18T12:02:19.687Z</time></trkpt><trkpt lat="9.2199952" lon="-75.8132313"><ele>3.9999999999999996</ele><time>2026-04-18T12:02:20.688Z</time></trkpt><trkpt lat="9.2200767" lon="-75.8132464"><ele>4.0</ele><time>2026-04-18T12:02:21.688Z</time></trkpt><trkpt lat="9.2201556" lon="-75.8132556"><ele>3.9999999999999996</ele><time>2026-04-18T12:02:22.688Z</time></trkpt><trkpt lat="9.2202383" lon="-75.8132691"><ele>4.0</ele><time>2026-04-18T12:02:23.687Z</time></trkpt><trkpt lat="9.2203214" lon="-75.8132819"><ele>4.0</ele><time>2026-04-18T12:02:24.687Z</time></trkpt><trkpt lat="9.2203997" lon="-75.8132938"><ele>4.0</ele><time>2026-04-18T12:02:25.687Z</time></trkpt><trkpt lat="9.2204753" lon="-75.8133108"><ele>3.9999999999999996</ele><time>2026-04-18T12:02:26.687Z</time></trkpt><trkpt lat="9.2205545" lon="-75.813322"><ele>4.0</ele><time>2026-04-18T12:02:27.687Z</time></trkpt><trkpt lat="9.220633" lon="-75.813334"><ele>3.9999999999999996</ele><time>2026-04-18T12:02:28.687Z</time></trkpt><trkpt lat="9.2207122" lon="-75.8133466"><ele>4.0</ele><time>2026-04-18T12:02:29.687Z</time></trkpt><trkpt lat="9.2207887" lon="-75.8133583"><ele>4.0</ele><time>2026-04-18T12:02:30.686Z</time></trkpt><trkpt lat="9.2208624" lon="-75.8133699"><ele>4.0</ele><time>2026-04-18T12:02:31.687Z</time></trkpt><trkpt lat="9.2209399" lon="-75.8133846"><ele>3.9999999999999996</ele><time>2026-04-18T12:02:32.686Z</time></trkpt><trkpt lat="9.2210184" lon="-75.8134002"><ele>4.0</ele><time>2026-04-18T12:02:33.687Z</time></trkpt><trkpt lat="9.2210938" lon="-75.8134169"><ele>3.9999999999999996</ele><time>2026-04-18T12:02:34.688Z</time></trkpt><trkpt lat="9.2211709" lon="-75.8134309"><ele>4.0</ele><time>2026-04-18T12:02:35.687Z</time></trkpt><trkpt lat="9.2212455" lon="-75.8134452"><ele>4.0</ele><time>2026-04-18T12:02:36.687Z</time></trkpt><trkpt lat="9.2213162" lon="-75.8134576"><ele>4.0</ele><time>2026-04-18T12:02:37.687Z</time></trkpt><trkpt lat="9.2213822" lon="-75.8134623"><ele>3.9999999999999996</ele><time>2026-04-18T12:02:38.686Z</time></trkpt><trkpt lat="9.2214451" lon="-75.8134694"><ele>4.0</ele><time>2026-04-18T12:02:39.686Z</time></trkpt><trkpt lat="9.2215701" lon="-75.8134884"><ele>4.142857142857142</ele><time>2026-04-18T12:02:41.687Z</time></trkpt><trkpt lat="9.2216329" lon="-75.8135001"><ele>4.285714285714286</ele><time>2026-04-18T12:02:42.687Z</time></trkpt><trkpt lat="9.2216967" lon="-75.8135128"><ele>4.428571428571429</ele><time>2026-04-18T12:02:43.687Z</time></trkpt><trkpt lat="9.2217624" lon="-75.8135302"><ele>4.571428571428571</ele><time>2026-04-18T12:02:44.687Z</time></trkpt><trkpt lat="9.2218251" lon="-75.8135451"><ele>4.714285714285714</ele><time>2026-04-18T12:02:45.687Z</time></trkpt><trkpt lat="9.2218876" lon="-75.8135536"><ele>4.857142857142857</ele><time>2026-04-18T12:02:46.686Z</time></trkpt><trkpt lat="9.2219544" lon="-75.8135667"><ele>5.0</ele><time>2026-04-18T12:02:47.687Z</time></trkpt><trkpt lat="9.222071" lon="-75.8135912"><ele>5.0</ele><time>2026-04-18T12:02:49.686Z</time></trkpt><trkpt lat="9.2221781" lon="-75.8136176"><ele>5.0</ele><time>2026-04-18T12:02:51.687Z</time></trkpt><trkpt lat="9.2222977" lon="-75.8136431"><ele>5.0</ele><time>2026-04-18T12:02:53.687Z</time></trkpt><trkpt lat="9.2223652" lon="-75.8136521"><ele>5.0</ele><time>2026-04-18T12:02:54.687Z</time></trkpt><trkpt lat="9.2224283" lon="-75.8136613"><ele>5.0</ele><time>2026-04-18T12:02:55.688Z</time></trkpt><trkpt lat="9.2225479" lon="-75.8136736"><ele>5.0</ele><time>2026-04-18T12:02:57.687Z</time></trkpt><trkpt lat="9.2226659" lon="-75.8136974"><ele>5.0</ele><time>2026-04-18T12:02:59.687Z</time></trkpt><trkpt lat="9.2227825" lon="-75.813717"><ele>5.0</ele><time>2026-04-18T12:03:01.687Z</time></trkpt><trkpt lat="9.2228456" lon="-75.8137271"><ele>5.0</ele><time>2026-04-18T12:03:02.687Z</time></trkpt><trkpt lat="9.2229079" lon="-75.8137386"><ele>5.0</ele><time>2026-04-18T12:03:03.687Z</time></trkpt><trkpt lat="9.2229815" lon="-75.8137451"><ele>5.0</ele><time>2026-04-18T12:03:04.686Z</time></trkpt><trkpt lat="9.2230483" lon="-75.813755"><ele>5.0</ele><time>2026-04-18T12:03:05.686Z</time></trkpt><trkpt lat="9.2231125" lon="-75.8137653"><ele>5.0</ele><time>2026-04-18T12:03:06.687Z</time></trkpt><trkpt lat="9.2231808" lon="-75.8137825"><ele>5.0</ele><time>2026-04-18T12:03:07.686Z</time></trkpt><trkpt lat="9.2232477" lon="-75.8137964"><ele>5.0</ele><time>2026-04-18T12:03:08.687Z</time></trkpt><trkpt lat="9.2233187" lon="-75.8138111"><ele>5.0</ele><time>2026-04-18T12:03:09.687Z</time></trkpt><trkpt lat="9.2233884" lon="-75.8138248"><ele>5.0</ele><time>2026-04-18T12:03:10.686Z</time></trkpt><trkpt lat="9.2234556" lon="-75.813833"><ele>5.0</ele><time>2026-04-18T12:03:11.686Z</time></trkpt><trkpt lat="9.223525" lon="-75.8138457"><ele>5.0</ele><time>2026-04-18T12:03:12.687Z</time></trkpt><trkpt lat="9.2235944" lon="-75.8138591"><ele>5.0</ele><time>2026-04-18T12:03:13.688Z</time></trkpt><trkpt lat="9.2236645" lon="-75.8138691"><ele>5.0</ele><time>2026-04-18T12:03:14.687Z</time></trkpt><trkpt lat="9.2237352" lon="-75.8138782"><ele>5.0</ele><time>2026-04-18T12:03:15.687Z</time></trkpt><trkpt lat="9.2238072" lon="-75.8138916"><ele>5.0</ele><time>2026-04-18T12:03:16.686Z</time></trkpt><trkpt lat="9.2238775" lon="-75.8139073"><ele>5.0</ele><time>2026-04-18T12:03:17.686Z</time></trkpt><trkpt lat="9.223952" lon="-75.8139165"><ele>5.0</ele><time>2026-04-18T12:03:18.688Z</time></trkpt><trkpt lat="9.2240211" lon="-75.8139231"><ele>5.142857142857142</ele><time>2026-04-18T12:03:19.687Z</time></trkpt><trkpt lat="9.224091" lon="-75.8139331"><ele>5.285714285714286</ele><time>2026-04-18T12:03:20.687Z</time></trkpt><trkpt lat="9.2241622" lon="-75.8139451"><ele>5.428571428571429</ele><time>2026-04-18T12:03:21.687Z</time></trkpt><trkpt lat="9.2242348" lon="-75.8139535"><ele>5.571428571428571</ele><time>2026-04-18T12:03:22.687Z</time></trkpt><trkpt lat="9.224305" lon="-75.8139686"><ele>5.714285714285714</ele><time>2026-04-18T12:03:23.686Z</time></trkpt><trkpt lat="9.2243732" lon="-75.8139833"><ele>5.857142857142857</ele><time>2026-04-18T12:03:24.687Z</time></trkpt><trkpt lat="9.2244399" lon="-75.8139977"><ele>6.0</ele><time>2026-04-18T12:03:25.687Z</time></trkpt><trkpt lat="9.2245103" lon="-75.8140138"><ele>5.999999999999999</ele><time>2026-04-18T12:03:26.686Z</time></trkpt><trkpt lat="9.2245757" lon="-75.8140261"><ele>6.0</ele><time>2026-04-18T12:03:27.686Z</time></trkpt><trkpt lat="9.2246435" lon="-75.814038"><ele>6.0</ele><time>2026-04-18T12:03:28.687Z</time></trkpt><trkpt lat="9.2247128" lon="-75.814045"><ele>6.0</ele><time>2026-04-18T12:03:29.686Z</time></trkpt><trkpt lat="9.2247834" lon="-75.8140537"><ele>6.0</ele><time>2026-04-18T12:03:30.688Z</time></trkpt><trkpt lat="9.2248585" lon="-75.8140666"><ele>5.999999999999999</ele><time>2026-04-18T12:03:31.686Z</time></trkpt><trkpt lat="9.2249324" lon="-75.8140837"><ele>6.0</ele><time>2026-04-18T12:03:32.687Z</time></trkpt><trkpt lat="9.2250055" lon="-75.8140977"><ele>5.857142857142857</ele><time>2026-04-18T12:03:33.687Z</time></trkpt><trkpt lat="9.2250827" lon="-75.8141118"><ele>5.714285714285714</ele><time>2026-04-18T12:03:34.687Z</time></trkpt><trkpt lat="9.2251583" lon="-75.8141202"><ele>5.571428571428571</ele><time>2026-04-18T12:03:35.687Z</time></trkpt><trkpt lat="9.2252314" lon="-75.8141323"><ele>5.428571428571429</ele><time>2026-04-18T12:03:36.687Z</time></trkpt><trkpt lat="9.2253018" lon="-75.814146"><ele>5.285714285714286</ele><time>2026-04-18T12:03:37.687Z</time></trkpt><trkpt lat="9.2253713" lon="-75.8141657"><ele>5.142857142857142</ele><time>2026-04-18T12:03:38.686Z</time></trkpt><trkpt lat="9.2254401" lon="-75.8141893"><ele>5.0</ele><time>2026-04-18T12:03:39.687Z</time></trkpt><trkpt lat="9.2255112" lon="-75.8142077"><ele>5.0</ele><time>2026-04-18T12:03:40.686Z</time></trkpt><trkpt lat="9.2255808" lon="-75.8142313"><ele>5.0</ele><time>2026-04-18T12:03:41.687Z</time></trkpt><trkpt lat="9.2256486" lon="-75.8142545"><ele>5.0</ele><time>2026-04-18T12:03:42.687Z</time></trkpt><trkpt lat="9.2257228" lon="-75.8142854"><ele>5.0</ele><time>2026-04-18T12:03:43.686Z</time></trkpt><trkpt lat="9.225797" lon="-75.8143123"><ele>5.0</ele><time>2026-04-18T12:03:44.688Z</time></trkpt><trkpt lat="9.225869" lon="-75.8143361"><ele>5.0</ele><time>2026-04-18T12:03:45.687Z</time></trkpt><trkpt lat="9.225938" lon="-75.8143596"><ele>5.0</ele><time>2026-04-18T12:03:46.687Z</time></trkpt><trkpt lat="9.2260067" lon="-75.8143748"><ele>5.0</ele><time>2026-04-18T12:03:47.686Z</time></trkpt><trkpt lat="9.226076" lon="-75.8143913"><ele>5.0</ele><time>2026-04-18T12:03:48.686Z</time></trkpt><trkpt lat="9.2261406" lon="-75.8144057"><ele>5.0</ele><time>2026-04-18T12:03:49.686Z</time></trkpt><trkpt lat="9.2262059" lon="-75.8144161"><ele>5.0</ele><time>2026-04-18T12:03:50.686Z</time></trkpt><trkpt lat="9.2262715" lon="-75.8144264"><ele>5.0</ele><time>2026-04-18T12:03:51.688Z</time></trkpt><trkpt lat="9.226396" lon="-75.8144416"><ele>5.0</ele><time>2026-04-18T12:03:53.686Z</time></trkpt><trkpt lat="9.2265116" lon="-75.8144627"><ele>5.0</ele><time>2026-04-18T12:03:55.687Z</time></trkpt><trkpt lat="9.2266253" lon="-75.8144833"><ele>5.0</ele><time>2026-04-18T12:03:57.686Z</time></trkpt><trkpt lat="9.2267372" lon="-75.8145025"><ele>5.0</ele><time>2026-04-18T12:03:59.686Z</time></trkpt><trkpt lat="9.2268508" lon="-75.8145262"><ele>5.0</ele><time>2026-04-18T12:04:01.687Z</time></trkpt><trkpt lat="9.2269599" lon="-75.8145483"><ele>5.0</ele><time>2026-04-18T12:04:03.687Z</time></trkpt><trkpt lat="9.227073" lon="-75.8145626"><ele>5.0</ele><time>2026-04-18T12:04:05.687Z</time></trkpt><trkpt lat="9.2271881" lon="-75.8145707"><ele>5.0</ele><time>2026-04-18T12:04:07.687Z</time></trkpt><trkpt lat="9.227296" lon="-75.8145786"><ele>5.0</ele><time>2026-04-18T12:04:09.686Z</time></trkpt><trkpt lat="9.2273971" lon="-75.8145827"><ele>5.5</ele><time>2026-04-18T12:04:11.687Z</time></trkpt><trkpt lat="9.2274822" lon="-75.8145844"><ele>6.0</ele><time>2026-04-18T12:04:13.688Z</time></trkpt><trkpt lat="9.2275644" lon="-75.8145852"><ele>6.5</ele><time>2026-04-18T12:04:15.685Z</time></trkpt><trkpt lat="9.2276538" lon="-75.8145905"><ele>7.0</ele><time>2026-04-18T12:04:17.686Z</time></trkpt><trkpt lat="9.2277357" lon="-75.8145933"><ele>7.499999999999999</ele><time>2026-04-18T12:04:19.687Z</time></trkpt><trkpt lat="9.2278032" lon="-75.8145938"><ele>8.0</ele><time>2026-04-18T12:04:21.685Z</time></trkpt><trkpt lat="9.2278768" lon="-75.8145945"><ele>7.999999999999999</ele><time>2026-04-18T12:04:25.686Z</time></trkpt><trkpt lat="9.2279651" lon="-75.8145941"><ele>8.0</ele><time>2026-04-18T12:04:53.686Z</time></trkpt><trkpt lat="9.2280336" lon="-75.8146043"><ele>8.0</ele><time>2026-04-18T12:04:55.687Z</time></trkpt><trkpt lat="9.228117" lon="-75.8146154"><ele>8.0</ele><time>2026-04-18T12:04:57.686Z</time></trkpt><trkpt lat="9.228214" lon="-75.814638"><ele>7.999999999999999</ele><time>2026-04-18T12:04:59.686Z</time></trkpt><trkpt lat="9.2283129" lon="-75.8146427"><ele>8.0</ele><time>2026-04-18T12:05:01.686Z</time></trkpt><trkpt lat="9.228415" lon="-75.8146494"><ele>8.200000000000001</ele><time>2026-04-18T12:05:03.686Z</time></trkpt><trkpt lat="9.2285234" lon="-75.8146507"><ele>8.4</ele><time>2026-04-18T12:05:05.686Z</time></trkpt><trkpt lat="9.2286386" lon="-75.8146478"><ele>8.600000000000001</ele><time>2026-04-18T12:05:07.687Z</time></trkpt><trkpt lat="9.2287042" lon="-75.8146507"><ele>8.8</ele><time>2026-04-18T12:05:08.687Z</time></trkpt><trkpt lat="9.2288296" lon="-75.814641"><ele>9.0</ele><time>2026-04-18T12:05:10.687Z</time></trkpt><trkpt lat="9.2289544" lon="-75.8146261"><ele>8.666666666666666</ele><time>2026-04-18T12:05:12.688Z</time></trkpt><trkpt lat="9.229018" lon="-75.8146177"><ele>8.333333333333334</ele><time>2026-04-18T12:05:13.686Z</time></trkpt><trkpt lat="9.2291463" lon="-75.8146025"><ele>8.0</ele><time>2026-04-18T12:05:15.686Z</time></trkpt><trkpt lat="9.2292133" lon="-75.8145953"><ele>7.666666666666667</ele><time>2026-04-18T12:05:16.686Z</time></trkpt><trkpt lat="9.2292793" lon="-75.8145879"><ele>7.333333333333334</ele><time>2026-04-18T12:05:17.687Z</time></trkpt><trkpt lat="9.2293431" lon="-75.8145802"><ele>7.0</ele><time>2026-04-18T12:05:18.687Z</time></trkpt><trkpt lat="9.229407" lon="-75.8145705"><ele>7.0</ele><time>2026-04-18T12:05:19.686Z</time></trkpt><trkpt lat="9.2294773" lon="-75.8145631"><ele>7.0</ele><time>2026-04-18T12:05:20.686Z</time></trkpt><trkpt lat="9.2295448" lon="-75.8145556"><ele>7.0</ele><time>2026-04-18T12:05:21.687Z</time></trkpt><trkpt lat="9.2296126" lon="-75.8145474"><ele>7.0</ele><time>2026-04-18T12:05:22.686Z</time></trkpt><trkpt lat="9.2296831" lon="-75.8145394"><ele>7.0</ele><time>2026-04-18T12:05:23.688Z</time></trkpt><trkpt lat="9.2297521" lon="-75.8145298"><ele>7.0</ele><time>2026-04-18T12:05:24.686Z</time></trkpt><trkpt lat="9.2298222" lon="-75.8145222"><ele>7.0</ele><time>2026-04-18T12:05:25.687Z</time></trkpt><trkpt lat="9.2298922" lon="-75.8145197"><ele>7.142857142857142</ele><time>2026-04-18T12:05:26.688Z</time></trkpt><trkpt lat="9.2299626" lon="-75.8145144"><ele>7.285714285714286</ele><time>2026-04-18T12:05:27.685Z</time></trkpt><trkpt lat="9.2300308" lon="-75.8145063"><ele>7.428571428571429</ele><time>2026-04-18T12:05:28.687Z</time></trkpt><trkpt lat="9.2300998" lon="-75.8144979"><ele>7.571428571428571</ele><time>2026-04-18T12:05:29.686Z</time></trkpt><trkpt lat="9.2301709" lon="-75.8144913"><ele>7.7142857142857135</ele><time>2026-04-18T12:05:30.686Z</time></trkpt><trkpt lat="9.2302422" lon="-75.8144845"><ele>7.857142857142857</ele><time>2026-04-18T12:05:31.687Z</time></trkpt><trkpt lat="9.2303144" lon="-75.8144763"><ele>8.0</ele><time>2026-04-18T12:05:32.687Z</time></trkpt><trkpt lat="9.2303822" lon="-75.8144663"><ele>8.0</ele><time>2026-04-18T12:05:33.686Z</time></trkpt><trkpt lat="9.2304497" lon="-75.8144612"><ele>7.999999999999999</ele><time>2026-04-18T12:05:34.687Z</time></trkpt><trkpt lat="9.2305237" lon="-75.8144488"><ele>8.0</ele><time>2026-04-18T12:05:35.687Z</time></trkpt><trkpt lat="9.2305955" lon="-75.8144487"><ele>8.0</ele><time>2026-04-18T12:05:36.687Z</time></trkpt><trkpt lat="9.2306695" lon="-75.8144439"><ele>7.999999999999999</ele><time>2026-04-18T12:05:37.687Z</time></trkpt><trkpt lat="9.2307381" lon="-75.8144359"><ele>8.0</ele><time>2026-04-18T12:05:38.686Z</time></trkpt><trkpt lat="9.2308067" lon="-75.814429"><ele>8.0</ele><time>2026-04-18T12:05:39.686Z</time></trkpt><trkpt lat="9.2308828" lon="-75.8144129"><ele>8.166666666666666</ele><time>2026-04-18T12:05:40.686Z</time></trkpt><trkpt lat="9.2309579" lon="-75.8143982"><ele>8.333333333333332</ele><time>2026-04-18T12:05:41.686Z</time></trkpt><trkpt lat="9.2310331" lon="-75.8143882"><ele>8.5</ele><time>2026-04-18T12:05:42.685Z</time></trkpt><trkpt lat="9.2311067" lon="-75.8143791"><ele>8.666666666666666</ele><time>2026-04-18T12:05:43.686Z</time></trkpt><trkpt lat="9.2311816" lon="-75.8143715"><ele>8.833333333333334</ele><time>2026-04-18T12:05:44.686Z</time></trkpt><trkpt lat="9.2312583" lon="-75.8143646"><ele>9.0</ele><time>2026-04-18T12:05:45.686Z</time></trkpt><trkpt lat="9.2313339" lon="-75.8143596"><ele>9.0</ele><time>2026-04-18T12:05:46.686Z</time></trkpt><trkpt lat="9.2314081" lon="-75.8143528"><ele>9.0</ele><time>2026-04-18T12:05:47.688Z</time></trkpt><trkpt lat="9.2314752" lon="-75.8143459"><ele>9.0</ele><time>2026-04-18T12:05:48.687Z</time></trkpt><trkpt lat="9.2315379" lon="-75.8143389"><ele>9.0</ele><time>2026-04-18T12:05:49.686Z</time></trkpt><trkpt lat="9.2316484" lon="-75.8143256"><ele>9.0</ele><time>2026-04-18T12:05:51.686Z</time></trkpt><trkpt lat="9.2317549" lon="-75.8143167"><ele>9.0</ele><time>2026-04-18T12:05:53.686Z</time></trkpt><trkpt lat="9.2318667" lon="-75.8143053"><ele>9.0</ele><time>2026-04-18T12:05:55.686Z</time></trkpt><trkpt lat="9.231976" lon="-75.8142854"><ele>9.0</ele><time>2026-04-18T12:05:57.686Z</time></trkpt><trkpt lat="9.2320855" lon="-75.8142745"><ele>9.0</ele><time>2026-04-18T12:05:59.687Z</time></trkpt><trkpt lat="9.2321951" lon="-75.8142667"><ele>9.0</ele><time>2026-04-18T12:06:01.686Z</time></trkpt><trkpt lat="9.2323056" lon="-75.814254"><ele>9.0</ele><time>2026-04-18T12:06:03.686Z</time></trkpt><trkpt lat="9.2324138" lon="-75.8142407"><ele>9.0</ele><time>2026-04-18T12:06:05.686Z</time></trkpt><trkpt lat="9.2325227" lon="-75.8142321"><ele>9.0</ele><time>2026-04-18T12:06:07.687Z</time></trkpt><trkpt lat="9.2326372" lon="-75.8142175"><ele>9.0</ele><time>2026-04-18T12:06:09.687Z</time></trkpt><trkpt lat="9.2327505" lon="-75.8142004"><ele>9.0</ele><time>2026-04-18T12:06:11.685Z</time></trkpt><trkpt lat="9.2328693" lon="-75.8141854"><ele>9.0</ele><time>2026-04-18T12:06:13.687Z</time></trkpt><trkpt lat="9.2329851" lon="-75.8141684"><ele>9.0</ele><time>2026-04-18T12:06:15.686Z</time></trkpt><trkpt lat="9.233108" lon="-75.8141492"><ele>9.0</ele><time>2026-04-18T12:06:17.686Z</time></trkpt><trkpt lat="9.2332289" lon="-75.8141313"><ele>9.0</ele><time>2026-04-18T12:06:19.688Z</time></trkpt><trkpt lat="9.2333428" lon="-75.8141136"><ele>9.25</ele><time>2026-04-18T12:06:21.687Z</time></trkpt><trkpt lat="9.2334655" lon="-75.8141021"><ele>9.5</ele><time>2026-04-18T12:06:23.686Z</time></trkpt><trkpt lat="9.2335809" lon="-75.8140892"><ele>9.75</ele><time>2026-04-18T12:06:25.687Z</time></trkpt><trkpt lat="9.2337034" lon="-75.8140849"><ele>10.0</ele><time>2026-04-18T12:06:27.686Z</time></trkpt><trkpt lat="9.2338245" lon="-75.8140716"><ele>10.0</ele><time>2026-04-18T12:06:29.686Z</time></trkpt><trkpt lat="9.2339429" lon="-75.81406"><ele>10.0</ele><time>2026-04-18T12:06:31.686Z</time></trkpt><trkpt lat="9.2340609" lon="-75.814047"><ele>10.0</ele><time>2026-04-18T12:06:33.687Z</time></trkpt><trkpt lat="9.234176" lon="-75.8140312"><ele>10.0</ele><time>2026-04-18T12:06:35.686Z</time></trkpt><trkpt lat="9.2342915" lon="-75.8140241"><ele>9.75</ele><time>2026-04-18T12:06:37.687Z</time></trkpt><trkpt lat="9.2344084" lon="-75.8140067"><ele>9.5</ele><time>2026-04-18T12:06:39.686Z</time></trkpt><trkpt lat="9.2345246" lon="-75.8139919"><ele>9.25</ele><time>2026-04-18T12:06:41.687Z</time></trkpt><trkpt lat="9.2346391" lon="-75.8139815"><ele>9.0</ele><time>2026-04-18T12:06:43.686Z</time></trkpt><trkpt lat="9.2347493" lon="-75.8139631"><ele>9.2</ele><time>2026-04-18T12:06:45.686Z</time></trkpt><trkpt lat="9.2348519" lon="-75.8139465"><ele>9.4</ele><time>2026-04-18T12:06:47.687Z</time></trkpt><trkpt lat="9.2349467" lon="-75.8139287"><ele>9.6</ele><time>2026-04-18T12:06:49.686Z</time></trkpt><trkpt lat="9.2350438" lon="-75.8139155"><ele>9.8</ele><time>2026-04-18T12:06:51.686Z</time></trkpt><trkpt lat="9.2351426" lon="-75.8139068"><ele>10.0</ele><time>2026-04-18T12:06:53.686Z</time></trkpt><trkpt lat="9.2352457" lon="-75.8138869"><ele>10.0</ele><time>2026-04-18T12:06:55.686Z</time></trkpt><trkpt lat="9.2353582" lon="-75.8138684"><ele>10.0</ele><time>2026-04-18T12:06:57.686Z</time></trkpt><trkpt lat="9.2354737" lon="-75.8138565"><ele>10.0</ele><time>2026-04-18T12:06:59.686Z</time></trkpt><trkpt lat="9.235592" lon="-75.8138428"><ele>10.0</ele><time>2026-04-18T12:07:01.686Z</time></trkpt><trkpt lat="9.2356556" lon="-75.8138369"><ele>10.0</ele><time>2026-04-18T12:07:02.687Z</time></trkpt><trkpt lat="9.2357752" lon="-75.813822"><ele>9.833333333333334</ele><time>2026-04-18T12:07:04.686Z</time></trkpt><trkpt lat="9.2358967" lon="-75.8138013"><ele>9.666666666666668</ele><time>2026-04-18T12:07:06.686Z</time></trkpt><trkpt lat="9.2360178" lon="-75.8137892"><ele>9.5</ele><time>2026-04-18T12:07:08.686Z</time></trkpt><trkpt lat="9.2360827" lon="-75.8137793"><ele>9.333333333333334</ele><time>2026-04-18T12:07:09.686Z</time></trkpt><trkpt lat="9.2361462" lon="-75.8137659"><ele>9.166666666666666</ele><time>2026-04-18T12:07:10.686Z</time></trkpt><trkpt lat="9.2362129" lon="-75.8137592"><ele>9.0</ele><time>2026-04-18T12:07:11.687Z</time></trkpt><trkpt lat="9.2362778" lon="-75.813753"><ele>9.000000000000002</ele><time>2026-04-18T12:07:12.686Z</time></trkpt><trkpt lat="9.2363438" lon="-75.8137471"><ele>9.0</ele><time>2026-04-18T12:07:13.686Z</time></trkpt><trkpt lat="9.2364115" lon="-75.8137396"><ele>9.0</ele><time>2026-04-18T12:07:14.686Z</time></trkpt><trkpt lat="9.2364783" lon="-75.813736"><ele>9.0</ele><time>2026-04-18T12:07:15.686Z</time></trkpt><trkpt lat="9.23655" lon="-75.8137307"><ele>9.0</ele><time>2026-04-18T12:07:16.686Z</time></trkpt><trkpt lat="9.2366213" lon="-75.8137199"><ele>9.000000000000002</ele><time>2026-04-18T12:07:17.686Z</time></trkpt><trkpt lat="9.2366926" lon="-75.8137132"><ele>9.0</ele><time>2026-04-18T12:07:18.686Z</time></trkpt><trkpt lat="9.2367603" lon="-75.8137037"><ele>8.857142857142858</ele><time>2026-04-18T12:07:19.686Z</time></trkpt><trkpt lat="9.2368274" lon="-75.813696"><ele>8.714285714285715</ele><time>2026-04-18T12:07:20.686Z</time></trkpt><trkpt lat="9.2368965" lon="-75.8136861"><ele>8.571428571428571</ele><time>2026-04-18T12:07:21.686Z</time></trkpt><trkpt lat="9.2369641" lon="-75.8136779"><ele>8.428571428571429</ele><time>2026-04-18T12:07:22.686Z</time></trkpt><trkpt lat="9.2370315" lon="-75.8136704"><ele>8.285714285714285</ele><time>2026-04-18T12:07:23.686Z</time></trkpt><trkpt lat="9.2370995" lon="-75.8136634"><ele>8.142857142857142</ele><time>2026-04-18T12:07:24.686Z</time></trkpt><trkpt lat="9.2371725" lon="-75.8136545"><ele>8.0</ele><time>2026-04-18T12:07:25.686Z</time></trkpt><trkpt lat="9.2372438" lon="-75.8136444"><ele>8.285714285714285</ele><time>2026-04-18T12:07:26.686Z</time></trkpt><trkpt lat="9.2373135" lon="-75.8136375"><ele>8.571428571428571</ele><time>2026-04-18T12:07:27.686Z</time></trkpt><trkpt lat="9.2373859" lon="-75.8136312"><ele>8.857142857142858</ele><time>2026-04-18T12:07:28.686Z</time></trkpt><trkpt lat="9.2374593" lon="-75.8136235"><ele>9.142857142857142</ele><time>2026-04-18T12:07:29.686Z</time></trkpt><trkpt lat="9.2375308" lon="-75.8136138"><ele>9.428571428571429</ele><time>2026-04-18T12:07:30.686Z</time></trkpt><trkpt lat="9.2375997" lon="-75.8136012"><ele>9.714285714285714</ele><time>2026-04-18T12:07:31.686Z</time></trkpt><trkpt lat="9.2376716" lon="-75.8135851"><ele>10.0</ele><time>2026-04-18T12:07:32.686Z</time></trkpt><trkpt lat="9.2377427" lon="-75.8135749"><ele>10.0</ele><time>2026-04-18T12:07:33.686Z</time></trkpt><trkpt lat="9.2378153" lon="-75.8135637"><ele>10.0</ele><time>2026-04-18T12:07:34.687Z</time></trkpt><trkpt lat="9.2378865" lon="-75.813556"><ele>10.0</ele><time>2026-04-18T12:07:35.686Z</time></trkpt><trkpt lat="9.237958" lon="-75.8135496"><ele>10.0</ele><time>2026-04-18T12:07:36.686Z</time></trkpt><trkpt lat="9.2380283" lon="-75.8135467"><ele>10.0</ele><time>2026-04-18T12:07:37.686Z</time></trkpt><trkpt lat="9.2380959" lon="-75.8135411"><ele>10.0</ele><time>2026-04-18T12:07:38.686Z</time></trkpt><trkpt lat="9.2381617" lon="-75.8135316"><ele>10.0</ele><time>2026-04-18T12:07:39.686Z</time></trkpt><trkpt lat="9.2382254" lon="-75.8135243"><ele>10.4</ele><time>2026-04-18T12:07:40.686Z</time></trkpt><trkpt lat="9.2382914" lon="-75.8135159"><ele>10.8</ele><time>2026-04-18T12:07:41.686Z</time></trkpt><trkpt lat="9.2384108" lon="-75.8135077"><ele>11.2</ele><time>2026-04-18T12:07:43.686Z</time></trkpt><trkpt lat="9.2385205" lon="-75.8134953"><ele>11.6</ele><time>2026-04-18T12:07:45.686Z</time></trkpt><trkpt lat="9.2386216" lon="-75.8134902"><ele>12.0</ele><time>2026-04-18T12:07:47.686Z</time></trkpt><trkpt lat="9.2387239" lon="-75.8134766"><ele>12.25</ele><time>2026-04-18T12:07:49.686Z</time></trkpt><trkpt lat="9.2388308" lon="-75.8134571"><ele>12.5</ele><time>2026-04-18T12:07:51.686Z</time></trkpt><trkpt lat="9.2389392" lon="-75.8134344"><ele>12.75</ele><time>2026-04-18T12:07:53.686Z</time></trkpt><trkpt lat="9.2390507" lon="-75.813418"><ele>13.0</ele><time>2026-04-18T12:07:55.687Z</time></trkpt><trkpt lat="9.2391681" lon="-75.8134037"><ele>13.0</ele><time>2026-04-18T12:07:57.686Z</time></trkpt><trkpt lat="9.2392845" lon="-75.8133885"><ele>13.0</ele><time>2026-04-18T12:07:59.686Z</time></trkpt><trkpt lat="9.2394036" lon="-75.8133755"><ele>13.0</ele><time>2026-04-18T12:08:01.686Z</time></trkpt><trkpt lat="9.2395156" lon="-75.8133584"><ele>13.0</ele><time>2026-04-18T12:08:03.687Z</time></trkpt><trkpt lat="9.2396302" lon="-75.8133383"><ele>13.0</ele><time>2026-04-18T12:08:05.686Z</time></trkpt><trkpt lat="9.2397452" lon="-75.8133224"><ele>13.0</ele><time>2026-04-18T12:08:07.686Z</time></trkpt><trkpt lat="9.2398621" lon="-75.8133023"><ele>13.0</ele><time>2026-04-18T12:08:09.685Z</time></trkpt><trkpt lat="9.2399775" lon="-75.8132867"><ele>13.0</ele><time>2026-04-18T12:08:11.687Z</time></trkpt><trkpt lat="9.2400854" lon="-75.8132735"><ele>13.600000000000001</ele><time>2026-04-18T12:08:13.686Z</time></trkpt><trkpt lat="9.2401919" lon="-75.8132602"><ele>14.200000000000001</ele><time>2026-04-18T12:08:15.687Z</time></trkpt><trkpt lat="9.2403002" lon="-75.8132432"><ele>14.8</ele><time>2026-04-18T12:08:17.686Z</time></trkpt><trkpt lat="9.2404089" lon="-75.8132255"><ele>15.4</ele><time>2026-04-18T12:08:19.686Z</time></trkpt><trkpt lat="9.2405109" lon="-75.8132073"><ele>16.0</ele><time>2026-04-18T12:08:21.687Z</time></trkpt><trkpt lat="9.2406166" lon="-75.8131969"><ele>16.8</ele><time>2026-04-18T12:08:23.687Z</time></trkpt><trkpt lat="9.240722" lon="-75.8131833"><ele>17.6</ele><time>2026-04-18T12:08:25.685Z</time></trkpt><trkpt lat="9.240825" lon="-75.8131731"><ele>18.4</ele><time>2026-04-18T12:08:27.686Z</time></trkpt><trkpt lat="9.2409318" lon="-75.8131662"><ele>19.2</ele><time>2026-04-18T12:08:29.687Z</time></trkpt><trkpt lat="9.2410383" lon="-75.8131547"><ele>20.0</ele><time>2026-04-18T12:08:31.686Z</time></trkpt><trkpt lat="9.2411405" lon="-75.8131432"><ele>20.0</ele><time>2026-04-18T12:08:33.687Z</time></trkpt><trkpt lat="9.2412435" lon="-75.8131336"><ele>20.0</ele><time>2026-04-18T12:08:35.686Z</time></trkpt><trkpt lat="9.2413438" lon="-75.8131155"><ele>20.0</ele><time>2026-04-18T12:08:37.687Z</time></trkpt><trkpt lat="9.241444" lon="-75.8130995"><ele>20.0</ele><time>2026-04-18T12:08:39.686Z</time></trkpt><trkpt lat="9.2415468" lon="-75.8130878"><ele>20.0</ele><time>2026-04-18T12:08:41.687Z</time></trkpt><trkpt lat="9.2416482" lon="-75.8130766"><ele>20.6</ele><time>2026-04-18T12:08:43.686Z</time></trkpt><trkpt lat="9.2417519" lon="-75.813064"><ele>21.2</ele><time>2026-04-18T12:08:45.686Z</time></trkpt><trkpt lat="9.2418557" lon="-75.8130509"><ele>21.799999999999997</ele><time>2026-04-18T12:08:47.686Z</time></trkpt><trkpt lat="9.2419641" lon="-75.8130327"><ele>22.4</ele><time>2026-04-18T12:08:49.687Z</time></trkpt><trkpt lat="9.242076" lon="-75.8130165"><ele>23.0</ele><time>2026-04-18T12:08:51.687Z</time></trkpt><trkpt lat="9.2421808" lon="-75.8130105"><ele>22.75</ele><time>2026-04-18T12:08:53.686Z</time></trkpt><trkpt lat="9.2422988" lon="-75.8129934"><ele>22.5</ele><time>2026-04-18T12:08:55.687Z</time></trkpt><trkpt lat="9.2424108" lon="-75.8129788"><ele>22.25</ele><time>2026-04-18T12:08:57.686Z</time></trkpt><trkpt lat="9.2425234" lon="-75.8129672"><ele>22.0</ele><time>2026-04-18T12:08:59.686Z</time></trkpt><trkpt lat="9.2426388" lon="-75.8129584"><ele>22.0</ele><time>2026-04-18T12:09:01.686Z</time></trkpt><trkpt lat="9.2427494" lon="-75.8129415"><ele>22.0</ele><time>2026-04-18T12:09:03.685Z</time></trkpt><trkpt lat="9.2428512" lon="-75.8129321"><ele>22.0</ele><time>2026-04-18T12:09:05.685Z</time></trkpt><trkpt lat="9.2429301" lon="-75.8129235"><ele>22.0</ele><time>2026-04-18T12:09:07.686Z</time></trkpt><trkpt lat="9.2430126" lon="-75.8129106"><ele>22.0</ele><time>2026-04-18T12:09:10.686Z</time></trkpt><trkpt lat="9.2430865" lon="-75.8129031"><ele>21.666666666666664</ele><time>2026-04-18T12:09:13.686Z</time></trkpt><trkpt lat="9.2431678" lon="-75.8128902"><ele>21.333333333333332</ele><time>2026-04-18T12:09:16.686Z</time></trkpt><trkpt lat="9.2432522" lon="-75.812882"><ele>21.0</ele><time>2026-04-18T12:09:19.686Z</time></trkpt><trkpt lat="9.243332" lon="-75.8128731"><ele>20.666666666666668</ele><time>2026-04-18T12:09:22.685Z</time></trkpt><trkpt lat="9.2434302" lon="-75.8128624"><ele>20.333333333333336</ele><time>2026-04-18T12:09:25.686Z</time></trkpt><trkpt lat="9.2435105" lon="-75.8128574"><ele>20.0</ele><time>2026-04-18T12:09:27.685Z</time></trkpt><trkpt lat="9.2435984" lon="-75.8128524"><ele>20.0</ele><time>2026-04-18T12:09:29.686Z</time></trkpt><trkpt lat="9.2436867" lon="-75.8128464"><ele>20.0</ele><time>2026-04-18T12:09:31.685Z</time></trkpt><trkpt lat="9.2437845" lon="-75.8128362"><ele>20.0</ele><time>2026-04-18T12:09:33.686Z</time></trkpt><trkpt lat="9.2438877" lon="-75.8128186"><ele>20.0</ele><time>2026-04-18T12:09:35.687Z</time></trkpt><trkpt lat="9.2439924" lon="-75.8128101"><ele>20.0</ele><time>2026-04-18T12:09:37.686Z</time></trkpt><trkpt lat="9.2440948" lon="-75.8127988"><ele>20.0</ele><time>2026-04-18T12:09:39.686Z</time></trkpt><trkpt lat="9.2442017" lon="-75.8127897"><ele>20.0</ele><time>2026-04-18T12:09:41.687Z</time></trkpt><trkpt lat="9.2443118" lon="-75.812773"><ele>20.0</ele><time>2026-04-18T12:09:43.685Z</time></trkpt><trkpt lat="9.2444127" lon="-75.8127602"><ele>20.0</ele><time>2026-04-18T12:09:45.685Z</time></trkpt><trkpt lat="9.2445104" lon="-75.812741"><ele>20.0</ele><time>2026-04-18T12:09:47.686Z</time></trkpt><trkpt lat="9.2446117" lon="-75.8127335"><ele>20.0</ele><time>2026-04-18T12:09:49.686Z</time></trkpt><trkpt lat="9.244709" lon="-75.8127267"><ele>20.0</ele><time>2026-04-18T12:09:51.686Z</time></trkpt><trkpt lat="9.2448121" lon="-75.8127124"><ele>20.0</ele><time>2026-04-18T12:09:53.686Z</time></trkpt><trkpt lat="9.2449145" lon="-75.8127063"><ele>20.0</ele><time>2026-04-18T12:09:55.686Z</time></trkpt><trkpt lat="9.2450207" lon="-75.8126912"><ele>20.0</ele><time>2026-04-18T12:09:57.686Z</time></trkpt><trkpt lat="9.2451201" lon="-75.8126758"><ele>19.8</ele><time>2026-04-18T12:09:59.686Z</time></trkpt><trkpt lat="9.2452194" lon="-75.812661"><ele>19.6</ele><time>2026-04-18T12:10:01.685Z</time></trkpt><trkpt lat="9.2453215" lon="-75.8126468"><ele>19.4</ele><time>2026-04-18T12:10:03.686Z</time></trkpt><trkpt lat="9.2454255" lon="-75.8126411"><ele>19.2</ele><time>2026-04-18T12:10:05.685Z</time></trkpt><trkpt lat="9.2455294" lon="-75.8126309"><ele>19.0</ele><time>2026-04-18T12:10:07.686Z</time></trkpt><trkpt lat="9.2456355" lon="-75.8126155"><ele>20.2</ele><time>2026-04-18T12:10:09.686Z</time></trkpt><trkpt lat="9.2457429" lon="-75.8126071"><ele>21.4</ele><time>2026-04-18T12:10:11.686Z</time></trkpt><trkpt lat="9.2458496" lon="-75.8125969"><ele>22.6</ele><time>2026-04-18T12:10:13.686Z</time></trkpt><trkpt lat="9.2459577" lon="-75.8125809"><ele>23.8</ele><time>2026-04-18T12:10:15.686Z</time></trkpt><trkpt lat="9.2460614" lon="-75.8125682"><ele>25.0</ele><time>2026-04-18T12:10:17.686Z</time></trkpt><trkpt lat="9.2461668" lon="-75.8125549"><ele>25.0</ele><time>2026-04-18T12:10:19.685Z</time></trkpt><trkpt lat="9.246276" lon="-75.8125441"><ele>25.0</ele><time>2026-04-18T12:10:21.686Z</time></trkpt><trkpt lat="9.2463847" lon="-75.8125284"><ele>25.0</ele><time>2026-04-18T12:10:23.687Z</time></trkpt><trkpt lat="9.2464918" lon="-75.8125118"><ele>25.0</ele><time>2026-04-18T12:10:25.685Z</time></trkpt><trkpt lat="9.2465984" lon="-75.8124958"><ele>25.0</ele><time>2026-04-18T12:10:27.685Z</time></trkpt><trkpt lat="9.2467095" lon="-75.8124814"><ele>25.0</ele><time>2026-04-18T12:10:29.686Z</time></trkpt><trkpt lat="9.2468205" lon="-75.8124687"><ele>25.0</ele><time>2026-04-18T12:10:31.686Z</time></trkpt><trkpt lat="9.2469358" lon="-75.8124529"><ele>25.0</ele><time>2026-04-18T12:10:33.686Z</time></trkpt><trkpt lat="9.2470409" lon="-75.8124355"><ele>25.0</ele><time>2026-04-18T12:10:35.686Z</time></trkpt><trkpt lat="9.2471559" lon="-75.81242"><ele>25.0</ele><time>2026-04-18T12:10:37.686Z</time></trkpt><trkpt lat="9.2472678" lon="-75.81241"><ele>25.0</ele><time>2026-04-18T12:10:39.685Z</time></trkpt><trkpt lat="9.2473758" lon="-75.8123953"><ele>25.0</ele><time>2026-04-18T12:10:41.687Z</time></trkpt><trkpt lat="9.2474839" lon="-75.8123839"><ele>25.0</ele><time>2026-04-18T12:10:43.685Z</time></trkpt><trkpt lat="9.2475871" lon="-75.8123763"><ele>25.0</ele><time>2026-04-18T12:10:45.686Z</time></trkpt><trkpt lat="9.2476928" lon="-75.8123678"><ele>25.2</ele><time>2026-04-18T12:10:47.684Z</time></trkpt><trkpt lat="9.2477937" lon="-75.812349"><ele>25.4</ele><time>2026-04-18T12:10:49.685Z</time></trkpt><trkpt lat="9.2478971" lon="-75.8123311"><ele>25.6</ele><time>2026-04-18T12:10:51.686Z</time></trkpt><trkpt lat="9.2480007" lon="-75.8123148"><ele>25.8</ele><time>2026-04-18T12:10:53.686Z</time></trkpt><trkpt lat="9.2481049" lon="-75.8122932"><ele>26.0</ele><time>2026-04-18T12:10:55.687Z</time></trkpt><trkpt lat="9.2482108" lon="-75.8122831"><ele>26.8</ele><time>2026-04-18T12:10:57.686Z</time></trkpt><trkpt lat="9.2483225" lon="-75.8122738"><ele>27.6</ele><time>2026-04-18T12:10:59.686Z</time></trkpt><trkpt lat="9.2484305" lon="-75.8122617"><ele>28.4</ele><time>2026-04-18T12:11:01.686Z</time></trkpt><trkpt lat="9.2485379" lon="-75.812255"><ele>29.2</ele><time>2026-04-18T12:11:03.685Z</time></trkpt><trkpt lat="9.2486424" lon="-75.8122482"><ele>30.0</ele><time>2026-04-18T12:11:05.685Z</time></trkpt><trkpt lat="9.2487545" lon="-75.8122456"><ele>30.0</ele><time>2026-04-18T12:11:07.685Z</time></trkpt><trkpt lat="9.2488639" lon="-75.8122504"><ele>30.0</ele><time>2026-04-18T12:11:09.685Z</time></trkpt><trkpt lat="9.2489728" lon="-75.812258"><ele>30.0</ele><time>2026-04-18T12:11:11.686Z</time></trkpt><trkpt lat="9.2490836" lon="-75.8122631"><ele>30.0</ele><time>2026-04-18T12:11:13.686Z</time></trkpt><trkpt lat="9.2491929" lon="-75.8122734"><ele>30.0</ele><time>2026-04-18T12:11:15.686Z</time></trkpt><trkpt lat="9.2493025" lon="-75.8122829"><ele>30.25</ele><time>2026-04-18T12:11:17.686Z</time></trkpt><trkpt lat="9.2494142" lon="-75.8122917"><ele>30.5</ele><time>2026-04-18T12:11:19.686Z</time></trkpt><trkpt lat="9.2495334" lon="-75.812306"><ele>30.75</ele><time>2026-04-18T12:11:21.686Z</time></trkpt><trkpt lat="9.2496484" lon="-75.8123168"><ele>31.0</ele><time>2026-04-18T12:11:23.685Z</time></trkpt><trkpt lat="9.249759" lon="-75.8123307"><ele>31.6</ele><time>2026-04-18T12:11:25.685Z</time></trkpt><trkpt lat="9.2498675" lon="-75.8123506"><ele>32.2</ele><time>2026-04-18T12:11:27.686Z</time></trkpt><trkpt lat="9.2499747" lon="-75.8123715"><ele>32.8</ele><time>2026-04-18T12:11:29.685Z</time></trkpt><trkpt lat="9.2500713" lon="-75.8123952"><ele>33.4</ele><time>2026-04-18T12:11:31.687Z</time></trkpt><trkpt lat="9.2501573" lon="-75.8124168"><ele>34.0</ele><time>2026-04-18T12:11:33.685Z</time></trkpt><trkpt lat="9.2502344" lon="-75.8124427"><ele>34.0</ele><time>2026-04-18T12:11:35.686Z</time></trkpt><trkpt lat="9.2503156" lon="-75.8124706"><ele>34.0</ele><time>2026-04-18T12:11:37.686Z</time></trkpt><trkpt lat="9.250406" lon="-75.8124964"><ele>34.0</ele><time>2026-04-18T12:11:39.685Z</time></trkpt><trkpt lat="9.2505049" lon="-75.812527"><ele>34.0</ele><time>2026-04-18T12:11:41.686Z</time></trkpt><trkpt lat="9.2506015" lon="-75.8125597"><ele>34.0</ele><time>2026-04-18T12:11:43.686Z</time></trkpt><trkpt lat="9.2507008" lon="-75.8125906"><ele>34.4</ele><time>2026-04-18T12:11:45.686Z</time></trkpt><trkpt lat="9.2508029" lon="-75.8126296"><ele>34.8</ele><time>2026-04-18T12:11:47.687Z</time></trkpt><trkpt lat="9.2509075" lon="-75.8126685"><ele>35.2</ele><time>2026-04-18T12:11:49.686Z</time></trkpt><trkpt lat="9.2510119" lon="-75.8127102"><ele>35.6</ele><time>2026-04-18T12:11:51.686Z</time></trkpt><trkpt lat="9.2511196" lon="-75.8127505"><ele>36.0</ele><time>2026-04-18T12:11:53.685Z</time></trkpt><trkpt lat="9.2512241" lon="-75.8127975"><ele>34.75</ele><time>2026-04-18T12:11:55.686Z</time></trkpt><trkpt lat="9.2513328" lon="-75.8128436"><ele>33.5</ele><time>2026-04-18T12:11:57.687Z</time></trkpt><trkpt lat="9.2514379" lon="-75.8128869"><ele>32.25</ele><time>2026-04-18T12:11:59.686Z</time></trkpt><trkpt lat="9.2515424" lon="-75.8129223"><ele>31.0</ele><time>2026-04-18T12:12:01.686Z</time></trkpt><trkpt lat="9.251654" lon="-75.812966"><ele>31.0</ele><time>2026-04-18T12:12:03.685Z</time></trkpt><trkpt lat="9.2517629" lon="-75.8130079"><ele>31.0</ele><time>2026-04-18T12:12:05.686Z</time></trkpt><trkpt lat="9.2518733" lon="-75.8130469"><ele>31.0</ele><time>2026-04-18T12:12:07.686Z</time></trkpt><trkpt lat="9.2519824" lon="-75.8130934"><ele>31.0</ele><time>2026-04-18T12:12:09.686Z</time></trkpt><trkpt lat="9.2520939" lon="-75.8131333"><ele>31.0</ele><time>2026-04-18T12:12:11.687Z</time></trkpt><trkpt lat="9.2522016" lon="-75.813176"><ele>31.0</ele><time>2026-04-18T12:12:13.685Z</time></trkpt><trkpt lat="9.2523136" lon="-75.8132214"><ele>31.0</ele><time>2026-04-18T12:12:15.685Z</time></trkpt><trkpt lat="9.252422" lon="-75.8132615"><ele>31.0</ele><time>2026-04-18T12:12:17.686Z</time></trkpt><trkpt lat="9.252479" lon="-75.8132897"><ele>31.0</ele><time>2026-04-18T12:12:18.686Z</time></trkpt><trkpt lat="9.2525806" lon="-75.8133461"><ele>30.75</ele><time>2026-04-18T12:12:20.685Z</time></trkpt><trkpt lat="9.2526847" lon="-75.8133881"><ele>30.5</ele><time>2026-04-18T12:12:22.685Z</time></trkpt><trkpt lat="9.2527919" lon="-75.8134344"><ele>30.25</ele><time>2026-04-18T12:12:24.685Z</time></trkpt><trkpt lat="9.2528958" lon="-75.8134717"><ele>30.0</ele><time>2026-04-18T12:12:26.685Z</time></trkpt><trkpt lat="9.253006" lon="-75.8135132"><ele>30.0</ele><time>2026-04-18T12:12:28.686Z</time></trkpt><trkpt lat="9.2531148" lon="-75.813563"><ele>30.0</ele><time>2026-04-18T12:12:30.687Z</time></trkpt><trkpt lat="9.2532251" lon="-75.8136058"><ele>30.0</ele><time>2026-04-18T12:12:32.685Z</time></trkpt><trkpt lat="9.2533346" lon="-75.8136469"><ele>30.0</ele><time>2026-04-18T12:12:34.685Z</time></trkpt><trkpt lat="9.2534472" lon="-75.8136896"><ele>30.0</ele><time>2026-04-18T12:12:36.687Z</time></trkpt><trkpt lat="9.2535559" lon="-75.8137307"><ele>30.0</ele><time>2026-04-18T12:12:38.685Z</time></trkpt><trkpt lat="9.2536696" lon="-75.813776"><ele>30.0</ele><time>2026-04-18T12:12:40.685Z</time></trkpt><trkpt lat="9.2537871" lon="-75.8138113"><ele>30.0</ele><time>2026-04-18T12:12:42.685Z</time></trkpt><trkpt lat="9.2538482" lon="-75.813832"><ele>30.0</ele><time>2026-04-18T12:12:43.686Z</time></trkpt><trkpt lat="9.2539591" lon="-75.8138715"><ele>30.8</ele><time>2026-04-18T12:12:45.686Z</time></trkpt><trkpt lat="9.2540578" lon="-75.8139092"><ele>31.6</ele><time>2026-04-18T12:12:47.686Z</time></trkpt><trkpt lat="9.2541488" lon="-75.81395"><ele>32.4</ele><time>2026-04-18T12:12:49.686Z</time></trkpt><trkpt lat="9.2542311" lon="-75.8139922"><ele>33.2</ele><time>2026-04-18T12:12:51.686Z</time></trkpt><trkpt lat="9.2543206" lon="-75.8140316"><ele>34.0</ele><time>2026-04-18T12:12:53.686Z</time></trkpt><trkpt lat="9.2544203" lon="-75.8140655"><ele>34.0</ele><time>2026-04-18T12:12:55.686Z</time></trkpt><trkpt lat="9.254523" lon="-75.8141011"><ele>34.0</ele><time>2026-04-18T12:12:57.685Z</time></trkpt><trkpt lat="9.2546239" lon="-75.8141355"><ele>34.0</ele><time>2026-04-18T12:12:59.685Z</time></trkpt><trkpt lat="9.2547277" lon="-75.8141805"><ele>34.0</ele><time>2026-04-18T12:13:01.685Z</time></trkpt><trkpt lat="9.2548395" lon="-75.8142226"><ele>34.0</ele><time>2026-04-18T12:13:03.685Z</time></trkpt><trkpt lat="9.2548975" lon="-75.8142508"><ele>34.4</ele><time>2026-04-18T12:13:04.686Z</time></trkpt><trkpt lat="9.2550076" lon="-75.8142996"><ele>34.8</ele><time>2026-04-18T12:13:06.685Z</time></trkpt><trkpt lat="9.2550677" lon="-75.8143216"><ele>35.2</ele><time>2026-04-18T12:13:07.685Z</time></trkpt><trkpt lat="9.2551822" lon="-75.8143648"><ele>35.6</ele><time>2026-04-18T12:13:09.686Z</time></trkpt><trkpt lat="9.2552424" lon="-75.81439"><ele>36.0</ele><time>2026-04-18T12:13:10.686Z</time></trkpt><trkpt lat="9.2553575" lon="-75.8144362"><ele>36.0</ele><time>2026-04-18T12:13:12.686Z</time></trkpt><trkpt lat="9.2554742" lon="-75.8144795"><ele>36.0</ele><time>2026-04-18T12:13:14.686Z</time></trkpt><trkpt lat="9.2555344" lon="-75.8145023"><ele>36.0</ele><time>2026-04-18T12:13:15.685Z</time></trkpt><trkpt lat="9.2556447" lon="-75.8145557"><ele>36.0</ele><time>2026-04-18T12:13:17.686Z</time></trkpt><trkpt lat="9.2557047" lon="-75.8145785"><ele>36.0</ele><time>2026-04-18T12:13:18.685Z</time></trkpt><trkpt lat="9.2557646" lon="-75.814608"><ele>36.0</ele><time>2026-04-18T12:13:19.687Z</time></trkpt><trkpt lat="9.2558278" lon="-75.8146306"><ele>36.00000000000001</ele><time>2026-04-18T12:13:20.685Z</time></trkpt><trkpt lat="9.2558884" lon="-75.8146561"><ele>36.0</ele><time>2026-04-18T12:13:21.685Z</time></trkpt><trkpt lat="9.2559482" lon="-75.8146788"><ele>36.0</ele><time>2026-04-18T12:13:22.686Z</time></trkpt><trkpt lat="9.2560141" lon="-75.8147016"><ele>36.0</ele><time>2026-04-18T12:13:23.686Z</time></trkpt><trkpt lat="9.2560726" lon="-75.8147261"><ele>36.0</ele><time>2026-04-18T12:13:24.686Z</time></trkpt><trkpt lat="9.2561388" lon="-75.8147539"><ele>36.00000000000001</ele><time>2026-04-18T12:13:25.685Z</time></trkpt><trkpt lat="9.2562025" lon="-75.8147863"><ele>36.0</ele><time>2026-04-18T12:13:26.685Z</time></trkpt><trkpt lat="9.256265" lon="-75.814808"><ele>36.00000000000001</ele><time>2026-04-18T12:13:27.685Z</time></trkpt><trkpt lat="9.2563281" lon="-75.8148296"><ele>36.0</ele><time>2026-04-18T12:13:28.685Z</time></trkpt><trkpt lat="9.2563918" lon="-75.8148554"><ele>36.0</ele><time>2026-04-18T12:13:29.685Z</time></trkpt><trkpt lat="9.2564538" lon="-75.8148782"><ele>36.0</ele><time>2026-04-18T12:13:30.685Z</time></trkpt><trkpt lat="9.2565177" lon="-75.8148993"><ele>36.0</ele><time>2026-04-18T12:13:31.685Z</time></trkpt><trkpt lat="9.2565777" lon="-75.8149236"><ele>36.00000000000001</ele><time>2026-04-18T12:13:32.687Z</time></trkpt><trkpt lat="9.2566369" lon="-75.8149482"><ele>36.0</ele><time>2026-04-18T12:13:33.685Z</time></trkpt><trkpt lat="9.256699" lon="-75.8149702"><ele>36.0</ele><time>2026-04-18T12:13:34.685Z</time></trkpt><trkpt lat="9.2567638" lon="-75.814989"><ele>36.0</ele><time>2026-04-18T12:13:35.684Z</time></trkpt><trkpt lat="9.2568258" lon="-75.8150085"><ele>36.0</ele><time>2026-04-18T12:13:36.685Z</time></trkpt><trkpt lat="9.2569448" lon="-75.8150514"><ele>36.0</ele><time>2026-04-18T12:13:38.686Z</time></trkpt><trkpt lat="9.2570544" lon="-75.8150936"><ele>36.0</ele><time>2026-04-18T12:13:40.685Z</time></trkpt><trkpt lat="9.2571631" lon="-75.8151356"><ele>36.75</ele><time>2026-04-18T12:13:42.686Z</time></trkpt><trkpt lat="9.2572791" lon="-75.8151776"><ele>37.5</ele><time>2026-04-18T12:13:44.686Z</time></trkpt><trkpt lat="9.2573973" lon="-75.8152211"><ele>38.25</ele><time>2026-04-18T12:13:46.685Z</time></trkpt><trkpt lat="9.2575079" lon="-75.8152623"><ele>39.0</ele><time>2026-04-18T12:13:48.686Z</time></trkpt><trkpt lat="9.2576131" lon="-75.8153049"><ele>39.8</ele><time>2026-04-18T12:13:50.686Z</time></trkpt><trkpt lat="9.2577261" lon="-75.8153385"><ele>40.599999999999994</ele><time>2026-04-18T12:13:52.686Z</time></trkpt><trkpt lat="9.2578315" lon="-75.8153754"><ele>41.4</ele><time>2026-04-18T12:13:54.685Z</time></trkpt><trkpt lat="9.2579286" lon="-75.8154177"><ele>42.199999999999996</ele><time>2026-04-18T12:13:56.685Z</time></trkpt><trkpt lat="9.2580267" lon="-75.8154578"><ele>43.0</ele><time>2026-04-18T12:13:58.685Z</time></trkpt><trkpt lat="9.2581228" lon="-75.8154955"><ele>43.599999999999994</ele><time>2026-04-18T12:14:00.685Z</time></trkpt><trkpt lat="9.2582193" lon="-75.8155292"><ele>44.199999999999996</ele><time>2026-04-18T12:14:02.685Z</time></trkpt><trkpt lat="9.2583137" lon="-75.8155593"><ele>44.8</ele><time>2026-04-18T12:14:04.684Z</time></trkpt><trkpt lat="9.2584048" lon="-75.8155979"><ele>45.4</ele><time>2026-04-18T12:14:06.685Z</time></trkpt><trkpt lat="9.2584992" lon="-75.8156333"><ele>46.0</ele><time>2026-04-18T12:14:08.684Z</time></trkpt><trkpt lat="9.2585956" lon="-75.8156762"><ele>46.0</ele><time>2026-04-18T12:14:10.685Z</time></trkpt><trkpt lat="9.2586941" lon="-75.815713"><ele>46.0</ele><time>2026-04-18T12:14:12.685Z</time></trkpt><trkpt lat="9.2587926" lon="-75.8157502"><ele>46.0</ele><time>2026-04-18T12:14:14.686Z</time></trkpt><trkpt lat="9.2588859" lon="-75.8157897"><ele>46.0</ele><time>2026-04-18T12:14:16.686Z</time></trkpt><trkpt lat="9.2589759" lon="-75.815826"><ele>46.0</ele><time>2026-04-18T12:14:18.685Z</time></trkpt><trkpt lat="9.2590652" lon="-75.8158667"><ele>45.599999999999994</ele><time>2026-04-18T12:14:20.685Z</time></trkpt><trkpt lat="9.259159" lon="-75.8159043"><ele>45.2</ele><time>2026-04-18T12:14:22.685Z</time></trkpt><trkpt lat="9.2592486" lon="-75.8159452"><ele>44.8</ele><time>2026-04-18T12:14:24.685Z</time></trkpt><trkpt lat="9.2593362" lon="-75.8159916"><ele>44.400000000000006</ele><time>2026-04-18T12:14:26.685Z</time></trkpt><trkpt lat="9.2594269" lon="-75.816043"><ele>44.0</ele><time>2026-04-18T12:14:28.687Z</time></trkpt><trkpt lat="9.2595094" lon="-75.8160964"><ele>44.800000000000004</ele><time>2026-04-18T12:14:30.686Z</time></trkpt><trkpt lat="9.259593" lon="-75.8161427"><ele>45.6</ele><time>2026-04-18T12:14:32.685Z</time></trkpt><trkpt lat="9.2596734" lon="-75.8162011"><ele>46.4</ele><time>2026-04-18T12:14:34.685Z</time></trkpt><trkpt lat="9.2597585" lon="-75.8162686"><ele>47.2</ele><time>2026-04-18T12:14:36.684Z</time></trkpt><trkpt lat="9.2598401" lon="-75.816332"><ele>48.0</ele><time>2026-04-18T12:14:38.686Z</time></trkpt><trkpt lat="9.2599267" lon="-75.8163965"><ele>48.0</ele><time>2026-04-18T12:14:40.686Z</time></trkpt><trkpt lat="9.2600095" lon="-75.8164715"><ele>48.0</ele><time>2026-04-18T12:14:42.687Z</time></trkpt><trkpt lat="9.2600839" lon="-75.8165472"><ele>48.0</ele><time>2026-04-18T12:14:44.685Z</time></trkpt><trkpt lat="9.2601503" lon="-75.8166301"><ele>48.0</ele><time>2026-04-18T12:14:46.685Z</time></trkpt><trkpt lat="9.2602188" lon="-75.816706"><ele>48.0</ele><time>2026-04-18T12:14:48.686Z</time></trkpt><trkpt lat="9.2602864" lon="-75.8167863"><ele>49.0</ele><time>2026-04-18T12:14:50.685Z</time></trkpt><trkpt lat="9.2603593" lon="-75.8168702"><ele>50.0</ele><time>2026-04-18T12:14:52.685Z</time></trkpt><trkpt lat="9.260434" lon="-75.8169524"><ele>51.0</ele><time>2026-04-18T12:14:54.685Z</time></trkpt><trkpt lat="9.2605055" lon="-75.8170295"><ele>52.0</ele><time>2026-04-18T12:14:56.685Z</time></trkpt><trkpt lat="9.2605807" lon="-75.817118"><ele>53.0</ele><time>2026-04-18T12:14:58.685Z</time></trkpt><trkpt lat="9.2606557" lon="-75.8172047"><ele>53.0</ele><time>2026-04-18T12:15:00.686Z</time></trkpt><trkpt lat="9.2607175" lon="-75.8172984"><ele>53.0</ele><time>2026-04-18T12:15:02.685Z</time></trkpt><trkpt lat="9.2608002" lon="-75.8173909"><ele>53.0</ele><time>2026-04-18T12:15:04.686Z</time></trkpt><trkpt lat="9.260884" lon="-75.817484"><ele>53.0</ele><time>2026-04-18T12:15:06.685Z</time></trkpt><trkpt lat="9.2609583" lon="-75.8175715"><ele>53.0</ele><time>2026-04-18T12:15:08.685Z</time></trkpt><trkpt lat="9.2610334" lon="-75.8176512"><ele>53.0</ele><time>2026-04-18T12:15:10.685Z</time></trkpt><trkpt lat="9.2610934" lon="-75.817735"><ele>53.0</ele><time>2026-04-18T12:15:12.685Z</time></trkpt><trkpt lat="9.2611599" lon="-75.8178228"><ele>53.0</ele><time>2026-04-18T12:15:14.686Z</time></trkpt><trkpt lat="9.2612309" lon="-75.8179056"><ele>53.0</ele><time>2026-04-18T12:15:16.685Z</time></trkpt><trkpt lat="9.2613003" lon="-75.8179824"><ele>54.0</ele><time>2026-04-18T12:15:18.685Z</time></trkpt><trkpt lat="9.2613676" lon="-75.818062"><ele>55.0</ele><time>2026-04-18T12:15:20.685Z</time></trkpt><trkpt lat="9.2614308" lon="-75.8181456"><ele>56.0</ele><time>2026-04-18T12:15:22.686Z</time></trkpt><trkpt lat="9.2614902" lon="-75.8182251"><ele>57.0</ele><time>2026-04-18T12:15:24.686Z</time></trkpt><trkpt lat="9.2615632" lon="-75.818312"><ele>58.0</ele><time>2026-04-18T12:15:26.685Z</time></trkpt><trkpt lat="9.2616179" lon="-75.8183877"><ele>58.0</ele><time>2026-04-18T12:15:28.685Z</time></trkpt><trkpt lat="9.2616875" lon="-75.8184582"><ele>58.0</ele><time>2026-04-18T12:15:30.685Z</time></trkpt><trkpt lat="9.2617478" lon="-75.8185291"><ele>58.0</ele><time>2026-04-18T12:15:32.685Z</time></trkpt><trkpt lat="9.2618072" lon="-75.8186023"><ele>58.0</ele><time>2026-04-18T12:15:34.685Z</time></trkpt><trkpt lat="9.261867" lon="-75.818671"><ele>58.0</ele><time>2026-04-18T12:15:36.685Z</time></trkpt><trkpt lat="9.2619279" lon="-75.818746"><ele>58.599999999999994</ele><time>2026-04-18T12:15:38.685Z</time></trkpt><trkpt lat="9.2619878" lon="-75.8188258"><ele>59.199999999999996</ele><time>2026-04-18T12:15:40.685Z</time></trkpt><trkpt lat="9.2620543" lon="-75.8189111"><ele>59.8</ele><time>2026-04-18T12:15:42.685Z</time></trkpt><trkpt lat="9.2621216" lon="-75.8189947"><ele>60.4</ele><time>2026-04-18T12:15:44.685Z</time></trkpt><trkpt lat="9.2621812" lon="-75.8190711"><ele>61.0</ele><time>2026-04-18T12:15:46.685Z</time></trkpt><trkpt lat="9.2622489" lon="-75.8191502"><ele>60.8</ele><time>2026-04-18T12:15:48.684Z</time></trkpt><trkpt lat="9.2623215" lon="-75.819228"><ele>60.599999999999994</ele><time>2026-04-18T12:15:50.685Z</time></trkpt><trkpt lat="9.2623962" lon="-75.8193074"><ele>60.4</ele><time>2026-04-18T12:15:52.685Z</time></trkpt><trkpt lat="9.2624653" lon="-75.8193856"><ele>60.2</ele><time>2026-04-18T12:15:54.685Z</time></trkpt><trkpt lat="9.2625333" lon="-75.8194719"><ele>60.0</ele><time>2026-04-18T12:15:56.685Z</time></trkpt><trkpt lat="9.2626059" lon="-75.8195546"><ele>60.0</ele><time>2026-04-18T12:15:58.686Z</time></trkpt><trkpt lat="9.2626756" lon="-75.8196376"><ele>60.0</ele><time>2026-04-18T12:16:00.685Z</time></trkpt><trkpt lat="9.2627328" lon="-75.8197236"><ele>60.0</ele><time>2026-04-18T12:16:02.685Z</time></trkpt><trkpt lat="9.2627989" lon="-75.8197979"><ele>60.0</ele><time>2026-04-18T12:16:04.685Z</time></trkpt><trkpt lat="9.2628588" lon="-75.8198675"><ele>60.0</ele><time>2026-04-18T12:16:06.685Z</time></trkpt><trkpt lat="9.262915" lon="-75.819934"><ele>60.0</ele><time>2026-04-18T12:16:08.686Z</time></trkpt><trkpt lat="9.2629704" lon="-75.8200031"><ele>60.0</ele><time>2026-04-18T12:16:10.685Z</time></trkpt><trkpt lat="9.2630226" lon="-75.8200736"><ele>60.0</ele><time>2026-04-18T12:16:12.685Z</time></trkpt><trkpt lat="9.2630894" lon="-75.8201473"><ele>60.0</ele><time>2026-04-18T12:16:14.685Z</time></trkpt><trkpt lat="9.2631588" lon="-75.8202302"><ele>60.0</ele><time>2026-04-18T12:16:16.685Z</time></trkpt><trkpt lat="9.2632153" lon="-75.8203125"><ele>60.0</ele><time>2026-04-18T12:16:18.685Z</time></trkpt><trkpt lat="9.2632817" lon="-75.8203938"><ele>60.0</ele><time>2026-04-18T12:16:20.685Z</time></trkpt><trkpt lat="9.2633577" lon="-75.8204724"><ele>60.0</ele><time>2026-04-18T12:16:22.685Z</time></trkpt><trkpt lat="9.2634285" lon="-75.820556"><ele>60.0</ele><time>2026-04-18T12:16:24.685Z</time></trkpt><trkpt lat="9.2634902" lon="-75.8206397"><ele>60.0</ele><time>2026-04-18T12:16:26.686Z</time></trkpt><trkpt lat="9.263566" lon="-75.8207252"><ele>60.0</ele><time>2026-04-18T12:16:28.685Z</time></trkpt><trkpt lat="9.263635" lon="-75.8208106"><ele>60.0</ele><time>2026-04-18T12:16:30.684Z</time></trkpt><trkpt lat="9.2637025" lon="-75.8208985"><ele>60.0</ele><time>2026-04-18T12:16:32.685Z</time></trkpt><trkpt lat="9.263766" lon="-75.8209849"><ele>60.0</ele><time>2026-04-18T12:16:34.685Z</time></trkpt><trkpt lat="9.2638379" lon="-75.8210649"><ele>60.0</ele><time>2026-04-18T12:16:36.684Z</time></trkpt><trkpt lat="9.2639045" lon="-75.8211433"><ele>59.8</ele><time>2026-04-18T12:16:38.685Z</time></trkpt><trkpt lat="9.2639771" lon="-75.8212192"><ele>59.6</ele><time>2026-04-18T12:16:40.686Z</time></trkpt><trkpt lat="9.26404" lon="-75.8213019"><ele>59.400000000000006</ele><time>2026-04-18T12:16:42.685Z</time></trkpt><trkpt lat="9.2641045" lon="-75.8213788"><ele>59.2</ele><time>2026-04-18T12:16:44.685Z</time></trkpt><trkpt lat="9.2641676" lon="-75.8214528"><ele>59.0</ele><time>2026-04-18T12:16:46.685Z</time></trkpt><trkpt lat="9.2642415" lon="-75.8215251"><ele>59.0</ele><time>2026-04-18T12:16:48.686Z</time></trkpt><trkpt lat="9.2643124" lon="-75.8216027"><ele>59.00000000000001</ele><time>2026-04-18T12:16:50.685Z</time></trkpt><trkpt lat="9.2643852" lon="-75.8216876"><ele>59.00000000000001</ele><time>2026-04-18T12:16:52.685Z</time></trkpt><trkpt lat="9.2644544" lon="-75.8217678"><ele>59.0</ele><time>2026-04-18T12:16:54.686Z</time></trkpt><trkpt lat="9.2645123" lon="-75.8218568"><ele>59.0</ele><time>2026-04-18T12:16:56.684Z</time></trkpt><trkpt lat="9.2645701" lon="-75.8219448"><ele>59.25</ele><time>2026-04-18T12:16:58.685Z</time></trkpt><trkpt lat="9.2646465" lon="-75.822024"><ele>59.5</ele><time>2026-04-18T12:17:00.684Z</time></trkpt><trkpt lat="9.2647275" lon="-75.8221044"><ele>59.75</ele><time>2026-04-18T12:17:02.685Z</time></trkpt><trkpt lat="9.2648082" lon="-75.8221909"><ele>60.0</ele><time>2026-04-18T12:17:04.685Z</time></trkpt><trkpt lat="9.2648921" lon="-75.8222676"><ele>60.25</ele><time>2026-04-18T12:17:06.685Z</time></trkpt><trkpt lat="9.2649734" lon="-75.8223498"><ele>60.5</ele><time>2026-04-18T12:17:08.685Z</time></trkpt><trkpt lat="9.2650659" lon="-75.8224289"><ele>60.75</ele><time>2026-04-18T12:17:10.685Z</time></trkpt><trkpt lat="9.2651592" lon="-75.8225019"><ele>61.0</ele><time>2026-04-18T12:17:12.686Z</time></trkpt><trkpt lat="9.2652588" lon="-75.8225755"><ele>61.0</ele><time>2026-04-18T12:17:14.685Z</time></trkpt><trkpt lat="9.2653627" lon="-75.8226511"><ele>60.99999999999999</ele><time>2026-04-18T12:17:16.684Z</time></trkpt><trkpt lat="9.2654689" lon="-75.822713"><ele>60.99999999999999</ele><time>2026-04-18T12:17:18.684Z</time></trkpt><trkpt lat="9.2655836" lon="-75.822768"><ele>61.0</ele><time>2026-04-18T12:17:20.685Z</time></trkpt><trkpt lat="9.2656422" lon="-75.8227948"><ele>61.0</ele><time>2026-04-18T12:17:21.685Z</time></trkpt><trkpt lat="9.2657015" lon="-75.8228206"><ele>60.99999999999999</ele><time>2026-04-18T12:17:22.685Z</time></trkpt><trkpt lat="9.2657587" lon="-75.8228477"><ele>61.0</ele><time>2026-04-18T12:17:23.684Z</time></trkpt><trkpt lat="9.2658181" lon="-75.822874"><ele>60.99999999999999</ele><time>2026-04-18T12:17:24.685Z</time></trkpt><trkpt lat="9.2658784" lon="-75.8228976"><ele>60.99999999999999</ele><time>2026-04-18T12:17:25.684Z</time></trkpt><trkpt lat="9.2659401" lon="-75.8229192"><ele>61.0</ele><time>2026-04-18T12:17:26.685Z</time></trkpt><trkpt lat="9.2660035" lon="-75.8229382"><ele>60.99999999999999</ele><time>2026-04-18T12:17:27.684Z</time></trkpt><trkpt lat="9.2660655" lon="-75.8229576"><ele>60.99999999999999</ele><time>2026-04-18T12:17:28.684Z</time></trkpt><trkpt lat="9.2661268" lon="-75.8229741"><ele>61.0</ele><time>2026-04-18T12:17:29.685Z</time></trkpt><trkpt lat="9.2662442" lon="-75.8230002"><ele>60.99999999999999</ele><time>2026-04-18T12:17:31.686Z</time></trkpt><trkpt lat="9.2663063" lon="-75.8230115"><ele>60.99999999999999</ele><time>2026-04-18T12:17:32.685Z</time></trkpt><trkpt lat="9.2664254" lon="-75.8230244"><ele>61.0</ele><time>2026-04-18T12:17:34.686Z</time></trkpt><trkpt lat="9.266536" lon="-75.8230438"><ele>61.0</ele><time>2026-04-18T12:17:36.684Z</time></trkpt><trkpt lat="9.2666421" lon="-75.8230601"><ele>61.4</ele><time>2026-04-18T12:17:38.686Z</time></trkpt><trkpt lat="9.2667513" lon="-75.8230751"><ele>61.8</ele><time>2026-04-18T12:17:40.685Z</time></trkpt><trkpt lat="9.2668571" lon="-75.8230694"><ele>62.199999999999996</ele><time>2026-04-18T12:17:42.684Z</time></trkpt><trkpt lat="9.2669662" lon="-75.8230685"><ele>62.599999999999994</ele><time>2026-04-18T12:17:44.686Z</time></trkpt><trkpt lat="9.2670741" lon="-75.823082"><ele>63.0</ele><time>2026-04-18T12:17:46.685Z</time></trkpt><trkpt lat="9.2671826" lon="-75.8231052"><ele>63.4</ele><time>2026-04-18T12:17:48.685Z</time></trkpt><trkpt lat="9.2672903" lon="-75.8231235"><ele>63.8</ele><time>2026-04-18T12:17:50.685Z</time></trkpt><trkpt lat="9.2673979" lon="-75.8231269"><ele>64.2</ele><time>2026-04-18T12:17:52.685Z</time></trkpt><trkpt lat="9.2675058" lon="-75.8231286"><ele>64.6</ele><time>2026-04-18T12:17:54.685Z</time></trkpt><trkpt lat="9.2676246" lon="-75.8231368"><ele>65.0</ele><time>2026-04-18T12:17:56.685Z</time></trkpt><trkpt lat="9.2677438" lon="-75.8231473"><ele>65.0</ele><time>2026-04-18T12:17:58.685Z</time></trkpt><trkpt lat="9.2678558" lon="-75.8231575"><ele>65.0</ele><time>2026-04-18T12:18:00.685Z</time></trkpt><trkpt lat="9.2679758" lon="-75.82317"><ele>65.0</ele><time>2026-04-18T12:18:02.684Z</time></trkpt><trkpt lat="9.2680984" lon="-75.8231775"><ele>65.0</ele><time>2026-04-18T12:18:04.684Z</time></trkpt><trkpt lat="9.2682184" lon="-75.8231861"><ele>64.8</ele><time>2026-04-18T12:18:06.684Z</time></trkpt><trkpt lat="9.2683351" lon="-75.8231845"><ele>64.6</ele><time>2026-04-18T12:18:08.684Z</time></trkpt><trkpt lat="9.2684604" lon="-75.8231909"><ele>64.4</ele><time>2026-04-18T12:18:10.685Z</time></trkpt><trkpt lat="9.2685905" lon="-75.8232004"><ele>64.2</ele><time>2026-04-18T12:18:12.685Z</time></trkpt><trkpt lat="9.2686546" lon="-75.8232062"><ele>64.0</ele><time>2026-04-18T12:18:13.685Z</time></trkpt><trkpt lat="9.2687223" lon="-75.8232137"><ele>64.0</ele><time>2026-04-18T12:18:14.685Z</time></trkpt><trkpt lat="9.2687893" lon="-75.8232219"><ele>63.99999999999999</ele><time>2026-04-18T12:18:15.685Z</time></trkpt><trkpt lat="9.2688535" lon="-75.8232243"><ele>64.0</ele><time>2026-04-18T12:18:16.685Z</time></trkpt><trkpt lat="9.2689231" lon="-75.823235"><ele>64.0</ele><time>2026-04-18T12:18:17.684Z</time></trkpt><trkpt lat="9.2689887" lon="-75.8232365"><ele>63.99999999999999</ele><time>2026-04-18T12:18:18.685Z</time></trkpt><trkpt lat="9.2690539" lon="-75.8232416"><ele>64.0</ele><time>2026-04-18T12:18:19.684Z</time></trkpt><trkpt lat="9.2691171" lon="-75.823249"><ele>64.0</ele><time>2026-04-18T12:18:20.685Z</time></trkpt><trkpt lat="9.2691813" lon="-75.8232585"><ele>63.400000000000006</ele><time>2026-04-18T12:18:21.684Z</time></trkpt><trkpt lat="9.2692492" lon="-75.8232619"><ele>62.800000000000004</ele><time>2026-04-18T12:18:22.684Z</time></trkpt><trkpt lat="9.2693139" lon="-75.8232645"><ele>62.199999999999996</ele><time>2026-04-18T12:18:23.685Z</time></trkpt><trkpt lat="9.2694389" lon="-75.8232706"><ele>61.599999999999994</ele><time>2026-04-18T12:18:25.684Z</time></trkpt><trkpt lat="9.2695629" lon="-75.8232793"><ele>61.0</ele><time>2026-04-18T12:18:27.684Z</time></trkpt><trkpt lat="9.2696803" lon="-75.8232854"><ele>60.75</ele><time>2026-04-18T12:18:29.685Z</time></trkpt><trkpt lat="9.2698022" lon="-75.8232974"><ele>60.5</ele><time>2026-04-18T12:18:31.685Z</time></trkpt><trkpt lat="9.26992" lon="-75.8233064"><ele>60.25</ele><time>2026-04-18T12:18:33.685Z</time></trkpt><trkpt lat="9.270032" lon="-75.8233219"><ele>60.0</ele><time>2026-04-18T12:18:35.685Z</time></trkpt><trkpt lat="9.2701437" lon="-75.8233348"><ele>60.0</ele><time>2026-04-18T12:18:37.685Z</time></trkpt><trkpt lat="9.2702638" lon="-75.8233441"><ele>60.0</ele><time>2026-04-18T12:18:39.685Z</time></trkpt><trkpt lat="9.2703277" lon="-75.8233478"><ele>60.0</ele><time>2026-04-18T12:18:40.685Z</time></trkpt><trkpt lat="9.2703919" lon="-75.8233525"><ele>60.0</ele><time>2026-04-18T12:18:41.685Z</time></trkpt><trkpt lat="9.2705132" lon="-75.823358"><ele>60.0</ele><time>2026-04-18T12:18:43.685Z</time></trkpt><trkpt lat="9.2706337" lon="-75.8233708"><ele>60.5</ele><time>2026-04-18T12:18:45.685Z</time></trkpt><trkpt lat="9.2707602" lon="-75.8233853"><ele>61.0</ele><time>2026-04-18T12:18:47.685Z</time></trkpt><trkpt lat="9.2708255" lon="-75.8233881"><ele>61.5</ele><time>2026-04-18T12:18:48.686Z</time></trkpt><trkpt lat="9.2708896" lon="-75.8233923"><ele>62.0</ele><time>2026-04-18T12:18:49.685Z</time></trkpt><trkpt lat="9.2709599" lon="-75.8234001"><ele>62.5</ele><time>2026-04-18T12:18:50.685Z</time></trkpt><trkpt lat="9.2710264" lon="-75.823406"><ele>63.0</ele><time>2026-04-18T12:18:51.685Z</time></trkpt><trkpt lat="9.2710976" lon="-75.8234148"><ele>63.0</ele><time>2026-04-18T12:18:52.684Z</time></trkpt><trkpt lat="9.2711738" lon="-75.8234214"><ele>63.0</ele><time>2026-04-18T12:18:53.684Z</time></trkpt><trkpt lat="9.2712479" lon="-75.823429"><ele>63.0</ele><time>2026-04-18T12:18:54.684Z</time></trkpt><trkpt lat="9.2713237" lon="-75.8234325"><ele>63.0</ele><time>2026-04-18T12:18:55.685Z</time></trkpt><trkpt lat="9.2713969" lon="-75.823436"><ele>63.0</ele><time>2026-04-18T12:18:56.685Z</time></trkpt><trkpt lat="9.271471" lon="-75.8234429"><ele>63.0</ele><time>2026-04-18T12:18:57.686Z</time></trkpt><trkpt lat="9.2715436" lon="-75.8234493"><ele>63.0</ele><time>2026-04-18T12:18:58.685Z</time></trkpt><trkpt lat="9.2716156" lon="-75.8234576"><ele>62.714285714285715</ele><time>2026-04-18T12:18:59.685Z</time></trkpt><trkpt lat="9.2716866" lon="-75.8234631"><ele>62.42857142857143</ele><time>2026-04-18T12:19:00.685Z</time></trkpt><trkpt lat="9.27176" lon="-75.8234699"><ele>62.14285714285714</ele><time>2026-04-18T12:19:01.685Z</time></trkpt><trkpt lat="9.2718296" lon="-75.8234759"><ele>61.857142857142854</ele><time>2026-04-18T12:19:02.685Z</time></trkpt><trkpt lat="9.2718979" lon="-75.8234812"><ele>61.57142857142857</ele><time>2026-04-18T12:19:03.685Z</time></trkpt><trkpt lat="9.2719691" lon="-75.8234838"><ele>61.28571428571428</ele><time>2026-04-18T12:19:04.685Z</time></trkpt><trkpt lat="9.2720426" lon="-75.8234816"><ele>60.99999999999999</ele><time>2026-04-18T12:19:05.685Z</time></trkpt><trkpt lat="9.2721163" lon="-75.8234804"><ele>60.99999999999999</ele><time>2026-04-18T12:19:06.684Z</time></trkpt><trkpt lat="9.272191" lon="-75.8234789"><ele>61.0</ele><time>2026-04-18T12:19:07.684Z</time></trkpt><trkpt lat="9.2722699" lon="-75.8234749"><ele>61.0</ele><time>2026-04-18T12:19:08.686Z</time></trkpt><trkpt lat="9.2723477" lon="-75.8234715"><ele>61.0</ele><time>2026-04-18T12:19:09.686Z</time></trkpt><trkpt lat="9.2724227" lon="-75.8234674"><ele>60.99999999999999</ele><time>2026-04-18T12:19:10.684Z</time></trkpt><trkpt lat="9.2724975" lon="-75.8234614"><ele>61.0</ele><time>2026-04-18T12:19:11.684Z</time></trkpt><trkpt lat="9.2725739" lon="-75.8234521"><ele>60.666666666666664</ele><time>2026-04-18T12:19:12.686Z</time></trkpt><trkpt lat="9.2726479" lon="-75.823445"><ele>60.33333333333333</ele><time>2026-04-18T12:19:13.684Z</time></trkpt><trkpt lat="9.2727259" lon="-75.8234393"><ele>60.0</ele><time>2026-04-18T12:19:14.684Z</time></trkpt><trkpt lat="9.2728027" lon="-75.8234298"><ele>59.66666666666667</ele><time>2026-04-18T12:19:15.685Z</time></trkpt><trkpt lat="9.2728798" lon="-75.8234244"><ele>59.333333333333336</ele><time>2026-04-18T12:19:16.685Z</time></trkpt><trkpt lat="9.272956" lon="-75.8234171"><ele>59.0</ele><time>2026-04-18T12:19:17.684Z</time></trkpt><trkpt lat="9.2730323" lon="-75.8234064"><ele>58.57142857142857</ele><time>2026-04-18T12:19:18.685Z</time></trkpt><trkpt lat="9.2731095" lon="-75.8233988"><ele>58.142857142857146</ele><time>2026-04-18T12:19:19.684Z</time></trkpt><trkpt lat="9.2731828" lon="-75.8233867"><ele>57.714285714285715</ele><time>2026-04-18T12:19:20.685Z</time></trkpt><trkpt lat="9.2732559" lon="-75.823375"><ele>57.285714285714285</ele><time>2026-04-18T12:19:21.685Z</time></trkpt><trkpt lat="9.2733273" lon="-75.8233643"><ele>56.85714285714286</ele><time>2026-04-18T12:19:22.684Z</time></trkpt><trkpt lat="9.2734002" lon="-75.8233559"><ele>56.42857142857143</ele><time>2026-04-18T12:19:23.685Z</time></trkpt><trkpt lat="9.27347" lon="-75.8233489"><ele>56.0</ele><time>2026-04-18T12:19:24.686Z</time></trkpt><trkpt lat="9.2735403" lon="-75.823335"><ele>56.0</ele><time>2026-04-18T12:19:25.685Z</time></trkpt><trkpt lat="9.2736095" lon="-75.8233259"><ele>55.99999999999999</ele><time>2026-04-18T12:19:26.685Z</time></trkpt><trkpt lat="9.273674" lon="-75.8233183"><ele>55.99999999999999</ele><time>2026-04-18T12:19:27.684Z</time></trkpt><trkpt lat="9.2737934" lon="-75.8233036"><ele>56.0</ele><time>2026-04-18T12:19:29.684Z</time></trkpt><trkpt lat="9.2739049" lon="-75.8232884"><ele>56.0</ele><time>2026-04-18T12:19:31.684Z</time></trkpt><trkpt lat="9.2740074" lon="-75.8232752"><ele>57.599999999999994</ele><time>2026-04-18T12:19:33.685Z</time></trkpt><trkpt lat="9.2741072" lon="-75.8232614"><ele>59.199999999999996</ele><time>2026-04-18T12:19:35.685Z</time></trkpt><trkpt lat="9.2742185" lon="-75.8232487"><ele>60.800000000000004</ele><time>2026-04-18T12:19:37.686Z</time></trkpt><trkpt lat="9.2743174" lon="-75.8232293"><ele>62.400000000000006</ele><time>2026-04-18T12:19:39.684Z</time></trkpt><trkpt lat="9.2744176" lon="-75.8232091"><ele>64.0</ele><time>2026-04-18T12:19:41.684Z</time></trkpt><trkpt lat="9.2745105" lon="-75.823186"><ele>64.0</ele><time>2026-04-18T12:19:43.684Z</time></trkpt><trkpt lat="9.2746025" lon="-75.8231553"><ele>64.0</ele><time>2026-04-18T12:19:45.684Z</time></trkpt><trkpt lat="9.2746915" lon="-75.8231091"><ele>64.0</ele><time>2026-04-18T12:19:47.685Z</time></trkpt><trkpt lat="9.2747796" lon="-75.8230654"><ele>64.0</ele><time>2026-04-18T12:19:49.684Z</time></trkpt><trkpt lat="9.2748627" lon="-75.8230188"><ele>64.0</ele><time>2026-04-18T12:19:51.685Z</time></trkpt><trkpt lat="9.2749484" lon="-75.822966"><ele>65.0</ele><time>2026-04-18T12:19:53.685Z</time></trkpt><trkpt lat="9.2750286" lon="-75.8229098"><ele>66.0</ele><time>2026-04-18T12:19:55.686Z</time></trkpt><trkpt lat="9.2751053" lon="-75.8228518"><ele>67.0</ele><time>2026-04-18T12:19:57.684Z</time></trkpt><trkpt lat="9.275182" lon="-75.8227881"><ele>68.0</ele><time>2026-04-18T12:19:59.684Z</time></trkpt><trkpt lat="9.2752548" lon="-75.8227232"><ele>69.0</ele><time>2026-04-18T12:20:01.684Z</time></trkpt><trkpt lat="9.2753248" lon="-75.822649"><ele>68.4</ele><time>2026-04-18T12:20:03.684Z</time></trkpt><trkpt lat="9.2753866" lon="-75.8225744"><ele>67.80000000000001</ele><time>2026-04-18T12:20:05.684Z</time></trkpt><trkpt lat="9.2754513" lon="-75.8224979"><ele>67.19999999999999</ele><time>2026-04-18T12:20:07.684Z</time></trkpt><trkpt lat="9.2755111" lon="-75.8224112"><ele>66.6</ele><time>2026-04-18T12:20:09.683Z</time></trkpt><trkpt lat="9.2755686" lon="-75.8223265"><ele>66.0</ele><time>2026-04-18T12:20:11.685Z</time></trkpt><trkpt lat="9.2756309" lon="-75.8222411"><ele>67.39999999999999</ele><time>2026-04-18T12:20:13.685Z</time></trkpt><trkpt lat="9.275681" lon="-75.82216"><ele>68.8</ele><time>2026-04-18T12:20:15.684Z</time></trkpt><trkpt lat="9.2757318" lon="-75.8220749"><ele>70.19999999999999</ele><time>2026-04-18T12:20:17.684Z</time></trkpt><trkpt lat="9.2757791" lon="-75.8219858"><ele>71.6</ele><time>2026-04-18T12:20:19.685Z</time></trkpt><trkpt lat="9.2758263" lon="-75.8218942"><ele>73.0</ele><time>2026-04-18T12:20:21.684Z</time></trkpt><trkpt lat="9.2758729" lon="-75.8218106"><ele>73.0</ele><time>2026-04-18T12:20:23.685Z</time></trkpt><trkpt lat="9.275921" lon="-75.8217226"><ele>73.0</ele><time>2026-04-18T12:20:25.685Z</time></trkpt><trkpt lat="9.2759708" lon="-75.8216401"><ele>73.0</ele><time>2026-04-18T12:20:27.685Z</time></trkpt><trkpt lat="9.2760199" lon="-75.8215544"><ele>73.0</ele><time>2026-04-18T12:20:29.685Z</time></trkpt><trkpt lat="9.2760746" lon="-75.8214654"><ele>73.0</ele><time>2026-04-18T12:20:31.685Z</time></trkpt><trkpt lat="9.276123" lon="-75.8213782"><ele>73.0</ele><time>2026-04-18T12:20:33.684Z</time></trkpt><trkpt lat="9.2761706" lon="-75.8213001"><ele>73.0</ele><time>2026-04-18T12:20:35.685Z</time></trkpt><trkpt lat="9.2762165" lon="-75.8212185"><ele>73.0</ele><time>2026-04-18T12:20:37.684Z</time></trkpt><trkpt lat="9.2762716" lon="-75.8211334"><ele>73.0</ele><time>2026-04-18T12:20:39.684Z</time></trkpt><trkpt lat="9.2763256" lon="-75.8210485"><ele>73.0</ele><time>2026-04-18T12:20:41.684Z</time></trkpt><trkpt lat="9.2763795" lon="-75.8209618"><ele>73.0</ele><time>2026-04-18T12:20:43.684Z</time></trkpt><trkpt lat="9.2764282" lon="-75.8208737"><ele>73.0</ele><time>2026-04-18T12:20:45.684Z</time></trkpt><trkpt lat="9.2764823" lon="-75.8207862"><ele>73.0</ele><time>2026-04-18T12:20:47.684Z</time></trkpt><trkpt lat="9.2765352" lon="-75.8206991"><ele>73.0</ele><time>2026-04-18T12:20:49.685Z</time></trkpt><trkpt lat="9.2765858" lon="-75.8206144"><ele>73.0</ele><time>2026-04-18T12:20:51.684Z</time></trkpt><trkpt lat="9.2766337" lon="-75.8205209"><ele>73.8</ele><time>2026-04-18T12:20:53.684Z</time></trkpt><trkpt lat="9.2766887" lon="-75.8204327"><ele>74.6</ele><time>2026-04-18T12:20:55.684Z</time></trkpt><trkpt lat="9.276745" lon="-75.8203398"><ele>75.4</ele><time>2026-04-18T12:20:57.684Z</time></trkpt><trkpt lat="9.2767932" lon="-75.8202543"><ele>76.2</ele><time>2026-04-18T12:20:59.685Z</time></trkpt><trkpt lat="9.2768448" lon="-75.8201762"><ele>77.0</ele><time>2026-04-18T12:21:01.684Z</time></trkpt><trkpt lat="9.2768856" lon="-75.8200956"><ele>77.2</ele><time>2026-04-18T12:21:03.684Z</time></trkpt><trkpt lat="9.2769301" lon="-75.8200218"><ele>77.4</ele><time>2026-04-18T12:21:05.684Z</time></trkpt><trkpt lat="9.2769769" lon="-75.8199442"><ele>77.6</ele><time>2026-04-18T12:21:07.684Z</time></trkpt><trkpt lat="9.2770258" lon="-75.8198605"><ele>77.8</ele><time>2026-04-18T12:21:09.684Z</time></trkpt><trkpt lat="9.2770746" lon="-75.8197755"><ele>78.0</ele><time>2026-04-18T12:21:11.684Z</time></trkpt><trkpt lat="9.2771231" lon="-75.8196965"><ele>78.0</ele><time>2026-04-18T12:21:13.686Z</time></trkpt><trkpt lat="9.2771605" lon="-75.819637"><ele>78.0</ele><time>2026-04-18T12:21:15.684Z</time></trkpt><trkpt lat="9.277196" lon="-75.8195741"><ele>78.0</ele><time>2026-04-18T12:21:18.685Z</time></trkpt><trkpt lat="9.2772464" lon="-75.8195107"><ele>78.0</ele><time>2026-04-18T12:22:51.684Z</time></trkpt><trkpt lat="9.2772958" lon="-75.8194694"><ele>78.0</ele><time>2026-04-18T12:23:52.684Z</time></trkpt><trkpt lat="9.2773285" lon="-75.8194041"><ele>78.0</ele><time>2026-04-18T12:23:56.683Z</time></trkpt><trkpt lat="9.2773668" lon="-75.8193172"><ele>77.16666666666667</ele><time>2026-04-18T12:23:59.684Z</time></trkpt><trkpt lat="9.2774084" lon="-75.8192494"><ele>76.33333333333333</ele><time>2026-04-18T12:24:01.684Z</time></trkpt><trkpt lat="9.2774521" lon="-75.819172"><ele>75.5</ele><time>2026-04-18T12:24:03.684Z</time></trkpt><trkpt lat="9.2774819" lon="-75.8191107"><ele>74.66666666666666</ele><time>2026-04-18T12:24:05.684Z</time></trkpt><trkpt lat="9.277499" lon="-75.8190481"><ele>73.83333333333333</ele><time>2026-04-18T12:30:07.695Z</time></trkpt><trkpt lat="9.2775392" lon="-75.8189895"><ele>73.0</ele><time>2026-04-18T12:30:09.695Z</time></trkpt><trkpt lat="9.2776086" lon="-75.8189235"><ele>73.0</ele><time>2026-04-18T12:30:11.695Z</time></trkpt><trkpt lat="9.2776611" lon="-75.8188408"><ele>73.0</ele><time>2026-04-18T12:30:13.695Z</time></trkpt><trkpt lat="9.2777138" lon="-75.818753"><ele>73.0</ele><time>2026-04-18T12:30:15.696Z</time></trkpt><trkpt lat="9.2777775" lon="-75.8186538"><ele>73.0</ele><time>2026-04-18T12:30:17.694Z</time></trkpt><trkpt lat="9.2778125" lon="-75.8185987"><ele>73.0</ele><time>2026-04-18T12:30:18.695Z</time></trkpt><trkpt lat="9.2778477" lon="-75.8185416"><ele>73.0</ele><time>2026-04-18T12:30:19.695Z</time></trkpt><trkpt lat="9.2778859" lon="-75.8184816"><ele>72.0</ele><time>2026-04-18T12:30:20.695Z</time></trkpt><trkpt lat="9.2779262" lon="-75.8184168"><ele>71.0</ele><time>2026-04-18T12:30:21.695Z</time></trkpt><trkpt lat="9.2779665" lon="-75.818352"><ele>70.0</ele><time>2026-04-18T12:30:22.695Z</time></trkpt><trkpt lat="9.2780064" lon="-75.8182818"><ele>69.0</ele><time>2026-04-18T12:30:23.696Z</time></trkpt><trkpt lat="9.2780447" lon="-75.8182097"><ele>68.0</ele><time>2026-04-18T12:30:24.695Z</time></trkpt><trkpt lat="9.2780852" lon="-75.8181387"><ele>67.0</ele><time>2026-04-18T12:30:25.695Z</time></trkpt><trkpt lat="9.2781292" lon="-75.8180674"><ele>66.33333333333333</ele><time>2026-04-18T12:30:26.696Z</time></trkpt><trkpt lat="9.2781763" lon="-75.8179973"><ele>65.66666666666666</ele><time>2026-04-18T12:30:27.695Z</time></trkpt><trkpt lat="9.278227" lon="-75.8179278"><ele>65.0</ele><time>2026-04-18T12:30:28.695Z</time></trkpt><trkpt lat="9.2782778" lon="-75.817854"><ele>64.33333333333333</ele><time>2026-04-18T12:30:29.695Z</time></trkpt><trkpt lat="9.2783305" lon="-75.8177782"><ele>63.666666666666664</ele><time>2026-04-18T12:30:30.695Z</time></trkpt><trkpt lat="9.2783867" lon="-75.8177027"><ele>63.0</ele><time>2026-04-18T12:30:31.695Z</time></trkpt><trkpt lat="9.2784444" lon="-75.817625"><ele>62.4</ele><time>2026-04-18T12:30:32.694Z</time></trkpt><trkpt lat="9.2785073" lon="-75.8175487"><ele>61.8</ele><time>2026-04-18T12:30:33.693Z</time></trkpt><trkpt lat="9.2785734" lon="-75.8174735"><ele>61.2</ele><time>2026-04-18T12:30:34.694Z</time></trkpt><trkpt lat="9.2786405" lon="-75.8173947"><ele>60.6</ele><time>2026-04-18T12:30:35.695Z</time></trkpt><trkpt lat="9.2787133" lon="-75.8173177"><ele>60.0</ele><time>2026-04-18T12:30:36.695Z</time></trkpt><trkpt lat="9.278788" lon="-75.8172383"><ele>60.0</ele><time>2026-04-18T12:30:37.695Z</time></trkpt><trkpt lat="9.2788665" lon="-75.8171649"><ele>60.0</ele><time>2026-04-18T12:30:38.696Z</time></trkpt><trkpt lat="9.2789464" lon="-75.8170894"><ele>60.0</ele><time>2026-04-18T12:30:39.696Z</time></trkpt><trkpt lat="9.2790285" lon="-75.8170146"><ele>60.0</ele><time>2026-04-18T12:30:40.695Z</time></trkpt><trkpt lat="9.2791068" lon="-75.8169339"><ele>60.0</ele><time>2026-04-18T12:30:41.695Z</time></trkpt><trkpt lat="9.2791843" lon="-75.8168525"><ele>57.75</ele><time>2026-04-18T12:30:42.696Z</time></trkpt><trkpt lat="9.2792619" lon="-75.816769"><ele>55.5</ele><time>2026-04-18T12:30:43.695Z</time></trkpt><trkpt lat="9.2793385" lon="-75.8166856"><ele>53.25</ele><time>2026-04-18T12:30:44.695Z</time></trkpt><trkpt lat="9.2794183" lon="-75.8166042"><ele>51.0</ele><time>2026-04-18T12:30:45.695Z</time></trkpt><trkpt lat="9.2794986" lon="-75.8165264"><ele>51.0</ele><time>2026-04-18T12:30:46.695Z</time></trkpt><trkpt lat="9.2795782" lon="-75.8164509"><ele>51.0</ele><time>2026-04-18T12:30:47.695Z</time></trkpt><trkpt lat="9.2796525" lon="-75.8163762"><ele>51.0</ele><time>2026-04-18T12:30:48.696Z</time></trkpt><trkpt lat="9.2797257" lon="-75.8163031"><ele>51.0</ele><time>2026-04-18T12:30:49.695Z</time></trkpt><trkpt lat="9.2797969" lon="-75.816233"><ele>51.0</ele><time>2026-04-18T12:30:50.696Z</time></trkpt><trkpt lat="9.2798658" lon="-75.8161658"><ele>51.333333333333336</ele><time>2026-04-18T12:30:51.695Z</time></trkpt><trkpt lat="9.2799284" lon="-75.8160972"><ele>51.66666666666667</ele><time>2026-04-18T12:30:52.695Z</time></trkpt><trkpt lat="9.2799893" lon="-75.8160287"><ele>52.0</ele><time>2026-04-18T12:30:53.695Z</time></trkpt><trkpt lat="9.280051" lon="-75.8159634"><ele>52.333333333333336</ele><time>2026-04-18T12:30:54.695Z</time></trkpt><trkpt lat="9.2801124" lon="-75.8158997"><ele>52.66666666666667</ele><time>2026-04-18T12:30:55.695Z</time></trkpt><trkpt lat="9.2801726" lon="-75.8158363"><ele>53.0</ele><time>2026-04-18T12:30:56.696Z</time></trkpt><trkpt lat="9.2802332" lon="-75.8157705"><ele>53.00000000000001</ele><time>2026-04-18T12:30:57.695Z</time></trkpt><trkpt lat="9.2802957" lon="-75.8157037"><ele>53.0</ele><time>2026-04-18T12:30:58.695Z</time></trkpt><trkpt lat="9.2803544" lon="-75.8156348"><ele>53.0</ele><time>2026-04-18T12:30:59.695Z</time></trkpt><trkpt lat="9.2804129" lon="-75.815569"><ele>53.0</ele><time>2026-04-18T12:31:00.696Z</time></trkpt><trkpt lat="9.2804744" lon="-75.8155059"><ele>53.00000000000001</ele><time>2026-04-18T12:31:01.696Z</time></trkpt><trkpt lat="9.2805396" lon="-75.8154462"><ele>53.0</ele><time>2026-04-18T12:31:02.694Z</time></trkpt><trkpt lat="9.2806011" lon="-75.8153803"><ele>52.833333333333336</ele><time>2026-04-18T12:31:03.695Z</time></trkpt><trkpt lat="9.2806596" lon="-75.8153178"><ele>52.66666666666667</ele><time>2026-04-18T12:31:04.694Z</time></trkpt><trkpt lat="9.2807184" lon="-75.8152571"><ele>52.5</ele><time>2026-04-18T12:31:05.693Z</time></trkpt><trkpt lat="9.2807761" lon="-75.8151996"><ele>52.33333333333333</ele><time>2026-04-18T12:31:06.696Z</time></trkpt><trkpt lat="9.2808356" lon="-75.8151448"><ele>52.166666666666664</ele><time>2026-04-18T12:31:07.695Z</time></trkpt><trkpt lat="9.2808921" lon="-75.8150926"><ele>52.0</ele><time>2026-04-18T12:31:08.695Z</time></trkpt><trkpt lat="9.2809469" lon="-75.8150411"><ele>53.166666666666664</ele><time>2026-04-18T12:31:09.695Z</time></trkpt><trkpt lat="9.281" lon="-75.8149885"><ele>54.33333333333333</ele><time>2026-04-18T12:31:10.695Z</time></trkpt><trkpt lat="9.2810564" lon="-75.8149341"><ele>55.5</ele><time>2026-04-18T12:31:11.695Z</time></trkpt><trkpt lat="9.2811132" lon="-75.8148807"><ele>56.66666666666667</ele><time>2026-04-18T12:31:12.695Z</time></trkpt><trkpt lat="9.2811685" lon="-75.8148266"><ele>57.833333333333336</ele><time>2026-04-18T12:31:13.695Z</time></trkpt><trkpt lat="9.2812198" lon="-75.8147768"><ele>59.0</ele><time>2026-04-18T12:31:14.695Z</time></trkpt><trkpt lat="9.2812711" lon="-75.8147206"><ele>59.0</ele><time>2026-04-18T12:31:15.695Z</time></trkpt><trkpt lat="9.2813208" lon="-75.8146661"><ele>59.0</ele><time>2026-04-18T12:31:16.695Z</time></trkpt><trkpt lat="9.2813713" lon="-75.814616"><ele>59.0</ele><time>2026-04-18T12:31:17.696Z</time></trkpt><trkpt lat="9.2814219" lon="-75.8145662"><ele>59.0</ele><time>2026-04-18T12:31:18.695Z</time></trkpt><trkpt lat="9.2814738" lon="-75.8145152"><ele>59.0</ele><time>2026-04-18T12:31:19.694Z</time></trkpt><trkpt lat="9.2815239" lon="-75.8144656"><ele>59.0</ele><time>2026-04-18T12:31:20.694Z</time></trkpt><trkpt lat="9.2815732" lon="-75.8144154"><ele>59.0</ele><time>2026-04-18T12:31:21.695Z</time></trkpt><trkpt lat="9.2816225" lon="-75.814364"><ele>58.57142857142857</ele><time>2026-04-18T12:31:22.695Z</time></trkpt><trkpt lat="9.2816734" lon="-75.8143117"><ele>58.142857142857146</ele><time>2026-04-18T12:31:23.696Z</time></trkpt><trkpt lat="9.2817218" lon="-75.8142613"><ele>57.714285714285715</ele><time>2026-04-18T12:31:24.696Z</time></trkpt><trkpt lat="9.2817719" lon="-75.8142087"><ele>57.285714285714285</ele><time>2026-04-18T12:31:25.695Z</time></trkpt><trkpt lat="9.2818229" lon="-75.814158"><ele>56.85714285714286</ele><time>2026-04-18T12:31:26.695Z</time></trkpt><trkpt lat="9.2818758" lon="-75.8141017"><ele>56.42857142857143</ele><time>2026-04-18T12:31:27.695Z</time></trkpt><trkpt lat="9.2819272" lon="-75.8140471"><ele>56.0</ele><time>2026-04-18T12:31:28.695Z</time></trkpt><trkpt lat="9.2819769" lon="-75.8139967"><ele>56.0</ele><time>2026-04-18T12:31:29.695Z</time></trkpt><trkpt lat="9.2820285" lon="-75.8139468"><ele>56.0</ele><time>2026-04-18T12:31:30.695Z</time></trkpt><trkpt lat="9.2820787" lon="-75.8138973"><ele>56.0</ele><time>2026-04-18T12:31:31.692Z</time></trkpt><trkpt lat="9.2821315" lon="-75.8138468"><ele>56.0</ele><time>2026-04-18T12:31:32.694Z</time></trkpt><trkpt lat="9.2821807" lon="-75.8137943"><ele>56.0</ele><time>2026-04-18T12:31:33.696Z</time></trkpt><trkpt lat="9.2822324" lon="-75.8137436"><ele>56.0</ele><time>2026-04-18T12:31:34.695Z</time></trkpt><trkpt lat="9.2822826" lon="-75.8136899"><ele>56.0</ele><time>2026-04-18T12:31:35.694Z</time></trkpt><trkpt lat="9.2823349" lon="-75.8136381"><ele>55.714285714285715</ele><time>2026-04-18T12:31:36.695Z</time></trkpt><trkpt lat="9.2823859" lon="-75.8135897"><ele>55.42857142857143</ele><time>2026-04-18T12:31:37.695Z</time></trkpt><trkpt lat="9.2824397" lon="-75.8135385"><ele>55.14285714285714</ele><time>2026-04-18T12:31:38.695Z</time></trkpt><trkpt lat="9.2824911" lon="-75.8134834"><ele>54.85714285714286</ele><time>2026-04-18T12:31:39.694Z</time></trkpt><trkpt lat="9.2825373" lon="-75.8134369"><ele>54.57142857142857</ele><time>2026-04-18T12:31:40.695Z</time></trkpt><trkpt lat="9.2825845" lon="-75.8133905"><ele>54.285714285714285</ele><time>2026-04-18T12:31:41.696Z</time></trkpt><trkpt lat="9.2826278" lon="-75.8133423"><ele>54.0</ele><time>2026-04-18T12:31:42.693Z</time></trkpt><trkpt lat="9.2826733" lon="-75.813298"><ele>54.0</ele><time>2026-04-18T12:31:43.695Z</time></trkpt><trkpt lat="9.2827238" lon="-75.8132506"><ele>54.00000000000001</ele><time>2026-04-18T12:31:44.695Z</time></trkpt><trkpt lat="9.2827684" lon="-75.813205"><ele>54.00000000000001</ele><time>2026-04-18T12:31:45.691Z</time></trkpt><trkpt lat="9.282816" lon="-75.8131518"><ele>54.0</ele><time>2026-04-18T12:31:46.695Z</time></trkpt><trkpt lat="9.2829034" lon="-75.8130654"><ele>54.0</ele><time>2026-04-18T12:31:48.695Z</time></trkpt><trkpt lat="9.282992" lon="-75.8129758"><ele>54.0</ele><time>2026-04-18T12:31:50.695Z</time></trkpt><trkpt lat="9.283081" lon="-75.8128887"><ele>54.00000000000001</ele><time>2026-04-18T12:31:52.695Z</time></trkpt><trkpt lat="9.2831507" lon="-75.812823"><ele>54.00000000000001</ele><time>2026-04-18T12:31:54.695Z</time></trkpt><trkpt lat="9.2832014" lon="-75.8127619"><ele>54.0</ele><time>2026-04-18T12:31:56.695Z</time></trkpt><trkpt lat="9.2832632" lon="-75.8127019"><ele>54.0</ele><time>2026-04-18T12:31:58.695Z</time></trkpt><trkpt lat="9.2833345" lon="-75.8126365"><ele>55.25</ele><time>2026-04-18T12:32:00.695Z</time></trkpt><trkpt lat="9.283411" lon="-75.8125603"><ele>56.5</ele><time>2026-04-18T12:32:02.695Z</time></trkpt><trkpt lat="9.2834901" lon="-75.8124802"><ele>57.75</ele><time>2026-04-18T12:32:04.695Z</time></trkpt><trkpt lat="9.2835734" lon="-75.8123954"><ele>59.0</ele><time>2026-04-18T12:32:06.695Z</time></trkpt><trkpt lat="9.2836581" lon="-75.8123061"><ele>59.0</ele><time>2026-04-18T12:32:08.695Z</time></trkpt><trkpt lat="9.283703" lon="-75.8122613"><ele>59.0</ele><time>2026-04-18T12:32:09.695Z</time></trkpt><trkpt lat="9.2837486" lon="-75.8122156"><ele>59.0</ele><time>2026-04-18T12:32:10.695Z</time></trkpt><trkpt lat="9.2837961" lon="-75.8121663"><ele>59.0</ele><time>2026-04-18T12:32:11.692Z</time></trkpt><trkpt lat="9.2838407" lon="-75.812119"><ele>59.0</ele><time>2026-04-18T12:32:12.696Z</time></trkpt><trkpt lat="9.2838878" lon="-75.8120702"><ele>59.0</ele><time>2026-04-18T12:32:13.695Z</time></trkpt><trkpt lat="9.2839399" lon="-75.8120223"><ele>59.0</ele><time>2026-04-18T12:32:14.695Z</time></trkpt><trkpt lat="9.2839906" lon="-75.811975"><ele>58.833333333333336</ele><time>2026-04-18T12:32:15.695Z</time></trkpt><trkpt lat="9.2840416" lon="-75.8119224"><ele>58.66666666666667</ele><time>2026-04-18T12:32:16.695Z</time></trkpt><trkpt lat="9.2840939" lon="-75.8118684"><ele>58.5</ele><time>2026-04-18T12:32:17.695Z</time></trkpt><trkpt lat="9.2841482" lon="-75.8118162"><ele>58.33333333333333</ele><time>2026-04-18T12:32:18.696Z</time></trkpt><trkpt lat="9.2842012" lon="-75.8117609"><ele>58.166666666666664</ele><time>2026-04-18T12:32:19.695Z</time></trkpt><trkpt lat="9.284256" lon="-75.8117016"><ele>58.0</ele><time>2026-04-18T12:32:20.695Z</time></trkpt><trkpt lat="9.2843052" lon="-75.8116355"><ele>58.33333333333333</ele><time>2026-04-18T12:32:21.694Z</time></trkpt><trkpt lat="9.2843626" lon="-75.8115788"><ele>58.666666666666664</ele><time>2026-04-18T12:32:22.695Z</time></trkpt><trkpt lat="9.2844186" lon="-75.8115234"><ele>59.0</ele><time>2026-04-18T12:32:23.695Z</time></trkpt><trkpt lat="9.2844737" lon="-75.811465"><ele>59.33333333333333</ele><time>2026-04-18T12:32:24.694Z</time></trkpt><trkpt lat="9.2845318" lon="-75.8114056"><ele>59.666666666666664</ele><time>2026-04-18T12:32:25.695Z</time></trkpt><trkpt lat="9.2845892" lon="-75.8113477"><ele>60.0</ele><time>2026-04-18T12:32:26.696Z</time></trkpt><trkpt lat="9.284648" lon="-75.8112922"><ele>60.0</ele><time>2026-04-18T12:32:27.695Z</time></trkpt><trkpt lat="9.2847128" lon="-75.8112347"><ele>60.0</ele><time>2026-04-18T12:32:28.695Z</time></trkpt><trkpt lat="9.2847747" lon="-75.8111738"><ele>60.0</ele><time>2026-04-18T12:32:29.695Z</time></trkpt><trkpt lat="9.2848383" lon="-75.8111179"><ele>60.0</ele><time>2026-04-18T12:32:30.695Z</time></trkpt><trkpt lat="9.2849077" lon="-75.8110548"><ele>60.0</ele><time>2026-04-18T12:32:31.693Z</time></trkpt><trkpt lat="9.2849787" lon="-75.811004"><ele>60.0</ele><time>2026-04-18T12:32:32.695Z</time></trkpt><trkpt lat="9.2850451" lon="-75.8109452"><ele>58.833333333333336</ele><time>2026-04-18T12:32:33.695Z</time></trkpt><trkpt lat="9.2851159" lon="-75.8108989"><ele>57.66666666666667</ele><time>2026-04-18T12:32:34.696Z</time></trkpt><trkpt lat="9.285184" lon="-75.8108448"><ele>56.5</ele><time>2026-04-18T12:32:35.695Z</time></trkpt><trkpt lat="9.2852588" lon="-75.8107948"><ele>55.333333333333336</ele><time>2026-04-18T12:32:36.695Z</time></trkpt><trkpt lat="9.2853317" lon="-75.8107386"><ele>54.16666666666667</ele><time>2026-04-18T12:32:37.695Z</time></trkpt><trkpt lat="9.2854078" lon="-75.8106867"><ele>53.0</ele><time>2026-04-18T12:32:38.695Z</time></trkpt><trkpt lat="9.2854824" lon="-75.8106356"><ele>53.0</ele><time>2026-04-18T12:32:39.695Z</time></trkpt><trkpt lat="9.2855619" lon="-75.8105827"><ele>53.0</ele><time>2026-04-18T12:32:40.696Z</time></trkpt><trkpt lat="9.2856409" lon="-75.8105252"><ele>53.0</ele><time>2026-04-18T12:32:41.694Z</time></trkpt><trkpt lat="9.2857198" lon="-75.8104671"><ele>53.0</ele><time>2026-04-18T12:32:42.694Z</time></trkpt><trkpt lat="9.2858046" lon="-75.8104085"><ele>53.0</ele><time>2026-04-18T12:32:43.695Z</time></trkpt><trkpt lat="9.285887" lon="-75.8103476"><ele>52.0</ele><time>2026-04-18T12:32:44.695Z</time></trkpt><trkpt lat="9.2859707" lon="-75.8102905"><ele>51.0</ele><time>2026-04-18T12:32:45.695Z</time></trkpt><trkpt lat="9.2860536" lon="-75.8102329"><ele>50.0</ele><time>2026-04-18T12:32:46.695Z</time></trkpt><trkpt lat="9.2861361" lon="-75.8101738"><ele>49.0</ele><time>2026-04-18T12:32:47.695Z</time></trkpt><trkpt lat="9.2862216" lon="-75.8101121"><ele>48.0</ele><time>2026-04-18T12:32:48.696Z</time></trkpt><trkpt lat="9.2863062" lon="-75.8100498"><ele>47.8</ele><time>2026-04-18T12:32:49.695Z</time></trkpt><trkpt lat="9.2863907" lon="-75.8099915"><ele>47.599999999999994</ele><time>2026-04-18T12:32:50.695Z</time></trkpt><trkpt lat="9.2864767" lon="-75.809932"><ele>47.400000000000006</ele><time>2026-04-18T12:32:51.695Z</time></trkpt><trkpt lat="9.286562" lon="-75.8098738"><ele>47.2</ele><time>2026-04-18T12:32:52.696Z</time></trkpt><trkpt lat="9.2866503" lon="-75.8098112"><ele>47.0</ele><time>2026-04-18T12:32:53.695Z</time></trkpt><trkpt lat="9.2867392" lon="-75.8097474"><ele>47.0</ele><time>2026-04-18T12:32:54.695Z</time></trkpt><trkpt lat="9.2868265" lon="-75.8096825"><ele>47.0</ele><time>2026-04-18T12:32:55.695Z</time></trkpt><trkpt lat="9.2869168" lon="-75.8096183"><ele>47.0</ele><time>2026-04-18T12:32:56.696Z</time></trkpt><trkpt lat="9.2870049" lon="-75.8095519"><ele>47.0</ele><time>2026-04-18T12:32:57.695Z</time></trkpt><trkpt lat="9.2870926" lon="-75.8094839"><ele>47.0</ele><time>2026-04-18T12:32:58.696Z</time></trkpt><trkpt lat="9.2871822" lon="-75.8094193"><ele>45.6</ele><time>2026-04-18T12:32:59.695Z</time></trkpt><trkpt lat="9.2872732" lon="-75.809354"><ele>44.2</ele><time>2026-04-18T12:33:00.695Z</time></trkpt><trkpt lat="9.2873622" lon="-75.8092918"><ele>42.8</ele><time>2026-04-18T12:33:01.695Z</time></trkpt><trkpt lat="9.2874559" lon="-75.8092347"><ele>41.4</ele><time>2026-04-18T12:33:02.695Z</time></trkpt><trkpt lat="9.2875478" lon="-75.8091776"><ele>40.0</ele><time>2026-04-18T12:33:03.695Z</time></trkpt><trkpt lat="9.2876409" lon="-75.8091127"><ele>39.8</ele><time>2026-04-18T12:33:04.695Z</time></trkpt><trkpt lat="9.2877266" lon="-75.8090425"><ele>39.6</ele><time>2026-04-18T12:33:05.695Z</time></trkpt><trkpt lat="9.2878152" lon="-75.8089821"><ele>39.4</ele><time>2026-04-18T12:33:06.695Z</time></trkpt><trkpt lat="9.2879019" lon="-75.8089194"><ele>39.2</ele><time>2026-04-18T12:33:07.696Z</time></trkpt><trkpt lat="9.2879855" lon="-75.8088567"><ele>39.0</ele><time>2026-04-18T12:33:08.695Z</time></trkpt><trkpt lat="9.2880671" lon="-75.8087968"><ele>39.0</ele><time>2026-04-18T12:33:09.695Z</time></trkpt><trkpt lat="9.2881484" lon="-75.8087367"><ele>39.0</ele><time>2026-04-18T12:33:10.694Z</time></trkpt><trkpt lat="9.2882283" lon="-75.8086776"><ele>39.0</ele><time>2026-04-18T12:33:11.696Z</time></trkpt><trkpt lat="9.2883107" lon="-75.8086201"><ele>39.0</ele><time>2026-04-18T12:33:12.695Z</time></trkpt><trkpt lat="9.288391" lon="-75.8085611"><ele>39.0</ele><time>2026-04-18T12:33:13.695Z</time></trkpt><trkpt lat="9.2884723" lon="-75.8085034"><ele>39.2</ele><time>2026-04-18T12:33:14.695Z</time></trkpt><trkpt lat="9.2885521" lon="-75.8084475"><ele>39.4</ele><time>2026-04-18T12:33:15.696Z</time></trkpt><trkpt lat="9.2886311" lon="-75.8083923"><ele>39.6</ele><time>2026-04-18T12:33:16.695Z</time></trkpt><trkpt lat="9.2887085" lon="-75.8083379"><ele>39.8</ele><time>2026-04-18T12:33:17.695Z</time></trkpt><trkpt lat="9.2887836" lon="-75.8082851"><ele>40.0</ele><time>2026-04-18T12:33:18.694Z</time></trkpt><trkpt lat="9.2888615" lon="-75.8082296"><ele>39.4</ele><time>2026-04-18T12:33:19.695Z</time></trkpt><trkpt lat="9.2889355" lon="-75.8081783"><ele>38.8</ele><time>2026-04-18T12:33:20.695Z</time></trkpt><trkpt lat="9.2890104" lon="-75.8081227"><ele>38.2</ele><time>2026-04-18T12:33:21.696Z</time></trkpt><trkpt lat="9.2890861" lon="-75.8080694"><ele>37.6</ele><time>2026-04-18T12:33:22.696Z</time></trkpt><trkpt lat="9.2891576" lon="-75.8080172"><ele>37.0</ele><time>2026-04-18T12:33:23.695Z</time></trkpt><trkpt lat="9.2892316" lon="-75.8079672"><ele>37.0</ele><time>2026-04-18T12:33:24.694Z</time></trkpt><trkpt lat="9.2893012" lon="-75.8079159"><ele>37.0</ele><time>2026-04-18T12:33:25.695Z</time></trkpt><trkpt lat="9.2893744" lon="-75.8078648"><ele>37.0</ele><time>2026-04-18T12:33:26.695Z</time></trkpt><trkpt lat="9.2894418" lon="-75.8078163"><ele>37.0</ele><time>2026-04-18T12:33:27.695Z</time></trkpt><trkpt lat="9.2895095" lon="-75.8077667"><ele>37.0</ele><time>2026-04-18T12:33:28.696Z</time></trkpt><trkpt lat="9.289577" lon="-75.8077188"><ele>37.0</ele><time>2026-04-18T12:33:29.696Z</time></trkpt><trkpt lat="9.2896455" lon="-75.8076736"><ele>37.333333333333336</ele><time>2026-04-18T12:33:30.695Z</time></trkpt><trkpt lat="9.2897166" lon="-75.807625"><ele>37.66666666666667</ele><time>2026-04-18T12:33:31.696Z</time></trkpt><trkpt lat="9.2897908" lon="-75.8075793"><ele>38.0</ele><time>2026-04-18T12:33:32.695Z</time></trkpt><trkpt lat="9.2898594" lon="-75.807531"><ele>38.333333333333336</ele><time>2026-04-18T12:33:33.695Z</time></trkpt><trkpt lat="9.2899283" lon="-75.8074878"><ele>38.666666666666664</ele><time>2026-04-18T12:33:34.695Z</time></trkpt><trkpt lat="9.2900009" lon="-75.8074455"><ele>39.0</ele><time>2026-04-18T12:33:35.696Z</time></trkpt><trkpt lat="9.2900759" lon="-75.8074018"><ele>39.333333333333336</ele><time>2026-04-18T12:33:36.696Z</time></trkpt><trkpt lat="9.2901554" lon="-75.8073609"><ele>39.666666666666664</ele><time>2026-04-18T12:33:37.695Z</time></trkpt><trkpt lat="9.2902301" lon="-75.8073194"><ele>40.0</ele><time>2026-04-18T12:33:38.695Z</time></trkpt><trkpt lat="9.2903083" lon="-75.8072721"><ele>40.33333333333333</ele><time>2026-04-18T12:33:39.695Z</time></trkpt><trkpt lat="9.2903862" lon="-75.8072425"><ele>40.666666666666664</ele><time>2026-04-18T12:33:40.695Z</time></trkpt><trkpt lat="9.2904651" lon="-75.8071984"><ele>41.0</ele><time>2026-04-18T12:33:41.695Z</time></trkpt><trkpt lat="9.2905431" lon="-75.8071591"><ele>40.33333333333333</ele><time>2026-04-18T12:33:42.696Z</time></trkpt><trkpt lat="9.2906218" lon="-75.8071213"><ele>39.666666666666664</ele><time>2026-04-18T12:33:43.696Z</time></trkpt><trkpt lat="9.2907008" lon="-75.8070833"><ele>39.0</ele><time>2026-04-18T12:33:44.695Z</time></trkpt><trkpt lat="9.290782" lon="-75.8070479"><ele>38.333333333333336</ele><time>2026-04-18T12:33:45.695Z</time></trkpt><trkpt lat="9.2908675" lon="-75.807009"><ele>37.66666666666667</ele><time>2026-04-18T12:33:46.695Z</time></trkpt><trkpt lat="9.2909506" lon="-75.8069701"><ele>37.0</ele><time>2026-04-18T12:33:47.695Z</time></trkpt><trkpt lat="9.2910363" lon="-75.8069334"><ele>37.0</ele><time>2026-04-18T12:33:48.695Z</time></trkpt><trkpt lat="9.2911163" lon="-75.8068983"><ele>37.0</ele><time>2026-04-18T12:33:49.695Z</time></trkpt><trkpt lat="9.2912005" lon="-75.8068647"><ele>37.0</ele><time>2026-04-18T12:33:50.695Z</time></trkpt><trkpt lat="9.2912841" lon="-75.8068304"><ele>37.0</ele><time>2026-04-18T12:33:51.696Z</time></trkpt><trkpt lat="9.2913674" lon="-75.8067964"><ele>37.0</ele><time>2026-04-18T12:33:52.696Z</time></trkpt><trkpt lat="9.2914517" lon="-75.8067615"><ele>37.0</ele><time>2026-04-18T12:33:53.695Z</time></trkpt><trkpt lat="9.2915378" lon="-75.8067297"><ele>35.4</ele><time>2026-04-18T12:33:54.696Z</time></trkpt><trkpt lat="9.2916267" lon="-75.8066938"><ele>33.800000000000004</ele><time>2026-04-18T12:33:55.695Z</time></trkpt><trkpt lat="9.2917153" lon="-75.806658"><ele>32.2</ele><time>2026-04-18T12:33:56.695Z</time></trkpt><trkpt lat="9.2918031" lon="-75.806621"><ele>30.6</ele><time>2026-04-18T12:33:57.695Z</time></trkpt><trkpt lat="9.2918879" lon="-75.8065828"><ele>29.0</ele><time>2026-04-18T12:33:58.695Z</time></trkpt><trkpt lat="9.2919764" lon="-75.8065411"><ele>29.0</ele><time>2026-04-18T12:33:59.695Z</time></trkpt><trkpt lat="9.2920627" lon="-75.8065053"><ele>29.0</ele><time>2026-04-18T12:34:00.695Z</time></trkpt><trkpt lat="9.292149" lon="-75.8064659"><ele>29.0</ele><time>2026-04-18T12:34:01.695Z</time></trkpt><trkpt lat="9.2922373" lon="-75.8064305"><ele>29.0</ele><time>2026-04-18T12:34:02.695Z</time></trkpt><trkpt lat="9.2923246" lon="-75.8063982"><ele>29.0</ele><time>2026-04-18T12:34:03.695Z</time></trkpt><trkpt lat="9.2924127" lon="-75.8063594"><ele>30.2</ele><time>2026-04-18T12:34:04.695Z</time></trkpt><trkpt lat="9.2924964" lon="-75.8063241"><ele>31.4</ele><time>2026-04-18T12:34:05.696Z</time></trkpt><trkpt lat="9.2925841" lon="-75.8062896"><ele>32.6</ele><time>2026-04-18T12:34:06.693Z</time></trkpt><trkpt lat="9.2926717" lon="-75.8062539"><ele>33.8</ele><time>2026-04-18T12:34:07.691Z</time></trkpt><trkpt lat="9.2927606" lon="-75.8062167"><ele>35.0</ele><time>2026-04-18T12:34:08.693Z</time></trkpt><trkpt lat="9.2928495" lon="-75.8061833"><ele>35.0</ele><time>2026-04-18T12:34:09.695Z</time></trkpt><trkpt lat="9.2929359" lon="-75.806147"><ele>35.0</ele><time>2026-04-18T12:34:10.696Z</time></trkpt><trkpt lat="9.2930245" lon="-75.806109"><ele>35.0</ele><time>2026-04-18T12:34:11.696Z</time></trkpt><trkpt lat="9.2931192" lon="-75.8060703"><ele>35.0</ele><time>2026-04-18T12:34:12.695Z</time></trkpt><trkpt lat="9.2932088" lon="-75.8060343"><ele>35.0</ele><time>2026-04-18T12:34:13.695Z</time></trkpt><trkpt lat="9.2932982" lon="-75.806003"><ele>34.6</ele><time>2026-04-18T12:34:14.696Z</time></trkpt><trkpt lat="9.2933884" lon="-75.8059668"><ele>34.2</ele><time>2026-04-18T12:34:15.696Z</time></trkpt><trkpt lat="9.2934761" lon="-75.8059301"><ele>33.8</ele><time>2026-04-18T12:34:16.695Z</time></trkpt><trkpt lat="9.2935646" lon="-75.8058918"><ele>33.4</ele><time>2026-04-18T12:34:17.696Z</time></trkpt><trkpt lat="9.2936523" lon="-75.8058534"><ele>33.0</ele><time>2026-04-18T12:34:18.693Z</time></trkpt><trkpt lat="9.2937401" lon="-75.8058141"><ele>33.0</ele><time>2026-04-18T12:34:19.695Z</time></trkpt><trkpt lat="9.2938284" lon="-75.8057773"><ele>33.0</ele><time>2026-04-18T12:34:20.695Z</time></trkpt><trkpt lat="9.2939142" lon="-75.80574"><ele>33.0</ele><time>2026-04-18T12:34:21.695Z</time></trkpt><trkpt lat="9.2940024" lon="-75.8057044"><ele>33.0</ele><time>2026-04-18T12:34:22.695Z</time></trkpt><trkpt lat="9.294087" lon="-75.8056657"><ele>33.0</ele><time>2026-04-18T12:34:23.695Z</time></trkpt><trkpt lat="9.2941748" lon="-75.8056293"><ele>32.199999999999996</ele><time>2026-04-18T12:34:24.695Z</time></trkpt><trkpt lat="9.2942631" lon="-75.8055952"><ele>31.4</ele><time>2026-04-18T12:34:25.695Z</time></trkpt><trkpt lat="9.2943516" lon="-75.8055589"><ele>30.599999999999998</ele><time>2026-04-18T12:34:26.696Z</time></trkpt><trkpt lat="9.2944371" lon="-75.8055221"><ele>29.799999999999997</ele><time>2026-04-18T12:34:27.695Z</time></trkpt><trkpt lat="9.2945231" lon="-75.8054849"><ele>29.0</ele><time>2026-04-18T12:34:28.695Z</time></trkpt><trkpt lat="9.2946127" lon="-75.8054508"><ele>29.0</ele><time>2026-04-18T12:34:29.695Z</time></trkpt><trkpt lat="9.2946993" lon="-75.8054164"><ele>29.0</ele><time>2026-04-18T12:34:30.695Z</time></trkpt><trkpt lat="9.2947848" lon="-75.8053798"><ele>29.0</ele><time>2026-04-18T12:34:31.695Z</time></trkpt><trkpt lat="9.2948685" lon="-75.8053459"><ele>29.0</ele><time>2026-04-18T12:34:32.695Z</time></trkpt><trkpt lat="9.2949579" lon="-75.805313"><ele>29.0</ele><time>2026-04-18T12:34:33.695Z</time></trkpt><trkpt lat="9.2950485" lon="-75.8052818"><ele>28.0</ele><time>2026-04-18T12:34:34.695Z</time></trkpt><trkpt lat="9.2951358" lon="-75.8052493"><ele>27.0</ele><time>2026-04-18T12:34:35.695Z</time></trkpt><trkpt lat="9.2952216" lon="-75.8052181"><ele>26.0</ele><time>2026-04-18T12:34:36.695Z</time></trkpt><trkpt lat="9.2953079" lon="-75.8051925"><ele>25.0</ele><time>2026-04-18T12:34:37.696Z</time></trkpt><trkpt lat="9.2953952" lon="-75.8051689"><ele>24.0</ele><time>2026-04-18T12:34:38.695Z</time></trkpt><trkpt lat="9.295483" lon="-75.8051501"><ele>24.0</ele><time>2026-04-18T12:34:39.695Z</time></trkpt><trkpt lat="9.2955728" lon="-75.8051326"><ele>24.0</ele><time>2026-04-18T12:34:40.696Z</time></trkpt><trkpt lat="9.2956663" lon="-75.8051161"><ele>24.0</ele><time>2026-04-18T12:34:41.695Z</time></trkpt><trkpt lat="9.2957551" lon="-75.8050968"><ele>24.0</ele><time>2026-04-18T12:34:42.695Z</time></trkpt><trkpt lat="9.2958457" lon="-75.8050868"><ele>24.0</ele><time>2026-04-18T12:34:43.695Z</time></trkpt><trkpt lat="9.2959339" lon="-75.805077"><ele>24.0</ele><time>2026-04-18T12:34:44.695Z</time></trkpt><trkpt lat="9.296024" lon="-75.8050674"><ele>24.0</ele><time>2026-04-18T12:34:45.695Z</time></trkpt><trkpt lat="9.2961132" lon="-75.8050574"><ele>24.0</ele><time>2026-04-18T12:34:46.696Z</time></trkpt><trkpt lat="9.2961979" lon="-75.8050484"><ele>24.0</ele><time>2026-04-18T12:34:47.694Z</time></trkpt><trkpt lat="9.2962885" lon="-75.8050399"><ele>24.0</ele><time>2026-04-18T12:34:48.695Z</time></trkpt><trkpt lat="9.2963773" lon="-75.8050314"><ele>24.0</ele><time>2026-04-18T12:34:49.695Z</time></trkpt><trkpt lat="9.2964665" lon="-75.8050245"><ele>24.0</ele><time>2026-04-18T12:34:50.693Z</time></trkpt><trkpt lat="9.2965511" lon="-75.8050157"><ele>24.0</ele><time>2026-04-18T12:34:51.696Z</time></trkpt><trkpt lat="9.2966372" lon="-75.8050109"><ele>24.0</ele><time>2026-04-18T12:34:52.696Z</time></trkpt><trkpt lat="9.2967231" lon="-75.8050051"><ele>24.0</ele><time>2026-04-18T12:34:53.695Z</time></trkpt><trkpt lat="9.2968088" lon="-75.8049963"><ele>24.0</ele><time>2026-04-18T12:34:54.696Z</time></trkpt><trkpt lat="9.2968882" lon="-75.8049866"><ele>24.0</ele><time>2026-04-18T12:34:55.695Z</time></trkpt><trkpt lat="9.2969723" lon="-75.8049764"><ele>24.0</ele><time>2026-04-18T12:34:56.696Z</time></trkpt><trkpt lat="9.2970587" lon="-75.8049683"><ele>24.0</ele><time>2026-04-18T12:34:57.694Z</time></trkpt><trkpt lat="9.2971394" lon="-75.8049576"><ele>24.0</ele><time>2026-04-18T12:34:58.695Z</time></trkpt><trkpt lat="9.2972215" lon="-75.8049485"><ele>24.0</ele><time>2026-04-18T12:34:59.695Z</time></trkpt><trkpt lat="9.2973032" lon="-75.8049462"><ele>24.0</ele><time>2026-04-18T12:35:00.695Z</time></trkpt><trkpt lat="9.2973804" lon="-75.8049352"><ele>24.0</ele><time>2026-04-18T12:35:01.695Z</time></trkpt><trkpt lat="9.2974677" lon="-75.8049251"><ele>23.999999999999996</ele><time>2026-04-18T12:35:02.696Z</time></trkpt><trkpt lat="9.2975464" lon="-75.8049174"><ele>24.0</ele><time>2026-04-18T12:35:03.695Z</time></trkpt><trkpt lat="9.2976196" lon="-75.8049102"><ele>24.0</ele><time>2026-04-18T12:35:04.695Z</time></trkpt><trkpt lat="9.2976949" lon="-75.8049048"><ele>24.0</ele><time>2026-04-18T12:35:05.694Z</time></trkpt><trkpt lat="9.2977667" lon="-75.8048949"><ele>24.0</ele><time>2026-04-18T12:35:06.695Z</time></trkpt><trkpt lat="9.2978368" lon="-75.8048884"><ele>23.999999999999996</ele><time>2026-04-18T12:35:07.695Z</time></trkpt><trkpt lat="9.2979048" lon="-75.8048858"><ele>24.0</ele><time>2026-04-18T12:35:08.695Z</time></trkpt><trkpt lat="9.2979738" lon="-75.804879"><ele>24.0</ele><time>2026-04-18T12:35:09.695Z</time></trkpt><trkpt lat="9.2980398" lon="-75.8048695"><ele>24.0</ele><time>2026-04-18T12:35:10.693Z</time></trkpt><trkpt lat="9.2981672" lon="-75.8048596"><ele>24.0</ele><time>2026-04-18T12:35:12.695Z</time></trkpt><trkpt lat="9.2982905" lon="-75.8048442"><ele>24.0</ele><time>2026-04-18T12:35:14.693Z</time></trkpt><trkpt lat="9.2983539" lon="-75.8048395"><ele>24.0</ele><time>2026-04-18T12:35:15.695Z</time></trkpt><trkpt lat="9.2984735" lon="-75.8048302"><ele>25.0</ele><time>2026-04-18T12:35:17.695Z</time></trkpt><trkpt lat="9.2985865" lon="-75.8048199"><ele>26.0</ele><time>2026-04-18T12:35:19.696Z</time></trkpt><trkpt lat="9.2986998" lon="-75.804797"><ele>27.0</ele><time>2026-04-18T12:35:21.695Z</time></trkpt><trkpt lat="9.2988076" lon="-75.8047892"><ele>28.0</ele><time>2026-04-18T12:35:23.695Z</time></trkpt><trkpt lat="9.2989174" lon="-75.8047755"><ele>29.0</ele><time>2026-04-18T12:35:25.695Z</time></trkpt><trkpt lat="9.2990226" lon="-75.8047643"><ele>29.4</ele><time>2026-04-18T12:35:27.695Z</time></trkpt><trkpt lat="9.2991332" lon="-75.8047527"><ele>29.799999999999997</ele><time>2026-04-18T12:35:29.695Z</time></trkpt><trkpt lat="9.2992418" lon="-75.8047425"><ele>30.200000000000003</ele><time>2026-04-18T12:35:31.696Z</time></trkpt><trkpt lat="9.299347" lon="-75.8047283"><ele>30.6</ele><time>2026-04-18T12:35:33.691Z</time></trkpt><trkpt lat="9.2994552" lon="-75.804716"><ele>31.0</ele><time>2026-04-18T12:35:35.694Z</time></trkpt><trkpt lat="9.2995615" lon="-75.8047051"><ele>31.0</ele><time>2026-04-18T12:35:37.695Z</time></trkpt><trkpt lat="9.2996652" lon="-75.8046969"><ele>31.0</ele><time>2026-04-18T12:35:39.695Z</time></trkpt><trkpt lat="9.2997729" lon="-75.8046882"><ele>31.0</ele><time>2026-04-18T12:35:41.695Z</time></trkpt><trkpt lat="9.2998756" lon="-75.8046805"><ele>31.0</ele><time>2026-04-18T12:35:43.695Z</time></trkpt><trkpt lat="9.2999818" lon="-75.8046772"><ele>31.0</ele><time>2026-04-18T12:35:45.695Z</time></trkpt><trkpt lat="9.3000876" lon="-75.8046745"><ele>31.6</ele><time>2026-04-18T12:35:47.695Z</time></trkpt><trkpt lat="9.3001914" lon="-75.8046754"><ele>32.2</ele><time>2026-04-18T12:35:49.695Z</time></trkpt><trkpt lat="9.3002983" lon="-75.804684"><ele>32.8</ele><time>2026-04-18T12:35:51.695Z</time></trkpt><trkpt lat="9.3004039" lon="-75.8046911"><ele>33.4</ele><time>2026-04-18T12:35:53.695Z</time></trkpt><trkpt lat="9.3005107" lon="-75.8046998"><ele>34.0</ele><time>2026-04-18T12:35:55.695Z</time></trkpt><trkpt lat="9.3006195" lon="-75.8047183"><ele>34.6</ele><time>2026-04-18T12:35:57.695Z</time></trkpt><trkpt lat="9.3007324" lon="-75.8047355"><ele>35.2</ele><time>2026-04-18T12:35:59.695Z</time></trkpt><trkpt lat="9.3008357" lon="-75.8047581"><ele>35.800000000000004</ele><time>2026-04-18T12:36:01.695Z</time></trkpt><trkpt lat="9.3009469" lon="-75.8047856"><ele>36.4</ele><time>2026-04-18T12:36:03.695Z</time></trkpt><trkpt lat="9.301055" lon="-75.8048088"><ele>37.0</ele><time>2026-04-18T12:36:05.695Z</time></trkpt><trkpt lat="9.301164" lon="-75.8048348"><ele>37.0</ele><time>2026-04-18T12:36:07.695Z</time></trkpt><trkpt lat="9.301271" lon="-75.8048628"><ele>37.0</ele><time>2026-04-18T12:36:09.696Z</time></trkpt><trkpt lat="9.3013783" lon="-75.8048881"><ele>37.0</ele><time>2026-04-18T12:36:11.696Z</time></trkpt><trkpt lat="9.3014841" lon="-75.804913"><ele>37.0</ele><time>2026-04-18T12:36:13.695Z</time></trkpt><trkpt lat="9.3015953" lon="-75.8049373"><ele>37.0</ele><time>2026-04-18T12:36:15.695Z</time></trkpt><trkpt lat="9.3017031" lon="-75.8049634"><ele>37.6</ele><time>2026-04-18T12:36:17.695Z</time></trkpt><trkpt lat="9.3018131" lon="-75.8049964"><ele>38.2</ele><time>2026-04-18T12:36:19.693Z</time></trkpt><trkpt lat="9.3019314" lon="-75.8050248"><ele>38.8</ele><time>2026-04-18T12:36:21.695Z</time></trkpt><trkpt lat="9.3019931" lon="-75.8050386"><ele>39.4</ele><time>2026-04-18T12:36:22.695Z</time></trkpt><trkpt lat="9.3021169" lon="-75.8050695"><ele>40.0</ele><time>2026-04-18T12:36:24.695Z</time></trkpt><trkpt lat="9.3021801" lon="-75.8050827"><ele>40.0</ele><time>2026-04-18T12:36:25.695Z</time></trkpt><trkpt lat="9.3022425" lon="-75.8050984"><ele>40.0</ele><time>2026-04-18T12:36:26.695Z</time></trkpt><trkpt lat="9.3023085" lon="-75.8051104"><ele>40.0</ele><time>2026-04-18T12:36:27.695Z</time></trkpt><trkpt lat="9.3023705" lon="-75.8051253"><ele>40.0</ele><time>2026-04-18T12:36:28.695Z</time></trkpt><trkpt lat="9.302434" lon="-75.8051426"><ele>40.0</ele><time>2026-04-18T12:36:29.695Z</time></trkpt><trkpt lat="9.302498" lon="-75.8051582"><ele>40.0</ele><time>2026-04-18T12:36:30.696Z</time></trkpt><trkpt lat="9.302562" lon="-75.805174"><ele>40.0</ele><time>2026-04-18T12:36:31.695Z</time></trkpt><trkpt lat="9.3026276" lon="-75.8051892"><ele>40.0</ele><time>2026-04-18T12:36:32.695Z</time></trkpt><trkpt lat="9.3026941" lon="-75.8052064"><ele>40.0</ele><time>2026-04-18T12:36:33.695Z</time></trkpt><trkpt lat="9.3027598" lon="-75.8052218"><ele>40.0</ele><time>2026-04-18T12:36:34.695Z</time></trkpt><trkpt lat="9.3028279" lon="-75.8052367"><ele>40.0</ele><time>2026-04-18T12:36:35.695Z</time></trkpt><trkpt lat="9.3028978" lon="-75.8052473"><ele>40.0</ele><time>2026-04-18T12:36:36.696Z</time></trkpt><trkpt lat="9.3029656" lon="-75.8052628"><ele>40.0</ele><time>2026-04-18T12:36:37.696Z</time></trkpt><trkpt lat="9.3030339" lon="-75.8052787"><ele>40.0</ele><time>2026-04-18T12:36:38.693Z</time></trkpt><trkpt lat="9.3031011" lon="-75.8052936"><ele>40.0</ele><time>2026-04-18T12:36:39.695Z</time></trkpt><trkpt lat="9.3031685" lon="-75.8053092"><ele>40.0</ele><time>2026-04-18T12:36:40.695Z</time></trkpt><trkpt lat="9.3032393" lon="-75.8053251"><ele>40.0</ele><time>2026-04-18T12:36:41.695Z</time></trkpt><trkpt lat="9.3033067" lon="-75.8053394"><ele>40.0</ele><time>2026-04-18T12:36:42.696Z</time></trkpt><trkpt lat="9.3033782" lon="-75.8053576"><ele>40.0</ele><time>2026-04-18T12:36:43.695Z</time></trkpt><trkpt lat="9.3034478" lon="-75.8053768"><ele>40.0</ele><time>2026-04-18T12:36:44.695Z</time></trkpt><trkpt lat="9.3035168" lon="-75.8053937"><ele>40.0</ele><time>2026-04-18T12:36:45.696Z</time></trkpt><trkpt lat="9.3035864" lon="-75.80541"><ele>40.0</ele><time>2026-04-18T12:36:46.695Z</time></trkpt><trkpt lat="9.3036577" lon="-75.8054238"><ele>40.0</ele><time>2026-04-18T12:36:47.694Z</time></trkpt><trkpt lat="9.3037284" lon="-75.8054414"><ele>40.0</ele><time>2026-04-18T12:36:48.695Z</time></trkpt><trkpt lat="9.3037996" lon="-75.8054571"><ele>40.0</ele><time>2026-04-18T12:36:49.694Z</time></trkpt><trkpt lat="9.3038727" lon="-75.8054677"><ele>40.0</ele><time>2026-04-18T12:36:50.695Z</time></trkpt><trkpt lat="9.3039449" lon="-75.8054841"><ele>40.0</ele><time>2026-04-18T12:36:51.695Z</time></trkpt><trkpt lat="9.3040185" lon="-75.8055004"><ele>40.0</ele><time>2026-04-18T12:36:52.695Z</time></trkpt><trkpt lat="9.3040906" lon="-75.8055137"><ele>40.285714285714285</ele><time>2026-04-18T12:36:53.695Z</time></trkpt><trkpt lat="9.30416" lon="-75.8055306"><ele>40.57142857142857</ele><time>2026-04-18T12:36:54.695Z</time></trkpt><trkpt lat="9.3042321" lon="-75.8055461"><ele>40.85714285714286</ele><time>2026-04-18T12:36:55.694Z</time></trkpt><trkpt lat="9.3043017" lon="-75.8055631"><ele>41.14285714285714</ele><time>2026-04-18T12:36:56.693Z</time></trkpt><trkpt lat="9.3043702" lon="-75.8055777"><ele>41.42857142857143</ele><time>2026-04-18T12:36:57.693Z</time></trkpt><trkpt lat="9.3044391" lon="-75.8055914"><ele>41.714285714285715</ele><time>2026-04-18T12:36:58.693Z</time></trkpt><trkpt lat="9.3045134" lon="-75.8055986"><ele>42.0</ele><time>2026-04-18T12:36:59.695Z</time></trkpt><trkpt lat="9.3045829" lon="-75.8056123"><ele>42.0</ele><time>2026-04-18T12:37:00.696Z</time></trkpt><trkpt lat="9.3046513" lon="-75.805622"><ele>42.0</ele><time>2026-04-18T12:37:01.695Z</time></trkpt><trkpt lat="9.3047217" lon="-75.8056364"><ele>42.0</ele><time>2026-04-18T12:37:02.695Z</time></trkpt><trkpt lat="9.3047938" lon="-75.8056447"><ele>42.0</ele><time>2026-04-18T12:37:03.695Z</time></trkpt><trkpt lat="9.3048633" lon="-75.8056532"><ele>42.0</ele><time>2026-04-18T12:37:04.695Z</time></trkpt><trkpt lat="9.3049305" lon="-75.8056599"><ele>42.0</ele><time>2026-04-18T12:37:05.695Z</time></trkpt><trkpt lat="9.3050019" lon="-75.8056658"><ele>42.0</ele><time>2026-04-18T12:37:06.695Z</time></trkpt><trkpt lat="9.305071" lon="-75.80567"><ele>42.0</ele><time>2026-04-18T12:37:07.695Z</time></trkpt><trkpt lat="9.3051404" lon="-75.8056716"><ele>42.0</ele><time>2026-04-18T12:37:08.695Z</time></trkpt><trkpt lat="9.3052075" lon="-75.8056735"><ele>42.0</ele><time>2026-04-18T12:37:09.696Z</time></trkpt><trkpt lat="9.3052777" lon="-75.8056728"><ele>42.0</ele><time>2026-04-18T12:37:10.695Z</time></trkpt><trkpt lat="9.3053453" lon="-75.8056716"><ele>42.0</ele><time>2026-04-18T12:37:11.694Z</time></trkpt><trkpt lat="9.3054132" lon="-75.8056709"><ele>42.0</ele><time>2026-04-18T12:37:12.696Z</time></trkpt><trkpt lat="9.3054795" lon="-75.8056647"><ele>42.0</ele><time>2026-04-18T12:37:13.694Z</time></trkpt><trkpt lat="9.3055447" lon="-75.805657"><ele>42.8</ele><time>2026-04-18T12:37:14.694Z</time></trkpt><trkpt lat="9.3056095" lon="-75.8056463"><ele>43.6</ele><time>2026-04-18T12:37:15.695Z</time></trkpt><trkpt lat="9.3056721" lon="-75.8056359"><ele>44.4</ele><time>2026-04-18T12:37:16.695Z</time></trkpt><trkpt lat="9.3057982" lon="-75.805614"><ele>45.199999999999996</ele><time>2026-04-18T12:37:18.695Z</time></trkpt><trkpt lat="9.3059182" lon="-75.8055834"><ele>46.0</ele><time>2026-04-18T12:37:20.696Z</time></trkpt><trkpt lat="9.3060348" lon="-75.8055539"><ele>46.0</ele><time>2026-04-18T12:37:22.696Z</time></trkpt><trkpt lat="9.3060978" lon="-75.8055379"><ele>46.0</ele><time>2026-04-18T12:37:23.695Z</time></trkpt><trkpt lat="9.3062077" lon="-75.805505"><ele>46.0</ele><time>2026-04-18T12:37:25.695Z</time></trkpt><trkpt lat="9.3063168" lon="-75.8054718"><ele>46.0</ele><time>2026-04-18T12:37:27.695Z</time></trkpt><trkpt lat="9.3064277" lon="-75.8054411"><ele>46.0</ele><time>2026-04-18T12:37:29.694Z</time></trkpt><trkpt lat="9.306539" lon="-75.8054063"><ele>45.75</ele><time>2026-04-18T12:37:31.693Z</time></trkpt><trkpt lat="9.3066514" lon="-75.8053708"><ele>45.5</ele><time>2026-04-18T12:37:33.695Z</time></trkpt><trkpt lat="9.3067584" lon="-75.8053366"><ele>45.25</ele><time>2026-04-18T12:37:35.695Z</time></trkpt><trkpt lat="9.3068665" lon="-75.8053079"><ele>45.0</ele><time>2026-04-18T12:37:37.695Z</time></trkpt><trkpt lat="9.3069714" lon="-75.8052801"><ele>45.0</ele><time>2026-04-18T12:37:39.695Z</time></trkpt><trkpt lat="9.3070794" lon="-75.8052423"><ele>45.0</ele><time>2026-04-18T12:37:41.694Z</time></trkpt><trkpt lat="9.3071864" lon="-75.8052085"><ele>45.0</ele><time>2026-04-18T12:37:43.695Z</time></trkpt><trkpt lat="9.3073013" lon="-75.8051719"><ele>45.0</ele><time>2026-04-18T12:37:45.694Z</time></trkpt><trkpt lat="9.3074209" lon="-75.8051366"><ele>46.5</ele><time>2026-04-18T12:37:47.691Z</time></trkpt><trkpt lat="9.3075391" lon="-75.8050989"><ele>48.0</ele><time>2026-04-18T12:37:49.695Z</time></trkpt><trkpt lat="9.3076574" lon="-75.8050646"><ele>49.5</ele><time>2026-04-18T12:37:51.695Z</time></trkpt><trkpt lat="9.3077815" lon="-75.8050302"><ele>51.0</ele><time>2026-04-18T12:37:53.695Z</time></trkpt><trkpt lat="9.3079033" lon="-75.8050042"><ele>51.0</ele><time>2026-04-18T12:37:55.695Z</time></trkpt><trkpt lat="9.3079662" lon="-75.8049853"><ele>51.0</ele><time>2026-04-18T12:37:56.695Z</time></trkpt><trkpt lat="9.3080313" lon="-75.8049664"><ele>51.0</ele><time>2026-04-18T12:37:57.696Z</time></trkpt><trkpt lat="9.3080977" lon="-75.8049449"><ele>51.0</ele><time>2026-04-18T12:37:58.696Z</time></trkpt><trkpt lat="9.3081644" lon="-75.8049286"><ele>51.0</ele><time>2026-04-18T12:37:59.695Z</time></trkpt><trkpt lat="9.3082343" lon="-75.8049081"><ele>51.0</ele><time>2026-04-18T12:38:00.693Z</time></trkpt><trkpt lat="9.3083044" lon="-75.804884"><ele>51.0</ele><time>2026-04-18T12:38:01.693Z</time></trkpt><trkpt lat="9.3083786" lon="-75.8048596"><ele>51.0</ele><time>2026-04-18T12:38:02.694Z</time></trkpt><trkpt lat="9.3084562" lon="-75.8048391"><ele>51.0</ele><time>2026-04-18T12:38:03.693Z</time></trkpt><trkpt lat="9.3085342" lon="-75.804814"><ele>51.0</ele><time>2026-04-18T12:38:04.692Z</time></trkpt><trkpt lat="9.3086143" lon="-75.8047894"><ele>51.0</ele><time>2026-04-18T12:38:05.691Z</time></trkpt><trkpt lat="9.3086956" lon="-75.8047675"><ele>51.0</ele><time>2026-04-18T12:38:06.693Z</time></trkpt><trkpt lat="9.3087791" lon="-75.8047421"><ele>51.0</ele><time>2026-04-18T12:38:07.693Z</time></trkpt><trkpt lat="9.3088639" lon="-75.8047141"><ele>49.5</ele><time>2026-04-18T12:38:08.696Z</time></trkpt><trkpt lat="9.3089502" lon="-75.8046897"><ele>48.0</ele><time>2026-04-18T12:38:09.694Z</time></trkpt><trkpt lat="9.3090318" lon="-75.8046646"><ele>46.5</ele><time>2026-04-18T12:38:10.695Z</time></trkpt><trkpt lat="9.3091168" lon="-75.8046422"><ele>45.0</ele><time>2026-04-18T12:38:11.695Z</time></trkpt><trkpt lat="9.3092004" lon="-75.8046162"><ele>43.5</ele><time>2026-04-18T12:38:12.695Z</time></trkpt><trkpt lat="9.309283" lon="-75.8045927"><ele>42.0</ele><time>2026-04-18T12:38:13.695Z</time></trkpt><trkpt lat="9.3093651" lon="-75.8045699"><ele>42.0</ele><time>2026-04-18T12:38:14.695Z</time></trkpt><trkpt lat="9.3094506" lon="-75.8045437"><ele>42.0</ele><time>2026-04-18T12:38:15.695Z</time></trkpt><trkpt lat="9.3095323" lon="-75.8045155"><ele>42.0</ele><time>2026-04-18T12:38:16.695Z</time></trkpt><trkpt lat="9.3096151" lon="-75.8044907"><ele>42.0</ele><time>2026-04-18T12:38:17.695Z</time></trkpt><trkpt lat="9.3096969" lon="-75.8044663"><ele>42.0</ele><time>2026-04-18T12:38:18.696Z</time></trkpt><trkpt lat="9.3097734" lon="-75.8044411"><ele>42.0</ele><time>2026-04-18T12:38:19.695Z</time></trkpt><trkpt lat="9.3098541" lon="-75.8044209"><ele>42.0</ele><time>2026-04-18T12:38:20.696Z</time></trkpt><trkpt lat="9.3099391" lon="-75.8043941"><ele>42.0</ele><time>2026-04-18T12:38:21.696Z</time></trkpt><trkpt lat="9.3100162" lon="-75.8043699"><ele>42.0</ele><time>2026-04-18T12:38:22.695Z</time></trkpt><trkpt lat="9.310092" lon="-75.8043424"><ele>42.0</ele><time>2026-04-18T12:38:23.695Z</time></trkpt><trkpt lat="9.3101681" lon="-75.8043202"><ele>42.0</ele><time>2026-04-18T12:38:24.696Z</time></trkpt><trkpt lat="9.3102405" lon="-75.8042982"><ele>42.0</ele><time>2026-04-18T12:38:25.696Z</time></trkpt><trkpt lat="9.3103149" lon="-75.8042736"><ele>42.0</ele><time>2026-04-18T12:38:26.695Z</time></trkpt><trkpt lat="9.3103889" lon="-75.804256"><ele>42.0</ele><time>2026-04-18T12:38:27.695Z</time></trkpt><trkpt lat="9.310461" lon="-75.8042353"><ele>42.0</ele><time>2026-04-18T12:38:28.695Z</time></trkpt><trkpt lat="9.3105304" lon="-75.8042107"><ele>42.0</ele><time>2026-04-18T12:38:29.695Z</time></trkpt><trkpt lat="9.3105972" lon="-75.804189"><ele>42.0</ele><time>2026-04-18T12:38:30.696Z</time></trkpt><trkpt lat="9.310668" lon="-75.8041629"><ele>42.0</ele><time>2026-04-18T12:38:31.695Z</time></trkpt><trkpt lat="9.3107317" lon="-75.8041364"><ele>42.0</ele><time>2026-04-18T12:38:32.696Z</time></trkpt><trkpt lat="9.3107918" lon="-75.8041123"><ele>43.0</ele><time>2026-04-18T12:38:33.691Z</time></trkpt><trkpt lat="9.3108534" lon="-75.8040855"><ele>44.0</ele><time>2026-04-18T12:38:34.695Z</time></trkpt><trkpt lat="9.3109638" lon="-75.8040308"><ele>45.0</ele><time>2026-04-18T12:38:36.692Z</time></trkpt><trkpt lat="9.3110721" lon="-75.8039743"><ele>46.0</ele><time>2026-04-18T12:38:38.693Z</time></trkpt><trkpt lat="9.3111663" lon="-75.8039155"><ele>47.0</ele><time>2026-04-18T12:38:40.695Z</time></trkpt><trkpt lat="9.3112541" lon="-75.8038544"><ele>47.0</ele><time>2026-04-18T12:38:42.695Z</time></trkpt><trkpt lat="9.3113422" lon="-75.8037901"><ele>47.0</ele><time>2026-04-18T12:38:44.695Z</time></trkpt><trkpt lat="9.3114234" lon="-75.8037262"><ele>47.0</ele><time>2026-04-18T12:38:46.695Z</time></trkpt><trkpt lat="9.3114992" lon="-75.8036667"><ele>47.0</ele><time>2026-04-18T12:38:48.695Z</time></trkpt><trkpt lat="9.3115757" lon="-75.8035951"><ele>47.0</ele><time>2026-04-18T12:38:50.695Z</time></trkpt><trkpt lat="9.3116468" lon="-75.8035319"><ele>46.6</ele><time>2026-04-18T12:38:52.694Z</time></trkpt><trkpt lat="9.3117152" lon="-75.8034669"><ele>46.2</ele><time>2026-04-18T12:38:54.694Z</time></trkpt><trkpt lat="9.3117897" lon="-75.8034045"><ele>45.8</ele><time>2026-04-18T12:38:56.695Z</time></trkpt><trkpt lat="9.3118659" lon="-75.8033379"><ele>45.4</ele><time>2026-04-18T12:38:58.695Z</time></trkpt><trkpt lat="9.311935" lon="-75.8032699"><ele>45.0</ele><time>2026-04-18T12:39:00.695Z</time></trkpt><trkpt lat="9.3120104" lon="-75.803199"><ele>45.0</ele><time>2026-04-18T12:39:02.695Z</time></trkpt><trkpt lat="9.3120821" lon="-75.8031311"><ele>45.0</ele><time>2026-04-18T12:39:04.695Z</time></trkpt><trkpt lat="9.3121592" lon="-75.8030632"><ele>45.0</ele><time>2026-04-18T12:39:06.695Z</time></trkpt><trkpt lat="9.3122438" lon="-75.8029887"><ele>45.0</ele><time>2026-04-18T12:39:08.695Z</time></trkpt><trkpt lat="9.3123246" lon="-75.8029159"><ele>45.0</ele><time>2026-04-18T12:39:10.695Z</time></trkpt><trkpt lat="9.3124092" lon="-75.8028397"><ele>45.2</ele><time>2026-04-18T12:39:12.691Z</time></trkpt><trkpt lat="9.3124959" lon="-75.8027649"><ele>45.4</ele><time>2026-04-18T12:39:14.695Z</time></trkpt><trkpt lat="9.3125447" lon="-75.8027221"><ele>45.599999999999994</ele><time>2026-04-18T12:39:15.695Z</time></trkpt><trkpt lat="9.312632" lon="-75.8026427"><ele>45.8</ele><time>2026-04-18T12:39:17.695Z</time></trkpt><trkpt lat="9.3127254" lon="-75.8025601"><ele>46.0</ele><time>2026-04-18T12:39:19.692Z</time></trkpt><trkpt lat="9.3128135" lon="-75.8024773"><ele>46.0</ele><time>2026-04-18T12:39:21.696Z</time></trkpt><trkpt lat="9.3128985" lon="-75.8023829"><ele>46.0</ele><time>2026-04-18T12:39:23.696Z</time></trkpt><trkpt lat="9.3129948" lon="-75.8022969"><ele>46.0</ele><time>2026-04-18T12:39:25.696Z</time></trkpt><trkpt lat="9.3130876" lon="-75.802215"><ele>46.0</ele><time>2026-04-18T12:39:27.694Z</time></trkpt><trkpt lat="9.3131341" lon="-75.8021714"><ele>46.0</ele><time>2026-04-18T12:39:28.694Z</time></trkpt><trkpt lat="9.3131829" lon="-75.8021235"><ele>45.16666666666667</ele><time>2026-04-18T12:39:29.695Z</time></trkpt><trkpt lat="9.3132355" lon="-75.8020762"><ele>44.333333333333336</ele><time>2026-04-18T12:39:30.694Z</time></trkpt><trkpt lat="9.3132918" lon="-75.8020274"><ele>43.5</ele><time>2026-04-18T12:39:31.695Z</time></trkpt><trkpt lat="9.3133488" lon="-75.8019752"><ele>42.666666666666664</ele><time>2026-04-18T12:39:32.693Z</time></trkpt><trkpt lat="9.313409" lon="-75.801927"><ele>41.83333333333333</ele><time>2026-04-18T12:39:33.695Z</time></trkpt><trkpt lat="9.3134677" lon="-75.8018738"><ele>41.0</ele><time>2026-04-18T12:39:34.693Z</time></trkpt><trkpt lat="9.3135242" lon="-75.8018173"><ele>41.0</ele><time>2026-04-18T12:39:35.695Z</time></trkpt><trkpt lat="9.3135838" lon="-75.8017645"><ele>41.0</ele><time>2026-04-18T12:39:36.695Z</time></trkpt><trkpt lat="9.3136422" lon="-75.8017082"><ele>41.0</ele><time>2026-04-18T12:39:37.695Z</time></trkpt><trkpt lat="9.3137024" lon="-75.8016535"><ele>41.0</ele><time>2026-04-18T12:39:38.695Z</time></trkpt><trkpt lat="9.3137621" lon="-75.8016027"><ele>41.0</ele><time>2026-04-18T12:39:39.693Z</time></trkpt><trkpt lat="9.313822" lon="-75.8015479"><ele>41.0</ele><time>2026-04-18T12:39:40.695Z</time></trkpt><trkpt lat="9.3138856" lon="-75.8014902"><ele>40.4</ele><time>2026-04-18T12:39:41.695Z</time></trkpt><trkpt lat="9.3139499" lon="-75.8014301"><ele>39.8</ele><time>2026-04-18T12:39:42.693Z</time></trkpt><trkpt lat="9.3140178" lon="-75.801372"><ele>39.199999999999996</ele><time>2026-04-18T12:39:43.695Z</time></trkpt><trkpt lat="9.3140869" lon="-75.8013097"><ele>38.599999999999994</ele><time>2026-04-18T12:39:44.693Z</time></trkpt><trkpt lat="9.3141568" lon="-75.8012463"><ele>38.0</ele><time>2026-04-18T12:39:45.696Z</time></trkpt><trkpt lat="9.3142296" lon="-75.8011852"><ele>38.0</ele><time>2026-04-18T12:39:46.694Z</time></trkpt><trkpt lat="9.3143014" lon="-75.8011294"><ele>38.0</ele><time>2026-04-18T12:39:47.693Z</time></trkpt><trkpt lat="9.3143683" lon="-75.8010734"><ele>38.0</ele><time>2026-04-18T12:39:48.693Z</time></trkpt><trkpt lat="9.3144391" lon="-75.8010144"><ele>38.0</ele><time>2026-04-18T12:39:49.695Z</time></trkpt><trkpt lat="9.3145063" lon="-75.8009546"><ele>38.0</ele><time>2026-04-18T12:39:50.693Z</time></trkpt><trkpt lat="9.3145812" lon="-75.8008915"><ele>38.0</ele><time>2026-04-18T12:39:51.694Z</time></trkpt><trkpt lat="9.3146587" lon="-75.8008281"><ele>38.0</ele><time>2026-04-18T12:39:52.695Z</time></trkpt><trkpt lat="9.3147363" lon="-75.8007654"><ele>38.0</ele><time>2026-04-18T12:39:53.696Z</time></trkpt><trkpt lat="9.3148203" lon="-75.8007042"><ele>38.0</ele><time>2026-04-18T12:39:54.695Z</time></trkpt><trkpt lat="9.3149021" lon="-75.800646"><ele>38.0</ele><time>2026-04-18T12:39:55.692Z</time></trkpt><trkpt lat="9.314987" lon="-75.8005951"><ele>38.0</ele><time>2026-04-18T12:39:56.695Z</time></trkpt><trkpt lat="9.3150749" lon="-75.8005412"><ele>38.0</ele><time>2026-04-18T12:39:57.695Z</time></trkpt><trkpt lat="9.3151669" lon="-75.8004854"><ele>38.0</ele><time>2026-04-18T12:39:58.695Z</time></trkpt><trkpt lat="9.3152609" lon="-75.8004314"><ele>38.0</ele><time>2026-04-18T12:39:59.696Z</time></trkpt><trkpt lat="9.3153598" lon="-75.8003775"><ele>38.0</ele><time>2026-04-18T12:40:00.695Z</time></trkpt><trkpt lat="9.3154556" lon="-75.8003249"><ele>38.0</ele><time>2026-04-18T12:40:01.695Z</time></trkpt><trkpt lat="9.315556" lon="-75.8002735"><ele>38.0</ele><time>2026-04-18T12:40:02.691Z</time></trkpt><trkpt lat="9.3156575" lon="-75.8002169"><ele>38.0</ele><time>2026-04-18T12:40:03.695Z</time></trkpt><trkpt lat="9.3157564" lon="-75.8001632"><ele>38.0</ele><time>2026-04-18T12:40:04.695Z</time></trkpt><trkpt lat="9.3158568" lon="-75.8001076"><ele>37.0</ele><time>2026-04-18T12:40:05.695Z</time></trkpt><trkpt lat="9.3159609" lon="-75.800049"><ele>36.0</ele><time>2026-04-18T12:40:06.69Z</time></trkpt><trkpt lat="9.3160606" lon="-75.7999965"><ele>35.0</ele><time>2026-04-18T12:40:07.694Z</time></trkpt><trkpt lat="9.3161627" lon="-75.7999451"><ele>34.0</ele><time>2026-04-18T12:40:08.695Z</time></trkpt><trkpt lat="9.3162695" lon="-75.7998882"><ele>34.0</ele><time>2026-04-18T12:40:09.696Z</time></trkpt><trkpt lat="9.3163727" lon="-75.7998315"><ele>34.0</ele><time>2026-04-18T12:40:10.695Z</time></trkpt><trkpt lat="9.3164807" lon="-75.7997759"><ele>34.0</ele><time>2026-04-18T12:40:11.695Z</time></trkpt><trkpt lat="9.3165871" lon="-75.7997166"><ele>34.0</ele><time>2026-04-18T12:40:12.695Z</time></trkpt><trkpt lat="9.3166925" lon="-75.799658"><ele>32.75</ele><time>2026-04-18T12:40:13.696Z</time></trkpt><trkpt lat="9.3167989" lon="-75.7996025"><ele>31.5</ele><time>2026-04-18T12:40:14.695Z</time></trkpt><trkpt lat="9.3169055" lon="-75.7995441"><ele>30.25</ele><time>2026-04-18T12:40:15.695Z</time></trkpt><trkpt lat="9.3170103" lon="-75.7994874"><ele>29.0</ele><time>2026-04-18T12:40:16.695Z</time></trkpt><trkpt lat="9.3171143" lon="-75.7994328"><ele>29.0</ele><time>2026-04-18T12:40:17.695Z</time></trkpt><trkpt lat="9.3172212" lon="-75.7993746"><ele>29.0</ele><time>2026-04-18T12:40:18.69Z</time></trkpt><trkpt lat="9.3173237" lon="-75.7993195"><ele>29.0</ele><time>2026-04-18T12:40:19.692Z</time></trkpt><trkpt lat="9.3174279" lon="-75.7992652"><ele>29.0</ele><time>2026-04-18T12:40:20.691Z</time></trkpt><trkpt lat="9.31753" lon="-75.7992095"><ele>28.4</ele><time>2026-04-18T12:40:21.692Z</time></trkpt><trkpt lat="9.3176327" lon="-75.7991537"><ele>27.799999999999997</ele><time>2026-04-18T12:40:22.693Z</time></trkpt><trkpt lat="9.317731" lon="-75.799101"><ele>27.200000000000003</ele><time>2026-04-18T12:40:23.693Z</time></trkpt><trkpt lat="9.3178233" lon="-75.7990536"><ele>26.6</ele><time>2026-04-18T12:40:24.694Z</time></trkpt><trkpt lat="9.3179119" lon="-75.7990068"><ele>26.0</ele><time>2026-04-18T12:40:25.696Z</time></trkpt><trkpt lat="9.3179982" lon="-75.7989631"><ele>26.0</ele><time>2026-04-18T12:40:26.692Z</time></trkpt><trkpt lat="9.3180887" lon="-75.7989164"><ele>26.0</ele><time>2026-04-18T12:40:27.694Z</time></trkpt><trkpt lat="9.3181735" lon="-75.7988708"><ele>26.0</ele><time>2026-04-18T12:40:28.694Z</time></trkpt><trkpt lat="9.3182577" lon="-75.7988287"><ele>26.0</ele><time>2026-04-18T12:40:29.695Z</time></trkpt><trkpt lat="9.3183377" lon="-75.798783"><ele>26.0</ele><time>2026-04-18T12:40:30.694Z</time></trkpt><trkpt lat="9.3184195" lon="-75.7987434"><ele>26.0</ele><time>2026-04-18T12:40:31.695Z</time></trkpt><trkpt lat="9.3184996" lon="-75.7987006"><ele>26.0</ele><time>2026-04-18T12:40:32.696Z</time></trkpt><trkpt lat="9.3185803" lon="-75.7986565"><ele>26.0</ele><time>2026-04-18T12:40:33.695Z</time></trkpt><trkpt lat="9.3186614" lon="-75.7986141"><ele>26.0</ele><time>2026-04-18T12:40:34.695Z</time></trkpt><trkpt lat="9.3187393" lon="-75.7985749"><ele>26.0</ele><time>2026-04-18T12:40:35.693Z</time></trkpt><trkpt lat="9.3188188" lon="-75.7985338"><ele>25.999999999999996</ele><time>2026-04-18T12:40:36.694Z</time></trkpt><trkpt lat="9.3189004" lon="-75.798493"><ele>26.0</ele><time>2026-04-18T12:40:37.694Z</time></trkpt><trkpt lat="9.3189815" lon="-75.7984527"><ele>26.0</ele><time>2026-04-18T12:40:38.695Z</time></trkpt><trkpt lat="9.3190614" lon="-75.7984122"><ele>26.0</ele><time>2026-04-18T12:40:39.695Z</time></trkpt><trkpt lat="9.3191404" lon="-75.7983726"><ele>25.999999999999996</ele><time>2026-04-18T12:40:40.695Z</time></trkpt><trkpt lat="9.319216" lon="-75.7983299"><ele>26.0</ele><time>2026-04-18T12:40:41.695Z</time></trkpt><trkpt lat="9.3192932" lon="-75.7982888"><ele>25.999999999999996</ele><time>2026-04-18T12:40:42.695Z</time></trkpt><trkpt lat="9.3193692" lon="-75.7982459"><ele>26.0</ele><time>2026-04-18T12:40:43.693Z</time></trkpt><trkpt lat="9.3194491" lon="-75.7982089"><ele>26.0</ele><time>2026-04-18T12:40:44.695Z</time></trkpt><trkpt lat="9.319526" lon="-75.7981694"><ele>26.0</ele><time>2026-04-18T12:40:45.696Z</time></trkpt><trkpt lat="9.3196022" lon="-75.7981322"><ele>25.999999999999996</ele><time>2026-04-18T12:40:46.695Z</time></trkpt><trkpt lat="9.3196729" lon="-75.798094"><ele>26.0</ele><time>2026-04-18T12:40:47.696Z</time></trkpt><trkpt lat="9.3197489" lon="-75.798054"><ele>25.999999999999996</ele><time>2026-04-18T12:40:48.696Z</time></trkpt><trkpt lat="9.319822" lon="-75.798019"><ele>26.0</ele><time>2026-04-18T12:40:49.696Z</time></trkpt><trkpt lat="9.3198903" lon="-75.7979804"><ele>26.0</ele><time>2026-04-18T12:40:50.695Z</time></trkpt><trkpt lat="9.3199599" lon="-75.7979446"><ele>26.0</ele><time>2026-04-18T12:40:51.695Z</time></trkpt><trkpt lat="9.3200294" lon="-75.7979085"><ele>25.999999999999996</ele><time>2026-04-18T12:40:52.696Z</time></trkpt><trkpt lat="9.3201015" lon="-75.7978714"><ele>26.0</ele><time>2026-04-18T12:40:53.695Z</time></trkpt><trkpt lat="9.3201735" lon="-75.7978353"><ele>25.999999999999996</ele><time>2026-04-18T12:40:54.695Z</time></trkpt><trkpt lat="9.3202415" lon="-75.7977972"><ele>26.0</ele><time>2026-04-18T12:40:55.695Z</time></trkpt><trkpt lat="9.3203112" lon="-75.7977577"><ele>26.0</ele><time>2026-04-18T12:40:56.696Z</time></trkpt><trkpt lat="9.3203784" lon="-75.7977192"><ele>26.0</ele><time>2026-04-18T12:40:57.695Z</time></trkpt><trkpt lat="9.3204488" lon="-75.797682"><ele>25.999999999999996</ele><time>2026-04-18T12:40:58.695Z</time></trkpt><trkpt lat="9.3205193" lon="-75.7976423"><ele>26.0</ele><time>2026-04-18T12:40:59.695Z</time></trkpt><trkpt lat="9.3205905" lon="-75.7976059"><ele>26.333333333333332</ele><time>2026-04-18T12:41:00.693Z</time></trkpt><trkpt lat="9.3206609" lon="-75.79757"><ele>26.666666666666664</ele><time>2026-04-18T12:41:01.695Z</time></trkpt><trkpt lat="9.3207278" lon="-75.7975368"><ele>27.0</ele><time>2026-04-18T12:41:02.695Z</time></trkpt><trkpt lat="9.3207979" lon="-75.7974992"><ele>27.333333333333336</ele><time>2026-04-18T12:41:03.695Z</time></trkpt><trkpt lat="9.3208673" lon="-75.7974607"><ele>27.666666666666668</ele><time>2026-04-18T12:41:04.695Z</time></trkpt><trkpt lat="9.3209376" lon="-75.7974261"><ele>28.0</ele><time>2026-04-18T12:41:05.695Z</time></trkpt><trkpt lat="9.321009" lon="-75.7973896"><ele>28.000000000000004</ele><time>2026-04-18T12:41:06.695Z</time></trkpt><trkpt lat="9.3210747" lon="-75.797351"><ele>28.0</ele><time>2026-04-18T12:41:07.695Z</time></trkpt><trkpt lat="9.3211406" lon="-75.7973162"><ele>28.0</ele><time>2026-04-18T12:41:08.695Z</time></trkpt><trkpt lat="9.3212113" lon="-75.7972796"><ele>28.0</ele><time>2026-04-18T12:41:09.695Z</time></trkpt><trkpt lat="9.321282" lon="-75.7972426"><ele>28.000000000000004</ele><time>2026-04-18T12:41:10.695Z</time></trkpt><trkpt lat="9.3213545" lon="-75.797208"><ele>28.0</ele><time>2026-04-18T12:41:11.695Z</time></trkpt><trkpt lat="9.3214217" lon="-75.7971714"><ele>28.666666666666668</ele><time>2026-04-18T12:41:12.695Z</time></trkpt><trkpt lat="9.3214903" lon="-75.7971371"><ele>29.333333333333336</ele><time>2026-04-18T12:41:13.695Z</time></trkpt><trkpt lat="9.3215544" lon="-75.7971014"><ele>30.0</ele><time>2026-04-18T12:41:14.695Z</time></trkpt><trkpt lat="9.3216236" lon="-75.797065"><ele>30.666666666666664</ele><time>2026-04-18T12:41:15.696Z</time></trkpt><trkpt lat="9.3216949" lon="-75.7970281"><ele>31.333333333333332</ele><time>2026-04-18T12:41:16.695Z</time></trkpt><trkpt lat="9.3217623" lon="-75.7969925"><ele>32.0</ele><time>2026-04-18T12:41:17.695Z</time></trkpt><trkpt lat="9.3218324" lon="-75.7969539"><ele>31.999999999999996</ele><time>2026-04-18T12:41:18.695Z</time></trkpt><trkpt lat="9.321901" lon="-75.7969169"><ele>32.0</ele><time>2026-04-18T12:41:19.695Z</time></trkpt><trkpt lat="9.3219715" lon="-75.7968795"><ele>32.0</ele><time>2026-04-18T12:41:20.695Z</time></trkpt><trkpt lat="9.3220362" lon="-75.7968403"><ele>32.0</ele><time>2026-04-18T12:41:21.696Z</time></trkpt><trkpt lat="9.3221042" lon="-75.7968037"><ele>31.999999999999996</ele><time>2026-04-18T12:41:22.695Z</time></trkpt><trkpt lat="9.322174" lon="-75.7967677"><ele>32.0</ele><time>2026-04-18T12:41:23.696Z</time></trkpt><trkpt lat="9.3222439" lon="-75.7967332"><ele>31.857142857142854</ele><time>2026-04-18T12:41:24.696Z</time></trkpt><trkpt lat="9.322311" lon="-75.796697"><ele>31.71428571428571</ele><time>2026-04-18T12:41:25.695Z</time></trkpt><trkpt lat="9.3223743" lon="-75.7966625"><ele>31.57142857142857</ele><time>2026-04-18T12:41:26.695Z</time></trkpt><trkpt lat="9.3224462" lon="-75.7966284"><ele>31.42857142857143</ele><time>2026-04-18T12:41:27.695Z</time></trkpt><trkpt lat="9.3225113" lon="-75.796594"><ele>31.28571428571429</ele><time>2026-04-18T12:41:28.695Z</time></trkpt><trkpt lat="9.322575" lon="-75.7965649"><ele>31.142857142857146</ele><time>2026-04-18T12:41:29.695Z</time></trkpt><trkpt lat="9.3226327" lon="-75.7965316"><ele>31.0</ele><time>2026-04-18T12:41:30.695Z</time></trkpt><trkpt lat="9.3226941" lon="-75.7964961"><ele>31.000000000000004</ele><time>2026-04-18T12:41:31.695Z</time></trkpt><trkpt lat="9.3227538" lon="-75.7964655"><ele>31.0</ele><time>2026-04-18T12:41:32.695Z</time></trkpt><trkpt lat="9.3228118" lon="-75.796434"><ele>31.0</ele><time>2026-04-18T12:41:33.694Z</time></trkpt><trkpt lat="9.3228697" lon="-75.796405"><ele>31.0</ele><time>2026-04-18T12:41:34.695Z</time></trkpt><trkpt lat="9.32293" lon="-75.7963761"><ele>31.000000000000004</ele><time>2026-04-18T12:41:35.695Z</time></trkpt><trkpt lat="9.3230395" lon="-75.7963213"><ele>31.0</ele><time>2026-04-18T12:41:37.695Z</time></trkpt><trkpt lat="9.3231489" lon="-75.7962695"><ele>31.4</ele><time>2026-04-18T12:41:39.695Z</time></trkpt><trkpt lat="9.3232546" lon="-75.7962177"><ele>31.8</ele><time>2026-04-18T12:41:41.695Z</time></trkpt><trkpt lat="9.3233523" lon="-75.7961691"><ele>32.199999999999996</ele><time>2026-04-18T12:41:43.695Z</time></trkpt><trkpt lat="9.3234458" lon="-75.7961155"><ele>32.6</ele><time>2026-04-18T12:41:45.695Z</time></trkpt><trkpt lat="9.3235382" lon="-75.7960633"><ele>33.0</ele><time>2026-04-18T12:41:47.696Z</time></trkpt><trkpt lat="9.3236261" lon="-75.7960137"><ele>34.199999999999996</ele><time>2026-04-18T12:41:49.695Z</time></trkpt><trkpt lat="9.3237114" lon="-75.7959603"><ele>35.4</ele><time>2026-04-18T12:41:51.695Z</time></trkpt><trkpt lat="9.3237921" lon="-75.7959192"><ele>36.599999999999994</ele><time>2026-04-18T12:41:53.695Z</time></trkpt><trkpt lat="9.3238838" lon="-75.7958774"><ele>37.8</ele><time>2026-04-18T12:41:55.695Z</time></trkpt><trkpt lat="9.3239688" lon="-75.795831"><ele>39.0</ele><time>2026-04-18T12:41:57.695Z</time></trkpt><trkpt lat="9.3240555" lon="-75.7957874"><ele>39.6</ele><time>2026-04-18T12:41:59.695Z</time></trkpt><trkpt lat="9.3241449" lon="-75.7957473"><ele>40.2</ele><time>2026-04-18T12:42:01.695Z</time></trkpt><trkpt lat="9.3242353" lon="-75.7957013"><ele>40.800000000000004</ele><time>2026-04-18T12:42:03.696Z</time></trkpt><trkpt lat="9.3243246" lon="-75.7956485"><ele>41.4</ele><time>2026-04-18T12:42:05.691Z</time></trkpt><trkpt lat="9.3244162" lon="-75.7956035"><ele>42.0</ele><time>2026-04-18T12:42:07.694Z</time></trkpt><trkpt lat="9.3245071" lon="-75.7955514"><ele>42.0</ele><time>2026-04-18T12:42:09.696Z</time></trkpt><trkpt lat="9.3245985" lon="-75.795505"><ele>42.0</ele><time>2026-04-18T12:42:11.696Z</time></trkpt><trkpt lat="9.3246886" lon="-75.7954557"><ele>42.0</ele><time>2026-04-18T12:42:13.695Z</time></trkpt><trkpt lat="9.3247841" lon="-75.7953989"><ele>42.0</ele><time>2026-04-18T12:42:15.694Z</time></trkpt><trkpt lat="9.3248825" lon="-75.7953512"><ele>42.0</ele><time>2026-04-18T12:42:17.695Z</time></trkpt><trkpt lat="9.3249782" lon="-75.7952909"><ele>41.8</ele><time>2026-04-18T12:42:19.695Z</time></trkpt><trkpt lat="9.3250837" lon="-75.7952339"><ele>41.6</ele><time>2026-04-18T12:42:21.696Z</time></trkpt><trkpt lat="9.3251925" lon="-75.7951725"><ele>41.4</ele><time>2026-04-18T12:42:23.692Z</time></trkpt><trkpt lat="9.3252474" lon="-75.7951404"><ele>41.199999999999996</ele><time>2026-04-18T12:42:24.696Z</time></trkpt><trkpt lat="9.3253041" lon="-75.7951088"><ele>41.0</ele><time>2026-04-18T12:42:25.694Z</time></trkpt><trkpt lat="9.3254177" lon="-75.7950497"><ele>40.99999999999999</ele><time>2026-04-18T12:42:27.692Z</time></trkpt><trkpt lat="9.3254759" lon="-75.7950165"><ele>41.0</ele><time>2026-04-18T12:42:28.696Z</time></trkpt><trkpt lat="9.3255366" lon="-75.7949811"><ele>41.0</ele><time>2026-04-18T12:42:29.695Z</time></trkpt><trkpt lat="9.3255966" lon="-75.7949473"><ele>41.0</ele><time>2026-04-18T12:42:30.696Z</time></trkpt><trkpt lat="9.3256589" lon="-75.7949167"><ele>41.0</ele><time>2026-04-18T12:42:31.695Z</time></trkpt><trkpt lat="9.325719" lon="-75.794888"><ele>40.99999999999999</ele><time>2026-04-18T12:42:32.695Z</time></trkpt><trkpt lat="9.3257809" lon="-75.7948585"><ele>41.0</ele><time>2026-04-18T12:42:33.695Z</time></trkpt><trkpt lat="9.3258517" lon="-75.7948312"><ele>40.99999999999999</ele><time>2026-04-18T12:42:34.695Z</time></trkpt><trkpt lat="9.3259189" lon="-75.7948003"><ele>41.0</ele><time>2026-04-18T12:42:35.695Z</time></trkpt><trkpt lat="9.3259817" lon="-75.7947715"><ele>41.0</ele><time>2026-04-18T12:42:36.695Z</time></trkpt><trkpt lat="9.3260486" lon="-75.7947441"><ele>41.0</ele><time>2026-04-18T12:42:37.692Z</time></trkpt><trkpt lat="9.3261206" lon="-75.7947182"><ele>41.0</ele><time>2026-04-18T12:42:38.695Z</time></trkpt><trkpt lat="9.3261905" lon="-75.7946926"><ele>40.99999999999999</ele><time>2026-04-18T12:42:39.695Z</time></trkpt><trkpt lat="9.3262561" lon="-75.7946649"><ele>41.0</ele><time>2026-04-18T12:42:40.695Z</time></trkpt><trkpt lat="9.3263233" lon="-75.7946416"><ele>41.5</ele><time>2026-04-18T12:42:41.695Z</time></trkpt><trkpt lat="9.3263948" lon="-75.7946153"><ele>42.0</ele><time>2026-04-18T12:42:42.696Z</time></trkpt><trkpt lat="9.3264654" lon="-75.7945954"><ele>42.5</ele><time>2026-04-18T12:42:43.695Z</time></trkpt><trkpt lat="9.3265407" lon="-75.7945782"><ele>43.0</ele><time>2026-04-18T12:42:44.695Z</time></trkpt><trkpt lat="9.3266114" lon="-75.7945597"><ele>43.5</ele><time>2026-04-18T12:42:45.695Z</time></trkpt><trkpt lat="9.3266877" lon="-75.7945362"><ele>44.0</ele><time>2026-04-18T12:42:46.695Z</time></trkpt><trkpt lat="9.3267669" lon="-75.7945178"><ele>44.0</ele><time>2026-04-18T12:42:47.695Z</time></trkpt><trkpt lat="9.3268434" lon="-75.7945024"><ele>44.0</ele><time>2026-04-18T12:42:48.695Z</time></trkpt><trkpt lat="9.3269189" lon="-75.7944846"><ele>44.0</ele><time>2026-04-18T12:42:49.695Z</time></trkpt><trkpt lat="9.3269948" lon="-75.7944658"><ele>44.0</ele><time>2026-04-18T12:42:50.696Z</time></trkpt><trkpt lat="9.3270673" lon="-75.7944512"><ele>44.0</ele><time>2026-04-18T12:42:51.695Z</time></trkpt><trkpt lat="9.3271442" lon="-75.7944325"><ele>44.0</ele><time>2026-04-18T12:42:52.694Z</time></trkpt><trkpt lat="9.3272192" lon="-75.7944155"><ele>42.83333333333333</ele><time>2026-04-18T12:42:53.694Z</time></trkpt><trkpt lat="9.3272936" lon="-75.794397"><ele>41.666666666666664</ele><time>2026-04-18T12:42:54.694Z</time></trkpt><trkpt lat="9.3273705" lon="-75.7943807"><ele>40.5</ele><time>2026-04-18T12:42:55.694Z</time></trkpt><trkpt lat="9.3274464" lon="-75.7943622"><ele>39.333333333333336</ele><time>2026-04-18T12:42:56.696Z</time></trkpt><trkpt lat="9.3275234" lon="-75.7943415"><ele>38.16666666666667</ele><time>2026-04-18T12:42:57.695Z</time></trkpt><trkpt lat="9.3276033" lon="-75.7943215"><ele>37.0</ele><time>2026-04-18T12:42:58.692Z</time></trkpt><trkpt lat="9.3276831" lon="-75.7943033"><ele>37.0</ele><time>2026-04-18T12:42:59.693Z</time></trkpt><trkpt lat="9.3277605" lon="-75.7942825"><ele>37.0</ele><time>2026-04-18T12:43:00.692Z</time></trkpt><trkpt lat="9.3278378" lon="-75.7942672"><ele>37.0</ele><time>2026-04-18T12:43:01.692Z</time></trkpt><trkpt lat="9.327914" lon="-75.7942511"><ele>37.0</ele><time>2026-04-18T12:43:02.694Z</time></trkpt><trkpt lat="9.3279911" lon="-75.7942317"><ele>37.0</ele><time>2026-04-18T12:43:03.694Z</time></trkpt><trkpt lat="9.3280685" lon="-75.79421"><ele>37.0</ele><time>2026-04-18T12:43:04.696Z</time></trkpt><trkpt lat="9.3281466" lon="-75.7941905"><ele>37.16666666666667</ele><time>2026-04-18T12:43:05.695Z</time></trkpt><trkpt lat="9.3282248" lon="-75.7941704"><ele>37.333333333333336</ele><time>2026-04-18T12:43:06.696Z</time></trkpt><trkpt lat="9.3283054" lon="-75.794153"><ele>37.5</ele><time>2026-04-18T12:43:07.695Z</time></trkpt><trkpt lat="9.3283816" lon="-75.7941311"><ele>37.666666666666664</ele><time>2026-04-18T12:43:08.695Z</time></trkpt><trkpt lat="9.3284591" lon="-75.7941103"><ele>37.83333333333333</ele><time>2026-04-18T12:43:09.695Z</time></trkpt><trkpt lat="9.3285372" lon="-75.7940888"><ele>38.0</ele><time>2026-04-18T12:43:10.695Z</time></trkpt><trkpt lat="9.328614" lon="-75.7940662"><ele>38.0</ele><time>2026-04-18T12:43:11.692Z</time></trkpt><trkpt lat="9.3286918" lon="-75.7940453"><ele>38.0</ele><time>2026-04-18T12:43:12.695Z</time></trkpt><trkpt lat="9.3287706" lon="-75.7940247"><ele>38.0</ele><time>2026-04-18T12:43:13.695Z</time></trkpt><trkpt lat="9.3288488" lon="-75.7940062"><ele>38.0</ele><time>2026-04-18T12:43:14.695Z</time></trkpt><trkpt lat="9.3289282" lon="-75.7939911"><ele>38.0</ele><time>2026-04-18T12:43:15.695Z</time></trkpt><trkpt lat="9.3290069" lon="-75.793973"><ele>38.0</ele><time>2026-04-18T12:43:16.695Z</time></trkpt><trkpt lat="9.329087" lon="-75.7939541"><ele>38.83333333333333</ele><time>2026-04-18T12:43:17.695Z</time></trkpt><trkpt lat="9.3291685" lon="-75.7939384"><ele>39.666666666666664</ele><time>2026-04-18T12:43:18.694Z</time></trkpt><trkpt lat="9.3292488" lon="-75.7939202"><ele>40.5</ele><time>2026-04-18T12:43:19.695Z</time></trkpt><trkpt lat="9.3293278" lon="-75.7938994"><ele>41.333333333333336</ele><time>2026-04-18T12:43:20.695Z</time></trkpt><trkpt lat="9.3294061" lon="-75.793876"><ele>42.16666666666667</ele><time>2026-04-18T12:43:21.695Z</time></trkpt><trkpt lat="9.3294849" lon="-75.7938536"><ele>43.0</ele><time>2026-04-18T12:43:22.695Z</time></trkpt><trkpt lat="9.3295662" lon="-75.7938328"><ele>43.0</ele><time>2026-04-18T12:43:23.694Z</time></trkpt><trkpt lat="9.3296464" lon="-75.7938169"><ele>43.0</ele><time>2026-04-18T12:43:24.695Z</time></trkpt><trkpt lat="9.3297284" lon="-75.793798"><ele>43.0</ele><time>2026-04-18T12:43:25.695Z</time></trkpt><trkpt lat="9.3298075" lon="-75.7937812"><ele>43.0</ele><time>2026-04-18T12:43:26.695Z</time></trkpt><trkpt lat="9.3298863" lon="-75.7937632"><ele>43.0</ele><time>2026-04-18T12:43:27.695Z</time></trkpt><trkpt lat="9.3299644" lon="-75.7937452"><ele>43.0</ele><time>2026-04-18T12:43:28.695Z</time></trkpt><trkpt lat="9.3300428" lon="-75.793728"><ele>41.833333333333336</ele><time>2026-04-18T12:43:29.695Z</time></trkpt><trkpt lat="9.3301219" lon="-75.7937069"><ele>40.66666666666667</ele><time>2026-04-18T12:43:30.695Z</time></trkpt><trkpt lat="9.3301984" lon="-75.7936822"><ele>39.5</ele><time>2026-04-18T12:43:31.695Z</time></trkpt><trkpt lat="9.3302748" lon="-75.7936608"><ele>38.333333333333336</ele><time>2026-04-18T12:43:32.695Z</time></trkpt><trkpt lat="9.3303551" lon="-75.7936384"><ele>37.166666666666664</ele><time>2026-04-18T12:43:33.696Z</time></trkpt><trkpt lat="9.3304328" lon="-75.7936188"><ele>36.0</ele><time>2026-04-18T12:43:34.695Z</time></trkpt><trkpt lat="9.3305146" lon="-75.793599"><ele>35.333333333333336</ele><time>2026-04-18T12:43:35.695Z</time></trkpt><trkpt lat="9.3305978" lon="-75.7935809"><ele>34.666666666666664</ele><time>2026-04-18T12:43:36.695Z</time></trkpt><trkpt lat="9.3306783" lon="-75.7935616"><ele>34.0</ele><time>2026-04-18T12:43:37.691Z</time></trkpt><trkpt lat="9.3307572" lon="-75.7935426"><ele>33.33333333333333</ele><time>2026-04-18T12:43:38.695Z</time></trkpt><trkpt lat="9.3308351" lon="-75.7935262"><ele>32.666666666666664</ele><time>2026-04-18T12:43:39.695Z</time></trkpt><trkpt lat="9.3309115" lon="-75.7935051"><ele>32.0</ele><time>2026-04-18T12:43:40.695Z</time></trkpt><trkpt lat="9.3309867" lon="-75.793487"><ele>31.999999999999996</ele><time>2026-04-18T12:43:41.695Z</time></trkpt><trkpt lat="9.3310609" lon="-75.7934662"><ele>32.0</ele><time>2026-04-18T12:43:42.696Z</time></trkpt><trkpt lat="9.3311367" lon="-75.7934504"><ele>32.0</ele><time>2026-04-18T12:43:43.696Z</time></trkpt><trkpt lat="9.3312118" lon="-75.7934336"><ele>32.0</ele><time>2026-04-18T12:43:44.695Z</time></trkpt><trkpt lat="9.3312847" lon="-75.793415"><ele>31.999999999999996</ele><time>2026-04-18T12:43:45.694Z</time></trkpt><trkpt lat="9.3313589" lon="-75.7934002"><ele>32.0</ele><time>2026-04-18T12:43:46.696Z</time></trkpt><trkpt lat="9.3314301" lon="-75.7933821"><ele>32.714285714285715</ele><time>2026-04-18T12:43:47.694Z</time></trkpt><trkpt lat="9.3315001" lon="-75.793366"><ele>33.42857142857142</ele><time>2026-04-18T12:43:48.696Z</time></trkpt><trkpt lat="9.3315698" lon="-75.7933497"><ele>34.14285714285714</ele><time>2026-04-18T12:43:49.695Z</time></trkpt><trkpt lat="9.3316407" lon="-75.7933338"><ele>34.857142857142854</ele><time>2026-04-18T12:43:50.695Z</time></trkpt><trkpt lat="9.331712" lon="-75.793316"><ele>35.57142857142857</ele><time>2026-04-18T12:43:51.695Z</time></trkpt><trkpt lat="9.3317801" lon="-75.7932981"><ele>36.285714285714285</ele><time>2026-04-18T12:43:52.695Z</time></trkpt><trkpt lat="9.331848" lon="-75.7932787"><ele>37.0</ele><time>2026-04-18T12:43:53.695Z</time></trkpt><trkpt lat="9.3319183" lon="-75.793261"><ele>37.0</ele><time>2026-04-18T12:43:54.696Z</time></trkpt><trkpt lat="9.3319878" lon="-75.793242"><ele>37.0</ele><time>2026-04-18T12:43:55.696Z</time></trkpt><trkpt lat="9.3320574" lon="-75.7932252"><ele>37.0</ele><time>2026-04-18T12:43:56.695Z</time></trkpt><trkpt lat="9.3321257" lon="-75.7932094"><ele>37.0</ele><time>2026-04-18T12:43:57.694Z</time></trkpt><trkpt lat="9.3321993" lon="-75.7931926"><ele>37.0</ele><time>2026-04-18T12:43:58.695Z</time></trkpt><trkpt lat="9.3322746" lon="-75.7931752"><ele>37.0</ele><time>2026-04-18T12:43:59.695Z</time></trkpt><trkpt lat="9.3323448" lon="-75.7931517"><ele>37.0</ele><time>2026-04-18T12:44:00.695Z</time></trkpt><trkpt lat="9.3324141" lon="-75.7931378"><ele>36.714285714285715</ele><time>2026-04-18T12:44:01.695Z</time></trkpt><trkpt lat="9.332488" lon="-75.7931207"><ele>36.42857142857143</ele><time>2026-04-18T12:44:02.695Z</time></trkpt><trkpt lat="9.332559" lon="-75.7931048"><ele>36.14285714285714</ele><time>2026-04-18T12:44:03.695Z</time></trkpt><trkpt lat="9.3326316" lon="-75.7930872"><ele>35.85714285714286</ele><time>2026-04-18T12:44:04.695Z</time></trkpt><trkpt lat="9.3326965" lon="-75.7930674"><ele>35.57142857142857</ele><time>2026-04-18T12:44:05.694Z</time></trkpt><trkpt lat="9.3327669" lon="-75.7930505"><ele>35.285714285714285</ele><time>2026-04-18T12:44:06.694Z</time></trkpt><trkpt lat="9.3328358" lon="-75.7930314"><ele>35.0</ele><time>2026-04-18T12:44:07.695Z</time></trkpt><trkpt lat="9.332904" lon="-75.7930167"><ele>35.0</ele><time>2026-04-18T12:44:08.695Z</time></trkpt><trkpt lat="9.3329782" lon="-75.7930056"><ele>35.0</ele><time>2026-04-18T12:44:09.695Z</time></trkpt><trkpt lat="9.3330462" lon="-75.7929878"><ele>35.0</ele><time>2026-04-18T12:44:10.695Z</time></trkpt><trkpt lat="9.3331183" lon="-75.7929719"><ele>35.0</ele><time>2026-04-18T12:44:11.693Z</time></trkpt><trkpt lat="9.3331942" lon="-75.792952"><ele>35.0</ele><time>2026-04-18T12:44:12.694Z</time></trkpt><trkpt lat="9.3332687" lon="-75.7929334"><ele>35.0</ele><time>2026-04-18T12:44:13.695Z</time></trkpt><trkpt lat="9.3333436" lon="-75.7929145"><ele>35.285714285714285</ele><time>2026-04-18T12:44:14.694Z</time></trkpt><trkpt lat="9.333413" lon="-75.7928955"><ele>35.57142857142857</ele><time>2026-04-18T12:44:15.693Z</time></trkpt><trkpt lat="9.3334864" lon="-75.7928793"><ele>35.85714285714286</ele><time>2026-04-18T12:44:16.69Z</time></trkpt><trkpt lat="9.3335585" lon="-75.7928611"><ele>36.14285714285714</ele><time>2026-04-18T12:44:17.695Z</time></trkpt><trkpt lat="9.3336304" lon="-75.7928435"><ele>36.42857142857143</ele><time>2026-04-18T12:44:18.696Z</time></trkpt><trkpt lat="9.3337054" lon="-75.7928235"><ele>36.714285714285715</ele><time>2026-04-18T12:44:19.694Z</time></trkpt><trkpt lat="9.3337781" lon="-75.792805"><ele>37.0</ele><time>2026-04-18T12:44:20.691Z</time></trkpt><trkpt lat="9.3338501" lon="-75.792786"><ele>37.0</ele><time>2026-04-18T12:44:21.693Z</time></trkpt><trkpt lat="9.3339246" lon="-75.7927658"><ele>37.0</ele><time>2026-04-18T12:44:22.694Z</time></trkpt><trkpt lat="9.3339973" lon="-75.7927461"><ele>37.0</ele><time>2026-04-18T12:44:23.695Z</time></trkpt><trkpt lat="9.3340674" lon="-75.7927274"><ele>37.0</ele><time>2026-04-18T12:44:24.695Z</time></trkpt><trkpt lat="9.3341414" lon="-75.7927099"><ele>37.0</ele><time>2026-04-18T12:44:25.695Z</time></trkpt><trkpt lat="9.3342176" lon="-75.7926915"><ele>37.0</ele><time>2026-04-18T12:44:26.696Z</time></trkpt><trkpt lat="9.3342863" lon="-75.7926648"><ele>37.142857142857146</ele><time>2026-04-18T12:44:27.696Z</time></trkpt><trkpt lat="9.3343605" lon="-75.792647"><ele>37.285714285714285</ele><time>2026-04-18T12:44:28.695Z</time></trkpt><trkpt lat="9.3344355" lon="-75.7926284"><ele>37.42857142857143</ele><time>2026-04-18T12:44:29.696Z</time></trkpt><trkpt lat="9.334507" lon="-75.7926143"><ele>37.57142857142857</ele><time>2026-04-18T12:44:30.695Z</time></trkpt><trkpt lat="9.3345784" lon="-75.7925945"><ele>37.714285714285715</ele><time>2026-04-18T12:44:31.694Z</time></trkpt><trkpt lat="9.334648" lon="-75.7925771"><ele>37.857142857142854</ele><time>2026-04-18T12:44:32.693Z</time></trkpt><trkpt lat="9.3347156" lon="-75.7925616"><ele>38.0</ele><time>2026-04-18T12:44:33.695Z</time></trkpt><trkpt lat="9.3347816" lon="-75.7925473"><ele>38.14285714285714</ele><time>2026-04-18T12:44:34.69Z</time></trkpt><trkpt lat="9.3348475" lon="-75.7925316"><ele>38.28571428571429</ele><time>2026-04-18T12:44:35.692Z</time></trkpt><trkpt lat="9.334913" lon="-75.7925157"><ele>38.42857142857143</ele><time>2026-04-18T12:44:36.695Z</time></trkpt><trkpt lat="9.3349752" lon="-75.7925027"><ele>38.57142857142857</ele><time>2026-04-18T12:44:37.691Z</time></trkpt><trkpt lat="9.335037" lon="-75.79249"><ele>38.71428571428571</ele><time>2026-04-18T12:44:38.69Z</time></trkpt><trkpt lat="9.3351006" lon="-75.7924747"><ele>38.85714285714286</ele><time>2026-04-18T12:44:39.694Z</time></trkpt><trkpt lat="9.3351632" lon="-75.7924623"><ele>39.0</ele><time>2026-04-18T12:44:40.695Z</time></trkpt><trkpt lat="9.3352253" lon="-75.7924484"><ele>39.0</ele><time>2026-04-18T12:44:41.696Z</time></trkpt><trkpt lat="9.3353402" lon="-75.7924195"><ele>39.0</ele><time>2026-04-18T12:44:43.695Z</time></trkpt><trkpt lat="9.3354522" lon="-75.7923945"><ele>39.0</ele><time>2026-04-18T12:44:45.695Z</time></trkpt><trkpt lat="9.3355706" lon="-75.7923713"><ele>39.0</ele><time>2026-04-18T12:44:47.695Z</time></trkpt><trkpt lat="9.3356768" lon="-75.7923432"><ele>39.4</ele><time>2026-04-18T12:44:49.695Z</time></trkpt><trkpt lat="9.3357795" lon="-75.7923181"><ele>39.8</ele><time>2026-04-18T12:44:51.696Z</time></trkpt><trkpt lat="9.3358782" lon="-75.7922948"><ele>40.199999999999996</ele><time>2026-04-18T12:44:53.695Z</time></trkpt><trkpt lat="9.3359696" lon="-75.7922724"><ele>40.599999999999994</ele><time>2026-04-18T12:44:55.693Z</time></trkpt><trkpt lat="9.3360629" lon="-75.7922453"><ele>41.0</ele><time>2026-04-18T12:44:57.693Z</time></trkpt><trkpt lat="9.3361584" lon="-75.7922207"><ele>41.0</ele><time>2026-04-18T12:44:59.693Z</time></trkpt><trkpt lat="9.336261" lon="-75.7921998"><ele>41.0</ele><time>2026-04-18T12:45:01.695Z</time></trkpt><trkpt lat="9.3363562" lon="-75.7921702"><ele>41.0</ele><time>2026-04-18T12:45:03.695Z</time></trkpt><trkpt lat="9.3364484" lon="-75.7921412"><ele>41.0</ele><time>2026-04-18T12:45:05.696Z</time></trkpt><trkpt lat="9.3365428" lon="-75.7921175"><ele>41.0</ele><time>2026-04-18T12:45:07.695Z</time></trkpt><trkpt lat="9.3366372" lon="-75.7920962"><ele>41.8</ele><time>2026-04-18T12:45:09.694Z</time></trkpt><trkpt lat="9.3367313" lon="-75.79207"><ele>42.599999999999994</ele><time>2026-04-18T12:45:11.694Z</time></trkpt><trkpt lat="9.3368254" lon="-75.792049"><ele>43.4</ele><time>2026-04-18T12:45:13.696Z</time></trkpt><trkpt lat="9.3369234" lon="-75.7920294"><ele>44.2</ele><time>2026-04-18T12:45:15.696Z</time></trkpt><trkpt lat="9.3370236" lon="-75.7920038"><ele>45.0</ele><time>2026-04-18T12:45:17.693Z</time></trkpt><trkpt lat="9.3371213" lon="-75.7919785"><ele>45.0</ele><time>2026-04-18T12:45:19.694Z</time></trkpt><trkpt lat="9.3372183" lon="-75.7919568"><ele>45.0</ele><time>2026-04-18T12:45:21.695Z</time></trkpt><trkpt lat="9.3373097" lon="-75.7919352"><ele>45.0</ele><time>2026-04-18T12:45:23.696Z</time></trkpt><trkpt lat="9.3374028" lon="-75.7919135"><ele>45.0</ele><time>2026-04-18T12:45:25.693Z</time></trkpt><trkpt lat="9.3375001" lon="-75.7918925"><ele>45.0</ele><time>2026-04-18T12:45:27.695Z</time></trkpt><trkpt lat="9.3375971" lon="-75.7918763"><ele>45.6</ele><time>2026-04-18T12:45:29.695Z</time></trkpt><trkpt lat="9.3376945" lon="-75.7918517"><ele>46.2</ele><time>2026-04-18T12:45:31.691Z</time></trkpt><trkpt lat="9.3377884" lon="-75.7918262"><ele>46.8</ele><time>2026-04-18T12:45:33.694Z</time></trkpt><trkpt lat="9.3378893" lon="-75.7917992"><ele>47.4</ele><time>2026-04-18T12:45:35.692Z</time></trkpt><trkpt lat="9.3379957" lon="-75.7917752"><ele>48.0</ele><time>2026-04-18T12:45:37.69Z</time></trkpt><trkpt lat="9.3381042" lon="-75.7917533"><ele>49.8</ele><time>2026-04-18T12:45:39.695Z</time></trkpt><trkpt lat="9.3382138" lon="-75.7917261"><ele>51.599999999999994</ele><time>2026-04-18T12:45:41.695Z</time></trkpt><trkpt lat="9.3383234" lon="-75.7916995"><ele>53.400000000000006</ele><time>2026-04-18T12:45:43.695Z</time></trkpt><trkpt lat="9.3384288" lon="-75.7916771"><ele>55.2</ele><time>2026-04-18T12:45:45.696Z</time></trkpt><trkpt lat="9.3385326" lon="-75.7916534"><ele>57.0</ele><time>2026-04-18T12:45:47.694Z</time></trkpt><trkpt lat="9.3386381" lon="-75.7916249"><ele>57.0</ele><time>2026-04-18T12:45:49.695Z</time></trkpt><trkpt lat="9.3387631" lon="-75.7915928"><ele>57.0</ele><time>2026-04-18T12:45:51.695Z</time></trkpt><trkpt lat="9.3388311" lon="-75.7915808"><ele>57.0</ele><time>2026-04-18T12:45:52.695Z</time></trkpt><trkpt lat="9.3388968" lon="-75.7915665"><ele>57.0</ele><time>2026-04-18T12:45:53.695Z</time></trkpt><trkpt lat="9.3389633" lon="-75.7915475"><ele>57.0</ele><time>2026-04-18T12:45:54.695Z</time></trkpt><trkpt lat="9.3390319" lon="-75.7915266"><ele>57.0</ele><time>2026-04-18T12:45:55.695Z</time></trkpt><trkpt lat="9.3391011" lon="-75.791509"><ele>56.333333333333336</ele><time>2026-04-18T12:45:56.692Z</time></trkpt><trkpt lat="9.3391726" lon="-75.7914926"><ele>55.66666666666667</ele><time>2026-04-18T12:45:57.695Z</time></trkpt><trkpt lat="9.3392466" lon="-75.7914751"><ele>55.0</ele><time>2026-04-18T12:45:58.694Z</time></trkpt><trkpt lat="9.3393223" lon="-75.7914575"><ele>54.333333333333336</ele><time>2026-04-18T12:45:59.69Z</time></trkpt><trkpt lat="9.3393994" lon="-75.7914384"><ele>53.66666666666667</ele><time>2026-04-18T12:46:00.695Z</time></trkpt><trkpt lat="9.3394788" lon="-75.7914196"><ele>53.0</ele><time>2026-04-18T12:46:01.694Z</time></trkpt><trkpt lat="9.339558" lon="-75.791398"><ele>53.00000000000001</ele><time>2026-04-18T12:46:02.694Z</time></trkpt><trkpt lat="9.3396342" lon="-75.7913774"><ele>53.0</ele><time>2026-04-18T12:46:03.694Z</time></trkpt><trkpt lat="9.3397114" lon="-75.791357"><ele>53.0</ele><time>2026-04-18T12:46:04.696Z</time></trkpt><trkpt lat="9.3397892" lon="-75.7913377"><ele>53.0</ele><time>2026-04-18T12:46:05.695Z</time></trkpt><trkpt lat="9.3398687" lon="-75.7913164"><ele>53.00000000000001</ele><time>2026-04-18T12:46:06.696Z</time></trkpt><trkpt lat="9.3399498" lon="-75.791296"><ele>53.0</ele><time>2026-04-18T12:46:07.695Z</time></trkpt><trkpt lat="9.3400295" lon="-75.7912778"><ele>52.333333333333336</ele><time>2026-04-18T12:46:08.695Z</time></trkpt><trkpt lat="9.3401082" lon="-75.7912541"><ele>51.66666666666667</ele><time>2026-04-18T12:46:09.696Z</time></trkpt><trkpt lat="9.3401859" lon="-75.7912333"><ele>51.0</ele><time>2026-04-18T12:46:10.696Z</time></trkpt><trkpt lat="9.3402674" lon="-75.7912176"><ele>50.33333333333333</ele><time>2026-04-18T12:46:11.695Z</time></trkpt><trkpt lat="9.3403498" lon="-75.7911986"><ele>49.666666666666664</ele><time>2026-04-18T12:46:12.695Z</time></trkpt><trkpt lat="9.3404356" lon="-75.7911782"><ele>49.0</ele><time>2026-04-18T12:46:13.695Z</time></trkpt><trkpt lat="9.3405201" lon="-75.7911583"><ele>48.400000000000006</ele><time>2026-04-18T12:46:14.695Z</time></trkpt><trkpt lat="9.3406029" lon="-75.7911367"><ele>47.8</ele><time>2026-04-18T12:46:15.695Z</time></trkpt><trkpt lat="9.3406897" lon="-75.7911137"><ele>47.2</ele><time>2026-04-18T12:46:16.696Z</time></trkpt><trkpt lat="9.340779" lon="-75.7910935"><ele>46.599999999999994</ele><time>2026-04-18T12:46:17.694Z</time></trkpt><trkpt lat="9.340869" lon="-75.7910715"><ele>46.0</ele><time>2026-04-18T12:46:18.695Z</time></trkpt><trkpt lat="9.3409569" lon="-75.791047"><ele>46.0</ele><time>2026-04-18T12:46:19.695Z</time></trkpt><trkpt lat="9.3410418" lon="-75.7910263"><ele>46.0</ele><time>2026-04-18T12:46:20.692Z</time></trkpt><trkpt lat="9.3411288" lon="-75.7910005"><ele>46.0</ele><time>2026-04-18T12:46:21.693Z</time></trkpt><trkpt lat="9.3412135" lon="-75.7909764"><ele>46.0</ele><time>2026-04-18T12:46:22.695Z</time></trkpt><trkpt lat="9.3413047" lon="-75.7909536"><ele>46.0</ele><time>2026-04-18T12:46:23.693Z</time></trkpt><trkpt lat="9.3413912" lon="-75.7909297"><ele>45.66666666666667</ele><time>2026-04-18T12:46:24.693Z</time></trkpt><trkpt lat="9.3414758" lon="-75.7909071"><ele>45.333333333333336</ele><time>2026-04-18T12:46:25.693Z</time></trkpt><trkpt lat="9.3415612" lon="-75.7908838"><ele>45.0</ele><time>2026-04-18T12:46:26.695Z</time></trkpt><trkpt lat="9.3416452" lon="-75.7908648"><ele>44.666666666666664</ele><time>2026-04-18T12:46:27.691Z</time></trkpt><trkpt lat="9.3417314" lon="-75.7908418"><ele>44.33333333333333</ele><time>2026-04-18T12:46:28.695Z</time></trkpt><trkpt lat="9.3418155" lon="-75.790821"><ele>44.0</ele><time>2026-04-18T12:46:29.695Z</time></trkpt><trkpt lat="9.3418977" lon="-75.7907977"><ele>44.0</ele><time>2026-04-18T12:46:30.694Z</time></trkpt><trkpt lat="9.3419817" lon="-75.7907761"><ele>44.0</ele><time>2026-04-18T12:46:31.695Z</time></trkpt><trkpt lat="9.342067" lon="-75.7907531"><ele>44.0</ele><time>2026-04-18T12:46:32.695Z</time></trkpt><trkpt lat="9.3421476" lon="-75.7907326"><ele>44.0</ele><time>2026-04-18T12:46:33.695Z</time></trkpt><trkpt lat="9.3422311" lon="-75.790714"><ele>44.0</ele><time>2026-04-18T12:46:34.694Z</time></trkpt><trkpt lat="9.3423166" lon="-75.7906927"><ele>44.0</ele><time>2026-04-18T12:46:35.695Z</time></trkpt><trkpt lat="9.3424013" lon="-75.7906699"><ele>45.166666666666664</ele><time>2026-04-18T12:46:36.696Z</time></trkpt><trkpt lat="9.3424864" lon="-75.7906496"><ele>46.33333333333333</ele><time>2026-04-18T12:46:37.69Z</time></trkpt><trkpt lat="9.3425717" lon="-75.7906273"><ele>47.5</ele><time>2026-04-18T12:46:38.689Z</time></trkpt><trkpt lat="9.3426589" lon="-75.7906029"><ele>48.666666666666664</ele><time>2026-04-18T12:46:39.692Z</time></trkpt><trkpt lat="9.3427455" lon="-75.7905797"><ele>49.833333333333336</ele><time>2026-04-18T12:46:40.694Z</time></trkpt><trkpt lat="9.3428333" lon="-75.7905577"><ele>51.0</ele><time>2026-04-18T12:46:41.694Z</time></trkpt><trkpt lat="9.3429227" lon="-75.7905333"><ele>51.0</ele><time>2026-04-18T12:46:42.693Z</time></trkpt><trkpt lat="9.343014" lon="-75.7905107"><ele>51.0</ele><time>2026-04-18T12:46:43.695Z</time></trkpt><trkpt lat="9.3430996" lon="-75.7904928"><ele>51.0</ele><time>2026-04-18T12:46:44.696Z</time></trkpt><trkpt lat="9.343192" lon="-75.7904714"><ele>51.0</ele><time>2026-04-18T12:46:45.696Z</time></trkpt><trkpt lat="9.3432855" lon="-75.7904522"><ele>51.0</ele><time>2026-04-18T12:46:46.692Z</time></trkpt><trkpt lat="9.3433772" lon="-75.7904326"><ele>50.8</ele><time>2026-04-18T12:46:47.691Z</time></trkpt><trkpt lat="9.3434711" lon="-75.7904083"><ele>50.599999999999994</ele><time>2026-04-18T12:46:48.692Z</time></trkpt><trkpt lat="9.343564" lon="-75.7903882"><ele>50.4</ele><time>2026-04-18T12:46:49.695Z</time></trkpt><trkpt lat="9.3436538" lon="-75.7903642"><ele>50.2</ele><time>2026-04-18T12:46:50.695Z</time></trkpt><trkpt lat="9.3437449" lon="-75.7903383"><ele>50.0</ele><time>2026-04-18T12:46:51.69Z</time></trkpt><trkpt lat="9.343838" lon="-75.7903162"><ele>49.2</ele><time>2026-04-18T12:46:52.695Z</time></trkpt><trkpt lat="9.3439286" lon="-75.7902949"><ele>48.4</ele><time>2026-04-18T12:46:53.69Z</time></trkpt><trkpt lat="9.3440172" lon="-75.790272"><ele>47.599999999999994</ele><time>2026-04-18T12:46:54.694Z</time></trkpt><trkpt lat="9.3441067" lon="-75.7902488"><ele>46.8</ele><time>2026-04-18T12:46:55.694Z</time></trkpt><trkpt lat="9.3441986" lon="-75.790224"><ele>46.0</ele><time>2026-04-18T12:46:56.694Z</time></trkpt><trkpt lat="9.3442941" lon="-75.7902031"><ele>46.0</ele><time>2026-04-18T12:46:57.695Z</time></trkpt><trkpt lat="9.3443917" lon="-75.7901793"><ele>46.0</ele><time>2026-04-18T12:46:58.694Z</time></trkpt><trkpt lat="9.3444874" lon="-75.7901496"><ele>46.0</ele><time>2026-04-18T12:46:59.694Z</time></trkpt><trkpt lat="9.3445856" lon="-75.7901231"><ele>46.0</ele><time>2026-04-18T12:47:00.694Z</time></trkpt><trkpt lat="9.3446842" lon="-75.7900931"><ele>46.0</ele><time>2026-04-18T12:47:01.694Z</time></trkpt><trkpt lat="9.3447814" lon="-75.7900643"><ele>44.8</ele><time>2026-04-18T12:47:02.693Z</time></trkpt><trkpt lat="9.3448749" lon="-75.7900305"><ele>43.599999999999994</ele><time>2026-04-18T12:47:03.695Z</time></trkpt><trkpt lat="9.3449704" lon="-75.7899965"><ele>42.4</ele><time>2026-04-18T12:47:04.695Z</time></trkpt><trkpt lat="9.3450648" lon="-75.7899595"><ele>41.2</ele><time>2026-04-18T12:47:05.694Z</time></trkpt><trkpt lat="9.3451589" lon="-75.7899221"><ele>40.0</ele><time>2026-04-18T12:47:06.695Z</time></trkpt><trkpt lat="9.3452527" lon="-75.7898814"><ele>40.0</ele><time>2026-04-18T12:47:07.693Z</time></trkpt><trkpt lat="9.3453429" lon="-75.7898396"><ele>40.0</ele><time>2026-04-18T12:47:08.695Z</time></trkpt><trkpt lat="9.3454369" lon="-75.7897988"><ele>40.0</ele><time>2026-04-18T12:47:09.695Z</time></trkpt><trkpt lat="9.3455316" lon="-75.7897527"><ele>40.0</ele><time>2026-04-18T12:47:10.695Z</time></trkpt><trkpt lat="9.3456238" lon="-75.7897026"><ele>40.0</ele><time>2026-04-18T12:47:11.695Z</time></trkpt><trkpt lat="9.3457147" lon="-75.7896528"><ele>39.6</ele><time>2026-04-18T12:47:12.694Z</time></trkpt><trkpt lat="9.3458042" lon="-75.7895961"><ele>39.2</ele><time>2026-04-18T12:47:13.695Z</time></trkpt><trkpt lat="9.3458981" lon="-75.7895392"><ele>38.8</ele><time>2026-04-18T12:47:14.695Z</time></trkpt><trkpt lat="9.3459905" lon="-75.7894833"><ele>38.4</ele><time>2026-04-18T12:47:15.696Z</time></trkpt><trkpt lat="9.3460829" lon="-75.7894221"><ele>38.0</ele><time>2026-04-18T12:47:16.695Z</time></trkpt><trkpt lat="9.3461714" lon="-75.7893595"><ele>38.199999999999996</ele><time>2026-04-18T12:47:17.695Z</time></trkpt><trkpt lat="9.3462578" lon="-75.7892939"><ele>38.4</ele><time>2026-04-18T12:47:18.695Z</time></trkpt><trkpt lat="9.3463435" lon="-75.7892264"><ele>38.599999999999994</ele><time>2026-04-18T12:47:19.69Z</time></trkpt><trkpt lat="9.346427" lon="-75.7891602"><ele>38.8</ele><time>2026-04-18T12:47:20.695Z</time></trkpt><trkpt lat="9.3465077" lon="-75.7890908"><ele>39.0</ele><time>2026-04-18T12:47:21.693Z</time></trkpt><trkpt lat="9.3465861" lon="-75.7890165"><ele>39.0</ele><time>2026-04-18T12:47:22.695Z</time></trkpt><trkpt lat="9.3466621" lon="-75.78894"><ele>39.0</ele><time>2026-04-18T12:47:23.693Z</time></trkpt><trkpt lat="9.3467392" lon="-75.7888643"><ele>39.0</ele><time>2026-04-18T12:47:24.695Z</time></trkpt><trkpt lat="9.3468166" lon="-75.7887913"><ele>39.0</ele><time>2026-04-18T12:47:25.691Z</time></trkpt><trkpt lat="9.3468954" lon="-75.7887143"><ele>39.0</ele><time>2026-04-18T12:47:26.692Z</time></trkpt><trkpt lat="9.3469759" lon="-75.7886354"><ele>39.0</ele><time>2026-04-18T12:47:27.693Z</time></trkpt><trkpt lat="9.3470563" lon="-75.7885624"><ele>39.0</ele><time>2026-04-18T12:47:28.693Z</time></trkpt><trkpt lat="9.3471359" lon="-75.7884881"><ele>39.0</ele><time>2026-04-18T12:47:29.694Z</time></trkpt><trkpt lat="9.3472155" lon="-75.7884144"><ele>39.0</ele><time>2026-04-18T12:47:30.69Z</time></trkpt><trkpt lat="9.3472909" lon="-75.7883389"><ele>39.0</ele><time>2026-04-18T12:47:31.69Z</time></trkpt><trkpt lat="9.3473671" lon="-75.7882683"><ele>37.8</ele><time>2026-04-18T12:47:32.694Z</time></trkpt><trkpt lat="9.3474401" lon="-75.7881961"><ele>36.599999999999994</ele><time>2026-04-18T12:47:33.69Z</time></trkpt><trkpt lat="9.3475135" lon="-75.7881254"><ele>35.4</ele><time>2026-04-18T12:47:34.692Z</time></trkpt><trkpt lat="9.3475862" lon="-75.7880496"><ele>34.199999999999996</ele><time>2026-04-18T12:47:35.695Z</time></trkpt><trkpt lat="9.3476645" lon="-75.7879749"><ele>33.0</ele><time>2026-04-18T12:47:36.692Z</time></trkpt><trkpt lat="9.3477403" lon="-75.7878973"><ele>33.0</ele><time>2026-04-18T12:47:37.694Z</time></trkpt><trkpt lat="9.3478159" lon="-75.7878203"><ele>33.0</ele><time>2026-04-18T12:47:38.695Z</time></trkpt><trkpt lat="9.347894" lon="-75.7877473"><ele>33.0</ele><time>2026-04-18T12:47:39.695Z</time></trkpt><trkpt lat="9.3479745" lon="-75.7876742"><ele>33.0</ele><time>2026-04-18T12:47:40.695Z</time></trkpt><trkpt lat="9.3480519" lon="-75.7876013"><ele>33.0</ele><time>2026-04-18T12:47:41.695Z</time></trkpt><trkpt lat="9.3481287" lon="-75.7875271"><ele>32.0</ele><time>2026-04-18T12:47:42.694Z</time></trkpt><trkpt lat="9.3482064" lon="-75.7874596"><ele>30.999999999999996</ele><time>2026-04-18T12:47:43.695Z</time></trkpt><trkpt lat="9.3482794" lon="-75.7873859"><ele>29.999999999999996</ele><time>2026-04-18T12:47:44.695Z</time></trkpt><trkpt lat="9.348357" lon="-75.7873122"><ele>29.0</ele><time>2026-04-18T12:47:45.695Z</time></trkpt><trkpt lat="9.3484371" lon="-75.7872408"><ele>28.0</ele><time>2026-04-18T12:47:46.695Z</time></trkpt><trkpt lat="9.348514" lon="-75.7871651"><ele>28.0</ele><time>2026-04-18T12:47:47.695Z</time></trkpt><trkpt lat="9.3485894" lon="-75.7870897"><ele>27.999999999999996</ele><time>2026-04-18T12:47:48.694Z</time></trkpt><trkpt lat="9.3486642" lon="-75.7870136"><ele>27.999999999999996</ele><time>2026-04-18T12:47:49.695Z</time></trkpt><trkpt lat="9.3487445" lon="-75.7869401"><ele>28.0</ele><time>2026-04-18T12:47:50.695Z</time></trkpt><trkpt lat="9.3488243" lon="-75.7868669"><ele>28.0</ele><time>2026-04-18T12:47:51.695Z</time></trkpt><trkpt lat="9.3489042" lon="-75.7867886"><ele>28.0</ele><time>2026-04-18T12:47:52.695Z</time></trkpt><trkpt lat="9.3489811" lon="-75.7867121"><ele>27.999999999999996</ele><time>2026-04-18T12:47:53.695Z</time></trkpt><trkpt lat="9.3490632" lon="-75.7866344"><ele>27.999999999999996</ele><time>2026-04-18T12:47:54.695Z</time></trkpt><trkpt lat="9.349142" lon="-75.7865612"><ele>28.0</ele><time>2026-04-18T12:47:55.694Z</time></trkpt><trkpt lat="9.3492206" lon="-75.7864857"><ele>28.0</ele><time>2026-04-18T12:47:56.696Z</time></trkpt><trkpt lat="9.3492994" lon="-75.7864126"><ele>28.0</ele><time>2026-04-18T12:47:57.696Z</time></trkpt><trkpt lat="9.3493787" lon="-75.7863362"><ele>27.999999999999996</ele><time>2026-04-18T12:47:58.692Z</time></trkpt><trkpt lat="9.3494605" lon="-75.7862536"><ele>27.999999999999996</ele><time>2026-04-18T12:47:59.694Z</time></trkpt><trkpt lat="9.349539" lon="-75.7861763"><ele>28.0</ele><time>2026-04-18T12:48:00.693Z</time></trkpt><trkpt lat="9.3496137" lon="-75.7861005"><ele>28.0</ele><time>2026-04-18T12:48:01.692Z</time></trkpt><trkpt lat="9.3496916" lon="-75.78602"><ele>28.0</ele><time>2026-04-18T12:48:02.694Z</time></trkpt><trkpt lat="9.3497698" lon="-75.785943"><ele>27.999999999999996</ele><time>2026-04-18T12:48:03.695Z</time></trkpt><trkpt lat="9.349848" lon="-75.7858707"><ele>27.999999999999996</ele><time>2026-04-18T12:48:04.692Z</time></trkpt><trkpt lat="9.3499281" lon="-75.7857944"><ele>28.0</ele><time>2026-04-18T12:48:05.695Z</time></trkpt><trkpt lat="9.3500063" lon="-75.785716"><ele>28.0</ele><time>2026-04-18T12:48:06.695Z</time></trkpt><trkpt lat="9.3500828" lon="-75.7856398"><ele>28.0</ele><time>2026-04-18T12:48:07.695Z</time></trkpt><trkpt lat="9.3501617" lon="-75.785563"><ele>27.999999999999996</ele><time>2026-04-18T12:48:08.695Z</time></trkpt><trkpt lat="9.3502432" lon="-75.7854893"><ele>27.999999999999996</ele><time>2026-04-18T12:48:09.695Z</time></trkpt><trkpt lat="9.3503231" lon="-75.7854152"><ele>28.0</ele><time>2026-04-18T12:48:10.695Z</time></trkpt><trkpt lat="9.3504003" lon="-75.7853375"><ele>28.0</ele><time>2026-04-18T12:48:11.695Z</time></trkpt><trkpt lat="9.3504757" lon="-75.7852592"><ele>27.0</ele><time>2026-04-18T12:48:12.696Z</time></trkpt><trkpt lat="9.3505553" lon="-75.7851815"><ele>25.999999999999996</ele><time>2026-04-18T12:48:13.695Z</time></trkpt><trkpt lat="9.3506395" lon="-75.7851031"><ele>25.0</ele><time>2026-04-18T12:48:14.695Z</time></trkpt><trkpt lat="9.3507204" lon="-75.7850212"><ele>24.0</ele><time>2026-04-18T12:48:15.694Z</time></trkpt><trkpt lat="9.3507992" lon="-75.7849434"><ele>23.0</ele><time>2026-04-18T12:48:16.694Z</time></trkpt><trkpt lat="9.3508822" lon="-75.7848591"><ele>22.75</ele><time>2026-04-18T12:48:17.693Z</time></trkpt><trkpt lat="9.3509668" lon="-75.7847795"><ele>22.5</ele><time>2026-04-18T12:48:18.695Z</time></trkpt><trkpt lat="9.3510537" lon="-75.7846992"><ele>22.25</ele><time>2026-04-18T12:48:19.693Z</time></trkpt><trkpt lat="9.3511408" lon="-75.7846189"><ele>22.0</ele><time>2026-04-18T12:48:20.693Z</time></trkpt><trkpt lat="9.3512267" lon="-75.7845368"><ele>22.0</ele><time>2026-04-18T12:48:21.694Z</time></trkpt><trkpt lat="9.3513113" lon="-75.7844484"><ele>22.0</ele><time>2026-04-18T12:48:22.695Z</time></trkpt><trkpt lat="9.3514007" lon="-75.7843668"><ele>22.0</ele><time>2026-04-18T12:48:23.692Z</time></trkpt><trkpt lat="9.3514848" lon="-75.7842838"><ele>22.0</ele><time>2026-04-18T12:48:24.691Z</time></trkpt><trkpt lat="9.3515679" lon="-75.7842035"><ele>21.25</ele><time>2026-04-18T12:48:25.69Z</time></trkpt><trkpt lat="9.3516503" lon="-75.7841229"><ele>20.5</ele><time>2026-04-18T12:48:26.694Z</time></trkpt><trkpt lat="9.351736" lon="-75.7840374"><ele>19.75</ele><time>2026-04-18T12:48:27.694Z</time></trkpt><trkpt lat="9.3518123" lon="-75.7839605"><ele>19.0</ele><time>2026-04-18T12:48:28.694Z</time></trkpt><trkpt lat="9.3518927" lon="-75.7838883"><ele>19.0</ele><time>2026-04-18T12:48:29.691Z</time></trkpt><trkpt lat="9.3519681" lon="-75.7838139"><ele>19.0</ele><time>2026-04-18T12:48:30.693Z</time></trkpt><trkpt lat="9.3520435" lon="-75.7837423"><ele>19.0</ele><time>2026-04-18T12:48:31.692Z</time></trkpt><trkpt lat="9.3521179" lon="-75.783667"><ele>19.0</ele><time>2026-04-18T12:48:32.694Z</time></trkpt><trkpt lat="9.3521927" lon="-75.7835929"><ele>19.0</ele><time>2026-04-18T12:48:33.693Z</time></trkpt><trkpt lat="9.3522634" lon="-75.7835234"><ele>19.6</ele><time>2026-04-18T12:48:34.694Z</time></trkpt><trkpt lat="9.3523339" lon="-75.7834601"><ele>20.2</ele><time>2026-04-18T12:48:35.691Z</time></trkpt><trkpt lat="9.352402" lon="-75.783394"><ele>20.8</ele><time>2026-04-18T12:48:36.689Z</time></trkpt><trkpt lat="9.3524647" lon="-75.7833236"><ele>21.400000000000002</ele><time>2026-04-18T12:48:37.695Z</time></trkpt><trkpt lat="9.3525346" lon="-75.7832598"><ele>22.0</ele><time>2026-04-18T12:48:38.695Z</time></trkpt><trkpt lat="9.3526002" lon="-75.7831976"><ele>22.0</ele><time>2026-04-18T12:48:39.695Z</time></trkpt><trkpt lat="9.3526654" lon="-75.7831348"><ele>22.0</ele><time>2026-04-18T12:48:40.695Z</time></trkpt><trkpt lat="9.3527293" lon="-75.7830734"><ele>22.0</ele><time>2026-04-18T12:48:41.691Z</time></trkpt><trkpt lat="9.3527969" lon="-75.783013"><ele>22.0</ele><time>2026-04-18T12:48:42.693Z</time></trkpt><trkpt lat="9.3528624" lon="-75.7829539"><ele>22.0</ele><time>2026-04-18T12:48:43.695Z</time></trkpt><trkpt lat="9.3529261" lon="-75.7828972"><ele>22.0</ele><time>2026-04-18T12:48:44.692Z</time></trkpt><trkpt lat="9.35299" lon="-75.7828365"><ele>21.5</ele><time>2026-04-18T12:48:45.694Z</time></trkpt><trkpt lat="9.3530534" lon="-75.7827745"><ele>21.0</ele><time>2026-04-18T12:48:46.694Z</time></trkpt><trkpt lat="9.3531175" lon="-75.7827178"><ele>20.5</ele><time>2026-04-18T12:48:47.693Z</time></trkpt><trkpt lat="9.3531797" lon="-75.7826599"><ele>20.0</ele><time>2026-04-18T12:48:48.694Z</time></trkpt><trkpt lat="9.3532418" lon="-75.7825998"><ele>19.5</ele><time>2026-04-18T12:48:49.694Z</time></trkpt><trkpt lat="9.3533047" lon="-75.7825404"><ele>19.0</ele><time>2026-04-18T12:48:50.695Z</time></trkpt><trkpt lat="9.3533687" lon="-75.7824817"><ele>19.0</ele><time>2026-04-18T12:48:51.696Z</time></trkpt><trkpt lat="9.3534295" lon="-75.7824252"><ele>19.0</ele><time>2026-04-18T12:48:52.695Z</time></trkpt><trkpt lat="9.3534882" lon="-75.782368"><ele>19.0</ele><time>2026-04-18T12:48:53.694Z</time></trkpt><trkpt lat="9.3535489" lon="-75.7823097"><ele>19.0</ele><time>2026-04-18T12:48:54.692Z</time></trkpt><trkpt lat="9.3536055" lon="-75.7822513"><ele>19.0</ele><time>2026-04-18T12:48:55.693Z</time></trkpt><trkpt lat="9.3536638" lon="-75.78219"><ele>19.0</ele><time>2026-04-18T12:48:56.693Z</time></trkpt><trkpt lat="9.3537254" lon="-75.7821314"><ele>19.0</ele><time>2026-04-18T12:48:57.691Z</time></trkpt><trkpt lat="9.3537833" lon="-75.7820739"><ele>19.0</ele><time>2026-04-18T12:48:58.695Z</time></trkpt><trkpt lat="9.3538432" lon="-75.7820159"><ele>19.0</ele><time>2026-04-18T12:48:59.695Z</time></trkpt><trkpt lat="9.3539036" lon="-75.78196"><ele>19.0</ele><time>2026-04-18T12:49:00.696Z</time></trkpt><trkpt lat="9.3539605" lon="-75.7819054"><ele>19.0</ele><time>2026-04-18T12:49:01.695Z</time></trkpt><trkpt lat="9.3540212" lon="-75.7818482"><ele>19.0</ele><time>2026-04-18T12:49:02.692Z</time></trkpt><trkpt lat="9.35408" lon="-75.7817914"><ele>20.166666666666664</ele><time>2026-04-18T12:49:03.695Z</time></trkpt><trkpt lat="9.3541379" lon="-75.7817321"><ele>21.333333333333332</ele><time>2026-04-18T12:49:04.695Z</time></trkpt><trkpt lat="9.3541987" lon="-75.7816727"><ele>22.5</ele><time>2026-04-18T12:49:05.696Z</time></trkpt><trkpt lat="9.3542601" lon="-75.7816148"><ele>23.666666666666664</ele><time>2026-04-18T12:49:06.695Z</time></trkpt><trkpt lat="9.3543224" lon="-75.7815562"><ele>24.833333333333332</ele><time>2026-04-18T12:49:07.694Z</time></trkpt><trkpt lat="9.354382" lon="-75.7814975"><ele>26.0</ele><time>2026-04-18T12:49:08.692Z</time></trkpt><trkpt lat="9.3544443" lon="-75.7814401"><ele>25.999999999999996</ele><time>2026-04-18T12:49:09.695Z</time></trkpt><trkpt lat="9.3545049" lon="-75.7813805"><ele>26.0</ele><time>2026-04-18T12:49:10.694Z</time></trkpt><trkpt lat="9.3545663" lon="-75.781323"><ele>26.0</ele><time>2026-04-18T12:49:11.695Z</time></trkpt><trkpt lat="9.3546298" lon="-75.781261"><ele>26.0</ele><time>2026-04-18T12:49:12.692Z</time></trkpt><trkpt lat="9.354692" lon="-75.7812023"><ele>25.999999999999996</ele><time>2026-04-18T12:49:13.695Z</time></trkpt><trkpt lat="9.3547541" lon="-75.7811432"><ele>26.0</ele><time>2026-04-18T12:49:14.694Z</time></trkpt><trkpt lat="9.3548187" lon="-75.7810817"><ele>25.833333333333332</ele><time>2026-04-18T12:49:15.695Z</time></trkpt><trkpt lat="9.3548822" lon="-75.7810207"><ele>25.666666666666664</ele><time>2026-04-18T12:49:16.692Z</time></trkpt><trkpt lat="9.3549451" lon="-75.7809603"><ele>25.5</ele><time>2026-04-18T12:49:17.695Z</time></trkpt><trkpt lat="9.3550076" lon="-75.780898"><ele>25.333333333333336</ele><time>2026-04-18T12:49:18.696Z</time></trkpt><trkpt lat="9.3550738" lon="-75.7808355"><ele>25.166666666666668</ele><time>2026-04-18T12:49:19.694Z</time></trkpt><trkpt lat="9.3551411" lon="-75.780777"><ele>25.0</ele><time>2026-04-18T12:49:20.694Z</time></trkpt><trkpt lat="9.3552064" lon="-75.7807147"><ele>25.000000000000004</ele><time>2026-04-18T12:49:21.692Z</time></trkpt><trkpt lat="9.3552696" lon="-75.7806533"><ele>25.0</ele><time>2026-04-18T12:49:22.695Z</time></trkpt><trkpt lat="9.3553348" lon="-75.7805904"><ele>25.0</ele><time>2026-04-18T12:49:23.691Z</time></trkpt><trkpt lat="9.3553998" lon="-75.7805301"><ele>25.0</ele><time>2026-04-18T12:49:24.695Z</time></trkpt><trkpt lat="9.355467" lon="-75.7804672"><ele>25.000000000000004</ele><time>2026-04-18T12:49:25.695Z</time></trkpt><trkpt lat="9.3555301" lon="-75.780403"><ele>25.0</ele><time>2026-04-18T12:49:26.693Z</time></trkpt><trkpt lat="9.3555949" lon="-75.7803386"><ele>24.4</ele><time>2026-04-18T12:49:27.693Z</time></trkpt><trkpt lat="9.3556595" lon="-75.7802702"><ele>23.8</ele><time>2026-04-18T12:49:28.696Z</time></trkpt><trkpt lat="9.3557336" lon="-75.7802011"><ele>23.200000000000003</ele><time>2026-04-18T12:49:29.692Z</time></trkpt><trkpt lat="9.3558022" lon="-75.780136"><ele>22.6</ele><time>2026-04-18T12:49:30.69Z</time></trkpt><trkpt lat="9.3558715" lon="-75.7800726"><ele>22.0</ele><time>2026-04-18T12:49:31.695Z</time></trkpt><trkpt lat="9.3559371" lon="-75.7800078"><ele>22.0</ele><time>2026-04-18T12:49:32.693Z</time></trkpt><trkpt lat="9.3560043" lon="-75.7799461"><ele>22.0</ele><time>2026-04-18T12:49:33.692Z</time></trkpt><trkpt lat="9.3560729" lon="-75.7798799"><ele>22.0</ele><time>2026-04-18T12:49:34.694Z</time></trkpt><trkpt lat="9.3561401" lon="-75.7798135"><ele>22.0</ele><time>2026-04-18T12:49:35.693Z</time></trkpt><trkpt lat="9.3562066" lon="-75.7797485"><ele>22.0</ele><time>2026-04-18T12:49:36.69Z</time></trkpt><trkpt lat="9.3562779" lon="-75.7796826"><ele>22.0</ele><time>2026-04-18T12:49:37.693Z</time></trkpt><trkpt lat="9.356344" lon="-75.7796137"><ele>22.0</ele><time>2026-04-18T12:49:38.693Z</time></trkpt><trkpt lat="9.3564097" lon="-75.7795477"><ele>22.0</ele><time>2026-04-18T12:49:39.695Z</time></trkpt><trkpt lat="9.3564771" lon="-75.7794823"><ele>22.0</ele><time>2026-04-18T12:49:40.692Z</time></trkpt><trkpt lat="9.3565438" lon="-75.7794169"><ele>22.0</ele><time>2026-04-18T12:49:41.692Z</time></trkpt><trkpt lat="9.3566124" lon="-75.779354"><ele>20.8</ele><time>2026-04-18T12:49:42.688Z</time></trkpt><trkpt lat="9.3566806" lon="-75.7792839"><ele>19.6</ele><time>2026-04-18T12:49:43.689Z</time></trkpt><trkpt lat="9.3567494" lon="-75.7792201"><ele>18.400000000000002</ele><time>2026-04-18T12:49:44.695Z</time></trkpt><trkpt lat="9.3568207" lon="-75.7791555"><ele>17.200000000000003</ele><time>2026-04-18T12:49:45.693Z</time></trkpt><trkpt lat="9.3568864" lon="-75.7790892"><ele>16.0</ele><time>2026-04-18T12:49:46.693Z</time></trkpt><trkpt lat="9.3569533" lon="-75.7790257"><ele>15.999999999999998</ele><time>2026-04-18T12:49:47.692Z</time></trkpt><trkpt lat="9.3570151" lon="-75.7789669"><ele>16.0</ele><time>2026-04-18T12:49:48.69Z</time></trkpt><trkpt lat="9.3570804" lon="-75.7789035"><ele>16.0</ele><time>2026-04-18T12:49:49.695Z</time></trkpt><trkpt lat="9.3571457" lon="-75.7788425"><ele>16.0</ele><time>2026-04-18T12:49:50.692Z</time></trkpt><trkpt lat="9.3572037" lon="-75.7787818"><ele>15.999999999999998</ele><time>2026-04-18T12:49:51.692Z</time></trkpt><trkpt lat="9.3572641" lon="-75.7787227"><ele>16.0</ele><time>2026-04-18T12:49:52.693Z</time></trkpt><trkpt lat="9.3573225" lon="-75.7786627"><ele>16.166666666666664</ele><time>2026-04-18T12:49:53.692Z</time></trkpt><trkpt lat="9.3573785" lon="-75.7786069"><ele>16.333333333333332</ele><time>2026-04-18T12:49:54.692Z</time></trkpt><trkpt lat="9.3574343" lon="-75.7785494"><ele>16.5</ele><time>2026-04-18T12:49:55.693Z</time></trkpt><trkpt lat="9.3574926" lon="-75.7784934"><ele>16.666666666666668</ele><time>2026-04-18T12:49:56.695Z</time></trkpt><trkpt lat="9.3575526" lon="-75.7784389"><ele>16.833333333333336</ele><time>2026-04-18T12:49:57.691Z</time></trkpt><trkpt lat="9.3576115" lon="-75.778384"><ele>17.0</ele><time>2026-04-18T12:49:58.695Z</time></trkpt><trkpt lat="9.3576693" lon="-75.7783292"><ele>17.5</ele><time>2026-04-18T12:49:59.695Z</time></trkpt><trkpt lat="9.3577241" lon="-75.7782755"><ele>18.0</ele><time>2026-04-18T12:50:00.693Z</time></trkpt><trkpt lat="9.3577828" lon="-75.7782174"><ele>18.5</ele><time>2026-04-18T12:50:01.693Z</time></trkpt><trkpt lat="9.3578364" lon="-75.7781635"><ele>19.0</ele><time>2026-04-18T12:50:02.69Z</time></trkpt><trkpt lat="9.3578947" lon="-75.7781087"><ele>19.5</ele><time>2026-04-18T12:50:03.69Z</time></trkpt><trkpt lat="9.3579492" lon="-75.7780533"><ele>20.0</ele><time>2026-04-18T12:50:04.694Z</time></trkpt><trkpt lat="9.3580038" lon="-75.778001"><ele>19.666666666666668</ele><time>2026-04-18T12:50:05.694Z</time></trkpt><trkpt lat="9.3580616" lon="-75.777947"><ele>19.333333333333336</ele><time>2026-04-18T12:50:06.694Z</time></trkpt><trkpt lat="9.3581174" lon="-75.7778962"><ele>19.0</ele><time>2026-04-18T12:50:07.694Z</time></trkpt><trkpt lat="9.358174" lon="-75.7778416"><ele>18.666666666666668</ele><time>2026-04-18T12:50:08.695Z</time></trkpt><trkpt lat="9.3582344" lon="-75.7777821"><ele>18.333333333333332</ele><time>2026-04-18T12:50:09.693Z</time></trkpt><trkpt lat="9.3582885" lon="-75.7777295"><ele>18.0</ele><time>2026-04-18T12:50:10.692Z</time></trkpt><trkpt lat="9.3583466" lon="-75.7776763"><ele>18.666666666666668</ele><time>2026-04-18T12:50:11.695Z</time></trkpt><trkpt lat="9.3584046" lon="-75.7776228"><ele>19.333333333333332</ele><time>2026-04-18T12:50:12.693Z</time></trkpt><trkpt lat="9.3584585" lon="-75.7775711"><ele>20.0</ele><time>2026-04-18T12:50:13.694Z</time></trkpt><trkpt lat="9.3585156" lon="-75.7775196"><ele>20.666666666666664</ele><time>2026-04-18T12:50:14.692Z</time></trkpt><trkpt lat="9.3585659" lon="-75.777466"><ele>21.333333333333332</ele><time>2026-04-18T12:50:15.693Z</time></trkpt><trkpt lat="9.3586209" lon="-75.7774122"><ele>22.0</ele><time>2026-04-18T12:50:16.694Z</time></trkpt><trkpt lat="9.3586777" lon="-75.7773572"><ele>22.0</ele><time>2026-04-18T12:50:17.695Z</time></trkpt><trkpt lat="9.3587308" lon="-75.7773041"><ele>22.0</ele><time>2026-04-18T12:50:18.693Z</time></trkpt><trkpt lat="9.3587878" lon="-75.7772506"><ele>22.0</ele><time>2026-04-18T12:50:19.695Z</time></trkpt><trkpt lat="9.3588457" lon="-75.7771974"><ele>22.0</ele><time>2026-04-18T12:50:20.695Z</time></trkpt><trkpt lat="9.3588985" lon="-75.7771431"><ele>22.0</ele><time>2026-04-18T12:50:21.692Z</time></trkpt><trkpt lat="9.3589559" lon="-75.777088"><ele>22.0</ele><time>2026-04-18T12:50:22.694Z</time></trkpt><trkpt lat="9.3590108" lon="-75.7770345"><ele>22.0</ele><time>2026-04-18T12:50:23.696Z</time></trkpt><trkpt lat="9.3590682" lon="-75.7769789"><ele>22.0</ele><time>2026-04-18T12:50:24.695Z</time></trkpt><trkpt lat="9.3591258" lon="-75.7769243"><ele>22.0</ele><time>2026-04-18T12:50:25.695Z</time></trkpt><trkpt lat="9.3591832" lon="-75.7768685"><ele>22.0</ele><time>2026-04-18T12:50:26.695Z</time></trkpt><trkpt lat="9.3592379" lon="-75.7768098"><ele>22.0</ele><time>2026-04-18T12:50:27.695Z</time></trkpt><trkpt lat="9.3592943" lon="-75.7767527"><ele>22.0</ele><time>2026-04-18T12:50:28.695Z</time></trkpt><trkpt lat="9.3593546" lon="-75.7766992"><ele>22.0</ele><time>2026-04-18T12:50:29.695Z</time></trkpt><trkpt lat="9.359411" lon="-75.7766426"><ele>22.0</ele><time>2026-04-18T12:50:30.692Z</time></trkpt><trkpt lat="9.359469" lon="-75.776586"><ele>22.0</ele><time>2026-04-18T12:50:31.695Z</time></trkpt><trkpt lat="9.3595299" lon="-75.7765344"><ele>22.0</ele><time>2026-04-18T12:50:32.695Z</time></trkpt><trkpt lat="9.3595885" lon="-75.7764769"><ele>22.0</ele><time>2026-04-18T12:50:33.695Z</time></trkpt><trkpt lat="9.3596441" lon="-75.776424"><ele>22.0</ele><time>2026-04-18T12:50:34.696Z</time></trkpt><trkpt lat="9.3597025" lon="-75.7763683"><ele>22.166666666666664</ele><time>2026-04-18T12:50:35.692Z</time></trkpt><trkpt lat="9.3597625" lon="-75.7763089"><ele>22.333333333333332</ele><time>2026-04-18T12:50:36.693Z</time></trkpt><trkpt lat="9.3598193" lon="-75.7762531"><ele>22.5</ele><time>2026-04-18T12:50:37.69Z</time></trkpt><trkpt lat="9.3598761" lon="-75.7761993"><ele>22.666666666666668</ele><time>2026-04-18T12:50:38.695Z</time></trkpt><trkpt lat="9.3599323" lon="-75.7761387"><ele>22.833333333333336</ele><time>2026-04-18T12:50:39.693Z</time></trkpt><trkpt lat="9.3599875" lon="-75.7760863"><ele>23.0</ele><time>2026-04-18T12:50:40.692Z</time></trkpt><trkpt lat="9.3600424" lon="-75.7760353"><ele>23.166666666666668</ele><time>2026-04-18T12:50:41.69Z</time></trkpt><trkpt lat="9.3600988" lon="-75.7759846"><ele>23.333333333333336</ele><time>2026-04-18T12:50:42.693Z</time></trkpt><trkpt lat="9.3601561" lon="-75.7759338"><ele>23.5</ele><time>2026-04-18T12:50:43.69Z</time></trkpt><trkpt lat="9.3602127" lon="-75.7758771"><ele>23.666666666666668</ele><time>2026-04-18T12:50:44.693Z</time></trkpt><trkpt lat="9.3602659" lon="-75.7758261"><ele>23.833333333333332</ele><time>2026-04-18T12:50:45.695Z</time></trkpt><trkpt lat="9.3603206" lon="-75.7757689"><ele>24.0</ele><time>2026-04-18T12:50:46.695Z</time></trkpt><trkpt lat="9.3603784" lon="-75.7757154"><ele>24.0</ele><time>2026-04-18T12:50:47.691Z</time></trkpt><trkpt lat="9.3604337" lon="-75.7756609"><ele>24.0</ele><time>2026-04-18T12:50:48.695Z</time></trkpt><trkpt lat="9.3604869" lon="-75.7756045"><ele>24.0</ele><time>2026-04-18T12:50:49.695Z</time></trkpt><trkpt lat="9.3605432" lon="-75.7755529"><ele>24.0</ele><time>2026-04-18T12:50:50.695Z</time></trkpt><trkpt lat="9.3605985" lon="-75.7755007"><ele>24.0</ele><time>2026-04-18T12:50:51.695Z</time></trkpt><trkpt lat="9.3606533" lon="-75.7754455"><ele>24.0</ele><time>2026-04-18T12:50:52.696Z</time></trkpt><trkpt lat="9.3607116" lon="-75.7753927"><ele>24.0</ele><time>2026-04-18T12:50:53.689Z</time></trkpt><trkpt lat="9.3607694" lon="-75.7753404"><ele>24.0</ele><time>2026-04-18T12:50:54.693Z</time></trkpt><trkpt lat="9.3608265" lon="-75.775289"><ele>24.0</ele><time>2026-04-18T12:50:55.695Z</time></trkpt><trkpt lat="9.3608822" lon="-75.7752376"><ele>24.0</ele><time>2026-04-18T12:50:56.693Z</time></trkpt><trkpt lat="9.3609387" lon="-75.7751836"><ele>24.0</ele><time>2026-04-18T12:50:57.693Z</time></trkpt><trkpt lat="9.3609931" lon="-75.7751323"><ele>24.0</ele><time>2026-04-18T12:50:58.691Z</time></trkpt><trkpt lat="9.3610463" lon="-75.7750807"><ele>24.0</ele><time>2026-04-18T12:50:59.695Z</time></trkpt><trkpt lat="9.3611004" lon="-75.7750264"><ele>24.0</ele><time>2026-04-18T12:51:00.695Z</time></trkpt><trkpt lat="9.3611542" lon="-75.7749753"><ele>24.0</ele><time>2026-04-18T12:51:01.695Z</time></trkpt><trkpt lat="9.3612117" lon="-75.7749207"><ele>24.0</ele><time>2026-04-18T12:51:02.695Z</time></trkpt><trkpt lat="9.3612638" lon="-75.7748684"><ele>24.0</ele><time>2026-04-18T12:51:03.695Z</time></trkpt><trkpt lat="9.3613217" lon="-75.774811"><ele>24.0</ele><time>2026-04-18T12:51:04.694Z</time></trkpt><trkpt lat="9.3613731" lon="-75.7747605"><ele>23.857142857142854</ele><time>2026-04-18T12:51:05.69Z</time></trkpt><trkpt lat="9.3614249" lon="-75.7747094"><ele>23.714285714285715</ele><time>2026-04-18T12:51:06.695Z</time></trkpt><trkpt lat="9.3614755" lon="-75.7746573"><ele>23.57142857142857</ele><time>2026-04-18T12:51:07.694Z</time></trkpt><trkpt lat="9.3615323" lon="-75.7746058"><ele>23.428571428571427</ele><time>2026-04-18T12:51:08.692Z</time></trkpt><trkpt lat="9.3615854" lon="-75.7745545"><ele>23.285714285714285</ele><time>2026-04-18T12:51:09.695Z</time></trkpt><trkpt lat="9.3616402" lon="-75.7745063"><ele>23.142857142857142</ele><time>2026-04-18T12:51:10.695Z</time></trkpt><trkpt lat="9.3616938" lon="-75.7744551"><ele>23.0</ele><time>2026-04-18T12:51:11.694Z</time></trkpt><trkpt lat="9.361744" lon="-75.7744026"><ele>23.571428571428573</ele><time>2026-04-18T12:51:12.696Z</time></trkpt><trkpt lat="9.3618015" lon="-75.7743435"><ele>24.142857142857142</ele><time>2026-04-18T12:51:13.693Z</time></trkpt><trkpt lat="9.3618524" lon="-75.7742921"><ele>24.714285714285715</ele><time>2026-04-18T12:51:14.694Z</time></trkpt><trkpt lat="9.3619067" lon="-75.7742403"><ele>25.285714285714285</ele><time>2026-04-18T12:51:15.692Z</time></trkpt><trkpt lat="9.3619582" lon="-75.7741878"><ele>25.857142857142854</ele><time>2026-04-18T12:51:16.692Z</time></trkpt><trkpt lat="9.3620118" lon="-75.7741366"><ele>26.428571428571427</ele><time>2026-04-18T12:51:17.696Z</time></trkpt><trkpt lat="9.3620623" lon="-75.7740886"><ele>27.0</ele><time>2026-04-18T12:51:18.692Z</time></trkpt><trkpt lat="9.3621155" lon="-75.7740387"><ele>27.0</ele><time>2026-04-18T12:51:19.694Z</time></trkpt><trkpt lat="9.3621684" lon="-75.7739882"><ele>27.0</ele><time>2026-04-18T12:51:20.689Z</time></trkpt><trkpt lat="9.3622196" lon="-75.7739376"><ele>27.0</ele><time>2026-04-18T12:51:21.69Z</time></trkpt><trkpt lat="9.3622689" lon="-75.7738873"><ele>27.0</ele><time>2026-04-18T12:51:22.696Z</time></trkpt><trkpt lat="9.3623214" lon="-75.7738397"><ele>27.0</ele><time>2026-04-18T12:51:23.695Z</time></trkpt><trkpt lat="9.3623756" lon="-75.7737891"><ele>27.0</ele><time>2026-04-18T12:51:24.696Z</time></trkpt><trkpt lat="9.362432" lon="-75.7737376"><ele>27.0</ele><time>2026-04-18T12:51:25.695Z</time></trkpt><trkpt lat="9.3624839" lon="-75.7736886"><ele>26.57142857142857</ele><time>2026-04-18T12:51:26.695Z</time></trkpt><trkpt lat="9.3625353" lon="-75.7736374"><ele>26.142857142857142</ele><time>2026-04-18T12:51:27.695Z</time></trkpt><trkpt lat="9.3625886" lon="-75.7735871"><ele>25.714285714285715</ele><time>2026-04-18T12:51:28.695Z</time></trkpt><trkpt lat="9.3626407" lon="-75.7735389"><ele>25.285714285714285</ele><time>2026-04-18T12:51:29.693Z</time></trkpt><trkpt lat="9.3626946" lon="-75.77349"><ele>24.857142857142858</ele><time>2026-04-18T12:51:30.69Z</time></trkpt><trkpt lat="9.3627469" lon="-75.7734403"><ele>24.428571428571427</ele><time>2026-04-18T12:51:31.69Z</time></trkpt><trkpt lat="9.362802" lon="-75.7733902"><ele>24.0</ele><time>2026-04-18T12:51:32.695Z</time></trkpt><trkpt lat="9.3628537" lon="-75.773341"><ele>24.285714285714285</ele><time>2026-04-18T12:51:33.692Z</time></trkpt><trkpt lat="9.3629066" lon="-75.7732903"><ele>24.57142857142857</ele><time>2026-04-18T12:51:34.69Z</time></trkpt><trkpt lat="9.3629599" lon="-75.7732396"><ele>24.857142857142854</ele><time>2026-04-18T12:51:35.696Z</time></trkpt><trkpt lat="9.3630102" lon="-75.7731888"><ele>25.142857142857142</ele><time>2026-04-18T12:51:36.691Z</time></trkpt><trkpt lat="9.3630668" lon="-75.7731418"><ele>25.42857142857143</ele><time>2026-04-18T12:51:37.689Z</time></trkpt><trkpt lat="9.3631131" lon="-75.7730878"><ele>25.71428571428571</ele><time>2026-04-18T12:51:38.691Z</time></trkpt><trkpt lat="9.3631651" lon="-75.7730353"><ele>26.0</ele><time>2026-04-18T12:51:39.695Z</time></trkpt><trkpt lat="9.3632216" lon="-75.7729839"><ele>26.0</ele><time>2026-04-18T12:51:40.695Z</time></trkpt><trkpt lat="9.3632756" lon="-75.7729316"><ele>26.0</ele><time>2026-04-18T12:51:41.693Z</time></trkpt><trkpt lat="9.3633306" lon="-75.7728783"><ele>26.0</ele><time>2026-04-18T12:51:42.694Z</time></trkpt><trkpt lat="9.3633786" lon="-75.7728297"><ele>26.0</ele><time>2026-04-18T12:51:43.694Z</time></trkpt><trkpt lat="9.3634312" lon="-75.772781"><ele>26.0</ele><time>2026-04-18T12:51:44.695Z</time></trkpt><trkpt lat="9.3634837" lon="-75.7727292"><ele>26.0</ele><time>2026-04-18T12:51:45.695Z</time></trkpt><trkpt lat="9.3635351" lon="-75.7726789"><ele>26.0</ele><time>2026-04-18T12:51:46.695Z</time></trkpt><trkpt lat="9.3635855" lon="-75.7726298"><ele>26.142857142857142</ele><time>2026-04-18T12:51:47.695Z</time></trkpt><trkpt lat="9.3636402" lon="-75.7725752"><ele>26.28571428571429</ele><time>2026-04-18T12:51:48.694Z</time></trkpt><trkpt lat="9.3636927" lon="-75.7725256"><ele>26.42857142857143</ele><time>2026-04-18T12:51:49.695Z</time></trkpt><trkpt lat="9.3637438" lon="-75.7724762"><ele>26.57142857142857</ele><time>2026-04-18T12:51:50.695Z</time></trkpt><trkpt lat="9.3637969" lon="-75.7724257"><ele>26.714285714285715</ele><time>2026-04-18T12:51:51.693Z</time></trkpt><trkpt lat="9.3638471" lon="-75.772377"><ele>26.857142857142858</ele><time>2026-04-18T12:51:52.696Z</time></trkpt><trkpt lat="9.3638985" lon="-75.7723308"><ele>27.0</ele><time>2026-04-18T12:51:53.695Z</time></trkpt><trkpt lat="9.3639502" lon="-75.7722816"><ele>27.0</ele><time>2026-04-18T12:51:54.695Z</time></trkpt><trkpt lat="9.3639981" lon="-75.7722325"><ele>27.0</ele><time>2026-04-18T12:51:55.696Z</time></trkpt><trkpt lat="9.3640447" lon="-75.7721859"><ele>27.0</ele><time>2026-04-18T12:51:56.695Z</time></trkpt><trkpt lat="9.364094" lon="-75.7721387"><ele>27.0</ele><time>2026-04-18T12:51:57.694Z</time></trkpt><trkpt lat="9.3641423" lon="-75.7720913"><ele>27.0</ele><time>2026-04-18T12:51:58.693Z</time></trkpt><trkpt lat="9.3641919" lon="-75.7720437"><ele>27.0</ele><time>2026-04-18T12:51:59.696Z</time></trkpt><trkpt lat="9.3642418" lon="-75.7719969"><ele>27.0</ele><time>2026-04-18T12:52:00.695Z</time></trkpt><trkpt lat="9.3642908" lon="-75.7719514"><ele>27.0</ele><time>2026-04-18T12:52:01.695Z</time></trkpt><trkpt lat="9.3643412" lon="-75.7719059"><ele>27.0</ele><time>2026-04-18T12:52:02.695Z</time></trkpt><trkpt lat="9.364389" lon="-75.7718642"><ele>27.0</ele><time>2026-04-18T12:52:03.694Z</time></trkpt><trkpt lat="9.3644379" lon="-75.7718196"><ele>27.0</ele><time>2026-04-18T12:52:04.695Z</time></trkpt><trkpt lat="9.3644868" lon="-75.7717746"><ele>27.0</ele><time>2026-04-18T12:52:05.695Z</time></trkpt><trkpt lat="9.364532" lon="-75.771726"><ele>27.0</ele><time>2026-04-18T12:52:06.691Z</time></trkpt><trkpt lat="9.3645773" lon="-75.7716765"><ele>27.0</ele><time>2026-04-18T12:52:07.693Z</time></trkpt><trkpt lat="9.3646299" lon="-75.7716278"><ele>27.57142857142857</ele><time>2026-04-18T12:52:08.694Z</time></trkpt><trkpt lat="9.3646776" lon="-75.7715824"><ele>28.142857142857142</ele><time>2026-04-18T12:52:09.692Z</time></trkpt><trkpt lat="9.3647286" lon="-75.7715354"><ele>28.714285714285715</ele><time>2026-04-18T12:52:10.691Z</time></trkpt><trkpt lat="9.3647822" lon="-75.7714852"><ele>29.285714285714285</ele><time>2026-04-18T12:52:11.695Z</time></trkpt><trkpt lat="9.3648307" lon="-75.7714369"><ele>29.85714285714286</ele><time>2026-04-18T12:52:12.69Z</time></trkpt><trkpt lat="9.3648845" lon="-75.7713861"><ele>30.42857142857143</ele><time>2026-04-18T12:52:13.694Z</time></trkpt><trkpt lat="9.3649357" lon="-75.7713406"><ele>31.0</ele><time>2026-04-18T12:52:14.695Z</time></trkpt><trkpt lat="9.3649869" lon="-75.7712888"><ele>31.142857142857146</ele><time>2026-04-18T12:52:15.695Z</time></trkpt><trkpt lat="9.3650379" lon="-75.7712388"><ele>31.28571428571429</ele><time>2026-04-18T12:52:16.695Z</time></trkpt><trkpt lat="9.3650893" lon="-75.7711881"><ele>31.42857142857143</ele><time>2026-04-18T12:52:17.695Z</time></trkpt><trkpt lat="9.365141" lon="-75.771137"><ele>31.57142857142857</ele><time>2026-04-18T12:52:18.696Z</time></trkpt><trkpt lat="9.3651956" lon="-75.7710853"><ele>31.71428571428571</ele><time>2026-04-18T12:52:19.694Z</time></trkpt><trkpt lat="9.3652489" lon="-75.771036"><ele>31.857142857142854</ele><time>2026-04-18T12:52:20.695Z</time></trkpt><trkpt lat="9.3653031" lon="-75.7709832"><ele>32.0</ele><time>2026-04-18T12:52:21.694Z</time></trkpt><trkpt lat="9.3653554" lon="-75.7709271"><ele>32.5</ele><time>2026-04-18T12:52:22.694Z</time></trkpt><trkpt lat="9.365411" lon="-75.770877"><ele>33.0</ele><time>2026-04-18T12:52:23.695Z</time></trkpt><trkpt lat="9.365466" lon="-75.7708242"><ele>33.5</ele><time>2026-04-18T12:52:24.691Z</time></trkpt><trkpt lat="9.3655229" lon="-75.77077"><ele>34.0</ele><time>2026-04-18T12:52:25.695Z</time></trkpt><trkpt lat="9.3655787" lon="-75.7707162"><ele>34.5</ele><time>2026-04-18T12:52:26.694Z</time></trkpt><trkpt lat="9.3656356" lon="-75.770664"><ele>35.0</ele><time>2026-04-18T12:52:27.689Z</time></trkpt><trkpt lat="9.3656893" lon="-75.770609"><ele>33.83333333333333</ele><time>2026-04-18T12:52:28.696Z</time></trkpt><trkpt lat="9.3657455" lon="-75.770554"><ele>32.666666666666664</ele><time>2026-04-18T12:52:29.696Z</time></trkpt><trkpt lat="9.3658009" lon="-75.7704984"><ele>31.5</ele><time>2026-04-18T12:52:30.694Z</time></trkpt><trkpt lat="9.3658631" lon="-75.7704478"><ele>30.333333333333336</ele><time>2026-04-18T12:52:31.689Z</time></trkpt><trkpt lat="9.3659193" lon="-75.7703911"><ele>29.166666666666668</ele><time>2026-04-18T12:52:32.695Z</time></trkpt><trkpt lat="9.3659743" lon="-75.7703309"><ele>28.0</ele><time>2026-04-18T12:52:33.695Z</time></trkpt><trkpt lat="9.3660287" lon="-75.7702723"><ele>28.000000000000004</ele><time>2026-04-18T12:52:34.695Z</time></trkpt><trkpt lat="9.366082" lon="-75.7702056"><ele>28.0</ele><time>2026-04-18T12:52:35.696Z</time></trkpt><trkpt lat="9.3661323" lon="-75.770143"><ele>28.0</ele><time>2026-04-18T12:52:36.694Z</time></trkpt><trkpt lat="9.3661814" lon="-75.770076"><ele>28.0</ele><time>2026-04-18T12:52:37.695Z</time></trkpt><trkpt lat="9.3662289" lon="-75.7700069"><ele>28.000000000000004</ele><time>2026-04-18T12:52:38.694Z</time></trkpt><trkpt lat="9.366271" lon="-75.7699338"><ele>28.0</ele><time>2026-04-18T12:52:39.695Z</time></trkpt><trkpt lat="9.3663155" lon="-75.7698611"><ele>27.500000000000004</ele><time>2026-04-18T12:52:40.693Z</time></trkpt><trkpt lat="9.3663476" lon="-75.7697871"><ele>27.0</ele><time>2026-04-18T12:52:41.695Z</time></trkpt><trkpt lat="9.3663779" lon="-75.7697112"><ele>26.5</ele><time>2026-04-18T12:52:42.693Z</time></trkpt><trkpt lat="9.3664073" lon="-75.7696365"><ele>26.0</ele><time>2026-04-18T12:52:43.695Z</time></trkpt><trkpt lat="9.366436" lon="-75.7695566"><ele>25.500000000000004</ele><time>2026-04-18T12:52:44.693Z</time></trkpt><trkpt lat="9.3664609" lon="-75.7694737"><ele>25.0</ele><time>2026-04-18T12:52:45.695Z</time></trkpt><trkpt lat="9.3664829" lon="-75.7693868"><ele>25.666666666666668</ele><time>2026-04-18T12:52:46.693Z</time></trkpt><trkpt lat="9.3665009" lon="-75.7693019"><ele>26.333333333333336</ele><time>2026-04-18T12:52:47.695Z</time></trkpt><trkpt lat="9.3665137" lon="-75.7692156"><ele>27.0</ele><time>2026-04-18T12:52:48.695Z</time></trkpt><trkpt lat="9.366526" lon="-75.7691283"><ele>27.666666666666664</ele><time>2026-04-18T12:52:49.695Z</time></trkpt><trkpt lat="9.3665373" lon="-75.7690479"><ele>28.333333333333332</ele><time>2026-04-18T12:52:50.691Z</time></trkpt><trkpt lat="9.3665421" lon="-75.7689604"><ele>29.0</ele><time>2026-04-18T12:52:51.693Z</time></trkpt><trkpt lat="9.366551" lon="-75.7688738"><ele>29.0</ele><time>2026-04-18T12:52:52.694Z</time></trkpt><trkpt lat="9.3665549" lon="-75.7687828"><ele>29.0</ele><time>2026-04-18T12:52:53.693Z</time></trkpt><trkpt lat="9.3665604" lon="-75.7686912"><ele>29.0</ele><time>2026-04-18T12:52:54.692Z</time></trkpt><trkpt lat="9.3665629" lon="-75.7685963"><ele>29.0</ele><time>2026-04-18T12:52:55.694Z</time></trkpt><trkpt lat="9.366571" lon="-75.7685037"><ele>29.0</ele><time>2026-04-18T12:52:56.695Z</time></trkpt><trkpt lat="9.3665718" lon="-75.7684133"><ele>28.166666666666664</ele><time>2026-04-18T12:52:57.693Z</time></trkpt><trkpt lat="9.3665771" lon="-75.7683185"><ele>27.333333333333332</ele><time>2026-04-18T12:52:58.695Z</time></trkpt><trkpt lat="9.3665779" lon="-75.7682263"><ele>26.5</ele><time>2026-04-18T12:52:59.694Z</time></trkpt><trkpt lat="9.3665808" lon="-75.7681396"><ele>25.666666666666664</ele><time>2026-04-18T12:53:00.694Z</time></trkpt><trkpt lat="9.3665896" lon="-75.7680512"><ele>24.833333333333332</ele><time>2026-04-18T12:53:01.694Z</time></trkpt><trkpt lat="9.3665898" lon="-75.7679604"><ele>24.0</ele><time>2026-04-18T12:53:02.695Z</time></trkpt><trkpt lat="9.3665964" lon="-75.7678677"><ele>24.0</ele><time>2026-04-18T12:53:03.695Z</time></trkpt><trkpt lat="9.3666008" lon="-75.7677726"><ele>24.0</ele><time>2026-04-18T12:53:04.693Z</time></trkpt><trkpt lat="9.3666039" lon="-75.7676771"><ele>24.0</ele><time>2026-04-18T12:53:05.696Z</time></trkpt><trkpt lat="9.3666063" lon="-75.7675861"><ele>24.0</ele><time>2026-04-18T12:53:06.692Z</time></trkpt><trkpt lat="9.3666141" lon="-75.7674956"><ele>24.0</ele><time>2026-04-18T12:53:07.695Z</time></trkpt><trkpt lat="9.3666215" lon="-75.7674059"><ele>24.333333333333332</ele><time>2026-04-18T12:53:08.694Z</time></trkpt><trkpt lat="9.3666248" lon="-75.7673151"><ele>24.666666666666664</ele><time>2026-04-18T12:53:09.695Z</time></trkpt><trkpt lat="9.3666256" lon="-75.7672232"><ele>25.0</ele><time>2026-04-18T12:53:10.696Z</time></trkpt><trkpt lat="9.3666274" lon="-75.7671344"><ele>25.333333333333332</ele><time>2026-04-18T12:53:11.695Z</time></trkpt><trkpt lat="9.3666288" lon="-75.7670483"><ele>25.666666666666664</ele><time>2026-04-18T12:53:12.695Z</time></trkpt><trkpt lat="9.3666326" lon="-75.7669652"><ele>26.0</ele><time>2026-04-18T12:53:13.695Z</time></trkpt><trkpt lat="9.3666355" lon="-75.7668774"><ele>25.999999999999996</ele><time>2026-04-18T12:53:14.694Z</time></trkpt><trkpt lat="9.3666424" lon="-75.7667897"><ele>26.0</ele><time>2026-04-18T12:53:15.694Z</time></trkpt><trkpt lat="9.3666485" lon="-75.7667098"><ele>26.0</ele><time>2026-04-18T12:53:16.694Z</time></trkpt><trkpt lat="9.3666573" lon="-75.7666326"><ele>26.0</ele><time>2026-04-18T12:53:17.691Z</time></trkpt><trkpt lat="9.3666622" lon="-75.7665557"><ele>25.999999999999996</ele><time>2026-04-18T12:53:18.692Z</time></trkpt><trkpt lat="9.3666678" lon="-75.7664837"><ele>26.0</ele><time>2026-04-18T12:53:19.695Z</time></trkpt><trkpt lat="9.3666699" lon="-75.7664149"><ele>25.999999999999996</ele><time>2026-04-18T12:53:20.691Z</time></trkpt><trkpt lat="9.3666751" lon="-75.7663476"><ele>26.0</ele><time>2026-04-18T12:53:21.693Z</time></trkpt><trkpt lat="9.3666753" lon="-75.7662809"><ele>26.0</ele><time>2026-04-18T12:53:22.694Z</time></trkpt><trkpt lat="9.3666748" lon="-75.7662167"><ele>26.0</ele><time>2026-04-18T12:53:23.692Z</time></trkpt><trkpt lat="9.3666813" lon="-75.7660958"><ele>25.999999999999996</ele><time>2026-04-18T12:53:25.692Z</time></trkpt><trkpt lat="9.3666922" lon="-75.7659837"><ele>26.0</ele><time>2026-04-18T12:53:27.691Z</time></trkpt><trkpt lat="9.3666945" lon="-75.7658754"><ele>26.4</ele><time>2026-04-18T12:53:29.693Z</time></trkpt><trkpt lat="9.3667031" lon="-75.7657651"><ele>26.8</ele><time>2026-04-18T12:53:31.694Z</time></trkpt><trkpt lat="9.366708" lon="-75.7656707"><ele>27.199999999999996</ele><time>2026-04-18T12:53:33.693Z</time></trkpt><trkpt lat="9.3667124" lon="-75.7655822"><ele>27.599999999999998</ele><time>2026-04-18T12:53:35.691Z</time></trkpt><trkpt lat="9.3667225" lon="-75.7654834"><ele>28.0</ele><time>2026-04-18T12:53:37.691Z</time></trkpt><trkpt lat="9.3667294" lon="-75.7653832"><ele>28.0</ele><time>2026-04-18T12:53:39.693Z</time></trkpt><trkpt lat="9.3667327" lon="-75.7652898"><ele>27.999999999999996</ele><time>2026-04-18T12:53:41.695Z</time></trkpt><trkpt lat="9.3667322" lon="-75.7651937"><ele>27.999999999999996</ele><time>2026-04-18T12:53:43.692Z</time></trkpt><trkpt lat="9.3667415" lon="-75.7650981"><ele>28.0</ele><time>2026-04-18T12:53:45.693Z</time></trkpt><trkpt lat="9.3667497" lon="-75.7650066"><ele>28.0</ele><time>2026-04-18T12:53:47.694Z</time></trkpt><trkpt lat="9.3667596" lon="-75.7649105"><ele>29.4</ele><time>2026-04-18T12:53:49.695Z</time></trkpt><trkpt lat="9.3667625" lon="-75.7648113"><ele>30.799999999999997</ele><time>2026-04-18T12:53:51.693Z</time></trkpt><trkpt lat="9.3667683" lon="-75.7647105"><ele>32.2</ele><time>2026-04-18T12:53:53.688Z</time></trkpt><trkpt lat="9.3667712" lon="-75.7646076"><ele>33.6</ele><time>2026-04-18T12:53:55.692Z</time></trkpt><trkpt lat="9.36677" lon="-75.7645056"><ele>35.0</ele><time>2026-04-18T12:53:57.696Z</time></trkpt><trkpt lat="9.3667797" lon="-75.7644019"><ele>35.8</ele><time>2026-04-18T12:53:59.694Z</time></trkpt><trkpt lat="9.3667899" lon="-75.7642989"><ele>36.6</ele><time>2026-04-18T12:54:01.695Z</time></trkpt><trkpt lat="9.366797" lon="-75.7642025"><ele>37.4</ele><time>2026-04-18T12:54:03.692Z</time></trkpt><trkpt lat="9.3667992" lon="-75.764105"><ele>38.2</ele><time>2026-04-18T12:54:05.693Z</time></trkpt><trkpt lat="9.3668083" lon="-75.7640026"><ele>39.0</ele><time>2026-04-18T12:54:07.694Z</time></trkpt><trkpt lat="9.3668129" lon="-75.763896"><ele>39.0</ele><time>2026-04-18T12:54:09.691Z</time></trkpt><trkpt lat="9.3668144" lon="-75.7637982"><ele>39.0</ele><time>2026-04-18T12:54:11.69Z</time></trkpt><trkpt lat="9.366821" lon="-75.7637014"><ele>39.0</ele><time>2026-04-18T12:54:13.693Z</time></trkpt><trkpt lat="9.3668229" lon="-75.7635997"><ele>39.0</ele><time>2026-04-18T12:54:15.695Z</time></trkpt><trkpt lat="9.3668265" lon="-75.7635019"><ele>39.0</ele><time>2026-04-18T12:54:17.696Z</time></trkpt><trkpt lat="9.3668248" lon="-75.7634027"><ele>39.4</ele><time>2026-04-18T12:54:19.695Z</time></trkpt><trkpt lat="9.366826" lon="-75.7633047"><ele>39.8</ele><time>2026-04-18T12:54:21.695Z</time></trkpt><trkpt lat="9.3668338" lon="-75.7631981"><ele>40.199999999999996</ele><time>2026-04-18T12:54:23.693Z</time></trkpt><trkpt lat="9.3668427" lon="-75.7630953"><ele>40.599999999999994</ele><time>2026-04-18T12:54:25.694Z</time></trkpt><trkpt lat="9.3668662" lon="-75.7629905"><ele>41.0</ele><time>2026-04-18T12:54:27.693Z</time></trkpt><trkpt lat="9.3668888" lon="-75.7628869"><ele>41.0</ele><time>2026-04-18T12:54:29.694Z</time></trkpt><trkpt lat="9.3669175" lon="-75.7627806"><ele>41.0</ele><time>2026-04-18T12:54:31.694Z</time></trkpt><trkpt lat="9.3669545" lon="-75.7626626"><ele>41.0</ele><time>2026-04-18T12:54:33.691Z</time></trkpt><trkpt lat="9.3669984" lon="-75.7625458"><ele>41.0</ele><time>2026-04-18T12:54:35.692Z</time></trkpt><trkpt lat="9.3670302" lon="-75.7624877"><ele>41.0</ele><time>2026-04-18T12:54:36.692Z</time></trkpt><trkpt lat="9.3670615" lon="-75.7624284"><ele>40.71428571428571</ele><time>2026-04-18T12:54:37.693Z</time></trkpt><trkpt lat="9.3670947" lon="-75.7623707"><ele>40.42857142857143</ele><time>2026-04-18T12:54:38.695Z</time></trkpt><trkpt lat="9.3671287" lon="-75.7623078"><ele>40.14285714285714</ele><time>2026-04-18T12:54:39.694Z</time></trkpt><trkpt lat="9.367165" lon="-75.7622482"><ele>39.857142857142854</ele><time>2026-04-18T12:54:40.695Z</time></trkpt><trkpt lat="9.3672042" lon="-75.7621838"><ele>39.57142857142857</ele><time>2026-04-18T12:54:41.695Z</time></trkpt><trkpt lat="9.3672427" lon="-75.7621151"><ele>39.285714285714285</ele><time>2026-04-18T12:54:42.692Z</time></trkpt><trkpt lat="9.3672857" lon="-75.7620437"><ele>39.0</ele><time>2026-04-18T12:54:43.694Z</time></trkpt><trkpt lat="9.3673335" lon="-75.7619692"><ele>39.0</ele><time>2026-04-18T12:54:44.694Z</time></trkpt><trkpt lat="9.3673776" lon="-75.7618935"><ele>39.0</ele><time>2026-04-18T12:54:45.695Z</time></trkpt><trkpt lat="9.3674295" lon="-75.7618169"><ele>39.0</ele><time>2026-04-18T12:54:46.695Z</time></trkpt><trkpt lat="9.3674868" lon="-75.7617407"><ele>39.0</ele><time>2026-04-18T12:54:47.694Z</time></trkpt><trkpt lat="9.3675371" lon="-75.7616601"><ele>39.0</ele><time>2026-04-18T12:54:48.694Z</time></trkpt><trkpt lat="9.3675866" lon="-75.7615823"><ele>39.0</ele><time>2026-04-18T12:54:49.694Z</time></trkpt><trkpt lat="9.36764" lon="-75.7615023"><ele>39.0</ele><time>2026-04-18T12:54:50.695Z</time></trkpt><trkpt lat="9.3676916" lon="-75.7614277"><ele>39.0</ele><time>2026-04-18T12:54:51.692Z</time></trkpt><trkpt lat="9.3677428" lon="-75.7613503"><ele>39.0</ele><time>2026-04-18T12:54:52.695Z</time></trkpt><trkpt lat="9.3677938" lon="-75.7612733"><ele>39.0</ele><time>2026-04-18T12:54:53.691Z</time></trkpt><trkpt lat="9.3678443" lon="-75.7611906"><ele>39.0</ele><time>2026-04-18T12:54:54.694Z</time></trkpt><trkpt lat="9.3678932" lon="-75.7611138"><ele>39.0</ele><time>2026-04-18T12:54:55.695Z</time></trkpt><trkpt lat="9.3679401" lon="-75.7610342"><ele>39.0</ele><time>2026-04-18T12:54:56.692Z</time></trkpt><trkpt lat="9.3679861" lon="-75.7609594"><ele>39.0</ele><time>2026-04-18T12:54:57.694Z</time></trkpt><trkpt lat="9.3680389" lon="-75.760882"><ele>39.0</ele><time>2026-04-18T12:54:58.696Z</time></trkpt><trkpt lat="9.3680894" lon="-75.7608025"><ele>38.0</ele><time>2026-04-18T12:54:59.695Z</time></trkpt><trkpt lat="9.3681379" lon="-75.7607312"><ele>37.0</ele><time>2026-04-18T12:55:00.692Z</time></trkpt><trkpt lat="9.3681863" lon="-75.7606551"><ele>36.0</ele><time>2026-04-18T12:55:01.696Z</time></trkpt><trkpt lat="9.3682311" lon="-75.7605876"><ele>35.0</ele><time>2026-04-18T12:55:02.693Z</time></trkpt><trkpt lat="9.3682741" lon="-75.7605226"><ele>34.0</ele><time>2026-04-18T12:55:03.693Z</time></trkpt><trkpt lat="9.3683136" lon="-75.7604548"><ele>33.0</ele><time>2026-04-18T12:55:04.694Z</time></trkpt><trkpt lat="9.3683554" lon="-75.7603931"><ele>33.0</ele><time>2026-04-18T12:55:05.692Z</time></trkpt><trkpt lat="9.3683951" lon="-75.7603304"><ele>33.0</ele><time>2026-04-18T12:55:06.694Z</time></trkpt><trkpt lat="9.3684309" lon="-75.7602689"><ele>33.0</ele><time>2026-04-18T12:55:07.691Z</time></trkpt><trkpt lat="9.3684684" lon="-75.7602122"><ele>33.0</ele><time>2026-04-18T12:55:08.696Z</time></trkpt><trkpt lat="9.3685035" lon="-75.7601581"><ele>33.0</ele><time>2026-04-18T12:55:09.695Z</time></trkpt><trkpt lat="9.3685689" lon="-75.7600536"><ele>33.0</ele><time>2026-04-18T12:55:11.692Z</time></trkpt><trkpt lat="9.3686233" lon="-75.7599661"><ele>33.6</ele><time>2026-04-18T12:55:13.694Z</time></trkpt><trkpt lat="9.3686726" lon="-75.7598779"><ele>34.199999999999996</ele><time>2026-04-18T12:55:15.695Z</time></trkpt><trkpt lat="9.3687153" lon="-75.7597871"><ele>34.8</ele><time>2026-04-18T12:55:17.691Z</time></trkpt><trkpt lat="9.3687498" lon="-75.7596956"><ele>35.4</ele><time>2026-04-18T12:55:19.692Z</time></trkpt><trkpt lat="9.3687787" lon="-75.7596093"><ele>36.0</ele><time>2026-04-18T12:55:21.694Z</time></trkpt><trkpt lat="9.3688045" lon="-75.7595265"><ele>36.0</ele><time>2026-04-18T12:55:23.692Z</time></trkpt><trkpt lat="9.3688181" lon="-75.7594429"><ele>36.0</ele><time>2026-04-18T12:55:25.691Z</time></trkpt><trkpt lat="9.3688316" lon="-75.7593588"><ele>36.0</ele><time>2026-04-18T12:55:27.688Z</time></trkpt><trkpt lat="9.368833" lon="-75.7592786"><ele>36.0</ele><time>2026-04-18T12:55:29.694Z</time></trkpt><trkpt lat="9.3688327" lon="-75.759194"><ele>36.0</ele><time>2026-04-18T12:55:31.693Z</time></trkpt><trkpt lat="9.3688297" lon="-75.7591072"><ele>36.0</ele><time>2026-04-18T12:55:33.694Z</time></trkpt><trkpt lat="9.3688259" lon="-75.7590238"><ele>36.833333333333336</ele><time>2026-04-18T12:55:35.694Z</time></trkpt><trkpt lat="9.3688182" lon="-75.7589399"><ele>37.666666666666664</ele><time>2026-04-18T12:55:37.693Z</time></trkpt><trkpt lat="9.3688089" lon="-75.7588574"><ele>38.5</ele><time>2026-04-18T12:55:39.695Z</time></trkpt><trkpt lat="9.3688046" lon="-75.7587773"><ele>39.33333333333333</ele><time>2026-04-18T12:55:41.696Z</time></trkpt><trkpt lat="9.3687926" lon="-75.7586932"><ele>40.166666666666664</ele><time>2026-04-18T12:55:43.692Z</time></trkpt><trkpt lat="9.3687859" lon="-75.7586102"><ele>41.0</ele><time>2026-04-18T12:55:45.695Z</time></trkpt><trkpt lat="9.368779" lon="-75.7585283"><ele>42.666666666666664</ele><time>2026-04-18T12:55:47.696Z</time></trkpt><trkpt lat="9.3687736" lon="-75.7584494"><ele>44.33333333333333</ele><time>2026-04-18T12:55:49.695Z</time></trkpt><trkpt lat="9.368768" lon="-75.7583704"><ele>46.0</ele><time>2026-04-18T12:55:51.696Z</time></trkpt><trkpt lat="9.3687594" lon="-75.7582887"><ele>47.666666666666664</ele><time>2026-04-18T12:55:53.695Z</time></trkpt><trkpt lat="9.3687522" lon="-75.7582071"><ele>49.333333333333336</ele><time>2026-04-18T12:55:55.694Z</time></trkpt><trkpt lat="9.3687461" lon="-75.7581285"><ele>51.0</ele><time>2026-04-18T12:55:57.695Z</time></trkpt><trkpt lat="9.3687387" lon="-75.7580496"><ele>51.0</ele><time>2026-04-18T12:55:59.695Z</time></trkpt><trkpt lat="9.3687319" lon="-75.7579705"><ele>51.0</ele><time>2026-04-18T12:56:01.695Z</time></trkpt><trkpt lat="9.3687253" lon="-75.757892"><ele>51.0</ele><time>2026-04-18T12:56:03.692Z</time></trkpt><trkpt lat="9.3687204" lon="-75.7578139"><ele>51.0</ele><time>2026-04-18T12:56:05.692Z</time></trkpt><trkpt lat="9.3687116" lon="-75.7577299"><ele>51.0</ele><time>2026-04-18T12:56:07.695Z</time></trkpt><trkpt lat="9.3687089" lon="-75.7576421"><ele>51.0</ele><time>2026-04-18T12:56:09.694Z</time></trkpt><trkpt lat="9.3687012" lon="-75.7575555"><ele>52.166666666666664</ele><time>2026-04-18T12:56:11.693Z</time></trkpt><trkpt lat="9.3686928" lon="-75.757473"><ele>53.33333333333333</ele><time>2026-04-18T12:56:13.695Z</time></trkpt><trkpt lat="9.3686851" lon="-75.757392"><ele>54.5</ele><time>2026-04-18T12:56:15.69Z</time></trkpt><trkpt lat="9.3686821" lon="-75.7573102"><ele>55.666666666666664</ele><time>2026-04-18T12:56:17.693Z</time></trkpt><trkpt lat="9.3686793" lon="-75.7572241"><ele>56.83333333333333</ele><time>2026-04-18T12:56:19.695Z</time></trkpt><trkpt lat="9.3686781" lon="-75.7571365"><ele>58.0</ele><time>2026-04-18T12:56:21.695Z</time></trkpt><trkpt lat="9.3686853" lon="-75.7570491"><ele>58.0</ele><time>2026-04-18T12:56:23.695Z</time></trkpt><trkpt lat="9.3687066" lon="-75.7569712"><ele>58.0</ele><time>2026-04-18T12:56:26.69Z</time></trkpt><trkpt lat="9.3687302" lon="-75.756869"><ele>58.0</ele><time>2026-04-18T12:56:28.689Z</time></trkpt><trkpt lat="9.3687656" lon="-75.7567688"><ele>58.0</ele><time>2026-04-18T12:56:30.695Z</time></trkpt><trkpt lat="9.3688084" lon="-75.7566742"><ele>58.0</ele><time>2026-04-18T12:56:32.69Z</time></trkpt><trkpt lat="9.3688601" lon="-75.7565834"><ele>57.0</ele><time>2026-04-18T12:56:34.69Z</time></trkpt><trkpt lat="9.3689156" lon="-75.7564965"><ele>56.0</ele><time>2026-04-18T12:56:36.693Z</time></trkpt><trkpt lat="9.3689729" lon="-75.756412"><ele>55.0</ele><time>2026-04-18T12:56:38.692Z</time></trkpt><trkpt lat="9.3690325" lon="-75.7563271"><ele>54.0</ele><time>2026-04-18T12:56:40.691Z</time></trkpt><trkpt lat="9.3690978" lon="-75.7562429"><ele>53.0</ele><time>2026-04-18T12:56:42.692Z</time></trkpt><trkpt lat="9.3691622" lon="-75.7561587"><ele>53.0</ele><time>2026-04-18T12:56:44.695Z</time></trkpt><trkpt lat="9.3692274" lon="-75.7560771"><ele>53.0</ele><time>2026-04-18T12:56:46.695Z</time></trkpt><trkpt lat="9.3692937" lon="-75.7559941"><ele>53.0</ele><time>2026-04-18T12:56:48.695Z</time></trkpt><trkpt lat="9.3693589" lon="-75.7559099"><ele>53.0</ele><time>2026-04-18T12:56:50.692Z</time></trkpt><trkpt lat="9.3694261" lon="-75.7558281"><ele>53.0</ele><time>2026-04-18T12:56:52.693Z</time></trkpt><trkpt lat="9.3694946" lon="-75.7557469"><ele>54.2</ele><time>2026-04-18T12:56:54.694Z</time></trkpt><trkpt lat="9.3695645" lon="-75.7556598"><ele>55.4</ele><time>2026-04-18T12:56:56.691Z</time></trkpt><trkpt lat="9.3696399" lon="-75.7555711"><ele>56.60000000000001</ele><time>2026-04-18T12:56:58.689Z</time></trkpt><trkpt lat="9.3697147" lon="-75.7554797"><ele>57.800000000000004</ele><time>2026-04-18T12:57:00.692Z</time></trkpt><trkpt lat="9.3697529" lon="-75.755423"><ele>59.0</ele><time>2026-04-18T12:57:01.694Z</time></trkpt><trkpt lat="9.3697953" lon="-75.755371"><ele>59.00000000000001</ele><time>2026-04-18T12:57:02.69Z</time></trkpt><trkpt lat="9.3698745" lon="-75.7552762"><ele>59.0</ele><time>2026-04-18T12:57:04.692Z</time></trkpt><trkpt lat="9.3699163" lon="-75.7552229"><ele>59.0</ele><time>2026-04-18T12:57:05.693Z</time></trkpt><trkpt lat="9.3699629" lon="-75.7551703"><ele>59.0</ele><time>2026-04-18T12:57:06.692Z</time></trkpt><trkpt lat="9.3700072" lon="-75.7551184"><ele>59.00000000000001</ele><time>2026-04-18T12:57:07.693Z</time></trkpt><trkpt lat="9.3700504" lon="-75.7550662"><ele>59.0</ele><time>2026-04-18T12:57:08.696Z</time></trkpt><trkpt lat="9.3700941" lon="-75.7550095"><ele>59.0</ele><time>2026-04-18T12:57:09.688Z</time></trkpt><trkpt lat="9.3701377" lon="-75.754957"><ele>59.0</ele><time>2026-04-18T12:57:10.689Z</time></trkpt><trkpt lat="9.3701826" lon="-75.7549034"><ele>59.0</ele><time>2026-04-18T12:57:11.695Z</time></trkpt><trkpt lat="9.3702291" lon="-75.7548497"><ele>59.0</ele><time>2026-04-18T12:57:12.694Z</time></trkpt><trkpt lat="9.3702768" lon="-75.754798"><ele>59.0</ele><time>2026-04-18T12:57:13.692Z</time></trkpt><trkpt lat="9.3703226" lon="-75.7547435"><ele>59.0</ele><time>2026-04-18T12:57:14.69Z</time></trkpt><trkpt lat="9.3703658" lon="-75.7546904"><ele>59.0</ele><time>2026-04-18T12:57:15.693Z</time></trkpt><trkpt lat="9.3704106" lon="-75.7546365"><ele>59.0</ele><time>2026-04-18T12:57:16.69Z</time></trkpt><trkpt lat="9.3704572" lon="-75.7545845"><ele>59.0</ele><time>2026-04-18T12:57:17.694Z</time></trkpt><trkpt lat="9.370504" lon="-75.7545325"><ele>59.0</ele><time>2026-04-18T12:57:18.693Z</time></trkpt><trkpt lat="9.3705503" lon="-75.7544774"><ele>59.0</ele><time>2026-04-18T12:57:19.691Z</time></trkpt><trkpt lat="9.3705962" lon="-75.7544208"><ele>59.0</ele><time>2026-04-18T12:57:20.694Z</time></trkpt><trkpt lat="9.3706412" lon="-75.7543659"><ele>59.0</ele><time>2026-04-18T12:57:21.696Z</time></trkpt><trkpt lat="9.3706857" lon="-75.75431"><ele>59.0</ele><time>2026-04-18T12:57:22.695Z</time></trkpt><trkpt lat="9.3707306" lon="-75.7542532"><ele>57.66666666666667</ele><time>2026-04-18T12:57:23.695Z</time></trkpt><trkpt lat="9.3707778" lon="-75.7541955"><ele>56.333333333333336</ele><time>2026-04-18T12:57:24.694Z</time></trkpt><trkpt lat="9.3708264" lon="-75.754136"><ele>55.0</ele><time>2026-04-18T12:57:25.693Z</time></trkpt><trkpt lat="9.3708711" lon="-75.7540779"><ele>53.66666666666667</ele><time>2026-04-18T12:57:26.691Z</time></trkpt><trkpt lat="9.370921" lon="-75.7540188"><ele>52.333333333333336</ele><time>2026-04-18T12:57:27.692Z</time></trkpt><trkpt lat="9.3709698" lon="-75.7539594"><ele>51.0</ele><time>2026-04-18T12:57:28.692Z</time></trkpt><trkpt lat="9.3710189" lon="-75.7538978"><ele>51.0</ele><time>2026-04-18T12:57:29.696Z</time></trkpt><trkpt lat="9.3710695" lon="-75.7538348"><ele>51.0</ele><time>2026-04-18T12:57:30.695Z</time></trkpt><trkpt lat="9.3711211" lon="-75.7537675"><ele>51.0</ele><time>2026-04-18T12:57:31.691Z</time></trkpt><trkpt lat="9.3711769" lon="-75.7537015"><ele>51.0</ele><time>2026-04-18T12:57:32.692Z</time></trkpt><trkpt lat="9.3712337" lon="-75.7536332"><ele>51.0</ele><time>2026-04-18T12:57:33.695Z</time></trkpt><trkpt lat="9.3712881" lon="-75.753563"><ele>51.0</ele><time>2026-04-18T12:57:34.695Z</time></trkpt><trkpt lat="9.3713454" lon="-75.753492"><ele>51.0</ele><time>2026-04-18T12:57:35.692Z</time></trkpt><trkpt lat="9.3714073" lon="-75.7534215"><ele>51.0</ele><time>2026-04-18T12:57:36.695Z</time></trkpt><trkpt lat="9.3714669" lon="-75.7533511"><ele>51.0</ele><time>2026-04-18T12:57:37.696Z</time></trkpt><trkpt lat="9.3715246" lon="-75.7532815"><ele>51.0</ele><time>2026-04-18T12:57:38.695Z</time></trkpt><trkpt lat="9.3715813" lon="-75.7532125"><ele>51.0</ele><time>2026-04-18T12:57:39.695Z</time></trkpt><trkpt lat="9.3716405" lon="-75.7531441"><ele>51.0</ele><time>2026-04-18T12:57:40.696Z</time></trkpt><trkpt lat="9.3716936" lon="-75.7530764"><ele>51.0</ele><time>2026-04-18T12:57:41.695Z</time></trkpt><trkpt lat="9.3717476" lon="-75.7530109"><ele>51.0</ele><time>2026-04-18T12:57:42.694Z</time></trkpt><trkpt lat="9.3718056" lon="-75.7529444"><ele>51.0</ele><time>2026-04-18T12:57:43.692Z</time></trkpt><trkpt lat="9.3718629" lon="-75.7528781"><ele>51.0</ele><time>2026-04-18T12:57:44.694Z</time></trkpt><trkpt lat="9.3719178" lon="-75.7528053"><ele>51.0</ele><time>2026-04-18T12:57:45.694Z</time></trkpt><trkpt lat="9.3719783" lon="-75.7527367"><ele>51.599999999999994</ele><time>2026-04-18T12:57:46.695Z</time></trkpt><trkpt lat="9.372037" lon="-75.7526642"><ele>52.2</ele><time>2026-04-18T12:57:47.694Z</time></trkpt><trkpt lat="9.3720961" lon="-75.7525951"><ele>52.800000000000004</ele><time>2026-04-18T12:57:48.69Z</time></trkpt><trkpt lat="9.3721518" lon="-75.7525235"><ele>53.400000000000006</ele><time>2026-04-18T12:57:49.692Z</time></trkpt><trkpt lat="9.3722088" lon="-75.7524522"><ele>54.0</ele><time>2026-04-18T12:57:50.692Z</time></trkpt><trkpt lat="9.372267" lon="-75.7523793"><ele>54.0</ele><time>2026-04-18T12:57:51.694Z</time></trkpt><trkpt lat="9.3723283" lon="-75.7523094"><ele>54.00000000000001</ele><time>2026-04-18T12:57:52.69Z</time></trkpt><trkpt lat="9.3723866" lon="-75.7522399"><ele>54.00000000000001</ele><time>2026-04-18T12:57:53.694Z</time></trkpt><trkpt lat="9.3724489" lon="-75.7521676"><ele>54.0</ele><time>2026-04-18T12:57:54.696Z</time></trkpt><trkpt lat="9.37251" lon="-75.7520947"><ele>54.0</ele><time>2026-04-18T12:57:55.695Z</time></trkpt><trkpt lat="9.3725665" lon="-75.7520208"><ele>54.0</ele><time>2026-04-18T12:57:56.692Z</time></trkpt><trkpt lat="9.3726253" lon="-75.7519459"><ele>54.00000000000001</ele><time>2026-04-18T12:57:57.691Z</time></trkpt><trkpt lat="9.3726864" lon="-75.7518758"><ele>54.00000000000001</ele><time>2026-04-18T12:57:58.694Z</time></trkpt><trkpt lat="9.3727454" lon="-75.7518063"><ele>54.0</ele><time>2026-04-18T12:57:59.694Z</time></trkpt><trkpt lat="9.3728045" lon="-75.7517325"><ele>54.0</ele><time>2026-04-18T12:58:00.692Z</time></trkpt><trkpt lat="9.3728636" lon="-75.7516557"><ele>52.800000000000004</ele><time>2026-04-18T12:58:01.692Z</time></trkpt><trkpt lat="9.3729242" lon="-75.7515841"><ele>51.60000000000001</ele><time>2026-04-18T12:58:02.693Z</time></trkpt><trkpt lat="9.3729826" lon="-75.7515086"><ele>50.4</ele><time>2026-04-18T12:58:03.692Z</time></trkpt><trkpt lat="9.3730414" lon="-75.7514328"><ele>49.2</ele><time>2026-04-18T12:58:04.695Z</time></trkpt><trkpt lat="9.3730999" lon="-75.751363"><ele>48.0</ele><time>2026-04-18T12:58:05.695Z</time></trkpt><trkpt lat="9.3731586" lon="-75.7512983"><ele>47.666666666666664</ele><time>2026-04-18T12:58:06.695Z</time></trkpt><trkpt lat="9.3732141" lon="-75.7512316"><ele>47.333333333333336</ele><time>2026-04-18T12:58:07.695Z</time></trkpt><trkpt lat="9.3732703" lon="-75.7511612"><ele>47.0</ele><time>2026-04-18T12:58:08.695Z</time></trkpt><trkpt lat="9.3733242" lon="-75.7510946"><ele>46.66666666666667</ele><time>2026-04-18T12:58:09.695Z</time></trkpt><trkpt lat="9.3733821" lon="-75.7510257"><ele>46.333333333333336</ele><time>2026-04-18T12:58:10.693Z</time></trkpt><trkpt lat="9.3734391" lon="-75.7509553"><ele>46.0</ele><time>2026-04-18T12:58:11.695Z</time></trkpt><trkpt lat="9.3734982" lon="-75.7508888"><ele>46.0</ele><time>2026-04-18T12:58:12.693Z</time></trkpt><trkpt lat="9.3735529" lon="-75.7508193"><ele>46.0</ele><time>2026-04-18T12:58:13.693Z</time></trkpt><trkpt lat="9.3736029" lon="-75.7507521"><ele>46.0</ele><time>2026-04-18T12:58:14.693Z</time></trkpt><trkpt lat="9.3736583" lon="-75.750683"><ele>46.0</ele><time>2026-04-18T12:58:15.695Z</time></trkpt><trkpt lat="9.3737116" lon="-75.7506171"><ele>46.0</ele><time>2026-04-18T12:58:16.691Z</time></trkpt><trkpt lat="9.3737625" lon="-75.7505512"><ele>46.0</ele><time>2026-04-18T12:58:17.691Z</time></trkpt><trkpt lat="9.3738177" lon="-75.7504855"><ele>46.0</ele><time>2026-04-18T12:58:18.694Z</time></trkpt><trkpt lat="9.37387" lon="-75.7504184"><ele>46.0</ele><time>2026-04-18T12:58:19.691Z</time></trkpt><trkpt lat="9.3739273" lon="-75.7503513"><ele>46.0</ele><time>2026-04-18T12:58:20.689Z</time></trkpt><trkpt lat="9.3739886" lon="-75.7502807"><ele>46.0</ele><time>2026-04-18T12:58:21.691Z</time></trkpt><trkpt lat="9.3740475" lon="-75.7502067"><ele>46.0</ele><time>2026-04-18T12:58:22.691Z</time></trkpt><trkpt lat="9.374108" lon="-75.7501261"><ele>46.0</ele><time>2026-04-18T12:58:23.691Z</time></trkpt><trkpt lat="9.3741701" lon="-75.7500539"><ele>46.0</ele><time>2026-04-18T12:58:24.69Z</time></trkpt><trkpt lat="9.3742333" lon="-75.749985"><ele>46.0</ele><time>2026-04-18T12:58:25.691Z</time></trkpt><trkpt lat="9.374293" lon="-75.7499141"><ele>46.0</ele><time>2026-04-18T12:58:26.695Z</time></trkpt><trkpt lat="9.3743525" lon="-75.749837"><ele>46.0</ele><time>2026-04-18T12:58:27.695Z</time></trkpt><trkpt lat="9.3744162" lon="-75.7497569"><ele>46.0</ele><time>2026-04-18T12:58:28.69Z</time></trkpt><trkpt lat="9.374484" lon="-75.7496845"><ele>46.0</ele><time>2026-04-18T12:58:29.691Z</time></trkpt><trkpt lat="9.3745471" lon="-75.749605"><ele>46.0</ele><time>2026-04-18T12:58:30.691Z</time></trkpt><trkpt lat="9.3746147" lon="-75.7495241"><ele>46.0</ele><time>2026-04-18T12:58:31.689Z</time></trkpt><trkpt lat="9.3746803" lon="-75.7494438"><ele>46.0</ele><time>2026-04-18T12:58:32.689Z</time></trkpt><trkpt lat="9.3747496" lon="-75.7493629"><ele>43.599999999999994</ele><time>2026-04-18T12:58:33.689Z</time></trkpt><trkpt lat="9.3748156" lon="-75.7492772"><ele>41.199999999999996</ele><time>2026-04-18T12:58:34.695Z</time></trkpt><trkpt lat="9.374884" lon="-75.7491907"><ele>38.8</ele><time>2026-04-18T12:58:35.693Z</time></trkpt><trkpt lat="9.3749523" lon="-75.7491009"><ele>36.4</ele><time>2026-04-18T12:58:36.694Z</time></trkpt><trkpt lat="9.3750204" lon="-75.7490111"><ele>34.0</ele><time>2026-04-18T12:58:37.693Z</time></trkpt><trkpt lat="9.3750905" lon="-75.7489216"><ele>34.0</ele><time>2026-04-18T12:58:38.692Z</time></trkpt><trkpt lat="9.3751632" lon="-75.7488385"><ele>34.0</ele><time>2026-04-18T12:58:39.692Z</time></trkpt><trkpt lat="9.3752327" lon="-75.7487548"><ele>34.0</ele><time>2026-04-18T12:58:40.692Z</time></trkpt><trkpt lat="9.3752987" lon="-75.7486741"><ele>34.0</ele><time>2026-04-18T12:58:41.694Z</time></trkpt><trkpt lat="9.3753619" lon="-75.7485931"><ele>34.0</ele><time>2026-04-18T12:58:42.696Z</time></trkpt><trkpt lat="9.3754294" lon="-75.7485125"><ele>33.833333333333336</ele><time>2026-04-18T12:58:43.693Z</time></trkpt><trkpt lat="9.3754881" lon="-75.7484388"><ele>33.66666666666667</ele><time>2026-04-18T12:58:44.692Z</time></trkpt><trkpt lat="9.3755432" lon="-75.748372"><ele>33.5</ele><time>2026-04-18T12:58:45.693Z</time></trkpt><trkpt lat="9.3755952" lon="-75.7483079"><ele>33.333333333333336</ele><time>2026-04-18T12:58:46.694Z</time></trkpt><trkpt lat="9.3756483" lon="-75.7482492"><ele>33.166666666666664</ele><time>2026-04-18T12:58:47.694Z</time></trkpt><trkpt lat="9.375691" lon="-75.7481896"><ele>33.0</ele><time>2026-04-18T12:58:48.691Z</time></trkpt><trkpt lat="9.3757314" lon="-75.7481399"><ele>33.0</ele><time>2026-04-18T12:58:49.69Z</time></trkpt><trkpt lat="9.3758113" lon="-75.748054"><ele>33.0</ele><time>2026-04-18T12:58:51.693Z</time></trkpt><trkpt lat="9.3758741" lon="-75.7479722"><ele>33.0</ele><time>2026-04-18T12:58:53.691Z</time></trkpt><trkpt lat="9.3759366" lon="-75.7478969"><ele>33.0</ele><time>2026-04-18T12:58:55.693Z</time></trkpt><trkpt lat="9.376" lon="-75.7478224"><ele>33.0</ele><time>2026-04-18T12:58:57.694Z</time></trkpt><trkpt lat="9.3760554" lon="-75.7477517"><ele>34.333333333333336</ele><time>2026-04-18T12:58:59.694Z</time></trkpt><trkpt lat="9.3761085" lon="-75.7476865"><ele>35.666666666666664</ele><time>2026-04-18T12:59:01.695Z</time></trkpt><trkpt lat="9.3761652" lon="-75.7476251"><ele>37.0</ele><time>2026-04-18T12:59:03.693Z</time></trkpt><trkpt lat="9.3762178" lon="-75.7475672"><ele>38.33333333333333</ele><time>2026-04-18T12:59:05.694Z</time></trkpt><trkpt lat="9.3762707" lon="-75.747509"><ele>39.666666666666664</ele><time>2026-04-18T12:59:07.696Z</time></trkpt><trkpt lat="9.3763173" lon="-75.7474468"><ele>41.0</ele><time>2026-04-18T12:59:09.695Z</time></trkpt><trkpt lat="9.3763645" lon="-75.7473822"><ele>41.33333333333333</ele><time>2026-04-18T12:59:11.694Z</time></trkpt><trkpt lat="9.3764125" lon="-75.7473192"><ele>41.666666666666664</ele><time>2026-04-18T12:59:13.695Z</time></trkpt><trkpt lat="9.376463" lon="-75.7472558"><ele>42.0</ele><time>2026-04-18T12:59:15.694Z</time></trkpt><trkpt lat="9.3765121" lon="-75.7471944"><ele>42.333333333333336</ele><time>2026-04-18T12:59:17.696Z</time></trkpt><trkpt lat="9.3765618" lon="-75.7471327"><ele>42.66666666666667</ele><time>2026-04-18T12:59:19.694Z</time></trkpt><trkpt lat="9.3766089" lon="-75.7470711"><ele>43.0</ele><time>2026-04-18T12:59:21.694Z</time></trkpt><trkpt lat="9.3766585" lon="-75.7470069"><ele>43.0</ele><time>2026-04-18T12:59:23.692Z</time></trkpt><trkpt lat="9.3767101" lon="-75.7469447"><ele>43.0</ele><time>2026-04-18T12:59:25.696Z</time></trkpt><trkpt lat="9.3767628" lon="-75.7468842"><ele>43.0</ele><time>2026-04-18T12:59:27.692Z</time></trkpt><trkpt lat="9.3768155" lon="-75.7468204"><ele>43.0</ele><time>2026-04-18T12:59:29.69Z</time></trkpt><trkpt lat="9.3768707" lon="-75.7467568"><ele>43.0</ele><time>2026-04-18T12:59:31.694Z</time></trkpt><trkpt lat="9.3769228" lon="-75.7466938"><ele>43.0</ele><time>2026-04-18T12:59:33.692Z</time></trkpt><trkpt lat="9.376977" lon="-75.7466299"><ele>44.333333333333336</ele><time>2026-04-18T12:59:35.694Z</time></trkpt><trkpt lat="9.3770295" lon="-75.7465626"><ele>45.66666666666667</ele><time>2026-04-18T12:59:37.693Z</time></trkpt><trkpt lat="9.3770832" lon="-75.7464961"><ele>47.0</ele><time>2026-04-18T12:59:39.695Z</time></trkpt><trkpt lat="9.3771372" lon="-75.7464287"><ele>48.333333333333336</ele><time>2026-04-18T12:59:41.693Z</time></trkpt><trkpt lat="9.3771948" lon="-75.7463572"><ele>49.666666666666664</ele><time>2026-04-18T12:59:43.695Z</time></trkpt><trkpt lat="9.3772565" lon="-75.7462888"><ele>51.0</ele><time>2026-04-18T12:59:45.69Z</time></trkpt><trkpt lat="9.3773163" lon="-75.7462167"><ele>50.8</ele><time>2026-04-18T12:59:47.691Z</time></trkpt><trkpt lat="9.3773779" lon="-75.7461422"><ele>50.599999999999994</ele><time>2026-04-18T12:59:49.693Z</time></trkpt><trkpt lat="9.3774435" lon="-75.7460662"><ele>50.4</ele><time>2026-04-18T12:59:51.694Z</time></trkpt><trkpt lat="9.3775075" lon="-75.745985"><ele>50.2</ele><time>2026-04-18T12:59:53.696Z</time></trkpt><trkpt lat="9.3775735" lon="-75.7459056"><ele>50.0</ele><time>2026-04-18T12:59:55.695Z</time></trkpt><trkpt lat="9.3776423" lon="-75.7458203"><ele>50.0</ele><time>2026-04-18T12:59:57.693Z</time></trkpt><trkpt lat="9.3777146" lon="-75.7457333"><ele>50.0</ele><time>2026-04-18T12:59:59.694Z</time></trkpt><trkpt lat="9.3777877" lon="-75.7456442"><ele>50.0</ele><time>2026-04-18T13:00:01.696Z</time></trkpt><trkpt lat="9.3778619" lon="-75.7455471"><ele>50.0</ele><time>2026-04-18T13:00:03.694Z</time></trkpt><trkpt lat="9.377904" lon="-75.7454969"><ele>50.0</ele><time>2026-04-18T13:00:04.692Z</time></trkpt><trkpt lat="9.3779451" lon="-75.7454458"><ele>50.00000000000001</ele><time>2026-04-18T13:00:05.695Z</time></trkpt><trkpt lat="9.37799" lon="-75.7453936"><ele>50.0</ele><time>2026-04-18T13:00:06.691Z</time></trkpt><trkpt lat="9.3780337" lon="-75.7453407"><ele>50.0</ele><time>2026-04-18T13:00:07.695Z</time></trkpt><trkpt lat="9.3780791" lon="-75.7452848"><ele>50.0</ele><time>2026-04-18T13:00:08.693Z</time></trkpt><trkpt lat="9.3781259" lon="-75.7452285"><ele>50.0</ele><time>2026-04-18T13:00:09.695Z</time></trkpt><trkpt lat="9.3781726" lon="-75.7451707"><ele>50.00000000000001</ele><time>2026-04-18T13:00:10.69Z</time></trkpt><trkpt lat="9.3782205" lon="-75.7451107"><ele>50.0</ele><time>2026-04-18T13:00:11.692Z</time></trkpt><trkpt lat="9.3782701" lon="-75.7450506"><ele>49.00000000000001</ele><time>2026-04-18T13:00:12.691Z</time></trkpt><trkpt lat="9.3783195" lon="-75.744991"><ele>48.0</ele><time>2026-04-18T13:00:13.695Z</time></trkpt><trkpt lat="9.3783687" lon="-75.7449289"><ele>47.0</ele><time>2026-04-18T13:00:14.691Z</time></trkpt><trkpt lat="9.3784181" lon="-75.7448649"><ele>46.0</ele><time>2026-04-18T13:00:15.693Z</time></trkpt><trkpt lat="9.378468" lon="-75.7448005"><ele>45.0</ele><time>2026-04-18T13:00:16.692Z</time></trkpt><trkpt lat="9.3785188" lon="-75.7447353"><ele>44.0</ele><time>2026-04-18T13:00:17.695Z</time></trkpt><trkpt lat="9.3785713" lon="-75.7446681"><ele>44.0</ele><time>2026-04-18T13:00:18.688Z</time></trkpt><trkpt lat="9.3786257" lon="-75.744603"><ele>44.0</ele><time>2026-04-18T13:00:19.689Z</time></trkpt><trkpt lat="9.3786802" lon="-75.7445355"><ele>44.0</ele><time>2026-04-18T13:00:20.69Z</time></trkpt><trkpt lat="9.3787371" lon="-75.7444688"><ele>44.0</ele><time>2026-04-18T13:00:21.693Z</time></trkpt><trkpt lat="9.378797" lon="-75.7444011"><ele>44.0</ele><time>2026-04-18T13:00:22.69Z</time></trkpt><trkpt lat="9.3788558" lon="-75.744332"><ele>44.0</ele><time>2026-04-18T13:00:23.693Z</time></trkpt><trkpt lat="9.3789135" lon="-75.7442625"><ele>43.400000000000006</ele><time>2026-04-18T13:00:24.693Z</time></trkpt><trkpt lat="9.3789738" lon="-75.7441918"><ele>42.8</ele><time>2026-04-18T13:00:25.693Z</time></trkpt><trkpt lat="9.3790338" lon="-75.7441211"><ele>42.2</ele><time>2026-04-18T13:00:26.695Z</time></trkpt><trkpt lat="9.3790939" lon="-75.7440499"><ele>41.599999999999994</ele><time>2026-04-18T13:00:27.691Z</time></trkpt><trkpt lat="9.3791543" lon="-75.7439791"><ele>41.0</ele><time>2026-04-18T13:00:28.692Z</time></trkpt><trkpt lat="9.3792098" lon="-75.7439111"><ele>41.0</ele><time>2026-04-18T13:00:29.693Z</time></trkpt><trkpt lat="9.3792645" lon="-75.7438442"><ele>41.0</ele><time>2026-04-18T13:00:30.69Z</time></trkpt><trkpt lat="9.3793198" lon="-75.7437772"><ele>41.0</ele><time>2026-04-18T13:00:31.693Z</time></trkpt><trkpt lat="9.3793748" lon="-75.7437102"><ele>41.0</ele><time>2026-04-18T13:00:32.695Z</time></trkpt><trkpt lat="9.3794309" lon="-75.7436425"><ele>41.0</ele><time>2026-04-18T13:00:33.695Z</time></trkpt><trkpt lat="9.3794846" lon="-75.7435775"><ele>41.0</ele><time>2026-04-18T13:00:34.689Z</time></trkpt><trkpt lat="9.3795382" lon="-75.7435129"><ele>41.14285714285714</ele><time>2026-04-18T13:00:35.69Z</time></trkpt><trkpt lat="9.37959" lon="-75.7434504"><ele>41.285714285714285</ele><time>2026-04-18T13:00:36.692Z</time></trkpt><trkpt lat="9.3796414" lon="-75.7433887"><ele>41.42857142857143</ele><time>2026-04-18T13:00:37.69Z</time></trkpt><trkpt lat="9.3796883" lon="-75.7433302"><ele>41.57142857142857</ele><time>2026-04-18T13:00:38.69Z</time></trkpt><trkpt lat="9.3797356" lon="-75.7432718"><ele>41.714285714285715</ele><time>2026-04-18T13:00:39.695Z</time></trkpt><trkpt lat="9.3797794" lon="-75.7432178"><ele>41.857142857142854</ele><time>2026-04-18T13:00:40.696Z</time></trkpt><trkpt lat="9.379823" lon="-75.7431649"><ele>42.0</ele><time>2026-04-18T13:00:41.692Z</time></trkpt><trkpt lat="9.3798653" lon="-75.7431132"><ele>41.333333333333336</ele><time>2026-04-18T13:00:42.695Z</time></trkpt><trkpt lat="9.3799071" lon="-75.7430636"><ele>40.666666666666664</ele><time>2026-04-18T13:00:43.693Z</time></trkpt><trkpt lat="9.379947" lon="-75.7430134"><ele>40.0</ele><time>2026-04-18T13:00:44.695Z</time></trkpt><trkpt lat="9.3799892" lon="-75.742963"><ele>39.33333333333333</ele><time>2026-04-18T13:00:45.693Z</time></trkpt><trkpt lat="9.3800683" lon="-75.7428655"><ele>38.666666666666664</ele><time>2026-04-18T13:00:47.695Z</time></trkpt><trkpt lat="9.3801532" lon="-75.742771"><ele>38.0</ele><time>2026-04-18T13:00:49.696Z</time></trkpt><trkpt lat="9.3801944" lon="-75.7427226"><ele>38.75</ele><time>2026-04-18T13:00:50.69Z</time></trkpt><trkpt lat="9.3802705" lon="-75.7426252"><ele>39.5</ele><time>2026-04-18T13:00:52.694Z</time></trkpt><trkpt lat="9.3803427" lon="-75.7425352"><ele>40.25</ele><time>2026-04-18T13:00:54.688Z</time></trkpt><trkpt lat="9.3804223" lon="-75.7424367"><ele>41.0</ele><time>2026-04-18T13:00:56.691Z</time></trkpt><trkpt lat="9.3804992" lon="-75.742342"><ele>40.8</ele><time>2026-04-18T13:00:58.69Z</time></trkpt><trkpt lat="9.3805768" lon="-75.7422479"><ele>40.599999999999994</ele><time>2026-04-18T13:01:00.69Z</time></trkpt><trkpt lat="9.3806174" lon="-75.7421959"><ele>40.4</ele><time>2026-04-18T13:01:01.692Z</time></trkpt><trkpt lat="9.3806979" lon="-75.7421078"><ele>40.2</ele><time>2026-04-18T13:01:03.696Z</time></trkpt><trkpt lat="9.3807762" lon="-75.7420134"><ele>40.0</ele><time>2026-04-18T13:01:05.689Z</time></trkpt><trkpt lat="9.3808622" lon="-75.7419154"><ele>40.16666666666667</ele><time>2026-04-18T13:01:07.69Z</time></trkpt><trkpt lat="9.3809072" lon="-75.7418648"><ele>40.333333333333336</ele><time>2026-04-18T13:01:08.696Z</time></trkpt><trkpt lat="9.3809499" lon="-75.7418085"><ele>40.5</ele><time>2026-04-18T13:01:09.687Z</time></trkpt><trkpt lat="9.3809952" lon="-75.7417488"><ele>40.666666666666664</ele><time>2026-04-18T13:01:10.691Z</time></trkpt><trkpt lat="9.3810446" lon="-75.7416901"><ele>40.83333333333333</ele><time>2026-04-18T13:01:11.691Z</time></trkpt><trkpt lat="9.3810993" lon="-75.7416231"><ele>41.0</ele><time>2026-04-18T13:01:12.689Z</time></trkpt><trkpt lat="9.3811541" lon="-75.7415568"><ele>41.0</ele><time>2026-04-18T13:01:13.689Z</time></trkpt><trkpt lat="9.3812103" lon="-75.741488"><ele>41.0</ele><time>2026-04-18T13:01:14.692Z</time></trkpt><trkpt lat="9.3812717" lon="-75.7414172"><ele>41.0</ele><time>2026-04-18T13:01:15.692Z</time></trkpt><trkpt lat="9.3813349" lon="-75.741342"><ele>41.0</ele><time>2026-04-18T13:01:16.695Z</time></trkpt><trkpt lat="9.3813974" lon="-75.7412629"><ele>41.0</ele><time>2026-04-18T13:01:17.693Z</time></trkpt><trkpt lat="9.3814596" lon="-75.7411791"><ele>40.4</ele><time>2026-04-18T13:01:18.691Z</time></trkpt><trkpt lat="9.381519" lon="-75.7410913"><ele>39.8</ele><time>2026-04-18T13:01:19.693Z</time></trkpt><trkpt lat="9.3815883" lon="-75.7410034"><ele>39.199999999999996</ele><time>2026-04-18T13:01:20.693Z</time></trkpt><trkpt lat="9.3816598" lon="-75.7409149"><ele>38.599999999999994</ele><time>2026-04-18T13:01:21.692Z</time></trkpt><trkpt lat="9.3817321" lon="-75.7408253"><ele>38.0</ele><time>2026-04-18T13:01:22.693Z</time></trkpt><trkpt lat="9.3818026" lon="-75.7407378"><ele>36.25</ele><time>2026-04-18T13:01:23.694Z</time></trkpt><trkpt lat="9.3818836" lon="-75.7406417"><ele>34.5</ele><time>2026-04-18T13:01:24.692Z</time></trkpt><trkpt lat="9.3819586" lon="-75.7405534"><ele>32.75</ele><time>2026-04-18T13:01:25.694Z</time></trkpt><trkpt lat="9.3820359" lon="-75.7404587"><ele>31.0</ele><time>2026-04-18T13:01:26.691Z</time></trkpt><trkpt lat="9.3821155" lon="-75.740369"><ele>31.25</ele><time>2026-04-18T13:01:27.689Z</time></trkpt><trkpt lat="9.3821942" lon="-75.7402699"><ele>31.5</ele><time>2026-04-18T13:01:28.69Z</time></trkpt><trkpt lat="9.382272" lon="-75.740172"><ele>31.75</ele><time>2026-04-18T13:01:29.694Z</time></trkpt><trkpt lat="9.3823458" lon="-75.7400735"><ele>32.0</ele><time>2026-04-18T13:01:30.694Z</time></trkpt><trkpt lat="9.3824221" lon="-75.7399826"><ele>30.5</ele><time>2026-04-18T13:01:31.692Z</time></trkpt><trkpt lat="9.3824962" lon="-75.7398898"><ele>29.0</ele><time>2026-04-18T13:01:32.693Z</time></trkpt><trkpt lat="9.3825751" lon="-75.7398011"><ele>27.5</ele><time>2026-04-18T13:01:33.69Z</time></trkpt><trkpt lat="9.3826506" lon="-75.7397162"><ele>26.0</ele><time>2026-04-18T13:01:34.692Z</time></trkpt><trkpt lat="9.3827233" lon="-75.7396268"><ele>26.0</ele><time>2026-04-18T13:01:35.693Z</time></trkpt><trkpt lat="9.3827947" lon="-75.7395396"><ele>26.0</ele><time>2026-04-18T13:01:36.693Z</time></trkpt><trkpt lat="9.3828609" lon="-75.7394544"><ele>26.0</ele><time>2026-04-18T13:01:37.693Z</time></trkpt><trkpt lat="9.3829321" lon="-75.739373"><ele>26.0</ele><time>2026-04-18T13:01:38.695Z</time></trkpt><trkpt lat="9.3829965" lon="-75.7392956"><ele>26.0</ele><time>2026-04-18T13:01:39.695Z</time></trkpt><trkpt lat="9.3830595" lon="-75.7392166"><ele>25.6</ele><time>2026-04-18T13:01:40.69Z</time></trkpt><trkpt lat="9.3831149" lon="-75.7391422"><ele>25.200000000000003</ele><time>2026-04-18T13:01:41.692Z</time></trkpt><trkpt lat="9.3831749" lon="-75.73907"><ele>24.799999999999997</ele><time>2026-04-18T13:01:42.692Z</time></trkpt><trkpt lat="9.3832351" lon="-75.7389994"><ele>24.4</ele><time>2026-04-18T13:01:43.694Z</time></trkpt><trkpt lat="9.3832945" lon="-75.7389249"><ele>24.0</ele><time>2026-04-18T13:01:44.694Z</time></trkpt><trkpt lat="9.3833511" lon="-75.7388561"><ele>24.0</ele><time>2026-04-18T13:01:45.692Z</time></trkpt><trkpt lat="9.3834069" lon="-75.7387917"><ele>24.0</ele><time>2026-04-18T13:01:46.695Z</time></trkpt><trkpt lat="9.3834609" lon="-75.738727"><ele>24.0</ele><time>2026-04-18T13:01:47.693Z</time></trkpt><trkpt lat="9.3835132" lon="-75.7386617"><ele>24.0</ele><time>2026-04-18T13:01:48.696Z</time></trkpt><trkpt lat="9.383562" lon="-75.7385952"><ele>24.0</ele><time>2026-04-18T13:01:49.696Z</time></trkpt><trkpt lat="9.383616" lon="-75.7385309"><ele>24.0</ele><time>2026-04-18T13:01:50.693Z</time></trkpt><trkpt lat="9.3836687" lon="-75.7384693"><ele>24.333333333333332</ele><time>2026-04-18T13:01:51.695Z</time></trkpt><trkpt lat="9.3837218" lon="-75.7384065"><ele>24.666666666666664</ele><time>2026-04-18T13:01:52.695Z</time></trkpt><trkpt lat="9.3837745" lon="-75.7383401"><ele>25.0</ele><time>2026-04-18T13:01:53.692Z</time></trkpt><trkpt lat="9.383825" lon="-75.7382738"><ele>25.333333333333332</ele><time>2026-04-18T13:01:54.693Z</time></trkpt><trkpt lat="9.3838812" lon="-75.7381962"><ele>25.666666666666664</ele><time>2026-04-18T13:01:55.692Z</time></trkpt><trkpt lat="9.3839296" lon="-75.7381361"><ele>26.0</ele><time>2026-04-18T13:01:56.692Z</time></trkpt><trkpt lat="9.3839814" lon="-75.7380718"><ele>25.999999999999996</ele><time>2026-04-18T13:01:57.693Z</time></trkpt><trkpt lat="9.3840387" lon="-75.7380121"><ele>26.0</ele><time>2026-04-18T13:01:58.692Z</time></trkpt><trkpt lat="9.384086" lon="-75.7379512"><ele>26.0</ele><time>2026-04-18T13:01:59.692Z</time></trkpt><trkpt lat="9.3841347" lon="-75.7378939"><ele>26.0</ele><time>2026-04-18T13:02:00.693Z</time></trkpt><trkpt lat="9.3841849" lon="-75.7378307"><ele>25.999999999999996</ele><time>2026-04-18T13:02:01.694Z</time></trkpt><trkpt lat="9.3842365" lon="-75.7377644"><ele>26.0</ele><time>2026-04-18T13:02:02.694Z</time></trkpt><trkpt lat="9.3842858" lon="-75.7377061"><ele>26.666666666666664</ele><time>2026-04-18T13:02:03.693Z</time></trkpt><trkpt lat="9.3843364" lon="-75.737647"><ele>27.333333333333332</ele><time>2026-04-18T13:02:04.693Z</time></trkpt><trkpt lat="9.3843867" lon="-75.7375816"><ele>28.0</ele><time>2026-04-18T13:02:05.692Z</time></trkpt><trkpt lat="9.3844363" lon="-75.7375224"><ele>28.666666666666664</ele><time>2026-04-18T13:02:06.692Z</time></trkpt><trkpt lat="9.3844893" lon="-75.73746"><ele>29.333333333333332</ele><time>2026-04-18T13:02:07.692Z</time></trkpt><trkpt lat="9.3845414" lon="-75.7374001"><ele>30.0</ele><time>2026-04-18T13:02:08.691Z</time></trkpt><trkpt lat="9.3845964" lon="-75.7373378"><ele>30.0</ele><time>2026-04-18T13:02:09.692Z</time></trkpt><trkpt lat="9.3846527" lon="-75.7372752"><ele>30.0</ele><time>2026-04-18T13:02:10.694Z</time></trkpt><trkpt lat="9.3847106" lon="-75.7372074"><ele>30.0</ele><time>2026-04-18T13:02:11.695Z</time></trkpt><trkpt lat="9.3847682" lon="-75.7371369"><ele>30.0</ele><time>2026-04-18T13:02:12.687Z</time></trkpt><trkpt lat="9.3848245" lon="-75.7370643"><ele>30.0</ele><time>2026-04-18T13:02:13.693Z</time></trkpt><trkpt lat="9.384882" lon="-75.7369907"><ele>30.0</ele><time>2026-04-18T13:02:14.691Z</time></trkpt><trkpt lat="9.3849394" lon="-75.7369161"><ele>28.8</ele><time>2026-04-18T13:02:15.689Z</time></trkpt><trkpt lat="9.3849996" lon="-75.7368427"><ele>27.6</ele><time>2026-04-18T13:02:16.689Z</time></trkpt><trkpt lat="9.3850634" lon="-75.7367666"><ele>26.4</ele><time>2026-04-18T13:02:17.691Z</time></trkpt><trkpt lat="9.3851204" lon="-75.7366913"><ele>25.2</ele><time>2026-04-18T13:02:18.689Z</time></trkpt><trkpt lat="9.3851794" lon="-75.7366158"><ele>24.0</ele><time>2026-04-18T13:02:19.691Z</time></trkpt><trkpt lat="9.3852385" lon="-75.7365412"><ele>24.0</ele><time>2026-04-18T13:02:20.694Z</time></trkpt><trkpt lat="9.3853043" lon="-75.7364633"><ele>24.0</ele><time>2026-04-18T13:02:21.693Z</time></trkpt><trkpt lat="9.3853676" lon="-75.7363892"><ele>24.0</ele><time>2026-04-18T13:02:22.693Z</time></trkpt><trkpt lat="9.3854279" lon="-75.7363123"><ele>24.0</ele><time>2026-04-18T13:02:23.695Z</time></trkpt><trkpt lat="9.385495" lon="-75.7362339"><ele>24.0</ele><time>2026-04-18T13:02:24.693Z</time></trkpt><trkpt lat="9.3855585" lon="-75.7361574"><ele>24.2</ele><time>2026-04-18T13:02:25.694Z</time></trkpt><trkpt lat="9.3856211" lon="-75.7360798"><ele>24.4</ele><time>2026-04-18T13:02:26.692Z</time></trkpt><trkpt lat="9.3856864" lon="-75.736"><ele>24.6</ele><time>2026-04-18T13:02:27.695Z</time></trkpt><trkpt lat="9.3857492" lon="-75.7359236"><ele>24.8</ele><time>2026-04-18T13:02:28.695Z</time></trkpt><trkpt lat="9.3858059" lon="-75.735851"><ele>25.0</ele><time>2026-04-18T13:02:29.693Z</time></trkpt><trkpt lat="9.3858642" lon="-75.73578"><ele>25.2</ele><time>2026-04-18T13:02:30.691Z</time></trkpt><trkpt lat="9.3859244" lon="-75.7357115"><ele>25.4</ele><time>2026-04-18T13:02:31.691Z</time></trkpt><trkpt lat="9.3859844" lon="-75.7356398"><ele>25.6</ele><time>2026-04-18T13:02:32.693Z</time></trkpt><trkpt lat="9.3860464" lon="-75.7355703"><ele>25.8</ele><time>2026-04-18T13:02:33.693Z</time></trkpt><trkpt lat="9.3861039" lon="-75.7354987"><ele>26.0</ele><time>2026-04-18T13:02:34.69Z</time></trkpt><trkpt lat="9.3861643" lon="-75.7354276"><ele>25.999999999999996</ele><time>2026-04-18T13:02:35.693Z</time></trkpt><trkpt lat="9.3862233" lon="-75.7353561"><ele>26.0</ele><time>2026-04-18T13:02:36.69Z</time></trkpt><trkpt lat="9.3862794" lon="-75.7352876"><ele>26.0</ele><time>2026-04-18T13:02:37.69Z</time></trkpt><trkpt lat="9.3863361" lon="-75.7352185"><ele>26.0</ele><time>2026-04-18T13:02:38.693Z</time></trkpt><trkpt lat="9.3863924" lon="-75.7351524"><ele>25.999999999999996</ele><time>2026-04-18T13:02:39.691Z</time></trkpt><trkpt lat="9.3864476" lon="-75.735084"><ele>26.0</ele><time>2026-04-18T13:02:40.689Z</time></trkpt><trkpt lat="9.3865012" lon="-75.7350161"><ele>25.999999999999996</ele><time>2026-04-18T13:02:41.693Z</time></trkpt><trkpt lat="9.386554" lon="-75.7349488"><ele>26.0</ele><time>2026-04-18T13:02:42.692Z</time></trkpt><trkpt lat="9.3866055" lon="-75.734884"><ele>26.0</ele><time>2026-04-18T13:02:43.695Z</time></trkpt><trkpt lat="9.3866558" lon="-75.7348228"><ele>26.0</ele><time>2026-04-18T13:02:44.692Z</time></trkpt><trkpt lat="9.3867071" lon="-75.7347621"><ele>25.999999999999996</ele><time>2026-04-18T13:02:45.692Z</time></trkpt><trkpt lat="9.3867541" lon="-75.7347043"><ele>26.0</ele><time>2026-04-18T13:02:46.693Z</time></trkpt><trkpt lat="9.3868006" lon="-75.734648"><ele>25.999999999999996</ele><time>2026-04-18T13:02:47.691Z</time></trkpt><trkpt lat="9.3868455" lon="-75.7345917"><ele>26.0</ele><time>2026-04-18T13:02:48.691Z</time></trkpt><trkpt lat="9.3868915" lon="-75.7345397"><ele>26.0</ele><time>2026-04-18T13:02:49.688Z</time></trkpt><trkpt lat="9.3869362" lon="-75.7344889"><ele>26.0</ele><time>2026-04-18T13:02:50.688Z</time></trkpt><trkpt lat="9.3869819" lon="-75.7344397"><ele>25.999999999999996</ele><time>2026-04-18T13:02:51.69Z</time></trkpt><trkpt lat="9.3870265" lon="-75.7343929"><ele>26.0</ele><time>2026-04-18T13:02:52.695Z</time></trkpt><trkpt lat="9.3871058" lon="-75.7343025"><ele>27.0</ele><time>2026-04-18T13:02:54.695Z</time></trkpt><trkpt lat="9.3871779" lon="-75.7342065"><ele>28.0</ele><time>2026-04-18T13:02:56.691Z</time></trkpt><trkpt lat="9.3872505" lon="-75.7341236"><ele>29.0</ele><time>2026-04-18T13:02:58.693Z</time></trkpt><trkpt lat="9.3873213" lon="-75.7340423"><ele>30.0</ele><time>2026-04-18T13:03:00.696Z</time></trkpt><trkpt lat="9.3873878" lon="-75.7339618"><ele>31.0</ele><time>2026-04-18T13:03:02.688Z</time></trkpt><trkpt lat="9.3874513" lon="-75.7338862"><ele>31.0</ele><time>2026-04-18T13:03:04.689Z</time></trkpt><trkpt lat="9.3875091" lon="-75.7338089"><ele>31.0</ele><time>2026-04-18T13:03:06.686Z</time></trkpt><trkpt lat="9.3875722" lon="-75.7337334"><ele>31.0</ele><time>2026-04-18T13:03:08.695Z</time></trkpt><trkpt lat="9.3876275" lon="-75.7336522"><ele>31.0</ele><time>2026-04-18T13:03:10.688Z</time></trkpt><trkpt lat="9.3876954" lon="-75.7335824"><ele>31.0</ele><time>2026-04-18T13:03:12.692Z</time></trkpt><trkpt lat="9.3877578" lon="-75.7335059"><ele>31.4</ele><time>2026-04-18T13:03:14.693Z</time></trkpt><trkpt lat="9.3878244" lon="-75.7334331"><ele>31.8</ele><time>2026-04-18T13:03:16.693Z</time></trkpt><trkpt lat="9.387891" lon="-75.7333565"><ele>32.199999999999996</ele><time>2026-04-18T13:03:18.695Z</time></trkpt><trkpt lat="9.3879583" lon="-75.7332646"><ele>32.6</ele><time>2026-04-18T13:03:20.69Z</time></trkpt><trkpt lat="9.3880238" lon="-75.7331865"><ele>33.0</ele><time>2026-04-18T13:03:22.694Z</time></trkpt><trkpt lat="9.3880946" lon="-75.7331015"><ele>33.0</ele><time>2026-04-18T13:03:24.691Z</time></trkpt><trkpt lat="9.3881681" lon="-75.7330093"><ele>33.0</ele><time>2026-04-18T13:03:26.69Z</time></trkpt><trkpt lat="9.3882395" lon="-75.7329155"><ele>33.0</ele><time>2026-04-18T13:03:28.692Z</time></trkpt><trkpt lat="9.3883205" lon="-75.7328212"><ele>33.0</ele><time>2026-04-18T13:03:30.692Z</time></trkpt><trkpt lat="9.3884034" lon="-75.7327217"><ele>33.14285714285714</ele><time>2026-04-18T13:03:32.691Z</time></trkpt><trkpt lat="9.388445" lon="-75.732669"><ele>33.285714285714285</ele><time>2026-04-18T13:03:33.693Z</time></trkpt><trkpt lat="9.3884886" lon="-75.7326136"><ele>33.42857142857143</ele><time>2026-04-18T13:03:34.692Z</time></trkpt><trkpt lat="9.3885309" lon="-75.7325592"><ele>33.57142857142857</ele><time>2026-04-18T13:03:35.694Z</time></trkpt><trkpt lat="9.3885748" lon="-75.7325048"><ele>33.714285714285715</ele><time>2026-04-18T13:03:36.693Z</time></trkpt><trkpt lat="9.3886195" lon="-75.7324462"><ele>33.857142857142854</ele><time>2026-04-18T13:03:37.691Z</time></trkpt><trkpt lat="9.3886686" lon="-75.7323848"><ele>34.0</ele><time>2026-04-18T13:03:38.692Z</time></trkpt><trkpt lat="9.3887225" lon="-75.7323231"><ele>34.0</ele><time>2026-04-18T13:03:39.69Z</time></trkpt><trkpt lat="9.3887753" lon="-75.7322608"><ele>34.0</ele><time>2026-04-18T13:03:40.694Z</time></trkpt><trkpt lat="9.388829" lon="-75.7321951"><ele>34.0</ele><time>2026-04-18T13:03:41.692Z</time></trkpt><trkpt lat="9.3888865" lon="-75.7321281"><ele>34.0</ele><time>2026-04-18T13:03:42.693Z</time></trkpt><trkpt lat="9.3889431" lon="-75.7320635"><ele>34.0</ele><time>2026-04-18T13:03:43.695Z</time></trkpt><trkpt lat="9.3889999" lon="-75.7319964"><ele>34.0</ele><time>2026-04-18T13:03:44.694Z</time></trkpt><trkpt lat="9.3890574" lon="-75.7319299"><ele>33.333333333333336</ele><time>2026-04-18T13:03:45.695Z</time></trkpt><trkpt lat="9.3891176" lon="-75.7318658"><ele>32.66666666666667</ele><time>2026-04-18T13:03:46.694Z</time></trkpt><trkpt lat="9.3891735" lon="-75.7317927"><ele>32.0</ele><time>2026-04-18T13:03:47.69Z</time></trkpt><trkpt lat="9.3892272" lon="-75.7317231"><ele>31.333333333333336</ele><time>2026-04-18T13:03:48.695Z</time></trkpt><trkpt lat="9.3892792" lon="-75.7316547"><ele>30.666666666666668</ele><time>2026-04-18T13:03:49.695Z</time></trkpt><trkpt lat="9.3893358" lon="-75.7315815"><ele>30.0</ele><time>2026-04-18T13:03:50.69Z</time></trkpt><trkpt lat="9.3893901" lon="-75.7315065"><ele>30.0</ele><time>2026-04-18T13:03:51.688Z</time></trkpt><trkpt lat="9.3894468" lon="-75.7314365"><ele>30.0</ele><time>2026-04-18T13:03:52.695Z</time></trkpt><trkpt lat="9.3895047" lon="-75.7313649"><ele>30.0</ele><time>2026-04-18T13:03:53.695Z</time></trkpt><trkpt lat="9.3895622" lon="-75.7312945"><ele>30.0</ele><time>2026-04-18T13:03:54.69Z</time></trkpt><trkpt lat="9.38962" lon="-75.731226"><ele>30.0</ele><time>2026-04-18T13:03:55.692Z</time></trkpt><trkpt lat="9.3896788" lon="-75.7311566"><ele>29.666666666666668</ele><time>2026-04-18T13:03:56.687Z</time></trkpt><trkpt lat="9.3897362" lon="-75.7310858"><ele>29.333333333333336</ele><time>2026-04-18T13:03:57.691Z</time></trkpt><trkpt lat="9.3897927" lon="-75.7310207"><ele>29.0</ele><time>2026-04-18T13:03:58.691Z</time></trkpt><trkpt lat="9.3898525" lon="-75.7309537"><ele>28.666666666666668</ele><time>2026-04-18T13:03:59.691Z</time></trkpt><trkpt lat="9.3899127" lon="-75.7308818"><ele>28.333333333333336</ele><time>2026-04-18T13:04:00.694Z</time></trkpt><trkpt lat="9.3899679" lon="-75.7308131"><ele>28.0</ele><time>2026-04-18T13:04:01.695Z</time></trkpt><trkpt lat="9.3900246" lon="-75.7307452"><ele>28.000000000000004</ele><time>2026-04-18T13:04:02.696Z</time></trkpt><trkpt lat="9.39008" lon="-75.7306776"><ele>28.0</ele><time>2026-04-18T13:04:03.693Z</time></trkpt><trkpt lat="9.3901341" lon="-75.7306113"><ele>28.0</ele><time>2026-04-18T13:04:04.694Z</time></trkpt><trkpt lat="9.3901879" lon="-75.7305445"><ele>28.0</ele><time>2026-04-18T13:04:05.691Z</time></trkpt><trkpt lat="9.3902403" lon="-75.7304781"><ele>28.000000000000004</ele><time>2026-04-18T13:04:06.69Z</time></trkpt><trkpt lat="9.3902981" lon="-75.7304093"><ele>28.0</ele><time>2026-04-18T13:04:07.691Z</time></trkpt><trkpt lat="9.3903565" lon="-75.7303374"><ele>28.000000000000004</ele><time>2026-04-18T13:04:08.69Z</time></trkpt><trkpt lat="9.3904149" lon="-75.7302669"><ele>28.0</ele><time>2026-04-18T13:04:09.69Z</time></trkpt><trkpt lat="9.3904695" lon="-75.7301982"><ele>28.0</ele><time>2026-04-18T13:04:10.689Z</time></trkpt><trkpt lat="9.3905255" lon="-75.7301285"><ele>28.0</ele><time>2026-04-18T13:04:11.693Z</time></trkpt><trkpt lat="9.3905775" lon="-75.7300613"><ele>28.000000000000004</ele><time>2026-04-18T13:04:12.693Z</time></trkpt><trkpt lat="9.3906276" lon="-75.7299935"><ele>28.0</ele><time>2026-04-18T13:04:13.691Z</time></trkpt><trkpt lat="9.3906842" lon="-75.7299265"><ele>29.000000000000004</ele><time>2026-04-18T13:04:14.693Z</time></trkpt><trkpt lat="9.3907388" lon="-75.7298596"><ele>30.0</ele><time>2026-04-18T13:04:15.693Z</time></trkpt><trkpt lat="9.3907934" lon="-75.7297929"><ele>31.0</ele><time>2026-04-18T13:04:16.695Z</time></trkpt><trkpt lat="9.3908473" lon="-75.7297252"><ele>32.0</ele><time>2026-04-18T13:04:17.693Z</time></trkpt><trkpt lat="9.3909044" lon="-75.7296567"><ele>33.0</ele><time>2026-04-18T13:04:18.694Z</time></trkpt><trkpt lat="9.3909592" lon="-75.7295914"><ele>34.0</ele><time>2026-04-18T13:04:19.693Z</time></trkpt><trkpt lat="9.3910124" lon="-75.7295218"><ele>34.0</ele><time>2026-04-18T13:04:20.694Z</time></trkpt><trkpt lat="9.3910656" lon="-75.7294546"><ele>34.0</ele><time>2026-04-18T13:04:21.692Z</time></trkpt><trkpt lat="9.3911184" lon="-75.7293905"><ele>34.0</ele><time>2026-04-18T13:04:22.696Z</time></trkpt><trkpt lat="9.3911731" lon="-75.7293231"><ele>34.0</ele><time>2026-04-18T13:04:23.69Z</time></trkpt><trkpt lat="9.391228" lon="-75.7292561"><ele>34.0</ele><time>2026-04-18T13:04:24.694Z</time></trkpt><trkpt lat="9.3912771" lon="-75.7291857"><ele>34.0</ele><time>2026-04-18T13:04:25.695Z</time></trkpt><trkpt lat="9.3913326" lon="-75.7291204"><ele>33.16666666666667</ele><time>2026-04-18T13:04:26.695Z</time></trkpt><trkpt lat="9.39139" lon="-75.7290531"><ele>32.333333333333336</ele><time>2026-04-18T13:04:27.694Z</time></trkpt><trkpt lat="9.3914457" lon="-75.7289835"><ele>31.5</ele><time>2026-04-18T13:04:28.693Z</time></trkpt><trkpt lat="9.3915032" lon="-75.7289148"><ele>30.666666666666664</ele><time>2026-04-18T13:04:29.692Z</time></trkpt><trkpt lat="9.3915594" lon="-75.728847"><ele>29.833333333333332</ele><time>2026-04-18T13:04:30.696Z</time></trkpt><trkpt lat="9.3916175" lon="-75.7287783"><ele>29.0</ele><time>2026-04-18T13:04:31.695Z</time></trkpt><trkpt lat="9.3916736" lon="-75.7287095"><ele>28.999999999999996</ele><time>2026-04-18T13:04:32.693Z</time></trkpt><trkpt lat="9.3917286" lon="-75.7286402"><ele>29.0</ele><time>2026-04-18T13:04:33.695Z</time></trkpt><trkpt lat="9.3917866" lon="-75.7285685"><ele>29.0</ele><time>2026-04-18T13:04:34.695Z</time></trkpt><trkpt lat="9.3918424" lon="-75.7285006"><ele>29.0</ele><time>2026-04-18T13:04:35.695Z</time></trkpt><trkpt lat="9.3918991" lon="-75.7284306"><ele>28.999999999999996</ele><time>2026-04-18T13:04:36.696Z</time></trkpt><trkpt lat="9.391958" lon="-75.7283657"><ele>29.0</ele><time>2026-04-18T13:04:37.691Z</time></trkpt><trkpt lat="9.392009" lon="-75.7282984"><ele>28.999999999999996</ele><time>2026-04-18T13:04:38.695Z</time></trkpt><trkpt lat="9.3920636" lon="-75.7282304"><ele>29.0</ele><time>2026-04-18T13:04:39.693Z</time></trkpt><trkpt lat="9.3921154" lon="-75.7281675"><ele>29.0</ele><time>2026-04-18T13:04:40.692Z</time></trkpt><trkpt lat="9.3921709" lon="-75.7281084"><ele>29.0</ele><time>2026-04-18T13:04:41.69Z</time></trkpt><trkpt lat="9.3922193" lon="-75.7280472"><ele>28.999999999999996</ele><time>2026-04-18T13:04:42.693Z</time></trkpt><trkpt lat="9.3922693" lon="-75.7279889"><ele>29.0</ele><time>2026-04-18T13:04:43.693Z</time></trkpt><trkpt lat="9.3923184" lon="-75.7279302"><ele>29.285714285714292</ele><time>2026-04-18T13:04:44.693Z</time></trkpt><trkpt lat="9.3923663" lon="-75.7278718"><ele>29.571428571428573</ele><time>2026-04-18T13:04:45.692Z</time></trkpt><trkpt lat="9.3924142" lon="-75.7278128"><ele>29.85714285714286</ele><time>2026-04-18T13:04:46.689Z</time></trkpt><trkpt lat="9.392457" lon="-75.7277552"><ele>30.142857142857146</ele><time>2026-04-18T13:04:47.69Z</time></trkpt><trkpt lat="9.3925042" lon="-75.7276984"><ele>30.42857142857143</ele><time>2026-04-18T13:04:48.693Z</time></trkpt><trkpt lat="9.392548" lon="-75.7276425"><ele>30.714285714285715</ele><time>2026-04-18T13:04:49.692Z</time></trkpt><trkpt lat="9.3925924" lon="-75.7275895"><ele>31.0</ele><time>2026-04-18T13:04:50.69Z</time></trkpt><trkpt lat="9.3926351" lon="-75.7275414"><ele>31.142857142857146</ele><time>2026-04-18T13:04:51.693Z</time></trkpt><trkpt lat="9.3926768" lon="-75.7274913"><ele>31.28571428571429</ele><time>2026-04-18T13:04:52.691Z</time></trkpt><trkpt lat="9.3927217" lon="-75.7274384"><ele>31.42857142857143</ele><time>2026-04-18T13:04:53.694Z</time></trkpt><trkpt lat="9.392764" lon="-75.7273857"><ele>31.57142857142857</ele><time>2026-04-18T13:04:54.693Z</time></trkpt><trkpt lat="9.3928103" lon="-75.7273305"><ele>31.71428571428571</ele><time>2026-04-18T13:04:55.693Z</time></trkpt><trkpt lat="9.3928545" lon="-75.7272785"><ele>31.857142857142854</ele><time>2026-04-18T13:04:56.694Z</time></trkpt><trkpt lat="9.3928962" lon="-75.7272274"><ele>32.0</ele><time>2026-04-18T13:04:57.692Z</time></trkpt><trkpt lat="9.3929354" lon="-75.7271751"><ele>32.0</ele><time>2026-04-18T13:04:58.695Z</time></trkpt><trkpt lat="9.3929769" lon="-75.7271216"><ele>31.999999999999996</ele><time>2026-04-18T13:04:59.695Z</time></trkpt><trkpt lat="9.3930178" lon="-75.7270712"><ele>32.0</ele><time>2026-04-18T13:05:00.692Z</time></trkpt><trkpt lat="9.3930577" lon="-75.7270177"><ele>32.0</ele><time>2026-04-18T13:05:01.695Z</time></trkpt><trkpt lat="9.3931042" lon="-75.7269668"><ele>31.999999999999996</ele><time>2026-04-18T13:05:02.693Z</time></trkpt><trkpt lat="9.3931481" lon="-75.7269161"><ele>32.0</ele><time>2026-04-18T13:05:03.692Z</time></trkpt><trkpt lat="9.3931907" lon="-75.7268627"><ele>32.0</ele><time>2026-04-18T13:05:04.69Z</time></trkpt><trkpt lat="9.393231" lon="-75.726812"><ele>32.14285714285714</ele><time>2026-04-18T13:05:05.693Z</time></trkpt><trkpt lat="9.393276" lon="-75.7267611"><ele>32.285714285714285</ele><time>2026-04-18T13:05:06.693Z</time></trkpt><trkpt lat="9.3933195" lon="-75.7267089"><ele>32.42857142857143</ele><time>2026-04-18T13:05:07.692Z</time></trkpt><trkpt lat="9.3933596" lon="-75.7266547"><ele>32.57142857142857</ele><time>2026-04-18T13:05:08.69Z</time></trkpt><trkpt lat="9.3934027" lon="-75.7266036"><ele>32.714285714285715</ele><time>2026-04-18T13:05:09.692Z</time></trkpt><trkpt lat="9.3934506" lon="-75.7265447"><ele>32.857142857142854</ele><time>2026-04-18T13:05:10.691Z</time></trkpt><trkpt lat="9.3934953" lon="-75.7264837"><ele>33.0</ele><time>2026-04-18T13:05:11.694Z</time></trkpt><trkpt lat="9.3935399" lon="-75.726433"><ele>33.0</ele><time>2026-04-18T13:05:12.689Z</time></trkpt><trkpt lat="9.3935882" lon="-75.7263788"><ele>33.0</ele><time>2026-04-18T13:05:13.692Z</time></trkpt><trkpt lat="9.3936355" lon="-75.7263231"><ele>33.0</ele><time>2026-04-18T13:05:14.691Z</time></trkpt><trkpt lat="9.3936793" lon="-75.7262635"><ele>33.0</ele><time>2026-04-18T13:05:15.691Z</time></trkpt><trkpt lat="9.3937262" lon="-75.726206"><ele>33.0</ele><time>2026-04-18T13:05:16.691Z</time></trkpt><trkpt lat="9.3937764" lon="-75.7261462"><ele>33.0</ele><time>2026-04-18T13:05:17.691Z</time></trkpt><trkpt lat="9.3938217" lon="-75.7260904"><ele>33.0</ele><time>2026-04-18T13:05:18.691Z</time></trkpt><trkpt lat="9.3938712" lon="-75.7260309"><ele>32.0</ele><time>2026-04-18T13:05:19.691Z</time></trkpt><trkpt lat="9.3939197" lon="-75.7259728"><ele>31.0</ele><time>2026-04-18T13:05:20.694Z</time></trkpt><trkpt lat="9.3939706" lon="-75.7259125"><ele>30.0</ele><time>2026-04-18T13:05:21.693Z</time></trkpt><trkpt lat="9.3940242" lon="-75.7258497"><ele>29.0</ele><time>2026-04-18T13:05:22.69Z</time></trkpt><trkpt lat="9.3940789" lon="-75.7257854"><ele>28.0</ele><time>2026-04-18T13:05:23.69Z</time></trkpt><trkpt lat="9.3941388" lon="-75.7257182"><ele>27.0</ele><time>2026-04-18T13:05:24.689Z</time></trkpt><trkpt lat="9.3941984" lon="-75.7256493"><ele>27.0</ele><time>2026-04-18T13:05:25.692Z</time></trkpt><trkpt lat="9.3942611" lon="-75.7255792"><ele>27.000000000000004</ele><time>2026-04-18T13:05:26.691Z</time></trkpt><trkpt lat="9.3943206" lon="-75.7255112"><ele>27.000000000000004</ele><time>2026-04-18T13:05:27.691Z</time></trkpt><trkpt lat="9.3943774" lon="-75.7254417"><ele>27.0</ele><time>2026-04-18T13:05:28.695Z</time></trkpt><trkpt lat="9.3944355" lon="-75.7253687"><ele>27.0</ele><time>2026-04-18T13:05:29.693Z</time></trkpt><trkpt lat="9.394491" lon="-75.7252997"><ele>27.0</ele><time>2026-04-18T13:05:30.693Z</time></trkpt><trkpt lat="9.3945488" lon="-75.7252298"><ele>27.000000000000004</ele><time>2026-04-18T13:05:31.692Z</time></trkpt><trkpt lat="9.3946062" lon="-75.7251573"><ele>27.000000000000004</ele><time>2026-04-18T13:05:32.692Z</time></trkpt><trkpt lat="9.3946608" lon="-75.725088"><ele>27.0</ele><time>2026-04-18T13:05:33.692Z</time></trkpt><trkpt lat="9.3947202" lon="-75.7250189"><ele>27.0</ele><time>2026-04-18T13:05:34.693Z</time></trkpt><trkpt lat="9.3947828" lon="-75.7249468"><ele>27.333333333333332</ele><time>2026-04-18T13:05:35.693Z</time></trkpt><trkpt lat="9.394842" lon="-75.7248757"><ele>27.666666666666664</ele><time>2026-04-18T13:05:36.693Z</time></trkpt><trkpt lat="9.394899" lon="-75.7248086"><ele>28.0</ele><time>2026-04-18T13:05:37.689Z</time></trkpt><trkpt lat="9.3949546" lon="-75.7247363"><ele>28.333333333333332</ele><time>2026-04-18T13:05:38.69Z</time></trkpt><trkpt lat="9.3950123" lon="-75.7246679"><ele>28.666666666666664</ele><time>2026-04-18T13:05:39.69Z</time></trkpt><trkpt lat="9.3950711" lon="-75.7246057"><ele>29.0</ele><time>2026-04-18T13:05:40.692Z</time></trkpt><trkpt lat="9.3951284" lon="-75.7245383"><ele>28.999999999999996</ele><time>2026-04-18T13:05:41.692Z</time></trkpt><trkpt lat="9.3951831" lon="-75.7244718"><ele>29.0</ele><time>2026-04-18T13:05:42.695Z</time></trkpt><trkpt lat="9.3952407" lon="-75.724403"><ele>29.0</ele><time>2026-04-18T13:05:43.694Z</time></trkpt><trkpt lat="9.3952965" lon="-75.7243356"><ele>29.0</ele><time>2026-04-18T13:05:44.694Z</time></trkpt><trkpt lat="9.3953502" lon="-75.7242678"><ele>28.999999999999996</ele><time>2026-04-18T13:05:45.693Z</time></trkpt><trkpt lat="9.3954063" lon="-75.7241983"><ele>29.0</ele><time>2026-04-18T13:05:46.692Z</time></trkpt><trkpt lat="9.3954591" lon="-75.724132"><ele>29.166666666666664</ele><time>2026-04-18T13:05:47.692Z</time></trkpt><trkpt lat="9.3955077" lon="-75.7240684"><ele>29.333333333333332</ele><time>2026-04-18T13:05:48.694Z</time></trkpt><trkpt lat="9.3955606" lon="-75.7240038"><ele>29.5</ele><time>2026-04-18T13:05:49.695Z</time></trkpt><trkpt lat="9.3956103" lon="-75.7239415"><ele>29.666666666666664</ele><time>2026-04-18T13:05:50.696Z</time></trkpt><trkpt lat="9.3956611" lon="-75.7238802"><ele>29.833333333333332</ele><time>2026-04-18T13:05:51.693Z</time></trkpt><trkpt lat="9.395709" lon="-75.7238186"><ele>30.0</ele><time>2026-04-18T13:05:52.687Z</time></trkpt><trkpt lat="9.3957578" lon="-75.7237588"><ele>30.0</ele><time>2026-04-18T13:05:53.692Z</time></trkpt><trkpt lat="9.3958088" lon="-75.7237006"><ele>30.0</ele><time>2026-04-18T13:05:54.689Z</time></trkpt><trkpt lat="9.3958597" lon="-75.7236447"><ele>30.0</ele><time>2026-04-18T13:05:55.691Z</time></trkpt><trkpt lat="9.3959068" lon="-75.7235838"><ele>30.0</ele><time>2026-04-18T13:05:56.695Z</time></trkpt><trkpt lat="9.3959547" lon="-75.7235239"><ele>30.0</ele><time>2026-04-18T13:05:57.69Z</time></trkpt><trkpt lat="9.3960014" lon="-75.7234611"><ele>30.0</ele><time>2026-04-18T13:05:58.688Z</time></trkpt><trkpt lat="9.3960459" lon="-75.7233982"><ele>30.0</ele><time>2026-04-18T13:05:59.688Z</time></trkpt><trkpt lat="9.3960935" lon="-75.7233412"><ele>30.0</ele><time>2026-04-18T13:06:00.692Z</time></trkpt><trkpt lat="9.3961409" lon="-75.7232857"><ele>30.0</ele><time>2026-04-18T13:06:01.69Z</time></trkpt><trkpt lat="9.396188" lon="-75.7232304"><ele>30.0</ele><time>2026-04-18T13:06:02.692Z</time></trkpt><trkpt lat="9.3962325" lon="-75.7231719"><ele>30.0</ele><time>2026-04-18T13:06:03.693Z</time></trkpt><trkpt lat="9.3962756" lon="-75.723116"><ele>30.0</ele><time>2026-04-18T13:06:04.692Z</time></trkpt><trkpt lat="9.3963231" lon="-75.7230597"><ele>30.0</ele><time>2026-04-18T13:06:05.695Z</time></trkpt><trkpt lat="9.3963654" lon="-75.7230048"><ele>29.714285714285715</ele><time>2026-04-18T13:06:06.695Z</time></trkpt><trkpt lat="9.3964118" lon="-75.7229508"><ele>29.428571428571427</ele><time>2026-04-18T13:06:07.692Z</time></trkpt><trkpt lat="9.3964615" lon="-75.7228965"><ele>29.142857142857142</ele><time>2026-04-18T13:06:08.692Z</time></trkpt><trkpt lat="9.3965076" lon="-75.7228395"><ele>28.857142857142858</ele><time>2026-04-18T13:06:09.694Z</time></trkpt><trkpt lat="9.3965499" lon="-75.7227831"><ele>28.57142857142857</ele><time>2026-04-18T13:06:10.695Z</time></trkpt><trkpt lat="9.396593" lon="-75.7227239"><ele>28.285714285714285</ele><time>2026-04-18T13:06:11.696Z</time></trkpt><trkpt lat="9.396637" lon="-75.7226676"><ele>28.0</ele><time>2026-04-18T13:06:12.693Z</time></trkpt><trkpt lat="9.3966816" lon="-75.7226129"><ele>28.000000000000004</ele><time>2026-04-18T13:06:13.695Z</time></trkpt><trkpt lat="9.3967245" lon="-75.7225552"><ele>28.0</ele><time>2026-04-18T13:06:14.695Z</time></trkpt><trkpt lat="9.396768" lon="-75.7224975"><ele>28.0</ele><time>2026-04-18T13:06:15.695Z</time></trkpt><trkpt lat="9.3968138" lon="-75.7224433"><ele>28.0</ele><time>2026-04-18T13:06:16.695Z</time></trkpt><trkpt lat="9.3968603" lon="-75.7223892"><ele>28.000000000000004</ele><time>2026-04-18T13:06:17.695Z</time></trkpt><trkpt lat="9.3969409" lon="-75.7222842"><ele>28.0</ele><time>2026-04-18T13:06:19.696Z</time></trkpt><trkpt lat="9.3969837" lon="-75.7222333"><ele>28.0</ele><time>2026-04-18T13:06:20.694Z</time></trkpt><trkpt lat="9.3970635" lon="-75.7221361"><ele>28.0</ele><time>2026-04-18T13:06:22.694Z</time></trkpt><trkpt lat="9.3971385" lon="-75.722043"><ele>28.0</ele><time>2026-04-18T13:06:24.694Z</time></trkpt><trkpt lat="9.3972024" lon="-75.7219473"><ele>28.0</ele><time>2026-04-18T13:06:26.695Z</time></trkpt><trkpt lat="9.3972599" lon="-75.7218499"><ele>28.599999999999998</ele><time>2026-04-18T13:06:28.695Z</time></trkpt><trkpt lat="9.3973103" lon="-75.7217563"><ele>29.199999999999996</ele><time>2026-04-18T13:06:30.691Z</time></trkpt><trkpt lat="9.3973709" lon="-75.7216736"><ele>29.8</ele><time>2026-04-18T13:06:32.689Z</time></trkpt><trkpt lat="9.3974336" lon="-75.7215833"><ele>30.4</ele><time>2026-04-18T13:06:34.695Z</time></trkpt><trkpt lat="9.3974843" lon="-75.7214863"><ele>31.0</ele><time>2026-04-18T13:06:36.695Z</time></trkpt><trkpt lat="9.3975343" lon="-75.7213843"><ele>31.0</ele><time>2026-04-18T13:06:38.696Z</time></trkpt><trkpt lat="9.3975776" lon="-75.7212803"><ele>31.0</ele><time>2026-04-18T13:06:40.694Z</time></trkpt><trkpt lat="9.3976191" lon="-75.7211659"><ele>31.0</ele><time>2026-04-18T13:06:42.696Z</time></trkpt><trkpt lat="9.3976536" lon="-75.7210522"><ele>31.0</ele><time>2026-04-18T13:06:44.695Z</time></trkpt><trkpt lat="9.3976829" lon="-75.7209325"><ele>30.714285714285715</ele><time>2026-04-18T13:06:46.693Z</time></trkpt><trkpt lat="9.3976974" lon="-75.7208699"><ele>30.42857142857143</ele><time>2026-04-18T13:06:47.693Z</time></trkpt><trkpt lat="9.3977073" lon="-75.7208043"><ele>30.142857142857146</ele><time>2026-04-18T13:06:48.694Z</time></trkpt><trkpt lat="9.3977118" lon="-75.7207388"><ele>29.85714285714286</ele><time>2026-04-18T13:06:49.696Z</time></trkpt><trkpt lat="9.3977168" lon="-75.7206694"><ele>29.571428571428573</ele><time>2026-04-18T13:06:50.694Z</time></trkpt><trkpt lat="9.3977232" lon="-75.7205985"><ele>29.285714285714292</ele><time>2026-04-18T13:06:51.693Z</time></trkpt><trkpt lat="9.397733" lon="-75.720527"><ele>29.000000000000004</ele><time>2026-04-18T13:06:52.693Z</time></trkpt><trkpt lat="9.3977353" lon="-75.7204507"><ele>28.999999999999996</ele><time>2026-04-18T13:06:53.696Z</time></trkpt><trkpt lat="9.3977341" lon="-75.7203762"><ele>29.0</ele><time>2026-04-18T13:06:54.695Z</time></trkpt><trkpt lat="9.3977286" lon="-75.7202966"><ele>29.0</ele><time>2026-04-18T13:06:55.694Z</time></trkpt><trkpt lat="9.3977201" lon="-75.7202115"><ele>29.0</ele><time>2026-04-18T13:06:56.693Z</time></trkpt><trkpt lat="9.3977105" lon="-75.7201292"><ele>28.999999999999996</ele><time>2026-04-18T13:06:57.693Z</time></trkpt><trkpt lat="9.3976979" lon="-75.7200421"><ele>29.0</ele><time>2026-04-18T13:06:58.692Z</time></trkpt><trkpt lat="9.3976847" lon="-75.7199565"><ele>28.4</ele><time>2026-04-18T13:06:59.696Z</time></trkpt><trkpt lat="9.3976746" lon="-75.7198632"><ele>27.799999999999997</ele><time>2026-04-18T13:07:00.695Z</time></trkpt><trkpt lat="9.3976581" lon="-75.7197764"><ele>27.200000000000003</ele><time>2026-04-18T13:07:01.696Z</time></trkpt><trkpt lat="9.3976412" lon="-75.7196812"><ele>26.6</ele><time>2026-04-18T13:07:02.695Z</time></trkpt><trkpt lat="9.3976175" lon="-75.7195881"><ele>26.0</ele><time>2026-04-18T13:07:03.696Z</time></trkpt><trkpt lat="9.3975922" lon="-75.7194945"><ele>26.0</ele><time>2026-04-18T13:07:04.694Z</time></trkpt><trkpt lat="9.3975571" lon="-75.7194016"><ele>26.0</ele><time>2026-04-18T13:07:05.695Z</time></trkpt><trkpt lat="9.3975275" lon="-75.7193117"><ele>26.0</ele><time>2026-04-18T13:07:06.691Z</time></trkpt><trkpt lat="9.3974999" lon="-75.7192197"><ele>26.0</ele><time>2026-04-18T13:07:07.693Z</time></trkpt><trkpt lat="9.3974703" lon="-75.7191263"><ele>26.0</ele><time>2026-04-18T13:07:08.691Z</time></trkpt><trkpt lat="9.3974384" lon="-75.7190347"><ele>25.0</ele><time>2026-04-18T13:07:09.694Z</time></trkpt><trkpt lat="9.3974081" lon="-75.7189414"><ele>24.0</ele><time>2026-04-18T13:07:10.691Z</time></trkpt><trkpt lat="9.3973763" lon="-75.7188456"><ele>23.0</ele><time>2026-04-18T13:07:11.693Z</time></trkpt><trkpt lat="9.3973418" lon="-75.7187544"><ele>22.0</ele><time>2026-04-18T13:07:12.691Z</time></trkpt><trkpt lat="9.39731" lon="-75.7186619"><ele>21.0</ele><time>2026-04-18T13:07:13.687Z</time></trkpt><trkpt lat="9.3972777" lon="-75.7185614"><ele>20.6</ele><time>2026-04-18T13:07:14.689Z</time></trkpt><trkpt lat="9.3972437" lon="-75.7184587"><ele>20.200000000000003</ele><time>2026-04-18T13:07:15.693Z</time></trkpt><trkpt lat="9.3972121" lon="-75.7183637"><ele>19.799999999999997</ele><time>2026-04-18T13:07:16.692Z</time></trkpt><trkpt lat="9.3971741" lon="-75.7182598"><ele>19.4</ele><time>2026-04-18T13:07:17.693Z</time></trkpt><trkpt lat="9.3971441" lon="-75.7181566"><ele>19.0</ele><time>2026-04-18T13:07:18.69Z</time></trkpt><trkpt lat="9.3971116" lon="-75.7180529"><ele>18.599999999999998</ele><time>2026-04-18T13:07:19.69Z</time></trkpt><trkpt lat="9.3970828" lon="-75.7179525"><ele>18.2</ele><time>2026-04-18T13:07:20.69Z</time></trkpt><trkpt lat="9.397049" lon="-75.717846"><ele>17.799999999999997</ele><time>2026-04-18T13:07:21.69Z</time></trkpt><trkpt lat="9.3970192" lon="-75.7177488"><ele>17.4</ele><time>2026-04-18T13:07:22.688Z</time></trkpt><trkpt lat="9.396989" lon="-75.7176566"><ele>17.0</ele><time>2026-04-18T13:07:23.69Z</time></trkpt><trkpt lat="9.3969558" lon="-75.7175655"><ele>17.0</ele><time>2026-04-18T13:07:24.694Z</time></trkpt><trkpt lat="9.396924" lon="-75.7174778"><ele>17.0</ele><time>2026-04-18T13:07:25.694Z</time></trkpt><trkpt lat="9.3968938" lon="-75.7173874"><ele>17.0</ele><time>2026-04-18T13:07:26.691Z</time></trkpt><trkpt lat="9.3968643" lon="-75.7172961"><ele>17.0</ele><time>2026-04-18T13:07:27.69Z</time></trkpt><trkpt lat="9.3968266" lon="-75.717206"><ele>17.0</ele><time>2026-04-18T13:07:28.687Z</time></trkpt><trkpt lat="9.396797" lon="-75.7171176"><ele>17.0</ele><time>2026-04-18T13:07:29.688Z</time></trkpt><trkpt lat="9.3967684" lon="-75.7170248"><ele>17.0</ele><time>2026-04-18T13:07:30.693Z</time></trkpt><trkpt lat="9.3967375" lon="-75.7169422"><ele>17.0</ele><time>2026-04-18T13:07:31.69Z</time></trkpt><trkpt lat="9.3967074" lon="-75.7168589"><ele>17.0</ele><time>2026-04-18T13:07:32.691Z</time></trkpt><trkpt lat="9.39668" lon="-75.7167746"><ele>17.0</ele><time>2026-04-18T13:07:33.688Z</time></trkpt><trkpt lat="9.3966524" lon="-75.7166944"><ele>17.0</ele><time>2026-04-18T13:07:34.689Z</time></trkpt><trkpt lat="9.3966248" lon="-75.7166128"><ele>17.666666666666668</ele><time>2026-04-18T13:07:35.684Z</time></trkpt><trkpt lat="9.3965942" lon="-75.7165333"><ele>18.333333333333336</ele><time>2026-04-18T13:07:36.695Z</time></trkpt><trkpt lat="9.3965703" lon="-75.716454"><ele>19.0</ele><time>2026-04-18T13:07:37.689Z</time></trkpt><trkpt lat="9.3965422" lon="-75.7163766"><ele>19.666666666666668</ele><time>2026-04-18T13:07:38.691Z</time></trkpt><trkpt lat="9.3965114" lon="-75.7162964"><ele>20.333333333333332</ele><time>2026-04-18T13:07:39.691Z</time></trkpt><trkpt lat="9.3964796" lon="-75.7162179"><ele>21.0</ele><time>2026-04-18T13:07:40.694Z</time></trkpt><trkpt lat="9.3964501" lon="-75.7161443"><ele>21.0</ele><time>2026-04-18T13:07:41.69Z</time></trkpt><trkpt lat="9.3964132" lon="-75.71607"><ele>21.0</ele><time>2026-04-18T13:07:42.695Z</time></trkpt><trkpt lat="9.3963765" lon="-75.715997"><ele>21.0</ele><time>2026-04-18T13:07:43.691Z</time></trkpt><trkpt lat="9.3963412" lon="-75.7159268"><ele>21.0</ele><time>2026-04-18T13:07:44.693Z</time></trkpt><trkpt lat="9.3963061" lon="-75.7158554"><ele>21.0</ele><time>2026-04-18T13:07:45.69Z</time></trkpt><trkpt lat="9.396268" lon="-75.7157861"><ele>21.0</ele><time>2026-04-18T13:07:46.692Z</time></trkpt><trkpt lat="9.3962275" lon="-75.7157209"><ele>21.166666666666668</ele><time>2026-04-18T13:07:47.688Z</time></trkpt><trkpt lat="9.3961874" lon="-75.7156551"><ele>21.333333333333332</ele><time>2026-04-18T13:07:48.692Z</time></trkpt><trkpt lat="9.3961432" lon="-75.7155912"><ele>21.5</ele><time>2026-04-18T13:07:49.692Z</time></trkpt><trkpt lat="9.3960982" lon="-75.7155236"><ele>21.666666666666664</ele><time>2026-04-18T13:07:50.695Z</time></trkpt><trkpt lat="9.3960531" lon="-75.7154618"><ele>21.833333333333332</ele><time>2026-04-18T13:07:51.69Z</time></trkpt><trkpt lat="9.3960108" lon="-75.7154015"><ele>22.0</ele><time>2026-04-18T13:07:52.692Z</time></trkpt><trkpt lat="9.3959649" lon="-75.7153398"><ele>22.0</ele><time>2026-04-18T13:07:53.69Z</time></trkpt><trkpt lat="9.3959188" lon="-75.7152805"><ele>22.0</ele><time>2026-04-18T13:07:54.695Z</time></trkpt><trkpt lat="9.3958722" lon="-75.7152249"><ele>22.0</ele><time>2026-04-18T13:07:55.689Z</time></trkpt><trkpt lat="9.3958274" lon="-75.7151683"><ele>22.0</ele><time>2026-04-18T13:07:56.689Z</time></trkpt><trkpt lat="9.3957828" lon="-75.7151126"><ele>22.0</ele><time>2026-04-18T13:07:57.688Z</time></trkpt><trkpt lat="9.3957361" lon="-75.7150571"><ele>22.0</ele><time>2026-04-18T13:07:58.695Z</time></trkpt><trkpt lat="9.3956877" lon="-75.7149985"><ele>22.0</ele><time>2026-04-18T13:07:59.695Z</time></trkpt><trkpt lat="9.39564" lon="-75.7149435"><ele>22.285714285714285</ele><time>2026-04-18T13:08:00.695Z</time></trkpt><trkpt lat="9.3955974" lon="-75.7148841"><ele>22.57142857142857</ele><time>2026-04-18T13:08:01.691Z</time></trkpt><trkpt lat="9.3955486" lon="-75.7148291"><ele>22.857142857142854</ele><time>2026-04-18T13:08:02.693Z</time></trkpt><trkpt lat="9.3955013" lon="-75.7147732"><ele>23.142857142857142</ele><time>2026-04-18T13:08:03.689Z</time></trkpt><trkpt lat="9.3954534" lon="-75.7147165"><ele>23.428571428571427</ele><time>2026-04-18T13:08:04.689Z</time></trkpt><trkpt lat="9.395405" lon="-75.714661"><ele>23.71428571428571</ele><time>2026-04-18T13:08:05.691Z</time></trkpt><trkpt lat="9.39536" lon="-75.7146014"><ele>24.0</ele><time>2026-04-18T13:08:06.69Z</time></trkpt><trkpt lat="9.3953099" lon="-75.7145456"><ele>24.0</ele><time>2026-04-18T13:08:07.688Z</time></trkpt><trkpt lat="9.3952548" lon="-75.7144873"><ele>24.0</ele><time>2026-04-18T13:08:08.692Z</time></trkpt><trkpt lat="9.3952036" lon="-75.7144215"><ele>24.0</ele><time>2026-04-18T13:08:09.691Z</time></trkpt><trkpt lat="9.3951512" lon="-75.7143609"><ele>24.0</ele><time>2026-04-18T13:08:10.691Z</time></trkpt><trkpt lat="9.3951001" lon="-75.7143004"><ele>24.0</ele><time>2026-04-18T13:08:11.689Z</time></trkpt><trkpt lat="9.3950469" lon="-75.714243"><ele>24.0</ele><time>2026-04-18T13:08:12.691Z</time></trkpt><trkpt lat="9.3949953" lon="-75.7141861"><ele>23.5</ele><time>2026-04-18T13:08:13.69Z</time></trkpt><trkpt lat="9.3949447" lon="-75.7141267"><ele>23.0</ele><time>2026-04-18T13:08:14.69Z</time></trkpt><trkpt lat="9.3948925" lon="-75.7140643"><ele>22.5</ele><time>2026-04-18T13:08:15.695Z</time></trkpt><trkpt lat="9.3948415" lon="-75.7140028"><ele>22.0</ele><time>2026-04-18T13:08:16.691Z</time></trkpt><trkpt lat="9.3947873" lon="-75.7139404"><ele>21.5</ele><time>2026-04-18T13:08:17.691Z</time></trkpt><trkpt lat="9.3947351" lon="-75.713878"><ele>21.0</ele><time>2026-04-18T13:08:18.693Z</time></trkpt><trkpt lat="9.3946812" lon="-75.713817"><ele>20.666666666666668</ele><time>2026-04-18T13:08:19.69Z</time></trkpt><trkpt lat="9.3946248" lon="-75.7137499"><ele>20.333333333333332</ele><time>2026-04-18T13:08:20.685Z</time></trkpt><trkpt lat="9.3945737" lon="-75.7136842"><ele>20.0</ele><time>2026-04-18T13:08:21.69Z</time></trkpt><trkpt lat="9.3945184" lon="-75.7136208"><ele>19.666666666666664</ele><time>2026-04-18T13:08:22.69Z</time></trkpt><trkpt lat="9.3944642" lon="-75.7135571"><ele>19.333333333333332</ele><time>2026-04-18T13:08:23.689Z</time></trkpt><trkpt lat="9.3944119" lon="-75.7134936"><ele>19.0</ele><time>2026-04-18T13:08:24.69Z</time></trkpt><trkpt lat="9.3943576" lon="-75.7134326"><ele>19.0</ele><time>2026-04-18T13:08:25.688Z</time></trkpt><trkpt lat="9.3943065" lon="-75.7133662"><ele>19.0</ele><time>2026-04-18T13:08:26.691Z</time></trkpt><trkpt lat="9.394252" lon="-75.7133029"><ele>19.0</ele><time>2026-04-18T13:08:27.695Z</time></trkpt><trkpt lat="9.3941985" lon="-75.7132419"><ele>19.0</ele><time>2026-04-18T13:08:28.692Z</time></trkpt><trkpt lat="9.3941479" lon="-75.7131796"><ele>19.0</ele><time>2026-04-18T13:08:29.692Z</time></trkpt><trkpt lat="9.3940955" lon="-75.7131236"><ele>19.0</ele><time>2026-04-18T13:08:30.689Z</time></trkpt><trkpt lat="9.3940463" lon="-75.7130629"><ele>19.0</ele><time>2026-04-18T13:08:31.689Z</time></trkpt><trkpt lat="9.3939967" lon="-75.7130055"><ele>19.0</ele><time>2026-04-18T13:08:32.693Z</time></trkpt><trkpt lat="9.3939486" lon="-75.7129496"><ele>19.0</ele><time>2026-04-18T13:08:33.694Z</time></trkpt><trkpt lat="9.3939004" lon="-75.712894"><ele>19.0</ele><time>2026-04-18T13:08:34.686Z</time></trkpt><trkpt lat="9.3938539" lon="-75.7128407"><ele>19.0</ele><time>2026-04-18T13:08:35.687Z</time></trkpt><trkpt lat="9.3938086" lon="-75.7127849"><ele>19.0</ele><time>2026-04-18T13:08:36.69Z</time></trkpt><trkpt lat="9.3937662" lon="-75.7127364"><ele>19.0</ele><time>2026-04-18T13:08:37.69Z</time></trkpt><trkpt lat="9.3937254" lon="-75.7126846"><ele>20.4</ele><time>2026-04-18T13:08:38.694Z</time></trkpt><trkpt lat="9.3936847" lon="-75.7126341"><ele>21.799999999999997</ele><time>2026-04-18T13:08:39.689Z</time></trkpt><trkpt lat="9.3936007" lon="-75.7125461"><ele>23.200000000000003</ele><time>2026-04-18T13:08:41.69Z</time></trkpt><trkpt lat="9.3935242" lon="-75.712464"><ele>24.6</ele><time>2026-04-18T13:08:43.692Z</time></trkpt><trkpt lat="9.393458" lon="-75.7123796"><ele>26.0</ele><time>2026-04-18T13:08:45.694Z</time></trkpt><trkpt lat="9.3933925" lon="-75.7123031"><ele>26.0</ele><time>2026-04-18T13:08:47.693Z</time></trkpt><trkpt lat="9.3933372" lon="-75.7122227"><ele>26.0</ele><time>2026-04-18T13:08:49.694Z</time></trkpt><trkpt lat="9.3932755" lon="-75.712146"><ele>26.0</ele><time>2026-04-18T13:08:51.689Z</time></trkpt><trkpt lat="9.3932292" lon="-75.71207"><ele>26.0</ele><time>2026-04-18T13:08:53.692Z</time></trkpt><trkpt lat="9.3931782" lon="-75.7119927"><ele>26.0</ele><time>2026-04-18T13:08:55.695Z</time></trkpt><trkpt lat="9.3931301" lon="-75.7119164"><ele>26.666666666666664</ele><time>2026-04-18T13:08:57.695Z</time></trkpt><trkpt lat="9.3930892" lon="-75.711841"><ele>27.333333333333332</ele><time>2026-04-18T13:08:59.695Z</time></trkpt><trkpt lat="9.39305" lon="-75.7117663"><ele>28.0</ele><time>2026-04-18T13:09:01.692Z</time></trkpt><trkpt lat="9.3930142" lon="-75.7116879"><ele>28.666666666666664</ele><time>2026-04-18T13:09:03.691Z</time></trkpt><trkpt lat="9.3929785" lon="-75.7116106"><ele>29.333333333333332</ele><time>2026-04-18T13:09:05.687Z</time></trkpt><trkpt lat="9.3929415" lon="-75.7115351"><ele>30.0</ele><time>2026-04-18T13:09:07.689Z</time></trkpt><trkpt lat="9.3929083" lon="-75.7114589"><ele>30.666666666666668</ele><time>2026-04-18T13:09:09.691Z</time></trkpt><trkpt lat="9.3928789" lon="-75.7113835"><ele>31.333333333333336</ele><time>2026-04-18T13:09:11.692Z</time></trkpt><trkpt lat="9.3928506" lon="-75.7113084"><ele>32.0</ele><time>2026-04-18T13:09:13.687Z</time></trkpt><trkpt lat="9.3928227" lon="-75.7112315"><ele>32.66666666666667</ele><time>2026-04-18T13:09:15.688Z</time></trkpt><trkpt lat="9.3927972" lon="-75.7111546"><ele>33.333333333333336</ele><time>2026-04-18T13:09:17.689Z</time></trkpt><trkpt lat="9.3927728" lon="-75.7110784"><ele>34.0</ele><time>2026-04-18T13:09:19.694Z</time></trkpt><trkpt lat="9.3927491" lon="-75.7110043"><ele>35.5</ele><time>2026-04-18T13:09:21.69Z</time></trkpt><trkpt lat="9.3927284" lon="-75.7109279"><ele>37.0</ele><time>2026-04-18T13:09:23.691Z</time></trkpt><trkpt lat="9.3927101" lon="-75.7108491"><ele>38.5</ele><time>2026-04-18T13:09:25.685Z</time></trkpt><trkpt lat="9.3926906" lon="-75.7107675"><ele>40.0</ele><time>2026-04-18T13:09:27.69Z</time></trkpt><trkpt lat="9.3926718" lon="-75.7106856"><ele>41.5</ele><time>2026-04-18T13:09:29.692Z</time></trkpt><trkpt lat="9.3926515" lon="-75.7106042"><ele>43.0</ele><time>2026-04-18T13:09:31.696Z</time></trkpt><trkpt lat="9.3926331" lon="-75.7105235"><ele>43.0</ele><time>2026-04-18T13:09:33.688Z</time></trkpt><trkpt lat="9.3926166" lon="-75.7104412"><ele>43.0</ele><time>2026-04-18T13:09:35.69Z</time></trkpt><trkpt lat="9.3925948" lon="-75.7103596"><ele>43.0</ele><time>2026-04-18T13:09:37.688Z</time></trkpt><trkpt lat="9.3925746" lon="-75.7102798"><ele>43.0</ele><time>2026-04-18T13:09:39.69Z</time></trkpt><trkpt lat="9.3925535" lon="-75.7101975"><ele>43.0</ele><time>2026-04-18T13:09:41.692Z</time></trkpt><trkpt lat="9.3925332" lon="-75.7101145"><ele>43.0</ele><time>2026-04-18T13:09:43.69Z</time></trkpt><trkpt lat="9.3925129" lon="-75.7100296"><ele>43.599999999999994</ele><time>2026-04-18T13:09:45.691Z</time></trkpt><trkpt lat="9.3924979" lon="-75.7099411"><ele>44.199999999999996</ele><time>2026-04-18T13:09:47.686Z</time></trkpt><trkpt lat="9.3924809" lon="-75.7098545"><ele>44.8</ele><time>2026-04-18T13:09:49.69Z</time></trkpt><trkpt lat="9.3924576" lon="-75.7097645"><ele>45.4</ele><time>2026-04-18T13:09:51.688Z</time></trkpt><trkpt lat="9.3924365" lon="-75.7096735"><ele>46.0</ele><time>2026-04-18T13:09:53.688Z</time></trkpt><trkpt lat="9.3924143" lon="-75.7095809"><ele>46.0</ele><time>2026-04-18T13:09:55.693Z</time></trkpt><trkpt lat="9.3923868" lon="-75.7094854"><ele>46.0</ele><time>2026-04-18T13:09:57.688Z</time></trkpt><trkpt lat="9.3923606" lon="-75.7093899"><ele>46.0</ele><time>2026-04-18T13:09:59.695Z</time></trkpt><trkpt lat="9.3923349" lon="-75.7092865"><ele>46.0</ele><time>2026-04-18T13:10:01.693Z</time></trkpt><trkpt lat="9.3923109" lon="-75.7091918"><ele>46.0</ele><time>2026-04-18T13:10:03.688Z</time></trkpt><trkpt lat="9.3922917" lon="-75.7090928"><ele>46.199999999999996</ele><time>2026-04-18T13:10:05.692Z</time></trkpt><trkpt lat="9.3922682" lon="-75.7089927"><ele>46.4</ele><time>2026-04-18T13:10:07.695Z</time></trkpt><trkpt lat="9.3922412" lon="-75.7088887"><ele>46.6</ele><time>2026-04-18T13:10:09.69Z</time></trkpt><trkpt lat="9.3922162" lon="-75.7087885"><ele>46.8</ele><time>2026-04-18T13:10:11.691Z</time></trkpt><trkpt lat="9.3921941" lon="-75.7086923"><ele>47.0</ele><time>2026-04-18T13:10:13.689Z</time></trkpt><trkpt lat="9.3921707" lon="-75.7086001"><ele>46.0</ele><time>2026-04-18T13:10:15.687Z</time></trkpt><trkpt lat="9.3921468" lon="-75.7085075"><ele>45.0</ele><time>2026-04-18T13:10:17.692Z</time></trkpt><trkpt lat="9.3921281" lon="-75.708421"><ele>44.0</ele><time>2026-04-18T13:10:19.69Z</time></trkpt><trkpt lat="9.3921037" lon="-75.7083385"><ele>43.0</ele><time>2026-04-18T13:10:21.69Z</time></trkpt><trkpt lat="9.3920878" lon="-75.7082556"><ele>42.0</ele><time>2026-04-18T13:10:23.695Z</time></trkpt><trkpt lat="9.3920734" lon="-75.7081692"><ele>41.0</ele><time>2026-04-18T13:10:25.695Z</time></trkpt><trkpt lat="9.3920384" lon="-75.7080737"><ele>41.0</ele><time>2026-04-18T13:10:27.688Z</time></trkpt><trkpt lat="9.3920103" lon="-75.7079683"><ele>41.0</ele><time>2026-04-18T13:10:29.688Z</time></trkpt><trkpt lat="9.39198" lon="-75.7078498"><ele>41.0</ele><time>2026-04-18T13:10:31.695Z</time></trkpt><trkpt lat="9.3919595" lon="-75.707736"><ele>41.0</ele><time>2026-04-18T13:10:33.688Z</time></trkpt><trkpt lat="9.3919297" lon="-75.7076165"><ele>39.8</ele><time>2026-04-18T13:10:35.691Z</time></trkpt><trkpt lat="9.3919063" lon="-75.7074907"><ele>38.599999999999994</ele><time>2026-04-18T13:10:37.693Z</time></trkpt><trkpt lat="9.3918735" lon="-75.7073676"><ele>37.4</ele><time>2026-04-18T13:10:39.689Z</time></trkpt><trkpt lat="9.3918585" lon="-75.7073044"><ele>36.2</ele><time>2026-04-18T13:10:40.693Z</time></trkpt><trkpt lat="9.3918298" lon="-75.7071785"><ele>35.0</ele><time>2026-04-18T13:10:42.694Z</time></trkpt><trkpt lat="9.3918151" lon="-75.7071143"><ele>35.0</ele><time>2026-04-18T13:10:43.69Z</time></trkpt><trkpt lat="9.3917962" lon="-75.7070495"><ele>35.0</ele><time>2026-04-18T13:10:44.694Z</time></trkpt><trkpt lat="9.3917791" lon="-75.7069858"><ele>35.0</ele><time>2026-04-18T13:10:45.696Z</time></trkpt><trkpt lat="9.3917625" lon="-75.7069211"><ele>35.0</ele><time>2026-04-18T13:10:46.694Z</time></trkpt><trkpt lat="9.3917456" lon="-75.7068558"><ele>35.0</ele><time>2026-04-18T13:10:47.694Z</time></trkpt><trkpt lat="9.3917195" lon="-75.7067312"><ele>35.0</ele><time>2026-04-18T13:10:49.69Z</time></trkpt><trkpt lat="9.3916888" lon="-75.7066109"><ele>34.83333333333333</ele><time>2026-04-18T13:10:51.687Z</time></trkpt><trkpt lat="9.3916764" lon="-75.7065471"><ele>34.666666666666664</ele><time>2026-04-18T13:10:52.693Z</time></trkpt><trkpt lat="9.3916608" lon="-75.7064851"><ele>34.5</ele><time>2026-04-18T13:10:53.686Z</time></trkpt><trkpt lat="9.3916373" lon="-75.706361"><ele>34.333333333333336</ele><time>2026-04-18T13:10:55.689Z</time></trkpt><trkpt lat="9.391608" lon="-75.7062388"><ele>34.16666666666667</ele><time>2026-04-18T13:10:57.688Z</time></trkpt><trkpt lat="9.3915916" lon="-75.7061763"><ele>34.0</ele><time>2026-04-18T13:10:58.695Z</time></trkpt><trkpt lat="9.3915795" lon="-75.7061115"><ele>34.0</ele><time>2026-04-18T13:10:59.692Z</time></trkpt><trkpt lat="9.3915562" lon="-75.7059871"><ele>34.0</ele><time>2026-04-18T13:11:01.692Z</time></trkpt><trkpt lat="9.3915432" lon="-75.7059217"><ele>34.0</ele><time>2026-04-18T13:11:02.69Z</time></trkpt><trkpt lat="9.3915333" lon="-75.7058573"><ele>34.0</ele><time>2026-04-18T13:11:03.693Z</time></trkpt><trkpt lat="9.3915189" lon="-75.7057936"><ele>34.0</ele><time>2026-04-18T13:11:04.695Z</time></trkpt><trkpt lat="9.3915064" lon="-75.7057244"><ele>34.0</ele><time>2026-04-18T13:11:05.69Z</time></trkpt><trkpt lat="9.3914947" lon="-75.705656"><ele>33.99999999999999</ele><time>2026-04-18T13:11:06.694Z</time></trkpt><trkpt lat="9.3914807" lon="-75.7055876"><ele>34.0</ele><time>2026-04-18T13:11:07.693Z</time></trkpt><trkpt lat="9.3914697" lon="-75.7055209"><ele>34.0</ele><time>2026-04-18T13:11:08.691Z</time></trkpt><trkpt lat="9.3914561" lon="-75.7054566"><ele>34.0</ele><time>2026-04-18T13:11:09.688Z</time></trkpt><trkpt lat="9.3914463" lon="-75.7053811"><ele>34.0</ele><time>2026-04-18T13:11:10.687Z</time></trkpt><trkpt lat="9.3914326" lon="-75.7053094"><ele>33.99999999999999</ele><time>2026-04-18T13:11:11.688Z</time></trkpt><trkpt lat="9.3914209" lon="-75.7052374"><ele>34.0</ele><time>2026-04-18T13:11:12.693Z</time></trkpt><trkpt lat="9.391406" lon="-75.7051605"><ele>33.66666666666667</ele><time>2026-04-18T13:11:13.691Z</time></trkpt><trkpt lat="9.3913941" lon="-75.7050808"><ele>33.333333333333336</ele><time>2026-04-18T13:11:14.687Z</time></trkpt><trkpt lat="9.3913813" lon="-75.7050025"><ele>33.0</ele><time>2026-04-18T13:11:15.69Z</time></trkpt><trkpt lat="9.391369" lon="-75.7049224"><ele>32.666666666666664</ele><time>2026-04-18T13:11:16.689Z</time></trkpt><trkpt lat="9.3913572" lon="-75.7048421"><ele>32.33333333333333</ele><time>2026-04-18T13:11:17.688Z</time></trkpt><trkpt lat="9.3913456" lon="-75.7047619"><ele>32.0</ele><time>2026-04-18T13:11:18.691Z</time></trkpt><trkpt lat="9.3913346" lon="-75.704676"><ele>31.666666666666664</ele><time>2026-04-18T13:11:19.69Z</time></trkpt><trkpt lat="9.391319" lon="-75.7045909"><ele>31.333333333333332</ele><time>2026-04-18T13:11:20.695Z</time></trkpt><trkpt lat="9.39131" lon="-75.7045045"><ele>31.0</ele><time>2026-04-18T13:11:21.694Z</time></trkpt><trkpt lat="9.391299" lon="-75.7044159"><ele>30.666666666666664</ele><time>2026-04-18T13:11:22.695Z</time></trkpt><trkpt lat="9.3912842" lon="-75.7043274"><ele>30.333333333333332</ele><time>2026-04-18T13:11:23.694Z</time></trkpt><trkpt lat="9.3912689" lon="-75.7042353"><ele>30.0</ele><time>2026-04-18T13:11:24.695Z</time></trkpt><trkpt lat="9.3912554" lon="-75.7041455"><ele>30.0</ele><time>2026-04-18T13:11:25.693Z</time></trkpt><trkpt lat="9.391242" lon="-75.7040527"><ele>30.0</ele><time>2026-04-18T13:11:26.693Z</time></trkpt><trkpt lat="9.3912297" lon="-75.7039623"><ele>30.0</ele><time>2026-04-18T13:11:27.69Z</time></trkpt><trkpt lat="9.391217" lon="-75.7038682"><ele>30.0</ele><time>2026-04-18T13:11:28.692Z</time></trkpt><trkpt lat="9.3912031" lon="-75.7037778"><ele>30.0</ele><time>2026-04-18T13:11:29.692Z</time></trkpt><trkpt lat="9.3911895" lon="-75.7036879"><ele>30.0</ele><time>2026-04-18T13:11:30.688Z</time></trkpt><trkpt lat="9.391179" lon="-75.7035957"><ele>30.0</ele><time>2026-04-18T13:11:31.688Z</time></trkpt><trkpt lat="9.3911682" lon="-75.7035054"><ele>30.0</ele><time>2026-04-18T13:11:32.688Z</time></trkpt><trkpt lat="9.3911585" lon="-75.7034109"><ele>30.0</ele><time>2026-04-18T13:11:33.69Z</time></trkpt><trkpt lat="9.3911418" lon="-75.7033198"><ele>30.0</ele><time>2026-04-18T13:11:34.688Z</time></trkpt><trkpt lat="9.3911301" lon="-75.7032218"><ele>29.2</ele><time>2026-04-18T13:11:35.689Z</time></trkpt><trkpt lat="9.3911195" lon="-75.7031265"><ele>28.4</ele><time>2026-04-18T13:11:36.69Z</time></trkpt><trkpt lat="9.391106" lon="-75.7030346"><ele>27.6</ele><time>2026-04-18T13:11:37.693Z</time></trkpt><trkpt lat="9.3910942" lon="-75.7029362"><ele>26.8</ele><time>2026-04-18T13:11:38.69Z</time></trkpt><trkpt lat="9.3910824" lon="-75.7028426"><ele>26.0</ele><time>2026-04-18T13:11:39.691Z</time></trkpt><trkpt lat="9.3910666" lon="-75.7027451"><ele>25.200000000000003</ele><time>2026-04-18T13:11:40.693Z</time></trkpt><trkpt lat="9.3910535" lon="-75.7026485"><ele>24.400000000000002</ele><time>2026-04-18T13:11:41.695Z</time></trkpt><trkpt lat="9.3910408" lon="-75.7025477"><ele>23.6</ele><time>2026-04-18T13:11:42.693Z</time></trkpt><trkpt lat="9.3910262" lon="-75.7024508"><ele>22.8</ele><time>2026-04-18T13:11:43.693Z</time></trkpt><trkpt lat="9.3910143" lon="-75.7023537"><ele>22.0</ele><time>2026-04-18T13:11:44.692Z</time></trkpt><trkpt lat="9.3909984" lon="-75.7022571"><ele>22.0</ele><time>2026-04-18T13:11:45.696Z</time></trkpt><trkpt lat="9.3909858" lon="-75.7021616"><ele>22.0</ele><time>2026-04-18T13:11:46.696Z</time></trkpt><trkpt lat="9.390974" lon="-75.7020631"><ele>22.0</ele><time>2026-04-18T13:11:47.695Z</time></trkpt><trkpt lat="9.390963" lon="-75.701964"><ele>22.0</ele><time>2026-04-18T13:11:48.693Z</time></trkpt><trkpt lat="9.3909493" lon="-75.701865"><ele>22.0</ele><time>2026-04-18T13:11:49.695Z</time></trkpt><trkpt lat="9.3909326" lon="-75.7017674"><ele>22.0</ele><time>2026-04-18T13:11:50.69Z</time></trkpt><trkpt lat="9.39092" lon="-75.7016659"><ele>22.0</ele><time>2026-04-18T13:11:51.69Z</time></trkpt><trkpt lat="9.3909059" lon="-75.7015653"><ele>22.0</ele><time>2026-04-18T13:11:52.694Z</time></trkpt><trkpt lat="9.3908938" lon="-75.7014674"><ele>22.0</ele><time>2026-04-18T13:11:53.692Z</time></trkpt><trkpt lat="9.3908792" lon="-75.7013658"><ele>22.0</ele><time>2026-04-18T13:11:54.695Z</time></trkpt><trkpt lat="9.3908698" lon="-75.7012601"><ele>22.0</ele><time>2026-04-18T13:11:55.693Z</time></trkpt><trkpt lat="9.3908505" lon="-75.7011629"><ele>22.0</ele><time>2026-04-18T13:11:56.694Z</time></trkpt><trkpt lat="9.3908341" lon="-75.7010634"><ele>22.0</ele><time>2026-04-18T13:11:57.69Z</time></trkpt><trkpt lat="9.390819" lon="-75.7009654"><ele>22.0</ele><time>2026-04-18T13:11:58.692Z</time></trkpt><trkpt lat="9.3908049" lon="-75.7008648"><ele>22.0</ele><time>2026-04-18T13:11:59.695Z</time></trkpt><trkpt lat="9.3907918" lon="-75.7007631"><ele>22.0</ele><time>2026-04-18T13:12:00.693Z</time></trkpt><trkpt lat="9.3907769" lon="-75.7006693"><ele>22.0</ele><time>2026-04-18T13:12:01.693Z</time></trkpt><trkpt lat="9.3907622" lon="-75.7005748"><ele>22.0</ele><time>2026-04-18T13:12:02.694Z</time></trkpt><trkpt lat="9.3907464" lon="-75.7004841"><ele>22.0</ele><time>2026-04-18T13:12:03.694Z</time></trkpt><trkpt lat="9.3907289" lon="-75.7003952"><ele>22.0</ele><time>2026-04-18T13:12:04.692Z</time></trkpt><trkpt lat="9.3907106" lon="-75.7003045"><ele>21.6</ele><time>2026-04-18T13:12:05.69Z</time></trkpt><trkpt lat="9.3906966" lon="-75.700209"><ele>21.200000000000003</ele><time>2026-04-18T13:12:06.695Z</time></trkpt><trkpt lat="9.3906827" lon="-75.7001142"><ele>20.8</ele><time>2026-04-18T13:12:07.689Z</time></trkpt><trkpt lat="9.3906674" lon="-75.7000188"><ele>20.4</ele><time>2026-04-18T13:12:08.691Z</time></trkpt><trkpt lat="9.3906547" lon="-75.6999271"><ele>20.0</ele><time>2026-04-18T13:12:09.69Z</time></trkpt><trkpt lat="9.3906408" lon="-75.6998359"><ele>20.0</ele><time>2026-04-18T13:12:10.689Z</time></trkpt><trkpt lat="9.3906288" lon="-75.6997511"><ele>20.0</ele><time>2026-04-18T13:12:11.689Z</time></trkpt><trkpt lat="9.3906169" lon="-75.6996608"><ele>20.0</ele><time>2026-04-18T13:12:12.691Z</time></trkpt><trkpt lat="9.3906026" lon="-75.6995773"><ele>20.0</ele><time>2026-04-18T13:12:13.689Z</time></trkpt><trkpt lat="9.3905926" lon="-75.6994921"><ele>20.0</ele><time>2026-04-18T13:12:14.689Z</time></trkpt><trkpt lat="9.3905792" lon="-75.699408"><ele>20.0</ele><time>2026-04-18T13:12:15.689Z</time></trkpt><trkpt lat="9.3905662" lon="-75.6993219"><ele>20.166666666666668</ele><time>2026-04-18T13:12:16.691Z</time></trkpt><trkpt lat="9.3905479" lon="-75.6992348"><ele>20.333333333333336</ele><time>2026-04-18T13:12:17.694Z</time></trkpt><trkpt lat="9.3905318" lon="-75.6991467"><ele>20.5</ele><time>2026-04-18T13:12:18.689Z</time></trkpt><trkpt lat="9.3905151" lon="-75.6990625"><ele>20.666666666666668</ele><time>2026-04-18T13:12:19.69Z</time></trkpt><trkpt lat="9.3904974" lon="-75.6989758"><ele>20.833333333333332</ele><time>2026-04-18T13:12:20.692Z</time></trkpt><trkpt lat="9.3904734" lon="-75.6988902"><ele>21.0</ele><time>2026-04-18T13:12:21.691Z</time></trkpt><trkpt lat="9.3904543" lon="-75.6988039"><ele>20.833333333333332</ele><time>2026-04-18T13:12:22.694Z</time></trkpt><trkpt lat="9.3904328" lon="-75.6987219"><ele>20.666666666666668</ele><time>2026-04-18T13:12:23.695Z</time></trkpt><trkpt lat="9.3904163" lon="-75.6986351"><ele>20.5</ele><time>2026-04-18T13:12:24.693Z</time></trkpt><trkpt lat="9.39039" lon="-75.6985521"><ele>20.333333333333336</ele><time>2026-04-18T13:12:25.69Z</time></trkpt><trkpt lat="9.3903654" lon="-75.6984703"><ele>20.166666666666668</ele><time>2026-04-18T13:12:26.692Z</time></trkpt><trkpt lat="9.3903387" lon="-75.6983861"><ele>20.0</ele><time>2026-04-18T13:12:27.692Z</time></trkpt><trkpt lat="9.3903135" lon="-75.6983044"><ele>20.0</ele><time>2026-04-18T13:12:28.687Z</time></trkpt><trkpt lat="9.3902843" lon="-75.6982227"><ele>20.0</ele><time>2026-04-18T13:12:29.694Z</time></trkpt><trkpt lat="9.3902572" lon="-75.6981428"><ele>20.0</ele><time>2026-04-18T13:12:30.691Z</time></trkpt><trkpt lat="9.3902325" lon="-75.6980588"><ele>20.0</ele><time>2026-04-18T13:12:31.69Z</time></trkpt><trkpt lat="9.3902027" lon="-75.6979785"><ele>20.0</ele><time>2026-04-18T13:12:32.687Z</time></trkpt><trkpt lat="9.3901729" lon="-75.6978984"><ele>20.0</ele><time>2026-04-18T13:12:33.685Z</time></trkpt><trkpt lat="9.3901462" lon="-75.6978203"><ele>20.0</ele><time>2026-04-18T13:12:34.686Z</time></trkpt><trkpt lat="9.3901235" lon="-75.6977429"><ele>20.0</ele><time>2026-04-18T13:12:35.689Z</time></trkpt><trkpt lat="9.3900983" lon="-75.6976614"><ele>20.0</ele><time>2026-04-18T13:12:36.695Z</time></trkpt><trkpt lat="9.3900738" lon="-75.6975876"><ele>20.0</ele><time>2026-04-18T13:12:37.693Z</time></trkpt><trkpt lat="9.3900455" lon="-75.6975107"><ele>20.0</ele><time>2026-04-18T13:12:38.693Z</time></trkpt><trkpt lat="9.3900235" lon="-75.6974342"><ele>20.0</ele><time>2026-04-18T13:12:39.695Z</time></trkpt><trkpt lat="9.3900007" lon="-75.6973604"><ele>20.0</ele><time>2026-04-18T13:12:40.693Z</time></trkpt><trkpt lat="9.3899769" lon="-75.6972867"><ele>20.0</ele><time>2026-04-18T13:12:41.688Z</time></trkpt><trkpt lat="9.389952" lon="-75.6972109"><ele>20.0</ele><time>2026-04-18T13:12:42.693Z</time></trkpt><trkpt lat="9.3899259" lon="-75.6971345"><ele>20.0</ele><time>2026-04-18T13:12:43.693Z</time></trkpt><trkpt lat="9.389897" lon="-75.6970609"><ele>20.0</ele><time>2026-04-18T13:12:44.695Z</time></trkpt><trkpt lat="9.3898705" lon="-75.6969893"><ele>20.0</ele><time>2026-04-18T13:12:45.693Z</time></trkpt><trkpt lat="9.389845" lon="-75.6969175"><ele>19.833333333333336</ele><time>2026-04-18T13:12:46.692Z</time></trkpt><trkpt lat="9.3898183" lon="-75.6968456"><ele>19.666666666666668</ele><time>2026-04-18T13:12:47.695Z</time></trkpt><trkpt lat="9.3897973" lon="-75.696773"><ele>19.5</ele><time>2026-04-18T13:12:48.689Z</time></trkpt><trkpt lat="9.3897741" lon="-75.6966984"><ele>19.333333333333332</ele><time>2026-04-18T13:12:49.694Z</time></trkpt><trkpt lat="9.3897518" lon="-75.6966239"><ele>19.166666666666664</ele><time>2026-04-18T13:12:50.694Z</time></trkpt><trkpt lat="9.389727" lon="-75.6965522"><ele>19.0</ele><time>2026-04-18T13:12:51.692Z</time></trkpt><trkpt lat="9.3897026" lon="-75.6964824"><ele>19.0</ele><time>2026-04-18T13:12:52.689Z</time></trkpt><trkpt lat="9.3896784" lon="-75.6964089"><ele>19.0</ele><time>2026-04-18T13:12:53.685Z</time></trkpt><trkpt lat="9.3896536" lon="-75.6963412"><ele>19.0</ele><time>2026-04-18T13:12:54.69Z</time></trkpt><trkpt lat="9.3896321" lon="-75.696272"><ele>19.0</ele><time>2026-04-18T13:12:55.688Z</time></trkpt><trkpt lat="9.3896113" lon="-75.6962089"><ele>19.0</ele><time>2026-04-18T13:12:56.692Z</time></trkpt><trkpt lat="9.3895918" lon="-75.6961458"><ele>19.0</ele><time>2026-04-18T13:12:57.692Z</time></trkpt><trkpt lat="9.3895718" lon="-75.6960815"><ele>19.0</ele><time>2026-04-18T13:12:58.692Z</time></trkpt><trkpt lat="9.3895537" lon="-75.6960196"><ele>20.6</ele><time>2026-04-18T13:12:59.692Z</time></trkpt><trkpt lat="9.3895322" lon="-75.6959594"><ele>22.2</ele><time>2026-04-18T13:13:00.693Z</time></trkpt><trkpt lat="9.3894938" lon="-75.6958456"><ele>23.800000000000004</ele><time>2026-04-18T13:13:02.694Z</time></trkpt><trkpt lat="9.3894596" lon="-75.6957304"><ele>25.400000000000002</ele><time>2026-04-18T13:13:04.689Z</time></trkpt><trkpt lat="9.389423" lon="-75.6956265"><ele>27.0</ele><time>2026-04-18T13:13:06.69Z</time></trkpt><trkpt lat="9.3893853" lon="-75.6955163"><ele>27.0</ele><time>2026-04-18T13:13:08.694Z</time></trkpt><trkpt lat="9.3893497" lon="-75.6954163"><ele>27.000000000000004</ele><time>2026-04-18T13:13:10.694Z</time></trkpt><trkpt lat="9.3893085" lon="-75.6953072"><ele>27.000000000000004</ele><time>2026-04-18T13:13:12.689Z</time></trkpt><trkpt lat="9.389273" lon="-75.6951945"><ele>27.0</ele><time>2026-04-18T13:13:14.687Z</time></trkpt><trkpt lat="9.3892543" lon="-75.6951331"><ele>27.0</ele><time>2026-04-18T13:13:15.688Z</time></trkpt><trkpt lat="9.3892328" lon="-75.6950715"><ele>26.57142857142857</ele><time>2026-04-18T13:13:16.689Z</time></trkpt><trkpt lat="9.3892111" lon="-75.6950062"><ele>26.142857142857142</ele><time>2026-04-18T13:13:17.695Z</time></trkpt><trkpt lat="9.3891869" lon="-75.6949387"><ele>25.714285714285715</ele><time>2026-04-18T13:13:18.69Z</time></trkpt><trkpt lat="9.3891646" lon="-75.6948689"><ele>25.285714285714285</ele><time>2026-04-18T13:13:19.691Z</time></trkpt><trkpt lat="9.3891375" lon="-75.6947981"><ele>24.857142857142858</ele><time>2026-04-18T13:13:20.693Z</time></trkpt><trkpt lat="9.3891152" lon="-75.6947224"><ele>24.428571428571427</ele><time>2026-04-18T13:13:21.695Z</time></trkpt><trkpt lat="9.3890894" lon="-75.6946425"><ele>24.0</ele><time>2026-04-18T13:13:22.693Z</time></trkpt><trkpt lat="9.3890658" lon="-75.6945703"><ele>24.0</ele><time>2026-04-18T13:13:23.695Z</time></trkpt><trkpt lat="9.3890375" lon="-75.6944957"><ele>24.0</ele><time>2026-04-18T13:13:24.694Z</time></trkpt><trkpt lat="9.3890092" lon="-75.6944236"><ele>24.0</ele><time>2026-04-18T13:13:25.689Z</time></trkpt><trkpt lat="9.3889853" lon="-75.6943484"><ele>24.0</ele><time>2026-04-18T13:13:26.694Z</time></trkpt><trkpt lat="9.3889578" lon="-75.6942743"><ele>24.0</ele><time>2026-04-18T13:13:27.695Z</time></trkpt><trkpt lat="9.388933" lon="-75.6942021"><ele>24.0</ele><time>2026-04-18T13:13:28.692Z</time></trkpt><trkpt lat="9.3889102" lon="-75.6941317"><ele>23.57142857142857</ele><time>2026-04-18T13:13:29.695Z</time></trkpt><trkpt lat="9.388886" lon="-75.6940576"><ele>23.142857142857142</ele><time>2026-04-18T13:13:30.691Z</time></trkpt><trkpt lat="9.3888619" lon="-75.6939874"><ele>22.714285714285715</ele><time>2026-04-18T13:13:31.688Z</time></trkpt><trkpt lat="9.3888397" lon="-75.6939174"><ele>22.285714285714285</ele><time>2026-04-18T13:13:32.689Z</time></trkpt><trkpt lat="9.3888153" lon="-75.6938455"><ele>21.857142857142858</ele><time>2026-04-18T13:13:33.69Z</time></trkpt><trkpt lat="9.3887929" lon="-75.6937755"><ele>21.428571428571427</ele><time>2026-04-18T13:13:34.689Z</time></trkpt><trkpt lat="9.3887662" lon="-75.6937071"><ele>21.0</ele><time>2026-04-18T13:13:35.691Z</time></trkpt><trkpt lat="9.3887429" lon="-75.6936413"><ele>20.333333333333332</ele><time>2026-04-18T13:13:36.686Z</time></trkpt><trkpt lat="9.3887266" lon="-75.6935763"><ele>19.666666666666668</ele><time>2026-04-18T13:13:37.688Z</time></trkpt><trkpt lat="9.3887056" lon="-75.693512"><ele>19.0</ele><time>2026-04-18T13:13:38.69Z</time></trkpt><trkpt lat="9.3886851" lon="-75.6934484"><ele>18.333333333333336</ele><time>2026-04-18T13:13:39.695Z</time></trkpt><trkpt lat="9.388664" lon="-75.6933882"><ele>17.666666666666668</ele><time>2026-04-18T13:13:40.688Z</time></trkpt><trkpt lat="9.3886242" lon="-75.6932755"><ele>17.0</ele><time>2026-04-18T13:13:42.687Z</time></trkpt><trkpt lat="9.3885818" lon="-75.6931654"><ele>17.0</ele><time>2026-04-18T13:13:44.687Z</time></trkpt><trkpt lat="9.3885562" lon="-75.69306"><ele>17.0</ele><time>2026-04-18T13:13:46.686Z</time></trkpt><trkpt lat="9.3885199" lon="-75.6929423"><ele>17.0</ele><time>2026-04-18T13:13:48.686Z</time></trkpt><trkpt lat="9.3884945" lon="-75.6928784"><ele>17.0</ele><time>2026-04-18T13:13:49.686Z</time></trkpt><trkpt lat="9.3884756" lon="-75.6928084"><ele>17.0</ele><time>2026-04-18T13:13:50.686Z</time></trkpt><trkpt lat="9.3884566" lon="-75.6927413"><ele>17.0</ele><time>2026-04-18T13:13:51.688Z</time></trkpt><trkpt lat="9.3884356" lon="-75.692668"><ele>17.142857142857142</ele><time>2026-04-18T13:13:52.687Z</time></trkpt><trkpt lat="9.3884098" lon="-75.6925916"><ele>17.285714285714285</ele><time>2026-04-18T13:13:53.687Z</time></trkpt><trkpt lat="9.3883822" lon="-75.692519"><ele>17.42857142857143</ele><time>2026-04-18T13:13:54.691Z</time></trkpt><trkpt lat="9.3883563" lon="-75.6924511"><ele>17.57142857142857</ele><time>2026-04-18T13:13:55.691Z</time></trkpt><trkpt lat="9.3883319" lon="-75.6923866"><ele>17.714285714285715</ele><time>2026-04-18T13:13:56.69Z</time></trkpt><trkpt lat="9.3883064" lon="-75.6923244"><ele>17.857142857142858</ele><time>2026-04-18T13:13:57.687Z</time></trkpt><trkpt lat="9.3882833" lon="-75.6922615"><ele>18.0</ele><time>2026-04-18T13:13:58.687Z</time></trkpt><trkpt lat="9.38826" lon="-75.6921993"><ele>18.000000000000004</ele><time>2026-04-18T13:13:59.687Z</time></trkpt><trkpt lat="9.3882332" lon="-75.6921342"><ele>18.0</ele><time>2026-04-18T13:14:00.688Z</time></trkpt><trkpt lat="9.3882122" lon="-75.6920693"><ele>18.0</ele><time>2026-04-18T13:14:01.691Z</time></trkpt><trkpt lat="9.3881919" lon="-75.6920009"><ele>18.0</ele><time>2026-04-18T13:14:02.694Z</time></trkpt><trkpt lat="9.3881715" lon="-75.6919312"><ele>18.0</ele><time>2026-04-18T13:14:03.689Z</time></trkpt><trkpt lat="9.3881537" lon="-75.691868"><ele>18.000000000000004</ele><time>2026-04-18T13:14:04.69Z</time></trkpt><trkpt lat="9.3881304" lon="-75.6917994"><ele>18.0</ele><time>2026-04-18T13:14:05.687Z</time></trkpt><trkpt lat="9.388108" lon="-75.6917357"><ele>17.714285714285715</ele><time>2026-04-18T13:14:06.688Z</time></trkpt><trkpt lat="9.3880873" lon="-75.6916724"><ele>17.42857142857143</ele><time>2026-04-18T13:14:07.689Z</time></trkpt><trkpt lat="9.3880686" lon="-75.691606"><ele>17.142857142857142</ele><time>2026-04-18T13:14:08.689Z</time></trkpt><trkpt lat="9.3880466" lon="-75.6915331"><ele>16.857142857142858</ele><time>2026-04-18T13:14:09.69Z</time></trkpt><trkpt lat="9.3880223" lon="-75.6914688"><ele>16.57142857142857</ele><time>2026-04-18T13:14:10.694Z</time></trkpt><trkpt lat="9.3879989" lon="-75.6914"><ele>16.285714285714285</ele><time>2026-04-18T13:14:11.693Z</time></trkpt><trkpt lat="9.387981" lon="-75.6913326"><ele>16.0</ele><time>2026-04-18T13:14:12.694Z</time></trkpt><trkpt lat="9.3879558" lon="-75.691265"><ele>16.0</ele><time>2026-04-18T13:14:13.691Z</time></trkpt><trkpt lat="9.3879319" lon="-75.6911883"><ele>15.999999999999998</ele><time>2026-04-18T13:14:14.691Z</time></trkpt><trkpt lat="9.3879058" lon="-75.6911214"><ele>16.0</ele><time>2026-04-18T13:14:15.695Z</time></trkpt><trkpt lat="9.387883" lon="-75.6910526"><ele>16.0</ele><time>2026-04-18T13:14:16.693Z</time></trkpt><trkpt lat="9.3878569" lon="-75.690984"><ele>15.999999999999998</ele><time>2026-04-18T13:14:17.69Z</time></trkpt><trkpt lat="9.3878324" lon="-75.6909124"><ele>16.0</ele><time>2026-04-18T13:14:18.695Z</time></trkpt><trkpt lat="9.3878076" lon="-75.6908403"><ele>16.0</ele><time>2026-04-18T13:14:19.692Z</time></trkpt><trkpt lat="9.3877853" lon="-75.6907686"><ele>15.999999999999998</ele><time>2026-04-18T13:14:20.687Z</time></trkpt><trkpt lat="9.3877641" lon="-75.6906964"><ele>16.0</ele><time>2026-04-18T13:14:21.689Z</time></trkpt><trkpt lat="9.3877415" lon="-75.6906188"><ele>16.0</ele><time>2026-04-18T13:14:22.689Z</time></trkpt><trkpt lat="9.3877161" lon="-75.6905459"><ele>16.0</ele><time>2026-04-18T13:14:23.691Z</time></trkpt><trkpt lat="9.3876931" lon="-75.6904713"><ele>15.999999999999998</ele><time>2026-04-18T13:14:24.689Z</time></trkpt><trkpt lat="9.3876757" lon="-75.6903971"><ele>16.0</ele><time>2026-04-18T13:14:25.688Z</time></trkpt><trkpt lat="9.3876579" lon="-75.6903232"><ele>15.499999999999998</ele><time>2026-04-18T13:14:26.692Z</time></trkpt><trkpt lat="9.387643" lon="-75.6902523"><ele>15.0</ele><time>2026-04-18T13:14:27.692Z</time></trkpt><trkpt lat="9.3876272" lon="-75.690176"><ele>14.5</ele><time>2026-04-18T13:14:28.689Z</time></trkpt><trkpt lat="9.3876122" lon="-75.6901011"><ele>14.0</ele><time>2026-04-18T13:14:29.691Z</time></trkpt><trkpt lat="9.3875961" lon="-75.6900219"><ele>13.499999999999998</ele><time>2026-04-18T13:14:30.691Z</time></trkpt><trkpt lat="9.3875818" lon="-75.6899465"><ele>13.0</ele><time>2026-04-18T13:14:31.689Z</time></trkpt><trkpt lat="9.3875724" lon="-75.6898714"><ele>13.0</ele><time>2026-04-18T13:14:32.69Z</time></trkpt><trkpt lat="9.3875604" lon="-75.6897994"><ele>13.0</ele><time>2026-04-18T13:14:33.691Z</time></trkpt><trkpt lat="9.3875527" lon="-75.6897264"><ele>13.0</ele><time>2026-04-18T13:14:34.691Z</time></trkpt><trkpt lat="9.3875468" lon="-75.6896491"><ele>13.0</ele><time>2026-04-18T13:14:35.696Z</time></trkpt><trkpt lat="9.3875428" lon="-75.6895744"><ele>13.0</ele><time>2026-04-18T13:14:36.691Z</time></trkpt><trkpt lat="9.3875402" lon="-75.6895024"><ele>13.0</ele><time>2026-04-18T13:14:37.691Z</time></trkpt><trkpt lat="9.3875402" lon="-75.6894301"><ele>13.0</ele><time>2026-04-18T13:14:38.692Z</time></trkpt><trkpt lat="9.3875399" lon="-75.6893545"><ele>13.428571428571427</ele><time>2026-04-18T13:14:39.692Z</time></trkpt><trkpt lat="9.3875393" lon="-75.6892799"><ele>13.857142857142858</ele><time>2026-04-18T13:14:40.69Z</time></trkpt><trkpt lat="9.3875374" lon="-75.6892096"><ele>14.285714285714285</ele><time>2026-04-18T13:14:41.69Z</time></trkpt><trkpt lat="9.3875384" lon="-75.6891377"><ele>14.714285714285714</ele><time>2026-04-18T13:14:42.688Z</time></trkpt><trkpt lat="9.3875361" lon="-75.6890681"><ele>15.142857142857142</ele><time>2026-04-18T13:14:43.689Z</time></trkpt><trkpt lat="9.3875364" lon="-75.6890018"><ele>15.571428571428571</ele><time>2026-04-18T13:14:44.69Z</time></trkpt><trkpt lat="9.387532" lon="-75.6889333"><ele>16.0</ele><time>2026-04-18T13:14:45.691Z</time></trkpt><trkpt lat="9.3875325" lon="-75.6888677"><ele>16.0</ele><time>2026-04-18T13:14:46.695Z</time></trkpt><trkpt lat="9.3875356" lon="-75.6888014"><ele>16.0</ele><time>2026-04-18T13:14:47.691Z</time></trkpt><trkpt lat="9.3875342" lon="-75.6886722"><ele>16.0</ele><time>2026-04-18T13:14:49.69Z</time></trkpt><trkpt lat="9.3875312" lon="-75.6885464"><ele>16.0</ele><time>2026-04-18T13:14:51.688Z</time></trkpt><trkpt lat="9.3875291" lon="-75.688422"><ele>16.0</ele><time>2026-04-18T13:14:53.691Z</time></trkpt><trkpt lat="9.3875294" lon="-75.6883023"><ele>17.5</ele><time>2026-04-18T13:14:55.69Z</time></trkpt><trkpt lat="9.3875321" lon="-75.6881814"><ele>19.0</ele><time>2026-04-18T13:14:57.695Z</time></trkpt><trkpt lat="9.3875335" lon="-75.6880646"><ele>20.5</ele><time>2026-04-18T13:14:59.687Z</time></trkpt><trkpt lat="9.3875333" lon="-75.6879528"><ele>22.0</ele><time>2026-04-18T13:15:01.688Z</time></trkpt><trkpt lat="9.3875328" lon="-75.6878354"><ele>23.400000000000002</ele><time>2026-04-18T13:15:03.693Z</time></trkpt><trkpt lat="9.387525" lon="-75.6877209"><ele>24.8</ele><time>2026-04-18T13:15:05.692Z</time></trkpt><trkpt lat="9.3875303" lon="-75.6876089"><ele>26.2</ele><time>2026-04-18T13:15:07.692Z</time></trkpt><trkpt lat="9.3875287" lon="-75.687505"><ele>27.6</ele><time>2026-04-18T13:15:09.692Z</time></trkpt><trkpt lat="9.3875282" lon="-75.6873925"><ele>29.0</ele><time>2026-04-18T13:15:11.691Z</time></trkpt><trkpt lat="9.387524" lon="-75.6872846"><ele>29.0</ele><time>2026-04-18T13:15:13.692Z</time></trkpt><trkpt lat="9.3875138" lon="-75.6871767"><ele>29.0</ele><time>2026-04-18T13:15:15.69Z</time></trkpt><trkpt lat="9.3875054" lon="-75.6870627"><ele>29.0</ele><time>2026-04-18T13:15:17.69Z</time></trkpt><trkpt lat="9.3874911" lon="-75.6869531"><ele>29.0</ele><time>2026-04-18T13:15:19.692Z</time></trkpt><trkpt lat="9.3874778" lon="-75.6868404"><ele>29.0</ele><time>2026-04-18T13:15:21.694Z</time></trkpt><trkpt lat="9.387461" lon="-75.6867271"><ele>29.0</ele><time>2026-04-18T13:15:23.692Z</time></trkpt><trkpt lat="9.3874505" lon="-75.6866136"><ele>29.0</ele><time>2026-04-18T13:15:25.694Z</time></trkpt><trkpt lat="9.3874332" lon="-75.6864909"><ele>29.0</ele><time>2026-04-18T13:15:27.691Z</time></trkpt><trkpt lat="9.3874166" lon="-75.6863716"><ele>29.0</ele><time>2026-04-18T13:15:29.69Z</time></trkpt><trkpt lat="9.3873898" lon="-75.6862583"><ele>29.0</ele><time>2026-04-18T13:15:31.693Z</time></trkpt><trkpt lat="9.3873636" lon="-75.6861457"><ele>29.0</ele><time>2026-04-18T13:15:33.69Z</time></trkpt><trkpt lat="9.3873419" lon="-75.6860362"><ele>29.0</ele><time>2026-04-18T13:15:35.693Z</time></trkpt><trkpt lat="9.3873137" lon="-75.6859227"><ele>29.0</ele><time>2026-04-18T13:15:37.689Z</time></trkpt><trkpt lat="9.3872925" lon="-75.6858163"><ele>29.0</ele><time>2026-04-18T13:15:39.696Z</time></trkpt><trkpt lat="9.387273" lon="-75.6857076"><ele>27.75</ele><time>2026-04-18T13:15:41.694Z</time></trkpt><trkpt lat="9.3872543" lon="-75.6856025"><ele>26.5</ele><time>2026-04-18T13:15:43.689Z</time></trkpt><trkpt lat="9.387229" lon="-75.6854836"><ele>25.25</ele><time>2026-04-18T13:15:45.693Z</time></trkpt><trkpt lat="9.3872033" lon="-75.6853611"><ele>24.0</ele><time>2026-04-18T13:15:47.691Z</time></trkpt><trkpt lat="9.3871821" lon="-75.6852349"><ele>24.57142857142857</ele><time>2026-04-18T13:15:49.691Z</time></trkpt><trkpt lat="9.3871668" lon="-75.6851719"><ele>25.142857142857142</ele><time>2026-04-18T13:15:50.691Z</time></trkpt><trkpt lat="9.3871547" lon="-75.6851029"><ele>25.714285714285715</ele><time>2026-04-18T13:15:51.69Z</time></trkpt><trkpt lat="9.387137" lon="-75.6850335"><ele>26.285714285714285</ele><time>2026-04-18T13:15:52.691Z</time></trkpt><trkpt lat="9.3871196" lon="-75.6849655"><ele>26.857142857142858</ele><time>2026-04-18T13:15:53.69Z</time></trkpt><trkpt lat="9.387111" lon="-75.6848955"><ele>27.428571428571427</ele><time>2026-04-18T13:15:54.69Z</time></trkpt><trkpt lat="9.3870973" lon="-75.6848296"><ele>28.0</ele><time>2026-04-18T13:15:55.691Z</time></trkpt><trkpt lat="9.3870813" lon="-75.6847561"><ele>28.0</ele><time>2026-04-18T13:15:56.694Z</time></trkpt><trkpt lat="9.3870659" lon="-75.6846884"><ele>28.0</ele><time>2026-04-18T13:15:57.689Z</time></trkpt><trkpt lat="9.3870489" lon="-75.6846214"><ele>28.0</ele><time>2026-04-18T13:15:58.694Z</time></trkpt><trkpt lat="9.3870307" lon="-75.6845517"><ele>28.0</ele><time>2026-04-18T13:15:59.693Z</time></trkpt><trkpt lat="9.3870156" lon="-75.6844795"><ele>28.0</ele><time>2026-04-18T13:16:00.692Z</time></trkpt><trkpt lat="9.3869982" lon="-75.6844061"><ele>28.0</ele><time>2026-04-18T13:16:01.691Z</time></trkpt><trkpt lat="9.3869826" lon="-75.6843306"><ele>28.0</ele><time>2026-04-18T13:16:02.693Z</time></trkpt><trkpt lat="9.3869644" lon="-75.6842585"><ele>27.666666666666668</ele><time>2026-04-18T13:16:03.694Z</time></trkpt><trkpt lat="9.3869483" lon="-75.6841815"><ele>27.333333333333336</ele><time>2026-04-18T13:16:04.691Z</time></trkpt><trkpt lat="9.3869343" lon="-75.6841052"><ele>27.0</ele><time>2026-04-18T13:16:05.691Z</time></trkpt><trkpt lat="9.3869207" lon="-75.684029"><ele>26.666666666666664</ele><time>2026-04-18T13:16:06.693Z</time></trkpt><trkpt lat="9.3869019" lon="-75.6839525"><ele>26.333333333333332</ele><time>2026-04-18T13:16:07.693Z</time></trkpt><trkpt lat="9.3868879" lon="-75.6838796"><ele>26.0</ele><time>2026-04-18T13:16:08.693Z</time></trkpt><trkpt lat="9.3868757" lon="-75.6838006"><ele>25.999999999999996</ele><time>2026-04-18T13:16:09.691Z</time></trkpt><trkpt lat="9.3868626" lon="-75.6837242"><ele>26.0</ele><time>2026-04-18T13:16:10.694Z</time></trkpt><trkpt lat="9.3868481" lon="-75.6836448"><ele>26.0</ele><time>2026-04-18T13:16:11.691Z</time></trkpt><trkpt lat="9.3868392" lon="-75.6835664"><ele>26.0</ele><time>2026-04-18T13:16:12.692Z</time></trkpt><trkpt lat="9.3868345" lon="-75.6834835"><ele>25.999999999999996</ele><time>2026-04-18T13:16:13.69Z</time></trkpt><trkpt lat="9.3868273" lon="-75.6834012"><ele>26.0</ele><time>2026-04-18T13:16:14.691Z</time></trkpt><trkpt lat="9.3868206" lon="-75.6833131"><ele>25.166666666666664</ele><time>2026-04-18T13:16:15.691Z</time></trkpt><trkpt lat="9.3868157" lon="-75.6832258"><ele>24.333333333333332</ele><time>2026-04-18T13:16:16.692Z</time></trkpt><trkpt lat="9.3868136" lon="-75.6831383"><ele>23.5</ele><time>2026-04-18T13:16:17.694Z</time></trkpt><trkpt lat="9.3868104" lon="-75.6830518"><ele>22.666666666666664</ele><time>2026-04-18T13:16:18.696Z</time></trkpt><trkpt lat="9.3868136" lon="-75.68296"><ele>21.833333333333332</ele><time>2026-04-18T13:16:19.691Z</time></trkpt><trkpt lat="9.3868142" lon="-75.6828716"><ele>21.0</ele><time>2026-04-18T13:16:20.69Z</time></trkpt><trkpt lat="9.3868151" lon="-75.6827811"><ele>20.0</ele><time>2026-04-18T13:16:21.69Z</time></trkpt><trkpt lat="9.3868172" lon="-75.6826918"><ele>19.0</ele><time>2026-04-18T13:16:22.692Z</time></trkpt><trkpt lat="9.3868213" lon="-75.682603"><ele>18.0</ele><time>2026-04-18T13:16:23.691Z</time></trkpt><trkpt lat="9.3868336" lon="-75.6825135"><ele>17.0</ele><time>2026-04-18T13:16:24.694Z</time></trkpt><trkpt lat="9.3868454" lon="-75.6824235"><ele>16.0</ele><time>2026-04-18T13:16:25.693Z</time></trkpt><trkpt lat="9.3868466" lon="-75.6823315"><ele>15.0</ele><time>2026-04-18T13:16:26.692Z</time></trkpt><trkpt lat="9.3868549" lon="-75.6822424"><ele>15.0</ele><time>2026-04-18T13:16:27.695Z</time></trkpt><trkpt lat="9.3868617" lon="-75.6821544"><ele>15.0</ele><time>2026-04-18T13:16:28.694Z</time></trkpt><trkpt lat="9.3868681" lon="-75.6820659"><ele>15.0</ele><time>2026-04-18T13:16:29.694Z</time></trkpt><trkpt lat="9.386875" lon="-75.6819775"><ele>15.0</ele><time>2026-04-18T13:16:30.693Z</time></trkpt><trkpt lat="9.3868813" lon="-75.6818956"><ele>15.0</ele><time>2026-04-18T13:16:31.694Z</time></trkpt><trkpt lat="9.3868946" lon="-75.6818112"><ele>15.0</ele><time>2026-04-18T13:16:32.694Z</time></trkpt><trkpt lat="9.3869022" lon="-75.6817273"><ele>14.5</ele><time>2026-04-18T13:16:33.692Z</time></trkpt><trkpt lat="9.386904" lon="-75.6816519"><ele>14.0</ele><time>2026-04-18T13:16:34.691Z</time></trkpt><trkpt lat="9.3868979" lon="-75.6815767"><ele>13.5</ele><time>2026-04-18T13:16:35.689Z</time></trkpt><trkpt lat="9.3868914" lon="-75.681509"><ele>13.0</ele><time>2026-04-18T13:16:36.695Z</time></trkpt><trkpt lat="9.3868748" lon="-75.6814459"><ele>12.5</ele><time>2026-04-18T13:16:37.689Z</time></trkpt><trkpt lat="9.3868423" lon="-75.6813848"><ele>12.0</ele><time>2026-04-18T13:16:38.695Z</time></trkpt><trkpt lat="9.3867742" lon="-75.68128"><ele>12.0</ele><time>2026-04-18T13:16:40.692Z</time></trkpt><trkpt lat="9.38671" lon="-75.6811795"><ele>12.0</ele><time>2026-04-18T13:16:42.689Z</time></trkpt><trkpt lat="9.3866675" lon="-75.6810817"><ele>12.0</ele><time>2026-04-18T13:16:44.691Z</time></trkpt><trkpt lat="9.3866598" lon="-75.6809724"><ele>12.0</ele><time>2026-04-18T13:16:46.688Z</time></trkpt><trkpt lat="9.3866876" lon="-75.6808558"><ele>11.75</ele><time>2026-04-18T13:16:48.69Z</time></trkpt><trkpt lat="9.3867498" lon="-75.6807561"><ele>11.5</ele><time>2026-04-18T13:16:50.69Z</time></trkpt><trkpt lat="9.3868217" lon="-75.6806646"><ele>11.25</ele><time>2026-04-18T13:16:52.692Z</time></trkpt><trkpt lat="9.3868977" lon="-75.6805681"><ele>11.0</ele><time>2026-04-18T13:16:54.691Z</time></trkpt><trkpt lat="9.386953" lon="-75.6804471"><ele>11.0</ele><time>2026-04-18T13:16:56.69Z</time></trkpt><trkpt lat="9.3869752" lon="-75.6803824"><ele>11.0</ele><time>2026-04-18T13:16:57.688Z</time></trkpt><trkpt lat="9.3869907" lon="-75.6803157"><ele>11.0</ele><time>2026-04-18T13:16:58.687Z</time></trkpt><trkpt lat="9.3869993" lon="-75.6802458"><ele>11.0</ele><time>2026-04-18T13:16:59.694Z</time></trkpt><trkpt lat="9.387005" lon="-75.6801821"><ele>11.0</ele><time>2026-04-18T13:17:00.688Z</time></trkpt><trkpt lat="9.3870091" lon="-75.6801118"><ele>11.0</ele><time>2026-04-18T13:17:01.687Z</time></trkpt><trkpt lat="9.3870157" lon="-75.6800416"><ele>11.0</ele><time>2026-04-18T13:17:02.687Z</time></trkpt><trkpt lat="9.3870226" lon="-75.6799706"><ele>10.714285714285715</ele><time>2026-04-18T13:17:03.689Z</time></trkpt><trkpt lat="9.3870291" lon="-75.6799001"><ele>10.428571428571429</ele><time>2026-04-18T13:17:04.686Z</time></trkpt><trkpt lat="9.3870342" lon="-75.6798316"><ele>10.142857142857142</ele><time>2026-04-18T13:17:05.689Z</time></trkpt><trkpt lat="9.3870364" lon="-75.6797661"><ele>9.857142857142858</ele><time>2026-04-18T13:17:06.687Z</time></trkpt><trkpt lat="9.3870409" lon="-75.6796998"><ele>9.571428571428571</ele><time>2026-04-18T13:17:07.687Z</time></trkpt><trkpt lat="9.3870468" lon="-75.6796328"><ele>9.285714285714286</ele><time>2026-04-18T13:17:08.69Z</time></trkpt><trkpt lat="9.3870539" lon="-75.6795645"><ele>9.0</ele><time>2026-04-18T13:17:09.687Z</time></trkpt><trkpt lat="9.3870595" lon="-75.6794913"><ele>9.285714285714286</ele><time>2026-04-18T13:17:10.691Z</time></trkpt><trkpt lat="9.3870679" lon="-75.6794224"><ele>9.571428571428571</ele><time>2026-04-18T13:17:11.689Z</time></trkpt><trkpt lat="9.3870752" lon="-75.6793533"><ele>9.857142857142858</ele><time>2026-04-18T13:17:12.69Z</time></trkpt><trkpt lat="9.3870791" lon="-75.679286"><ele>10.142857142857142</ele><time>2026-04-18T13:17:13.693Z</time></trkpt><trkpt lat="9.3870889" lon="-75.6792195"><ele>10.428571428571429</ele><time>2026-04-18T13:17:14.692Z</time></trkpt><trkpt lat="9.3870976" lon="-75.679153"><ele>10.714285714285715</ele><time>2026-04-18T13:17:15.696Z</time></trkpt><trkpt lat="9.3871036" lon="-75.6790848"><ele>11.0</ele><time>2026-04-18T13:17:16.691Z</time></trkpt><trkpt lat="9.3871126" lon="-75.6790126"><ele>11.0</ele><time>2026-04-18T13:17:17.695Z</time></trkpt><trkpt lat="9.3871181" lon="-75.6789425"><ele>11.0</ele><time>2026-04-18T13:17:18.689Z</time></trkpt><trkpt lat="9.3871245" lon="-75.6788698"><ele>11.0</ele><time>2026-04-18T13:17:19.691Z</time></trkpt><trkpt lat="9.3871311" lon="-75.6787985"><ele>11.0</ele><time>2026-04-18T13:17:20.69Z</time></trkpt><trkpt lat="9.3871395" lon="-75.6787253"><ele>11.0</ele><time>2026-04-18T13:17:21.692Z</time></trkpt><trkpt lat="9.387146" lon="-75.6786552"><ele>11.0</ele><time>2026-04-18T13:17:22.694Z</time></trkpt><trkpt lat="9.3871502" lon="-75.678585"><ele>11.0</ele><time>2026-04-18T13:17:23.691Z</time></trkpt><trkpt lat="9.3871587" lon="-75.6784545"><ele>11.0</ele><time>2026-04-18T13:17:25.69Z</time></trkpt><trkpt lat="9.3871678" lon="-75.6783836"><ele>11.0</ele><time>2026-04-18T13:17:26.687Z</time></trkpt><trkpt lat="9.3871711" lon="-75.6783125"><ele>11.0</ele><time>2026-04-18T13:17:27.687Z</time></trkpt><trkpt lat="9.3871761" lon="-75.6782411"><ele>11.0</ele><time>2026-04-18T13:17:28.692Z</time></trkpt><trkpt lat="9.3871838" lon="-75.6781666"><ele>11.0</ele><time>2026-04-18T13:17:29.69Z</time></trkpt><trkpt lat="9.3871894" lon="-75.6780943"><ele>11.0</ele><time>2026-04-18T13:17:30.688Z</time></trkpt><trkpt lat="9.3871978" lon="-75.6780177"><ele>11.0</ele><time>2026-04-18T13:17:31.687Z</time></trkpt><trkpt lat="9.3872023" lon="-75.6779426"><ele>10.833333333333332</ele><time>2026-04-18T13:17:32.689Z</time></trkpt><trkpt lat="9.3872059" lon="-75.6778667"><ele>10.666666666666666</ele><time>2026-04-18T13:17:33.692Z</time></trkpt><trkpt lat="9.3872106" lon="-75.6777901"><ele>10.5</ele><time>2026-04-18T13:17:34.693Z</time></trkpt><trkpt lat="9.3872204" lon="-75.6777126"><ele>10.333333333333334</ele><time>2026-04-18T13:17:35.688Z</time></trkpt><trkpt lat="9.3872249" lon="-75.677636"><ele>10.166666666666668</ele><time>2026-04-18T13:17:36.69Z</time></trkpt><trkpt lat="9.3872317" lon="-75.6775586"><ele>10.0</ele><time>2026-04-18T13:17:37.686Z</time></trkpt><trkpt lat="9.3872397" lon="-75.6774827"><ele>10.0</ele><time>2026-04-18T13:17:38.689Z</time></trkpt><trkpt lat="9.3872463" lon="-75.6774082"><ele>10.0</ele><time>2026-04-18T13:17:39.693Z</time></trkpt><trkpt lat="9.3872531" lon="-75.6773295"><ele>10.0</ele><time>2026-04-18T13:17:40.688Z</time></trkpt><trkpt lat="9.3872636" lon="-75.6772438"><ele>10.0</ele><time>2026-04-18T13:17:41.689Z</time></trkpt><trkpt lat="9.3872656" lon="-75.6771654"><ele>10.0</ele><time>2026-04-18T13:17:42.692Z</time></trkpt><trkpt lat="9.3872683" lon="-75.6770825"><ele>10.0</ele><time>2026-04-18T13:17:43.688Z</time></trkpt><trkpt lat="9.3872738" lon="-75.6770029"><ele>9.666666666666668</ele><time>2026-04-18T13:17:44.69Z</time></trkpt><trkpt lat="9.3872806" lon="-75.6769208"><ele>9.333333333333334</ele><time>2026-04-18T13:17:45.688Z</time></trkpt><trkpt lat="9.3872913" lon="-75.676839"><ele>9.0</ele><time>2026-04-18T13:17:46.685Z</time></trkpt><trkpt lat="9.3872983" lon="-75.6767581"><ele>8.666666666666666</ele><time>2026-04-18T13:17:47.69Z</time></trkpt><trkpt lat="9.3873017" lon="-75.6766743"><ele>8.333333333333332</ele><time>2026-04-18T13:17:48.687Z</time></trkpt><trkpt lat="9.3873112" lon="-75.6765931"><ele>8.0</ele><time>2026-04-18T13:17:49.686Z</time></trkpt><trkpt lat="9.3873177" lon="-75.6765117"><ele>7.999999999999999</ele><time>2026-04-18T13:17:50.685Z</time></trkpt><trkpt lat="9.3873269" lon="-75.6764298"><ele>8.0</ele><time>2026-04-18T13:17:51.689Z</time></trkpt><trkpt lat="9.3873345" lon="-75.6763498"><ele>8.0</ele><time>2026-04-18T13:17:52.689Z</time></trkpt><trkpt lat="9.3873398" lon="-75.6762706"><ele>8.0</ele><time>2026-04-18T13:17:53.687Z</time></trkpt><trkpt lat="9.3873428" lon="-75.6761891"><ele>7.999999999999999</ele><time>2026-04-18T13:17:54.686Z</time></trkpt><trkpt lat="9.3873527" lon="-75.6761097"><ele>8.0</ele><time>2026-04-18T13:17:55.689Z</time></trkpt><trkpt lat="9.387363" lon="-75.6760244"><ele>8.166666666666666</ele><time>2026-04-18T13:17:56.685Z</time></trkpt><trkpt lat="9.3873703" lon="-75.6759382"><ele>8.333333333333332</ele><time>2026-04-18T13:17:57.693Z</time></trkpt><trkpt lat="9.387377" lon="-75.6758572"><ele>8.5</ele><time>2026-04-18T13:17:58.691Z</time></trkpt><trkpt lat="9.3873837" lon="-75.6757755"><ele>8.666666666666666</ele><time>2026-04-18T13:17:59.693Z</time></trkpt><trkpt lat="9.3873857" lon="-75.6756937"><ele>8.833333333333334</ele><time>2026-04-18T13:18:00.69Z</time></trkpt><trkpt lat="9.3873889" lon="-75.6756124"><ele>9.0</ele><time>2026-04-18T13:18:01.693Z</time></trkpt><trkpt lat="9.387394" lon="-75.6755302"><ele>9.0</ele><time>2026-04-18T13:18:02.689Z</time></trkpt><trkpt lat="9.3874038" lon="-75.6754453"><ele>9.0</ele><time>2026-04-18T13:18:03.689Z</time></trkpt><trkpt lat="9.3874102" lon="-75.6753635"><ele>9.0</ele><time>2026-04-18T13:18:04.691Z</time></trkpt><trkpt lat="9.387415" lon="-75.6752831"><ele>9.0</ele><time>2026-04-18T13:18:05.69Z</time></trkpt><trkpt lat="9.3874205" lon="-75.6751998"><ele>9.0</ele><time>2026-04-18T13:18:06.692Z</time></trkpt><trkpt lat="9.3874255" lon="-75.6751181"><ele>9.0</ele><time>2026-04-18T13:18:07.688Z</time></trkpt><trkpt lat="9.3874351" lon="-75.675036"><ele>8.666666666666666</ele><time>2026-04-18T13:18:08.685Z</time></trkpt><trkpt lat="9.3874423" lon="-75.674954"><ele>8.333333333333334</ele><time>2026-04-18T13:18:09.695Z</time></trkpt><trkpt lat="9.3874491" lon="-75.6748731"><ele>8.0</ele><time>2026-04-18T13:18:10.693Z</time></trkpt><trkpt lat="9.3874569" lon="-75.6747899"><ele>7.666666666666667</ele><time>2026-04-18T13:18:11.691Z</time></trkpt><trkpt lat="9.3874645" lon="-75.6747037"><ele>7.333333333333334</ele><time>2026-04-18T13:18:12.69Z</time></trkpt><trkpt lat="9.3874718" lon="-75.6746224"><ele>7.0</ele><time>2026-04-18T13:18:13.69Z</time></trkpt><trkpt lat="9.3874804" lon="-75.6745418"><ele>7.000000000000001</ele><time>2026-04-18T13:18:14.691Z</time></trkpt><trkpt lat="9.3874849" lon="-75.6744566"><ele>7.0</ele><time>2026-04-18T13:18:15.694Z</time></trkpt><trkpt lat="9.3874927" lon="-75.6743754"><ele>7.0</ele><time>2026-04-18T13:18:16.696Z</time></trkpt><trkpt lat="9.3874984" lon="-75.6742938"><ele>7.0</ele><time>2026-04-18T13:18:17.691Z</time></trkpt><trkpt lat="9.3875059" lon="-75.6742137"><ele>7.000000000000001</ele><time>2026-04-18T13:18:18.691Z</time></trkpt><trkpt lat="9.3875117" lon="-75.6741354"><ele>7.0</ele><time>2026-04-18T13:18:19.687Z</time></trkpt><trkpt lat="9.3875191" lon="-75.6740595"><ele>7.166666666666667</ele><time>2026-04-18T13:18:20.691Z</time></trkpt><trkpt lat="9.387523" lon="-75.6739826"><ele>7.333333333333334</ele><time>2026-04-18T13:18:21.695Z</time></trkpt><trkpt lat="9.3875256" lon="-75.6739039"><ele>7.5</ele><time>2026-04-18T13:18:22.693Z</time></trkpt><trkpt lat="9.3875295" lon="-75.6738253"><ele>7.666666666666666</ele><time>2026-04-18T13:18:23.693Z</time></trkpt><trkpt lat="9.387534" lon="-75.6737517"><ele>7.833333333333333</ele><time>2026-04-18T13:18:24.69Z</time></trkpt><trkpt lat="9.3875388" lon="-75.6736745"><ele>8.0</ele><time>2026-04-18T13:18:25.695Z</time></trkpt><trkpt lat="9.3875442" lon="-75.6736008"><ele>8.428571428571429</ele><time>2026-04-18T13:18:26.69Z</time></trkpt><trkpt lat="9.387551" lon="-75.6735245"><ele>8.857142857142856</ele><time>2026-04-18T13:18:27.691Z</time></trkpt><trkpt lat="9.3875578" lon="-75.6734507"><ele>9.285714285714285</ele><time>2026-04-18T13:18:28.689Z</time></trkpt><trkpt lat="9.3875645" lon="-75.673381"><ele>9.714285714285714</ele><time>2026-04-18T13:18:29.693Z</time></trkpt><trkpt lat="9.3875689" lon="-75.673306"><ele>10.142857142857142</ele><time>2026-04-18T13:18:30.691Z</time></trkpt><trkpt lat="9.3875755" lon="-75.6732305"><ele>10.571428571428571</ele><time>2026-04-18T13:18:31.687Z</time></trkpt><trkpt lat="9.3875883" lon="-75.6731586"><ele>11.0</ele><time>2026-04-18T13:18:32.689Z</time></trkpt><trkpt lat="9.3875954" lon="-75.6730844"><ele>11.0</ele><time>2026-04-18T13:18:33.689Z</time></trkpt><trkpt lat="9.3876021" lon="-75.6730122"><ele>11.0</ele><time>2026-04-18T13:18:34.685Z</time></trkpt><trkpt lat="9.3876068" lon="-75.6729396"><ele>11.0</ele><time>2026-04-18T13:18:35.688Z</time></trkpt><trkpt lat="9.3876147" lon="-75.6728662"><ele>11.0</ele><time>2026-04-18T13:18:36.689Z</time></trkpt><trkpt lat="9.3876214" lon="-75.6727914"><ele>11.0</ele><time>2026-04-18T13:18:37.688Z</time></trkpt><trkpt lat="9.387629" lon="-75.6727177"><ele>11.0</ele><time>2026-04-18T13:18:38.69Z</time></trkpt><trkpt lat="9.3876329" lon="-75.6726467"><ele>11.0</ele><time>2026-04-18T13:18:39.686Z</time></trkpt><trkpt lat="9.3876411" lon="-75.6725755"><ele>11.285714285714286</ele><time>2026-04-18T13:18:40.69Z</time></trkpt><trkpt lat="9.3876466" lon="-75.672505"><ele>11.571428571428571</ele><time>2026-04-18T13:18:41.693Z</time></trkpt><trkpt lat="9.387652" lon="-75.6724377"><ele>11.857142857142858</ele><time>2026-04-18T13:18:42.683Z</time></trkpt><trkpt lat="9.3876572" lon="-75.6723701"><ele>12.142857142857142</ele><time>2026-04-18T13:18:43.687Z</time></trkpt><trkpt lat="9.3876624" lon="-75.6722996"><ele>12.428571428571429</ele><time>2026-04-18T13:18:44.687Z</time></trkpt><trkpt lat="9.3876711" lon="-75.6722301"><ele>12.714285714285714</ele><time>2026-04-18T13:18:45.686Z</time></trkpt><trkpt lat="9.3876784" lon="-75.6721633"><ele>13.0</ele><time>2026-04-18T13:18:46.685Z</time></trkpt><trkpt lat="9.3876849" lon="-75.6720921"><ele>13.0</ele><time>2026-04-18T13:18:47.688Z</time></trkpt><trkpt lat="9.3876912" lon="-75.672027"><ele>13.0</ele><time>2026-04-18T13:18:48.688Z</time></trkpt><trkpt lat="9.387701" lon="-75.6719564"><ele>13.0</ele><time>2026-04-18T13:18:49.685Z</time></trkpt><trkpt lat="9.3877106" lon="-75.671887"><ele>13.0</ele><time>2026-04-18T13:18:50.691Z</time></trkpt><trkpt lat="9.3877238" lon="-75.6718171"><ele>13.0</ele><time>2026-04-18T13:18:51.69Z</time></trkpt><trkpt lat="9.3877355" lon="-75.6717454"><ele>13.0</ele><time>2026-04-18T13:18:52.695Z</time></trkpt><trkpt lat="9.3877482" lon="-75.6716721"><ele>13.0</ele><time>2026-04-18T13:18:53.688Z</time></trkpt><trkpt lat="9.387758" lon="-75.6716004"><ele>13.142857142857142</ele><time>2026-04-18T13:18:54.691Z</time></trkpt><trkpt lat="9.3877672" lon="-75.6715283"><ele>13.285714285714286</ele><time>2026-04-18T13:18:55.69Z</time></trkpt><trkpt lat="9.3877817" lon="-75.6714555"><ele>13.428571428571429</ele><time>2026-04-18T13:18:56.692Z</time></trkpt><trkpt lat="9.387795" lon="-75.6713831"><ele>13.571428571428571</ele><time>2026-04-18T13:18:57.691Z</time></trkpt><trkpt lat="9.3878094" lon="-75.6713088"><ele>13.714285714285715</ele><time>2026-04-18T13:18:58.691Z</time></trkpt><trkpt lat="9.3878239" lon="-75.6712369"><ele>13.857142857142858</ele><time>2026-04-18T13:18:59.691Z</time></trkpt><trkpt lat="9.3878367" lon="-75.6711581"><ele>14.0</ele><time>2026-04-18T13:19:00.691Z</time></trkpt><trkpt lat="9.3878514" lon="-75.6710814"><ele>14.166666666666668</ele><time>2026-04-18T13:19:01.69Z</time></trkpt><trkpt lat="9.3878679" lon="-75.6710081"><ele>14.333333333333334</ele><time>2026-04-18T13:19:02.689Z</time></trkpt><trkpt lat="9.3878816" lon="-75.6709294"><ele>14.5</ele><time>2026-04-18T13:19:03.693Z</time></trkpt><trkpt lat="9.3878985" lon="-75.6708521"><ele>14.666666666666668</ele><time>2026-04-18T13:19:04.692Z</time></trkpt><trkpt lat="9.3879159" lon="-75.6707731"><ele>14.833333333333334</ele><time>2026-04-18T13:19:05.691Z</time></trkpt><trkpt lat="9.3879351" lon="-75.6706962"><ele>15.0</ele><time>2026-04-18T13:19:06.692Z</time></trkpt><trkpt lat="9.3879502" lon="-75.6706164"><ele>15.0</ele><time>2026-04-18T13:19:07.686Z</time></trkpt><trkpt lat="9.3879708" lon="-75.6705352"><ele>15.0</ele><time>2026-04-18T13:19:08.69Z</time></trkpt><trkpt lat="9.3879918" lon="-75.6704552"><ele>15.0</ele><time>2026-04-18T13:19:09.689Z</time></trkpt><trkpt lat="9.388006" lon="-75.6703712"><ele>15.0</ele><time>2026-04-18T13:19:10.69Z</time></trkpt><trkpt lat="9.3880229" lon="-75.6702855"><ele>15.0</ele><time>2026-04-18T13:19:11.688Z</time></trkpt><trkpt lat="9.3880431" lon="-75.6702012"><ele>15.0</ele><time>2026-04-18T13:19:12.695Z</time></trkpt><trkpt lat="9.3880645" lon="-75.6701164"><ele>14.5</ele><time>2026-04-18T13:19:13.693Z</time></trkpt><trkpt lat="9.3880877" lon="-75.670029"><ele>14.0</ele><time>2026-04-18T13:19:14.692Z</time></trkpt><trkpt lat="9.3881095" lon="-75.6699449"><ele>13.5</ele><time>2026-04-18T13:19:15.688Z</time></trkpt><trkpt lat="9.3881302" lon="-75.6698618"><ele>13.0</ele><time>2026-04-18T13:19:16.69Z</time></trkpt><trkpt lat="9.3881484" lon="-75.6697776"><ele>12.5</ele><time>2026-04-18T13:19:17.688Z</time></trkpt><trkpt lat="9.388165" lon="-75.6696935"><ele>12.0</ele><time>2026-04-18T13:19:18.688Z</time></trkpt><trkpt lat="9.3881823" lon="-75.6696063"><ele>12.0</ele><time>2026-04-18T13:19:19.691Z</time></trkpt><trkpt lat="9.3881994" lon="-75.669521"><ele>12.0</ele><time>2026-04-18T13:19:20.69Z</time></trkpt><trkpt lat="9.3882226" lon="-75.6694369"><ele>12.0</ele><time>2026-04-18T13:19:21.693Z</time></trkpt><trkpt lat="9.3882403" lon="-75.6693562"><ele>12.0</ele><time>2026-04-18T13:19:22.692Z</time></trkpt><trkpt lat="9.3882599" lon="-75.6692715"><ele>12.0</ele><time>2026-04-18T13:19:23.691Z</time></trkpt><trkpt lat="9.3882794" lon="-75.6691879"><ele>12.0</ele><time>2026-04-18T13:19:24.692Z</time></trkpt><trkpt lat="9.3882984" lon="-75.669108"><ele>11.833333333333334</ele><time>2026-04-18T13:19:25.69Z</time></trkpt><trkpt lat="9.3883185" lon="-75.6690242"><ele>11.666666666666666</ele><time>2026-04-18T13:19:26.69Z</time></trkpt><trkpt lat="9.3883363" lon="-75.6689408"><ele>11.5</ele><time>2026-04-18T13:19:27.69Z</time></trkpt><trkpt lat="9.3883553" lon="-75.6688561"><ele>11.333333333333332</ele><time>2026-04-18T13:19:28.689Z</time></trkpt><trkpt lat="9.388374" lon="-75.6687737"><ele>11.166666666666666</ele><time>2026-04-18T13:19:29.693Z</time></trkpt><trkpt lat="9.3883908" lon="-75.6686916"><ele>11.0</ele><time>2026-04-18T13:19:30.693Z</time></trkpt><trkpt lat="9.3884114" lon="-75.6686111"><ele>10.833333333333332</ele><time>2026-04-18T13:19:31.691Z</time></trkpt><trkpt lat="9.3884288" lon="-75.6685296"><ele>10.666666666666666</ele><time>2026-04-18T13:19:32.688Z</time></trkpt><trkpt lat="9.3884476" lon="-75.6684504"><ele>10.5</ele><time>2026-04-18T13:19:33.692Z</time></trkpt><trkpt lat="9.3884652" lon="-75.6683684"><ele>10.333333333333334</ele><time>2026-04-18T13:19:34.69Z</time></trkpt><trkpt lat="9.3884809" lon="-75.6682925"><ele>10.166666666666668</ele><time>2026-04-18T13:19:35.691Z</time></trkpt><trkpt lat="9.3885023" lon="-75.6682145"><ele>10.0</ele><time>2026-04-18T13:19:36.693Z</time></trkpt><trkpt lat="9.3885238" lon="-75.6681365"><ele>10.0</ele><time>2026-04-18T13:19:37.69Z</time></trkpt><trkpt lat="9.3885461" lon="-75.6680584"><ele>10.0</ele><time>2026-04-18T13:19:38.69Z</time></trkpt><trkpt lat="9.3885638" lon="-75.6679788"><ele>10.0</ele><time>2026-04-18T13:19:39.691Z</time></trkpt><trkpt lat="9.388584" lon="-75.6678965"><ele>10.0</ele><time>2026-04-18T13:19:40.693Z</time></trkpt><trkpt lat="9.3886034" lon="-75.6678138"><ele>10.0</ele><time>2026-04-18T13:19:41.693Z</time></trkpt><trkpt lat="9.3886199" lon="-75.6677358"><ele>10.0</ele><time>2026-04-18T13:19:42.692Z</time></trkpt><trkpt lat="9.3886401" lon="-75.6676568"><ele>9.833333333333334</ele><time>2026-04-18T13:19:43.692Z</time></trkpt><trkpt lat="9.388656" lon="-75.6675769"><ele>9.666666666666668</ele><time>2026-04-18T13:19:44.694Z</time></trkpt><trkpt lat="9.3886767" lon="-75.6674999"><ele>9.5</ele><time>2026-04-18T13:19:45.691Z</time></trkpt><trkpt lat="9.3886956" lon="-75.6674213"><ele>9.333333333333334</ele><time>2026-04-18T13:19:46.686Z</time></trkpt><trkpt lat="9.3887159" lon="-75.6673419"><ele>9.166666666666666</ele><time>2026-04-18T13:19:47.687Z</time></trkpt><trkpt lat="9.3887352" lon="-75.6672638"><ele>9.0</ele><time>2026-04-18T13:19:48.69Z</time></trkpt><trkpt lat="9.3887548" lon="-75.6671836"><ele>9.0</ele><time>2026-04-18T13:19:49.69Z</time></trkpt><trkpt lat="9.3887733" lon="-75.6671051"><ele>9.0</ele><time>2026-04-18T13:19:50.692Z</time></trkpt><trkpt lat="9.388791" lon="-75.6670262"><ele>9.0</ele><time>2026-04-18T13:19:51.691Z</time></trkpt><trkpt lat="9.3888127" lon="-75.6669453"><ele>9.0</ele><time>2026-04-18T13:19:52.689Z</time></trkpt><trkpt lat="9.38883" lon="-75.6668648"><ele>9.0</ele><time>2026-04-18T13:19:53.694Z</time></trkpt><trkpt lat="9.3888493" lon="-75.6667835"><ele>9.0</ele><time>2026-04-18T13:19:54.688Z</time></trkpt><trkpt lat="9.3888676" lon="-75.6667045"><ele>9.333333333333334</ele><time>2026-04-18T13:19:55.69Z</time></trkpt><trkpt lat="9.388887" lon="-75.6666278"><ele>9.666666666666666</ele><time>2026-04-18T13:19:56.687Z</time></trkpt><trkpt lat="9.3889044" lon="-75.6665497"><ele>10.0</ele><time>2026-04-18T13:19:57.69Z</time></trkpt><trkpt lat="9.3889214" lon="-75.6664719"><ele>10.333333333333332</ele><time>2026-04-18T13:19:58.684Z</time></trkpt><trkpt lat="9.3889383" lon="-75.666393"><ele>10.666666666666666</ele><time>2026-04-18T13:19:59.689Z</time></trkpt><trkpt lat="9.3889559" lon="-75.6663152"><ele>11.0</ele><time>2026-04-18T13:20:00.69Z</time></trkpt><trkpt lat="9.388975" lon="-75.6662349"><ele>11.0</ele><time>2026-04-18T13:20:01.691Z</time></trkpt><trkpt lat="9.3889959" lon="-75.6661613"><ele>11.0</ele><time>2026-04-18T13:20:02.69Z</time></trkpt><trkpt lat="9.3890106" lon="-75.6660824"><ele>11.0</ele><time>2026-04-18T13:20:03.693Z</time></trkpt><trkpt lat="9.3890286" lon="-75.6660042"><ele>11.0</ele><time>2026-04-18T13:20:04.684Z</time></trkpt><trkpt lat="9.3890466" lon="-75.6659261"><ele>11.0</ele><time>2026-04-18T13:20:05.688Z</time></trkpt><trkpt lat="9.3890672" lon="-75.6658469"><ele>11.0</ele><time>2026-04-18T13:20:06.69Z</time></trkpt><trkpt lat="9.3890895" lon="-75.6657667"><ele>10.833333333333332</ele><time>2026-04-18T13:20:07.69Z</time></trkpt><trkpt lat="9.3891094" lon="-75.6656875"><ele>10.666666666666666</ele><time>2026-04-18T13:20:08.692Z</time></trkpt><trkpt lat="9.3891263" lon="-75.6656074"><ele>10.5</ele><time>2026-04-18T13:20:09.69Z</time></trkpt><trkpt lat="9.3891437" lon="-75.6655266"><ele>10.333333333333334</ele><time>2026-04-18T13:20:10.692Z</time></trkpt><trkpt lat="9.3891631" lon="-75.6654436"><ele>10.166666666666668</ele><time>2026-04-18T13:20:11.693Z</time></trkpt><trkpt lat="9.3891814" lon="-75.6653619"><ele>10.0</ele><time>2026-04-18T13:20:12.691Z</time></trkpt><trkpt lat="9.3891993" lon="-75.6652854"><ele>10.166666666666668</ele><time>2026-04-18T13:20:13.69Z</time></trkpt><trkpt lat="9.3892169" lon="-75.6652092"><ele>10.333333333333334</ele><time>2026-04-18T13:20:14.688Z</time></trkpt><trkpt lat="9.3892336" lon="-75.665133"><ele>10.5</ele><time>2026-04-18T13:20:15.687Z</time></trkpt><trkpt lat="9.3892511" lon="-75.6650564"><ele>10.666666666666666</ele><time>2026-04-18T13:20:16.688Z</time></trkpt><trkpt lat="9.3892692" lon="-75.6649799"><ele>10.833333333333332</ele><time>2026-04-18T13:20:17.69Z</time></trkpt><trkpt lat="9.389287" lon="-75.6649039"><ele>11.0</ele><time>2026-04-18T13:20:18.689Z</time></trkpt><trkpt lat="9.3893052" lon="-75.6648256"><ele>11.0</ele><time>2026-04-18T13:20:19.69Z</time></trkpt><trkpt lat="9.3893199" lon="-75.664748"><ele>11.0</ele><time>2026-04-18T13:20:20.694Z</time></trkpt><trkpt lat="9.3893378" lon="-75.6646721"><ele>11.0</ele><time>2026-04-18T13:20:21.69Z</time></trkpt><trkpt lat="9.3893555" lon="-75.6645936"><ele>11.0</ele><time>2026-04-18T13:20:22.689Z</time></trkpt><trkpt lat="9.3893689" lon="-75.6645139"><ele>11.0</ele><time>2026-04-18T13:20:23.689Z</time></trkpt><trkpt lat="9.3893904" lon="-75.6644333"><ele>11.0</ele><time>2026-04-18T13:20:24.692Z</time></trkpt><trkpt lat="9.3894062" lon="-75.6643522"><ele>10.833333333333332</ele><time>2026-04-18T13:20:25.695Z</time></trkpt><trkpt lat="9.3894247" lon="-75.6642744"><ele>10.666666666666666</ele><time>2026-04-18T13:20:26.69Z</time></trkpt><trkpt lat="9.3894393" lon="-75.6641948"><ele>10.5</ele><time>2026-04-18T13:20:27.693Z</time></trkpt><trkpt lat="9.3894548" lon="-75.6641156"><ele>10.333333333333334</ele><time>2026-04-18T13:20:28.692Z</time></trkpt><trkpt lat="9.3894702" lon="-75.664033"><ele>10.166666666666668</ele><time>2026-04-18T13:20:29.69Z</time></trkpt><trkpt lat="9.3894875" lon="-75.6639537"><ele>10.0</ele><time>2026-04-18T13:20:30.695Z</time></trkpt><trkpt lat="9.3895056" lon="-75.6638736"><ele>10.0</ele><time>2026-04-18T13:20:31.687Z</time></trkpt><trkpt lat="9.3895253" lon="-75.6637892"><ele>10.0</ele><time>2026-04-18T13:20:32.687Z</time></trkpt><trkpt lat="9.3895457" lon="-75.6637069"><ele>10.0</ele><time>2026-04-18T13:20:33.691Z</time></trkpt><trkpt lat="9.3895607" lon="-75.6636247"><ele>10.0</ele><time>2026-04-18T13:20:34.694Z</time></trkpt><trkpt lat="9.3895777" lon="-75.6635416"><ele>10.0</ele><time>2026-04-18T13:20:35.691Z</time></trkpt><trkpt lat="9.3895938" lon="-75.6634626"><ele>10.0</ele><time>2026-04-18T13:20:36.696Z</time></trkpt><trkpt lat="9.3896084" lon="-75.6633802"><ele>10.0</ele><time>2026-04-18T13:20:37.695Z</time></trkpt><trkpt lat="9.389628" lon="-75.6632892"><ele>10.0</ele><time>2026-04-18T13:20:38.695Z</time></trkpt><trkpt lat="9.3896487" lon="-75.6632086"><ele>10.0</ele><time>2026-04-18T13:20:39.692Z</time></trkpt><trkpt lat="9.3896655" lon="-75.6631245"><ele>10.0</ele><time>2026-04-18T13:20:40.695Z</time></trkpt><trkpt lat="9.3896767" lon="-75.6630396"><ele>10.0</ele><time>2026-04-18T13:20:41.695Z</time></trkpt><trkpt lat="9.389692" lon="-75.6629562"><ele>10.0</ele><time>2026-04-18T13:20:42.695Z</time></trkpt><trkpt lat="9.3897072" lon="-75.6628724"><ele>9.833333333333334</ele><time>2026-04-18T13:20:43.692Z</time></trkpt><trkpt lat="9.3897236" lon="-75.6627869"><ele>9.666666666666668</ele><time>2026-04-18T13:20:44.688Z</time></trkpt><trkpt lat="9.3897448" lon="-75.6627005"><ele>9.5</ele><time>2026-04-18T13:20:45.686Z</time></trkpt><trkpt lat="9.3897625" lon="-75.6626154"><ele>9.333333333333334</ele><time>2026-04-18T13:20:46.686Z</time></trkpt><trkpt lat="9.3897764" lon="-75.6625326"><ele>9.166666666666666</ele><time>2026-04-18T13:20:47.687Z</time></trkpt><trkpt lat="9.3897953" lon="-75.6624451"><ele>9.0</ele><time>2026-04-18T13:20:48.69Z</time></trkpt><trkpt lat="9.3898099" lon="-75.6623587"><ele>9.0</ele><time>2026-04-18T13:20:49.692Z</time></trkpt><trkpt lat="9.3898238" lon="-75.6622736"><ele>9.0</ele><time>2026-04-18T13:20:50.688Z</time></trkpt><trkpt lat="9.3898412" lon="-75.6621846"><ele>9.0</ele><time>2026-04-18T13:20:51.687Z</time></trkpt><trkpt lat="9.3898588" lon="-75.6620967"><ele>9.0</ele><time>2026-04-18T13:20:52.685Z</time></trkpt><trkpt lat="9.3898704" lon="-75.6620114"><ele>9.0</ele><time>2026-04-18T13:20:53.688Z</time></trkpt><trkpt lat="9.3898858" lon="-75.6619291"><ele>9.0</ele><time>2026-04-18T13:20:54.687Z</time></trkpt><trkpt lat="9.3899053" lon="-75.6618407"><ele>8.833333333333334</ele><time>2026-04-18T13:20:55.692Z</time></trkpt><trkpt lat="9.389922" lon="-75.6617562"><ele>8.666666666666666</ele><time>2026-04-18T13:20:56.691Z</time></trkpt><trkpt lat="9.3899398" lon="-75.6616709"><ele>8.5</ele><time>2026-04-18T13:20:57.695Z</time></trkpt><trkpt lat="9.3899532" lon="-75.6615856"><ele>8.333333333333332</ele><time>2026-04-18T13:20:58.69Z</time></trkpt><trkpt lat="9.3899693" lon="-75.6614997"><ele>8.166666666666666</ele><time>2026-04-18T13:20:59.691Z</time></trkpt><trkpt lat="9.3899854" lon="-75.6614116"><ele>8.0</ele><time>2026-04-18T13:21:00.692Z</time></trkpt><trkpt lat="9.3900007" lon="-75.6613277"><ele>7.999999999999999</ele><time>2026-04-18T13:21:01.689Z</time></trkpt><trkpt lat="9.3900195" lon="-75.6612415"><ele>8.0</ele><time>2026-04-18T13:21:02.688Z</time></trkpt><trkpt lat="9.3900371" lon="-75.6611499"><ele>8.0</ele><time>2026-04-18T13:21:03.685Z</time></trkpt><trkpt lat="9.3900549" lon="-75.6610645"><ele>8.0</ele><time>2026-04-18T13:21:04.689Z</time></trkpt><trkpt lat="9.3900713" lon="-75.6609777"><ele>7.999999999999999</ele><time>2026-04-18T13:21:05.691Z</time></trkpt><trkpt lat="9.3900868" lon="-75.6608864"><ele>8.0</ele><time>2026-04-18T13:21:06.691Z</time></trkpt><trkpt lat="9.3901038" lon="-75.6607976"><ele>7.833333333333333</ele><time>2026-04-18T13:21:07.691Z</time></trkpt><trkpt lat="9.3901173" lon="-75.6607108"><ele>7.666666666666666</ele><time>2026-04-18T13:21:08.688Z</time></trkpt><trkpt lat="9.3901319" lon="-75.660623"><ele>7.5</ele><time>2026-04-18T13:21:09.691Z</time></trkpt><trkpt lat="9.3901487" lon="-75.6605376"><ele>7.333333333333334</ele><time>2026-04-18T13:21:10.69Z</time></trkpt><trkpt lat="9.3901642" lon="-75.6604497"><ele>7.166666666666667</ele><time>2026-04-18T13:21:11.695Z</time></trkpt><trkpt lat="9.3901807" lon="-75.6603612"><ele>7.0</ele><time>2026-04-18T13:21:12.695Z</time></trkpt><trkpt lat="9.3901978" lon="-75.6602712"><ele>6.666666666666667</ele><time>2026-04-18T13:21:13.691Z</time></trkpt><trkpt lat="9.3902134" lon="-75.660182"><ele>6.333333333333334</ele><time>2026-04-18T13:21:14.69Z</time></trkpt><trkpt lat="9.3902349" lon="-75.6600919"><ele>6.0</ele><time>2026-04-18T13:21:15.694Z</time></trkpt><trkpt lat="9.3902492" lon="-75.660005"><ele>5.666666666666667</ele><time>2026-04-18T13:21:16.692Z</time></trkpt><trkpt lat="9.3902701" lon="-75.6599174"><ele>5.333333333333334</ele><time>2026-04-18T13:21:17.689Z</time></trkpt><trkpt lat="9.3902868" lon="-75.6598315"><ele>5.0</ele><time>2026-04-18T13:21:18.69Z</time></trkpt><trkpt lat="9.3903007" lon="-75.6597439"><ele>5.0</ele><time>2026-04-18T13:21:19.69Z</time></trkpt><trkpt lat="9.3903198" lon="-75.659657"><ele>5.0</ele><time>2026-04-18T13:21:20.69Z</time></trkpt><trkpt lat="9.3903389" lon="-75.6595692"><ele>5.0</ele><time>2026-04-18T13:21:21.69Z</time></trkpt><trkpt lat="9.3903578" lon="-75.6594808"><ele>5.0</ele><time>2026-04-18T13:21:22.69Z</time></trkpt><trkpt lat="9.3903778" lon="-75.659397"><ele>5.0</ele><time>2026-04-18T13:21:23.688Z</time></trkpt><trkpt lat="9.3903965" lon="-75.6593058"><ele>5.0</ele><time>2026-04-18T13:21:24.683Z</time></trkpt><trkpt lat="9.3904131" lon="-75.6592214"><ele>5.0</ele><time>2026-04-18T13:21:25.687Z</time></trkpt><trkpt lat="9.3904292" lon="-75.6591379"><ele>5.0</ele><time>2026-04-18T13:21:26.685Z</time></trkpt><trkpt lat="9.3904462" lon="-75.6590529"><ele>5.0</ele><time>2026-04-18T13:21:27.688Z</time></trkpt><trkpt lat="9.3904623" lon="-75.6589675"><ele>5.0</ele><time>2026-04-18T13:21:28.69Z</time></trkpt><trkpt lat="9.3904807" lon="-75.6588826"><ele>5.0</ele><time>2026-04-18T13:21:29.691Z</time></trkpt><trkpt lat="9.390493" lon="-75.6587931"><ele>5.0</ele><time>2026-04-18T13:21:30.69Z</time></trkpt><trkpt lat="9.3905091" lon="-75.6587059"><ele>5.0</ele><time>2026-04-18T13:21:31.694Z</time></trkpt><trkpt lat="9.3905303" lon="-75.6586145"><ele>5.0</ele><time>2026-04-18T13:21:32.692Z</time></trkpt><trkpt lat="9.3905488" lon="-75.6585221"><ele>5.0</ele><time>2026-04-18T13:21:33.69Z</time></trkpt><trkpt lat="9.3905605" lon="-75.6584313"><ele>5.0</ele><time>2026-04-18T13:21:34.69Z</time></trkpt><trkpt lat="9.390575" lon="-75.6583419"><ele>5.0</ele><time>2026-04-18T13:21:35.688Z</time></trkpt><trkpt lat="9.3905867" lon="-75.6582518"><ele>5.0</ele><time>2026-04-18T13:21:36.691Z</time></trkpt><trkpt lat="9.3906051" lon="-75.6581617"><ele>5.0</ele><time>2026-04-18T13:21:37.691Z</time></trkpt><trkpt lat="9.3906231" lon="-75.6580766"><ele>5.0</ele><time>2026-04-18T13:21:38.692Z</time></trkpt><trkpt lat="9.3906408" lon="-75.6579904"><ele>5.0</ele><time>2026-04-18T13:21:39.693Z</time></trkpt><trkpt lat="9.3906594" lon="-75.657902"><ele>5.0</ele><time>2026-04-18T13:21:40.691Z</time></trkpt><trkpt lat="9.390674" lon="-75.6578144"><ele>5.0</ele><time>2026-04-18T13:21:41.694Z</time></trkpt><trkpt lat="9.3906913" lon="-75.6577286"><ele>4.666666666666667</ele><time>2026-04-18T13:21:42.692Z</time></trkpt><trkpt lat="9.3907066" lon="-75.6576423"><ele>4.333333333333334</ele><time>2026-04-18T13:21:43.694Z</time></trkpt><trkpt lat="9.3907252" lon="-75.657559"><ele>4.0</ele><time>2026-04-18T13:21:44.693Z</time></trkpt><trkpt lat="9.3907413" lon="-75.657473"><ele>3.666666666666667</ele><time>2026-04-18T13:21:45.69Z</time></trkpt><trkpt lat="9.3907575" lon="-75.6573863"><ele>3.3333333333333335</ele><time>2026-04-18T13:21:46.695Z</time></trkpt><trkpt lat="9.3907767" lon="-75.6572971"><ele>3.0</ele><time>2026-04-18T13:21:47.69Z</time></trkpt><trkpt lat="9.3907915" lon="-75.6572135"><ele>3.0</ele><time>2026-04-18T13:21:48.691Z</time></trkpt><trkpt lat="9.3908064" lon="-75.6571263"><ele>3.0</ele><time>2026-04-18T13:21:49.695Z</time></trkpt><trkpt lat="9.3908255" lon="-75.6570414"><ele>3.0</ele><time>2026-04-18T13:21:50.693Z</time></trkpt><trkpt lat="9.3908442" lon="-75.6569573"><ele>3.0</ele><time>2026-04-18T13:21:51.691Z</time></trkpt><trkpt lat="9.3908588" lon="-75.6568775"><ele>3.0</ele><time>2026-04-18T13:21:52.688Z</time></trkpt><trkpt lat="9.3908793" lon="-75.6567925"><ele>3.0</ele><time>2026-04-18T13:21:53.689Z</time></trkpt><trkpt lat="9.390895" lon="-75.6567067"><ele>2.8333333333333335</ele><time>2026-04-18T13:21:54.688Z</time></trkpt><trkpt lat="9.3909106" lon="-75.6566231"><ele>2.6666666666666665</ele><time>2026-04-18T13:21:55.69Z</time></trkpt><trkpt lat="9.3909237" lon="-75.6565401"><ele>2.5</ele><time>2026-04-18T13:21:56.691Z</time></trkpt><trkpt lat="9.3909397" lon="-75.6564578"><ele>2.333333333333333</ele><time>2026-04-18T13:21:57.69Z</time></trkpt><trkpt lat="9.3909561" lon="-75.656377"><ele>2.1666666666666665</ele><time>2026-04-18T13:21:58.689Z</time></trkpt><trkpt lat="9.3909742" lon="-75.6562942"><ele>2.0</ele><time>2026-04-18T13:21:59.69Z</time></trkpt><trkpt lat="9.3909911" lon="-75.6562112"><ele>1.9999999999999998</ele><time>2026-04-18T13:22:00.695Z</time></trkpt><trkpt lat="9.3910063" lon="-75.6561264"><ele>2.0</ele><time>2026-04-18T13:22:01.69Z</time></trkpt><trkpt lat="9.3910215" lon="-75.6560467"><ele>2.0</ele><time>2026-04-18T13:22:02.691Z</time></trkpt><trkpt lat="9.3910326" lon="-75.655962"><ele>2.0</ele><time>2026-04-18T13:22:03.689Z</time></trkpt><trkpt lat="9.3910461" lon="-75.655877"><ele>1.9999999999999998</ele><time>2026-04-18T13:22:04.69Z</time></trkpt><trkpt lat="9.3910607" lon="-75.6557946"><ele>2.0</ele><time>2026-04-18T13:22:05.689Z</time></trkpt><trkpt lat="9.3910735" lon="-75.6557105"><ele>2.333333333333333</ele><time>2026-04-18T13:22:06.687Z</time></trkpt><trkpt lat="9.3910791" lon="-75.6556263"><ele>2.6666666666666665</ele><time>2026-04-18T13:22:07.687Z</time></trkpt><trkpt lat="9.3910896" lon="-75.6555416"><ele>3.0</ele><time>2026-04-18T13:22:08.691Z</time></trkpt><trkpt lat="9.3910986" lon="-75.6554522"><ele>3.333333333333333</ele><time>2026-04-18T13:22:09.695Z</time></trkpt><trkpt lat="9.3911059" lon="-75.6553708"><ele>3.6666666666666665</ele><time>2026-04-18T13:22:10.691Z</time></trkpt><trkpt lat="9.3911135" lon="-75.6552862"><ele>4.0</ele><time>2026-04-18T13:22:11.69Z</time></trkpt><trkpt lat="9.3911155" lon="-75.6552012"><ele>3.9999999999999996</ele><time>2026-04-18T13:22:12.691Z</time></trkpt><trkpt lat="9.3911204" lon="-75.6551164"><ele>4.0</ele><time>2026-04-18T13:22:13.691Z</time></trkpt><trkpt lat="9.3911191" lon="-75.6550353"><ele>4.0</ele><time>2026-04-18T13:22:14.687Z</time></trkpt><trkpt lat="9.3911216" lon="-75.6549522"><ele>4.0</ele><time>2026-04-18T13:22:15.692Z</time></trkpt><trkpt lat="9.3911213" lon="-75.6548694"><ele>3.9999999999999996</ele><time>2026-04-18T13:22:16.69Z</time></trkpt><trkpt lat="9.3911275" lon="-75.6547852"><ele>4.0</ele><time>2026-04-18T13:22:17.689Z</time></trkpt><trkpt lat="9.3911263" lon="-75.6547006"><ele>3.9999999999999996</ele><time>2026-04-18T13:22:18.69Z</time></trkpt><trkpt lat="9.3911246" lon="-75.6546143"><ele>4.0</ele><time>2026-04-18T13:22:19.689Z</time></trkpt><trkpt lat="9.3911199" lon="-75.6545324"><ele>4.0</ele><time>2026-04-18T13:22:20.689Z</time></trkpt><trkpt lat="9.3911113" lon="-75.6544524"><ele>4.0</ele><time>2026-04-18T13:22:21.689Z</time></trkpt><trkpt lat="9.391104" lon="-75.6543718"><ele>3.9999999999999996</ele><time>2026-04-18T13:22:22.69Z</time></trkpt><trkpt lat="9.391095" lon="-75.6542901"><ele>4.0</ele><time>2026-04-18T13:22:23.688Z</time></trkpt><trkpt lat="9.3910869" lon="-75.6542105"><ele>3.833333333333333</ele><time>2026-04-18T13:22:24.693Z</time></trkpt><trkpt lat="9.3910759" lon="-75.6541302"><ele>3.6666666666666665</ele><time>2026-04-18T13:22:25.687Z</time></trkpt><trkpt lat="9.3910612" lon="-75.6540526"><ele>3.5</ele><time>2026-04-18T13:22:26.693Z</time></trkpt><trkpt lat="9.3910454" lon="-75.653975"><ele>3.333333333333333</ele><time>2026-04-18T13:22:27.691Z</time></trkpt><trkpt lat="9.3910299" lon="-75.6538992"><ele>3.1666666666666665</ele><time>2026-04-18T13:22:28.692Z</time></trkpt><trkpt lat="9.3910121" lon="-75.6538208"><ele>3.0</ele><time>2026-04-18T13:22:29.689Z</time></trkpt><trkpt lat="9.3909969" lon="-75.6537421"><ele>3.0</ele><time>2026-04-18T13:22:30.69Z</time></trkpt><trkpt lat="9.3909793" lon="-75.6536672"><ele>3.0</ele><time>2026-04-18T13:22:31.691Z</time></trkpt><trkpt lat="9.3909634" lon="-75.6535924"><ele>3.0</ele><time>2026-04-18T13:22:32.693Z</time></trkpt><trkpt lat="9.3909463" lon="-75.6535173"><ele>3.0</ele><time>2026-04-18T13:22:33.691Z</time></trkpt><trkpt lat="9.3909258" lon="-75.6534408"><ele>3.0</ele><time>2026-04-18T13:22:34.693Z</time></trkpt><trkpt lat="9.3909047" lon="-75.6533651"><ele>3.0</ele><time>2026-04-18T13:22:35.692Z</time></trkpt><trkpt lat="9.3908834" lon="-75.6532886"><ele>2.8333333333333335</ele><time>2026-04-18T13:22:36.693Z</time></trkpt><trkpt lat="9.3908642" lon="-75.6532127"><ele>2.6666666666666665</ele><time>2026-04-18T13:22:37.691Z</time></trkpt><trkpt lat="9.3908454" lon="-75.6531331"><ele>2.5</ele><time>2026-04-18T13:22:38.691Z</time></trkpt><trkpt lat="9.3908302" lon="-75.6530555"><ele>2.333333333333333</ele><time>2026-04-18T13:22:39.695Z</time></trkpt><trkpt lat="9.3908073" lon="-75.652978"><ele>2.1666666666666665</ele><time>2026-04-18T13:22:40.69Z</time></trkpt><trkpt lat="9.3907851" lon="-75.6529023"><ele>2.0</ele><time>2026-04-18T13:22:41.691Z</time></trkpt><trkpt lat="9.3907656" lon="-75.6528254"><ele>1.9999999999999998</ele><time>2026-04-18T13:22:42.69Z</time></trkpt><trkpt lat="9.3907448" lon="-75.6527506"><ele>2.0</ele><time>2026-04-18T13:22:43.687Z</time></trkpt><trkpt lat="9.390726" lon="-75.6526738"><ele>2.0</ele><time>2026-04-18T13:22:44.688Z</time></trkpt><trkpt lat="9.3907032" lon="-75.6525944"><ele>2.0</ele><time>2026-04-18T13:22:45.688Z</time></trkpt><trkpt lat="9.3906813" lon="-75.652518"><ele>1.9999999999999998</ele><time>2026-04-18T13:22:46.688Z</time></trkpt><trkpt lat="9.3906586" lon="-75.652436"><ele>2.0</ele><time>2026-04-18T13:22:47.688Z</time></trkpt><trkpt lat="9.3906357" lon="-75.6523531"><ele>1.9999999999999998</ele><time>2026-04-18T13:22:48.688Z</time></trkpt><trkpt lat="9.3906167" lon="-75.6522705"><ele>2.0</ele><time>2026-04-18T13:22:49.686Z</time></trkpt><trkpt lat="9.3905955" lon="-75.6521942"><ele>2.0</ele><time>2026-04-18T13:22:50.69Z</time></trkpt><trkpt lat="9.3905782" lon="-75.6521163"><ele>2.0</ele><time>2026-04-18T13:22:51.689Z</time></trkpt><trkpt lat="9.3905545" lon="-75.6520353"><ele>1.9999999999999998</ele><time>2026-04-18T13:22:52.69Z</time></trkpt><trkpt lat="9.390533" lon="-75.6519578"><ele>2.0</ele><time>2026-04-18T13:22:53.693Z</time></trkpt><trkpt lat="9.39051" lon="-75.6518801"><ele>2.5</ele><time>2026-04-18T13:22:54.684Z</time></trkpt><trkpt lat="9.3904851" lon="-75.6518036"><ele>3.0</ele><time>2026-04-18T13:22:55.693Z</time></trkpt><trkpt lat="9.3904572" lon="-75.6517267"><ele>3.5</ele><time>2026-04-18T13:22:56.691Z</time></trkpt><trkpt lat="9.3904214" lon="-75.6516418"><ele>4.0</ele><time>2026-04-18T13:22:57.691Z</time></trkpt><trkpt lat="9.3904027" lon="-75.6515662"><ele>4.5</ele><time>2026-04-18T13:22:58.695Z</time></trkpt><trkpt lat="9.3903811" lon="-75.651488"><ele>5.0</ele><time>2026-04-18T13:22:59.689Z</time></trkpt><trkpt lat="9.3903599" lon="-75.6514062"><ele>5.0</ele><time>2026-04-18T13:23:00.69Z</time></trkpt><trkpt lat="9.3903403" lon="-75.6513261"><ele>5.0</ele><time>2026-04-18T13:23:01.684Z</time></trkpt><trkpt lat="9.3903184" lon="-75.6512459"><ele>5.0</ele><time>2026-04-18T13:23:02.686Z</time></trkpt><trkpt lat="9.3902958" lon="-75.6511691"><ele>5.0</ele><time>2026-04-18T13:23:03.686Z</time></trkpt><trkpt lat="9.3902772" lon="-75.651085"><ele>5.0</ele><time>2026-04-18T13:23:04.689Z</time></trkpt><trkpt lat="9.3902576" lon="-75.6510054"><ele>5.0</ele><time>2026-04-18T13:23:05.691Z</time></trkpt><trkpt lat="9.3902374" lon="-75.6509308"><ele>4.666666666666667</ele><time>2026-04-18T13:23:06.693Z</time></trkpt><trkpt lat="9.3902122" lon="-75.6508565"><ele>4.333333333333334</ele><time>2026-04-18T13:23:07.687Z</time></trkpt><trkpt lat="9.39019" lon="-75.6507819"><ele>4.0</ele><time>2026-04-18T13:23:08.687Z</time></trkpt><trkpt lat="9.3901713" lon="-75.6507059"><ele>3.666666666666667</ele><time>2026-04-18T13:23:09.688Z</time></trkpt><trkpt lat="9.3901522" lon="-75.6506271"><ele>3.3333333333333335</ele><time>2026-04-18T13:23:10.693Z</time></trkpt><trkpt lat="9.3901272" lon="-75.6505497"><ele>3.0</ele><time>2026-04-18T13:23:11.686Z</time></trkpt><trkpt lat="9.3901049" lon="-75.6504687"><ele>3.0</ele><time>2026-04-18T13:23:12.689Z</time></trkpt><trkpt lat="9.390082" lon="-75.6503947"><ele>3.0</ele><time>2026-04-18T13:23:13.69Z</time></trkpt><trkpt lat="9.3900626" lon="-75.6503147"><ele>3.0</ele><time>2026-04-18T13:23:14.686Z</time></trkpt><trkpt lat="9.3900402" lon="-75.6502386"><ele>3.0</ele><time>2026-04-18T13:23:15.687Z</time></trkpt><trkpt lat="9.3900216" lon="-75.6501617"><ele>3.0</ele><time>2026-04-18T13:23:16.685Z</time></trkpt><trkpt lat="9.3899977" lon="-75.650085"><ele>3.0</ele><time>2026-04-18T13:23:17.686Z</time></trkpt><trkpt lat="9.3899842" lon="-75.6500147"><ele>3.0</ele><time>2026-04-18T13:23:18.685Z</time></trkpt><trkpt lat="9.3899632" lon="-75.6499347"><ele>3.0</ele><time>2026-04-18T13:23:19.687Z</time></trkpt><trkpt lat="9.389945" lon="-75.649858"><ele>3.0</ele><time>2026-04-18T13:23:20.686Z</time></trkpt><trkpt lat="9.3899257" lon="-75.6497798"><ele>3.0</ele><time>2026-04-18T13:23:21.688Z</time></trkpt><trkpt lat="9.3899088" lon="-75.6497054"><ele>3.0</ele><time>2026-04-18T13:23:22.687Z</time></trkpt><trkpt lat="9.3898856" lon="-75.6496291"><ele>3.0</ele><time>2026-04-18T13:23:23.695Z</time></trkpt><trkpt lat="9.3898673" lon="-75.6495498"><ele>3.0</ele><time>2026-04-18T13:23:24.69Z</time></trkpt><trkpt lat="9.3898423" lon="-75.6494771"><ele>3.0</ele><time>2026-04-18T13:23:25.684Z</time></trkpt><trkpt lat="9.3898216" lon="-75.6493985"><ele>3.0</ele><time>2026-04-18T13:23:26.689Z</time></trkpt><trkpt lat="9.3898039" lon="-75.6493254"><ele>3.0</ele><time>2026-04-18T13:23:27.687Z</time></trkpt><trkpt lat="9.3897842" lon="-75.6492528"><ele>3.0</ele><time>2026-04-18T13:23:28.689Z</time></trkpt><trkpt lat="9.3897667" lon="-75.6491773"><ele>3.0</ele><time>2026-04-18T13:23:29.691Z</time></trkpt><trkpt lat="9.3897435" lon="-75.6491006"><ele>3.0</ele><time>2026-04-18T13:23:30.688Z</time></trkpt><trkpt lat="9.3897259" lon="-75.6490244"><ele>3.0</ele><time>2026-04-18T13:23:31.693Z</time></trkpt><trkpt lat="9.3897121" lon="-75.6489472"><ele>3.0</ele><time>2026-04-18T13:23:32.691Z</time></trkpt><trkpt lat="9.3896891" lon="-75.648876"><ele>3.0</ele><time>2026-04-18T13:23:33.691Z</time></trkpt><trkpt lat="9.389672" lon="-75.6487947"><ele>3.0</ele><time>2026-04-18T13:23:34.691Z</time></trkpt><trkpt lat="9.3896526" lon="-75.6487192"><ele>3.0</ele><time>2026-04-18T13:23:35.688Z</time></trkpt><trkpt lat="9.3896333" lon="-75.6486401"><ele>3.1666666666666665</ele><time>2026-04-18T13:23:36.688Z</time></trkpt><trkpt lat="9.3896146" lon="-75.6485603"><ele>3.333333333333333</ele><time>2026-04-18T13:23:37.694Z</time></trkpt><trkpt lat="9.3895992" lon="-75.6484836"><ele>3.5</ele><time>2026-04-18T13:23:38.688Z</time></trkpt><trkpt lat="9.3895781" lon="-75.6484044"><ele>3.6666666666666665</ele><time>2026-04-18T13:23:39.689Z</time></trkpt><trkpt lat="9.3895574" lon="-75.6483247"><ele>3.833333333333333</ele><time>2026-04-18T13:23:40.686Z</time></trkpt><trkpt lat="9.3895326" lon="-75.6482464"><ele>4.0</ele><time>2026-04-18T13:23:41.689Z</time></trkpt><trkpt lat="9.3895069" lon="-75.6481743"><ele>3.9999999999999996</ele><time>2026-04-18T13:23:42.687Z</time></trkpt><trkpt lat="9.389488" lon="-75.6481003"><ele>4.0</ele><time>2026-04-18T13:23:43.69Z</time></trkpt><trkpt lat="9.3894635" lon="-75.6480295"><ele>4.0</ele><time>2026-04-18T13:23:44.693Z</time></trkpt><trkpt lat="9.3894447" lon="-75.6479553"><ele>4.0</ele><time>2026-04-18T13:23:45.692Z</time></trkpt><trkpt lat="9.3894247" lon="-75.6478791"><ele>3.9999999999999996</ele><time>2026-04-18T13:23:46.693Z</time></trkpt><trkpt lat="9.3894057" lon="-75.6478034"><ele>4.0</ele><time>2026-04-18T13:23:47.69Z</time></trkpt><trkpt lat="9.3893864" lon="-75.6477289"><ele>3.9999999999999996</ele><time>2026-04-18T13:23:48.689Z</time></trkpt><trkpt lat="9.3893676" lon="-75.6476553"><ele>4.0</ele><time>2026-04-18T13:23:49.691Z</time></trkpt><trkpt lat="9.3893487" lon="-75.6475773"><ele>4.0</ele><time>2026-04-18T13:23:50.688Z</time></trkpt><trkpt lat="9.3893329" lon="-75.6474998"><ele>4.0</ele><time>2026-04-18T13:23:51.693Z</time></trkpt><trkpt lat="9.3893132" lon="-75.6474245"><ele>3.9999999999999996</ele><time>2026-04-18T13:23:52.694Z</time></trkpt><trkpt lat="9.389295" lon="-75.6473447"><ele>4.0</ele><time>2026-04-18T13:23:53.689Z</time></trkpt><trkpt lat="9.3892735" lon="-75.647271"><ele>3.9999999999999996</ele><time>2026-04-18T13:23:54.689Z</time></trkpt><trkpt lat="9.3892536" lon="-75.6471937"><ele>4.0</ele><time>2026-04-18T13:23:55.695Z</time></trkpt><trkpt lat="9.3892405" lon="-75.6471173"><ele>4.0</ele><time>2026-04-18T13:23:56.693Z</time></trkpt><trkpt lat="9.3892163" lon="-75.6470435"><ele>4.0</ele><time>2026-04-18T13:23:57.685Z</time></trkpt><trkpt lat="9.3891957" lon="-75.6469669"><ele>3.9999999999999996</ele><time>2026-04-18T13:23:58.688Z</time></trkpt><trkpt lat="9.3891726" lon="-75.6468892"><ele>4.0</ele><time>2026-04-18T13:23:59.688Z</time></trkpt><trkpt lat="9.3891486" lon="-75.6468147"><ele>3.6666666666666665</ele><time>2026-04-18T13:24:00.692Z</time></trkpt><trkpt lat="9.3891282" lon="-75.6467379"><ele>3.333333333333333</ele><time>2026-04-18T13:24:01.687Z</time></trkpt><trkpt lat="9.3891102" lon="-75.6466583"><ele>3.0</ele><time>2026-04-18T13:24:02.688Z</time></trkpt><trkpt lat="9.3890896" lon="-75.6465816"><ele>2.6666666666666665</ele><time>2026-04-18T13:24:03.693Z</time></trkpt><trkpt lat="9.3890677" lon="-75.6465065"><ele>2.333333333333333</ele><time>2026-04-18T13:24:04.69Z</time></trkpt><trkpt lat="9.3890474" lon="-75.6464303"><ele>2.0</ele><time>2026-04-18T13:24:05.687Z</time></trkpt><trkpt lat="9.3890293" lon="-75.6463538"><ele>1.9999999999999998</ele><time>2026-04-18T13:24:06.692Z</time></trkpt><trkpt lat="9.389004" lon="-75.6462761"><ele>2.0</ele><time>2026-04-18T13:24:07.687Z</time></trkpt><trkpt lat="9.388982" lon="-75.6462013"><ele>2.0</ele><time>2026-04-18T13:24:08.689Z</time></trkpt><trkpt lat="9.3889582" lon="-75.6461271"><ele>2.0</ele><time>2026-04-18T13:24:09.69Z</time></trkpt><trkpt lat="9.3889373" lon="-75.6460497"><ele>1.9999999999999998</ele><time>2026-04-18T13:24:10.689Z</time></trkpt><trkpt lat="9.3889161" lon="-75.6459715"><ele>2.0</ele><time>2026-04-18T13:24:11.696Z</time></trkpt><trkpt lat="9.3888962" lon="-75.6458959"><ele>1.9999999999999998</ele><time>2026-04-18T13:24:12.691Z</time></trkpt><trkpt lat="9.3888748" lon="-75.645821"><ele>2.0</ele><time>2026-04-18T13:24:13.69Z</time></trkpt><trkpt lat="9.3888546" lon="-75.6457399"><ele>2.0</ele><time>2026-04-18T13:24:14.687Z</time></trkpt><trkpt lat="9.38883" lon="-75.6456629"><ele>2.0</ele><time>2026-04-18T13:24:15.686Z</time></trkpt><trkpt lat="9.3888085" lon="-75.6455857"><ele>1.9999999999999998</ele><time>2026-04-18T13:24:16.687Z</time></trkpt><trkpt lat="9.3887861" lon="-75.6455093"><ele>2.0</ele><time>2026-04-18T13:24:17.684Z</time></trkpt><trkpt lat="9.3887608" lon="-75.645434"><ele>2.5</ele><time>2026-04-18T13:24:18.69Z</time></trkpt><trkpt lat="9.3887356" lon="-75.6453557"><ele>3.0</ele><time>2026-04-18T13:24:19.691Z</time></trkpt><trkpt lat="9.3887096" lon="-75.645279"><ele>3.5</ele><time>2026-04-18T13:24:20.691Z</time></trkpt><trkpt lat="9.3886845" lon="-75.6452032"><ele>4.0</ele><time>2026-04-18T13:24:21.692Z</time></trkpt><trkpt lat="9.388662" lon="-75.6451232"><ele>4.5</ele><time>2026-04-18T13:24:22.685Z</time></trkpt><trkpt lat="9.3886361" lon="-75.6450469"><ele>5.0</ele><time>2026-04-18T13:24:23.694Z</time></trkpt><trkpt lat="9.3886141" lon="-75.6449688"><ele>5.0</ele><time>2026-04-18T13:24:24.69Z</time></trkpt><trkpt lat="9.3885906" lon="-75.6448917"><ele>5.0</ele><time>2026-04-18T13:24:25.687Z</time></trkpt><trkpt lat="9.388567" lon="-75.6448126"><ele>5.0</ele><time>2026-04-18T13:24:26.687Z</time></trkpt><trkpt lat="9.3885464" lon="-75.6447322"><ele>5.0</ele><time>2026-04-18T13:24:27.69Z</time></trkpt><trkpt lat="9.3885283" lon="-75.6446549"><ele>5.0</ele><time>2026-04-18T13:24:28.69Z</time></trkpt><trkpt lat="9.3885061" lon="-75.6445773"><ele>5.0</ele><time>2026-04-18T13:24:29.694Z</time></trkpt><trkpt lat="9.3884824" lon="-75.6444999"><ele>4.666666666666667</ele><time>2026-04-18T13:24:30.687Z</time></trkpt><trkpt lat="9.3884586" lon="-75.6444229"><ele>4.333333333333334</ele><time>2026-04-18T13:24:31.69Z</time></trkpt><trkpt lat="9.388433" lon="-75.644347"><ele>4.0</ele><time>2026-04-18T13:24:32.689Z</time></trkpt><trkpt lat="9.3884072" lon="-75.6442719"><ele>3.666666666666667</ele><time>2026-04-18T13:24:33.686Z</time></trkpt><trkpt lat="9.3883823" lon="-75.644194"><ele>3.3333333333333335</ele><time>2026-04-18T13:24:34.686Z</time></trkpt><trkpt lat="9.3883621" lon="-75.6441131"><ele>3.0</ele><time>2026-04-18T13:24:35.692Z</time></trkpt><trkpt lat="9.3883375" lon="-75.644032"><ele>3.0</ele><time>2026-04-18T13:24:36.689Z</time></trkpt><trkpt lat="9.3883137" lon="-75.6439558"><ele>3.0</ele><time>2026-04-18T13:24:37.688Z</time></trkpt><trkpt lat="9.3882862" lon="-75.6438738"><ele>3.0</ele><time>2026-04-18T13:24:38.69Z</time></trkpt><trkpt lat="9.3882619" lon="-75.6437992"><ele>3.0</ele><time>2026-04-18T13:24:39.689Z</time></trkpt><trkpt lat="9.3882389" lon="-75.6437183"><ele>3.0</ele><time>2026-04-18T13:24:40.688Z</time></trkpt><trkpt lat="9.3882109" lon="-75.6436421"><ele>3.0</ele><time>2026-04-18T13:24:41.69Z</time></trkpt><trkpt lat="9.388189" lon="-75.6435594"><ele>3.0</ele><time>2026-04-18T13:24:42.69Z</time></trkpt><trkpt lat="9.388171" lon="-75.6434824"><ele>3.0</ele><time>2026-04-18T13:24:43.694Z</time></trkpt><trkpt lat="9.3881439" lon="-75.6434049"><ele>3.0</ele><time>2026-04-18T13:24:44.693Z</time></trkpt><trkpt lat="9.3881201" lon="-75.6433251"><ele>3.0</ele><time>2026-04-18T13:24:45.69Z</time></trkpt><trkpt lat="9.3880948" lon="-75.6432489"><ele>3.0</ele><time>2026-04-18T13:24:46.689Z</time></trkpt><trkpt lat="9.3880721" lon="-75.6431714"><ele>3.0</ele><time>2026-04-18T13:24:47.69Z</time></trkpt><trkpt lat="9.3880433" lon="-75.6430945"><ele>3.0</ele><time>2026-04-18T13:24:48.689Z</time></trkpt><trkpt lat="9.388017" lon="-75.6430149"><ele>3.0</ele><time>2026-04-18T13:24:49.693Z</time></trkpt><trkpt lat="9.3879945" lon="-75.6429273"><ele>3.0</ele><time>2026-04-18T13:24:50.688Z</time></trkpt><trkpt lat="9.3879727" lon="-75.6428407"><ele>3.0</ele><time>2026-04-18T13:24:51.689Z</time></trkpt><trkpt lat="9.3879489" lon="-75.6427581"><ele>3.0</ele><time>2026-04-18T13:24:52.685Z</time></trkpt><trkpt lat="9.3879241" lon="-75.6426778"><ele>3.0</ele><time>2026-04-18T13:24:53.689Z</time></trkpt><trkpt lat="9.3878959" lon="-75.6425907"><ele>3.3333333333333335</ele><time>2026-04-18T13:24:54.686Z</time></trkpt><trkpt lat="9.3878724" lon="-75.6425096"><ele>3.666666666666667</ele><time>2026-04-18T13:24:55.689Z</time></trkpt><trkpt lat="9.3878473" lon="-75.6424281"><ele>4.0</ele><time>2026-04-18T13:24:56.691Z</time></trkpt><trkpt lat="9.3878251" lon="-75.6423482"><ele>4.333333333333334</ele><time>2026-04-18T13:24:57.687Z</time></trkpt><trkpt lat="9.3878003" lon="-75.6422688"><ele>4.666666666666667</ele><time>2026-04-18T13:24:58.685Z</time></trkpt><trkpt lat="9.3877783" lon="-75.6421881"><ele>5.0</ele><time>2026-04-18T13:24:59.686Z</time></trkpt><trkpt lat="9.3877532" lon="-75.6421065"><ele>5.0</ele><time>2026-04-18T13:25:00.688Z</time></trkpt><trkpt lat="9.3877278" lon="-75.6420292"><ele>5.0</ele><time>2026-04-18T13:25:01.686Z</time></trkpt><trkpt lat="9.3877032" lon="-75.6419508"><ele>5.0</ele><time>2026-04-18T13:25:02.688Z</time></trkpt><trkpt lat="9.3876796" lon="-75.6418722"><ele>5.0</ele><time>2026-04-18T13:25:03.69Z</time></trkpt><trkpt lat="9.3876547" lon="-75.6417965"><ele>5.0</ele><time>2026-04-18T13:25:04.688Z</time></trkpt><trkpt lat="9.3876304" lon="-75.6417171"><ele>5.0</ele><time>2026-04-18T13:25:05.688Z</time></trkpt><trkpt lat="9.3876021" lon="-75.6416373"><ele>5.166666666666667</ele><time>2026-04-18T13:25:06.688Z</time></trkpt><trkpt lat="9.3875772" lon="-75.6415597"><ele>5.333333333333334</ele><time>2026-04-18T13:25:07.689Z</time></trkpt><trkpt lat="9.3875546" lon="-75.641476"><ele>5.5</ele><time>2026-04-18T13:25:08.687Z</time></trkpt><trkpt lat="9.3875344" lon="-75.641394"><ele>5.666666666666667</ele><time>2026-04-18T13:25:09.687Z</time></trkpt><trkpt lat="9.3875083" lon="-75.6413105"><ele>5.833333333333333</ele><time>2026-04-18T13:25:10.688Z</time></trkpt><trkpt lat="9.3874849" lon="-75.6412319"><ele>6.0</ele><time>2026-04-18T13:25:11.689Z</time></trkpt><trkpt lat="9.3874578" lon="-75.6411489"><ele>5.833333333333333</ele><time>2026-04-18T13:25:12.687Z</time></trkpt><trkpt lat="9.3874286" lon="-75.6410666"><ele>5.666666666666667</ele><time>2026-04-18T13:25:13.688Z</time></trkpt><trkpt lat="9.387407" lon="-75.6409862"><ele>5.5</ele><time>2026-04-18T13:25:14.689Z</time></trkpt><trkpt lat="9.3873832" lon="-75.6409021"><ele>5.333333333333334</ele><time>2026-04-18T13:25:15.686Z</time></trkpt><trkpt lat="9.3873602" lon="-75.6408218"><ele>5.166666666666667</ele><time>2026-04-18T13:25:16.691Z</time></trkpt><trkpt lat="9.3873353" lon="-75.6407432"><ele>5.0</ele><time>2026-04-18T13:25:17.694Z</time></trkpt><trkpt lat="9.3873122" lon="-75.6406616"><ele>5.0</ele><time>2026-04-18T13:25:18.691Z</time></trkpt><trkpt lat="9.3872907" lon="-75.6405801"><ele>5.0</ele><time>2026-04-18T13:25:19.691Z</time></trkpt><trkpt lat="9.3872641" lon="-75.6404951"><ele>5.0</ele><time>2026-04-18T13:25:20.689Z</time></trkpt><trkpt lat="9.3872392" lon="-75.6404125"><ele>5.0</ele><time>2026-04-18T13:25:21.69Z</time></trkpt><trkpt lat="9.387215" lon="-75.6403347"><ele>5.0</ele><time>2026-04-18T13:25:22.69Z</time></trkpt><trkpt lat="9.3871878" lon="-75.6402545"><ele>5.0</ele><time>2026-04-18T13:25:23.692Z</time></trkpt><trkpt lat="9.3871647" lon="-75.6401738"><ele>5.5</ele><time>2026-04-18T13:25:24.69Z</time></trkpt><trkpt lat="9.3871412" lon="-75.6400905"><ele>6.0</ele><time>2026-04-18T13:25:25.691Z</time></trkpt><trkpt lat="9.3871198" lon="-75.6400113"><ele>6.5</ele><time>2026-04-18T13:25:26.688Z</time></trkpt><trkpt lat="9.3870931" lon="-75.6399288"><ele>7.0</ele><time>2026-04-18T13:25:27.689Z</time></trkpt><trkpt lat="9.3870674" lon="-75.6398501"><ele>7.499999999999999</ele><time>2026-04-18T13:25:28.688Z</time></trkpt><trkpt lat="9.3870435" lon="-75.6397715"><ele>8.0</ele><time>2026-04-18T13:25:29.69Z</time></trkpt><trkpt lat="9.3870051" lon="-75.6396913"><ele>7.999999999999999</ele><time>2026-04-18T13:25:30.688Z</time></trkpt><trkpt lat="9.3869784" lon="-75.63961"><ele>8.0</ele><time>2026-04-18T13:25:31.688Z</time></trkpt><trkpt lat="9.3869529" lon="-75.6395277"><ele>8.0</ele><time>2026-04-18T13:25:32.689Z</time></trkpt><trkpt lat="9.3869261" lon="-75.6394466"><ele>8.0</ele><time>2026-04-18T13:25:33.689Z</time></trkpt><trkpt lat="9.3869013" lon="-75.6393643"><ele>7.999999999999999</ele><time>2026-04-18T13:25:34.689Z</time></trkpt><trkpt lat="9.3868757" lon="-75.6392824"><ele>8.0</ele><time>2026-04-18T13:25:35.692Z</time></trkpt><trkpt lat="9.3868483" lon="-75.6391966"><ele>7.499999999999999</ele><time>2026-04-18T13:25:36.692Z</time></trkpt><trkpt lat="9.3868182" lon="-75.6391135"><ele>7.0</ele><time>2026-04-18T13:25:37.688Z</time></trkpt><trkpt lat="9.3867925" lon="-75.6390336"><ele>6.5</ele><time>2026-04-18T13:25:38.687Z</time></trkpt><trkpt lat="9.386767" lon="-75.6389485"><ele>6.0</ele><time>2026-04-18T13:25:39.685Z</time></trkpt><trkpt lat="9.3867433" lon="-75.6388657"><ele>5.5</ele><time>2026-04-18T13:25:40.689Z</time></trkpt><trkpt lat="9.3867173" lon="-75.6387787"><ele>5.0</ele><time>2026-04-18T13:25:41.695Z</time></trkpt><trkpt lat="9.3866944" lon="-75.6386978"><ele>4.833333333333334</ele><time>2026-04-18T13:25:42.69Z</time></trkpt><trkpt lat="9.3866687" lon="-75.6386115"><ele>4.666666666666667</ele><time>2026-04-18T13:25:43.695Z</time></trkpt><trkpt lat="9.3866447" lon="-75.6385302"><ele>4.5</ele><time>2026-04-18T13:25:44.686Z</time></trkpt><trkpt lat="9.3866184" lon="-75.6384492"><ele>4.333333333333333</ele><time>2026-04-18T13:25:45.69Z</time></trkpt><trkpt lat="9.3865879" lon="-75.6383681"><ele>4.166666666666666</ele><time>2026-04-18T13:25:46.691Z</time></trkpt><trkpt lat="9.3865604" lon="-75.638283"><ele>4.0</ele><time>2026-04-18T13:25:47.688Z</time></trkpt><trkpt lat="9.3865374" lon="-75.6382044"><ele>3.9999999999999996</ele><time>2026-04-18T13:25:48.69Z</time></trkpt><trkpt lat="9.3865119" lon="-75.6381235"><ele>4.0</ele><time>2026-04-18T13:25:49.69Z</time></trkpt><trkpt lat="9.3864917" lon="-75.6380409"><ele>4.0</ele><time>2026-04-18T13:25:50.69Z</time></trkpt><trkpt lat="9.3864701" lon="-75.6379578"><ele>4.0</ele><time>2026-04-18T13:25:51.686Z</time></trkpt><trkpt lat="9.3864513" lon="-75.6378797"><ele>3.9999999999999996</ele><time>2026-04-18T13:25:52.687Z</time></trkpt><trkpt lat="9.3864318" lon="-75.6377955"><ele>4.0</ele><time>2026-04-18T13:25:53.691Z</time></trkpt><trkpt lat="9.3864079" lon="-75.6377127"><ele>3.9999999999999996</ele><time>2026-04-18T13:25:54.69Z</time></trkpt><trkpt lat="9.3863838" lon="-75.6376282"><ele>4.0</ele><time>2026-04-18T13:25:55.689Z</time></trkpt><trkpt lat="9.3863627" lon="-75.6375423"><ele>4.0</ele><time>2026-04-18T13:25:56.688Z</time></trkpt><trkpt lat="9.3863411" lon="-75.6374606"><ele>4.0</ele><time>2026-04-18T13:25:57.692Z</time></trkpt><trkpt lat="9.3863206" lon="-75.6373759"><ele>3.9999999999999996</ele><time>2026-04-18T13:25:58.687Z</time></trkpt><trkpt lat="9.3863035" lon="-75.6372949"><ele>4.0</ele><time>2026-04-18T13:25:59.688Z</time></trkpt><trkpt lat="9.3862817" lon="-75.6372092"><ele>4.333333333333333</ele><time>2026-04-18T13:26:00.689Z</time></trkpt><trkpt lat="9.3862592" lon="-75.6371319"><ele>4.666666666666666</ele><time>2026-04-18T13:26:01.687Z</time></trkpt><trkpt lat="9.3862424" lon="-75.6370496"><ele>5.0</ele><time>2026-04-18T13:26:02.688Z</time></trkpt><trkpt lat="9.3862228" lon="-75.6369663"><ele>5.333333333333333</ele><time>2026-04-18T13:26:03.69Z</time></trkpt><trkpt lat="9.3862014" lon="-75.6368847"><ele>5.666666666666667</ele><time>2026-04-18T13:26:04.684Z</time></trkpt><trkpt lat="9.3861823" lon="-75.6368031"><ele>6.0</ele><time>2026-04-18T13:26:05.69Z</time></trkpt><trkpt lat="9.3861635" lon="-75.6367189"><ele>6.166666666666667</ele><time>2026-04-18T13:26:06.684Z</time></trkpt><trkpt lat="9.3861416" lon="-75.6366395"><ele>6.333333333333334</ele><time>2026-04-18T13:26:07.688Z</time></trkpt><trkpt lat="9.3861179" lon="-75.6365606"><ele>6.5</ele><time>2026-04-18T13:26:08.683Z</time></trkpt><trkpt lat="9.3860978" lon="-75.6364757"><ele>6.666666666666667</ele><time>2026-04-18T13:26:09.685Z</time></trkpt><trkpt lat="9.3860812" lon="-75.6363987"><ele>6.833333333333334</ele><time>2026-04-18T13:26:10.685Z</time></trkpt><trkpt lat="9.3860634" lon="-75.6363174"><ele>7.0</ele><time>2026-04-18T13:26:11.691Z</time></trkpt><trkpt lat="9.3860493" lon="-75.6362345"><ele>7.000000000000001</ele><time>2026-04-18T13:26:12.691Z</time></trkpt><trkpt lat="9.3860326" lon="-75.6361518"><ele>7.0</ele><time>2026-04-18T13:26:13.695Z</time></trkpt><trkpt lat="9.3860079" lon="-75.6360707"><ele>7.0</ele><time>2026-04-18T13:26:14.689Z</time></trkpt><trkpt lat="9.3859878" lon="-75.6359921"><ele>7.0</ele><time>2026-04-18T13:26:15.687Z</time></trkpt><trkpt lat="9.3859669" lon="-75.6359123"><ele>7.000000000000001</ele><time>2026-04-18T13:26:16.687Z</time></trkpt><trkpt lat="9.385951" lon="-75.6358326"><ele>7.0</ele><time>2026-04-18T13:26:17.688Z</time></trkpt><trkpt lat="9.3859324" lon="-75.6357558"><ele>6.833333333333334</ele><time>2026-04-18T13:26:18.689Z</time></trkpt><trkpt lat="9.3859174" lon="-75.6356708"><ele>6.666666666666667</ele><time>2026-04-18T13:26:19.689Z</time></trkpt><trkpt lat="9.3858988" lon="-75.6355881"><ele>6.5</ele><time>2026-04-18T13:26:20.69Z</time></trkpt><trkpt lat="9.3858778" lon="-75.6355068"><ele>6.333333333333334</ele><time>2026-04-18T13:26:21.688Z</time></trkpt><trkpt lat="9.3858583" lon="-75.6354241"><ele>6.166666666666667</ele><time>2026-04-18T13:26:22.688Z</time></trkpt><trkpt lat="9.3858379" lon="-75.6353433"><ele>6.0</ele><time>2026-04-18T13:26:23.685Z</time></trkpt><trkpt lat="9.38582" lon="-75.6352595"><ele>5.833333333333333</ele><time>2026-04-18T13:26:24.684Z</time></trkpt><trkpt lat="9.385803" lon="-75.635179"><ele>5.666666666666667</ele><time>2026-04-18T13:26:25.688Z</time></trkpt><trkpt lat="9.38578" lon="-75.6350991"><ele>5.5</ele><time>2026-04-18T13:26:26.689Z</time></trkpt><trkpt lat="9.3857635" lon="-75.6350087"><ele>5.333333333333334</ele><time>2026-04-18T13:26:27.685Z</time></trkpt><trkpt lat="9.3857461" lon="-75.6349245"><ele>5.166666666666667</ele><time>2026-04-18T13:26:28.684Z</time></trkpt><trkpt lat="9.3857299" lon="-75.6348424"><ele>5.0</ele><time>2026-04-18T13:26:29.688Z</time></trkpt><trkpt lat="9.3857124" lon="-75.6347603"><ele>5.0</ele><time>2026-04-18T13:26:30.688Z</time></trkpt><trkpt lat="9.3856911" lon="-75.6346723"><ele>5.0</ele><time>2026-04-18T13:26:31.689Z</time></trkpt><trkpt lat="9.3856703" lon="-75.634591"><ele>5.0</ele><time>2026-04-18T13:26:32.688Z</time></trkpt><trkpt lat="9.3856514" lon="-75.6345084"><ele>5.0</ele><time>2026-04-18T13:26:33.692Z</time></trkpt><trkpt lat="9.3856335" lon="-75.6344301"><ele>5.0</ele><time>2026-04-18T13:26:34.687Z</time></trkpt><trkpt lat="9.3856145" lon="-75.6343489"><ele>5.0</ele><time>2026-04-18T13:26:35.691Z</time></trkpt><trkpt lat="9.3855964" lon="-75.6342668"><ele>5.0</ele><time>2026-04-18T13:26:36.69Z</time></trkpt><trkpt lat="9.3855774" lon="-75.6341839"><ele>5.0</ele><time>2026-04-18T13:26:37.692Z</time></trkpt><trkpt lat="9.3855578" lon="-75.6341001"><ele>5.0</ele><time>2026-04-18T13:26:38.689Z</time></trkpt><trkpt lat="9.3855381" lon="-75.6340163"><ele>5.0</ele><time>2026-04-18T13:26:39.684Z</time></trkpt><trkpt lat="9.3855182" lon="-75.6339354"><ele>5.0</ele><time>2026-04-18T13:26:40.689Z</time></trkpt><trkpt lat="9.3854995" lon="-75.6338502"><ele>5.0</ele><time>2026-04-18T13:26:41.689Z</time></trkpt><trkpt lat="9.3854803" lon="-75.6337673"><ele>5.0</ele><time>2026-04-18T13:26:42.686Z</time></trkpt><trkpt lat="9.3854642" lon="-75.6336833"><ele>5.0</ele><time>2026-04-18T13:26:43.687Z</time></trkpt><trkpt lat="9.3854514" lon="-75.6336031"><ele>5.0</ele><time>2026-04-18T13:26:44.693Z</time></trkpt><trkpt lat="9.3854328" lon="-75.633519"><ele>5.0</ele><time>2026-04-18T13:26:45.689Z</time></trkpt><trkpt lat="9.3854113" lon="-75.6334321"><ele>5.0</ele><time>2026-04-18T13:26:46.693Z</time></trkpt><trkpt lat="9.3853954" lon="-75.633352"><ele>5.0</ele><time>2026-04-18T13:26:47.69Z</time></trkpt><trkpt lat="9.3853786" lon="-75.6332683"><ele>5.0</ele><time>2026-04-18T13:26:48.691Z</time></trkpt><trkpt lat="9.3853592" lon="-75.6331918"><ele>5.0</ele><time>2026-04-18T13:26:49.693Z</time></trkpt><trkpt lat="9.3853404" lon="-75.6331092"><ele>5.0</ele><time>2026-04-18T13:26:50.691Z</time></trkpt><trkpt lat="9.3853191" lon="-75.63303"><ele>5.0</ele><time>2026-04-18T13:26:51.692Z</time></trkpt><trkpt lat="9.3852957" lon="-75.6329475"><ele>5.0</ele><time>2026-04-18T13:26:52.695Z</time></trkpt><trkpt lat="9.3852679" lon="-75.6328627"><ele>5.0</ele><time>2026-04-18T13:26:53.69Z</time></trkpt><trkpt lat="9.3852474" lon="-75.6327787"><ele>5.333333333333334</ele><time>2026-04-18T13:26:54.692Z</time></trkpt><trkpt lat="9.3852305" lon="-75.6326975"><ele>5.666666666666667</ele><time>2026-04-18T13:26:55.693Z</time></trkpt><trkpt lat="9.3852127" lon="-75.6326169"><ele>6.0</ele><time>2026-04-18T13:26:56.689Z</time></trkpt><trkpt lat="9.385194" lon="-75.6325334"><ele>6.333333333333334</ele><time>2026-04-18T13:26:57.694Z</time></trkpt><trkpt lat="9.385179" lon="-75.6324511"><ele>6.666666666666667</ele><time>2026-04-18T13:26:58.689Z</time></trkpt><trkpt lat="9.3851591" lon="-75.6323705"><ele>7.0</ele><time>2026-04-18T13:26:59.689Z</time></trkpt><trkpt lat="9.3851413" lon="-75.6322829"><ele>7.000000000000001</ele><time>2026-04-18T13:27:00.692Z</time></trkpt><trkpt lat="9.3851194" lon="-75.6321976"><ele>7.0</ele><time>2026-04-18T13:27:01.689Z</time></trkpt><trkpt lat="9.3851007" lon="-75.6321126"><ele>7.0</ele><time>2026-04-18T13:27:02.687Z</time></trkpt><trkpt lat="9.385075" lon="-75.632033"><ele>7.0</ele><time>2026-04-18T13:27:03.685Z</time></trkpt><trkpt lat="9.3850569" lon="-75.6319485"><ele>7.000000000000001</ele><time>2026-04-18T13:27:04.688Z</time></trkpt><trkpt lat="9.3850385" lon="-75.6318659"><ele>7.0</ele><time>2026-04-18T13:27:05.687Z</time></trkpt><trkpt lat="9.3850211" lon="-75.6317846"><ele>6.833333333333334</ele><time>2026-04-18T13:27:06.685Z</time></trkpt><trkpt lat="9.3850013" lon="-75.6317025"><ele>6.666666666666667</ele><time>2026-04-18T13:27:07.689Z</time></trkpt><trkpt lat="9.3849826" lon="-75.6316203"><ele>6.5</ele><time>2026-04-18T13:27:08.685Z</time></trkpt><trkpt lat="9.3849632" lon="-75.6315418"><ele>6.333333333333334</ele><time>2026-04-18T13:27:09.689Z</time></trkpt><trkpt lat="9.3849516" lon="-75.6314594"><ele>6.166666666666667</ele><time>2026-04-18T13:27:10.691Z</time></trkpt><trkpt lat="9.3849321" lon="-75.6313804"><ele>6.0</ele><time>2026-04-18T13:27:11.689Z</time></trkpt><trkpt lat="9.3849116" lon="-75.6312978"><ele>6.0</ele><time>2026-04-18T13:27:12.691Z</time></trkpt><trkpt lat="9.3848924" lon="-75.6312091"><ele>6.0</ele><time>2026-04-18T13:27:13.69Z</time></trkpt><trkpt lat="9.3848756" lon="-75.6311246"><ele>6.0</ele><time>2026-04-18T13:27:14.688Z</time></trkpt><trkpt lat="9.3848538" lon="-75.6310416"><ele>6.0</ele><time>2026-04-18T13:27:15.689Z</time></trkpt><trkpt lat="9.3848361" lon="-75.6309589"><ele>6.0</ele><time>2026-04-18T13:27:16.687Z</time></trkpt><trkpt lat="9.3848152" lon="-75.6308719"><ele>6.0</ele><time>2026-04-18T13:27:17.687Z</time></trkpt><trkpt lat="9.3847969" lon="-75.630789"><ele>6.0</ele><time>2026-04-18T13:27:18.69Z</time></trkpt><trkpt lat="9.3847799" lon="-75.6307047"><ele>6.0</ele><time>2026-04-18T13:27:19.689Z</time></trkpt><trkpt lat="9.3847605" lon="-75.6306199"><ele>6.0</ele><time>2026-04-18T13:27:20.688Z</time></trkpt><trkpt lat="9.3847406" lon="-75.6305369"><ele>6.0</ele><time>2026-04-18T13:27:21.688Z</time></trkpt><trkpt lat="9.3847205" lon="-75.6304564"><ele>6.0</ele><time>2026-04-18T13:27:22.687Z</time></trkpt><trkpt lat="9.3847009" lon="-75.6303767"><ele>6.0</ele><time>2026-04-18T13:27:23.686Z</time></trkpt><trkpt lat="9.3846824" lon="-75.6302945"><ele>6.5</ele><time>2026-04-18T13:27:24.688Z</time></trkpt><trkpt lat="9.3846617" lon="-75.6302076"><ele>7.0</ele><time>2026-04-18T13:27:25.686Z</time></trkpt><trkpt lat="9.3846422" lon="-75.6301234"><ele>7.5</ele><time>2026-04-18T13:27:26.69Z</time></trkpt><trkpt lat="9.3846246" lon="-75.6300454"><ele>8.0</ele><time>2026-04-18T13:27:27.686Z</time></trkpt><trkpt lat="9.3846019" lon="-75.6299687"><ele>8.5</ele><time>2026-04-18T13:27:28.688Z</time></trkpt><trkpt lat="9.384585" lon="-75.6298904"><ele>9.0</ele><time>2026-04-18T13:27:29.687Z</time></trkpt><trkpt lat="9.3845625" lon="-75.6298102"><ele>9.0</ele><time>2026-04-18T13:27:30.686Z</time></trkpt><trkpt lat="9.3845424" lon="-75.6297283"><ele>9.0</ele><time>2026-04-18T13:27:31.689Z</time></trkpt><trkpt lat="9.3845246" lon="-75.6296399"><ele>9.0</ele><time>2026-04-18T13:27:32.69Z</time></trkpt><trkpt lat="9.384504" lon="-75.6295609"><ele>9.0</ele><time>2026-04-18T13:27:33.691Z</time></trkpt><trkpt lat="9.3844844" lon="-75.6294797"><ele>9.0</ele><time>2026-04-18T13:27:34.686Z</time></trkpt><trkpt lat="9.3844598" lon="-75.6293985"><ele>9.0</ele><time>2026-04-18T13:27:35.691Z</time></trkpt><trkpt lat="9.3844397" lon="-75.6293125"><ele>9.333333333333334</ele><time>2026-04-18T13:27:36.686Z</time></trkpt><trkpt lat="9.3844223" lon="-75.6292282"><ele>9.666666666666666</ele><time>2026-04-18T13:27:37.686Z</time></trkpt><trkpt lat="9.384405" lon="-75.6291427"><ele>10.0</ele><time>2026-04-18T13:27:38.691Z</time></trkpt><trkpt lat="9.3843891" lon="-75.6290591"><ele>10.333333333333332</ele><time>2026-04-18T13:27:39.688Z</time></trkpt><trkpt lat="9.3843749" lon="-75.6289739"><ele>10.666666666666666</ele><time>2026-04-18T13:27:40.687Z</time></trkpt><trkpt lat="9.3843573" lon="-75.6288917"><ele>11.0</ele><time>2026-04-18T13:27:41.693Z</time></trkpt><trkpt lat="9.3843366" lon="-75.6288068"><ele>11.0</ele><time>2026-04-18T13:27:42.686Z</time></trkpt><trkpt lat="9.3843125" lon="-75.6287244"><ele>11.0</ele><time>2026-04-18T13:27:43.69Z</time></trkpt><trkpt lat="9.3842941" lon="-75.6286393"><ele>11.0</ele><time>2026-04-18T13:27:44.687Z</time></trkpt><trkpt lat="9.3842771" lon="-75.628553"><ele>11.0</ele><time>2026-04-18T13:27:45.688Z</time></trkpt><trkpt lat="9.3842577" lon="-75.6284663"><ele>11.0</ele><time>2026-04-18T13:27:46.687Z</time></trkpt><trkpt lat="9.3842371" lon="-75.6283795"><ele>11.0</ele><time>2026-04-18T13:27:47.687Z</time></trkpt><trkpt lat="9.3842207" lon="-75.6282922"><ele>10.5</ele><time>2026-04-18T13:27:48.686Z</time></trkpt><trkpt lat="9.3842006" lon="-75.6282066"><ele>10.0</ele><time>2026-04-18T13:27:49.69Z</time></trkpt><trkpt lat="9.3841764" lon="-75.6281189"><ele>9.5</ele><time>2026-04-18T13:27:50.691Z</time></trkpt><trkpt lat="9.3841539" lon="-75.6280303"><ele>9.0</ele><time>2026-04-18T13:27:51.689Z</time></trkpt><trkpt lat="9.3841356" lon="-75.6279436"><ele>8.5</ele><time>2026-04-18T13:27:52.687Z</time></trkpt><trkpt lat="9.3841163" lon="-75.6278602"><ele>8.0</ele><time>2026-04-18T13:27:53.686Z</time></trkpt><trkpt lat="9.3840967" lon="-75.6277773"><ele>7.333333333333333</ele><time>2026-04-18T13:27:54.684Z</time></trkpt><trkpt lat="9.3840789" lon="-75.6276956"><ele>6.666666666666666</ele><time>2026-04-18T13:27:55.688Z</time></trkpt><trkpt lat="9.3840598" lon="-75.627611"><ele>6.0</ele><time>2026-04-18T13:27:56.69Z</time></trkpt><trkpt lat="9.384039" lon="-75.6275287"><ele>5.333333333333333</ele><time>2026-04-18T13:27:57.69Z</time></trkpt><trkpt lat="9.384022" lon="-75.6274488"><ele>4.666666666666666</ele><time>2026-04-18T13:27:58.687Z</time></trkpt><trkpt lat="9.3840024" lon="-75.6273657"><ele>4.0</ele><time>2026-04-18T13:27:59.693Z</time></trkpt><trkpt lat="9.3839819" lon="-75.627281"><ele>3.9999999999999996</ele><time>2026-04-18T13:28:00.684Z</time></trkpt><trkpt lat="9.3839584" lon="-75.6271941"><ele>4.0</ele><time>2026-04-18T13:28:01.692Z</time></trkpt><trkpt lat="9.3839379" lon="-75.6271107"><ele>4.0</ele><time>2026-04-18T13:28:02.691Z</time></trkpt><trkpt lat="9.3839163" lon="-75.6270336"><ele>4.0</ele><time>2026-04-18T13:28:03.684Z</time></trkpt><trkpt lat="9.383907" lon="-75.6269497"><ele>3.9999999999999996</ele><time>2026-04-18T13:28:04.684Z</time></trkpt><trkpt lat="9.3838873" lon="-75.6268661"><ele>4.0</ele><time>2026-04-18T13:28:05.684Z</time></trkpt><trkpt lat="9.3838668" lon="-75.6267838"><ele>4.333333333333333</ele><time>2026-04-18T13:28:06.685Z</time></trkpt><trkpt lat="9.3838533" lon="-75.6267031"><ele>4.666666666666666</ele><time>2026-04-18T13:28:07.686Z</time></trkpt><trkpt lat="9.3838329" lon="-75.6266258"><ele>5.0</ele><time>2026-04-18T13:28:08.688Z</time></trkpt><trkpt lat="9.3838115" lon="-75.6265399"><ele>5.333333333333333</ele><time>2026-04-18T13:28:09.688Z</time></trkpt><trkpt lat="9.3837885" lon="-75.6264633"><ele>5.666666666666667</ele><time>2026-04-18T13:28:10.686Z</time></trkpt><trkpt lat="9.3837699" lon="-75.6263807"><ele>6.0</ele><time>2026-04-18T13:28:11.692Z</time></trkpt><trkpt lat="9.3837509" lon="-75.6262972"><ele>6.0</ele><time>2026-04-18T13:28:12.687Z</time></trkpt><trkpt lat="9.3837336" lon="-75.6262179"><ele>6.0</ele><time>2026-04-18T13:28:13.685Z</time></trkpt><trkpt lat="9.3837171" lon="-75.6261408"><ele>6.0</ele><time>2026-04-18T13:28:14.685Z</time></trkpt><trkpt lat="9.3837023" lon="-75.6260602"><ele>6.0</ele><time>2026-04-18T13:28:15.687Z</time></trkpt><trkpt lat="9.3836844" lon="-75.625983"><ele>6.0</ele><time>2026-04-18T13:28:16.685Z</time></trkpt><trkpt lat="9.3836684" lon="-75.6259042"><ele>6.0</ele><time>2026-04-18T13:28:17.683Z</time></trkpt><trkpt lat="9.3836551" lon="-75.6258226"><ele>6.0</ele><time>2026-04-18T13:28:18.687Z</time></trkpt><trkpt lat="9.3836409" lon="-75.6257425"><ele>6.0</ele><time>2026-04-18T13:28:19.687Z</time></trkpt><trkpt lat="9.3836286" lon="-75.6256568"><ele>6.0</ele><time>2026-04-18T13:28:20.683Z</time></trkpt><trkpt lat="9.3836182" lon="-75.6255704"><ele>6.0</ele><time>2026-04-18T13:28:21.686Z</time></trkpt><trkpt lat="9.3836034" lon="-75.6254846"><ele>6.0</ele><time>2026-04-18T13:28:22.687Z</time></trkpt><trkpt lat="9.3835952" lon="-75.625403"><ele>6.0</ele><time>2026-04-18T13:28:23.688Z</time></trkpt><trkpt lat="9.3835831" lon="-75.6253199"><ele>5.833333333333333</ele><time>2026-04-18T13:28:24.689Z</time></trkpt><trkpt lat="9.3835776" lon="-75.6252381"><ele>5.666666666666667</ele><time>2026-04-18T13:28:25.694Z</time></trkpt><trkpt lat="9.3835723" lon="-75.6251523"><ele>5.5</ele><time>2026-04-18T13:28:26.692Z</time></trkpt><trkpt lat="9.383571" lon="-75.625065"><ele>5.333333333333334</ele><time>2026-04-18T13:28:27.689Z</time></trkpt><trkpt lat="9.3835688" lon="-75.6249784"><ele>5.166666666666667</ele><time>2026-04-18T13:28:28.688Z</time></trkpt><trkpt lat="9.3835699" lon="-75.6248894"><ele>5.0</ele><time>2026-04-18T13:28:29.688Z</time></trkpt><trkpt lat="9.3835692" lon="-75.6247987"><ele>5.0</ele><time>2026-04-18T13:28:30.689Z</time></trkpt><trkpt lat="9.3835723" lon="-75.6247111"><ele>5.0</ele><time>2026-04-18T13:28:31.689Z</time></trkpt><trkpt lat="9.3835755" lon="-75.6246244"><ele>5.0</ele><time>2026-04-18T13:28:32.687Z</time></trkpt><trkpt lat="9.3835819" lon="-75.6245358"><ele>5.0</ele><time>2026-04-18T13:28:33.689Z</time></trkpt><trkpt lat="9.3835886" lon="-75.6244488"><ele>5.0</ele><time>2026-04-18T13:28:34.687Z</time></trkpt><trkpt lat="9.3835931" lon="-75.6243601"><ele>5.0</ele><time>2026-04-18T13:28:35.688Z</time></trkpt><trkpt lat="9.3836034" lon="-75.6242745"><ele>5.333333333333334</ele><time>2026-04-18T13:28:36.691Z</time></trkpt><trkpt lat="9.3836188" lon="-75.6241841"><ele>5.666666666666667</ele><time>2026-04-18T13:28:37.686Z</time></trkpt><trkpt lat="9.3836335" lon="-75.6241008"><ele>6.0</ele><time>2026-04-18T13:28:38.684Z</time></trkpt><trkpt lat="9.3836439" lon="-75.6240144"><ele>6.333333333333334</ele><time>2026-04-18T13:28:39.691Z</time></trkpt><trkpt lat="9.3836556" lon="-75.6239271"><ele>6.666666666666667</ele><time>2026-04-18T13:28:40.687Z</time></trkpt><trkpt lat="9.3836715" lon="-75.6238397"><ele>7.0</ele><time>2026-04-18T13:28:41.694Z</time></trkpt><trkpt lat="9.3836865" lon="-75.6237529"><ele>7.000000000000001</ele><time>2026-04-18T13:28:42.694Z</time></trkpt><trkpt lat="9.3837086" lon="-75.6236637"><ele>7.0</ele><time>2026-04-18T13:28:43.687Z</time></trkpt><trkpt lat="9.3837288" lon="-75.6235793"><ele>7.0</ele><time>2026-04-18T13:28:44.689Z</time></trkpt><trkpt lat="9.3837491" lon="-75.6234946"><ele>7.0</ele><time>2026-04-18T13:28:45.691Z</time></trkpt><trkpt lat="9.3837735" lon="-75.623413"><ele>7.000000000000001</ele><time>2026-04-18T13:28:46.689Z</time></trkpt><trkpt lat="9.3837949" lon="-75.623327"><ele>7.0</ele><time>2026-04-18T13:28:47.686Z</time></trkpt><trkpt lat="9.3838191" lon="-75.6232419"><ele>6.666666666666667</ele><time>2026-04-18T13:28:48.687Z</time></trkpt><trkpt lat="9.3838462" lon="-75.6231578"><ele>6.333333333333334</ele><time>2026-04-18T13:28:49.683Z</time></trkpt><trkpt lat="9.3838776" lon="-75.6230705"><ele>6.0</ele><time>2026-04-18T13:28:50.691Z</time></trkpt><trkpt lat="9.3839103" lon="-75.6229841"><ele>5.666666666666667</ele><time>2026-04-18T13:28:51.696Z</time></trkpt><trkpt lat="9.3839443" lon="-75.6228998"><ele>5.333333333333334</ele><time>2026-04-18T13:28:52.691Z</time></trkpt><trkpt lat="9.3839773" lon="-75.6228168"><ele>5.0</ele><time>2026-04-18T13:28:53.689Z</time></trkpt><trkpt lat="9.384009" lon="-75.6227347"><ele>4.5</ele><time>2026-04-18T13:28:54.687Z</time></trkpt><trkpt lat="9.3840361" lon="-75.6226512"><ele>4.0</ele><time>2026-04-18T13:28:55.684Z</time></trkpt><trkpt lat="9.3840733" lon="-75.622569"><ele>3.5</ele><time>2026-04-18T13:28:56.685Z</time></trkpt><trkpt lat="9.3841091" lon="-75.622488"><ele>3.0</ele><time>2026-04-18T13:28:57.685Z</time></trkpt><trkpt lat="9.3841507" lon="-75.6224082"><ele>2.5</ele><time>2026-04-18T13:28:58.688Z</time></trkpt><trkpt lat="9.3841942" lon="-75.6223347"><ele>2.0</ele><time>2026-04-18T13:28:59.684Z</time></trkpt><trkpt lat="9.3842422" lon="-75.6222574"><ele>1.9999999999999998</ele><time>2026-04-18T13:29:00.685Z</time></trkpt><trkpt lat="9.3842866" lon="-75.6221806"><ele>2.0</ele><time>2026-04-18T13:29:01.694Z</time></trkpt><trkpt lat="9.3843369" lon="-75.622105"><ele>2.0</ele><time>2026-04-18T13:29:02.693Z</time></trkpt><trkpt lat="9.3843819" lon="-75.6220281"><ele>2.0</ele><time>2026-04-18T13:29:03.692Z</time></trkpt><trkpt lat="9.3844341" lon="-75.6219483"><ele>1.9999999999999998</ele><time>2026-04-18T13:29:04.687Z</time></trkpt><trkpt lat="9.3844789" lon="-75.621875"><ele>2.0</ele><time>2026-04-18T13:29:05.685Z</time></trkpt><trkpt lat="9.3845287" lon="-75.6218034"><ele>1.8333333333333333</ele><time>2026-04-18T13:29:06.689Z</time></trkpt><trkpt lat="9.3845799" lon="-75.6217326"><ele>1.6666666666666665</ele><time>2026-04-18T13:29:07.685Z</time></trkpt><trkpt lat="9.3846279" lon="-75.6216673"><ele>1.5</ele><time>2026-04-18T13:29:08.686Z</time></trkpt><trkpt lat="9.3846782" lon="-75.6215995"><ele>1.3333333333333333</ele><time>2026-04-18T13:29:09.691Z</time></trkpt><trkpt lat="9.3847287" lon="-75.6215344"><ele>1.1666666666666665</ele><time>2026-04-18T13:29:10.683Z</time></trkpt><trkpt lat="9.3847853" lon="-75.6214688"><ele>1.0</ele><time>2026-04-18T13:29:11.684Z</time></trkpt><trkpt lat="9.3848382" lon="-75.6214028"><ele>0.9999999999999999</ele><time>2026-04-18T13:29:12.683Z</time></trkpt><trkpt lat="9.3848925" lon="-75.6213347"><ele>1.0</ele><time>2026-04-18T13:29:13.687Z</time></trkpt><trkpt lat="9.3849485" lon="-75.6212693"><ele>1.0</ele><time>2026-04-18T13:29:14.684Z</time></trkpt><trkpt lat="9.3850082" lon="-75.6212043"><ele>1.0</ele><time>2026-04-18T13:29:15.685Z</time></trkpt><trkpt lat="9.3850658" lon="-75.621141"><ele>0.9999999999999999</ele><time>2026-04-18T13:29:16.688Z</time></trkpt><trkpt lat="9.3851244" lon="-75.6210782"><ele>1.0</ele><time>2026-04-18T13:29:17.686Z</time></trkpt><trkpt lat="9.3851863" lon="-75.6210158"><ele>0.9999999999999999</ele><time>2026-04-18T13:29:18.686Z</time></trkpt><trkpt lat="9.3852491" lon="-75.620953"><ele>1.0</ele><time>2026-04-18T13:29:19.686Z</time></trkpt><trkpt lat="9.385311" lon="-75.62089"><ele>1.0</ele><time>2026-04-18T13:29:20.685Z</time></trkpt><trkpt lat="9.3853715" lon="-75.6208292"><ele>1.0</ele><time>2026-04-18T13:29:21.687Z</time></trkpt><trkpt lat="9.3854363" lon="-75.6207709"><ele>0.9999999999999999</ele><time>2026-04-18T13:29:22.685Z</time></trkpt><trkpt lat="9.3854992" lon="-75.6207142"><ele>1.0</ele><time>2026-04-18T13:29:23.686Z</time></trkpt><trkpt lat="9.3855639" lon="-75.620657"><ele>0.9999999999999999</ele><time>2026-04-18T13:29:24.687Z</time></trkpt><trkpt lat="9.3856307" lon="-75.6205996"><ele>1.0</ele><time>2026-04-18T13:29:25.689Z</time></trkpt><trkpt lat="9.3857037" lon="-75.6205488"><ele>1.0</ele><time>2026-04-18T13:29:26.685Z</time></trkpt><trkpt lat="9.3857687" lon="-75.6204998"><ele>1.0</ele><time>2026-04-18T13:29:27.686Z</time></trkpt><trkpt lat="9.3858436" lon="-75.620448"><ele>0.9999999999999999</ele><time>2026-04-18T13:29:28.685Z</time></trkpt><trkpt lat="9.3859144" lon="-75.6204011"><ele>1.0</ele><time>2026-04-18T13:29:29.685Z</time></trkpt><trkpt lat="9.3859879" lon="-75.6203511"><ele>0.8333333333333333</ele><time>2026-04-18T13:29:30.693Z</time></trkpt><trkpt lat="9.3860604" lon="-75.6203054"><ele>0.6666666666666666</ele><time>2026-04-18T13:29:31.687Z</time></trkpt><trkpt lat="9.3861377" lon="-75.620255"><ele>0.5</ele><time>2026-04-18T13:29:32.686Z</time></trkpt><trkpt lat="9.3862131" lon="-75.6202069"><ele>0.3333333333333333</ele><time>2026-04-18T13:29:33.686Z</time></trkpt><trkpt lat="9.3862854" lon="-75.6201582"><ele>0.16666666666666666</ele><time>2026-04-18T13:29:34.687Z</time></trkpt><trkpt lat="9.3863561" lon="-75.6201104"><ele>0.0</ele><time>2026-04-18T13:29:35.686Z</time></trkpt><trkpt lat="9.3864321" lon="-75.6200624"><ele>0.3333333333333333</ele><time>2026-04-18T13:29:36.694Z</time></trkpt><trkpt lat="9.3865073" lon="-75.6200166"><ele>0.6666666666666666</ele><time>2026-04-18T13:29:37.691Z</time></trkpt><trkpt lat="9.3865809" lon="-75.6199695"><ele>1.0</ele><time>2026-04-18T13:29:38.69Z</time></trkpt><trkpt lat="9.3866558" lon="-75.6199171"><ele>1.3333333333333333</ele><time>2026-04-18T13:29:39.694Z</time></trkpt><trkpt lat="9.3867245" lon="-75.6198672"><ele>1.6666666666666665</ele><time>2026-04-18T13:29:40.686Z</time></trkpt><trkpt lat="9.3867965" lon="-75.6198192"><ele>2.0</ele><time>2026-04-18T13:29:41.687Z</time></trkpt><trkpt lat="9.386867" lon="-75.6197714"><ele>1.9999999999999998</ele><time>2026-04-18T13:29:42.687Z</time></trkpt><trkpt lat="9.3869372" lon="-75.6197238"><ele>2.0</ele><time>2026-04-18T13:29:43.683Z</time></trkpt><trkpt lat="9.3870107" lon="-75.619675"><ele>2.0</ele><time>2026-04-18T13:29:44.683Z</time></trkpt><trkpt lat="9.3870891" lon="-75.6196244"><ele>2.0</ele><time>2026-04-18T13:29:45.695Z</time></trkpt><trkpt lat="9.3871629" lon="-75.6195747"><ele>1.9999999999999998</ele><time>2026-04-18T13:29:46.691Z</time></trkpt><trkpt lat="9.3872312" lon="-75.6195292"><ele>2.0</ele><time>2026-04-18T13:29:47.691Z</time></trkpt><trkpt lat="9.3873004" lon="-75.6194816"><ele>1.8333333333333333</ele><time>2026-04-18T13:29:48.691Z</time></trkpt><trkpt lat="9.3873712" lon="-75.6194325"><ele>1.6666666666666665</ele><time>2026-04-18T13:29:49.69Z</time></trkpt><trkpt lat="9.3874427" lon="-75.6193877"><ele>1.5</ele><time>2026-04-18T13:29:50.689Z</time></trkpt><trkpt lat="9.387512" lon="-75.6193424"><ele>1.3333333333333333</ele><time>2026-04-18T13:29:51.691Z</time></trkpt><trkpt lat="9.3875842" lon="-75.6192943"><ele>1.1666666666666665</ele><time>2026-04-18T13:29:52.69Z</time></trkpt><trkpt lat="9.387654" lon="-75.6192517"><ele>1.0</ele><time>2026-04-18T13:29:53.688Z</time></trkpt><trkpt lat="9.3877274" lon="-75.6192032"><ele>0.9999999999999999</ele><time>2026-04-18T13:29:54.692Z</time></trkpt><trkpt lat="9.3878012" lon="-75.6191565"><ele>1.0</ele><time>2026-04-18T13:29:55.686Z</time></trkpt><trkpt lat="9.3878746" lon="-75.6191074"><ele>1.0</ele><time>2026-04-18T13:29:56.688Z</time></trkpt><trkpt lat="9.3879466" lon="-75.619064"><ele>1.0</ele><time>2026-04-18T13:29:57.69Z</time></trkpt><trkpt lat="9.3880199" lon="-75.6190165"><ele>0.9999999999999999</ele><time>2026-04-18T13:29:58.687Z</time></trkpt><trkpt lat="9.3880918" lon="-75.6189691"><ele>1.0</ele><time>2026-04-18T13:29:59.687Z</time></trkpt><trkpt lat="9.3881651" lon="-75.6189176"><ele>0.8333333333333333</ele><time>2026-04-18T13:30:00.69Z</time></trkpt><trkpt lat="9.3882346" lon="-75.6188676"><ele>0.6666666666666666</ele><time>2026-04-18T13:30:01.685Z</time></trkpt><trkpt lat="9.3883009" lon="-75.6188209"><ele>0.5</ele><time>2026-04-18T13:30:02.69Z</time></trkpt><trkpt lat="9.3883707" lon="-75.6187725"><ele>0.3333333333333333</ele><time>2026-04-18T13:30:03.688Z</time></trkpt><trkpt lat="9.3884486" lon="-75.6187308"><ele>0.16666666666666666</ele><time>2026-04-18T13:30:04.688Z</time></trkpt><trkpt lat="9.3885246" lon="-75.6186838"><ele>0.0</ele><time>2026-04-18T13:30:05.691Z</time></trkpt><trkpt lat="9.3886018" lon="-75.6186355"><ele>0.0</ele><time>2026-04-18T13:30:06.692Z</time></trkpt><trkpt lat="9.3886742" lon="-75.6185872"><ele>0.0</ele><time>2026-04-18T13:30:07.69Z</time></trkpt><trkpt lat="9.3887473" lon="-75.6185441"><ele>0.0</ele><time>2026-04-18T13:30:08.687Z</time></trkpt><trkpt lat="9.3888217" lon="-75.6184945"><ele>0.0</ele><time>2026-04-18T13:30:09.69Z</time></trkpt><trkpt lat="9.3888993" lon="-75.6184451"><ele>0.0</ele><time>2026-04-18T13:30:10.689Z</time></trkpt><trkpt lat="9.3889702" lon="-75.6183972"><ele>0.0</ele><time>2026-04-18T13:30:11.689Z</time></trkpt><trkpt lat="9.3890453" lon="-75.6183484"><ele>0.0</ele><time>2026-04-18T13:30:12.69Z</time></trkpt><trkpt lat="9.3891171" lon="-75.6182976"><ele>0.0</ele><time>2026-04-18T13:30:13.689Z</time></trkpt><trkpt lat="9.3891896" lon="-75.6182534"><ele>0.0</ele><time>2026-04-18T13:30:14.693Z</time></trkpt><trkpt lat="9.3892658" lon="-75.6182069"><ele>0.0</ele><time>2026-04-18T13:30:15.69Z</time></trkpt><trkpt lat="9.3893389" lon="-75.6181606"><ele>0.0</ele><time>2026-04-18T13:30:16.685Z</time></trkpt><trkpt lat="9.3894135" lon="-75.6181101"><ele>0.0</ele><time>2026-04-18T13:30:17.685Z</time></trkpt><trkpt lat="9.3894799" lon="-75.6180605"><ele>0.0</ele><time>2026-04-18T13:30:18.69Z</time></trkpt><trkpt lat="9.3895534" lon="-75.6180113"><ele>0.0</ele><time>2026-04-18T13:30:19.686Z</time></trkpt><trkpt lat="9.3896304" lon="-75.6179619"><ele>0.0</ele><time>2026-04-18T13:30:20.688Z</time></trkpt><trkpt lat="9.3897081" lon="-75.6179129"><ele>0.0</ele><time>2026-04-18T13:30:21.688Z</time></trkpt><trkpt lat="9.3897814" lon="-75.6178643"><ele>0.0</ele><time>2026-04-18T13:30:22.688Z</time></trkpt><trkpt lat="9.3898553" lon="-75.6178163"><ele>0.0</ele><time>2026-04-18T13:30:23.691Z</time></trkpt><trkpt lat="9.3899282" lon="-75.6177733"><ele>0.16666666666666666</ele><time>2026-04-18T13:30:24.69Z</time></trkpt><trkpt lat="9.3900009" lon="-75.6177262"><ele>0.3333333333333333</ele><time>2026-04-18T13:30:25.689Z</time></trkpt><trkpt lat="9.3900719" lon="-75.6176803"><ele>0.5</ele><time>2026-04-18T13:30:26.688Z</time></trkpt><trkpt lat="9.390139" lon="-75.6176353"><ele>0.6666666666666666</ele><time>2026-04-18T13:30:27.688Z</time></trkpt><trkpt lat="9.3902033" lon="-75.6175892"><ele>0.8333333333333333</ele><time>2026-04-18T13:30:28.691Z</time></trkpt><trkpt lat="9.3902692" lon="-75.6175473"><ele>1.0</ele><time>2026-04-18T13:30:29.69Z</time></trkpt><trkpt lat="9.3903373" lon="-75.6175048"><ele>0.9999999999999999</ele><time>2026-04-18T13:30:30.69Z</time></trkpt><trkpt lat="9.3903989" lon="-75.6174633"><ele>1.0</ele><time>2026-04-18T13:30:31.689Z</time></trkpt><trkpt lat="9.390466" lon="-75.6174198"><ele>1.0</ele><time>2026-04-18T13:30:32.689Z</time></trkpt><trkpt lat="9.3905256" lon="-75.6173757"><ele>1.0</ele><time>2026-04-18T13:30:33.695Z</time></trkpt><trkpt lat="9.3905899" lon="-75.6173374"><ele>0.9999999999999999</ele><time>2026-04-18T13:30:34.694Z</time></trkpt><trkpt lat="9.390655" lon="-75.6172992"><ele>1.0</ele><time>2026-04-18T13:30:35.686Z</time></trkpt><trkpt lat="9.3907199" lon="-75.6172564"><ele>1.0</ele><time>2026-04-18T13:30:36.688Z</time></trkpt><trkpt lat="9.3907812" lon="-75.6172113"><ele>0.9999999999999999</ele><time>2026-04-18T13:30:37.688Z</time></trkpt><trkpt lat="9.3908457" lon="-75.6171714"><ele>1.0</ele><time>2026-04-18T13:30:38.686Z</time></trkpt><trkpt lat="9.3909104" lon="-75.6171308"><ele>1.0</ele><time>2026-04-18T13:30:39.688Z</time></trkpt><trkpt lat="9.3909682" lon="-75.6170917"><ele>0.9999999999999999</ele><time>2026-04-18T13:30:40.686Z</time></trkpt><trkpt lat="9.3910349" lon="-75.6170513"><ele>1.0</ele><time>2026-04-18T13:30:41.688Z</time></trkpt><trkpt lat="9.3910978" lon="-75.6170124"><ele>1.0</ele><time>2026-04-18T13:30:42.69Z</time></trkpt><trkpt lat="9.3911607" lon="-75.6169749"><ele>0.9999999999999999</ele><time>2026-04-18T13:30:43.688Z</time></trkpt><trkpt lat="9.3912237" lon="-75.6169322"><ele>1.0</ele><time>2026-04-18T13:30:44.689Z</time></trkpt><trkpt lat="9.391295" lon="-75.6168925"><ele>1.0</ele><time>2026-04-18T13:30:45.689Z</time></trkpt><trkpt lat="9.3913569" lon="-75.6168551"><ele>1.0</ele><time>2026-04-18T13:30:46.688Z</time></trkpt><trkpt lat="9.3914197" lon="-75.6168136"><ele>0.9999999999999999</ele><time>2026-04-18T13:30:47.687Z</time></trkpt><trkpt lat="9.3914843" lon="-75.6167729"><ele>1.0</ele><time>2026-04-18T13:30:48.692Z</time></trkpt><trkpt lat="9.391546" lon="-75.616731"><ele>1.3333333333333333</ele><time>2026-04-18T13:30:49.688Z</time></trkpt><trkpt lat="9.3916094" lon="-75.616688"><ele>1.6666666666666665</ele><time>2026-04-18T13:30:50.689Z</time></trkpt><trkpt lat="9.3916728" lon="-75.6166494"><ele>2.0</ele><time>2026-04-18T13:30:51.687Z</time></trkpt><trkpt lat="9.3917382" lon="-75.616607"><ele>2.3333333333333335</ele><time>2026-04-18T13:30:52.686Z</time></trkpt><trkpt lat="9.3918054" lon="-75.6165633"><ele>2.6666666666666665</ele><time>2026-04-18T13:30:53.687Z</time></trkpt><trkpt lat="9.3918696" lon="-75.616521"><ele>3.0</ele><time>2026-04-18T13:30:54.691Z</time></trkpt><trkpt lat="9.3919332" lon="-75.6164787"><ele>3.0</ele><time>2026-04-18T13:30:55.688Z</time></trkpt><trkpt lat="9.3919968" lon="-75.6164357"><ele>3.0</ele><time>2026-04-18T13:30:56.691Z</time></trkpt><trkpt lat="9.3920664" lon="-75.6163927"><ele>3.0</ele><time>2026-04-18T13:30:57.695Z</time></trkpt><trkpt lat="9.3921377" lon="-75.6163501"><ele>3.0</ele><time>2026-04-18T13:30:58.691Z</time></trkpt><trkpt lat="9.392204" lon="-75.6163058"><ele>3.0</ele><time>2026-04-18T13:30:59.689Z</time></trkpt><trkpt lat="9.3922719" lon="-75.6162669"><ele>3.0</ele><time>2026-04-18T13:31:00.69Z</time></trkpt><trkpt lat="9.3923386" lon="-75.6162265"><ele>3.3333333333333335</ele><time>2026-04-18T13:31:01.688Z</time></trkpt><trkpt lat="9.392408" lon="-75.6161894"><ele>3.666666666666667</ele><time>2026-04-18T13:31:02.69Z</time></trkpt><trkpt lat="9.3924778" lon="-75.6161543"><ele>4.0</ele><time>2026-04-18T13:31:03.688Z</time></trkpt><trkpt lat="9.3925485" lon="-75.6161173"><ele>4.333333333333334</ele><time>2026-04-18T13:31:04.691Z</time></trkpt><trkpt lat="9.3926151" lon="-75.616085"><ele>4.666666666666667</ele><time>2026-04-18T13:31:05.691Z</time></trkpt><trkpt lat="9.3926858" lon="-75.616053"><ele>5.0</ele><time>2026-04-18T13:31:06.687Z</time></trkpt><trkpt lat="9.3927594" lon="-75.6160189"><ele>5.0</ele><time>2026-04-18T13:31:07.687Z</time></trkpt><trkpt lat="9.392835" lon="-75.6159885"><ele>5.0</ele><time>2026-04-18T13:31:08.688Z</time></trkpt><trkpt lat="9.3929088" lon="-75.6159616"><ele>5.0</ele><time>2026-04-18T13:31:09.685Z</time></trkpt><trkpt lat="9.3929836" lon="-75.6159355"><ele>5.0</ele><time>2026-04-18T13:31:10.69Z</time></trkpt><trkpt lat="9.3930631" lon="-75.6159112"><ele>5.0</ele><time>2026-04-18T13:31:11.687Z</time></trkpt><trkpt lat="9.393143" lon="-75.6158905"><ele>5.0</ele><time>2026-04-18T13:31:12.686Z</time></trkpt><trkpt lat="9.3932214" lon="-75.6158686"><ele>4.833333333333334</ele><time>2026-04-18T13:31:13.695Z</time></trkpt><trkpt lat="9.3933007" lon="-75.6158474"><ele>4.666666666666667</ele><time>2026-04-18T13:31:14.687Z</time></trkpt><trkpt lat="9.3933846" lon="-75.6158277"><ele>4.5</ele><time>2026-04-18T13:31:15.688Z</time></trkpt><trkpt lat="9.3934695" lon="-75.6158096"><ele>4.333333333333333</ele><time>2026-04-18T13:31:16.691Z</time></trkpt><trkpt lat="9.3935541" lon="-75.6157932"><ele>4.166666666666666</ele><time>2026-04-18T13:31:17.685Z</time></trkpt><trkpt lat="9.3936346" lon="-75.6157747"><ele>4.0</ele><time>2026-04-18T13:31:18.685Z</time></trkpt><trkpt lat="9.3937168" lon="-75.6157613"><ele>3.9999999999999996</ele><time>2026-04-18T13:31:19.688Z</time></trkpt><trkpt lat="9.3937999" lon="-75.615742"><ele>4.0</ele><time>2026-04-18T13:31:20.686Z</time></trkpt><trkpt lat="9.3938806" lon="-75.6157236"><ele>4.0</ele><time>2026-04-18T13:31:21.687Z</time></trkpt><trkpt lat="9.3939609" lon="-75.6157068"><ele>4.0</ele><time>2026-04-18T13:31:22.689Z</time></trkpt><trkpt lat="9.3940391" lon="-75.6156941"><ele>3.9999999999999996</ele><time>2026-04-18T13:31:23.688Z</time></trkpt><trkpt lat="9.3941233" lon="-75.6156758"><ele>4.0</ele><time>2026-04-18T13:31:24.692Z</time></trkpt><trkpt lat="9.3941977" lon="-75.6156591"><ele>3.833333333333333</ele><time>2026-04-18T13:31:25.685Z</time></trkpt><trkpt lat="9.3942774" lon="-75.6156358"><ele>3.6666666666666665</ele><time>2026-04-18T13:31:26.683Z</time></trkpt><trkpt lat="9.394355" lon="-75.6156171"><ele>3.5</ele><time>2026-04-18T13:31:27.684Z</time></trkpt><trkpt lat="9.3944321" lon="-75.6156012"><ele>3.333333333333333</ele><time>2026-04-18T13:31:28.686Z</time></trkpt><trkpt lat="9.394514" lon="-75.6155855"><ele>3.1666666666666665</ele><time>2026-04-18T13:31:29.684Z</time></trkpt><trkpt lat="9.3945957" lon="-75.6155682"><ele>3.0</ele><time>2026-04-18T13:31:30.685Z</time></trkpt><trkpt lat="9.3946787" lon="-75.6155525"><ele>2.6666666666666665</ele><time>2026-04-18T13:31:31.684Z</time></trkpt><trkpt lat="9.394764" lon="-75.6155369"><ele>2.3333333333333335</ele><time>2026-04-18T13:31:32.685Z</time></trkpt><trkpt lat="9.3948485" lon="-75.6155209"><ele>2.0</ele><time>2026-04-18T13:31:33.686Z</time></trkpt><trkpt lat="9.3949364" lon="-75.6155034"><ele>1.6666666666666665</ele><time>2026-04-18T13:31:34.691Z</time></trkpt><trkpt lat="9.3950251" lon="-75.6154847"><ele>1.3333333333333333</ele><time>2026-04-18T13:31:35.691Z</time></trkpt><trkpt lat="9.3951077" lon="-75.6154668"><ele>1.0</ele><time>2026-04-18T13:31:36.687Z</time></trkpt><trkpt lat="9.3951934" lon="-75.6154508"><ele>1.0</ele><time>2026-04-18T13:31:37.685Z</time></trkpt><trkpt lat="9.3952836" lon="-75.6154327"><ele>1.0</ele><time>2026-04-18T13:31:38.695Z</time></trkpt><trkpt lat="9.3953653" lon="-75.6154169"><ele>1.0</ele><time>2026-04-18T13:31:39.69Z</time></trkpt><trkpt lat="9.3954523" lon="-75.6153972"><ele>1.0</ele><time>2026-04-18T13:31:40.683Z</time></trkpt><trkpt lat="9.3955409" lon="-75.6153795"><ele>1.0</ele><time>2026-04-18T13:31:41.687Z</time></trkpt><trkpt lat="9.3956366" lon="-75.6153652"><ele>0.8</ele><time>2026-04-18T13:31:42.689Z</time></trkpt><trkpt lat="9.395729" lon="-75.6153464"><ele>0.6000000000000001</ele><time>2026-04-18T13:31:43.686Z</time></trkpt><trkpt lat="9.3958245" lon="-75.6153271"><ele>0.4</ele><time>2026-04-18T13:31:44.687Z</time></trkpt><trkpt lat="9.3959164" lon="-75.615304"><ele>0.2</ele><time>2026-04-18T13:31:45.69Z</time></trkpt><trkpt lat="9.396008" lon="-75.6152844"><ele>0.0</ele><time>2026-04-18T13:31:46.689Z</time></trkpt><trkpt lat="9.3960999" lon="-75.6152642"><ele>-0.2</ele><time>2026-04-18T13:31:47.684Z</time></trkpt><trkpt lat="9.3961919" lon="-75.6152436"><ele>-0.4</ele><time>2026-04-18T13:31:48.682Z</time></trkpt><trkpt lat="9.396284" lon="-75.6152305"><ele>-0.6000000000000001</ele><time>2026-04-18T13:31:49.686Z</time></trkpt><trkpt lat="9.3963785" lon="-75.6152107"><ele>-0.8</ele><time>2026-04-18T13:31:50.692Z</time></trkpt><trkpt lat="9.3964704" lon="-75.615193"><ele>-1.0</ele><time>2026-04-18T13:31:51.686Z</time></trkpt><trkpt lat="9.3965612" lon="-75.6151759"><ele>-1.0</ele><time>2026-04-18T13:31:52.685Z</time></trkpt><trkpt lat="9.3966513" lon="-75.615157"><ele>-1.0</ele><time>2026-04-18T13:31:53.686Z</time></trkpt><trkpt lat="9.3967435" lon="-75.6151366"><ele>-1.0</ele><time>2026-04-18T13:31:54.686Z</time></trkpt><trkpt lat="9.3968359" lon="-75.6151198"><ele>-1.0</ele><time>2026-04-18T13:31:55.688Z</time></trkpt><trkpt lat="9.3969293" lon="-75.6150998"><ele>-1.0</ele><time>2026-04-18T13:31:56.686Z</time></trkpt><trkpt lat="9.3970173" lon="-75.6150836"><ele>-1.0</ele><time>2026-04-18T13:31:57.685Z</time></trkpt><trkpt lat="9.3971055" lon="-75.615063"><ele>-1.0</ele><time>2026-04-18T13:31:58.687Z</time></trkpt><trkpt lat="9.3971923" lon="-75.6150437"><ele>-1.0</ele><time>2026-04-18T13:31:59.685Z</time></trkpt><trkpt lat="9.397281" lon="-75.6150235"><ele>-1.0</ele><time>2026-04-18T13:32:00.686Z</time></trkpt><trkpt lat="9.3973715" lon="-75.6150018"><ele>-1.0</ele><time>2026-04-18T13:32:01.687Z</time></trkpt><trkpt lat="9.3974636" lon="-75.6149857"><ele>-0.8</ele><time>2026-04-18T13:32:02.686Z</time></trkpt><trkpt lat="9.3975503" lon="-75.6149679"><ele>-0.6000000000000001</ele><time>2026-04-18T13:32:03.688Z</time></trkpt><trkpt lat="9.3976361" lon="-75.614947"><ele>-0.4</ele><time>2026-04-18T13:32:04.69Z</time></trkpt><trkpt lat="9.397724" lon="-75.6149292"><ele>-0.2</ele><time>2026-04-18T13:32:05.687Z</time></trkpt><trkpt lat="9.3978129" lon="-75.6149113"><ele>0.0</ele><time>2026-04-18T13:32:06.687Z</time></trkpt><trkpt lat="9.3979057" lon="-75.6148945"><ele>0.0</ele><time>2026-04-18T13:32:07.689Z</time></trkpt><trkpt lat="9.3979976" lon="-75.6148804"><ele>0.0</ele><time>2026-04-18T13:32:08.686Z</time></trkpt><trkpt lat="9.3980841" lon="-75.6148634"><ele>0.0</ele><time>2026-04-18T13:32:09.69Z</time></trkpt><trkpt lat="9.3981736" lon="-75.6148461"><ele>0.0</ele><time>2026-04-18T13:32:10.685Z</time></trkpt><trkpt lat="9.3982619" lon="-75.6148255"><ele>0.0</ele><time>2026-04-18T13:32:11.684Z</time></trkpt><trkpt lat="9.398351" lon="-75.6148073"><ele>0.0</ele><time>2026-04-18T13:32:12.686Z</time></trkpt><trkpt lat="9.3984421" lon="-75.6147867"><ele>0.0</ele><time>2026-04-18T13:32:13.686Z</time></trkpt><trkpt lat="9.3985321" lon="-75.6147682"><ele>0.0</ele><time>2026-04-18T13:32:14.686Z</time></trkpt><trkpt lat="9.3986191" lon="-75.6147492"><ele>0.0</ele><time>2026-04-18T13:32:15.685Z</time></trkpt><trkpt lat="9.3987084" lon="-75.6147359"><ele>0.0</ele><time>2026-04-18T13:32:16.689Z</time></trkpt><trkpt lat="9.3987956" lon="-75.6147203"><ele>0.2</ele><time>2026-04-18T13:32:17.689Z</time></trkpt><trkpt lat="9.3988869" lon="-75.6147003"><ele>0.4</ele><time>2026-04-18T13:32:18.687Z</time></trkpt><trkpt lat="9.39898" lon="-75.6146799"><ele>0.6000000000000001</ele><time>2026-04-18T13:32:19.687Z</time></trkpt><trkpt lat="9.3990706" lon="-75.614657"><ele>0.8</ele><time>2026-04-18T13:32:20.69Z</time></trkpt><trkpt lat="9.3991635" lon="-75.6146384"><ele>1.0</ele><time>2026-04-18T13:32:21.688Z</time></trkpt><trkpt lat="9.399256" lon="-75.6146178"><ele>1.0</ele><time>2026-04-18T13:32:22.689Z</time></trkpt><trkpt lat="9.3993447" lon="-75.6146005"><ele>1.0</ele><time>2026-04-18T13:32:23.687Z</time></trkpt><trkpt lat="9.3994343" lon="-75.6145818"><ele>1.0</ele><time>2026-04-18T13:32:24.687Z</time></trkpt><trkpt lat="9.3995249" lon="-75.6145624"><ele>1.0</ele><time>2026-04-18T13:32:25.688Z</time></trkpt><trkpt lat="9.399618" lon="-75.6145456"><ele>1.0</ele><time>2026-04-18T13:32:26.689Z</time></trkpt><trkpt lat="9.399709" lon="-75.6145286"><ele>1.0</ele><time>2026-04-18T13:32:27.686Z</time></trkpt><trkpt lat="9.3997986" lon="-75.6145106"><ele>1.0</ele><time>2026-04-18T13:32:28.688Z</time></trkpt><trkpt lat="9.3998935" lon="-75.6144956"><ele>1.0</ele><time>2026-04-18T13:32:29.686Z</time></trkpt><trkpt lat="9.3999884" lon="-75.6144796"><ele>1.0</ele><time>2026-04-18T13:32:30.687Z</time></trkpt><trkpt lat="9.4000769" lon="-75.6144659"><ele>1.0</ele><time>2026-04-18T13:32:31.686Z</time></trkpt><trkpt lat="9.4001712" lon="-75.6144558"><ele>1.0</ele><time>2026-04-18T13:32:32.691Z</time></trkpt><trkpt lat="9.4002662" lon="-75.6144442"><ele>1.0</ele><time>2026-04-18T13:32:33.69Z</time></trkpt><trkpt lat="9.400364" lon="-75.6144391"><ele>1.0</ele><time>2026-04-18T13:32:34.689Z</time></trkpt><trkpt lat="9.4004506" lon="-75.6144357"><ele>1.0</ele><time>2026-04-18T13:32:35.689Z</time></trkpt><trkpt lat="9.4005439" lon="-75.6144344"><ele>1.0</ele><time>2026-04-18T13:32:36.691Z</time></trkpt><trkpt lat="9.4006376" lon="-75.6144316"><ele>1.0</ele><time>2026-04-18T13:32:37.69Z</time></trkpt><trkpt lat="9.4007332" lon="-75.6144308"><ele>1.0</ele><time>2026-04-18T13:32:38.692Z</time></trkpt><trkpt lat="9.4008262" lon="-75.614427"><ele>1.0</ele><time>2026-04-18T13:32:39.688Z</time></trkpt><trkpt lat="9.4009199" lon="-75.6144269"><ele>1.0</ele><time>2026-04-18T13:32:40.69Z</time></trkpt><trkpt lat="9.4010139" lon="-75.6144312"><ele>1.0</ele><time>2026-04-18T13:32:41.691Z</time></trkpt><trkpt lat="9.4011064" lon="-75.6144336"><ele>1.0</ele><time>2026-04-18T13:32:42.693Z</time></trkpt><trkpt lat="9.4012021" lon="-75.6144391"><ele>1.0</ele><time>2026-04-18T13:32:43.693Z</time></trkpt><trkpt lat="9.4012973" lon="-75.6144471"><ele>1.0</ele><time>2026-04-18T13:32:44.687Z</time></trkpt><trkpt lat="9.4013909" lon="-75.6144577"><ele>1.0</ele><time>2026-04-18T13:32:45.687Z</time></trkpt><trkpt lat="9.4014835" lon="-75.6144689"><ele>1.0</ele><time>2026-04-18T13:32:46.686Z</time></trkpt><trkpt lat="9.4015738" lon="-75.6144784"><ele>1.0</ele><time>2026-04-18T13:32:47.685Z</time></trkpt><trkpt lat="9.4016663" lon="-75.6144941"><ele>1.0</ele><time>2026-04-18T13:32:48.685Z</time></trkpt><trkpt lat="9.4017559" lon="-75.6145108"><ele>1.0</ele><time>2026-04-18T13:32:49.687Z</time></trkpt><trkpt lat="9.4018452" lon="-75.6145298"><ele>1.0</ele><time>2026-04-18T13:32:50.687Z</time></trkpt><trkpt lat="9.4019387" lon="-75.6145488"><ele>1.0</ele><time>2026-04-18T13:32:51.69Z</time></trkpt><trkpt lat="9.4020339" lon="-75.6145696"><ele>1.0</ele><time>2026-04-18T13:32:52.688Z</time></trkpt><trkpt lat="9.4021261" lon="-75.6145876"><ele>1.0</ele><time>2026-04-18T13:32:53.686Z</time></trkpt><trkpt lat="9.4022163" lon="-75.6146093"><ele>1.0</ele><time>2026-04-18T13:32:54.69Z</time></trkpt><trkpt lat="9.4023089" lon="-75.6146309"><ele>1.0</ele><time>2026-04-18T13:32:55.693Z</time></trkpt><trkpt lat="9.4024024" lon="-75.6146506"><ele>1.0</ele><time>2026-04-18T13:32:56.688Z</time></trkpt><trkpt lat="9.4024976" lon="-75.6146712"><ele>0.8</ele><time>2026-04-18T13:32:57.694Z</time></trkpt><trkpt lat="9.4025924" lon="-75.6146877"><ele>0.6000000000000001</ele><time>2026-04-18T13:32:58.686Z</time></trkpt><trkpt lat="9.4026856" lon="-75.6147085"><ele>0.4</ele><time>2026-04-18T13:32:59.686Z</time></trkpt><trkpt lat="9.4027784" lon="-75.6147245"><ele>0.2</ele><time>2026-04-18T13:33:00.683Z</time></trkpt><trkpt lat="9.4028701" lon="-75.614736"><ele>0.0</ele><time>2026-04-18T13:33:01.683Z</time></trkpt><trkpt lat="9.4029622" lon="-75.6147481"><ele>-0.2</ele><time>2026-04-18T13:33:02.686Z</time></trkpt><trkpt lat="9.4030518" lon="-75.6147583"><ele>-0.4</ele><time>2026-04-18T13:33:03.685Z</time></trkpt><trkpt lat="9.4031425" lon="-75.6147666"><ele>-0.6000000000000001</ele><time>2026-04-18T13:33:04.688Z</time></trkpt><trkpt lat="9.4032306" lon="-75.6147757"><ele>-0.8</ele><time>2026-04-18T13:33:05.688Z</time></trkpt><trkpt lat="9.4033237" lon="-75.6147825"><ele>-1.0</ele><time>2026-04-18T13:33:06.689Z</time></trkpt><trkpt lat="9.4034184" lon="-75.6147886"><ele>-1.0</ele><time>2026-04-18T13:33:07.688Z</time></trkpt><trkpt lat="9.4035111" lon="-75.6147901"><ele>-1.0</ele><time>2026-04-18T13:33:08.686Z</time></trkpt><trkpt lat="9.4036035" lon="-75.6147937"><ele>-1.0</ele><time>2026-04-18T13:33:09.691Z</time></trkpt><trkpt lat="9.403695" lon="-75.6147943"><ele>-1.0</ele><time>2026-04-18T13:33:10.686Z</time></trkpt><trkpt lat="9.4037868" lon="-75.6147947"><ele>-1.0</ele><time>2026-04-18T13:33:11.692Z</time></trkpt><trkpt lat="9.4038826" lon="-75.6147944"><ele>-0.8</ele><time>2026-04-18T13:33:12.685Z</time></trkpt><trkpt lat="9.4039716" lon="-75.6147934"><ele>-0.6000000000000001</ele><time>2026-04-18T13:33:13.686Z</time></trkpt><trkpt lat="9.4040656" lon="-75.6147917"><ele>-0.4</ele><time>2026-04-18T13:33:14.687Z</time></trkpt><trkpt lat="9.4041577" lon="-75.6147897"><ele>-0.2</ele><time>2026-04-18T13:33:15.688Z</time></trkpt><trkpt lat="9.4042522" lon="-75.6147853"><ele>0.0</ele><time>2026-04-18T13:33:16.69Z</time></trkpt><trkpt lat="9.4043416" lon="-75.6147761"><ele>0.0</ele><time>2026-04-18T13:33:17.69Z</time></trkpt><trkpt lat="9.4044326" lon="-75.6147666"><ele>0.0</ele><time>2026-04-18T13:33:18.688Z</time></trkpt><trkpt lat="9.4045224" lon="-75.614758"><ele>0.0</ele><time>2026-04-18T13:33:19.683Z</time></trkpt><trkpt lat="9.404608" lon="-75.6147486"><ele>0.0</ele><time>2026-04-18T13:33:20.689Z</time></trkpt><trkpt lat="9.4046979" lon="-75.6147366"><ele>0.0</ele><time>2026-04-18T13:33:21.688Z</time></trkpt><trkpt lat="9.4047889" lon="-75.6147253"><ele>0.0</ele><time>2026-04-18T13:33:22.687Z</time></trkpt><trkpt lat="9.4048754" lon="-75.6147129"><ele>0.0</ele><time>2026-04-18T13:33:23.689Z</time></trkpt><trkpt lat="9.4049674" lon="-75.6146988"><ele>0.0</ele><time>2026-04-18T13:33:24.683Z</time></trkpt><trkpt lat="9.4050567" lon="-75.6146854"><ele>0.0</ele><time>2026-04-18T13:33:25.685Z</time></trkpt><trkpt lat="9.4051483" lon="-75.6146722"><ele>0.0</ele><time>2026-04-18T13:33:26.686Z</time></trkpt><trkpt lat="9.4052338" lon="-75.6146609"><ele>0.0</ele><time>2026-04-18T13:33:27.694Z</time></trkpt><trkpt lat="9.405325" lon="-75.614647"><ele>0.0</ele><time>2026-04-18T13:33:28.687Z</time></trkpt><trkpt lat="9.4054114" lon="-75.6146341"><ele>0.0</ele><time>2026-04-18T13:33:29.683Z</time></trkpt><trkpt lat="9.4055026" lon="-75.6146244"><ele>0.0</ele><time>2026-04-18T13:33:30.684Z</time></trkpt><trkpt lat="9.4055903" lon="-75.6146147"><ele>0.0</ele><time>2026-04-18T13:33:31.69Z</time></trkpt><trkpt lat="9.4056802" lon="-75.6146042"><ele>0.0</ele><time>2026-04-18T13:33:32.686Z</time></trkpt><trkpt lat="9.4057658" lon="-75.6145945"><ele>0.0</ele><time>2026-04-18T13:33:33.688Z</time></trkpt><trkpt lat="9.4058514" lon="-75.6145807"><ele>0.6666666666666666</ele><time>2026-04-18T13:33:34.689Z</time></trkpt><trkpt lat="9.4059365" lon="-75.6145708"><ele>1.3333333333333333</ele><time>2026-04-18T13:33:35.686Z</time></trkpt><trkpt lat="9.4060188" lon="-75.6145648"><ele>2.0</ele><time>2026-04-18T13:33:36.683Z</time></trkpt><trkpt lat="9.4061003" lon="-75.6145544"><ele>2.6666666666666665</ele><time>2026-04-18T13:33:37.689Z</time></trkpt><trkpt lat="9.4061849" lon="-75.6145446"><ele>3.333333333333333</ele><time>2026-04-18T13:33:38.683Z</time></trkpt><trkpt lat="9.4062621" lon="-75.6145399"><ele>4.0</ele><time>2026-04-18T13:33:39.686Z</time></trkpt><trkpt lat="9.4063417" lon="-75.6145286"><ele>3.833333333333333</ele><time>2026-04-18T13:33:40.686Z</time></trkpt><trkpt lat="9.4064255" lon="-75.6145199"><ele>3.6666666666666665</ele><time>2026-04-18T13:33:41.685Z</time></trkpt><trkpt lat="9.4065042" lon="-75.6145069"><ele>3.5</ele><time>2026-04-18T13:33:42.682Z</time></trkpt><trkpt lat="9.4065801" lon="-75.6144987"><ele>3.333333333333333</ele><time>2026-04-18T13:33:43.688Z</time></trkpt><trkpt lat="9.4066574" lon="-75.614489"><ele>3.1666666666666665</ele><time>2026-04-18T13:33:44.687Z</time></trkpt><trkpt lat="9.406735" lon="-75.6144813"><ele>3.0</ele><time>2026-04-18T13:33:45.688Z</time></trkpt><trkpt lat="9.4068135" lon="-75.61447"><ele>3.0</ele><time>2026-04-18T13:33:46.684Z</time></trkpt><trkpt lat="9.4068918" lon="-75.6144628"><ele>3.0</ele><time>2026-04-18T13:33:47.686Z</time></trkpt><trkpt lat="9.4069675" lon="-75.614456"><ele>3.0</ele><time>2026-04-18T13:33:48.695Z</time></trkpt><trkpt lat="9.407045" lon="-75.6144427"><ele>3.0</ele><time>2026-04-18T13:33:49.688Z</time></trkpt><trkpt lat="9.4071206" lon="-75.6144314"><ele>3.0</ele><time>2026-04-18T13:33:50.686Z</time></trkpt><trkpt lat="9.4071987" lon="-75.6144193"><ele>3.0</ele><time>2026-04-18T13:33:51.687Z</time></trkpt><trkpt lat="9.4072775" lon="-75.6144103"><ele>3.1666666666666665</ele><time>2026-04-18T13:33:52.688Z</time></trkpt><trkpt lat="9.4073541" lon="-75.6144"><ele>3.333333333333333</ele><time>2026-04-18T13:33:53.685Z</time></trkpt><trkpt lat="9.4074305" lon="-75.614385"><ele>3.5</ele><time>2026-04-18T13:33:54.681Z</time></trkpt><trkpt lat="9.4075084" lon="-75.6143736"><ele>3.6666666666666665</ele><time>2026-04-18T13:33:55.689Z</time></trkpt><trkpt lat="9.4075882" lon="-75.6143661"><ele>3.833333333333333</ele><time>2026-04-18T13:33:56.684Z</time></trkpt><trkpt lat="9.4076656" lon="-75.6143542"><ele>4.0</ele><time>2026-04-18T13:33:57.683Z</time></trkpt><trkpt lat="9.4077413" lon="-75.6143456"><ele>3.9999999999999996</ele><time>2026-04-18T13:33:58.683Z</time></trkpt><trkpt lat="9.4078169" lon="-75.6143361"><ele>4.0</ele><time>2026-04-18T13:33:59.686Z</time></trkpt><trkpt lat="9.4078968" lon="-75.6143288"><ele>4.0</ele><time>2026-04-18T13:34:00.69Z</time></trkpt><trkpt lat="9.4079726" lon="-75.6143196"><ele>4.0</ele><time>2026-04-18T13:34:01.685Z</time></trkpt><trkpt lat="9.4080504" lon="-75.6143121"><ele>3.9999999999999996</ele><time>2026-04-18T13:34:02.685Z</time></trkpt><trkpt lat="9.4081266" lon="-75.614304"><ele>4.0</ele><time>2026-04-18T13:34:03.686Z</time></trkpt><trkpt lat="9.4082026" lon="-75.6143"><ele>3.4999999999999996</ele><time>2026-04-18T13:34:04.685Z</time></trkpt><trkpt lat="9.4082788" lon="-75.6142876"><ele>3.0</ele><time>2026-04-18T13:34:05.685Z</time></trkpt><trkpt lat="9.4083552" lon="-75.6142764"><ele>2.5</ele><time>2026-04-18T13:34:06.688Z</time></trkpt><trkpt lat="9.4084345" lon="-75.6142638"><ele>2.0</ele><time>2026-04-18T13:34:07.689Z</time></trkpt><trkpt lat="9.4085095" lon="-75.6142572"><ele>1.5</ele><time>2026-04-18T13:34:08.688Z</time></trkpt><trkpt lat="9.4085913" lon="-75.6142435"><ele>1.0</ele><time>2026-04-18T13:34:09.688Z</time></trkpt><trkpt lat="9.4086721" lon="-75.6142339"><ele>1.0</ele><time>2026-04-18T13:34:10.688Z</time></trkpt><trkpt lat="9.4087453" lon="-75.6142247"><ele>0.9999999999999999</ele><time>2026-04-18T13:34:11.687Z</time></trkpt><trkpt lat="9.4088214" lon="-75.6142151"><ele>1.0</ele><time>2026-04-18T13:34:12.688Z</time></trkpt><trkpt lat="9.4088969" lon="-75.6142081"><ele>1.0</ele><time>2026-04-18T13:34:13.693Z</time></trkpt><trkpt lat="9.4089702" lon="-75.6141946"><ele>0.9999999999999999</ele><time>2026-04-18T13:34:14.682Z</time></trkpt><trkpt lat="9.4090436" lon="-75.6141841"><ele>1.0</ele><time>2026-04-18T13:34:15.685Z</time></trkpt><trkpt lat="9.4091168" lon="-75.6141724"><ele>1.0</ele><time>2026-04-18T13:34:16.688Z</time></trkpt><trkpt lat="9.409194" lon="-75.614166"><ele>0.8333333333333333</ele><time>2026-04-18T13:34:17.689Z</time></trkpt><trkpt lat="9.4092747" lon="-75.6141541"><ele>0.6666666666666666</ele><time>2026-04-18T13:34:18.687Z</time></trkpt><trkpt lat="9.409354" lon="-75.6141455"><ele>0.5</ele><time>2026-04-18T13:34:19.684Z</time></trkpt><trkpt lat="9.409436" lon="-75.6141338"><ele>0.3333333333333333</ele><time>2026-04-18T13:34:20.685Z</time></trkpt><trkpt lat="9.4095212" lon="-75.6141219"><ele>0.16666666666666666</ele><time>2026-04-18T13:34:21.69Z</time></trkpt><trkpt lat="9.4096062" lon="-75.614113"><ele>0.0</ele><time>2026-04-18T13:34:22.693Z</time></trkpt><trkpt lat="9.4096919" lon="-75.6141007"><ele>0.0</ele><time>2026-04-18T13:34:23.688Z</time></trkpt><trkpt lat="9.4097778" lon="-75.6140857"><ele>0.0</ele><time>2026-04-18T13:34:24.687Z</time></trkpt><trkpt lat="9.4098671" lon="-75.6140764"><ele>0.0</ele><time>2026-04-18T13:34:25.692Z</time></trkpt><trkpt lat="9.4099522" lon="-75.6140661"><ele>0.0</ele><time>2026-04-18T13:34:26.691Z</time></trkpt><trkpt lat="9.4100373" lon="-75.614055"><ele>0.0</ele><time>2026-04-18T13:34:27.687Z</time></trkpt><trkpt lat="9.4101217" lon="-75.614047"><ele>0.0</ele><time>2026-04-18T13:34:28.685Z</time></trkpt><trkpt lat="9.4102077" lon="-75.6140371"><ele>0.0</ele><time>2026-04-18T13:34:29.687Z</time></trkpt><trkpt lat="9.4102905" lon="-75.6140221"><ele>0.0</ele><time>2026-04-18T13:34:30.687Z</time></trkpt><trkpt lat="9.4103745" lon="-75.6140058"><ele>0.0</ele><time>2026-04-18T13:34:31.686Z</time></trkpt><trkpt lat="9.4104526" lon="-75.613997"><ele>0.0</ele><time>2026-04-18T13:34:32.684Z</time></trkpt><trkpt lat="9.4105301" lon="-75.6139854"><ele>0.0</ele><time>2026-04-18T13:34:33.685Z</time></trkpt><trkpt lat="9.4106092" lon="-75.6139766"><ele>0.0</ele><time>2026-04-18T13:34:34.685Z</time></trkpt><trkpt lat="9.4106889" lon="-75.613969"><ele>0.16666666666666666</ele><time>2026-04-18T13:34:35.69Z</time></trkpt><trkpt lat="9.4107716" lon="-75.6139574"><ele>0.3333333333333333</ele><time>2026-04-18T13:34:36.69Z</time></trkpt><trkpt lat="9.4108538" lon="-75.6139437"><ele>0.5</ele><time>2026-04-18T13:34:37.692Z</time></trkpt><trkpt lat="9.4109385" lon="-75.61393"><ele>0.6666666666666666</ele><time>2026-04-18T13:34:38.688Z</time></trkpt><trkpt lat="9.411026" lon="-75.6139166"><ele>0.8333333333333333</ele><time>2026-04-18T13:34:39.687Z</time></trkpt><trkpt lat="9.4111126" lon="-75.6139097"><ele>1.0</ele><time>2026-04-18T13:34:40.691Z</time></trkpt><trkpt lat="9.4112004" lon="-75.6138968"><ele>0.9999999999999999</ele><time>2026-04-18T13:34:41.691Z</time></trkpt><trkpt lat="9.4112854" lon="-75.6138815"><ele>1.0</ele><time>2026-04-18T13:34:42.691Z</time></trkpt><trkpt lat="9.4113753" lon="-75.6138722"><ele>1.0</ele><time>2026-04-18T13:34:43.691Z</time></trkpt><trkpt lat="9.4114594" lon="-75.6138611"><ele>1.0</ele><time>2026-04-18T13:34:44.687Z</time></trkpt><trkpt lat="9.4115498" lon="-75.613848"><ele>0.9999999999999999</ele><time>2026-04-18T13:34:45.688Z</time></trkpt><trkpt lat="9.4116395" lon="-75.6138329"><ele>1.0</ele><time>2026-04-18T13:34:46.689Z</time></trkpt><trkpt lat="9.4117306" lon="-75.6138199"><ele>0.8333333333333333</ele><time>2026-04-18T13:34:47.688Z</time></trkpt><trkpt lat="9.41182" lon="-75.613807"><ele>0.6666666666666666</ele><time>2026-04-18T13:34:48.688Z</time></trkpt><trkpt lat="9.4119056" lon="-75.6137942"><ele>0.5</ele><time>2026-04-18T13:34:49.688Z</time></trkpt><trkpt lat="9.4119941" lon="-75.613781"><ele>0.3333333333333333</ele><time>2026-04-18T13:34:50.688Z</time></trkpt><trkpt lat="9.4120842" lon="-75.6137688"><ele>0.16666666666666666</ele><time>2026-04-18T13:34:51.685Z</time></trkpt><trkpt lat="9.412175" lon="-75.6137582"><ele>0.0</ele><time>2026-04-18T13:34:52.685Z</time></trkpt><trkpt lat="9.4122659" lon="-75.6137498"><ele>0.5</ele><time>2026-04-18T13:34:53.69Z</time></trkpt><trkpt lat="9.4123511" lon="-75.6137395"><ele>1.0</ele><time>2026-04-18T13:34:54.687Z</time></trkpt><trkpt lat="9.412437" lon="-75.6137307"><ele>1.5</ele><time>2026-04-18T13:34:55.689Z</time></trkpt><trkpt lat="9.4125203" lon="-75.6137232"><ele>2.0</ele><time>2026-04-18T13:34:56.691Z</time></trkpt><trkpt lat="9.4125997" lon="-75.6137109"><ele>2.5</ele><time>2026-04-18T13:34:57.686Z</time></trkpt><trkpt lat="9.412679" lon="-75.6137039"><ele>3.0</ele><time>2026-04-18T13:34:58.688Z</time></trkpt><trkpt lat="9.4127579" lon="-75.6136921"><ele>3.0</ele><time>2026-04-18T13:34:59.691Z</time></trkpt><trkpt lat="9.4128306" lon="-75.6136823"><ele>3.0</ele><time>2026-04-18T13:35:00.691Z</time></trkpt><trkpt lat="9.4129066" lon="-75.6136743"><ele>3.0</ele><time>2026-04-18T13:35:01.694Z</time></trkpt><trkpt lat="9.4129816" lon="-75.6136651"><ele>3.0</ele><time>2026-04-18T13:35:02.691Z</time></trkpt><trkpt lat="9.4130564" lon="-75.613653"><ele>3.0</ele><time>2026-04-18T13:35:03.689Z</time></trkpt><trkpt lat="9.4131336" lon="-75.6136436"><ele>3.0</ele><time>2026-04-18T13:35:04.689Z</time></trkpt><trkpt lat="9.4132063" lon="-75.6136376"><ele>2.8333333333333335</ele><time>2026-04-18T13:35:05.692Z</time></trkpt><trkpt lat="9.4132814" lon="-75.613628"><ele>2.6666666666666665</ele><time>2026-04-18T13:35:06.69Z</time></trkpt><trkpt lat="9.4133589" lon="-75.6136195"><ele>2.5</ele><time>2026-04-18T13:35:07.69Z</time></trkpt><trkpt lat="9.4134356" lon="-75.6136092"><ele>2.333333333333333</ele><time>2026-04-18T13:35:08.686Z</time></trkpt><trkpt lat="9.413513" lon="-75.6135981"><ele>2.1666666666666665</ele><time>2026-04-18T13:35:09.686Z</time></trkpt><trkpt lat="9.4135902" lon="-75.6135883"><ele>2.0</ele><time>2026-04-18T13:35:10.687Z</time></trkpt><trkpt lat="9.4136679" lon="-75.6135739"><ele>1.9999999999999998</ele><time>2026-04-18T13:35:11.689Z</time></trkpt><trkpt lat="9.4137464" lon="-75.6135645"><ele>2.0</ele><time>2026-04-18T13:35:12.687Z</time></trkpt><trkpt lat="9.4138262" lon="-75.6135537"><ele>2.0</ele><time>2026-04-18T13:35:13.689Z</time></trkpt><trkpt lat="9.4139054" lon="-75.6135444"><ele>2.0</ele><time>2026-04-18T13:35:14.687Z</time></trkpt><trkpt lat="9.4139872" lon="-75.6135361"><ele>1.9999999999999998</ele><time>2026-04-18T13:35:15.691Z</time></trkpt><trkpt lat="9.4140676" lon="-75.6135283"><ele>2.0</ele><time>2026-04-18T13:35:16.684Z</time></trkpt><trkpt lat="9.4141486" lon="-75.6135181"><ele>1.8333333333333333</ele><time>2026-04-18T13:35:17.685Z</time></trkpt><trkpt lat="9.414228" lon="-75.6135048"><ele>1.6666666666666665</ele><time>2026-04-18T13:35:18.689Z</time></trkpt><trkpt lat="9.4143099" lon="-75.6134963"><ele>1.5</ele><time>2026-04-18T13:35:19.686Z</time></trkpt><trkpt lat="9.41439" lon="-75.6134864"><ele>1.3333333333333333</ele><time>2026-04-18T13:35:20.69Z</time></trkpt><trkpt lat="9.4144709" lon="-75.6134757"><ele>1.1666666666666665</ele><time>2026-04-18T13:35:21.688Z</time></trkpt><trkpt lat="9.4145495" lon="-75.6134658"><ele>1.0</ele><time>2026-04-18T13:35:22.69Z</time></trkpt><trkpt lat="9.4146304" lon="-75.6134545"><ele>1.1666666666666665</ele><time>2026-04-18T13:35:23.687Z</time></trkpt><trkpt lat="9.4147084" lon="-75.6134436"><ele>1.3333333333333333</ele><time>2026-04-18T13:35:24.685Z</time></trkpt><trkpt lat="9.414787" lon="-75.6134344"><ele>1.5</ele><time>2026-04-18T13:35:25.689Z</time></trkpt><trkpt lat="9.4148616" lon="-75.6134242"><ele>1.6666666666666665</ele><time>2026-04-18T13:35:26.686Z</time></trkpt><trkpt lat="9.414936" lon="-75.6134111"><ele>1.8333333333333333</ele><time>2026-04-18T13:35:27.686Z</time></trkpt><trkpt lat="9.4150137" lon="-75.6133969"><ele>2.0</ele><time>2026-04-18T13:35:28.687Z</time></trkpt><trkpt lat="9.4150928" lon="-75.6133858"><ele>1.9999999999999998</ele><time>2026-04-18T13:35:29.688Z</time></trkpt><trkpt lat="9.4151693" lon="-75.6133702"><ele>2.0</ele><time>2026-04-18T13:35:30.686Z</time></trkpt><trkpt lat="9.4152457" lon="-75.6133577"><ele>2.0</ele><time>2026-04-18T13:35:31.685Z</time></trkpt><trkpt lat="9.4153214" lon="-75.6133445"><ele>2.0</ele><time>2026-04-18T13:35:32.688Z</time></trkpt><trkpt lat="9.4153973" lon="-75.6133304"><ele>1.9999999999999998</ele><time>2026-04-18T13:35:33.686Z</time></trkpt><trkpt lat="9.4154722" lon="-75.6133142"><ele>2.0</ele><time>2026-04-18T13:35:34.688Z</time></trkpt><trkpt lat="9.4155534" lon="-75.6133014"><ele>1.9999999999999998</ele><time>2026-04-18T13:35:35.693Z</time></trkpt><trkpt lat="9.4156301" lon="-75.6132861"><ele>2.0</ele><time>2026-04-18T13:35:36.686Z</time></trkpt><trkpt lat="9.4157043" lon="-75.6132682"><ele>2.0</ele><time>2026-04-18T13:35:37.687Z</time></trkpt><trkpt lat="9.4157815" lon="-75.6132469"><ele>2.0</ele><time>2026-04-18T13:35:38.684Z</time></trkpt><trkpt lat="9.4158598" lon="-75.6132275"><ele>1.9999999999999998</ele><time>2026-04-18T13:35:39.689Z</time></trkpt><trkpt lat="9.4159371" lon="-75.6132093"><ele>2.0</ele><time>2026-04-18T13:35:40.685Z</time></trkpt><trkpt lat="9.4160092" lon="-75.6131882"><ele>1.9999999999999998</ele><time>2026-04-18T13:35:41.685Z</time></trkpt><trkpt lat="9.4160887" lon="-75.6131696"><ele>2.0</ele><time>2026-04-18T13:35:42.691Z</time></trkpt><trkpt lat="9.4161663" lon="-75.61315"><ele>2.0</ele><time>2026-04-18T13:35:43.691Z</time></trkpt><trkpt lat="9.416247" lon="-75.6131298"><ele>2.0</ele><time>2026-04-18T13:35:44.688Z</time></trkpt><trkpt lat="9.4163271" lon="-75.6131075"><ele>1.9999999999999998</ele><time>2026-04-18T13:35:45.691Z</time></trkpt><trkpt lat="9.4164073" lon="-75.6130856"><ele>2.0</ele><time>2026-04-18T13:35:46.688Z</time></trkpt><trkpt lat="9.4164853" lon="-75.6130656"><ele>2.1666666666666665</ele><time>2026-04-18T13:35:47.69Z</time></trkpt><trkpt lat="9.4165651" lon="-75.6130431"><ele>2.333333333333333</ele><time>2026-04-18T13:35:48.692Z</time></trkpt><trkpt lat="9.4166459" lon="-75.6130199"><ele>2.5</ele><time>2026-04-18T13:35:49.689Z</time></trkpt><trkpt lat="9.4167218" lon="-75.612998"><ele>2.6666666666666665</ele><time>2026-04-18T13:35:50.688Z</time></trkpt><trkpt lat="9.4168038" lon="-75.6129763"><ele>2.8333333333333335</ele><time>2026-04-18T13:35:51.691Z</time></trkpt><trkpt lat="9.4168829" lon="-75.6129503"><ele>3.0</ele><time>2026-04-18T13:35:52.687Z</time></trkpt><trkpt lat="9.4169635" lon="-75.6129297"><ele>3.0</ele><time>2026-04-18T13:35:53.688Z</time></trkpt><trkpt lat="9.4170456" lon="-75.6129092"><ele>3.0</ele><time>2026-04-18T13:35:54.689Z</time></trkpt><trkpt lat="9.4171228" lon="-75.6128842"><ele>3.0</ele><time>2026-04-18T13:35:55.682Z</time></trkpt><trkpt lat="9.417204" lon="-75.6128601"><ele>3.0</ele><time>2026-04-18T13:35:56.694Z</time></trkpt><trkpt lat="9.4172796" lon="-75.6128367"><ele>3.0</ele><time>2026-04-18T13:35:57.691Z</time></trkpt><trkpt lat="9.4173569" lon="-75.6128147"><ele>3.0</ele><time>2026-04-18T13:35:58.69Z</time></trkpt><trkpt lat="9.4174349" lon="-75.6127856"><ele>2.0</ele><time>2026-04-18T13:35:59.693Z</time></trkpt><trkpt lat="9.4175162" lon="-75.6127648"><ele>1.0</ele><time>2026-04-18T13:36:00.692Z</time></trkpt><trkpt lat="9.4175952" lon="-75.612744"><ele>0.0</ele><time>2026-04-18T13:36:01.69Z</time></trkpt><trkpt lat="9.4176725" lon="-75.6127212"><ele>-1.0</ele><time>2026-04-18T13:36:02.689Z</time></trkpt><trkpt lat="9.4177532" lon="-75.6126974"><ele>-2.0</ele><time>2026-04-18T13:36:03.688Z</time></trkpt><trkpt lat="9.4178309" lon="-75.612675"><ele>-3.0</ele><time>2026-04-18T13:36:04.686Z</time></trkpt><trkpt lat="9.417915" lon="-75.6126532"><ele>-2.5</ele><time>2026-04-18T13:36:05.69Z</time></trkpt><trkpt lat="9.4179938" lon="-75.6126285"><ele>-2.0</ele><time>2026-04-18T13:36:06.688Z</time></trkpt><trkpt lat="9.4180757" lon="-75.612609"><ele>-1.5</ele><time>2026-04-18T13:36:07.687Z</time></trkpt><trkpt lat="9.4181518" lon="-75.6125855"><ele>-1.0</ele><time>2026-04-18T13:36:08.687Z</time></trkpt><trkpt lat="9.4182313" lon="-75.6125603"><ele>-0.5</ele><time>2026-04-18T13:36:09.686Z</time></trkpt><trkpt lat="9.4183047" lon="-75.612541"><ele>0.0</ele><time>2026-04-18T13:36:10.688Z</time></trkpt><trkpt lat="9.4183826" lon="-75.6125192"><ele>0.0</ele><time>2026-04-18T13:36:11.69Z</time></trkpt><trkpt lat="9.4184621" lon="-75.6124968"><ele>0.0</ele><time>2026-04-18T13:36:12.687Z</time></trkpt><trkpt lat="9.418538" lon="-75.6124781"><ele>0.0</ele><time>2026-04-18T13:36:13.688Z</time></trkpt><trkpt lat="9.4186093" lon="-75.6124569"><ele>0.0</ele><time>2026-04-18T13:36:14.686Z</time></trkpt><trkpt lat="9.4186829" lon="-75.612434"><ele>0.0</ele><time>2026-04-18T13:36:15.687Z</time></trkpt><trkpt lat="9.4187549" lon="-75.6124102"><ele>0.0</ele><time>2026-04-18T13:36:16.686Z</time></trkpt><trkpt lat="9.4188262" lon="-75.6123875"><ele>0.6666666666666666</ele><time>2026-04-18T13:36:17.69Z</time></trkpt><trkpt lat="9.4189081" lon="-75.6123649"><ele>1.3333333333333333</ele><time>2026-04-18T13:36:18.693Z</time></trkpt><trkpt lat="9.4189887" lon="-75.6123388"><ele>2.0</ele><time>2026-04-18T13:36:19.691Z</time></trkpt><trkpt lat="9.4190655" lon="-75.6123181"><ele>2.6666666666666665</ele><time>2026-04-18T13:36:20.687Z</time></trkpt><trkpt lat="9.4191464" lon="-75.612298"><ele>3.333333333333333</ele><time>2026-04-18T13:36:21.689Z</time></trkpt><trkpt lat="9.4192301" lon="-75.6122713"><ele>4.0</ele><time>2026-04-18T13:36:22.692Z</time></trkpt><trkpt lat="9.4193081" lon="-75.6122475"><ele>3.9999999999999996</ele><time>2026-04-18T13:36:23.688Z</time></trkpt><trkpt lat="9.4193862" lon="-75.6122247"><ele>4.0</ele><time>2026-04-18T13:36:24.685Z</time></trkpt><trkpt lat="9.419468" lon="-75.612202"><ele>4.0</ele><time>2026-04-18T13:36:25.689Z</time></trkpt><trkpt lat="9.4195529" lon="-75.6121771"><ele>4.0</ele><time>2026-04-18T13:36:26.688Z</time></trkpt><trkpt lat="9.4196356" lon="-75.6121525"><ele>3.9999999999999996</ele><time>2026-04-18T13:36:27.689Z</time></trkpt><trkpt lat="9.4197196" lon="-75.6121274"><ele>4.0</ele><time>2026-04-18T13:36:28.691Z</time></trkpt><trkpt lat="9.4198056" lon="-75.6121042"><ele>3.9999999999999996</ele><time>2026-04-18T13:36:29.689Z</time></trkpt><trkpt lat="9.4198867" lon="-75.612085"><ele>4.0</ele><time>2026-04-18T13:36:30.684Z</time></trkpt><trkpt lat="9.41997" lon="-75.6120632"><ele>4.0</ele><time>2026-04-18T13:36:31.683Z</time></trkpt><trkpt lat="9.4200485" lon="-75.6120382"><ele>4.0</ele><time>2026-04-18T13:36:32.69Z</time></trkpt><trkpt lat="9.4201294" lon="-75.6120169"><ele>3.9999999999999996</ele><time>2026-04-18T13:36:33.684Z</time></trkpt><trkpt lat="9.4202116" lon="-75.6119946"><ele>4.0</ele><time>2026-04-18T13:36:34.685Z</time></trkpt><trkpt lat="9.4202973" lon="-75.611967"><ele>3.9999999999999996</ele><time>2026-04-18T13:36:35.692Z</time></trkpt><trkpt lat="9.4203798" lon="-75.6119435"><ele>4.0</ele><time>2026-04-18T13:36:36.688Z</time></trkpt><trkpt lat="9.4204633" lon="-75.6119211"><ele>4.0</ele><time>2026-04-18T13:36:37.691Z</time></trkpt><trkpt lat="9.4205434" lon="-75.611892"><ele>4.0</ele><time>2026-04-18T13:36:38.689Z</time></trkpt><trkpt lat="9.4206236" lon="-75.6118685"><ele>3.9999999999999996</ele><time>2026-04-18T13:36:39.689Z</time></trkpt><trkpt lat="9.4207032" lon="-75.6118435"><ele>4.0</ele><time>2026-04-18T13:36:40.689Z</time></trkpt><trkpt lat="9.4207846" lon="-75.6118195"><ele>3.333333333333333</ele><time>2026-04-18T13:36:41.686Z</time></trkpt><trkpt lat="9.4208642" lon="-75.6117968"><ele>2.6666666666666665</ele><time>2026-04-18T13:36:42.689Z</time></trkpt><trkpt lat="9.4209455" lon="-75.6117737"><ele>2.0</ele><time>2026-04-18T13:36:43.69Z</time></trkpt><trkpt lat="9.4210259" lon="-75.6117528"><ele>1.3333333333333333</ele><time>2026-04-18T13:36:44.686Z</time></trkpt><trkpt lat="9.4211044" lon="-75.6117322"><ele>0.6666666666666666</ele><time>2026-04-18T13:36:45.689Z</time></trkpt><trkpt lat="9.4211863" lon="-75.6117061"><ele>0.0</ele><time>2026-04-18T13:36:46.688Z</time></trkpt><trkpt lat="9.4212668" lon="-75.6116806"><ele>0.16666666666666666</ele><time>2026-04-18T13:36:47.686Z</time></trkpt><trkpt lat="9.4213454" lon="-75.6116593"><ele>0.3333333333333333</ele><time>2026-04-18T13:36:48.687Z</time></trkpt><trkpt lat="9.4214273" lon="-75.6116373"><ele>0.5</ele><time>2026-04-18T13:36:49.686Z</time></trkpt><trkpt lat="9.4215091" lon="-75.6116145"><ele>0.6666666666666666</ele><time>2026-04-18T13:36:50.689Z</time></trkpt><trkpt lat="9.4215908" lon="-75.6115936"><ele>0.8333333333333333</ele><time>2026-04-18T13:36:51.689Z</time></trkpt><trkpt lat="9.4216727" lon="-75.6115766"><ele>1.0</ele><time>2026-04-18T13:36:52.687Z</time></trkpt><trkpt lat="9.4217523" lon="-75.6115575"><ele>0.9999999999999999</ele><time>2026-04-18T13:36:53.686Z</time></trkpt><trkpt lat="9.4218321" lon="-75.6115435"><ele>1.0</ele><time>2026-04-18T13:36:54.687Z</time></trkpt><trkpt lat="9.4219134" lon="-75.6115309"><ele>1.0</ele><time>2026-04-18T13:36:55.69Z</time></trkpt><trkpt lat="9.4219958" lon="-75.6115147"><ele>1.0</ele><time>2026-04-18T13:36:56.684Z</time></trkpt><trkpt lat="9.4220801" lon="-75.6115089"><ele>0.9999999999999999</ele><time>2026-04-18T13:36:57.687Z</time></trkpt><trkpt lat="9.4221634" lon="-75.611497"><ele>1.0</ele><time>2026-04-18T13:36:58.689Z</time></trkpt><trkpt lat="9.4222475" lon="-75.6114916"><ele>1.3333333333333333</ele><time>2026-04-18T13:36:59.694Z</time></trkpt><trkpt lat="9.4223312" lon="-75.6114868"><ele>1.6666666666666665</ele><time>2026-04-18T13:37:00.691Z</time></trkpt><trkpt lat="9.4224178" lon="-75.6114831"><ele>2.0</ele><time>2026-04-18T13:37:01.69Z</time></trkpt><trkpt lat="9.4225024" lon="-75.611478"><ele>2.3333333333333335</ele><time>2026-04-18T13:37:02.691Z</time></trkpt><trkpt lat="9.4225898" lon="-75.6114767"><ele>2.6666666666666665</ele><time>2026-04-18T13:37:03.691Z</time></trkpt><trkpt lat="9.4226802" lon="-75.6114822"><ele>3.0</ele><time>2026-04-18T13:37:04.685Z</time></trkpt><trkpt lat="9.422771" lon="-75.6114859"><ele>3.0</ele><time>2026-04-18T13:37:05.693Z</time></trkpt><trkpt lat="9.4228591" lon="-75.6114884"><ele>3.0</ele><time>2026-04-18T13:37:06.688Z</time></trkpt><trkpt lat="9.4229513" lon="-75.6114938"><ele>3.0</ele><time>2026-04-18T13:37:07.685Z</time></trkpt><trkpt lat="9.4230383" lon="-75.6114985"><ele>3.0</ele><time>2026-04-18T13:37:08.688Z</time></trkpt><trkpt lat="9.4231303" lon="-75.6115038"><ele>3.0</ele><time>2026-04-18T13:37:09.69Z</time></trkpt><trkpt lat="9.4232179" lon="-75.6115161"><ele>3.0</ele><time>2026-04-18T13:37:10.686Z</time></trkpt><trkpt lat="9.4233063" lon="-75.6115221"><ele>2.8333333333333335</ele><time>2026-04-18T13:37:11.684Z</time></trkpt><trkpt lat="9.4233971" lon="-75.6115275"><ele>2.6666666666666665</ele><time>2026-04-18T13:37:12.686Z</time></trkpt><trkpt lat="9.4234865" lon="-75.6115366"><ele>2.5</ele><time>2026-04-18T13:37:13.692Z</time></trkpt><trkpt lat="9.4235767" lon="-75.6115444"><ele>2.333333333333333</ele><time>2026-04-18T13:37:14.685Z</time></trkpt><trkpt lat="9.4236647" lon="-75.6115508"><ele>2.1666666666666665</ele><time>2026-04-18T13:37:15.685Z</time></trkpt><trkpt lat="9.4237473" lon="-75.6115596"><ele>2.0</ele><time>2026-04-18T13:37:16.687Z</time></trkpt><trkpt lat="9.4238321" lon="-75.6115676"><ele>1.9999999999999998</ele><time>2026-04-18T13:37:17.686Z</time></trkpt><trkpt lat="9.4239132" lon="-75.6115767"><ele>2.0</ele><time>2026-04-18T13:37:18.686Z</time></trkpt><trkpt lat="9.4239987" lon="-75.6115871"><ele>2.0</ele><time>2026-04-18T13:37:19.685Z</time></trkpt><trkpt lat="9.4240875" lon="-75.6115918"><ele>2.0</ele><time>2026-04-18T13:37:20.689Z</time></trkpt><trkpt lat="9.4241736" lon="-75.6115973"><ele>1.9999999999999998</ele><time>2026-04-18T13:37:21.683Z</time></trkpt><trkpt lat="9.4242622" lon="-75.6116037"><ele>2.0</ele><time>2026-04-18T13:37:22.682Z</time></trkpt><trkpt lat="9.4243459" lon="-75.6116124"><ele>1.9999999999999998</ele><time>2026-04-18T13:37:23.684Z</time></trkpt><trkpt lat="9.4244293" lon="-75.6116192"><ele>2.0</ele><time>2026-04-18T13:37:24.687Z</time></trkpt><trkpt lat="9.4245144" lon="-75.6116255"><ele>2.0</ele><time>2026-04-18T13:37:25.687Z</time></trkpt><trkpt lat="9.4245975" lon="-75.6116334"><ele>2.0</ele><time>2026-04-18T13:37:26.683Z</time></trkpt><trkpt lat="9.4246815" lon="-75.6116415"><ele>1.9999999999999998</ele><time>2026-04-18T13:37:27.687Z</time></trkpt><trkpt lat="9.4247655" lon="-75.6116521"><ele>2.0</ele><time>2026-04-18T13:37:28.687Z</time></trkpt><trkpt lat="9.4248506" lon="-75.6116606"><ele>1.6666666666666665</ele><time>2026-04-18T13:37:29.686Z</time></trkpt><trkpt lat="9.4249378" lon="-75.6116689"><ele>1.3333333333333333</ele><time>2026-04-18T13:37:30.687Z</time></trkpt><trkpt lat="9.4250224" lon="-75.6116742"><ele>1.0</ele><time>2026-04-18T13:37:31.689Z</time></trkpt><trkpt lat="9.4251089" lon="-75.6116819"><ele>0.6666666666666666</ele><time>2026-04-18T13:37:32.692Z</time></trkpt><trkpt lat="9.4251958" lon="-75.6116907"><ele>0.3333333333333333</ele><time>2026-04-18T13:37:33.688Z</time></trkpt><trkpt lat="9.4252801" lon="-75.6117009"><ele>0.0</ele><time>2026-04-18T13:37:34.691Z</time></trkpt><trkpt lat="9.4253668" lon="-75.6117071"><ele>0.0</ele><time>2026-04-18T13:37:35.689Z</time></trkpt><trkpt lat="9.4254511" lon="-75.6117142"><ele>0.0</ele><time>2026-04-18T13:37:36.686Z</time></trkpt><trkpt lat="9.425534" lon="-75.6117224"><ele>0.0</ele><time>2026-04-18T13:37:37.69Z</time></trkpt><trkpt lat="9.4256201" lon="-75.6117284"><ele>0.0</ele><time>2026-04-18T13:37:38.688Z</time></trkpt><trkpt lat="9.4257052" lon="-75.6117342"><ele>0.0</ele><time>2026-04-18T13:37:39.689Z</time></trkpt><trkpt lat="9.4257902" lon="-75.6117429"><ele>0.0</ele><time>2026-04-18T13:37:40.685Z</time></trkpt><trkpt lat="9.4258768" lon="-75.6117532"><ele>0.16666666666666666</ele><time>2026-04-18T13:37:41.687Z</time></trkpt><trkpt lat="9.4259608" lon="-75.6117613"><ele>0.3333333333333333</ele><time>2026-04-18T13:37:42.685Z</time></trkpt><trkpt lat="9.4260441" lon="-75.6117699"><ele>0.5</ele><time>2026-04-18T13:37:43.688Z</time></trkpt><trkpt lat="9.426126" lon="-75.6117798"><ele>0.6666666666666666</ele><time>2026-04-18T13:37:44.689Z</time></trkpt><trkpt lat="9.4262074" lon="-75.6117881"><ele>0.8333333333333333</ele><time>2026-04-18T13:37:45.685Z</time></trkpt><trkpt lat="9.4262884" lon="-75.6117936"><ele>1.0</ele><time>2026-04-18T13:37:46.688Z</time></trkpt><trkpt lat="9.4263687" lon="-75.6117995"><ele>0.9999999999999999</ele><time>2026-04-18T13:37:47.693Z</time></trkpt><trkpt lat="9.4264502" lon="-75.6118067"><ele>1.0</ele><time>2026-04-18T13:37:48.689Z</time></trkpt><trkpt lat="9.4265341" lon="-75.6118107"><ele>1.0</ele><time>2026-04-18T13:37:49.686Z</time></trkpt><trkpt lat="9.4266209" lon="-75.6118185"><ele>1.0</ele><time>2026-04-18T13:37:50.683Z</time></trkpt><trkpt lat="9.426707" lon="-75.6118244"><ele>0.9999999999999999</ele><time>2026-04-18T13:37:51.686Z</time></trkpt><trkpt lat="9.4267901" lon="-75.6118333"><ele>1.0</ele><time>2026-04-18T13:37:52.687Z</time></trkpt><trkpt lat="9.4268752" lon="-75.611842"><ele>0.9999999999999999</ele><time>2026-04-18T13:37:53.688Z</time></trkpt><trkpt lat="9.4269575" lon="-75.6118493"><ele>1.0</ele><time>2026-04-18T13:37:54.686Z</time></trkpt><trkpt lat="9.4270436" lon="-75.6118559"><ele>1.0</ele><time>2026-04-18T13:37:55.686Z</time></trkpt><trkpt lat="9.4271281" lon="-75.6118602"><ele>1.0</ele><time>2026-04-18T13:37:56.686Z</time></trkpt><trkpt lat="9.4272068" lon="-75.6118667"><ele>0.9999999999999999</ele><time>2026-04-18T13:37:57.691Z</time></trkpt><trkpt lat="9.4272922" lon="-75.6118705"><ele>1.0</ele><time>2026-04-18T13:37:58.683Z</time></trkpt><trkpt lat="9.4273689" lon="-75.6118762"><ele>1.1666666666666665</ele><time>2026-04-18T13:37:59.686Z</time></trkpt><trkpt lat="9.427448" lon="-75.6118822"><ele>1.3333333333333333</ele><time>2026-04-18T13:38:00.683Z</time></trkpt><trkpt lat="9.4275309" lon="-75.6118879"><ele>1.5</ele><time>2026-04-18T13:38:01.686Z</time></trkpt><trkpt lat="9.4276109" lon="-75.6118925"><ele>1.6666666666666665</ele><time>2026-04-18T13:38:02.684Z</time></trkpt><trkpt lat="9.4276887" lon="-75.6118965"><ele>1.8333333333333333</ele><time>2026-04-18T13:38:03.685Z</time></trkpt><trkpt lat="9.427767" lon="-75.6118986"><ele>2.0</ele><time>2026-04-18T13:38:04.686Z</time></trkpt><trkpt lat="9.4278489" lon="-75.6118955"><ele>1.9999999999999998</ele><time>2026-04-18T13:38:05.687Z</time></trkpt><trkpt lat="9.427931" lon="-75.6118943"><ele>2.0</ele><time>2026-04-18T13:38:06.685Z</time></trkpt><trkpt lat="9.4280125" lon="-75.6118915"><ele>2.0</ele><time>2026-04-18T13:38:07.69Z</time></trkpt><trkpt lat="9.4280913" lon="-75.6118856"><ele>2.0</ele><time>2026-04-18T13:38:08.685Z</time></trkpt><trkpt lat="9.4281745" lon="-75.6118866"><ele>1.9999999999999998</ele><time>2026-04-18T13:38:09.687Z</time></trkpt><trkpt lat="9.4282574" lon="-75.6118863"><ele>2.0</ele><time>2026-04-18T13:38:10.687Z</time></trkpt><trkpt lat="9.4283376" lon="-75.6118785"><ele>1.9999999999999998</ele><time>2026-04-18T13:38:11.689Z</time></trkpt><trkpt lat="9.4284167" lon="-75.6118738"><ele>2.0</ele><time>2026-04-18T13:38:12.687Z</time></trkpt><trkpt lat="9.4284942" lon="-75.6118694"><ele>2.0</ele><time>2026-04-18T13:38:13.684Z</time></trkpt><trkpt lat="9.4285781" lon="-75.6118667"><ele>2.0</ele><time>2026-04-18T13:38:14.686Z</time></trkpt><trkpt lat="9.4286597" lon="-75.6118591"><ele>1.9999999999999998</ele><time>2026-04-18T13:38:15.692Z</time></trkpt><trkpt lat="9.4287353" lon="-75.6118529"><ele>2.0</ele><time>2026-04-18T13:38:16.684Z</time></trkpt><trkpt lat="9.4288108" lon="-75.6118423"><ele>1.9999999999999998</ele><time>2026-04-18T13:38:17.686Z</time></trkpt><trkpt lat="9.4288889" lon="-75.6118297"><ele>2.0</ele><time>2026-04-18T13:38:18.684Z</time></trkpt><trkpt lat="9.4289665" lon="-75.6118196"><ele>2.0</ele><time>2026-04-18T13:38:19.686Z</time></trkpt><trkpt lat="9.4290449" lon="-75.6118079"><ele>2.0</ele><time>2026-04-18T13:38:20.686Z</time></trkpt><trkpt lat="9.4291227" lon="-75.6117966"><ele>1.9999999999999998</ele><time>2026-04-18T13:38:21.685Z</time></trkpt><trkpt lat="9.4292004" lon="-75.6117833"><ele>2.0</ele><time>2026-04-18T13:38:22.683Z</time></trkpt><trkpt lat="9.4292774" lon="-75.611774"><ele>1.9999999999999998</ele><time>2026-04-18T13:38:23.688Z</time></trkpt><trkpt lat="9.4293546" lon="-75.6117622"><ele>2.0</ele><time>2026-04-18T13:38:24.685Z</time></trkpt><trkpt lat="9.4294334" lon="-75.6117528"><ele>2.0</ele><time>2026-04-18T13:38:25.684Z</time></trkpt><trkpt lat="9.4295108" lon="-75.6117452"><ele>2.0</ele><time>2026-04-18T13:38:26.688Z</time></trkpt><trkpt lat="9.4295897" lon="-75.6117337"><ele>1.9999999999999998</ele><time>2026-04-18T13:38:27.685Z</time></trkpt><trkpt lat="9.4296685" lon="-75.6117225"><ele>2.0</ele><time>2026-04-18T13:38:28.685Z</time></trkpt><trkpt lat="9.4297581" lon="-75.6117155"><ele>2.1666666666666665</ele><time>2026-04-18T13:38:29.687Z</time></trkpt><trkpt lat="9.4298387" lon="-75.6117055"><ele>2.333333333333333</ele><time>2026-04-18T13:38:30.686Z</time></trkpt><trkpt lat="9.4299215" lon="-75.6116939"><ele>2.5</ele><time>2026-04-18T13:38:31.687Z</time></trkpt><trkpt lat="9.4300034" lon="-75.6116842"><ele>2.6666666666666665</ele><time>2026-04-18T13:38:32.69Z</time></trkpt><trkpt lat="9.4300854" lon="-75.6116715"><ele>2.8333333333333335</ele><time>2026-04-18T13:38:33.683Z</time></trkpt><trkpt lat="9.4301664" lon="-75.6116565"><ele>3.0</ele><time>2026-04-18T13:38:34.684Z</time></trkpt><trkpt lat="9.4302469" lon="-75.6116438"><ele>3.0</ele><time>2026-04-18T13:38:35.686Z</time></trkpt><trkpt lat="9.4303334" lon="-75.611631"><ele>3.0</ele><time>2026-04-18T13:38:36.688Z</time></trkpt><trkpt lat="9.4304188" lon="-75.6116234"><ele>3.0</ele><time>2026-04-18T13:38:37.689Z</time></trkpt><trkpt lat="9.4305011" lon="-75.6116155"><ele>3.0</ele><time>2026-04-18T13:38:38.683Z</time></trkpt><trkpt lat="9.430585" lon="-75.6116023"><ele>3.0</ele><time>2026-04-18T13:38:39.686Z</time></trkpt><trkpt lat="9.4306651" lon="-75.6115923"><ele>3.0</ele><time>2026-04-18T13:38:40.687Z</time></trkpt><trkpt lat="9.4064255" lon="-75.6145199"><ele>3.0</ele><time>2026-04-18T13:33:41.685Z</time></trkpt><trkpt lat="9.4065042" lon="-75.6145069"><ele>3.0</ele><time>2026-04-18T13:33:42.682Z</time></trkpt><trkpt lat="9.4065801" lon="-75.6144987"><ele>3.0</ele><time>2026-04-18T13:33:43.688Z</time></trkpt><trkpt lat="9.4066574" lon="-75.614489"><ele>3.0</ele><time>2026-04-18T13:33:44.687Z</time></trkpt><trkpt lat="9.406735" lon="-75.6144813"><ele>3.0</ele><time>2026-04-18T13:33:45.688Z</time></trkpt><trkpt lat="9.4068135" lon="-75.61447"><ele>3.0</ele><time>2026-04-18T13:33:46.684Z</time></trkpt><trkpt lat="9.4068918" lon="-75.6144628"><ele>3.0</ele><time>2026-04-18T13:33:47.686Z</time></trkpt><trkpt lat="9.4069675" lon="-75.614456"><ele>3.0</ele><time>2026-04-18T13:33:48.695Z</time></trkpt><trkpt lat="9.407045" lon="-75.6144427"><ele>3.0</ele><time>2026-04-18T13:33:49.688Z</time></trkpt><trkpt lat="9.4071206" lon="-75.6144314"><ele>3.0</ele><time>2026-04-18T13:33:50.686Z</time></trkpt><trkpt lat="9.4071987" lon="-75.6144193"><ele>3.0</ele><time>2026-04-18T13:33:51.687Z</time></trkpt><trkpt lat="9.4072775" lon="-75.6144103"><ele>3.0</ele><time>2026-04-18T13:33:52.688Z</time></trkpt><trkpt lat="9.4073541" lon="-75.6144"><ele>3.1666666666666665</ele><time>2026-04-18T13:33:53.685Z</time></trkpt><trkpt lat="9.4074305" lon="-75.614385"><ele>3.333333333333333</ele><time>2026-04-18T13:33:54.681Z</time></trkpt><trkpt lat="9.4075084" lon="-75.6143736"><ele>3.5</ele><time>2026-04-18T13:33:55.689Z</time></trkpt><trkpt lat="9.4075882" lon="-75.6143661"><ele>3.6666666666666665</ele><time>2026-04-18T13:33:56.684Z</time></trkpt><trkpt lat="9.4076656" lon="-75.6143542"><ele>3.833333333333333</ele><time>2026-04-18T13:33:57.683Z</time></trkpt><trkpt lat="9.4077413" lon="-75.6143456"><ele>4.0</ele><time>2026-04-18T13:33:58.683Z</time></trkpt><trkpt lat="9.4078169" lon="-75.6143361"><ele>3.9999999999999996</ele><time>2026-04-18T13:33:59.686Z</time></trkpt><trkpt lat="9.4078968" lon="-75.6143288"><ele>4.0</ele><time>2026-04-18T13:34:00.69Z</time></trkpt><trkpt lat="9.4079726" lon="-75.6143196"><ele>4.0</ele><time>2026-04-18T13:34:01.685Z</time></trkpt><trkpt lat="9.4080504" lon="-75.6143121"><ele>4.0</ele><time>2026-04-18T13:34:02.685Z</time></trkpt><trkpt lat="9.4081266" lon="-75.614304"><ele>3.9999999999999996</ele><time>2026-04-18T13:34:03.686Z</time></trkpt><trkpt lat="9.4082026" lon="-75.6143"><ele>4.0</ele><time>2026-04-18T13:34:04.685Z</time></trkpt><trkpt lat="9.4082788" lon="-75.6142876"><ele>3.4999999999999996</ele><time>2026-04-18T13:34:05.685Z</time></trkpt><trkpt lat="9.4083552" lon="-75.6142764"><ele>3.0</ele><time>2026-04-18T13:34:06.688Z</time></trkpt><trkpt lat="9.4084345" lon="-75.6142638"><ele>2.5</ele><time>2026-04-18T13:34:07.689Z</time></trkpt><trkpt lat="9.4085095" lon="-75.6142572"><ele>2.0</ele><time>2026-04-18T13:34:08.688Z</time></trkpt><trkpt lat="9.4085913" lon="-75.6142435"><ele>1.5</ele><time>2026-04-18T13:34:09.688Z</time></trkpt><trkpt lat="9.4086721" lon="-75.6142339"><ele>1.0</ele><time>2026-04-18T13:34:10.688Z</time></trkpt><trkpt lat="9.4087453" lon="-75.6142247"><ele>0.9999999999999999</ele><time>2026-04-18T13:34:11.687Z</time></trkpt><trkpt lat="9.4088214" lon="-75.6142151"><ele>1.0</ele><time>2026-04-18T13:34:12.688Z</time></trkpt><trkpt lat="9.4088969" lon="-75.6142081"><ele>1.0</ele><time>2026-04-18T13:34:13.693Z</time></trkpt><trkpt lat="9.4089702" lon="-75.6141946"><ele>1.0</ele><time>2026-04-18T13:34:14.682Z</time></trkpt><trkpt lat="9.4090436" lon="-75.6141841"><ele>0.9999999999999999</ele><time>2026-04-18T13:34:15.685Z</time></trkpt><trkpt lat="9.4091168" lon="-75.6141724"><ele>1.0</ele><time>2026-04-18T13:34:16.688Z</time></trkpt><trkpt lat="9.409194" lon="-75.614166"><ele>0.8333333333333333</ele><time>2026-04-18T13:34:17.689Z</time></trkpt><trkpt lat="9.4092747" lon="-75.6141541"><ele>0.6666666666666666</ele><time>2026-04-18T13:34:18.687Z</time></trkpt><trkpt lat="9.409354" lon="-75.6141455"><ele>0.5</ele><time>2026-04-18T13:34:19.684Z</time></trkpt><trkpt lat="9.409436" lon="-75.6141338"><ele>0.3333333333333333</ele><time>2026-04-18T13:34:20.685Z</time></trkpt><trkpt lat="9.4095212" lon="-75.6141219"><ele>0.16666666666666666</ele><time>2026-04-18T13:34:21.69Z</time></trkpt><trkpt lat="9.4096062" lon="-75.614113"><ele>0.0</ele><time>2026-04-18T13:34:22.693Z</time></trkpt><trkpt lat="9.4096919" lon="-75.6141007"><ele>0.0</ele><time>2026-04-18T13:34:23.688Z</time></trkpt><trkpt lat="9.4097778" lon="-75.6140857"><ele>0.0</ele><time>2026-04-18T13:34:24.687Z</time></trkpt><trkpt lat="9.4098671" lon="-75.6140764"><ele>0.0</ele><time>2026-04-18T13:34:25.692Z</time></trkpt><trkpt lat="9.4099522" lon="-75.6140661"><ele>0.0</ele><time>2026-04-18T13:34:26.691Z</time></trkpt><trkpt lat="9.4100373" lon="-75.614055"><ele>0.0</ele><time>2026-04-18T13:34:27.687Z</time></trkpt><trkpt lat="9.4101217" lon="-75.614047"><ele>0.0</ele><time>2026-04-18T13:34:28.685Z</time></trkpt><trkpt lat="9.4102077" lon="-75.6140371"><ele>0.0</ele><time>2026-04-18T13:34:29.687Z</time></trkpt><trkpt lat="9.4102905" lon="-75.6140221"><ele>0.0</ele><time>2026-04-18T13:34:30.687Z</time></trkpt><trkpt lat="9.4103745" lon="-75.6140058"><ele>0.0</ele><time>2026-04-18T13:34:31.686Z</time></trkpt><trkpt lat="9.4104526" lon="-75.613997"><ele>0.0</ele><time>2026-04-18T13:34:32.684Z</time></trkpt><trkpt lat="9.4105301" lon="-75.6139854"><ele>0.0</ele><time>2026-04-18T13:34:33.685Z</time></trkpt><trkpt lat="9.4106092" lon="-75.6139766"><ele>0.0</ele><time>2026-04-18T13:34:34.685Z</time></trkpt><trkpt lat="9.4106889" lon="-75.613969"><ele>0.16666666666666666</ele><time>2026-04-18T13:34:35.69Z</time></trkpt><trkpt lat="9.4107716" lon="-75.6139574"><ele>0.3333333333333333</ele><time>2026-04-18T13:34:36.69Z</time></trkpt><trkpt lat="9.4108538" lon="-75.6139437"><ele>0.5</ele><time>2026-04-18T13:34:37.692Z</time></trkpt><trkpt lat="9.4109385" lon="-75.61393"><ele>0.6666666666666666</ele><time>2026-04-18T13:34:38.688Z</time></trkpt><trkpt lat="9.411026" lon="-75.6139166"><ele>0.8333333333333333</ele><time>2026-04-18T13:34:39.687Z</time></trkpt><trkpt lat="9.4111126" lon="-75.6139097"><ele>1.0</ele><time>2026-04-18T13:34:40.691Z</time></trkpt><trkpt lat="9.4112004" lon="-75.6138968"><ele>0.9999999999999999</ele><time>2026-04-18T13:34:41.691Z</time></trkpt><trkpt lat="9.4112854" lon="-75.6138815"><ele>1.0</ele><time>2026-04-18T13:34:42.691Z</time></trkpt><trkpt lat="9.4113753" lon="-75.6138722"><ele>1.0</ele><time>2026-04-18T13:34:43.691Z</time></trkpt><trkpt lat="9.4114594" lon="-75.6138611"><ele>1.0</ele><time>2026-04-18T13:34:44.687Z</time></trkpt><trkpt lat="9.4115498" lon="-75.613848"><ele>0.9999999999999999</ele><time>2026-04-18T13:34:45.688Z</time></trkpt><trkpt lat="9.4116395" lon="-75.6138329"><ele>1.0</ele><time>2026-04-18T13:34:46.689Z</time></trkpt><trkpt lat="9.4117306" lon="-75.6138199"><ele>0.8333333333333333</ele><time>2026-04-18T13:34:47.688Z</time></trkpt><trkpt lat="9.41182" lon="-75.613807"><ele>0.6666666666666666</ele><time>2026-04-18T13:34:48.688Z</time></trkpt><trkpt lat="9.4119056" lon="-75.6137942"><ele>0.5</ele><time>2026-04-18T13:34:49.688Z</time></trkpt><trkpt lat="9.4119941" lon="-75.613781"><ele>0.3333333333333333</ele><time>2026-04-18T13:34:50.688Z</time></trkpt><trkpt lat="9.4120842" lon="-75.6137688"><ele>0.16666666666666666</ele><time>2026-04-18T13:34:51.685Z</time></trkpt><trkpt lat="9.412175" lon="-75.6137582"><ele>0.0</ele><time>2026-04-18T13:34:52.685Z</time></trkpt><trkpt lat="9.4122659" lon="-75.6137498"><ele>0.5</ele><time>2026-04-18T13:34:53.69Z</time></trkpt><trkpt lat="9.4123511" lon="-75.6137395"><ele>1.0</ele><time>2026-04-18T13:34:54.687Z</time></trkpt><trkpt lat="9.412437" lon="-75.6137307"><ele>1.5</ele><time>2026-04-18T13:34:55.689Z</time></trkpt><trkpt lat="9.4125203" lon="-75.6137232"><ele>2.0</ele><time>2026-04-18T13:34:56.691Z</time></trkpt><trkpt lat="9.4125997" lon="-75.6137109"><ele>2.5</ele><time>2026-04-18T13:34:57.686Z</time></trkpt><trkpt lat="9.412679" lon="-75.6137039"><ele>3.0</ele><time>2026-04-18T13:34:58.688Z</time></trkpt><trkpt lat="9.4127579" lon="-75.6136921"><ele>3.0</ele><time>2026-04-18T13:34:59.691Z</time></trkpt><trkpt lat="9.4128306" lon="-75.6136823"><ele>3.0</ele><time>2026-04-18T13:35:00.691Z</time></trkpt><trkpt lat="9.4129066" lon="-75.6136743"><ele>3.0</ele><time>2026-04-18T13:35:01.694Z</time></trkpt><trkpt lat="9.4129816" lon="-75.6136651"><ele>3.0</ele><time>2026-04-18T13:35:02.691Z</time></trkpt><trkpt lat="9.4130564" lon="-75.613653"><ele>3.0</ele><time>2026-04-18T13:35:03.689Z</time></trkpt><trkpt lat="9.4131336" lon="-75.6136436"><ele>3.0</ele><time>2026-04-18T13:35:04.689Z</time></trkpt><trkpt lat="9.4132063" lon="-75.6136376"><ele>2.8333333333333335</ele><time>2026-04-18T13:35:05.692Z</time></trkpt><trkpt lat="9.4132814" lon="-75.613628"><ele>2.6666666666666665</ele><time>2026-04-18T13:35:06.69Z</time></trkpt><trkpt lat="9.4133589" lon="-75.6136195"><ele>2.5</ele><time>2026-04-18T13:35:07.69Z</time></trkpt><trkpt lat="9.4134356" lon="-75.6136092"><ele>2.333333333333333</ele><time>2026-04-18T13:35:08.686Z</time></trkpt><trkpt lat="9.413513" lon="-75.6135981"><ele>2.1666666666666665</ele><time>2026-04-18T13:35:09.686Z</time></trkpt><trkpt lat="9.4135902" lon="-75.6135883"><ele>2.0</ele><time>2026-04-18T13:35:10.687Z</time></trkpt><trkpt lat="9.4136679" lon="-75.6135739"><ele>1.9999999999999998</ele><time>2026-04-18T13:35:11.689Z</time></trkpt><trkpt lat="9.4137464" lon="-75.6135645"><ele>2.0</ele><time>2026-04-18T13:35:12.687Z</time></trkpt><trkpt lat="9.4138262" lon="-75.6135537"><ele>2.0</ele><time>2026-04-18T13:35:13.689Z</time></trkpt><trkpt lat="9.4139054" lon="-75.6135444"><ele>2.0</ele><time>2026-04-18T13:35:14.687Z</time></trkpt><trkpt lat="9.4139872" lon="-75.6135361"><ele>1.9999999999999998</ele><time>2026-04-18T13:35:15.691Z</time></trkpt><trkpt lat="9.4140676" lon="-75.6135283"><ele>2.0</ele><time>2026-04-18T13:35:16.684Z</time></trkpt><trkpt lat="9.4141486" lon="-75.6135181"><ele>1.8333333333333333</ele><time>2026-04-18T13:35:17.685Z</time></trkpt><trkpt lat="9.414228" lon="-75.6135048"><ele>1.6666666666666665</ele><time>2026-04-18T13:35:18.689Z</time></trkpt><trkpt lat="9.4143099" lon="-75.6134963"><ele>1.5</ele><time>2026-04-18T13:35:19.686Z</time></trkpt><trkpt lat="9.41439" lon="-75.6134864"><ele>1.3333333333333333</ele><time>2026-04-18T13:35:20.69Z</time></trkpt><trkpt lat="9.4144709" lon="-75.6134757"><ele>1.1666666666666665</ele><time>2026-04-18T13:35:21.688Z</time></trkpt><trkpt lat="9.4145495" lon="-75.6134658"><ele>1.0</ele><time>2026-04-18T13:35:22.69Z</time></trkpt><trkpt lat="9.4146304" lon="-75.6134545"><ele>1.1666666666666665</ele><time>2026-04-18T13:35:23.687Z</time></trkpt><trkpt lat="9.4147084" lon="-75.6134436"><ele>1.3333333333333333</ele><time>2026-04-18T13:35:24.685Z</time></trkpt><trkpt lat="9.414787" lon="-75.6134344"><ele>1.5</ele><time>2026-04-18T13:35:25.689Z</time></trkpt><trkpt lat="9.4148616" lon="-75.6134242"><ele>1.6666666666666665</ele><time>2026-04-18T13:35:26.686Z</time></trkpt><trkpt lat="9.414936" lon="-75.6134111"><ele>1.8333333333333333</ele><time>2026-04-18T13:35:27.686Z</time></trkpt><trkpt lat="9.4150137" lon="-75.6133969"><ele>2.0</ele><time>2026-04-18T13:35:28.687Z</time></trkpt><trkpt lat="9.4150928" lon="-75.6133858"><ele>1.9999999999999998</ele><time>2026-04-18T13:35:29.688Z</time></trkpt><trkpt lat="9.4151693" lon="-75.6133702"><ele>2.0</ele><time>2026-04-18T13:35:30.686Z</time></trkpt><trkpt lat="9.4152457" lon="-75.6133577"><ele>2.0</ele><time>2026-04-18T13:35:31.685Z</time></trkpt><trkpt lat="9.4153214" lon="-75.6133445"><ele>2.0</ele><time>2026-04-18T13:35:32.688Z</time></trkpt><trkpt lat="9.4153973" lon="-75.6133304"><ele>1.9999999999999998</ele><time>2026-04-18T13:35:33.686Z</time></trkpt><trkpt lat="9.4154722" lon="-75.6133142"><ele>2.0</ele><time>2026-04-18T13:35:34.688Z</time></trkpt><trkpt lat="9.4155534" lon="-75.6133014"><ele>1.9999999999999998</ele><time>2026-04-18T13:35:35.693Z</time></trkpt><trkpt lat="9.4156301" lon="-75.6132861"><ele>2.0</ele><time>2026-04-18T13:35:36.686Z</time></trkpt><trkpt lat="9.4157043" lon="-75.6132682"><ele>2.0</ele><time>2026-04-18T13:35:37.687Z</time></trkpt><trkpt lat="9.4157815" lon="-75.6132469"><ele>2.0</ele><time>2026-04-18T13:35:38.684Z</time></trkpt><trkpt lat="9.4158598" lon="-75.6132275"><ele>1.9999999999999998</ele><time>2026-04-18T13:35:39.689Z</time></trkpt><trkpt lat="9.4159371" lon="-75.6132093"><ele>2.0</ele><time>2026-04-18T13:35:40.685Z</time></trkpt><trkpt lat="9.4160092" lon="-75.6131882"><ele>1.9999999999999998</ele><time>2026-04-18T13:35:41.685Z</time></trkpt><trkpt lat="9.4160887" lon="-75.6131696"><ele>2.0</ele><time>2026-04-18T13:35:42.691Z</time></trkpt><trkpt lat="9.4161663" lon="-75.61315"><ele>2.0</ele><time>2026-04-18T13:35:43.691Z</time></trkpt><trkpt lat="9.416247" lon="-75.6131298"><ele>2.0</ele><time>2026-04-18T13:35:44.688Z</time></trkpt><trkpt lat="9.4163271" lon="-75.6131075"><ele>1.9999999999999998</ele><time>2026-04-18T13:35:45.691Z</time></trkpt><trkpt lat="9.4164073" lon="-75.6130856"><ele>2.0</ele><time>2026-04-18T13:35:46.688Z</time></trkpt><trkpt lat="9.4164853" lon="-75.6130656"><ele>2.1666666666666665</ele><time>2026-04-18T13:35:47.69Z</time></trkpt><trkpt lat="9.4165651" lon="-75.6130431"><ele>2.333333333333333</ele><time>2026-04-18T13:35:48.692Z</time></trkpt><trkpt lat="9.4166459" lon="-75.6130199"><ele>2.5</ele><time>2026-04-18T13:35:49.689Z</time></trkpt><trkpt lat="9.4167218" lon="-75.612998"><ele>2.6666666666666665</ele><time>2026-04-18T13:35:50.688Z</time></trkpt><trkpt lat="9.4168038" lon="-75.6129763"><ele>2.8333333333333335</ele><time>2026-04-18T13:35:51.691Z</time></trkpt><trkpt lat="9.4168829" lon="-75.6129503"><ele>3.0</ele><time>2026-04-18T13:35:52.687Z</time></trkpt><trkpt lat="9.4169635" lon="-75.6129297"><ele>3.0</ele><time>2026-04-18T13:35:53.688Z</time></trkpt><trkpt lat="9.4170456" lon="-75.6129092"><ele>3.0</ele><time>2026-04-18T13:35:54.689Z</time></trkpt><trkpt lat="9.4171228" lon="-75.6128842"><ele>3.0</ele><time>2026-04-18T13:35:55.682Z</time></trkpt><trkpt lat="9.417204" lon="-75.6128601"><ele>3.0</ele><time>2026-04-18T13:35:56.694Z</time></trkpt><trkpt lat="9.4172796" lon="-75.6128367"><ele>3.0</ele><time>2026-04-18T13:35:57.691Z</time></trkpt><trkpt lat="9.4173569" lon="-75.6128147"><ele>3.0</ele><time>2026-04-18T13:35:58.69Z</time></trkpt><trkpt lat="9.4174349" lon="-75.6127856"><ele>2.0</ele><time>2026-04-18T13:35:59.693Z</time></trkpt><trkpt lat="9.4175162" lon="-75.6127648"><ele>1.0</ele><time>2026-04-18T13:36:00.692Z</time></trkpt><trkpt lat="9.4175952" lon="-75.612744"><ele>0.0</ele><time>2026-04-18T13:36:01.69Z</time></trkpt><trkpt lat="9.4176725" lon="-75.6127212"><ele>-1.0</ele><time>2026-04-18T13:36:02.689Z</time></trkpt><trkpt lat="9.4177532" lon="-75.6126974"><ele>-2.0</ele><time>2026-04-18T13:36:03.688Z</time></trkpt><trkpt lat="9.4178309" lon="-75.612675"><ele>-3.0</ele><time>2026-04-18T13:36:04.686Z</time></trkpt><trkpt lat="9.417915" lon="-75.6126532"><ele>-2.5</ele><time>2026-04-18T13:36:05.69Z</time></trkpt><trkpt lat="9.4179938" lon="-75.6126285"><ele>-2.0</ele><time>2026-04-18T13:36:06.688Z</time></trkpt><trkpt lat="9.4180757" lon="-75.612609"><ele>-1.5</ele><time>2026-04-18T13:36:07.687Z</time></trkpt><trkpt lat="9.4181518" lon="-75.6125855"><ele>-1.0</ele><time>2026-04-18T13:36:08.687Z</time></trkpt><trkpt lat="9.4182313" lon="-75.6125603"><ele>-0.5</ele><time>2026-04-18T13:36:09.686Z</time></trkpt><trkpt lat="9.4183047" lon="-75.612541"><ele>0.0</ele><time>2026-04-18T13:36:10.688Z</time></trkpt><trkpt lat="9.4183826" lon="-75.6125192"><ele>0.0</ele><time>2026-04-18T13:36:11.69Z</time></trkpt><trkpt lat="9.4184621" lon="-75.6124968"><ele>0.0</ele><time>2026-04-18T13:36:12.687Z</time></trkpt><trkpt lat="9.418538" lon="-75.6124781"><ele>0.0</ele><time>2026-04-18T13:36:13.688Z</time></trkpt><trkpt lat="9.4186093" lon="-75.6124569"><ele>0.0</ele><time>2026-04-18T13:36:14.686Z</time></trkpt><trkpt lat="9.4186829" lon="-75.612434"><ele>0.0</ele><time>2026-04-18T13:36:15.687Z</time></trkpt><trkpt lat="9.4187549" lon="-75.6124102"><ele>0.0</ele><time>2026-04-18T13:36:16.686Z</time></trkpt><trkpt lat="9.4188262" lon="-75.6123875"><ele>0.6666666666666666</ele><time>2026-04-18T13:36:17.69Z</time></trkpt><trkpt lat="9.4189081" lon="-75.6123649"><ele>1.3333333333333333</ele><time>2026-04-18T13:36:18.693Z</time></trkpt><trkpt lat="9.4189887" lon="-75.6123388"><ele>2.0</ele><time>2026-04-18T13:36:19.691Z</time></trkpt><trkpt lat="9.4190655" lon="-75.6123181"><ele>2.6666666666666665</ele><time>2026-04-18T13:36:20.687Z</time></trkpt><trkpt lat="9.4191464" lon="-75.612298"><ele>3.333333333333333</ele><time>2026-04-18T13:36:21.689Z</time></trkpt><trkpt lat="9.4192301" lon="-75.6122713"><ele>4.0</ele><time>2026-04-18T13:36:22.692Z</time></trkpt><trkpt lat="9.4193081" lon="-75.6122475"><ele>3.9999999999999996</ele><time>2026-04-18T13:36:23.688Z</time></trkpt><trkpt lat="9.4193862" lon="-75.6122247"><ele>4.0</ele><time>2026-04-18T13:36:24.685Z</time></trkpt><trkpt lat="9.419468" lon="-75.612202"><ele>4.0</ele><time>2026-04-18T13:36:25.689Z</time></trkpt><trkpt lat="9.4195529" lon="-75.6121771"><ele>4.0</ele><time>2026-04-18T13:36:26.688Z</time></trkpt><trkpt lat="9.4196356" lon="-75.6121525"><ele>3.9999999999999996</ele><time>2026-04-18T13:36:27.689Z</time></trkpt><trkpt lat="9.4197196" lon="-75.6121274"><ele>4.0</ele><time>2026-04-18T13:36:28.691Z</time></trkpt><trkpt lat="9.4198056" lon="-75.6121042"><ele>3.9999999999999996</ele><time>2026-04-18T13:36:29.689Z</time></trkpt><trkpt lat="9.4198867" lon="-75.612085"><ele>4.0</ele><time>2026-04-18T13:36:30.684Z</time></trkpt><trkpt lat="9.41997" lon="-75.6120632"><ele>4.0</ele><time>2026-04-18T13:36:31.683Z</time></trkpt><trkpt lat="9.4200485" lon="-75.6120382"><ele>4.0</ele><time>2026-04-18T13:36:32.69Z</time></trkpt><trkpt lat="9.4201294" lon="-75.6120169"><ele>3.9999999999999996</ele><time>2026-04-18T13:36:33.684Z</time></trkpt><trkpt lat="9.4202116" lon="-75.6119946"><ele>4.0</ele><time>2026-04-18T13:36:34.685Z</time></trkpt><trkpt lat="9.4202973" lon="-75.611967"><ele>3.9999999999999996</ele><time>2026-04-18T13:36:35.692Z</time></trkpt><trkpt lat="9.4203798" lon="-75.6119435"><ele>4.0</ele><time>2026-04-18T13:36:36.688Z</time></trkpt><trkpt lat="9.4204633" lon="-75.6119211"><ele>4.0</ele><time>2026-04-18T13:36:37.691Z</time></trkpt><trkpt lat="9.4205434" lon="-75.611892"><ele>4.0</ele><time>2026-04-18T13:36:38.689Z</time></trkpt><trkpt lat="9.4206236" lon="-75.6118685"><ele>3.9999999999999996</ele><time>2026-04-18T13:36:39.689Z</time></trkpt><trkpt lat="9.4207032" lon="-75.6118435"><ele>4.0</ele><time>2026-04-18T13:36:40.689Z</time></trkpt><trkpt lat="9.4207846" lon="-75.6118195"><ele>3.333333333333333</ele><time>2026-04-18T13:36:41.686Z</time></trkpt><trkpt lat="9.4208642" lon="-75.6117968"><ele>2.6666666666666665</ele><time>2026-04-18T13:36:42.689Z</time></trkpt><trkpt lat="9.4209455" lon="-75.6117737"><ele>2.0</ele><time>2026-04-18T13:36:43.69Z</time></trkpt><trkpt lat="9.4210259" lon="-75.6117528"><ele>1.3333333333333333</ele><time>2026-04-18T13:36:44.686Z</time></trkpt><trkpt lat="9.4211044" lon="-75.6117322"><ele>0.6666666666666666</ele><time>2026-04-18T13:36:45.689Z</time></trkpt><trkpt lat="9.4211863" lon="-75.6117061"><ele>0.0</ele><time>2026-04-18T13:36:46.688Z</time></trkpt><trkpt lat="9.4212668" lon="-75.6116806"><ele>0.16666666666666666</ele><time>2026-04-18T13:36:47.686Z</time></trkpt><trkpt lat="9.4213454" lon="-75.6116593"><ele>0.3333333333333333</ele><time>2026-04-18T13:36:48.687Z</time></trkpt><trkpt lat="9.4214273" lon="-75.6116373"><ele>0.5</ele><time>2026-04-18T13:36:49.686Z</time></trkpt><trkpt lat="9.4215091" lon="-75.6116145"><ele>0.6666666666666666</ele><time>2026-04-18T13:36:50.689Z</time></trkpt><trkpt lat="9.4215908" lon="-75.6115936"><ele>0.8333333333333333</ele><time>2026-04-18T13:36:51.689Z</time></trkpt><trkpt lat="9.4216727" lon="-75.6115766"><ele>1.0</ele><time>2026-04-18T13:36:52.687Z</time></trkpt><trkpt lat="9.4217523" lon="-75.6115575"><ele>0.9999999999999999</ele><time>2026-04-18T13:36:53.686Z</time></trkpt><trkpt lat="9.4218321" lon="-75.6115435"><ele>1.0</ele><time>2026-04-18T13:36:54.687Z</time></trkpt><trkpt lat="9.4219134" lon="-75.6115309"><ele>1.0</ele><time>2026-04-18T13:36:55.69Z</time></trkpt><trkpt lat="9.4219958" lon="-75.6115147"><ele>1.0</ele><time>2026-04-18T13:36:56.684Z</time></trkpt><trkpt lat="9.4220801" lon="-75.6115089"><ele>0.9999999999999999</ele><time>2026-04-18T13:36:57.687Z</time></trkpt><trkpt lat="9.4221634" lon="-75.611497"><ele>1.0</ele><time>2026-04-18T13:36:58.689Z</time></trkpt><trkpt lat="9.4222475" lon="-75.6114916"><ele>1.3333333333333333</ele><time>2026-04-18T13:36:59.694Z</time></trkpt><trkpt lat="9.4223312" lon="-75.6114868"><ele>1.6666666666666665</ele><time>2026-04-18T13:37:00.691Z</time></trkpt><trkpt lat="9.4224178" lon="-75.6114831"><ele>2.0</ele><time>2026-04-18T13:37:01.69Z</time></trkpt><trkpt lat="9.4225024" lon="-75.611478"><ele>2.3333333333333335</ele><time>2026-04-18T13:37:02.691Z</time></trkpt><trkpt lat="9.4225898" lon="-75.6114767"><ele>2.6666666666666665</ele><time>2026-04-18T13:37:03.691Z</time></trkpt><trkpt lat="9.4226802" lon="-75.6114822"><ele>3.0</ele><time>2026-04-18T13:37:04.685Z</time></trkpt><trkpt lat="9.422771" lon="-75.6114859"><ele>3.0</ele><time>2026-04-18T13:37:05.693Z</time></trkpt><trkpt lat="9.4228591" lon="-75.6114884"><ele>3.0</ele><time>2026-04-18T13:37:06.688Z</time></trkpt><trkpt lat="9.4229513" lon="-75.6114938"><ele>3.0</ele><time>2026-04-18T13:37:07.685Z</time></trkpt><trkpt lat="9.4230383" lon="-75.6114985"><ele>3.0</ele><time>2026-04-18T13:37:08.688Z</time></trkpt><trkpt lat="9.4231303" lon="-75.6115038"><ele>3.0</ele><time>2026-04-18T13:37:09.69Z</time></trkpt><trkpt lat="9.4232179" lon="-75.6115161"><ele>3.0</ele><time>2026-04-18T13:37:10.686Z</time></trkpt><trkpt lat="9.4233063" lon="-75.6115221"><ele>2.8333333333333335</ele><time>2026-04-18T13:37:11.684Z</time></trkpt><trkpt lat="9.4233971" lon="-75.6115275"><ele>2.6666666666666665</ele><time>2026-04-18T13:37:12.686Z</time></trkpt><trkpt lat="9.4234865" lon="-75.6115366"><ele>2.5</ele><time>2026-04-18T13:37:13.692Z</time></trkpt><trkpt lat="9.4235767" lon="-75.6115444"><ele>2.333333333333333</ele><time>2026-04-18T13:37:14.685Z</time></trkpt><trkpt lat="9.4236647" lon="-75.6115508"><ele>2.1666666666666665</ele><time>2026-04-18T13:37:15.685Z</time></trkpt><trkpt lat="9.4237473" lon="-75.6115596"><ele>2.0</ele><time>2026-04-18T13:37:16.687Z</time></trkpt><trkpt lat="9.4238321" lon="-75.6115676"><ele>1.9999999999999998</ele><time>2026-04-18T13:37:17.686Z</time></trkpt><trkpt lat="9.4239132" lon="-75.6115767"><ele>2.0</ele><time>2026-04-18T13:37:18.686Z</time></trkpt><trkpt lat="9.4239987" lon="-75.6115871"><ele>2.0</ele><time>2026-04-18T13:37:19.685Z</time></trkpt><trkpt lat="9.4240875" lon="-75.6115918"><ele>2.0</ele><time>2026-04-18T13:37:20.689Z</time></trkpt><trkpt lat="9.4241736" lon="-75.6115973"><ele>1.9999999999999998</ele><time>2026-04-18T13:37:21.683Z</time></trkpt><trkpt lat="9.4242622" lon="-75.6116037"><ele>2.0</ele><time>2026-04-18T13:37:22.682Z</time></trkpt><trkpt lat="9.4243459" lon="-75.6116124"><ele>1.9999999999999998</ele><time>2026-04-18T13:37:23.684Z</time></trkpt><trkpt lat="9.4244293" lon="-75.6116192"><ele>2.0</ele><time>2026-04-18T13:37:24.687Z</time></trkpt><trkpt lat="9.4245144" lon="-75.6116255"><ele>2.0</ele><time>2026-04-18T13:37:25.687Z</time></trkpt><trkpt lat="9.4245975" lon="-75.6116334"><ele>2.0</ele><time>2026-04-18T13:37:26.683Z</time></trkpt><trkpt lat="9.4246815" lon="-75.6116415"><ele>1.9999999999999998</ele><time>2026-04-18T13:37:27.687Z</time></trkpt><trkpt lat="9.4247655" lon="-75.6116521"><ele>2.0</ele><time>2026-04-18T13:37:28.687Z</time></trkpt><trkpt lat="9.4248506" lon="-75.6116606"><ele>1.6666666666666665</ele><time>2026-04-18T13:37:29.686Z</time></trkpt><trkpt lat="9.4249378" lon="-75.6116689"><ele>1.3333333333333333</ele><time>2026-04-18T13:37:30.687Z</time></trkpt><trkpt lat="9.4250224" lon="-75.6116742"><ele>1.0</ele><time>2026-04-18T13:37:31.689Z</time></trkpt><trkpt lat="9.4251089" lon="-75.6116819"><ele>0.6666666666666666</ele><time>2026-04-18T13:37:32.692Z</time></trkpt><trkpt lat="9.4251958" lon="-75.6116907"><ele>0.3333333333333333</ele><time>2026-04-18T13:37:33.688Z</time></trkpt><trkpt lat="9.4252801" lon="-75.6117009"><ele>0.0</ele><time>2026-04-18T13:37:34.691Z</time></trkpt><trkpt lat="9.4253668" lon="-75.6117071"><ele>0.0</ele><time>2026-04-18T13:37:35.689Z</time></trkpt><trkpt lat="9.4254511" lon="-75.6117142"><ele>0.0</ele><time>2026-04-18T13:37:36.686Z</time></trkpt><trkpt lat="9.425534" lon="-75.6117224"><ele>0.0</ele><time>2026-04-18T13:37:37.69Z</time></trkpt><trkpt lat="9.4256201" lon="-75.6117284"><ele>0.0</ele><time>2026-04-18T13:37:38.688Z</time></trkpt><trkpt lat="9.4257052" lon="-75.6117342"><ele>0.0</ele><time>2026-04-18T13:37:39.689Z</time></trkpt><trkpt lat="9.4257902" lon="-75.6117429"><ele>0.0</ele><time>2026-04-18T13:37:40.685Z</time></trkpt><trkpt lat="9.4258768" lon="-75.6117532"><ele>0.16666666666666666</ele><time>2026-04-18T13:37:41.687Z</time></trkpt><trkpt lat="9.4259608" lon="-75.6117613"><ele>0.3333333333333333</ele><time>2026-04-18T13:37:42.685Z</time></trkpt><trkpt lat="9.4260441" lon="-75.6117699"><ele>0.5</ele><time>2026-04-18T13:37:43.688Z</time></trkpt><trkpt lat="9.426126" lon="-75.6117798"><ele>0.6666666666666666</ele><time>2026-04-18T13:37:44.689Z</time></trkpt><trkpt lat="9.4262074" lon="-75.6117881"><ele>0.8333333333333333</ele><time>2026-04-18T13:37:45.685Z</time></trkpt><trkpt lat="9.4262884" lon="-75.6117936"><ele>1.0</ele><time>2026-04-18T13:37:46.688Z</time></trkpt><trkpt lat="9.4263687" lon="-75.6117995"><ele>0.9999999999999999</ele><time>2026-04-18T13:37:47.693Z</time></trkpt><trkpt lat="9.4264502" lon="-75.6118067"><ele>1.0</ele><time>2026-04-18T13:37:48.689Z</time></trkpt><trkpt lat="9.4265341" lon="-75.6118107"><ele>1.0</ele><time>2026-04-18T13:37:49.686Z</time></trkpt><trkpt lat="9.4266209" lon="-75.6118185"><ele>1.0</ele><time>2026-04-18T13:37:50.683Z</time></trkpt><trkpt lat="9.426707" lon="-75.6118244"><ele>0.9999999999999999</ele><time>2026-04-18T13:37:51.686Z</time></trkpt><trkpt lat="9.4267901" lon="-75.6118333"><ele>1.0</ele><time>2026-04-18T13:37:52.687Z</time></trkpt><trkpt lat="9.4268752" lon="-75.611842"><ele>0.9999999999999999</ele><time>2026-04-18T13:37:53.688Z</time></trkpt><trkpt lat="9.4269575" lon="-75.6118493"><ele>1.0</ele><time>2026-04-18T13:37:54.686Z</time></trkpt><trkpt lat="9.4270436" lon="-75.6118559"><ele>1.0</ele><time>2026-04-18T13:37:55.686Z</time></trkpt><trkpt lat="9.4271281" lon="-75.6118602"><ele>1.0</ele><time>2026-04-18T13:37:56.686Z</time></trkpt><trkpt lat="9.4272068" lon="-75.6118667"><ele>0.9999999999999999</ele><time>2026-04-18T13:37:57.691Z</time></trkpt><trkpt lat="9.4272922" lon="-75.6118705"><ele>1.0</ele><time>2026-04-18T13:37:58.683Z</time></trkpt><trkpt lat="9.4273689" lon="-75.6118762"><ele>1.1666666666666665</ele><time>2026-04-18T13:37:59.686Z</time></trkpt><trkpt lat="9.427448" lon="-75.6118822"><ele>1.3333333333333333</ele><time>2026-04-18T13:38:00.683Z</time></trkpt><trkpt lat="9.4275309" lon="-75.6118879"><ele>1.5</ele><time>2026-04-18T13:38:01.686Z</time></trkpt><trkpt lat="9.4276109" lon="-75.6118925"><ele>1.6666666666666665</ele><time>2026-04-18T13:38:02.684Z</time></trkpt><trkpt lat="9.4276887" lon="-75.6118965"><ele>1.8333333333333333</ele><time>2026-04-18T13:38:03.685Z</time></trkpt><trkpt lat="9.427767" lon="-75.6118986"><ele>2.0</ele><time>2026-04-18T13:38:04.686Z</time></trkpt><trkpt lat="9.4278489" lon="-75.6118955"><ele>1.9999999999999998</ele><time>2026-04-18T13:38:05.687Z</time></trkpt><trkpt lat="9.427931" lon="-75.6118943"><ele>2.0</ele><time>2026-04-18T13:38:06.685Z</time></trkpt><trkpt lat="9.4280125" lon="-75.6118915"><ele>2.0</ele><time>2026-04-18T13:38:07.69Z</time></trkpt><trkpt lat="9.4280913" lon="-75.6118856"><ele>2.0</ele><time>2026-04-18T13:38:08.685Z</time></trkpt><trkpt lat="9.4281745" lon="-75.6118866"><ele>1.9999999999999998</ele><time>2026-04-18T13:38:09.687Z</time></trkpt><trkpt lat="9.4282574" lon="-75.6118863"><ele>2.0</ele><time>2026-04-18T13:38:10.687Z</time></trkpt><trkpt lat="9.4283376" lon="-75.6118785"><ele>1.9999999999999998</ele><time>2026-04-18T13:38:11.689Z</time></trkpt><trkpt lat="9.4284167" lon="-75.6118738"><ele>2.0</ele><time>2026-04-18T13:38:12.687Z</time></trkpt><trkpt lat="9.4284942" lon="-75.6118694"><ele>2.0</ele><time>2026-04-18T13:38:13.684Z</time></trkpt><trkpt lat="9.4285781" lon="-75.6118667"><ele>2.0</ele><time>2026-04-18T13:38:14.686Z</time></trkpt><trkpt lat="9.4286597" lon="-75.6118591"><ele>1.9999999999999998</ele><time>2026-04-18T13:38:15.692Z</time></trkpt><trkpt lat="9.4287353" lon="-75.6118529"><ele>2.0</ele><time>2026-04-18T13:38:16.684Z</time></trkpt><trkpt lat="9.4288108" lon="-75.6118423"><ele>1.9999999999999998</ele><time>2026-04-18T13:38:17.686Z</time></trkpt><trkpt lat="9.4288889" lon="-75.6118297"><ele>2.0</ele><time>2026-04-18T13:38:18.684Z</time></trkpt><trkpt lat="9.4289665" lon="-75.6118196"><ele>2.0</ele><time>2026-04-18T13:38:19.686Z</time></trkpt><trkpt lat="9.4290449" lon="-75.6118079"><ele>2.0</ele><time>2026-04-18T13:38:20.686Z</time></trkpt><trkpt lat="9.4291227" lon="-75.6117966"><ele>1.9999999999999998</ele><time>2026-04-18T13:38:21.685Z</time></trkpt><trkpt lat="9.4292004" lon="-75.6117833"><ele>2.0</ele><time>2026-04-18T13:38:22.683Z</time></trkpt><trkpt lat="9.4292774" lon="-75.611774"><ele>1.9999999999999998</ele><time>2026-04-18T13:38:23.688Z</time></trkpt><trkpt lat="9.4293546" lon="-75.6117622"><ele>2.0</ele><time>2026-04-18T13:38:24.685Z</time></trkpt><trkpt lat="9.4294334" lon="-75.6117528"><ele>2.0</ele><time>2026-04-18T13:38:25.684Z</time></trkpt><trkpt lat="9.4295108" lon="-75.6117452"><ele>2.0</ele><time>2026-04-18T13:38:26.688Z</time></trkpt><trkpt lat="9.4295897" lon="-75.6117337"><ele>1.9999999999999998</ele><time>2026-04-18T13:38:27.685Z</time></trkpt><trkpt lat="9.4296685" lon="-75.6117225"><ele>2.0</ele><time>2026-04-18T13:38:28.685Z</time></trkpt><trkpt lat="9.4297581" lon="-75.6117155"><ele>2.1666666666666665</ele><time>2026-04-18T13:38:29.687Z</time></trkpt><trkpt lat="9.4298387" lon="-75.6117055"><ele>2.333333333333333</ele><time>2026-04-18T13:38:30.686Z</time></trkpt><trkpt lat="9.4299215" lon="-75.6116939"><ele>2.5</ele><time>2026-04-18T13:38:31.687Z</time></trkpt><trkpt lat="9.4300034" lon="-75.6116842"><ele>2.6666666666666665</ele><time>2026-04-18T13:38:32.69Z</time></trkpt><trkpt lat="9.4300854" lon="-75.6116715"><ele>2.8333333333333335</ele><time>2026-04-18T13:38:33.683Z</time></trkpt><trkpt lat="9.4301664" lon="-75.6116565"><ele>3.0</ele><time>2026-04-18T13:38:34.684Z</time></trkpt><trkpt lat="9.4302469" lon="-75.6116438"><ele>3.0</ele><time>2026-04-18T13:38:35.686Z</time></trkpt><trkpt lat="9.4303334" lon="-75.611631"><ele>3.0</ele><time>2026-04-18T13:38:36.688Z</time></trkpt><trkpt lat="9.4304188" lon="-75.6116234"><ele>3.0</ele><time>2026-04-18T13:38:37.689Z</time></trkpt><trkpt lat="9.4305011" lon="-75.6116155"><ele>3.0</ele><time>2026-04-18T13:38:38.683Z</time></trkpt><trkpt lat="9.430585" lon="-75.6116023"><ele>3.0</ele><time>2026-04-18T13:38:39.686Z</time></trkpt><trkpt lat="9.4306651" lon="-75.6115923"><ele>3.0</ele><time>2026-04-18T13:38:40.687Z</time></trkpt><trkpt lat="9.4307492" lon="-75.6115807"><ele>2.6666666666666665</ele><time>2026-04-18T13:38:41.686Z</time></trkpt><trkpt lat="9.4308291" lon="-75.61157"><ele>2.3333333333333335</ele><time>2026-04-18T13:38:42.682Z</time></trkpt><trkpt lat="9.4309172" lon="-75.6115599"><ele>2.0</ele><time>2026-04-18T13:38:43.686Z</time></trkpt><trkpt lat="9.4310004" lon="-75.6115471"><ele>1.6666666666666665</ele><time>2026-04-18T13:38:44.685Z</time></trkpt><trkpt lat="9.4310859" lon="-75.6115365"><ele>1.3333333333333333</ele><time>2026-04-18T13:38:45.686Z</time></trkpt><trkpt lat="9.4311671" lon="-75.6115247"><ele>1.0</ele><time>2026-04-18T13:38:46.685Z</time></trkpt><trkpt lat="9.4312487" lon="-75.6115122"><ele>0.9999999999999999</ele><time>2026-04-18T13:38:47.685Z</time></trkpt><trkpt lat="9.4313271" lon="-75.6114991"><ele>1.0</ele><time>2026-04-18T13:38:48.685Z</time></trkpt><trkpt lat="9.4314072" lon="-75.6114902"><ele>1.0</ele><time>2026-04-18T13:38:49.683Z</time></trkpt><trkpt lat="9.4314904" lon="-75.6114783"><ele>1.0</ele><time>2026-04-18T13:38:50.683Z</time></trkpt><trkpt lat="9.4315761" lon="-75.6114673"><ele>0.9999999999999999</ele><time>2026-04-18T13:38:51.685Z</time></trkpt><trkpt lat="9.4316544" lon="-75.6114529"><ele>1.0</ele><time>2026-04-18T13:38:52.69Z</time></trkpt><trkpt lat="9.4317352" lon="-75.6114439"><ele>0.9999999999999999</ele><time>2026-04-18T13:38:53.688Z</time></trkpt><trkpt lat="9.4318161" lon="-75.6114347"><ele>1.0</ele><time>2026-04-18T13:38:54.686Z</time></trkpt><trkpt lat="9.4318971" lon="-75.6114213"><ele>1.0</ele><time>2026-04-18T13:38:55.684Z</time></trkpt><trkpt lat="9.4319806" lon="-75.6114106"><ele>1.0</ele><time>2026-04-18T13:38:56.688Z</time></trkpt><trkpt lat="9.4320636" lon="-75.6114003"><ele>0.9999999999999999</ele><time>2026-04-18T13:38:57.683Z</time></trkpt><trkpt lat="9.4321446" lon="-75.6113912"><ele>1.0</ele><time>2026-04-18T13:38:58.682Z</time></trkpt><trkpt lat="9.4322278" lon="-75.6113867"><ele>0.9999999999999999</ele><time>2026-04-18T13:38:59.688Z</time></trkpt><trkpt lat="9.432309" lon="-75.611374"><ele>1.0</ele><time>2026-04-18T13:39:00.685Z</time></trkpt><trkpt lat="9.4323913" lon="-75.6113599"><ele>1.0</ele><time>2026-04-18T13:39:01.684Z</time></trkpt><trkpt lat="9.4324733" lon="-75.6113486"><ele>1.0</ele><time>2026-04-18T13:39:02.689Z</time></trkpt><trkpt lat="9.4325557" lon="-75.6113373"><ele>0.9999999999999999</ele><time>2026-04-18T13:39:03.686Z</time></trkpt><trkpt lat="9.4326366" lon="-75.6113255"><ele>1.0</ele><time>2026-04-18T13:39:04.685Z</time></trkpt><trkpt lat="9.4327212" lon="-75.6113132"><ele>0.9999999999999999</ele><time>2026-04-18T13:39:05.685Z</time></trkpt><trkpt lat="9.4328017" lon="-75.6113025"><ele>1.0</ele><time>2026-04-18T13:39:06.684Z</time></trkpt><trkpt lat="9.4328801" lon="-75.6112917"><ele>1.0</ele><time>2026-04-18T13:39:07.686Z</time></trkpt><trkpt lat="9.4329592" lon="-75.611281"><ele>1.0</ele><time>2026-04-18T13:39:08.687Z</time></trkpt><trkpt lat="9.4330383" lon="-75.6112694"><ele>0.9999999999999999</ele><time>2026-04-18T13:39:09.686Z</time></trkpt><trkpt lat="9.4331173" lon="-75.6112589"><ele>1.0</ele><time>2026-04-18T13:39:10.688Z</time></trkpt><trkpt lat="9.4331975" lon="-75.6112442"><ele>0.9999999999999999</ele><time>2026-04-18T13:39:11.686Z</time></trkpt><trkpt lat="9.433276" lon="-75.6112351"><ele>1.0</ele><time>2026-04-18T13:39:12.685Z</time></trkpt><trkpt lat="9.4333549" lon="-75.6112247"><ele>1.0</ele><time>2026-04-18T13:39:13.687Z</time></trkpt><trkpt lat="9.4334354" lon="-75.6112145"><ele>1.0</ele><time>2026-04-18T13:39:14.686Z</time></trkpt><trkpt lat="9.4335151" lon="-75.6112021"><ele>0.9999999999999999</ele><time>2026-04-18T13:39:15.681Z</time></trkpt><trkpt lat="9.4335972" lon="-75.611193"><ele>1.0</ele><time>2026-04-18T13:39:16.684Z</time></trkpt><trkpt lat="9.4336785" lon="-75.6111821"><ele>0.9999999999999999</ele><time>2026-04-18T13:39:17.686Z</time></trkpt><trkpt lat="9.4337569" lon="-75.6111678"><ele>1.0</ele><time>2026-04-18T13:39:18.689Z</time></trkpt><trkpt lat="9.4338387" lon="-75.6111561"><ele>1.0</ele><time>2026-04-18T13:39:19.686Z</time></trkpt><trkpt lat="9.43392" lon="-75.6111457"><ele>1.0</ele><time>2026-04-18T13:39:20.686Z</time></trkpt><trkpt lat="9.4340015" lon="-75.6111336"><ele>0.9999999999999999</ele><time>2026-04-18T13:39:21.687Z</time></trkpt><trkpt lat="9.434081" lon="-75.6111218"><ele>1.0</ele><time>2026-04-18T13:39:22.688Z</time></trkpt><trkpt lat="9.4341617" lon="-75.6111109"><ele>0.9999999999999999</ele><time>2026-04-18T13:39:23.683Z</time></trkpt><trkpt lat="9.4342447" lon="-75.6111017"><ele>1.0</ele><time>2026-04-18T13:39:24.683Z</time></trkpt><trkpt lat="9.4343261" lon="-75.6110887"><ele>1.0</ele><time>2026-04-18T13:39:25.681Z</time></trkpt><trkpt lat="9.434409" lon="-75.611076"><ele>1.0</ele><time>2026-04-18T13:39:26.682Z</time></trkpt><trkpt lat="9.4344902" lon="-75.6110639"><ele>0.9999999999999999</ele><time>2026-04-18T13:39:27.69Z</time></trkpt><trkpt lat="9.4345734" lon="-75.6110521"><ele>1.0</ele><time>2026-04-18T13:39:28.685Z</time></trkpt><trkpt lat="9.4346547" lon="-75.6110432"><ele>1.1666666666666665</ele><time>2026-04-18T13:39:29.684Z</time></trkpt><trkpt lat="9.4347422" lon="-75.6110312"><ele>1.3333333333333333</ele><time>2026-04-18T13:39:30.686Z</time></trkpt><trkpt lat="9.4348234" lon="-75.6110214"><ele>1.5</ele><time>2026-04-18T13:39:31.685Z</time></trkpt><trkpt lat="9.4349067" lon="-75.6110101"><ele>1.6666666666666665</ele><time>2026-04-18T13:39:32.688Z</time></trkpt><trkpt lat="9.4349943" lon="-75.6109959"><ele>1.8333333333333333</ele><time>2026-04-18T13:39:33.689Z</time></trkpt><trkpt lat="9.4350801" lon="-75.6109873"><ele>2.0</ele><time>2026-04-18T13:39:34.683Z</time></trkpt><trkpt lat="9.4351621" lon="-75.6109774"><ele>1.9999999999999998</ele><time>2026-04-18T13:39:35.695Z</time></trkpt><trkpt lat="9.4352451" lon="-75.6109667"><ele>2.0</ele><time>2026-04-18T13:39:36.686Z</time></trkpt><trkpt lat="9.4353265" lon="-75.610953"><ele>2.0</ele><time>2026-04-18T13:39:37.685Z</time></trkpt><trkpt lat="9.4354077" lon="-75.6109427"><ele>2.0</ele><time>2026-04-18T13:39:38.683Z</time></trkpt><trkpt lat="9.4354902" lon="-75.6109318"><ele>1.9999999999999998</ele><time>2026-04-18T13:39:39.682Z</time></trkpt><trkpt lat="9.4355766" lon="-75.6109218"><ele>2.0</ele><time>2026-04-18T13:39:40.686Z</time></trkpt><trkpt lat="9.4356651" lon="-75.6109087"><ele>1.9999999999999998</ele><time>2026-04-18T13:39:41.688Z</time></trkpt><trkpt lat="9.4357511" lon="-75.6108971"><ele>2.0</ele><time>2026-04-18T13:39:42.684Z</time></trkpt><trkpt lat="9.4358346" lon="-75.6108901"><ele>2.0</ele><time>2026-04-18T13:39:43.684Z</time></trkpt><trkpt lat="9.43592" lon="-75.6108826"><ele>2.0</ele><time>2026-04-18T13:39:44.681Z</time></trkpt><trkpt lat="9.435999" lon="-75.6108707"><ele>1.9999999999999998</ele><time>2026-04-18T13:39:45.684Z</time></trkpt><trkpt lat="9.4360865" lon="-75.6108605"><ele>2.0</ele><time>2026-04-18T13:39:46.686Z</time></trkpt><trkpt lat="9.4361677" lon="-75.6108551"><ele>1.9999999999999998</ele><time>2026-04-18T13:39:47.682Z</time></trkpt><trkpt lat="9.4362514" lon="-75.6108474"><ele>2.0</ele><time>2026-04-18T13:39:48.681Z</time></trkpt><trkpt lat="9.4363374" lon="-75.6108374"><ele>2.0</ele><time>2026-04-18T13:39:49.687Z</time></trkpt><trkpt lat="9.436422" lon="-75.6108305"><ele>2.0</ele><time>2026-04-18T13:39:50.684Z</time></trkpt><trkpt lat="9.4365052" lon="-75.6108212"><ele>1.9999999999999998</ele><time>2026-04-18T13:39:51.685Z</time></trkpt><trkpt lat="9.4365915" lon="-75.6108177"><ele>2.0</ele><time>2026-04-18T13:39:52.686Z</time></trkpt><trkpt lat="9.4366792" lon="-75.6108108"><ele>1.8333333333333333</ele><time>2026-04-18T13:39:53.683Z</time></trkpt><trkpt lat="9.4367654" lon="-75.6108028"><ele>1.6666666666666665</ele><time>2026-04-18T13:39:54.682Z</time></trkpt><trkpt lat="9.4368463" lon="-75.610798"><ele>1.5</ele><time>2026-04-18T13:39:55.685Z</time></trkpt><trkpt lat="9.4369289" lon="-75.6107934"><ele>1.3333333333333333</ele><time>2026-04-18T13:39:56.684Z</time></trkpt><trkpt lat="9.4370123" lon="-75.6107884"><ele>1.1666666666666665</ele><time>2026-04-18T13:39:57.688Z</time></trkpt><trkpt lat="9.4370954" lon="-75.6107846"><ele>1.0</ele><time>2026-04-18T13:39:58.685Z</time></trkpt><trkpt lat="9.4371781" lon="-75.6107812"><ele>0.9999999999999999</ele><time>2026-04-18T13:39:59.682Z</time></trkpt><trkpt lat="9.4372622" lon="-75.6107788"><ele>1.0</ele><time>2026-04-18T13:40:00.687Z</time></trkpt><trkpt lat="9.4373427" lon="-75.6107734"><ele>1.0</ele><time>2026-04-18T13:40:01.689Z</time></trkpt><trkpt lat="9.437425" lon="-75.6107717"><ele>1.0</ele><time>2026-04-18T13:40:02.685Z</time></trkpt><trkpt lat="9.4375067" lon="-75.6107717"><ele>0.9999999999999999</ele><time>2026-04-18T13:40:03.685Z</time></trkpt><trkpt lat="9.4375856" lon="-75.6107701"><ele>1.0</ele><time>2026-04-18T13:40:04.685Z</time></trkpt><trkpt lat="9.4376654" lon="-75.6107672"><ele>0.9999999999999999</ele><time>2026-04-18T13:40:05.684Z</time></trkpt><trkpt lat="9.4377465" lon="-75.6107633"><ele>1.0</ele><time>2026-04-18T13:40:06.682Z</time></trkpt><trkpt lat="9.4378256" lon="-75.6107608"><ele>1.0</ele><time>2026-04-18T13:40:07.69Z</time></trkpt><trkpt lat="9.4379054" lon="-75.6107573"><ele>1.0</ele><time>2026-04-18T13:40:08.685Z</time></trkpt><trkpt lat="9.4379889" lon="-75.6107526"><ele>0.9999999999999999</ele><time>2026-04-18T13:40:09.684Z</time></trkpt><trkpt lat="9.438068" lon="-75.6107519"><ele>1.0</ele><time>2026-04-18T13:40:10.683Z</time></trkpt><trkpt lat="9.438148" lon="-75.6107516"><ele>1.6666666666666665</ele><time>2026-04-18T13:40:11.686Z</time></trkpt><trkpt lat="9.4382277" lon="-75.6107487"><ele>2.3333333333333335</ele><time>2026-04-18T13:40:12.687Z</time></trkpt><trkpt lat="9.4383025" lon="-75.6107493"><ele>3.0</ele><time>2026-04-18T13:40:13.693Z</time></trkpt><trkpt lat="9.4383815" lon="-75.6107467"><ele>3.666666666666667</ele><time>2026-04-18T13:40:14.688Z</time></trkpt><trkpt lat="9.4384632" lon="-75.6107451"><ele>4.333333333333334</ele><time>2026-04-18T13:40:15.685Z</time></trkpt><trkpt lat="9.4385468" lon="-75.6107382"><ele>5.0</ele><time>2026-04-18T13:40:16.686Z</time></trkpt><trkpt lat="9.4386276" lon="-75.6107308"><ele>5.0</ele><time>2026-04-18T13:40:17.685Z</time></trkpt><trkpt lat="9.4387072" lon="-75.610725"><ele>5.0</ele><time>2026-04-18T13:40:18.687Z</time></trkpt><trkpt lat="9.4387867" lon="-75.6107213"><ele>5.0</ele><time>2026-04-18T13:40:19.682Z</time></trkpt><trkpt lat="9.4388641" lon="-75.6107206"><ele>5.0</ele><time>2026-04-18T13:40:20.685Z</time></trkpt><trkpt lat="9.4389443" lon="-75.6107168"><ele>5.0</ele><time>2026-04-18T13:40:21.685Z</time></trkpt><trkpt lat="9.4390236" lon="-75.6107147"><ele>5.0</ele><time>2026-04-18T13:40:22.682Z</time></trkpt><trkpt lat="9.4391051" lon="-75.6107129"><ele>4.666666666666667</ele><time>2026-04-18T13:40:23.684Z</time></trkpt><trkpt lat="9.4391903" lon="-75.6107096"><ele>4.333333333333334</ele><time>2026-04-18T13:40:24.684Z</time></trkpt><trkpt lat="9.4392731" lon="-75.6107115"><ele>4.0</ele><time>2026-04-18T13:40:25.681Z</time></trkpt><trkpt lat="9.4393568" lon="-75.6107097"><ele>3.666666666666667</ele><time>2026-04-18T13:40:26.683Z</time></trkpt><trkpt lat="9.4394399" lon="-75.6107036"><ele>3.3333333333333335</ele><time>2026-04-18T13:40:27.687Z</time></trkpt><trkpt lat="9.4395224" lon="-75.6107029"><ele>3.0</ele><time>2026-04-18T13:40:28.683Z</time></trkpt><trkpt lat="9.4396066" lon="-75.6106986"><ele>2.8333333333333335</ele><time>2026-04-18T13:40:29.688Z</time></trkpt><trkpt lat="9.4396889" lon="-75.6106973"><ele>2.6666666666666665</ele><time>2026-04-18T13:40:30.685Z</time></trkpt><trkpt lat="9.4397675" lon="-75.6106973"><ele>2.5</ele><time>2026-04-18T13:40:31.68Z</time></trkpt><trkpt lat="9.4398534" lon="-75.610695"><ele>2.333333333333333</ele><time>2026-04-18T13:40:32.684Z</time></trkpt><trkpt lat="9.4399373" lon="-75.6106934"><ele>2.1666666666666665</ele><time>2026-04-18T13:40:33.683Z</time></trkpt><trkpt lat="9.44002" lon="-75.6106931"><ele>2.0</ele><time>2026-04-18T13:40:34.686Z</time></trkpt><trkpt lat="9.4401023" lon="-75.6106911"><ele>1.9999999999999998</ele><time>2026-04-18T13:40:35.687Z</time></trkpt><trkpt lat="9.4401854" lon="-75.6106891"><ele>2.0</ele><time>2026-04-18T13:40:36.683Z</time></trkpt><trkpt lat="9.4402666" lon="-75.6106887"><ele>2.0</ele><time>2026-04-18T13:40:37.686Z</time></trkpt><trkpt lat="9.4403443" lon="-75.6106859"><ele>2.0</ele><time>2026-04-18T13:40:38.691Z</time></trkpt><trkpt lat="9.4404265" lon="-75.6106819"><ele>1.9999999999999998</ele><time>2026-04-18T13:40:39.686Z</time></trkpt><trkpt lat="9.440512" lon="-75.6106787"><ele>2.0</ele><time>2026-04-18T13:40:40.68Z</time></trkpt><trkpt lat="9.4405983" lon="-75.6106751"><ele>1.9999999999999998</ele><time>2026-04-18T13:40:41.69Z</time></trkpt><trkpt lat="9.4406809" lon="-75.6106676"><ele>2.0</ele><time>2026-04-18T13:40:42.689Z</time></trkpt><trkpt lat="9.4407671" lon="-75.6106661"><ele>2.0</ele><time>2026-04-18T13:40:43.686Z</time></trkpt><trkpt lat="9.4408495" lon="-75.6106608"><ele>2.0</ele><time>2026-04-18T13:40:44.687Z</time></trkpt><trkpt lat="9.4409374" lon="-75.6106602"><ele>1.9999999999999998</ele><time>2026-04-18T13:40:45.686Z</time></trkpt><trkpt lat="9.4410216" lon="-75.6106575"><ele>2.0</ele><time>2026-04-18T13:40:46.689Z</time></trkpt><trkpt lat="9.4411098" lon="-75.6106554"><ele>1.9999999999999998</ele><time>2026-04-18T13:40:47.685Z</time></trkpt><trkpt lat="9.4411946" lon="-75.6106514"><ele>2.0</ele><time>2026-04-18T13:40:48.684Z</time></trkpt><trkpt lat="9.4412758" lon="-75.6106537"><ele>2.0</ele><time>2026-04-18T13:40:49.685Z</time></trkpt><trkpt lat="9.441359" lon="-75.6106526"><ele>2.0</ele><time>2026-04-18T13:40:50.685Z</time></trkpt><trkpt lat="9.4414417" lon="-75.6106469"><ele>1.9999999999999998</ele><time>2026-04-18T13:40:51.685Z</time></trkpt><trkpt lat="9.441525" lon="-75.6106442"><ele>2.0</ele><time>2026-04-18T13:40:52.686Z</time></trkpt><trkpt lat="9.4416049" lon="-75.6106358"><ele>1.9999999999999998</ele><time>2026-04-18T13:40:53.687Z</time></trkpt><trkpt lat="9.4416915" lon="-75.6106294"><ele>2.0</ele><time>2026-04-18T13:40:54.687Z</time></trkpt><trkpt lat="9.4417783" lon="-75.6106162"><ele>2.0</ele><time>2026-04-18T13:40:55.685Z</time></trkpt><trkpt lat="9.4418625" lon="-75.610602"><ele>2.0</ele><time>2026-04-18T13:40:56.688Z</time></trkpt><trkpt lat="9.4419463" lon="-75.6105876"><ele>1.9999999999999998</ele><time>2026-04-18T13:40:57.687Z</time></trkpt><trkpt lat="9.4420326" lon="-75.6105767"><ele>2.0</ele><time>2026-04-18T13:40:58.683Z</time></trkpt><trkpt lat="9.4421199" lon="-75.6105621"><ele>1.6666666666666665</ele><time>2026-04-18T13:40:59.688Z</time></trkpt><trkpt lat="9.4422012" lon="-75.6105453"><ele>1.3333333333333333</ele><time>2026-04-18T13:41:00.696Z</time></trkpt><trkpt lat="9.4422852" lon="-75.610526"><ele>1.0</ele><time>2026-04-18T13:41:01.69Z</time></trkpt><trkpt lat="9.4423672" lon="-75.610504"><ele>0.6666666666666666</ele><time>2026-04-18T13:41:02.679Z</time></trkpt><trkpt lat="9.4424463" lon="-75.6104836"><ele>0.3333333333333333</ele><time>2026-04-18T13:41:03.685Z</time></trkpt><trkpt lat="9.4425268" lon="-75.6104627"><ele>0.0</ele><time>2026-04-18T13:41:04.684Z</time></trkpt><trkpt lat="9.4426103" lon="-75.6104405"><ele>0.0</ele><time>2026-04-18T13:41:05.683Z</time></trkpt><trkpt lat="9.4426937" lon="-75.6104238"><ele>0.0</ele><time>2026-04-18T13:41:06.682Z</time></trkpt><trkpt lat="9.4427736" lon="-75.6104028"><ele>0.0</ele><time>2026-04-18T13:41:07.681Z</time></trkpt><trkpt lat="9.442854" lon="-75.6103817"><ele>0.0</ele><time>2026-04-18T13:41:08.686Z</time></trkpt><trkpt lat="9.4429338" lon="-75.610355"><ele>0.0</ele><time>2026-04-18T13:41:09.685Z</time></trkpt><trkpt lat="9.4430136" lon="-75.6103298"><ele>0.0</ele><time>2026-04-18T13:41:10.689Z</time></trkpt><trkpt lat="9.4430935" lon="-75.6103069"><ele>0.0</ele><time>2026-04-18T13:41:11.68Z</time></trkpt><trkpt lat="9.4431712" lon="-75.6102854"><ele>0.0</ele><time>2026-04-18T13:41:12.686Z</time></trkpt><trkpt lat="9.443252" lon="-75.6102637"><ele>0.0</ele><time>2026-04-18T13:41:13.681Z</time></trkpt><trkpt lat="9.4433272" lon="-75.6102405"><ele>0.0</ele><time>2026-04-18T13:41:14.682Z</time></trkpt><trkpt lat="9.4434055" lon="-75.6102176"><ele>0.0</ele><time>2026-04-18T13:41:15.684Z</time></trkpt><trkpt lat="9.4434848" lon="-75.6101958"><ele>0.0</ele><time>2026-04-18T13:41:16.683Z</time></trkpt><trkpt lat="9.4435674" lon="-75.6101715"><ele>0.0</ele><time>2026-04-18T13:41:17.682Z</time></trkpt><trkpt lat="9.4436488" lon="-75.6101435"><ele>0.0</ele><time>2026-04-18T13:41:18.685Z</time></trkpt><trkpt lat="9.4437318" lon="-75.6101196"><ele>0.0</ele><time>2026-04-18T13:41:19.686Z</time></trkpt><trkpt lat="9.4438114" lon="-75.6100952"><ele>0.0</ele><time>2026-04-18T13:41:20.685Z</time></trkpt><trkpt lat="9.4438919" lon="-75.6100725"><ele>0.0</ele><time>2026-04-18T13:41:21.683Z</time></trkpt><trkpt lat="9.4439774" lon="-75.6100513"><ele>0.0</ele><time>2026-04-18T13:41:22.682Z</time></trkpt><trkpt lat="9.4440537" lon="-75.6100297"><ele>-0.16666666666666666</ele><time>2026-04-18T13:41:23.69Z</time></trkpt><trkpt lat="9.4441349" lon="-75.610006"><ele>-0.3333333333333333</ele><time>2026-04-18T13:41:24.689Z</time></trkpt><trkpt lat="9.4442162" lon="-75.6099825"><ele>-0.5</ele><time>2026-04-18T13:41:25.683Z</time></trkpt><trkpt lat="9.4442941" lon="-75.6099578"><ele>-0.6666666666666666</ele><time>2026-04-18T13:41:26.686Z</time></trkpt><trkpt lat="9.444376" lon="-75.6099331"><ele>-0.8333333333333333</ele><time>2026-04-18T13:41:27.686Z</time></trkpt><trkpt lat="9.4444598" lon="-75.6099122"><ele>-1.0</ele><time>2026-04-18T13:41:28.684Z</time></trkpt><trkpt lat="9.4445375" lon="-75.6098913"><ele>-0.9999999999999999</ele><time>2026-04-18T13:41:29.689Z</time></trkpt><trkpt lat="9.4446226" lon="-75.6098682"><ele>-1.0</ele><time>2026-04-18T13:41:30.69Z</time></trkpt><trkpt lat="9.4446974" lon="-75.6098429"><ele>-1.0</ele><time>2026-04-18T13:41:31.68Z</time></trkpt><trkpt lat="9.4447783" lon="-75.6098191"><ele>-1.0</ele><time>2026-04-18T13:41:32.69Z</time></trkpt><trkpt lat="9.4448562" lon="-75.6097931"><ele>-0.9999999999999999</ele><time>2026-04-18T13:41:33.687Z</time></trkpt><trkpt lat="9.4449325" lon="-75.6097671"><ele>-1.0</ele><time>2026-04-18T13:41:34.689Z</time></trkpt><trkpt lat="9.4450112" lon="-75.6097452"><ele>-0.8333333333333333</ele><time>2026-04-18T13:41:35.691Z</time></trkpt><trkpt lat="9.4450909" lon="-75.6097244"><ele>-0.6666666666666666</ele><time>2026-04-18T13:41:36.686Z</time></trkpt><trkpt lat="9.4451744" lon="-75.6096976"><ele>-0.5</ele><time>2026-04-18T13:41:37.693Z</time></trkpt><trkpt lat="9.445254" lon="-75.6096743"><ele>-0.3333333333333333</ele><time>2026-04-18T13:41:38.685Z</time></trkpt><trkpt lat="9.445335" lon="-75.6096516"><ele>-0.16666666666666666</ele><time>2026-04-18T13:41:39.684Z</time></trkpt><trkpt lat="9.4454128" lon="-75.6096292"><ele>0.0</ele><time>2026-04-18T13:41:40.682Z</time></trkpt><trkpt lat="9.4454927" lon="-75.609605"><ele>0.0</ele><time>2026-04-18T13:41:41.69Z</time></trkpt><trkpt lat="9.4455712" lon="-75.6095802"><ele>0.0</ele><time>2026-04-18T13:41:42.687Z</time></trkpt><trkpt lat="9.4456522" lon="-75.609557"><ele>0.0</ele><time>2026-04-18T13:41:43.682Z</time></trkpt><trkpt lat="9.4457329" lon="-75.6095325"><ele>0.0</ele><time>2026-04-18T13:41:44.684Z</time></trkpt><trkpt lat="9.4458158" lon="-75.6095071"><ele>0.0</ele><time>2026-04-18T13:41:45.683Z</time></trkpt><trkpt lat="9.4458967" lon="-75.6094845"><ele>0.0</ele><time>2026-04-18T13:41:46.682Z</time></trkpt><trkpt lat="9.4459783" lon="-75.6094617"><ele>0.16666666666666666</ele><time>2026-04-18T13:41:47.682Z</time></trkpt><trkpt lat="9.446061" lon="-75.609438"><ele>0.3333333333333333</ele><time>2026-04-18T13:41:48.687Z</time></trkpt><trkpt lat="9.4461386" lon="-75.6094161"><ele>0.5</ele><time>2026-04-18T13:41:49.686Z</time></trkpt><trkpt lat="9.4462193" lon="-75.6093906"><ele>0.6666666666666666</ele><time>2026-04-18T13:41:50.691Z</time></trkpt><trkpt lat="9.4462993" lon="-75.6093653"><ele>0.8333333333333333</ele><time>2026-04-18T13:41:51.684Z</time></trkpt><trkpt lat="9.4463761" lon="-75.6093415"><ele>1.0</ele><time>2026-04-18T13:41:52.685Z</time></trkpt><trkpt lat="9.4464629" lon="-75.6093174"><ele>0.9999999999999999</ele><time>2026-04-18T13:41:53.685Z</time></trkpt><trkpt lat="9.4465476" lon="-75.609293"><ele>1.0</ele><time>2026-04-18T13:41:54.684Z</time></trkpt><trkpt lat="9.4466288" lon="-75.6092664"><ele>1.0</ele><time>2026-04-18T13:41:55.688Z</time></trkpt><trkpt lat="9.4467091" lon="-75.6092451"><ele>1.0</ele><time>2026-04-18T13:41:56.685Z</time></trkpt><trkpt lat="9.4467945" lon="-75.6092221"><ele>0.9999999999999999</ele><time>2026-04-18T13:41:57.685Z</time></trkpt><trkpt lat="9.4468762" lon="-75.609191"><ele>1.0</ele><time>2026-04-18T13:41:58.684Z</time></trkpt><trkpt lat="9.4469611" lon="-75.6091637"><ele>1.0</ele><time>2026-04-18T13:41:59.687Z</time></trkpt><trkpt lat="9.4470486" lon="-75.6091378"><ele>1.0</ele><time>2026-04-18T13:42:00.691Z</time></trkpt><trkpt lat="9.4471323" lon="-75.6091121"><ele>1.0</ele><time>2026-04-18T13:42:01.684Z</time></trkpt><trkpt lat="9.4472225" lon="-75.6090898"><ele>1.0</ele><time>2026-04-18T13:42:02.685Z</time></trkpt><trkpt lat="9.447309" lon="-75.6090645"><ele>1.0</ele><time>2026-04-18T13:42:03.683Z</time></trkpt><trkpt lat="9.4473955" lon="-75.609039"><ele>0.49999999999999994</ele><time>2026-04-18T13:42:04.681Z</time></trkpt><trkpt lat="9.4474836" lon="-75.6090164"><ele>0.0</ele><time>2026-04-18T13:42:05.686Z</time></trkpt><trkpt lat="9.4475697" lon="-75.6089897"><ele>-0.5</ele><time>2026-04-18T13:42:06.681Z</time></trkpt><trkpt lat="9.4476549" lon="-75.6089683"><ele>-1.0</ele><time>2026-04-18T13:42:07.683Z</time></trkpt><trkpt lat="9.4477395" lon="-75.6089425"><ele>-1.4999999999999998</ele><time>2026-04-18T13:42:08.684Z</time></trkpt><trkpt lat="9.4478229" lon="-75.6089152"><ele>-2.0</ele><time>2026-04-18T13:42:09.686Z</time></trkpt><trkpt lat="9.4479048" lon="-75.6088868"><ele>-1.6666666666666665</ele><time>2026-04-18T13:42:10.684Z</time></trkpt><trkpt lat="9.4479872" lon="-75.6088623"><ele>-1.3333333333333333</ele><time>2026-04-18T13:42:11.684Z</time></trkpt><trkpt lat="9.4480686" lon="-75.60884"><ele>-1.0</ele><time>2026-04-18T13:42:12.684Z</time></trkpt><trkpt lat="9.448153" lon="-75.6088154"><ele>-0.6666666666666666</ele><time>2026-04-18T13:42:13.682Z</time></trkpt><trkpt lat="9.4482363" lon="-75.6087917"><ele>-0.3333333333333333</ele><time>2026-04-18T13:42:14.687Z</time></trkpt><trkpt lat="9.4483157" lon="-75.608766"><ele>0.0</ele><time>2026-04-18T13:42:15.684Z</time></trkpt><trkpt lat="9.4483951" lon="-75.6087413"><ele>0.0</ele><time>2026-04-18T13:42:16.683Z</time></trkpt><trkpt lat="9.4484703" lon="-75.6087163"><ele>0.0</ele><time>2026-04-18T13:42:17.685Z</time></trkpt><trkpt lat="9.4485478" lon="-75.6086884"><ele>0.0</ele><time>2026-04-18T13:42:18.683Z</time></trkpt><trkpt lat="9.4486267" lon="-75.6086642"><ele>0.0</ele><time>2026-04-18T13:42:19.685Z</time></trkpt><trkpt lat="9.4487066" lon="-75.6086435"><ele>0.0</ele><time>2026-04-18T13:42:20.685Z</time></trkpt><trkpt lat="9.4487831" lon="-75.6086197"><ele>0.0</ele><time>2026-04-18T13:42:21.689Z</time></trkpt><trkpt lat="9.4488589" lon="-75.6085967"><ele>0.3333333333333333</ele><time>2026-04-18T13:42:22.686Z</time></trkpt><trkpt lat="9.4489335" lon="-75.6085731"><ele>0.6666666666666666</ele><time>2026-04-18T13:42:23.686Z</time></trkpt><trkpt lat="9.4490084" lon="-75.6085499"><ele>1.0</ele><time>2026-04-18T13:42:24.686Z</time></trkpt><trkpt lat="9.4490856" lon="-75.6085242"><ele>1.3333333333333333</ele><time>2026-04-18T13:42:25.685Z</time></trkpt><trkpt lat="9.4491669" lon="-75.6084965"><ele>1.6666666666666665</ele><time>2026-04-18T13:42:26.685Z</time></trkpt><trkpt lat="9.4492448" lon="-75.6084697"><ele>2.0</ele><time>2026-04-18T13:42:27.686Z</time></trkpt><trkpt lat="9.44932" lon="-75.6084433"><ele>1.9999999999999998</ele><time>2026-04-18T13:42:28.685Z</time></trkpt><trkpt lat="9.4493937" lon="-75.6084185"><ele>2.0</ele><time>2026-04-18T13:42:29.686Z</time></trkpt><trkpt lat="9.4494697" lon="-75.6083885"><ele>2.0</ele><time>2026-04-18T13:42:30.682Z</time></trkpt><trkpt lat="9.4495456" lon="-75.6083611"><ele>2.0</ele><time>2026-04-18T13:42:31.685Z</time></trkpt><trkpt lat="9.449617" lon="-75.6083307"><ele>1.9999999999999998</ele><time>2026-04-18T13:42:32.683Z</time></trkpt><trkpt lat="9.4496839" lon="-75.6083048"><ele>2.0</ele><time>2026-04-18T13:42:33.69Z</time></trkpt><trkpt lat="9.4497555" lon="-75.6082782"><ele>2.1666666666666665</ele><time>2026-04-18T13:42:34.686Z</time></trkpt><trkpt lat="9.4498257" lon="-75.6082476"><ele>2.333333333333333</ele><time>2026-04-18T13:42:35.686Z</time></trkpt><trkpt lat="9.4498982" lon="-75.608217"><ele>2.5</ele><time>2026-04-18T13:42:36.687Z</time></trkpt><trkpt lat="9.4499675" lon="-75.6081844"><ele>2.6666666666666665</ele><time>2026-04-18T13:42:37.688Z</time></trkpt><trkpt lat="9.4500355" lon="-75.6081547"><ele>2.8333333333333335</ele><time>2026-04-18T13:42:38.691Z</time></trkpt><trkpt lat="9.4501041" lon="-75.6081172"><ele>3.0</ele><time>2026-04-18T13:42:39.689Z</time></trkpt><trkpt lat="9.4501733" lon="-75.6080816"><ele>3.0</ele><time>2026-04-18T13:42:40.688Z</time></trkpt><trkpt lat="9.4502471" lon="-75.6080501"><ele>3.0</ele><time>2026-04-18T13:42:41.687Z</time></trkpt><trkpt lat="9.4503205" lon="-75.608017"><ele>3.0</ele><time>2026-04-18T13:42:42.686Z</time></trkpt><trkpt lat="9.4503962" lon="-75.6079846"><ele>3.0</ele><time>2026-04-18T13:42:43.691Z</time></trkpt><trkpt lat="9.4504697" lon="-75.6079499"><ele>3.0</ele><time>2026-04-18T13:42:44.684Z</time></trkpt><trkpt lat="9.450542" lon="-75.6079126"><ele>3.0</ele><time>2026-04-18T13:42:45.681Z</time></trkpt><trkpt lat="9.4506119" lon="-75.6078782"><ele>3.0</ele><time>2026-04-18T13:42:46.679Z</time></trkpt><trkpt lat="9.4506805" lon="-75.6078435"><ele>3.0</ele><time>2026-04-18T13:42:47.686Z</time></trkpt><trkpt lat="9.4507562" lon="-75.6078043"><ele>3.0</ele><time>2026-04-18T13:42:48.685Z</time></trkpt><trkpt lat="9.4508305" lon="-75.6077665"><ele>3.0</ele><time>2026-04-18T13:42:49.684Z</time></trkpt><trkpt lat="9.4509053" lon="-75.6077304"><ele>3.0</ele><time>2026-04-18T13:42:50.685Z</time></trkpt><trkpt lat="9.4509758" lon="-75.6076974"><ele>3.0</ele><time>2026-04-18T13:42:51.688Z</time></trkpt><trkpt lat="9.4510511" lon="-75.6076608"><ele>2.6666666666666665</ele><time>2026-04-18T13:42:52.681Z</time></trkpt><trkpt lat="9.4511188" lon="-75.6076225"><ele>2.3333333333333335</ele><time>2026-04-18T13:42:53.687Z</time></trkpt><trkpt lat="9.4511935" lon="-75.6075902"><ele>2.0</ele><time>2026-04-18T13:42:54.682Z</time></trkpt><trkpt lat="9.4512623" lon="-75.607554"><ele>1.6666666666666665</ele><time>2026-04-18T13:42:55.686Z</time></trkpt><trkpt lat="9.4513378" lon="-75.6075158"><ele>1.3333333333333333</ele><time>2026-04-18T13:42:56.685Z</time></trkpt><trkpt lat="9.4514139" lon="-75.6074776"><ele>1.0</ele><time>2026-04-18T13:42:57.684Z</time></trkpt><trkpt lat="9.4514906" lon="-75.6074416"><ele>0.6666666666666666</ele><time>2026-04-18T13:42:58.683Z</time></trkpt><trkpt lat="9.4515614" lon="-75.6074104"><ele>0.3333333333333333</ele><time>2026-04-18T13:42:59.693Z</time></trkpt><trkpt lat="9.4516313" lon="-75.6073755"><ele>0.0</ele><time>2026-04-18T13:43:00.684Z</time></trkpt><trkpt lat="9.4517043" lon="-75.6073391"><ele>-0.3333333333333333</ele><time>2026-04-18T13:43:01.682Z</time></trkpt><trkpt lat="9.4517746" lon="-75.6073032"><ele>-0.6666666666666666</ele><time>2026-04-18T13:43:02.686Z</time></trkpt><trkpt lat="9.4518448" lon="-75.6072658"><ele>-1.0</ele><time>2026-04-18T13:43:03.686Z</time></trkpt><trkpt lat="9.4519225" lon="-75.6072309"><ele>-0.9999999999999999</ele><time>2026-04-18T13:43:04.684Z</time></trkpt><trkpt lat="9.4519954" lon="-75.6071961"><ele>-1.0</ele><time>2026-04-18T13:43:05.683Z</time></trkpt><trkpt lat="9.4520679" lon="-75.6071619"><ele>-1.0</ele><time>2026-04-18T13:43:06.683Z</time></trkpt><trkpt lat="9.4521407" lon="-75.6071284"><ele>-1.0</ele><time>2026-04-18T13:43:07.685Z</time></trkpt><trkpt lat="9.4522177" lon="-75.6070857"><ele>-0.9999999999999999</ele><time>2026-04-18T13:43:08.684Z</time></trkpt><trkpt lat="9.4522889" lon="-75.607055"><ele>-1.0</ele><time>2026-04-18T13:43:09.687Z</time></trkpt><trkpt lat="9.452358" lon="-75.6070237"><ele>-1.1666666666666665</ele><time>2026-04-18T13:43:10.685Z</time></trkpt><trkpt lat="9.4524303" lon="-75.6069866"><ele>-1.3333333333333333</ele><time>2026-04-18T13:43:11.684Z</time></trkpt><trkpt lat="9.452504" lon="-75.6069462"><ele>-1.5</ele><time>2026-04-18T13:43:12.684Z</time></trkpt><trkpt lat="9.4525803" lon="-75.6069085"><ele>-1.6666666666666665</ele><time>2026-04-18T13:43:13.689Z</time></trkpt><trkpt lat="9.4526603" lon="-75.6068708"><ele>-1.8333333333333333</ele><time>2026-04-18T13:43:14.684Z</time></trkpt><trkpt lat="9.4527353" lon="-75.6068359"><ele>-2.0</ele><time>2026-04-18T13:43:15.685Z</time></trkpt><trkpt lat="9.4528135" lon="-75.6067954"><ele>-1.9999999999999998</ele><time>2026-04-18T13:43:16.683Z</time></trkpt><trkpt lat="9.4528851" lon="-75.6067565"><ele>-2.0</ele><time>2026-04-18T13:43:17.682Z</time></trkpt><trkpt lat="9.4529594" lon="-75.6067198"><ele>-2.0</ele><time>2026-04-18T13:43:18.695Z</time></trkpt><trkpt lat="9.4530334" lon="-75.6066846"><ele>-2.0</ele><time>2026-04-18T13:43:19.682Z</time></trkpt><trkpt lat="9.4531068" lon="-75.6066485"><ele>-1.9999999999999998</ele><time>2026-04-18T13:43:20.682Z</time></trkpt><trkpt lat="9.4531811" lon="-75.6066107"><ele>-2.0</ele><time>2026-04-18T13:43:21.685Z</time></trkpt><trkpt lat="9.4532572" lon="-75.6065729"><ele>-1.8333333333333333</ele><time>2026-04-18T13:43:22.682Z</time></trkpt><trkpt lat="9.4533313" lon="-75.6065342"><ele>-1.6666666666666665</ele><time>2026-04-18T13:43:23.682Z</time></trkpt><trkpt lat="9.4534081" lon="-75.6065001"><ele>-1.5</ele><time>2026-04-18T13:43:24.683Z</time></trkpt><trkpt lat="9.4534853" lon="-75.6064631"><ele>-1.3333333333333333</ele><time>2026-04-18T13:43:25.688Z</time></trkpt><trkpt lat="9.4535638" lon="-75.6064268"><ele>-1.1666666666666665</ele><time>2026-04-18T13:43:26.687Z</time></trkpt><trkpt lat="9.4536391" lon="-75.6063885"><ele>-1.0</ele><time>2026-04-18T13:43:27.688Z</time></trkpt><trkpt lat="9.4537121" lon="-75.6063551"><ele>-0.9999999999999999</ele><time>2026-04-18T13:43:28.685Z</time></trkpt><trkpt lat="9.4537831" lon="-75.6063232"><ele>-1.0</ele><time>2026-04-18T13:43:29.687Z</time></trkpt><trkpt lat="9.4538558" lon="-75.6062868"><ele>-1.0</ele><time>2026-04-18T13:43:30.689Z</time></trkpt><trkpt lat="9.4539287" lon="-75.6062534"><ele>-1.0</ele><time>2026-04-18T13:43:31.686Z</time></trkpt><trkpt lat="9.4539991" lon="-75.6062183"><ele>-0.9999999999999999</ele><time>2026-04-18T13:43:32.685Z</time></trkpt><trkpt lat="9.4540701" lon="-75.6061833"><ele>-1.0</ele><time>2026-04-18T13:43:33.688Z</time></trkpt><trkpt lat="9.4541418" lon="-75.6061468"><ele>-0.8333333333333333</ele><time>2026-04-18T13:43:34.685Z</time></trkpt><trkpt lat="9.4542124" lon="-75.6061096"><ele>-0.6666666666666666</ele><time>2026-04-18T13:43:35.684Z</time></trkpt><trkpt lat="9.4542858" lon="-75.6060729"><ele>-0.5</ele><time>2026-04-18T13:43:36.684Z</time></trkpt><trkpt lat="9.4543608" lon="-75.6060392"><ele>-0.3333333333333333</ele><time>2026-04-18T13:43:37.683Z</time></trkpt><trkpt lat="9.4544375" lon="-75.6060051"><ele>-0.16666666666666666</ele><time>2026-04-18T13:43:38.683Z</time></trkpt><trkpt lat="9.4545083" lon="-75.6059688"><ele>0.0</ele><time>2026-04-18T13:43:39.684Z</time></trkpt><trkpt lat="9.454583" lon="-75.605935"><ele>0.0</ele><time>2026-04-18T13:43:40.684Z</time></trkpt><trkpt lat="9.4546558" lon="-75.6058988"><ele>0.0</ele><time>2026-04-18T13:43:41.684Z</time></trkpt><trkpt lat="9.4547298" lon="-75.6058642"><ele>0.0</ele><time>2026-04-18T13:43:42.685Z</time></trkpt><trkpt lat="9.4548065" lon="-75.6058312"><ele>0.0</ele><time>2026-04-18T13:43:43.686Z</time></trkpt><trkpt lat="9.4548857" lon="-75.6057971"><ele>0.0</ele><time>2026-04-18T13:43:44.688Z</time></trkpt><trkpt lat="9.4549634" lon="-75.6057605"><ele>0.0</ele><time>2026-04-18T13:43:45.686Z</time></trkpt><trkpt lat="9.4550361" lon="-75.6057291"><ele>0.0</ele><time>2026-04-18T13:43:46.687Z</time></trkpt><trkpt lat="9.4551124" lon="-75.6056893"><ele>0.0</ele><time>2026-04-18T13:43:47.689Z</time></trkpt><trkpt lat="9.4551794" lon="-75.6056546"><ele>0.0</ele><time>2026-04-18T13:43:48.688Z</time></trkpt><trkpt lat="9.4552538" lon="-75.6056154"><ele>0.0</ele><time>2026-04-18T13:43:49.686Z</time></trkpt><trkpt lat="9.4553275" lon="-75.6055783"><ele>0.0</ele><time>2026-04-18T13:43:50.693Z</time></trkpt><trkpt lat="9.4554056" lon="-75.6055422"><ele>0.0</ele><time>2026-04-18T13:43:51.684Z</time></trkpt><trkpt lat="9.4554823" lon="-75.6055059"><ele>0.25</ele><time>2026-04-18T13:43:52.686Z</time></trkpt><trkpt lat="9.455555" lon="-75.6054671"><ele>0.5</ele><time>2026-04-18T13:43:53.687Z</time></trkpt><trkpt lat="9.4557791" lon="-75.6053584"><ele>0.75</ele><time>2026-04-18T13:43:56.685Z</time></trkpt><trkpt lat="9.4558524" lon="-75.6053239"><ele>1.0</ele><time>2026-04-18T13:43:57.686Z</time></trkpt><trkpt lat="9.4559251" lon="-75.6052848"><ele>1.1666666666666665</ele><time>2026-04-18T13:43:58.685Z</time></trkpt><trkpt lat="9.4560016" lon="-75.6052466"><ele>1.3333333333333333</ele><time>2026-04-18T13:43:59.688Z</time></trkpt><trkpt lat="9.4560777" lon="-75.6052101"><ele>1.5</ele><time>2026-04-18T13:44:00.684Z</time></trkpt><trkpt lat="9.4561535" lon="-75.6051719"><ele>1.6666666666666665</ele><time>2026-04-18T13:44:01.687Z</time></trkpt><trkpt lat="9.4562327" lon="-75.6051319"><ele>1.8333333333333333</ele><time>2026-04-18T13:44:02.688Z</time></trkpt><trkpt lat="9.4563079" lon="-75.6050946"><ele>2.0</ele><time>2026-04-18T13:44:03.689Z</time></trkpt><trkpt lat="9.4563787" lon="-75.6050566"><ele>1.9999999999999998</ele><time>2026-04-18T13:44:04.693Z</time></trkpt><trkpt lat="9.456455" lon="-75.6050201"><ele>2.0</ele><time>2026-04-18T13:44:05.684Z</time></trkpt><trkpt lat="9.4565302" lon="-75.6049825"><ele>2.0</ele><time>2026-04-18T13:44:06.681Z</time></trkpt><trkpt lat="9.4566066" lon="-75.6049453"><ele>2.0</ele><time>2026-04-18T13:44:07.684Z</time></trkpt><trkpt lat="9.4566791" lon="-75.6049075"><ele>1.9999999999999998</ele><time>2026-04-18T13:44:08.684Z</time></trkpt><trkpt lat="9.4567524" lon="-75.6048754"><ele>2.0</ele><time>2026-04-18T13:44:09.682Z</time></trkpt><trkpt lat="9.4568243" lon="-75.6048427"><ele>1.9999999999999998</ele><time>2026-04-18T13:44:10.68Z</time></trkpt><trkpt lat="9.4568966" lon="-75.6048079"><ele>2.0</ele><time>2026-04-18T13:44:11.681Z</time></trkpt><trkpt lat="9.456969" lon="-75.6047723"><ele>2.0</ele><time>2026-04-18T13:44:12.68Z</time></trkpt><trkpt lat="9.4570427" lon="-75.6047403"><ele>2.0</ele><time>2026-04-18T13:44:13.681Z</time></trkpt><trkpt lat="9.4571121" lon="-75.6047066"><ele>1.9999999999999998</ele><time>2026-04-18T13:44:14.681Z</time></trkpt><trkpt lat="9.4571874" lon="-75.6046696"><ele>2.0</ele><time>2026-04-18T13:44:15.681Z</time></trkpt><trkpt lat="9.4572628" lon="-75.6046317"><ele>1.9999999999999998</ele><time>2026-04-18T13:44:16.682Z</time></trkpt><trkpt lat="9.4573324" lon="-75.6045965"><ele>2.0</ele><time>2026-04-18T13:44:17.685Z</time></trkpt><trkpt lat="9.4574101" lon="-75.6045555"><ele>2.0</ele><time>2026-04-18T13:44:18.685Z</time></trkpt><trkpt lat="9.4574828" lon="-75.6045202"><ele>2.0</ele><time>2026-04-18T13:44:19.689Z</time></trkpt><trkpt lat="9.4575599" lon="-75.6044839"><ele>1.9999999999999998</ele><time>2026-04-18T13:44:20.692Z</time></trkpt><trkpt lat="9.4576367" lon="-75.604448"><ele>2.0</ele><time>2026-04-18T13:44:21.686Z</time></trkpt><trkpt lat="9.4577112" lon="-75.6044091"><ele>1.9999999999999998</ele><time>2026-04-18T13:44:22.688Z</time></trkpt><trkpt lat="9.4577902" lon="-75.6043755"><ele>2.0</ele><time>2026-04-18T13:44:23.686Z</time></trkpt><trkpt lat="9.4578681" lon="-75.6043417"><ele>2.0</ele><time>2026-04-18T13:44:24.684Z</time></trkpt><trkpt lat="9.4579425" lon="-75.6043053"><ele>2.0</ele><time>2026-04-18T13:44:25.693Z</time></trkpt><trkpt lat="9.458017" lon="-75.6042754"><ele>1.9999999999999998</ele><time>2026-04-18T13:44:26.686Z</time></trkpt><trkpt lat="9.458094" lon="-75.6042432"><ele>2.0</ele><time>2026-04-18T13:44:27.687Z</time></trkpt><trkpt lat="9.458162" lon="-75.6042052"><ele>2.1666666666666665</ele><time>2026-04-18T13:44:28.685Z</time></trkpt><trkpt lat="9.4582374" lon="-75.6041658"><ele>2.333333333333333</ele><time>2026-04-18T13:44:29.686Z</time></trkpt><trkpt lat="9.4583078" lon="-75.6041255"><ele>2.5</ele><time>2026-04-18T13:44:30.682Z</time></trkpt><trkpt lat="9.4583877" lon="-75.6040903"><ele>2.6666666666666665</ele><time>2026-04-18T13:44:31.682Z</time></trkpt><trkpt lat="9.4584653" lon="-75.6040521"><ele>2.8333333333333335</ele><time>2026-04-18T13:44:32.684Z</time></trkpt><trkpt lat="9.4585429" lon="-75.6040121"><ele>3.0</ele><time>2026-04-18T13:44:33.682Z</time></trkpt><trkpt lat="9.4586195" lon="-75.6039739"><ele>3.0</ele><time>2026-04-18T13:44:34.683Z</time></trkpt><trkpt lat="9.4587018" lon="-75.6039395"><ele>3.0</ele><time>2026-04-18T13:44:35.683Z</time></trkpt><trkpt lat="9.4587778" lon="-75.6039019"><ele>3.0</ele><time>2026-04-18T13:44:36.687Z</time></trkpt><trkpt lat="9.4588498" lon="-75.6038632"><ele>3.0</ele><time>2026-04-18T13:44:37.684Z</time></trkpt><trkpt lat="9.4589298" lon="-75.6038267"><ele>3.0</ele><time>2026-04-18T13:44:38.686Z</time></trkpt><trkpt lat="9.4590055" lon="-75.6037872"><ele>3.0</ele><time>2026-04-18T13:44:39.685Z</time></trkpt><trkpt lat="9.4590794" lon="-75.6037537"><ele>3.5</ele><time>2026-04-18T13:44:40.686Z</time></trkpt><trkpt lat="9.4591539" lon="-75.6037161"><ele>4.0</ele><time>2026-04-18T13:44:41.685Z</time></trkpt><trkpt lat="9.4592299" lon="-75.6036772"><ele>4.5</ele><time>2026-04-18T13:44:42.687Z</time></trkpt><trkpt lat="9.4593034" lon="-75.6036409"><ele>5.0</ele><time>2026-04-18T13:44:43.686Z</time></trkpt><trkpt lat="9.4593818" lon="-75.6036016"><ele>5.5</ele><time>2026-04-18T13:44:44.687Z</time></trkpt><trkpt lat="9.4594549" lon="-75.6035633"><ele>6.0</ele><time>2026-04-18T13:44:45.688Z</time></trkpt><trkpt lat="9.4595313" lon="-75.6035257"><ele>6.0</ele><time>2026-04-18T13:44:46.684Z</time></trkpt><trkpt lat="9.4596045" lon="-75.603492"><ele>6.0</ele><time>2026-04-18T13:44:47.685Z</time></trkpt><trkpt lat="9.4596779" lon="-75.6034552"><ele>6.0</ele><time>2026-04-18T13:44:48.686Z</time></trkpt><trkpt lat="9.4597554" lon="-75.6034168"><ele>6.0</ele><time>2026-04-18T13:44:49.683Z</time></trkpt><trkpt lat="9.4598311" lon="-75.6033795"><ele>6.0</ele><time>2026-04-18T13:44:50.683Z</time></trkpt><trkpt lat="9.4599073" lon="-75.6033456"><ele>6.0</ele><time>2026-04-18T13:44:51.688Z</time></trkpt><trkpt lat="9.4599857" lon="-75.603313"><ele>5.833333333333333</ele><time>2026-04-18T13:44:52.692Z</time></trkpt><trkpt lat="9.4600598" lon="-75.6032754"><ele>5.666666666666667</ele><time>2026-04-18T13:44:53.683Z</time></trkpt><trkpt lat="9.4601358" lon="-75.6032381"><ele>5.5</ele><time>2026-04-18T13:44:54.686Z</time></trkpt><trkpt lat="9.4602093" lon="-75.6032032"><ele>5.333333333333334</ele><time>2026-04-18T13:44:55.683Z</time></trkpt><trkpt lat="9.4602886" lon="-75.6031661"><ele>5.166666666666667</ele><time>2026-04-18T13:44:56.685Z</time></trkpt><trkpt lat="9.4603636" lon="-75.603127"><ele>5.0</ele><time>2026-04-18T13:44:57.691Z</time></trkpt><trkpt lat="9.4604333" lon="-75.6030897"><ele>4.833333333333334</ele><time>2026-04-18T13:44:58.687Z</time></trkpt><trkpt lat="9.4605072" lon="-75.6030499"><ele>4.666666666666667</ele><time>2026-04-18T13:44:59.69Z</time></trkpt><trkpt lat="9.4605819" lon="-75.6030135"><ele>4.5</ele><time>2026-04-18T13:45:00.689Z</time></trkpt><trkpt lat="9.4606562" lon="-75.6029792"><ele>4.333333333333333</ele><time>2026-04-18T13:45:01.691Z</time></trkpt><trkpt lat="9.460731" lon="-75.6029427"><ele>4.166666666666666</ele><time>2026-04-18T13:45:02.688Z</time></trkpt><trkpt lat="9.4608063" lon="-75.6029098"><ele>4.0</ele><time>2026-04-18T13:45:03.688Z</time></trkpt><trkpt lat="9.4608792" lon="-75.6028764"><ele>3.9999999999999996</ele><time>2026-04-18T13:45:04.686Z</time></trkpt><trkpt lat="9.4609537" lon="-75.6028404"><ele>4.0</ele><time>2026-04-18T13:45:05.687Z</time></trkpt><trkpt lat="9.4610322" lon="-75.6028029"><ele>4.0</ele><time>2026-04-18T13:45:06.686Z</time></trkpt><trkpt lat="9.4611049" lon="-75.602768"><ele>4.0</ele><time>2026-04-18T13:45:07.688Z</time></trkpt><trkpt lat="9.4611783" lon="-75.6027309"><ele>3.9999999999999996</ele><time>2026-04-18T13:45:08.687Z</time></trkpt><trkpt lat="9.4612528" lon="-75.6026996"><ele>4.0</ele><time>2026-04-18T13:45:09.693Z</time></trkpt><trkpt lat="9.4613245" lon="-75.6026624"><ele>3.6666666666666665</ele><time>2026-04-18T13:45:10.689Z</time></trkpt><trkpt lat="9.4614034" lon="-75.6026254"><ele>3.333333333333333</ele><time>2026-04-18T13:45:11.687Z</time></trkpt><trkpt lat="9.4614783" lon="-75.6025913"><ele>3.0</ele><time>2026-04-18T13:45:12.685Z</time></trkpt><trkpt lat="9.4615519" lon="-75.6025564"><ele>2.6666666666666665</ele><time>2026-04-18T13:45:13.687Z</time></trkpt><trkpt lat="9.4616281" lon="-75.6025201"><ele>2.333333333333333</ele><time>2026-04-18T13:45:14.689Z</time></trkpt><trkpt lat="9.4617042" lon="-75.6024811"><ele>2.0</ele><time>2026-04-18T13:45:15.691Z</time></trkpt><trkpt lat="9.461779" lon="-75.6024481"><ele>1.9999999999999998</ele><time>2026-04-18T13:45:16.689Z</time></trkpt><trkpt lat="9.461855" lon="-75.6024121"><ele>2.0</ele><time>2026-04-18T13:45:17.69Z</time></trkpt><trkpt lat="9.4619289" lon="-75.602378"><ele>2.0</ele><time>2026-04-18T13:45:18.684Z</time></trkpt><trkpt lat="9.4620044" lon="-75.6023401"><ele>2.0</ele><time>2026-04-18T13:45:19.683Z</time></trkpt><trkpt lat="9.4620808" lon="-75.602302"><ele>1.9999999999999998</ele><time>2026-04-18T13:45:20.684Z</time></trkpt><trkpt lat="9.4621551" lon="-75.6022668"><ele>2.0</ele><time>2026-04-18T13:45:21.686Z</time></trkpt><trkpt lat="9.4622337" lon="-75.6022364"><ele>2.1666666666666665</ele><time>2026-04-18T13:45:22.685Z</time></trkpt><trkpt lat="9.4623095" lon="-75.6022094"><ele>2.333333333333333</ele><time>2026-04-18T13:45:23.688Z</time></trkpt><trkpt lat="9.462387" lon="-75.6021853"><ele>2.5</ele><time>2026-04-18T13:45:24.687Z</time></trkpt><trkpt lat="9.4624656" lon="-75.6021574"><ele>2.6666666666666665</ele><time>2026-04-18T13:45:25.689Z</time></trkpt><trkpt lat="9.4625471" lon="-75.6021351"><ele>2.8333333333333335</ele><time>2026-04-18T13:45:26.685Z</time></trkpt><trkpt lat="9.4626267" lon="-75.6021146"><ele>3.0</ele><time>2026-04-18T13:45:27.687Z</time></trkpt><trkpt lat="9.4627111" lon="-75.6020959"><ele>3.0</ele><time>2026-04-18T13:45:28.688Z</time></trkpt><trkpt lat="9.4627963" lon="-75.6020742"><ele>3.0</ele><time>2026-04-18T13:45:29.686Z</time></trkpt><trkpt lat="9.4628827" lon="-75.6020569"><ele>3.0</ele><time>2026-04-18T13:45:30.689Z</time></trkpt><trkpt lat="9.4629655" lon="-75.6020434"><ele>3.0</ele><time>2026-04-18T13:45:31.685Z</time></trkpt><trkpt lat="9.4630457" lon="-75.6020348"><ele>3.0</ele><time>2026-04-18T13:45:32.689Z</time></trkpt><trkpt lat="9.4631289" lon="-75.6020236"><ele>3.0</ele><time>2026-04-18T13:45:33.69Z</time></trkpt><trkpt lat="9.4632157" lon="-75.6020169"><ele>2.8333333333333335</ele><time>2026-04-18T13:45:34.69Z</time></trkpt><trkpt lat="9.4632961" lon="-75.6020081"><ele>2.6666666666666665</ele><time>2026-04-18T13:45:35.686Z</time></trkpt><trkpt lat="9.4633824" lon="-75.6020016"><ele>2.5</ele><time>2026-04-18T13:45:36.687Z</time></trkpt><trkpt lat="9.4634669" lon="-75.6019974"><ele>2.333333333333333</ele><time>2026-04-18T13:45:37.69Z</time></trkpt><trkpt lat="9.4635498" lon="-75.6019979"><ele>2.1666666666666665</ele><time>2026-04-18T13:45:38.689Z</time></trkpt><trkpt lat="9.463634" lon="-75.6019977"><ele>2.0</ele><time>2026-04-18T13:45:39.685Z</time></trkpt><trkpt lat="9.4637111" lon="-75.6020025"><ele>1.9999999999999998</ele><time>2026-04-18T13:45:40.681Z</time></trkpt><trkpt lat="9.4637939" lon="-75.6020124"><ele>2.0</ele><time>2026-04-18T13:45:41.686Z</time></trkpt><trkpt lat="9.4638759" lon="-75.6020207"><ele>2.0</ele><time>2026-04-18T13:45:42.681Z</time></trkpt><trkpt lat="9.4639578" lon="-75.6020323"><ele>2.0</ele><time>2026-04-18T13:45:43.688Z</time></trkpt><trkpt lat="9.4640409" lon="-75.6020414"><ele>1.9999999999999998</ele><time>2026-04-18T13:45:44.684Z</time></trkpt><trkpt lat="9.4641197" lon="-75.6020522"><ele>2.0</ele><time>2026-04-18T13:45:45.687Z</time></trkpt><trkpt lat="9.464201" lon="-75.6020666"><ele>1.9999999999999998</ele><time>2026-04-18T13:45:46.687Z</time></trkpt><trkpt lat="9.4642745" lon="-75.6020865"><ele>2.0</ele><time>2026-04-18T13:45:47.685Z</time></trkpt><trkpt lat="9.4643483" lon="-75.6021046"><ele>2.0</ele><time>2026-04-18T13:45:48.687Z</time></trkpt><trkpt lat="9.4644241" lon="-75.6021253"><ele>2.0</ele><time>2026-04-18T13:45:49.685Z</time></trkpt><trkpt lat="9.4644992" lon="-75.6021473"><ele>1.9999999999999998</ele><time>2026-04-18T13:45:50.689Z</time></trkpt><trkpt lat="9.464572" lon="-75.6021737"><ele>2.0</ele><time>2026-04-18T13:45:51.689Z</time></trkpt><trkpt lat="9.46464" lon="-75.6022011"><ele>1.9999999999999998</ele><time>2026-04-18T13:45:52.693Z</time></trkpt><trkpt lat="9.4647637" lon="-75.6022531"><ele>2.0</ele><time>2026-04-18T13:45:54.688Z</time></trkpt><trkpt lat="9.4648269" lon="-75.6022754"><ele>2.0</ele><time>2026-04-18T13:45:55.684Z</time></trkpt><trkpt lat="9.4648875" lon="-75.6022965"><ele>2.0</ele><time>2026-04-18T13:45:56.684Z</time></trkpt><trkpt lat="9.464949" lon="-75.6023192"><ele>1.9999999999999998</ele><time>2026-04-18T13:45:57.691Z</time></trkpt><trkpt lat="9.4650115" lon="-75.6023444"><ele>2.0</ele><time>2026-04-18T13:45:58.686Z</time></trkpt><trkpt lat="9.465074" lon="-75.6023707"><ele>2.0</ele><time>2026-04-18T13:45:59.687Z</time></trkpt><trkpt lat="9.4651319" lon="-75.6023981"><ele>2.0</ele><time>2026-04-18T13:46:00.689Z</time></trkpt><trkpt lat="9.46524" lon="-75.6024456"><ele>2.0</ele><time>2026-04-18T13:46:02.686Z</time></trkpt><trkpt lat="9.4653317" lon="-75.6024989"><ele>2.0</ele><time>2026-04-18T13:46:04.69Z</time></trkpt><trkpt lat="9.4654204" lon="-75.6025575"><ele>2.0</ele><time>2026-04-18T13:46:06.689Z</time></trkpt><trkpt lat="9.4655004" lon="-75.6026085"><ele>1.8</ele><time>2026-04-18T13:46:08.685Z</time></trkpt><trkpt lat="9.4655796" lon="-75.6026665"><ele>1.6</ele><time>2026-04-18T13:46:10.688Z</time></trkpt><trkpt lat="9.4656637" lon="-75.6027287"><ele>1.4000000000000001</ele><time>2026-04-18T13:46:12.686Z</time></trkpt><trkpt lat="9.4657559" lon="-75.6027933"><ele>1.2000000000000002</ele><time>2026-04-18T13:46:14.688Z</time></trkpt><trkpt lat="9.4658403" lon="-75.6028672"><ele>1.0</ele><time>2026-04-18T13:46:16.686Z</time></trkpt><trkpt lat="9.4659243" lon="-75.602933"><ele>1.0</ele><time>2026-04-18T13:46:18.684Z</time></trkpt><trkpt lat="9.4659992" lon="-75.6029945"><ele>1.0</ele><time>2026-04-18T13:46:20.685Z</time></trkpt><trkpt lat="9.4660641" lon="-75.6030653"><ele>1.0</ele><time>2026-04-18T13:46:22.69Z</time></trkpt><trkpt lat="9.466133" lon="-75.6031396"><ele>1.0</ele><time>2026-04-18T13:46:24.689Z</time></trkpt><trkpt lat="9.4661992" lon="-75.603215"><ele>1.0</ele><time>2026-04-18T13:46:26.685Z</time></trkpt><trkpt lat="9.4662683" lon="-75.6032926"><ele>1.6</ele><time>2026-04-18T13:46:28.686Z</time></trkpt><trkpt lat="9.466346" lon="-75.6033704"><ele>2.2</ele><time>2026-04-18T13:46:30.687Z</time></trkpt><trkpt lat="9.466425" lon="-75.6034661"><ele>2.8000000000000003</ele><time>2026-04-18T13:46:32.689Z</time></trkpt><trkpt lat="9.4664659" lon="-75.6035194"><ele>3.4000000000000004</ele><time>2026-04-18T13:46:33.688Z</time></trkpt><trkpt lat="9.4665352" lon="-75.6036176"><ele>4.0</ele><time>2026-04-18T13:46:35.687Z</time></trkpt><trkpt lat="9.4666024" lon="-75.6037161"><ele>4.166666666666666</ele><time>2026-04-18T13:46:37.685Z</time></trkpt><trkpt lat="9.4666678" lon="-75.6038186"><ele>4.333333333333333</ele><time>2026-04-18T13:46:39.695Z</time></trkpt><trkpt lat="9.4667017" lon="-75.6038727"><ele>4.5</ele><time>2026-04-18T13:46:40.687Z</time></trkpt><trkpt lat="9.4667717" lon="-75.6039788"><ele>4.666666666666667</ele><time>2026-04-18T13:46:42.685Z</time></trkpt><trkpt lat="9.4668049" lon="-75.6040363"><ele>4.833333333333334</ele><time>2026-04-18T13:46:43.685Z</time></trkpt><trkpt lat="9.466839" lon="-75.6040941"><ele>5.0</ele><time>2026-04-18T13:46:44.687Z</time></trkpt><trkpt lat="9.4668715" lon="-75.6041489"><ele>5.0</ele><time>2026-04-18T13:46:45.687Z</time></trkpt><trkpt lat="9.4669076" lon="-75.6042101"><ele>5.0</ele><time>2026-04-18T13:46:46.683Z</time></trkpt><trkpt lat="9.4669438" lon="-75.6042677"><ele>5.0</ele><time>2026-04-18T13:46:47.685Z</time></trkpt><trkpt lat="9.4669805" lon="-75.6043241"><ele>5.0</ele><time>2026-04-18T13:46:48.686Z</time></trkpt><trkpt lat="9.4670531" lon="-75.6044296"><ele>5.0</ele><time>2026-04-18T13:46:50.683Z</time></trkpt><trkpt lat="9.4671148" lon="-75.6045358"><ele>4.5</ele><time>2026-04-18T13:46:52.688Z</time></trkpt><trkpt lat="9.4671844" lon="-75.6046422"><ele>4.0</ele><time>2026-04-18T13:46:54.685Z</time></trkpt><trkpt lat="9.4672207" lon="-75.6046976"><ele>3.5</ele><time>2026-04-18T13:46:55.691Z</time></trkpt><trkpt lat="9.4672666" lon="-75.6047438"><ele>3.0</ele><time>2026-04-18T13:46:56.684Z</time></trkpt><trkpt lat="9.4673224" lon="-75.604781"><ele>2.5</ele><time>2026-04-18T13:46:57.691Z</time></trkpt><trkpt lat="9.4673857" lon="-75.6048055"><ele>2.0</ele><time>2026-04-18T13:46:58.689Z</time></trkpt><trkpt lat="9.467513" lon="-75.6048322"><ele>1.9999999999999998</ele><time>2026-04-18T13:47:00.692Z</time></trkpt><trkpt lat="9.4675796" lon="-75.6048539"><ele>2.0</ele><time>2026-04-18T13:47:01.686Z</time></trkpt><trkpt lat="9.4676417" lon="-75.6048793"><ele>2.0</ele><time>2026-04-18T13:47:02.687Z</time></trkpt><trkpt lat="9.4676985" lon="-75.6049124"><ele>2.0</ele><time>2026-04-18T13:47:03.687Z</time></trkpt><trkpt lat="9.4677511" lon="-75.6049518"><ele>1.9999999999999998</ele><time>2026-04-18T13:47:04.686Z</time></trkpt><trkpt lat="9.4678398" lon="-75.6050475"><ele>2.0</ele><time>2026-04-18T13:47:06.683Z</time></trkpt><trkpt lat="9.4678787" lon="-75.6051026"><ele>2.0</ele><time>2026-04-18T13:47:07.684Z</time></trkpt><trkpt lat="9.467909" lon="-75.6051599"><ele>1.9999999999999998</ele><time>2026-04-18T13:47:08.694Z</time></trkpt><trkpt lat="9.4679353" lon="-75.6052201"><ele>2.0</ele><time>2026-04-18T13:47:09.685Z</time></trkpt><trkpt lat="9.4679602" lon="-75.6052832"><ele>2.0</ele><time>2026-04-18T13:47:10.684Z</time></trkpt><trkpt lat="9.467994" lon="-75.6053443"><ele>1.9999999999999998</ele><time>2026-04-18T13:47:11.687Z</time></trkpt><trkpt lat="9.4680393" lon="-75.6054009"><ele>2.0</ele><time>2026-04-18T13:47:12.685Z</time></trkpt><trkpt lat="9.4680897" lon="-75.6054505"><ele>2.0</ele><time>2026-04-18T13:47:13.686Z</time></trkpt><trkpt lat="9.4681477" lon="-75.6054903"><ele>2.571428571428571</ele><time>2026-04-18T13:47:14.69Z</time></trkpt><trkpt lat="9.468214" lon="-75.6055201"><ele>3.1428571428571423</ele><time>2026-04-18T13:47:15.686Z</time></trkpt><trkpt lat="9.4682786" lon="-75.6055405"><ele>3.714285714285714</ele><time>2026-04-18T13:47:16.689Z</time></trkpt><trkpt lat="9.4683478" lon="-75.6055493"><ele>4.285714285714286</ele><time>2026-04-18T13:47:17.685Z</time></trkpt><trkpt lat="9.4684172" lon="-75.6055432"><ele>4.857142857142857</ele><time>2026-04-18T13:47:18.688Z</time></trkpt><trkpt lat="9.4684852" lon="-75.6055271"><ele>5.428571428571428</ele><time>2026-04-18T13:47:19.683Z</time></trkpt><trkpt lat="9.4685452" lon="-75.6055028"><ele>6.0</ele><time>2026-04-18T13:47:20.686Z</time></trkpt><trkpt lat="9.4686122" lon="-75.6054681"><ele>6.0</ele><time>2026-04-18T13:47:21.686Z</time></trkpt><trkpt lat="9.4686723" lon="-75.6054316"><ele>6.0</ele><time>2026-04-18T13:47:22.687Z</time></trkpt><trkpt lat="9.4687427" lon="-75.605397"><ele>6.0</ele><time>2026-04-18T13:47:23.689Z</time></trkpt><trkpt lat="9.4688006" lon="-75.6053627"><ele>6.0</ele><time>2026-04-18T13:47:24.69Z</time></trkpt><trkpt lat="9.4688559" lon="-75.6053267"><ele>6.0</ele><time>2026-04-18T13:47:25.689Z</time></trkpt><trkpt lat="9.468909" lon="-75.6052908"><ele>6.0</ele><time>2026-04-18T13:47:26.684Z</time></trkpt><trkpt lat="9.4690182" lon="-75.6052304"><ele>5.5</ele><time>2026-04-18T13:47:28.684Z</time></trkpt><trkpt lat="9.469124" lon="-75.6051621"><ele>5.0</ele><time>2026-04-18T13:47:30.685Z</time></trkpt><trkpt lat="9.4692239" lon="-75.6051079"><ele>4.5</ele><time>2026-04-18T13:47:32.685Z</time></trkpt><trkpt lat="9.4693207" lon="-75.6050528"><ele>4.0</ele><time>2026-04-18T13:47:34.689Z</time></trkpt><trkpt lat="9.4694239" lon="-75.6049943"><ele>4.0</ele><time>2026-04-18T13:47:36.693Z</time></trkpt><trkpt lat="9.4695342" lon="-75.6049378"><ele>4.0</ele><time>2026-04-18T13:47:38.686Z</time></trkpt><trkpt lat="9.4695915" lon="-75.6049048"><ele>4.0</ele><time>2026-04-18T13:47:39.688Z</time></trkpt><trkpt lat="9.4696481" lon="-75.6048726"><ele>4.0</ele><time>2026-04-18T13:47:40.684Z</time></trkpt><trkpt lat="9.4697588" lon="-75.6048119"><ele>4.0</ele><time>2026-04-18T13:47:42.688Z</time></trkpt><trkpt lat="9.4698661" lon="-75.6047517"><ele>3.833333333333333</ele><time>2026-04-18T13:47:44.686Z</time></trkpt><trkpt lat="9.4699748" lon="-75.604696"><ele>3.6666666666666665</ele><time>2026-04-18T13:47:46.687Z</time></trkpt><trkpt lat="9.4700804" lon="-75.6046345"><ele>3.5</ele><time>2026-04-18T13:47:48.69Z</time></trkpt><trkpt lat="9.4701372" lon="-75.6046007"><ele>3.333333333333333</ele><time>2026-04-18T13:47:49.686Z</time></trkpt><trkpt lat="9.4701982" lon="-75.6045662"><ele>3.1666666666666665</ele><time>2026-04-18T13:47:50.685Z</time></trkpt><trkpt lat="9.4702609" lon="-75.6045342"><ele>3.0</ele><time>2026-04-18T13:47:51.685Z</time></trkpt><trkpt lat="9.4703243" lon="-75.6044946"><ele>3.2857142857142856</ele><time>2026-04-18T13:47:52.689Z</time></trkpt><trkpt lat="9.4703859" lon="-75.6044588"><ele>3.571428571428571</ele><time>2026-04-18T13:47:53.69Z</time></trkpt><trkpt lat="9.4704488" lon="-75.6044249"><ele>3.8571428571428568</ele><time>2026-04-18T13:47:54.687Z</time></trkpt><trkpt lat="9.4705151" lon="-75.6043905"><ele>4.142857142857142</ele><time>2026-04-18T13:47:55.688Z</time></trkpt><trkpt lat="9.4705773" lon="-75.6043591"><ele>4.428571428571429</ele><time>2026-04-18T13:47:56.687Z</time></trkpt><trkpt lat="9.4706398" lon="-75.6043248"><ele>4.714285714285714</ele><time>2026-04-18T13:47:57.685Z</time></trkpt><trkpt lat="9.4707012" lon="-75.6042914"><ele>5.0</ele><time>2026-04-18T13:47:58.686Z</time></trkpt><trkpt lat="9.470756" lon="-75.6042592"><ele>5.142857142857142</ele><time>2026-04-18T13:47:59.686Z</time></trkpt><trkpt lat="9.4708143" lon="-75.6042263"><ele>5.285714285714286</ele><time>2026-04-18T13:48:00.687Z</time></trkpt><trkpt lat="9.4708676" lon="-75.604191"><ele>5.428571428571429</ele><time>2026-04-18T13:48:01.685Z</time></trkpt><trkpt lat="9.4709301" lon="-75.6041552"><ele>5.571428571428571</ele><time>2026-04-18T13:48:02.689Z</time></trkpt><trkpt lat="9.470995" lon="-75.6041161"><ele>5.714285714285714</ele><time>2026-04-18T13:48:03.687Z</time></trkpt><trkpt lat="9.4710576" lon="-75.6040801"><ele>5.857142857142857</ele><time>2026-04-18T13:48:04.685Z</time></trkpt><trkpt lat="9.4711157" lon="-75.6040472"><ele>6.0</ele><time>2026-04-18T13:48:05.681Z</time></trkpt><trkpt lat="9.4711715" lon="-75.604016"><ele>5.999999999999999</ele><time>2026-04-18T13:48:06.682Z</time></trkpt><trkpt lat="9.4712305" lon="-75.6039809"><ele>6.0</ele><time>2026-04-18T13:48:07.685Z</time></trkpt><trkpt lat="9.471292" lon="-75.6039436"><ele>6.0</ele><time>2026-04-18T13:48:08.693Z</time></trkpt><trkpt lat="9.471352" lon="-75.6039085"><ele>6.0</ele><time>2026-04-18T13:48:09.682Z</time></trkpt><trkpt lat="9.4714146" lon="-75.6038725"><ele>6.0</ele><time>2026-04-18T13:48:10.683Z</time></trkpt><trkpt lat="9.471476" lon="-75.6038381"><ele>5.999999999999999</ele><time>2026-04-18T13:48:11.684Z</time></trkpt><trkpt lat="9.471539" lon="-75.6038042"><ele>6.0</ele><time>2026-04-18T13:48:12.682Z</time></trkpt><trkpt lat="9.4716015" lon="-75.6037684"><ele>6.142857142857142</ele><time>2026-04-18T13:48:13.687Z</time></trkpt><trkpt lat="9.4716616" lon="-75.6037309"><ele>6.285714285714286</ele><time>2026-04-18T13:48:14.687Z</time></trkpt><trkpt lat="9.4717265" lon="-75.603695"><ele>6.428571428571429</ele><time>2026-04-18T13:48:15.684Z</time></trkpt><trkpt lat="9.4717862" lon="-75.6036661"><ele>6.571428571428571</ele><time>2026-04-18T13:48:16.68Z</time></trkpt><trkpt lat="9.4718467" lon="-75.6036318"><ele>6.714285714285714</ele><time>2026-04-18T13:48:17.684Z</time></trkpt><trkpt lat="9.4719117" lon="-75.6035972"><ele>6.857142857142857</ele><time>2026-04-18T13:48:18.688Z</time></trkpt><trkpt lat="9.4719776" lon="-75.6035703"><ele>7.0</ele><time>2026-04-18T13:48:19.686Z</time></trkpt><trkpt lat="9.4720388" lon="-75.6035351"><ele>6.571428571428571</ele><time>2026-04-18T13:48:20.687Z</time></trkpt><trkpt lat="9.4720995" lon="-75.6035046"><ele>6.142857142857142</ele><time>2026-04-18T13:48:21.687Z</time></trkpt><trkpt lat="9.4721623" lon="-75.6034709"><ele>5.714285714285714</ele><time>2026-04-18T13:48:22.686Z</time></trkpt><trkpt lat="9.4722236" lon="-75.6034354"><ele>5.285714285714286</ele><time>2026-04-18T13:48:23.686Z</time></trkpt><trkpt lat="9.4722866" lon="-75.6034009"><ele>4.857142857142857</ele><time>2026-04-18T13:48:24.685Z</time></trkpt><trkpt lat="9.4723535" lon="-75.6033651"><ele>4.428571428571429</ele><time>2026-04-18T13:48:25.686Z</time></trkpt><trkpt lat="9.4724157" lon="-75.6033283"><ele>4.0</ele><time>2026-04-18T13:48:26.685Z</time></trkpt><trkpt lat="9.4724797" lon="-75.6032918"><ele>3.9999999999999996</ele><time>2026-04-18T13:48:27.685Z</time></trkpt><trkpt lat="9.4725441" lon="-75.603256"><ele>4.0</ele><time>2026-04-18T13:48:28.684Z</time></trkpt><trkpt lat="9.4726085" lon="-75.6032186"><ele>4.0</ele><time>2026-04-18T13:48:29.684Z</time></trkpt><trkpt lat="9.4726738" lon="-75.6031809"><ele>4.0</ele><time>2026-04-18T13:48:30.689Z</time></trkpt><trkpt lat="9.4727433" lon="-75.6031389"><ele>3.9999999999999996</ele><time>2026-04-18T13:48:31.685Z</time></trkpt><trkpt lat="9.4728027" lon="-75.6030989"><ele>4.0</ele><time>2026-04-18T13:48:32.686Z</time></trkpt><trkpt lat="9.4728704" lon="-75.6030625"><ele>3.9999999999999996</ele><time>2026-04-18T13:48:33.687Z</time></trkpt><trkpt lat="9.4729336" lon="-75.6030241"><ele>4.0</ele><time>2026-04-18T13:48:34.686Z</time></trkpt><trkpt lat="9.4730045" lon="-75.6029922"><ele>4.0</ele><time>2026-04-18T13:48:35.686Z</time></trkpt><trkpt lat="9.4730667" lon="-75.6029517"><ele>4.0</ele><time>2026-04-18T13:48:36.685Z</time></trkpt><trkpt lat="9.473139" lon="-75.6029065"><ele>3.9999999999999996</ele><time>2026-04-18T13:48:37.688Z</time></trkpt><trkpt lat="9.4732027" lon="-75.6028694"><ele>4.0</ele><time>2026-04-18T13:48:38.686Z</time></trkpt><trkpt lat="9.4732634" lon="-75.602833"><ele>3.833333333333333</ele><time>2026-04-18T13:48:39.687Z</time></trkpt><trkpt lat="9.4733249" lon="-75.6027918"><ele>3.6666666666666665</ele><time>2026-04-18T13:48:40.687Z</time></trkpt><trkpt lat="9.4733899" lon="-75.6027502"><ele>3.5</ele><time>2026-04-18T13:48:41.691Z</time></trkpt><trkpt lat="9.4734572" lon="-75.6027101"><ele>3.333333333333333</ele><time>2026-04-18T13:48:42.687Z</time></trkpt><trkpt lat="9.473526" lon="-75.6026642"><ele>3.1666666666666665</ele><time>2026-04-18T13:48:43.687Z</time></trkpt><trkpt lat="9.4735879" lon="-75.6026219"><ele>3.0</ele><time>2026-04-18T13:48:44.68Z</time></trkpt><trkpt lat="9.4736529" lon="-75.6025764"><ele>3.0</ele><time>2026-04-18T13:48:45.682Z</time></trkpt><trkpt lat="9.473723" lon="-75.6025359"><ele>3.0</ele><time>2026-04-18T13:48:46.684Z</time></trkpt><trkpt lat="9.4737889" lon="-75.6024935"><ele>3.0</ele><time>2026-04-18T13:48:47.684Z</time></trkpt><trkpt lat="9.4738583" lon="-75.602453"><ele>3.0</ele><time>2026-04-18T13:48:48.683Z</time></trkpt><trkpt lat="9.4739287" lon="-75.6024129"><ele>3.0</ele><time>2026-04-18T13:48:49.682Z</time></trkpt><trkpt lat="9.4739905" lon="-75.6023745"><ele>3.0</ele><time>2026-04-18T13:48:50.684Z</time></trkpt><trkpt lat="9.4740606" lon="-75.6023364"><ele>3.3333333333333335</ele><time>2026-04-18T13:48:51.685Z</time></trkpt><trkpt lat="9.4741285" lon="-75.6022948"><ele>3.666666666666667</ele><time>2026-04-18T13:48:52.685Z</time></trkpt><trkpt lat="9.4742032" lon="-75.60225"><ele>4.0</ele><time>2026-04-18T13:48:53.683Z</time></trkpt><trkpt lat="9.4742794" lon="-75.6022051"><ele>4.333333333333334</ele><time>2026-04-18T13:48:54.685Z</time></trkpt><trkpt lat="9.4743406" lon="-75.6021674"><ele>4.666666666666667</ele><time>2026-04-18T13:48:55.684Z</time></trkpt><trkpt lat="9.4744071" lon="-75.6021333"><ele>5.0</ele><time>2026-04-18T13:48:56.687Z</time></trkpt><trkpt lat="9.474472" lon="-75.6020946"><ele>5.0</ele><time>2026-04-18T13:48:57.689Z</time></trkpt><trkpt lat="9.4745403" lon="-75.6020557"><ele>5.0</ele><time>2026-04-18T13:48:58.684Z</time></trkpt><trkpt lat="9.4746059" lon="-75.6020133"><ele>5.0</ele><time>2026-04-18T13:48:59.69Z</time></trkpt><trkpt lat="9.47467" lon="-75.6019734"><ele>5.0</ele><time>2026-04-18T13:49:00.683Z</time></trkpt><trkpt lat="9.4747438" lon="-75.6019325"><ele>5.0</ele><time>2026-04-18T13:49:01.69Z</time></trkpt><trkpt lat="9.4748212" lon="-75.6018869"><ele>5.0</ele><time>2026-04-18T13:49:02.688Z</time></trkpt><trkpt lat="9.4748911" lon="-75.6018487"><ele>5.0</ele><time>2026-04-18T13:49:03.684Z</time></trkpt><trkpt lat="9.4749581" lon="-75.6018029"><ele>5.0</ele><time>2026-04-18T13:49:04.686Z</time></trkpt><trkpt lat="9.4750225" lon="-75.6017637"><ele>5.0</ele><time>2026-04-18T13:49:05.686Z</time></trkpt><trkpt lat="9.4750919" lon="-75.6017267"><ele>5.0</ele><time>2026-04-18T13:49:06.689Z</time></trkpt><trkpt lat="9.4751604" lon="-75.601678"><ele>5.0</ele><time>2026-04-18T13:49:07.688Z</time></trkpt><trkpt lat="9.475232" lon="-75.6016398"><ele>5.0</ele><time>2026-04-18T13:49:08.686Z</time></trkpt><trkpt lat="9.4752954" lon="-75.6016013"><ele>5.0</ele><time>2026-04-18T13:49:09.684Z</time></trkpt><trkpt lat="9.4753578" lon="-75.6015708"><ele>5.0</ele><time>2026-04-18T13:49:10.684Z</time></trkpt><trkpt lat="9.4754196" lon="-75.6015356"><ele>5.0</ele><time>2026-04-18T13:49:11.685Z</time></trkpt><trkpt lat="9.4754817" lon="-75.6014992"><ele>5.0</ele><time>2026-04-18T13:49:12.686Z</time></trkpt><trkpt lat="9.4755462" lon="-75.6014603"><ele>5.0</ele><time>2026-04-18T13:49:13.687Z</time></trkpt><trkpt lat="9.4756073" lon="-75.6014176"><ele>5.0</ele><time>2026-04-18T13:49:14.686Z</time></trkpt><trkpt lat="9.4756724" lon="-75.601381"><ele>5.0</ele><time>2026-04-18T13:49:15.684Z</time></trkpt><trkpt lat="9.4757397" lon="-75.6013413"><ele>4.857142857142857</ele><time>2026-04-18T13:49:16.685Z</time></trkpt><trkpt lat="9.4758072" lon="-75.6013034"><ele>4.714285714285714</ele><time>2026-04-18T13:49:17.685Z</time></trkpt><trkpt lat="9.4758715" lon="-75.6012659"><ele>4.571428571428571</ele><time>2026-04-18T13:49:18.686Z</time></trkpt><trkpt lat="9.4759362" lon="-75.6012323"><ele>4.428571428571429</ele><time>2026-04-18T13:49:19.687Z</time></trkpt><trkpt lat="9.4759993" lon="-75.6011967"><ele>4.285714285714286</ele><time>2026-04-18T13:49:20.687Z</time></trkpt><trkpt lat="9.476063" lon="-75.6011685"><ele>4.142857142857142</ele><time>2026-04-18T13:49:21.69Z</time></trkpt><trkpt lat="9.4761306" lon="-75.601137"><ele>4.0</ele><time>2026-04-18T13:49:22.69Z</time></trkpt><trkpt lat="9.4761983" lon="-75.6011069"><ele>4.0</ele><time>2026-04-18T13:49:23.688Z</time></trkpt><trkpt lat="9.4762602" lon="-75.6010754"><ele>3.9999999999999996</ele><time>2026-04-18T13:49:24.69Z</time></trkpt><trkpt lat="9.4763167" lon="-75.6010466"><ele>4.0</ele><time>2026-04-18T13:49:25.685Z</time></trkpt><trkpt lat="9.4763812" lon="-75.6010163"><ele>4.0</ele><time>2026-04-18T13:49:26.686Z</time></trkpt><trkpt lat="9.4764483" lon="-75.6009858"><ele>3.9999999999999996</ele><time>2026-04-18T13:49:27.687Z</time></trkpt><trkpt lat="9.4765102" lon="-75.6009595"><ele>4.0</ele><time>2026-04-18T13:49:28.683Z</time></trkpt><trkpt lat="9.4765697" lon="-75.6009298"><ele>4.0</ele><time>2026-04-18T13:49:29.685Z</time></trkpt><trkpt lat="9.4766346" lon="-75.6009043"><ele>4.0</ele><time>2026-04-18T13:49:30.685Z</time></trkpt><trkpt lat="9.4766941" lon="-75.6008804"><ele>3.9999999999999996</ele><time>2026-04-18T13:49:31.69Z</time></trkpt><trkpt lat="9.4767534" lon="-75.6008535"><ele>4.0</ele><time>2026-04-18T13:49:32.683Z</time></trkpt><trkpt lat="9.4768129" lon="-75.6008286"><ele>4.0</ele><time>2026-04-18T13:49:33.687Z</time></trkpt><trkpt lat="9.4768776" lon="-75.6007953"><ele>3.9999999999999996</ele><time>2026-04-18T13:49:34.682Z</time></trkpt><trkpt lat="9.4769491" lon="-75.6007672"><ele>4.0</ele><time>2026-04-18T13:49:35.682Z</time></trkpt><trkpt lat="9.4770196" lon="-75.6007384"><ele>4.0</ele><time>2026-04-18T13:49:36.683Z</time></trkpt><trkpt lat="9.4770883" lon="-75.6007093"><ele>3.9999999999999996</ele><time>2026-04-18T13:49:37.685Z</time></trkpt><trkpt lat="9.4771587" lon="-75.6006777"><ele>4.0</ele><time>2026-04-18T13:49:38.684Z</time></trkpt><trkpt lat="9.4772277" lon="-75.6006472"><ele>4.0</ele><time>2026-04-18T13:49:39.686Z</time></trkpt><trkpt lat="9.4772928" lon="-75.6006171"><ele>4.0</ele><time>2026-04-18T13:49:40.681Z</time></trkpt><trkpt lat="9.4773614" lon="-75.6005903"><ele>3.9999999999999996</ele><time>2026-04-18T13:49:41.687Z</time></trkpt><trkpt lat="9.4774378" lon="-75.6005597"><ele>4.0</ele><time>2026-04-18T13:49:42.688Z</time></trkpt><trkpt lat="9.477511" lon="-75.6005286"><ele>3.9999999999999996</ele><time>2026-04-18T13:49:43.687Z</time></trkpt><trkpt lat="9.4775808" lon="-75.6004936"><ele>4.0</ele><time>2026-04-18T13:49:44.687Z</time></trkpt><trkpt lat="9.4776518" lon="-75.6004599"><ele>4.0</ele><time>2026-04-18T13:49:45.688Z</time></trkpt><trkpt lat="9.4777225" lon="-75.6004262"><ele>4.0</ele><time>2026-04-18T13:49:46.689Z</time></trkpt><trkpt lat="9.4777944" lon="-75.6003899"><ele>3.9999999999999996</ele><time>2026-04-18T13:49:47.688Z</time></trkpt><trkpt lat="9.4778686" lon="-75.6003532"><ele>4.0</ele><time>2026-04-18T13:49:48.688Z</time></trkpt><trkpt lat="9.477939" lon="-75.6003143"><ele>4.166666666666666</ele><time>2026-04-18T13:49:49.686Z</time></trkpt><trkpt lat="9.4780072" lon="-75.6002774"><ele>4.333333333333333</ele><time>2026-04-18T13:49:50.685Z</time></trkpt><trkpt lat="9.4780771" lon="-75.6002443"><ele>4.5</ele><time>2026-04-18T13:49:51.686Z</time></trkpt><trkpt lat="9.4781491" lon="-75.600205"><ele>4.666666666666667</ele><time>2026-04-18T13:49:52.685Z</time></trkpt><trkpt lat="9.4782218" lon="-75.6001683"><ele>4.833333333333334</ele><time>2026-04-18T13:49:53.687Z</time></trkpt><trkpt lat="9.4782894" lon="-75.6001331"><ele>5.0</ele><time>2026-04-18T13:49:54.687Z</time></trkpt><trkpt lat="9.4783605" lon="-75.6000887"><ele>5.0</ele><time>2026-04-18T13:49:55.684Z</time></trkpt><trkpt lat="9.4784344" lon="-75.6000476"><ele>5.0</ele><time>2026-04-18T13:49:56.684Z</time></trkpt><trkpt lat="9.4785056" lon="-75.6000095"><ele>5.0</ele><time>2026-04-18T13:49:57.683Z</time></trkpt><trkpt lat="9.4785754" lon="-75.5999717"><ele>5.0</ele><time>2026-04-18T13:49:58.685Z</time></trkpt><trkpt lat="9.4786455" lon="-75.5999368"><ele>5.0</ele><time>2026-04-18T13:49:59.687Z</time></trkpt><trkpt lat="9.478716" lon="-75.5999014"><ele>5.0</ele><time>2026-04-18T13:50:00.693Z</time></trkpt><trkpt lat="9.4787859" lon="-75.5998678"><ele>5.166666666666667</ele><time>2026-04-18T13:50:01.685Z</time></trkpt><trkpt lat="9.4788613" lon="-75.5998324"><ele>5.333333333333334</ele><time>2026-04-18T13:50:02.685Z</time></trkpt><trkpt lat="9.4789314" lon="-75.5997949"><ele>5.5</ele><time>2026-04-18T13:50:03.684Z</time></trkpt><trkpt lat="9.4789955" lon="-75.599762"><ele>5.666666666666667</ele><time>2026-04-18T13:50:04.685Z</time></trkpt><trkpt lat="9.4790627" lon="-75.5997225"><ele>5.833333333333333</ele><time>2026-04-18T13:50:05.686Z</time></trkpt><trkpt lat="9.4791259" lon="-75.5996857"><ele>6.0</ele><time>2026-04-18T13:50:06.688Z</time></trkpt><trkpt lat="9.4791923" lon="-75.599651"><ele>5.999999999999999</ele><time>2026-04-18T13:50:07.685Z</time></trkpt><trkpt lat="9.4792547" lon="-75.5996179"><ele>6.0</ele><time>2026-04-18T13:50:08.686Z</time></trkpt><trkpt lat="9.4793273" lon="-75.5995778"><ele>6.0</ele><time>2026-04-18T13:50:09.687Z</time></trkpt><trkpt lat="9.4793898" lon="-75.599548"><ele>6.0</ele><time>2026-04-18T13:50:10.686Z</time></trkpt><trkpt lat="9.4794532" lon="-75.5995121"><ele>6.0</ele><time>2026-04-18T13:50:11.685Z</time></trkpt><trkpt lat="9.4795225" lon="-75.5994751"><ele>5.999999999999999</ele><time>2026-04-18T13:50:12.686Z</time></trkpt><trkpt lat="9.4795811" lon="-75.5994453"><ele>6.0</ele><time>2026-04-18T13:50:13.685Z</time></trkpt><trkpt lat="9.4796439" lon="-75.5994133"><ele>5.571428571428571</ele><time>2026-04-18T13:50:14.685Z</time></trkpt><trkpt lat="9.4797053" lon="-75.5993779"><ele>5.142857142857142</ele><time>2026-04-18T13:50:15.691Z</time></trkpt><trkpt lat="9.4797698" lon="-75.5993447"><ele>4.7142857142857135</ele><time>2026-04-18T13:50:16.686Z</time></trkpt><trkpt lat="9.4798353" lon="-75.5993134"><ele>4.285714285714286</ele><time>2026-04-18T13:50:17.69Z</time></trkpt><trkpt lat="9.4798972" lon="-75.5992838"><ele>3.8571428571428568</ele><time>2026-04-18T13:50:18.683Z</time></trkpt><trkpt lat="9.4799599" lon="-75.5992525"><ele>3.4285714285714284</ele><time>2026-04-18T13:50:19.686Z</time></trkpt><trkpt lat="9.4800246" lon="-75.59922"><ele>3.0</ele><time>2026-04-18T13:50:20.683Z</time></trkpt><trkpt lat="9.4800876" lon="-75.5991851"><ele>2.9999999999999996</ele><time>2026-04-18T13:50:21.683Z</time></trkpt><trkpt lat="9.4801498" lon="-75.5991487"><ele>3.0</ele><time>2026-04-18T13:50:22.687Z</time></trkpt><trkpt lat="9.4802107" lon="-75.5991173"><ele>3.0</ele><time>2026-04-18T13:50:23.689Z</time></trkpt><trkpt lat="9.4802752" lon="-75.5990815"><ele>3.0</ele><time>2026-04-18T13:50:24.687Z</time></trkpt><trkpt lat="9.4803394" lon="-75.5990498"><ele>3.0</ele><time>2026-04-18T13:50:25.687Z</time></trkpt><trkpt lat="9.4804027" lon="-75.5990092"><ele>2.9999999999999996</ele><time>2026-04-18T13:50:26.692Z</time></trkpt><trkpt lat="9.4804643" lon="-75.5989705"><ele>3.0</ele><time>2026-04-18T13:50:27.689Z</time></trkpt><trkpt lat="9.4805324" lon="-75.5989303"><ele>3.0</ele><time>2026-04-18T13:50:28.684Z</time></trkpt><trkpt lat="9.4806001" lon="-75.598891"><ele>3.0</ele><time>2026-04-18T13:50:29.686Z</time></trkpt><trkpt lat="9.4806677" lon="-75.5988478"><ele>3.0</ele><time>2026-04-18T13:50:30.688Z</time></trkpt><trkpt lat="9.4807382" lon="-75.5988127"><ele>3.0</ele><time>2026-04-18T13:50:31.695Z</time></trkpt><trkpt lat="9.480811" lon="-75.5987729"><ele>3.0</ele><time>2026-04-18T13:50:32.696Z</time></trkpt><trkpt lat="9.4808787" lon="-75.598735"><ele>3.0</ele><time>2026-04-18T13:50:33.684Z</time></trkpt><trkpt lat="9.4809477" lon="-75.5987007"><ele>3.0</ele><time>2026-04-18T13:50:34.694Z</time></trkpt><trkpt lat="9.4810154" lon="-75.5986608"><ele>3.0</ele><time>2026-04-18T13:50:35.695Z</time></trkpt><trkpt lat="9.48108" lon="-75.5986224"><ele>3.0</ele><time>2026-04-18T13:50:36.695Z</time></trkpt><trkpt lat="9.4811515" lon="-75.5985831"><ele>3.0</ele><time>2026-04-18T13:50:37.695Z</time></trkpt><trkpt lat="9.4812265" lon="-75.5985375"><ele>3.0</ele><time>2026-04-18T13:50:38.689Z</time></trkpt><trkpt lat="9.4813" lon="-75.5985011"><ele>3.0</ele><time>2026-04-18T13:50:39.687Z</time></trkpt><trkpt lat="9.4813679" lon="-75.5984603"><ele>3.0</ele><time>2026-04-18T13:50:40.696Z</time></trkpt><trkpt lat="9.4814359" lon="-75.5984179"><ele>3.0</ele><time>2026-04-18T13:50:41.695Z</time></trkpt><trkpt lat="9.481511" lon="-75.5983794"><ele>3.0</ele><time>2026-04-18T13:50:42.695Z</time></trkpt><trkpt lat="9.4815842" lon="-75.5983388"><ele>3.0</ele><time>2026-04-18T13:50:43.695Z</time></trkpt><trkpt lat="9.4816554" lon="-75.5983013"><ele>3.0</ele><time>2026-04-18T13:50:44.687Z</time></trkpt><trkpt lat="9.4817278" lon="-75.5982579"><ele>3.0</ele><time>2026-04-18T13:50:45.682Z</time></trkpt><trkpt lat="9.4817955" lon="-75.5982193"><ele>3.0</ele><time>2026-04-18T13:50:46.695Z</time></trkpt><trkpt lat="9.4818671" lon="-75.5981766"><ele>3.0</ele><time>2026-04-18T13:50:47.695Z</time></trkpt><trkpt lat="9.4819423" lon="-75.5981337"><ele>3.0</ele><time>2026-04-18T13:50:48.688Z</time></trkpt><trkpt lat="9.4820096" lon="-75.5980919"><ele>3.0</ele><time>2026-04-18T13:50:49.688Z</time></trkpt><trkpt lat="9.4820768" lon="-75.5980531"><ele>3.0</ele><time>2026-04-18T13:50:50.695Z</time></trkpt><trkpt lat="9.482148" lon="-75.5980135"><ele>3.0</ele><time>2026-04-18T13:50:51.695Z</time></trkpt><trkpt lat="9.4822189" lon="-75.5979757"><ele>2.8333333333333335</ele><time>2026-04-18T13:50:52.695Z</time></trkpt><trkpt lat="9.4822912" lon="-75.5979328"><ele>2.6666666666666665</ele><time>2026-04-18T13:50:53.686Z</time></trkpt><trkpt lat="9.4823591" lon="-75.5978934"><ele>2.5</ele><time>2026-04-18T13:50:54.69Z</time></trkpt><trkpt lat="9.4824325" lon="-75.5978549"><ele>2.333333333333333</ele><time>2026-04-18T13:50:55.689Z</time></trkpt><trkpt lat="9.4825069" lon="-75.5978131"><ele>2.1666666666666665</ele><time>2026-04-18T13:50:56.68Z</time></trkpt><trkpt lat="9.4825813" lon="-75.5977731"><ele>2.0</ele><time>2026-04-18T13:50:57.688Z</time></trkpt><trkpt lat="9.4826524" lon="-75.5977316"><ele>1.9999999999999998</ele><time>2026-04-18T13:50:58.686Z</time></trkpt><trkpt lat="9.4827276" lon="-75.597692"><ele>2.0</ele><time>2026-04-18T13:50:59.686Z</time></trkpt><trkpt lat="9.4827988" lon="-75.5976544"><ele>2.0</ele><time>2026-04-18T13:51:00.69Z</time></trkpt><trkpt lat="9.4828735" lon="-75.5976136"><ele>2.0</ele><time>2026-04-18T13:51:01.686Z</time></trkpt><trkpt lat="9.4829415" lon="-75.5975744"><ele>1.9999999999999998</ele><time>2026-04-18T13:51:02.682Z</time></trkpt><trkpt lat="9.4830198" lon="-75.5975332"><ele>2.0</ele><time>2026-04-18T13:51:03.682Z</time></trkpt><trkpt lat="9.4830961" lon="-75.5974963"><ele>2.1666666666666665</ele><time>2026-04-18T13:51:04.684Z</time></trkpt><trkpt lat="9.4831709" lon="-75.5974615"><ele>2.333333333333333</ele><time>2026-04-18T13:51:05.686Z</time></trkpt><trkpt lat="9.4832547" lon="-75.5974254"><ele>2.5</ele><time>2026-04-18T13:51:06.682Z</time></trkpt><trkpt lat="9.4833332" lon="-75.5973873"><ele>2.6666666666666665</ele><time>2026-04-18T13:51:07.687Z</time></trkpt><trkpt lat="9.4834119" lon="-75.5973499"><ele>2.8333333333333335</ele><time>2026-04-18T13:51:08.682Z</time></trkpt><trkpt lat="9.4834901" lon="-75.5973143"><ele>3.0</ele><time>2026-04-18T13:51:09.696Z</time></trkpt><trkpt lat="9.4835675" lon="-75.5972768"><ele>3.0</ele><time>2026-04-18T13:51:10.687Z</time></trkpt><trkpt lat="9.4836443" lon="-75.5972396"><ele>3.0</ele><time>2026-04-18T13:51:11.696Z</time></trkpt><trkpt lat="9.4837235" lon="-75.5972012"><ele>3.0</ele><time>2026-04-18T13:51:12.695Z</time></trkpt><trkpt lat="9.4838045" lon="-75.5971631"><ele>3.0</ele><time>2026-04-18T13:51:13.695Z</time></trkpt><trkpt lat="9.4838842" lon="-75.5971305"><ele>3.0</ele><time>2026-04-18T13:51:14.696Z</time></trkpt><trkpt lat="9.4839613" lon="-75.5970954"><ele>3.0</ele><time>2026-04-18T13:51:15.691Z</time></trkpt><trkpt lat="9.4840373" lon="-75.5970622"><ele>2.8333333333333335</ele><time>2026-04-18T13:51:16.687Z</time></trkpt><trkpt lat="9.4841145" lon="-75.5970289"><ele>2.6666666666666665</ele><time>2026-04-18T13:51:17.69Z</time></trkpt><trkpt lat="9.4841943" lon="-75.5969951"><ele>2.5</ele><time>2026-04-18T13:51:18.684Z</time></trkpt><trkpt lat="9.4842707" lon="-75.5969589"><ele>2.333333333333333</ele><time>2026-04-18T13:51:19.684Z</time></trkpt><trkpt lat="9.4843445" lon="-75.5969213"><ele>2.1666666666666665</ele><time>2026-04-18T13:51:20.695Z</time></trkpt><trkpt lat="9.4844151" lon="-75.5968818"><ele>2.0</ele><time>2026-04-18T13:51:21.695Z</time></trkpt><trkpt lat="9.4844789" lon="-75.5968415"><ele>1.9999999999999998</ele><time>2026-04-18T13:51:22.696Z</time></trkpt><trkpt lat="9.4845432" lon="-75.5967942"><ele>2.0</ele><time>2026-04-18T13:51:23.686Z</time></trkpt><trkpt lat="9.4846001" lon="-75.5967449"><ele>2.0</ele><time>2026-04-18T13:51:24.684Z</time></trkpt><trkpt lat="9.4846488" lon="-75.5966972"><ele>2.0</ele><time>2026-04-18T13:51:25.695Z</time></trkpt><trkpt lat="9.4847012" lon="-75.5966489"><ele>1.9999999999999998</ele><time>2026-04-18T13:51:26.695Z</time></trkpt><trkpt lat="9.4847517" lon="-75.5966014"><ele>2.0</ele><time>2026-04-18T13:51:27.684Z</time></trkpt><trkpt lat="9.4848345" lon="-75.5965056"><ele>1.9999999999999998</ele><time>2026-04-18T13:51:29.688Z</time></trkpt><trkpt lat="9.4849065" lon="-75.5964036"><ele>2.0</ele><time>2026-04-18T13:51:31.686Z</time></trkpt><trkpt lat="9.4849503" lon="-75.5963506"><ele>2.0</ele><time>2026-04-18T13:51:32.695Z</time></trkpt><trkpt lat="9.4849923" lon="-75.596301"><ele>2.0</ele><time>2026-04-18T13:51:33.695Z</time></trkpt><trkpt lat="9.4850362" lon="-75.5962505"><ele>1.9999999999999998</ele><time>2026-04-18T13:51:34.695Z</time></trkpt><trkpt lat="9.4850725" lon="-75.5961946"><ele>2.0</ele><time>2026-04-18T13:51:35.687Z</time></trkpt><trkpt lat="9.4851011" lon="-75.5961363"><ele>2.0</ele><time>2026-04-18T13:51:36.695Z</time></trkpt><trkpt lat="9.4851182" lon="-75.596064"><ele>1.9999999999999998</ele><time>2026-04-18T13:51:37.688Z</time></trkpt><trkpt lat="9.4851204" lon="-75.5959925"><ele>2.0</ele><time>2026-04-18T13:51:38.681Z</time></trkpt><trkpt lat="9.4851183" lon="-75.5959185"><ele>2.0</ele><time>2026-04-18T13:51:39.683Z</time></trkpt><trkpt lat="9.485115" lon="-75.5958471"><ele>1.9999999999999998</ele><time>2026-04-18T13:51:40.681Z</time></trkpt><trkpt lat="9.4851203" lon="-75.5957791"><ele>2.0</ele><time>2026-04-18T13:51:41.689Z</time></trkpt><trkpt lat="9.4851298" lon="-75.5957137"><ele>2.0</ele><time>2026-04-18T13:51:42.684Z</time></trkpt><trkpt lat="9.4851429" lon="-75.5956469"><ele>1.9999999999999998</ele><time>2026-04-18T13:51:43.687Z</time></trkpt><trkpt lat="9.4852053" lon="-75.5955378"><ele>2.0</ele><time>2026-04-18T13:51:45.683Z</time></trkpt><trkpt lat="9.4852364" lon="-75.5954801"><ele>2.0</ele><time>2026-04-18T13:51:46.68Z</time></trkpt><trkpt lat="9.4852663" lon="-75.5954212"><ele>2.0</ele><time>2026-04-18T13:51:47.686Z</time></trkpt><trkpt lat="9.4852971" lon="-75.5953581"><ele>1.9999999999999998</ele><time>2026-04-18T13:51:48.686Z</time></trkpt><trkpt lat="9.4853197" lon="-75.5952924"><ele>2.0</ele><time>2026-04-18T13:51:49.687Z</time></trkpt><trkpt lat="9.485336" lon="-75.595222"><ele>2.0</ele><time>2026-04-18T13:51:50.688Z</time></trkpt><trkpt lat="9.4853395" lon="-75.5951471"><ele>1.9999999999999998</ele><time>2026-04-18T13:51:51.688Z</time></trkpt><trkpt lat="9.4853354" lon="-75.5950703"><ele>2.0</ele><time>2026-04-18T13:51:52.685Z</time></trkpt><trkpt lat="9.4853285" lon="-75.5949981"><ele>2.0</ele><time>2026-04-18T13:51:53.696Z</time></trkpt><trkpt lat="9.4853196" lon="-75.5949238"><ele>1.9999999999999998</ele><time>2026-04-18T13:51:54.689Z</time></trkpt><trkpt lat="9.4853097" lon="-75.5948495"><ele>2.0</ele><time>2026-04-18T13:51:55.695Z</time></trkpt><trkpt lat="9.4852984" lon="-75.5947756"><ele>2.0</ele><time>2026-04-18T13:51:56.679Z</time></trkpt><trkpt lat="9.4852878" lon="-75.5947018"><ele>1.9999999999999998</ele><time>2026-04-18T13:51:57.683Z</time></trkpt><trkpt lat="9.4852806" lon="-75.5946306"><ele>2.0</ele><time>2026-04-18T13:51:58.693Z</time></trkpt><trkpt lat="9.4852713" lon="-75.5945578"><ele>2.0</ele><time>2026-04-18T13:51:59.685Z</time></trkpt><trkpt lat="9.4852613" lon="-75.5944869"><ele>2.0</ele><time>2026-04-18T13:52:00.686Z</time></trkpt><trkpt lat="9.4852543" lon="-75.5944227"><ele>1.9999999999999998</ele><time>2026-04-18T13:52:01.695Z</time></trkpt><trkpt lat="9.4852473" lon="-75.5943526"><ele>2.0</ele><time>2026-04-18T13:52:02.695Z</time></trkpt><trkpt lat="9.4852317" lon="-75.5942307"><ele>2.0</ele><time>2026-04-18T13:52:04.695Z</time></trkpt><trkpt lat="9.4852157" lon="-75.5941673"><ele>2.0</ele><time>2026-04-18T13:52:05.695Z</time></trkpt><trkpt lat="9.4852066" lon="-75.5940487"><ele>2.0</ele><time>2026-04-18T13:52:07.695Z</time></trkpt><trkpt lat="9.4851892" lon="-75.5939278"><ele>2.0</ele><time>2026-04-18T13:52:09.686Z</time></trkpt><trkpt lat="9.4851775" lon="-75.5938114"><ele>2.0</ele><time>2026-04-18T13:52:11.691Z</time></trkpt><trkpt lat="9.4851609" lon="-75.5936882"><ele>1.8</ele><time>2026-04-18T13:52:13.683Z</time></trkpt><trkpt lat="9.4851469" lon="-75.5935692"><ele>1.6</ele><time>2026-04-18T13:52:15.686Z</time></trkpt><trkpt lat="9.4851502" lon="-75.5934431"><ele>1.4000000000000001</ele><time>2026-04-18T13:52:17.687Z</time></trkpt><trkpt lat="9.4851588" lon="-75.5933756"><ele>1.2000000000000002</ele><time>2026-04-18T13:52:18.683Z</time></trkpt><trkpt lat="9.4851522" lon="-75.5932466"><ele>1.0</ele><time>2026-04-18T13:52:20.686Z</time></trkpt><trkpt lat="9.4851381" lon="-75.5931277"><ele>1.0</ele><time>2026-04-18T13:52:22.684Z</time></trkpt><trkpt lat="9.4851171" lon="-75.5930006"><ele>1.0</ele><time>2026-04-18T13:52:24.682Z</time></trkpt><trkpt lat="9.485099" lon="-75.5928773"><ele>1.0</ele><time>2026-04-18T13:52:26.686Z</time></trkpt><trkpt lat="9.4850855" lon="-75.5927593"><ele>1.0</ele><time>2026-04-18T13:52:28.686Z</time></trkpt><trkpt lat="9.4850705" lon="-75.5926457"><ele>1.5</ele><time>2026-04-18T13:52:30.681Z</time></trkpt><trkpt lat="9.4850535" lon="-75.5925288"><ele>2.0</ele><time>2026-04-18T13:52:32.683Z</time></trkpt><trkpt lat="9.4850361" lon="-75.5924084"><ele>2.5</ele><time>2026-04-18T13:52:34.688Z</time></trkpt><trkpt lat="9.4850216" lon="-75.5922885"><ele>3.0</ele><time>2026-04-18T13:52:36.684Z</time></trkpt><trkpt lat="9.4850099" lon="-75.592178"><ele>3.0</ele><time>2026-04-18T13:52:38.688Z</time></trkpt><trkpt lat="9.485" lon="-75.5920589"><ele>3.0</ele><time>2026-04-18T13:52:40.687Z</time></trkpt><trkpt lat="9.4849838" lon="-75.5919346"><ele>3.0</ele><time>2026-04-18T13:52:42.689Z</time></trkpt><trkpt lat="9.4849665" lon="-75.5918075"><ele>3.0</ele><time>2026-04-18T13:52:44.686Z</time></trkpt><trkpt lat="9.4849579" lon="-75.5917394"><ele>3.0</ele><time>2026-04-18T13:52:45.685Z</time></trkpt><trkpt lat="9.4849468" lon="-75.5916695"><ele>3.1666666666666665</ele><time>2026-04-18T13:52:46.682Z</time></trkpt><trkpt lat="9.4849379" lon="-75.5916019"><ele>3.333333333333333</ele><time>2026-04-18T13:52:47.684Z</time></trkpt><trkpt lat="9.4849285" lon="-75.5915285"><ele>3.5</ele><time>2026-04-18T13:52:48.683Z</time></trkpt><trkpt lat="9.4849187" lon="-75.5914519"><ele>3.6666666666666665</ele><time>2026-04-18T13:52:49.681Z</time></trkpt><trkpt lat="9.4849085" lon="-75.5913689"><ele>3.833333333333333</ele><time>2026-04-18T13:52:50.684Z</time></trkpt><trkpt lat="9.4849031" lon="-75.5912879"><ele>4.0</ele><time>2026-04-18T13:52:51.683Z</time></trkpt><trkpt lat="9.4848962" lon="-75.5912028"><ele>3.9999999999999996</ele><time>2026-04-18T13:52:52.685Z</time></trkpt><trkpt lat="9.4848873" lon="-75.5911188"><ele>4.0</ele><time>2026-04-18T13:52:53.688Z</time></trkpt><trkpt lat="9.4848738" lon="-75.591031"><ele>4.0</ele><time>2026-04-18T13:52:54.689Z</time></trkpt><trkpt lat="9.4848562" lon="-75.5909423"><ele>4.0</ele><time>2026-04-18T13:52:55.687Z</time></trkpt><trkpt lat="9.4848438" lon="-75.5908519"><ele>3.9999999999999996</ele><time>2026-04-18T13:52:56.685Z</time></trkpt><trkpt lat="9.4848315" lon="-75.5907593"><ele>4.0</ele><time>2026-04-18T13:52:57.688Z</time></trkpt><trkpt lat="9.4848185" lon="-75.5906636"><ele>4.0</ele><time>2026-04-18T13:52:58.684Z</time></trkpt><trkpt lat="9.4848019" lon="-75.5905729"><ele>4.0</ele><time>2026-04-18T13:52:59.687Z</time></trkpt><trkpt lat="9.4847884" lon="-75.5904778"><ele>4.0</ele><time>2026-04-18T13:53:00.69Z</time></trkpt><trkpt lat="9.4847705" lon="-75.5903864"><ele>4.0</ele><time>2026-04-18T13:53:01.688Z</time></trkpt><trkpt lat="9.4847554" lon="-75.5902926"><ele>4.0</ele><time>2026-04-18T13:53:02.688Z</time></trkpt><trkpt lat="9.4847469" lon="-75.5902009"><ele>4.0</ele><time>2026-04-18T13:53:03.684Z</time></trkpt><trkpt lat="9.4847409" lon="-75.5901111"><ele>4.0</ele><time>2026-04-18T13:53:04.686Z</time></trkpt><trkpt lat="9.4847384" lon="-75.590021"><ele>4.0</ele><time>2026-04-18T13:53:05.684Z</time></trkpt><trkpt lat="9.4847337" lon="-75.5899281"><ele>4.0</ele><time>2026-04-18T13:53:06.695Z</time></trkpt><trkpt lat="9.4847312" lon="-75.5898344"><ele>4.0</ele><time>2026-04-18T13:53:07.696Z</time></trkpt><trkpt lat="9.4847251" lon="-75.5897411"><ele>4.0</ele><time>2026-04-18T13:53:08.685Z</time></trkpt><trkpt lat="9.4847219" lon="-75.5896465"><ele>4.0</ele><time>2026-04-18T13:53:09.685Z</time></trkpt><trkpt lat="9.4847238" lon="-75.5895539"><ele>4.0</ele><time>2026-04-18T13:53:10.695Z</time></trkpt><trkpt lat="9.484724" lon="-75.5894603"><ele>4.0</ele><time>2026-04-18T13:53:11.681Z</time></trkpt><trkpt lat="9.4847285" lon="-75.5893654"><ele>4.0</ele><time>2026-04-18T13:53:12.696Z</time></trkpt><trkpt lat="9.4847301" lon="-75.5892704"><ele>4.0</ele><time>2026-04-18T13:53:13.684Z</time></trkpt><trkpt lat="9.4847384" lon="-75.5891787"><ele>4.0</ele><time>2026-04-18T13:53:14.685Z</time></trkpt><trkpt lat="9.4847476" lon="-75.5890839"><ele>4.0</ele><time>2026-04-18T13:53:15.685Z</time></trkpt><trkpt lat="9.4847587" lon="-75.5889903"><ele>4.0</ele><time>2026-04-18T13:53:16.687Z</time></trkpt><trkpt lat="9.4847702" lon="-75.5888974"><ele>4.0</ele><time>2026-04-18T13:53:17.685Z</time></trkpt><trkpt lat="9.4847853" lon="-75.5888016"><ele>4.0</ele><time>2026-04-18T13:53:18.686Z</time></trkpt><trkpt lat="9.4848058" lon="-75.5887085"><ele>4.0</ele><time>2026-04-18T13:53:19.688Z</time></trkpt><trkpt lat="9.4848215" lon="-75.5886113"><ele>4.0</ele><time>2026-04-18T13:53:20.689Z</time></trkpt><trkpt lat="9.4848312" lon="-75.5885182"><ele>4.0</ele><time>2026-04-18T13:53:21.687Z</time></trkpt><trkpt lat="9.4848501" lon="-75.588429"><ele>4.0</ele><time>2026-04-18T13:53:22.689Z</time></trkpt><trkpt lat="9.4848711" lon="-75.588339"><ele>4.4</ele><time>2026-04-18T13:53:23.686Z</time></trkpt><trkpt lat="9.4849002" lon="-75.5882463"><ele>4.800000000000001</ele><time>2026-04-18T13:53:24.695Z</time></trkpt><trkpt lat="9.4849246" lon="-75.5881572"><ele>5.199999999999999</ele><time>2026-04-18T13:53:25.695Z</time></trkpt><trkpt lat="9.484948" lon="-75.5880676"><ele>5.6</ele><time>2026-04-18T13:53:26.695Z</time></trkpt><trkpt lat="9.4849774" lon="-75.5879806"><ele>6.0</ele><time>2026-04-18T13:53:27.687Z</time></trkpt><trkpt lat="9.4850083" lon="-75.5879004"><ele>6.0</ele><time>2026-04-18T13:53:28.696Z</time></trkpt><trkpt lat="9.4850427" lon="-75.5878181"><ele>6.0</ele><time>2026-04-18T13:53:29.686Z</time></trkpt><trkpt lat="9.4850759" lon="-75.5877316"><ele>6.0</ele><time>2026-04-18T13:53:30.686Z</time></trkpt><trkpt lat="9.4851035" lon="-75.5876517"><ele>6.0</ele><time>2026-04-18T13:53:31.686Z</time></trkpt><trkpt lat="9.4851314" lon="-75.5875673"><ele>6.0</ele><time>2026-04-18T13:53:32.695Z</time></trkpt><trkpt lat="9.4851628" lon="-75.5874845"><ele>6.0</ele><time>2026-04-18T13:53:33.696Z</time></trkpt><trkpt lat="9.4851929" lon="-75.587398"><ele>6.0</ele><time>2026-04-18T13:53:34.689Z</time></trkpt><trkpt lat="9.4852199" lon="-75.5873133"><ele>6.0</ele><time>2026-04-18T13:53:35.695Z</time></trkpt><trkpt lat="9.4852535" lon="-75.5872295"><ele>6.0</ele><time>2026-04-18T13:53:36.695Z</time></trkpt><trkpt lat="9.4852928" lon="-75.5871442"><ele>6.0</ele><time>2026-04-18T13:53:37.689Z</time></trkpt><trkpt lat="9.4853308" lon="-75.5870603"><ele>6.0</ele><time>2026-04-18T13:53:38.693Z</time></trkpt><trkpt lat="9.4853629" lon="-75.5869757"><ele>6.0</ele><time>2026-04-18T13:53:39.696Z</time></trkpt><trkpt lat="9.4854008" lon="-75.586891"><ele>6.0</ele><time>2026-04-18T13:53:40.695Z</time></trkpt><trkpt lat="9.4854365" lon="-75.5868096"><ele>6.0</ele><time>2026-04-18T13:53:41.695Z</time></trkpt><trkpt lat="9.4854713" lon="-75.5867258"><ele>6.0</ele><time>2026-04-18T13:53:42.695Z</time></trkpt><trkpt lat="9.48551" lon="-75.5866458"><ele>6.0</ele><time>2026-04-18T13:53:43.681Z</time></trkpt><trkpt lat="9.4855418" lon="-75.5865689"><ele>6.0</ele><time>2026-04-18T13:53:44.689Z</time></trkpt><trkpt lat="9.4855741" lon="-75.5864896"><ele>5.833333333333333</ele><time>2026-04-18T13:53:45.686Z</time></trkpt><trkpt lat="9.4856103" lon="-75.5864113"><ele>5.666666666666667</ele><time>2026-04-18T13:53:46.695Z</time></trkpt><trkpt lat="9.4856371" lon="-75.5863333"><ele>5.5</ele><time>2026-04-18T13:53:47.69Z</time></trkpt><trkpt lat="9.4856741" lon="-75.5862559"><ele>5.333333333333334</ele><time>2026-04-18T13:53:48.686Z</time></trkpt><trkpt lat="9.4857078" lon="-75.5861796"><ele>5.166666666666667</ele><time>2026-04-18T13:53:49.685Z</time></trkpt><trkpt lat="9.485735" lon="-75.5861023"><ele>5.0</ele><time>2026-04-18T13:53:50.695Z</time></trkpt><trkpt lat="9.4857677" lon="-75.5860209"><ele>5.0</ele><time>2026-04-18T13:53:51.695Z</time></trkpt><trkpt lat="9.4858033" lon="-75.5859428"><ele>5.0</ele><time>2026-04-18T13:53:52.695Z</time></trkpt><trkpt lat="9.4858315" lon="-75.5858662"><ele>5.0</ele><time>2026-04-18T13:53:53.688Z</time></trkpt><trkpt lat="9.4858635" lon="-75.5857891"><ele>5.0</ele><time>2026-04-18T13:53:54.685Z</time></trkpt><trkpt lat="9.4858932" lon="-75.5857122"><ele>5.0</ele><time>2026-04-18T13:53:55.695Z</time></trkpt><trkpt lat="9.4859287" lon="-75.585635"><ele>5.0</ele><time>2026-04-18T13:53:56.695Z</time></trkpt><trkpt lat="9.4859646" lon="-75.5855604"><ele>5.0</ele><time>2026-04-18T13:53:57.695Z</time></trkpt><trkpt lat="9.4859964" lon="-75.5854835"><ele>5.0</ele><time>2026-04-18T13:53:58.689Z</time></trkpt><trkpt lat="9.4860348" lon="-75.5854123"><ele>5.0</ele><time>2026-04-18T13:53:59.688Z</time></trkpt><trkpt lat="9.4860677" lon="-75.5853386"><ele>5.0</ele><time>2026-04-18T13:54:00.689Z</time></trkpt><trkpt lat="9.4861012" lon="-75.5852603"><ele>5.0</ele><time>2026-04-18T13:54:01.696Z</time></trkpt><trkpt lat="9.4861319" lon="-75.5851864"><ele>5.0</ele><time>2026-04-18T13:54:02.693Z</time></trkpt><trkpt lat="9.4861648" lon="-75.5851119"><ele>4.833333333333334</ele><time>2026-04-18T13:54:03.688Z</time></trkpt><trkpt lat="9.4861991" lon="-75.5850379"><ele>4.666666666666667</ele><time>2026-04-18T13:54:04.686Z</time></trkpt><trkpt lat="9.4862303" lon="-75.5849627"><ele>4.5</ele><time>2026-04-18T13:54:05.695Z</time></trkpt><trkpt lat="9.4862594" lon="-75.5848917"><ele>4.333333333333333</ele><time>2026-04-18T13:54:06.696Z</time></trkpt><trkpt lat="9.4862853" lon="-75.5848193"><ele>4.166666666666666</ele><time>2026-04-18T13:54:07.687Z</time></trkpt><trkpt lat="9.48632" lon="-75.5847454"><ele>4.0</ele><time>2026-04-18T13:54:08.687Z</time></trkpt><trkpt lat="9.4863536" lon="-75.5846724"><ele>3.9999999999999996</ele><time>2026-04-18T13:54:09.686Z</time></trkpt><trkpt lat="9.4863799" lon="-75.5845989"><ele>4.0</ele><time>2026-04-18T13:54:10.684Z</time></trkpt><trkpt lat="9.4864112" lon="-75.584524"><ele>4.0</ele><time>2026-04-18T13:54:11.691Z</time></trkpt><trkpt lat="9.4864406" lon="-75.5844508"><ele>4.0</ele><time>2026-04-18T13:54:12.683Z</time></trkpt><trkpt lat="9.4864749" lon="-75.5843764"><ele>3.9999999999999996</ele><time>2026-04-18T13:54:13.686Z</time></trkpt><trkpt lat="9.4865066" lon="-75.5843058"><ele>4.0</ele><time>2026-04-18T13:54:14.688Z</time></trkpt><trkpt lat="9.4865373" lon="-75.584232"><ele>3.9999999999999996</ele><time>2026-04-18T13:54:15.683Z</time></trkpt><trkpt lat="9.4865697" lon="-75.5841605"><ele>4.0</ele><time>2026-04-18T13:54:16.687Z</time></trkpt><trkpt lat="9.4866045" lon="-75.5840878"><ele>4.0</ele><time>2026-04-18T13:54:17.686Z</time></trkpt><trkpt lat="9.4866389" lon="-75.5840132"><ele>4.0</ele><time>2026-04-18T13:54:18.684Z</time></trkpt><trkpt lat="9.4866691" lon="-75.5839384"><ele>3.9999999999999996</ele><time>2026-04-18T13:54:19.684Z</time></trkpt><trkpt lat="9.4867029" lon="-75.5838602"><ele>4.0</ele><time>2026-04-18T13:54:20.685Z</time></trkpt><trkpt lat="9.4867334" lon="-75.583783"><ele>3.9999999999999996</ele><time>2026-04-18T13:54:21.695Z</time></trkpt><trkpt lat="9.4867639" lon="-75.5837078"><ele>4.0</ele><time>2026-04-18T13:54:22.695Z</time></trkpt><trkpt lat="9.4867976" lon="-75.5836292"><ele>4.0</ele><time>2026-04-18T13:54:23.695Z</time></trkpt><trkpt lat="9.4868297" lon="-75.5835575"><ele>4.0</ele><time>2026-04-18T13:54:24.683Z</time></trkpt><trkpt lat="9.4868616" lon="-75.5834829"><ele>3.9999999999999996</ele><time>2026-04-18T13:54:25.695Z</time></trkpt><trkpt lat="9.4868915" lon="-75.5834055"><ele>4.0</ele><time>2026-04-18T13:54:26.696Z</time></trkpt><trkpt lat="9.4869215" lon="-75.5833284"><ele>4.2</ele><time>2026-04-18T13:54:27.695Z</time></trkpt><trkpt lat="9.4869515" lon="-75.5832508"><ele>4.4</ele><time>2026-04-18T13:54:28.696Z</time></trkpt><trkpt lat="9.486987" lon="-75.5831759"><ele>4.6</ele><time>2026-04-18T13:54:29.686Z</time></trkpt><trkpt lat="9.4870517" lon="-75.5830323"><ele>4.8</ele><time>2026-04-18T13:54:31.69Z</time></trkpt><trkpt lat="9.4870819" lon="-75.5829597"><ele>5.0</ele><time>2026-04-18T13:54:32.685Z</time></trkpt><trkpt lat="9.4871124" lon="-75.5828856"><ele>4.5</ele><time>2026-04-18T13:54:33.691Z</time></trkpt><trkpt lat="9.4871449" lon="-75.5828111"><ele>4.0</ele><time>2026-04-18T13:54:34.686Z</time></trkpt><trkpt lat="9.4871789" lon="-75.5827347"><ele>3.5</ele><time>2026-04-18T13:54:35.695Z</time></trkpt><trkpt lat="9.4872115" lon="-75.5826612"><ele>3.0</ele><time>2026-04-18T13:54:36.695Z</time></trkpt><trkpt lat="9.4872429" lon="-75.5825878"><ele>2.5</ele><time>2026-04-18T13:54:37.696Z</time></trkpt><trkpt lat="9.4872748" lon="-75.5825162"><ele>2.0</ele><time>2026-04-18T13:54:38.68Z</time></trkpt><trkpt lat="9.4873089" lon="-75.5824431"><ele>1.9999999999999998</ele><time>2026-04-18T13:54:39.688Z</time></trkpt><trkpt lat="9.4873382" lon="-75.5823671"><ele>2.0</ele><time>2026-04-18T13:54:40.696Z</time></trkpt><trkpt lat="9.4873732" lon="-75.5822953"><ele>2.0</ele><time>2026-04-18T13:54:41.695Z</time></trkpt><trkpt lat="9.4874104" lon="-75.5822253"><ele>2.0</ele><time>2026-04-18T13:54:42.682Z</time></trkpt><trkpt lat="9.4874466" lon="-75.5821527"><ele>1.9999999999999998</ele><time>2026-04-18T13:54:43.682Z</time></trkpt><trkpt lat="9.4874801" lon="-75.5820812"><ele>2.0</ele><time>2026-04-18T13:54:44.685Z</time></trkpt><trkpt lat="9.4875098" lon="-75.5820099"><ele>2.1666666666666665</ele><time>2026-04-18T13:54:45.685Z</time></trkpt><trkpt lat="9.4875311" lon="-75.581933"><ele>2.333333333333333</ele><time>2026-04-18T13:54:46.679Z</time></trkpt><trkpt lat="9.4875612" lon="-75.5818591"><ele>2.5</ele><time>2026-04-18T13:54:47.682Z</time></trkpt><trkpt lat="9.4875892" lon="-75.5817834"><ele>2.6666666666666665</ele><time>2026-04-18T13:54:48.685Z</time></trkpt><trkpt lat="9.48762" lon="-75.5817087"><ele>2.8333333333333335</ele><time>2026-04-18T13:54:49.686Z</time></trkpt><trkpt lat="9.4876522" lon="-75.5816356"><ele>3.0</ele><time>2026-04-18T13:54:50.685Z</time></trkpt><trkpt lat="9.4876862" lon="-75.5815615"><ele>3.0</ele><time>2026-04-18T13:54:51.684Z</time></trkpt><trkpt lat="9.4877178" lon="-75.5814882"><ele>3.0</ele><time>2026-04-18T13:54:52.685Z</time></trkpt><trkpt lat="9.4877451" lon="-75.5814143"><ele>3.0</ele><time>2026-04-18T13:54:53.683Z</time></trkpt><trkpt lat="9.4877739" lon="-75.5813413"><ele>3.0</ele><time>2026-04-18T13:54:54.681Z</time></trkpt><trkpt lat="9.4878051" lon="-75.5812709"><ele>3.0</ele><time>2026-04-18T13:54:55.683Z</time></trkpt><trkpt lat="9.4878287" lon="-75.5812005"><ele>3.0</ele><time>2026-04-18T13:54:56.678Z</time></trkpt><trkpt lat="9.4878587" lon="-75.5811339"><ele>3.1666666666666665</ele><time>2026-04-18T13:54:57.687Z</time></trkpt><trkpt lat="9.4878909" lon="-75.5810612"><ele>3.333333333333333</ele><time>2026-04-18T13:54:58.681Z</time></trkpt><trkpt lat="9.4879214" lon="-75.580991"><ele>3.5</ele><time>2026-04-18T13:54:59.682Z</time></trkpt><trkpt lat="9.4879526" lon="-75.5809231"><ele>3.6666666666666665</ele><time>2026-04-18T13:55:00.682Z</time></trkpt><trkpt lat="9.4879827" lon="-75.5808512"><ele>3.833333333333333</ele><time>2026-04-18T13:55:01.695Z</time></trkpt><trkpt lat="9.4880094" lon="-75.5807814"><ele>4.0</ele><time>2026-04-18T13:55:02.684Z</time></trkpt><trkpt lat="9.4880412" lon="-75.5807087"><ele>4.285714285714286</ele><time>2026-04-18T13:55:03.695Z</time></trkpt><trkpt lat="9.4880694" lon="-75.5806413"><ele>4.571428571428571</ele><time>2026-04-18T13:55:04.681Z</time></trkpt><trkpt lat="9.4880968" lon="-75.5805719"><ele>4.857142857142857</ele><time>2026-04-18T13:55:05.688Z</time></trkpt><trkpt lat="9.4881244" lon="-75.5805077"><ele>5.142857142857142</ele><time>2026-04-18T13:55:06.685Z</time></trkpt><trkpt lat="9.4881477" lon="-75.5804456"><ele>5.428571428571429</ele><time>2026-04-18T13:55:07.695Z</time></trkpt><trkpt lat="9.48818" lon="-75.5803771"><ele>5.7142857142857135</ele><time>2026-04-18T13:55:08.685Z</time></trkpt><trkpt lat="9.4882065" lon="-75.5803098"><ele>6.0</ele><time>2026-04-18T13:55:09.687Z</time></trkpt><trkpt lat="9.4882352" lon="-75.5802419"><ele>5.999999999999999</ele><time>2026-04-18T13:55:10.683Z</time></trkpt><trkpt lat="9.4882622" lon="-75.5801731"><ele>6.0</ele><time>2026-04-18T13:55:11.686Z</time></trkpt><trkpt lat="9.4882933" lon="-75.5801079"><ele>6.0</ele><time>2026-04-18T13:55:12.685Z</time></trkpt><trkpt lat="9.4883198" lon="-75.5800447"><ele>6.0</ele><time>2026-04-18T13:55:13.695Z</time></trkpt><trkpt lat="9.488348" lon="-75.5799755"><ele>6.0</ele><time>2026-04-18T13:55:14.687Z</time></trkpt><trkpt lat="9.4883808" lon="-75.5799089"><ele>5.999999999999999</ele><time>2026-04-18T13:55:15.679Z</time></trkpt><trkpt lat="9.4884081" lon="-75.5798411"><ele>6.0</ele><time>2026-04-18T13:55:16.684Z</time></trkpt><trkpt lat="9.4884349" lon="-75.5797745"><ele>5.999999999999999</ele><time>2026-04-18T13:55:17.68Z</time></trkpt><trkpt lat="9.4884657" lon="-75.5797016"><ele>6.0</ele><time>2026-04-18T13:55:18.683Z</time></trkpt><trkpt lat="9.4884965" lon="-75.579633"><ele>6.0</ele><time>2026-04-18T13:55:19.681Z</time></trkpt><trkpt lat="9.4885247" lon="-75.579563"><ele>6.0</ele><time>2026-04-18T13:55:20.685Z</time></trkpt><trkpt lat="9.4885507" lon="-75.5794932"><ele>6.0</ele><time>2026-04-18T13:55:21.684Z</time></trkpt><trkpt lat="9.4885832" lon="-75.5794271"><ele>5.999999999999999</ele><time>2026-04-18T13:55:22.683Z</time></trkpt><trkpt lat="9.488614" lon="-75.5793603"><ele>6.0</ele><time>2026-04-18T13:55:23.683Z</time></trkpt><trkpt lat="9.4886439" lon="-75.579294"><ele>5.999999999999999</ele><time>2026-04-18T13:55:24.683Z</time></trkpt><trkpt lat="9.4886719" lon="-75.5792288"><ele>6.0</ele><time>2026-04-18T13:55:25.681Z</time></trkpt><trkpt lat="9.4886973" lon="-75.5791566"><ele>6.0</ele><time>2026-04-18T13:55:26.684Z</time></trkpt><trkpt lat="9.4887276" lon="-75.5790964"><ele>6.0</ele><time>2026-04-18T13:55:27.691Z</time></trkpt><trkpt lat="9.4887606" lon="-75.5790326"><ele>6.0</ele><time>2026-04-18T13:55:28.686Z</time></trkpt><trkpt lat="9.4887934" lon="-75.5789687"><ele>5.999999999999999</ele><time>2026-04-18T13:55:29.686Z</time></trkpt><trkpt lat="9.4888215" lon="-75.5788957"><ele>6.0</ele><time>2026-04-18T13:55:30.684Z</time></trkpt><trkpt lat="9.4888524" lon="-75.5788282"><ele>5.7142857142857135</ele><time>2026-04-18T13:55:31.68Z</time></trkpt><trkpt lat="9.4888813" lon="-75.5787649"><ele>5.428571428571429</ele><time>2026-04-18T13:55:32.684Z</time></trkpt><trkpt lat="9.4889095" lon="-75.5786957"><ele>5.142857142857142</ele><time>2026-04-18T13:55:33.684Z</time></trkpt><trkpt lat="9.4889398" lon="-75.578629"><ele>4.857142857142857</ele><time>2026-04-18T13:55:34.695Z</time></trkpt><trkpt lat="9.4889669" lon="-75.5785554"><ele>4.571428571428571</ele><time>2026-04-18T13:55:35.687Z</time></trkpt><trkpt lat="9.4889945" lon="-75.5784871"><ele>4.285714285714286</ele><time>2026-04-18T13:55:36.683Z</time></trkpt><trkpt lat="9.4890228" lon="-75.5784163"><ele>4.0</ele><time>2026-04-18T13:55:37.684Z</time></trkpt><trkpt lat="9.4890502" lon="-75.5783469"><ele>4.0</ele><time>2026-04-18T13:55:38.685Z</time></trkpt><trkpt lat="9.4890799" lon="-75.5782803"><ele>3.9999999999999996</ele><time>2026-04-18T13:55:39.685Z</time></trkpt><trkpt lat="9.489109" lon="-75.5782094"><ele>4.0</ele><time>2026-04-18T13:55:40.682Z</time></trkpt><trkpt lat="9.4891366" lon="-75.5781406"><ele>4.0</ele><time>2026-04-18T13:55:41.686Z</time></trkpt><trkpt lat="9.4891589" lon="-75.5780711"><ele>3.9999999999999996</ele><time>2026-04-18T13:55:42.683Z</time></trkpt><trkpt lat="9.4891881" lon="-75.5780037"><ele>4.0</ele><time>2026-04-18T13:55:43.681Z</time></trkpt><trkpt lat="9.4892199" lon="-75.5779345"><ele>4.0</ele><time>2026-04-18T13:55:44.686Z</time></trkpt><trkpt lat="9.4892515" lon="-75.5778645"><ele>4.333333333333333</ele><time>2026-04-18T13:55:45.689Z</time></trkpt><trkpt lat="9.4892843" lon="-75.5777983"><ele>4.666666666666666</ele><time>2026-04-18T13:55:46.696Z</time></trkpt><trkpt lat="9.4893152" lon="-75.5777273"><ele>5.0</ele><time>2026-04-18T13:55:47.695Z</time></trkpt><trkpt lat="9.4893484" lon="-75.5776568"><ele>5.333333333333333</ele><time>2026-04-18T13:55:48.684Z</time></trkpt><trkpt lat="9.4893733" lon="-75.5775886"><ele>5.666666666666667</ele><time>2026-04-18T13:55:49.684Z</time></trkpt><trkpt lat="9.4894038" lon="-75.5775185"><ele>6.0</ele><time>2026-04-18T13:55:50.682Z</time></trkpt><trkpt lat="9.4894333" lon="-75.5774448"><ele>6.0</ele><time>2026-04-18T13:55:51.684Z</time></trkpt><trkpt lat="9.4894641" lon="-75.5773709"><ele>6.0</ele><time>2026-04-18T13:55:52.683Z</time></trkpt><trkpt lat="9.4894937" lon="-75.5773034"><ele>6.0</ele><time>2026-04-18T13:55:53.68Z</time></trkpt><trkpt lat="9.489528" lon="-75.5772328"><ele>6.0</ele><time>2026-04-18T13:55:54.683Z</time></trkpt><trkpt lat="9.4895574" lon="-75.5771634"><ele>6.0</ele><time>2026-04-18T13:55:55.684Z</time></trkpt><trkpt lat="9.4895855" lon="-75.577093"><ele>6.0</ele><time>2026-04-18T13:55:56.685Z</time></trkpt><trkpt lat="9.4896119" lon="-75.5770245"><ele>5.999999999999999</ele><time>2026-04-18T13:55:57.684Z</time></trkpt><trkpt lat="9.4896422" lon="-75.5769585"><ele>6.0</ele><time>2026-04-18T13:55:58.683Z</time></trkpt><trkpt lat="9.4896676" lon="-75.5768919"><ele>6.0</ele><time>2026-04-18T13:55:59.682Z</time></trkpt><trkpt lat="9.4896965" lon="-75.5768223"><ele>6.0</ele><time>2026-04-18T13:56:00.685Z</time></trkpt><trkpt lat="9.4897226" lon="-75.5767568"><ele>6.0</ele><time>2026-04-18T13:56:01.69Z</time></trkpt><trkpt lat="9.4897543" lon="-75.5766846"><ele>5.999999999999999</ele><time>2026-04-18T13:56:02.688Z</time></trkpt><trkpt lat="9.4897857" lon="-75.5766174"><ele>6.0</ele><time>2026-04-18T13:56:03.692Z</time></trkpt><trkpt lat="9.4898195" lon="-75.5765523"><ele>5.999999999999999</ele><time>2026-04-18T13:56:04.691Z</time></trkpt><trkpt lat="9.4898485" lon="-75.5764856"><ele>6.0</ele><time>2026-04-18T13:56:05.685Z</time></trkpt><trkpt lat="9.489886" lon="-75.5764188"><ele>6.0</ele><time>2026-04-18T13:56:06.687Z</time></trkpt><trkpt lat="9.489926" lon="-75.5763536"><ele>6.0</ele><time>2026-04-18T13:56:07.682Z</time></trkpt><trkpt lat="9.489962" lon="-75.5762896"><ele>6.0</ele><time>2026-04-18T13:56:08.685Z</time></trkpt><trkpt lat="9.489997" lon="-75.5762249"><ele>5.999999999999999</ele><time>2026-04-18T13:56:09.682Z</time></trkpt><trkpt lat="9.4900327" lon="-75.5761573"><ele>6.0</ele><time>2026-04-18T13:56:10.686Z</time></trkpt><trkpt lat="9.4900719" lon="-75.576094"><ele>6.5</ele><time>2026-04-18T13:56:11.683Z</time></trkpt><trkpt lat="9.4901095" lon="-75.5760319"><ele>7.0</ele><time>2026-04-18T13:56:12.684Z</time></trkpt><trkpt lat="9.4901523" lon="-75.575971"><ele>7.5</ele><time>2026-04-18T13:56:13.684Z</time></trkpt><trkpt lat="9.4901992" lon="-75.575909"><ele>8.0</ele><time>2026-04-18T13:56:14.681Z</time></trkpt><trkpt lat="9.4902396" lon="-75.5758474"><ele>8.5</ele><time>2026-04-18T13:56:15.686Z</time></trkpt><trkpt lat="9.4902894" lon="-75.5757879"><ele>9.0</ele><time>2026-04-18T13:56:16.684Z</time></trkpt><trkpt lat="9.4903417" lon="-75.5757274"><ele>9.0</ele><time>2026-04-18T13:56:17.685Z</time></trkpt><trkpt lat="9.4903928" lon="-75.5756714"><ele>9.0</ele><time>2026-04-18T13:56:18.685Z</time></trkpt><trkpt lat="9.4904414" lon="-75.5756151"><ele>9.0</ele><time>2026-04-18T13:56:19.686Z</time></trkpt><trkpt lat="9.4904966" lon="-75.5755622"><ele>9.0</ele><time>2026-04-18T13:56:20.685Z</time></trkpt><trkpt lat="9.4905551" lon="-75.5755109"><ele>9.0</ele><time>2026-04-18T13:56:21.683Z</time></trkpt><trkpt lat="9.4906118" lon="-75.5754589"><ele>9.0</ele><time>2026-04-18T13:56:22.685Z</time></trkpt><trkpt lat="9.4906699" lon="-75.5754048"><ele>9.0</ele><time>2026-04-18T13:56:23.687Z</time></trkpt><trkpt lat="9.4907301" lon="-75.5753537"><ele>9.0</ele><time>2026-04-18T13:56:24.686Z</time></trkpt><trkpt lat="9.4907801" lon="-75.5752976"><ele>9.0</ele><time>2026-04-18T13:56:25.683Z</time></trkpt><trkpt lat="9.4908349" lon="-75.5752412"><ele>9.0</ele><time>2026-04-18T13:56:26.682Z</time></trkpt><trkpt lat="9.490893" lon="-75.5751972"><ele>9.0</ele><time>2026-04-18T13:56:27.679Z</time></trkpt><trkpt lat="9.4909524" lon="-75.5751548"><ele>9.0</ele><time>2026-04-18T13:56:28.683Z</time></trkpt><trkpt lat="9.4910172" lon="-75.5751147"><ele>9.000000000000002</ele><time>2026-04-18T13:56:29.682Z</time></trkpt><trkpt lat="9.4910832" lon="-75.5750724"><ele>9.0</ele><time>2026-04-18T13:56:30.682Z</time></trkpt><trkpt lat="9.4911511" lon="-75.5750358"><ele>9.0</ele><time>2026-04-18T13:56:31.684Z</time></trkpt><trkpt lat="9.4912167" lon="-75.5750003"><ele>9.0</ele><time>2026-04-18T13:56:32.681Z</time></trkpt><trkpt lat="9.4912827" lon="-75.574969"><ele>9.0</ele><time>2026-04-18T13:56:33.687Z</time></trkpt><trkpt lat="9.491346" lon="-75.5749325"><ele>9.000000000000002</ele><time>2026-04-18T13:56:34.684Z</time></trkpt><trkpt lat="9.4914109" lon="-75.5748992"><ele>9.0</ele><time>2026-04-18T13:56:35.683Z</time></trkpt><trkpt lat="9.4914757" lon="-75.5748705"><ele>8.714285714285715</ele><time>2026-04-18T13:56:36.682Z</time></trkpt><trkpt lat="9.4915469" lon="-75.5748477"><ele>8.428571428571429</ele><time>2026-04-18T13:56:37.682Z</time></trkpt><trkpt lat="9.4916233" lon="-75.5748266"><ele>8.142857142857142</ele><time>2026-04-18T13:56:38.681Z</time></trkpt><trkpt lat="9.4916933" lon="-75.5748116"><ele>7.857142857142858</ele><time>2026-04-18T13:56:39.684Z</time></trkpt><trkpt lat="9.4917633" lon="-75.574788"><ele>7.571428571428571</ele><time>2026-04-18T13:56:40.687Z</time></trkpt><trkpt lat="9.4918349" lon="-75.5747685"><ele>7.285714285714286</ele><time>2026-04-18T13:56:41.687Z</time></trkpt><trkpt lat="9.4919043" lon="-75.5747508"><ele>7.0</ele><time>2026-04-18T13:56:42.68Z</time></trkpt><trkpt lat="9.4919745" lon="-75.5747297"><ele>7.000000000000001</ele><time>2026-04-18T13:56:43.685Z</time></trkpt><trkpt lat="9.4920464" lon="-75.5747131"><ele>7.0</ele><time>2026-04-18T13:56:44.683Z</time></trkpt><trkpt lat="9.4921175" lon="-75.5746949"><ele>7.0</ele><time>2026-04-18T13:56:45.684Z</time></trkpt><trkpt lat="9.4921912" lon="-75.5746829"><ele>7.0</ele><time>2026-04-18T13:56:46.688Z</time></trkpt><trkpt lat="9.4922684" lon="-75.5746698"><ele>7.000000000000001</ele><time>2026-04-18T13:56:47.684Z</time></trkpt><trkpt lat="9.4923455" lon="-75.574662"><ele>7.0</ele><time>2026-04-18T13:56:48.685Z</time></trkpt><trkpt lat="9.4924214" lon="-75.5746525"><ele>7.000000000000001</ele><time>2026-04-18T13:56:49.685Z</time></trkpt><trkpt lat="9.4924952" lon="-75.5746542"><ele>7.0</ele><time>2026-04-18T13:56:50.679Z</time></trkpt><trkpt lat="9.4925727" lon="-75.574652"><ele>7.0</ele><time>2026-04-18T13:56:51.685Z</time></trkpt><trkpt lat="9.4926524" lon="-75.5746533"><ele>7.0</ele><time>2026-04-18T13:56:52.687Z</time></trkpt><trkpt lat="9.4927317" lon="-75.5746498"><ele>7.000000000000001</ele><time>2026-04-18T13:56:53.691Z</time></trkpt><trkpt lat="9.4928147" lon="-75.5746476"><ele>7.0</ele><time>2026-04-18T13:56:54.682Z</time></trkpt><trkpt lat="9.4928946" lon="-75.5746484"><ele>6.500000000000001</ele><time>2026-04-18T13:56:55.684Z</time></trkpt><trkpt lat="9.4929747" lon="-75.5746517"><ele>6.0</ele><time>2026-04-18T13:56:56.684Z</time></trkpt><trkpt lat="9.4930522" lon="-75.5746539"><ele>5.5</ele><time>2026-04-18T13:56:57.689Z</time></trkpt><trkpt lat="9.4931299" lon="-75.5746525"><ele>5.0</ele><time>2026-04-18T13:56:58.684Z</time></trkpt><trkpt lat="9.4932086" lon="-75.5746514"><ele>4.5</ele><time>2026-04-18T13:56:59.686Z</time></trkpt><trkpt lat="9.4932882" lon="-75.5746458"><ele>4.0</ele><time>2026-04-18T13:57:00.681Z</time></trkpt><trkpt lat="9.4933686" lon="-75.5746435"><ele>4.0</ele><time>2026-04-18T13:57:01.681Z</time></trkpt><trkpt lat="9.4934453" lon="-75.5746411"><ele>3.9999999999999996</ele><time>2026-04-18T13:57:02.684Z</time></trkpt><trkpt lat="9.4935183" lon="-75.5746374"><ele>4.0</ele><time>2026-04-18T13:57:03.682Z</time></trkpt><trkpt lat="9.4935954" lon="-75.5746299"><ele>4.0</ele><time>2026-04-18T13:57:04.682Z</time></trkpt><trkpt lat="9.4936721" lon="-75.5746246"><ele>3.9999999999999996</ele><time>2026-04-18T13:57:05.681Z</time></trkpt><trkpt lat="9.493743" lon="-75.5746221"><ele>4.0</ele><time>2026-04-18T13:57:06.681Z</time></trkpt><trkpt lat="9.493814" lon="-75.5746221"><ele>4.0</ele><time>2026-04-18T13:57:07.682Z</time></trkpt><trkpt lat="9.493883" lon="-75.5746196"><ele>4.142857142857142</ele><time>2026-04-18T13:57:08.682Z</time></trkpt><trkpt lat="9.4939537" lon="-75.5746177"><ele>4.285714285714286</ele><time>2026-04-18T13:57:09.681Z</time></trkpt><trkpt lat="9.4940211" lon="-75.5746163"><ele>4.428571428571429</ele><time>2026-04-18T13:57:10.684Z</time></trkpt><trkpt lat="9.4940895" lon="-75.5746149"><ele>4.571428571428571</ele><time>2026-04-18T13:57:11.683Z</time></trkpt><trkpt lat="9.4941558" lon="-75.5746148"><ele>4.714285714285714</ele><time>2026-04-18T13:57:12.682Z</time></trkpt><trkpt lat="9.4942197" lon="-75.5746098"><ele>4.857142857142857</ele><time>2026-04-18T13:57:13.685Z</time></trkpt><trkpt lat="9.4942873" lon="-75.5746065"><ele>5.0</ele><time>2026-04-18T13:57:14.687Z</time></trkpt><trkpt lat="9.4943564" lon="-75.5746041"><ele>5.0</ele><time>2026-04-18T13:57:15.685Z</time></trkpt><trkpt lat="9.4944235" lon="-75.5746049"><ele>5.0</ele><time>2026-04-18T13:57:16.687Z</time></trkpt><trkpt lat="9.4944935" lon="-75.5746058"><ele>5.0</ele><time>2026-04-18T13:57:17.687Z</time></trkpt><trkpt lat="9.4945748" lon="-75.574604"><ele>5.0</ele><time>2026-04-18T13:57:18.687Z</time></trkpt><trkpt lat="9.4946567" lon="-75.574605"><ele>5.0</ele><time>2026-04-18T13:57:19.685Z</time></trkpt><trkpt lat="9.4947437" lon="-75.5746019"><ele>5.0</ele><time>2026-04-18T13:57:20.689Z</time></trkpt><trkpt lat="9.4948295" lon="-75.5746028"><ele>5.5</ele><time>2026-04-18T13:57:21.692Z</time></trkpt><trkpt lat="9.4949076" lon="-75.5746014"><ele>6.0</ele><time>2026-04-18T13:57:22.694Z</time></trkpt><trkpt lat="9.4949839" lon="-75.5746007"><ele>6.5</ele><time>2026-04-18T13:57:23.691Z</time></trkpt><trkpt lat="9.4950603" lon="-75.5745976"><ele>7.0</ele><time>2026-04-18T13:57:24.69Z</time></trkpt><trkpt lat="9.4951393" lon="-75.5745945"><ele>7.499999999999999</ele><time>2026-04-18T13:57:25.689Z</time></trkpt><trkpt lat="9.4952195" lon="-75.574595"><ele>8.0</ele><time>2026-04-18T13:57:26.684Z</time></trkpt><trkpt lat="9.4953014" lon="-75.5745927"><ele>7.999999999999999</ele><time>2026-04-18T13:57:27.684Z</time></trkpt><trkpt lat="9.4953862" lon="-75.5745958"><ele>8.0</ele><time>2026-04-18T13:57:28.691Z</time></trkpt><trkpt lat="9.4954742" lon="-75.574589"><ele>8.0</ele><time>2026-04-18T13:57:29.691Z</time></trkpt><trkpt lat="9.4955599" lon="-75.5745856"><ele>8.0</ele><time>2026-04-18T13:57:30.688Z</time></trkpt><trkpt lat="9.4956443" lon="-75.5745834"><ele>7.999999999999999</ele><time>2026-04-18T13:57:31.691Z</time></trkpt><trkpt lat="9.495734" lon="-75.5745807"><ele>8.0</ele><time>2026-04-18T13:57:32.683Z</time></trkpt><trkpt lat="9.495823" lon="-75.5745829"><ele>8.200000000000001</ele><time>2026-04-18T13:57:33.686Z</time></trkpt><trkpt lat="9.4959193" lon="-75.5745841"><ele>8.4</ele><time>2026-04-18T13:57:34.687Z</time></trkpt><trkpt lat="9.4960128" lon="-75.5745836"><ele>8.600000000000001</ele><time>2026-04-18T13:57:35.686Z</time></trkpt><trkpt lat="9.49611" lon="-75.5745817"><ele>8.8</ele><time>2026-04-18T13:57:36.683Z</time></trkpt><trkpt lat="9.4962028" lon="-75.574577"><ele>9.0</ele><time>2026-04-18T13:57:37.681Z</time></trkpt><trkpt lat="9.4962926" lon="-75.5745758"><ele>9.0</ele><time>2026-04-18T13:57:38.681Z</time></trkpt><trkpt lat="9.4963921" lon="-75.5745764"><ele>9.0</ele><time>2026-04-18T13:57:39.693Z</time></trkpt><trkpt lat="9.496489" lon="-75.5745746"><ele>9.0</ele><time>2026-04-18T13:57:40.689Z</time></trkpt><trkpt lat="9.4965894" lon="-75.5745736"><ele>9.0</ele><time>2026-04-18T13:57:41.682Z</time></trkpt><trkpt lat="9.496687" lon="-75.5745712"><ele>9.0</ele><time>2026-04-18T13:57:42.683Z</time></trkpt><trkpt lat="9.4967846" lon="-75.5745673"><ele>9.0</ele><time>2026-04-18T13:57:43.686Z</time></trkpt><trkpt lat="9.4968814" lon="-75.5745627"><ele>9.0</ele><time>2026-04-18T13:57:44.684Z</time></trkpt><trkpt lat="9.4969806" lon="-75.5745627"><ele>9.0</ele><time>2026-04-18T13:57:45.684Z</time></trkpt><trkpt lat="9.4970799" lon="-75.574561"><ele>9.0</ele><time>2026-04-18T13:57:46.69Z</time></trkpt><trkpt lat="9.4971753" lon="-75.5745582"><ele>9.0</ele><time>2026-04-18T13:57:47.688Z</time></trkpt><trkpt lat="9.4972738" lon="-75.5745557"><ele>8.6</ele><time>2026-04-18T13:57:48.685Z</time></trkpt><trkpt lat="9.4973769" lon="-75.5745506"><ele>8.2</ele><time>2026-04-18T13:57:49.682Z</time></trkpt><trkpt lat="9.4974782" lon="-75.5745468"><ele>7.799999999999999</ele><time>2026-04-18T13:57:50.684Z</time></trkpt><trkpt lat="9.4975821" lon="-75.574544"><ele>7.3999999999999995</ele><time>2026-04-18T13:57:51.684Z</time></trkpt><trkpt lat="9.4976853" lon="-75.5745389"><ele>7.0</ele><time>2026-04-18T13:57:52.688Z</time></trkpt><trkpt lat="9.4977879" lon="-75.5745377"><ele>7.0</ele><time>2026-04-18T13:57:53.682Z</time></trkpt><trkpt lat="9.4978917" lon="-75.5745358"><ele>6.999999999999999</ele><time>2026-04-18T13:57:54.683Z</time></trkpt><trkpt lat="9.4979965" lon="-75.5745371"><ele>6.999999999999999</ele><time>2026-04-18T13:57:55.682Z</time></trkpt><trkpt lat="9.4981003" lon="-75.5745395"><ele>7.0</ele><time>2026-04-18T13:57:56.687Z</time></trkpt><trkpt lat="9.4982069" lon="-75.574539"><ele>7.0</ele><time>2026-04-18T13:57:57.686Z</time></trkpt><trkpt lat="9.4983145" lon="-75.5745336"><ele>7.0</ele><time>2026-04-18T13:57:58.685Z</time></trkpt><trkpt lat="9.4984187" lon="-75.574531"><ele>6.999999999999999</ele><time>2026-04-18T13:57:59.685Z</time></trkpt><trkpt lat="9.4985271" lon="-75.5745259"><ele>6.999999999999999</ele><time>2026-04-18T13:58:00.689Z</time></trkpt><trkpt lat="9.4986358" lon="-75.5745227"><ele>7.0</ele><time>2026-04-18T13:58:01.688Z</time></trkpt><trkpt lat="9.4987431" lon="-75.5745189"><ele>7.0</ele><time>2026-04-18T13:58:02.686Z</time></trkpt><trkpt lat="9.4988475" lon="-75.5745181"><ele>7.0</ele><time>2026-04-18T13:58:03.691Z</time></trkpt><trkpt lat="9.498956" lon="-75.5745183"><ele>6.999999999999999</ele><time>2026-04-18T13:58:04.683Z</time></trkpt><trkpt lat="9.499061" lon="-75.5745151"><ele>6.999999999999999</ele><time>2026-04-18T13:58:05.683Z</time></trkpt><trkpt lat="9.4991631" lon="-75.5745154"><ele>7.0</ele><time>2026-04-18T13:58:06.686Z</time></trkpt><trkpt lat="9.4992643" lon="-75.5745097"><ele>7.0</ele><time>2026-04-18T13:58:07.693Z</time></trkpt><trkpt lat="9.49937" lon="-75.5745085"><ele>7.0</ele><time>2026-04-18T13:58:08.69Z</time></trkpt><trkpt lat="9.4994719" lon="-75.5745065"><ele>6.999999999999999</ele><time>2026-04-18T13:58:09.684Z</time></trkpt><trkpt lat="9.4995767" lon="-75.5745055"><ele>6.999999999999999</ele><time>2026-04-18T13:58:10.68Z</time></trkpt><trkpt lat="9.4996813" lon="-75.5744972"><ele>7.0</ele><time>2026-04-18T13:58:11.682Z</time></trkpt><trkpt lat="9.4997894" lon="-75.5744936"><ele>7.0</ele><time>2026-04-18T13:58:12.683Z</time></trkpt><trkpt lat="9.4998957" lon="-75.5744911"><ele>7.0</ele><time>2026-04-18T13:58:13.69Z</time></trkpt><trkpt lat="9.5000056" lon="-75.5744884"><ele>6.999999999999999</ele><time>2026-04-18T13:58:14.683Z</time></trkpt><trkpt lat="9.5001144" lon="-75.5744858"><ele>6.999999999999999</ele><time>2026-04-18T13:58:15.683Z</time></trkpt><trkpt lat="9.5002209" lon="-75.5744843"><ele>7.0</ele><time>2026-04-18T13:58:16.686Z</time></trkpt><trkpt lat="9.5003264" lon="-75.5744815"><ele>7.0</ele><time>2026-04-18T13:58:17.684Z</time></trkpt><trkpt lat="9.5004344" lon="-75.5744805"><ele>7.199999999999999</ele><time>2026-04-18T13:58:18.688Z</time></trkpt><trkpt lat="9.5005409" lon="-75.5744781"><ele>7.3999999999999995</ele><time>2026-04-18T13:58:19.683Z</time></trkpt><trkpt lat="9.5006483" lon="-75.5744769"><ele>7.6000000000000005</ele><time>2026-04-18T13:58:20.684Z</time></trkpt><trkpt lat="9.500748" lon="-75.5744763"><ele>7.800000000000001</ele><time>2026-04-18T13:58:21.692Z</time></trkpt><trkpt lat="9.5008525" lon="-75.5744769"><ele>8.0</ele><time>2026-04-18T13:58:22.684Z</time></trkpt><trkpt lat="9.5009527" lon="-75.5744763"><ele>8.0</ele><time>2026-04-18T13:58:23.685Z</time></trkpt><trkpt lat="9.5010539" lon="-75.5744722"><ele>8.0</ele><time>2026-04-18T13:58:24.683Z</time></trkpt><trkpt lat="9.5011568" lon="-75.5744705"><ele>8.0</ele><time>2026-04-18T13:58:25.682Z</time></trkpt><trkpt lat="9.5012612" lon="-75.574467"><ele>8.0</ele><time>2026-04-18T13:58:26.683Z</time></trkpt><trkpt lat="9.5013674" lon="-75.5744639"><ele>8.0</ele><time>2026-04-18T13:58:27.685Z</time></trkpt><trkpt lat="9.5014764" lon="-75.5744612"><ele>8.200000000000001</ele><time>2026-04-18T13:58:28.682Z</time></trkpt><trkpt lat="9.5015844" lon="-75.5744589"><ele>8.4</ele><time>2026-04-18T13:58:29.684Z</time></trkpt><trkpt lat="9.5016909" lon="-75.5744569"><ele>8.600000000000001</ele><time>2026-04-18T13:58:30.686Z</time></trkpt><trkpt lat="9.5017977" lon="-75.5744546"><ele>8.8</ele><time>2026-04-18T13:58:31.685Z</time></trkpt><trkpt lat="9.5019005" lon="-75.5744529"><ele>9.0</ele><time>2026-04-18T13:58:32.685Z</time></trkpt><trkpt lat="9.5020043" lon="-75.5744494"><ele>9.0</ele><time>2026-04-18T13:58:33.684Z</time></trkpt><trkpt lat="9.5021119" lon="-75.5744478"><ele>9.0</ele><time>2026-04-18T13:58:34.684Z</time></trkpt><trkpt lat="9.502211" lon="-75.5744435"><ele>9.0</ele><time>2026-04-18T13:58:35.682Z</time></trkpt><trkpt lat="9.50231" lon="-75.5744399"><ele>9.0</ele><time>2026-04-18T13:58:36.685Z</time></trkpt><trkpt lat="9.5024043" lon="-75.5744371"><ele>9.0</ele><time>2026-04-18T13:58:37.684Z</time></trkpt><trkpt lat="9.5025009" lon="-75.5744357"><ele>9.0</ele><time>2026-04-18T13:58:38.686Z</time></trkpt><trkpt lat="9.5025954" lon="-75.574436"><ele>9.0</ele><time>2026-04-18T13:58:39.685Z</time></trkpt><trkpt lat="9.5026912" lon="-75.5744364"><ele>9.0</ele><time>2026-04-18T13:58:40.685Z</time></trkpt><trkpt lat="9.5027826" lon="-75.5744318"><ele>9.0</ele><time>2026-04-18T13:58:41.687Z</time></trkpt><trkpt lat="9.5028762" lon="-75.5744295"><ele>9.0</ele><time>2026-04-18T13:58:42.684Z</time></trkpt><trkpt lat="9.5029768" lon="-75.5744273"><ele>9.6</ele><time>2026-04-18T13:58:43.682Z</time></trkpt><trkpt lat="9.5030825" lon="-75.5744262"><ele>10.2</ele><time>2026-04-18T13:58:44.684Z</time></trkpt><trkpt lat="9.5031865" lon="-75.5744269"><ele>10.799999999999999</ele><time>2026-04-18T13:58:45.683Z</time></trkpt><trkpt lat="9.5032907" lon="-75.5744233"><ele>11.4</ele><time>2026-04-18T13:58:46.686Z</time></trkpt><trkpt lat="9.5033924" lon="-75.5744259"><ele>12.0</ele><time>2026-04-18T13:58:47.683Z</time></trkpt><trkpt lat="9.5035055" lon="-75.5744202"><ele>12.0</ele><time>2026-04-18T13:58:48.682Z</time></trkpt><trkpt lat="9.503615" lon="-75.5744128"><ele>12.0</ele><time>2026-04-18T13:58:49.682Z</time></trkpt><trkpt lat="9.5037193" lon="-75.5744158"><ele>12.0</ele><time>2026-04-18T13:58:50.685Z</time></trkpt><trkpt lat="9.503829" lon="-75.5744037"><ele>12.0</ele><time>2026-04-18T13:58:51.684Z</time></trkpt><trkpt lat="9.5039307" lon="-75.5743918"><ele>12.0</ele><time>2026-04-18T13:58:52.691Z</time></trkpt><trkpt lat="9.5040287" lon="-75.5743782"><ele>11.0</ele><time>2026-04-18T13:58:53.681Z</time></trkpt><trkpt lat="9.5041281" lon="-75.5743653"><ele>10.0</ele><time>2026-04-18T13:58:54.686Z</time></trkpt><trkpt lat="9.5042279" lon="-75.5743523"><ele>9.0</ele><time>2026-04-18T13:58:55.685Z</time></trkpt><trkpt lat="9.5043181" lon="-75.5743355"><ele>8.0</ele><time>2026-04-18T13:58:56.688Z</time></trkpt><trkpt lat="9.5044138" lon="-75.5743198"><ele>7.0</ele><time>2026-04-18T13:58:57.686Z</time></trkpt><trkpt lat="9.5045004" lon="-75.5742995"><ele>8.2</ele><time>2026-04-18T13:58:58.681Z</time></trkpt><trkpt lat="9.5045847" lon="-75.574281"><ele>9.399999999999999</ele><time>2026-04-18T13:58:59.681Z</time></trkpt><trkpt lat="9.504671" lon="-75.5742649"><ele>10.600000000000001</ele><time>2026-04-18T13:59:00.683Z</time></trkpt><trkpt lat="9.5047603" lon="-75.5742407"><ele>11.8</ele><time>2026-04-18T13:59:01.68Z</time></trkpt><trkpt lat="9.504852" lon="-75.5742257"><ele>13.0</ele><time>2026-04-18T13:59:02.681Z</time></trkpt><trkpt lat="9.5049409" lon="-75.5742058"><ele>13.0</ele><time>2026-04-18T13:59:03.682Z</time></trkpt><trkpt lat="9.5050317" lon="-75.5741875"><ele>13.0</ele><time>2026-04-18T13:59:04.683Z</time></trkpt><trkpt lat="9.5051239" lon="-75.5741712"><ele>13.0</ele><time>2026-04-18T13:59:05.683Z</time></trkpt><trkpt lat="9.5052192" lon="-75.5741521"><ele>13.0</ele><time>2026-04-18T13:59:06.681Z</time></trkpt><trkpt lat="9.5053138" lon="-75.5741293"><ele>13.0</ele><time>2026-04-18T13:59:07.687Z</time></trkpt><trkpt lat="9.5054113" lon="-75.57411"><ele>12.4</ele><time>2026-04-18T13:59:08.684Z</time></trkpt><trkpt lat="9.5055085" lon="-75.5740935"><ele>11.8</ele><time>2026-04-18T13:59:09.687Z</time></trkpt><trkpt lat="9.5056048" lon="-75.5740798"><ele>11.2</ele><time>2026-04-18T13:59:10.683Z</time></trkpt><trkpt lat="9.5057003" lon="-75.5740637"><ele>10.6</ele><time>2026-04-18T13:59:11.684Z</time></trkpt><trkpt lat="9.5057978" lon="-75.574045"><ele>10.0</ele><time>2026-04-18T13:59:12.683Z</time></trkpt><trkpt lat="9.5058909" lon="-75.5740284"><ele>10.0</ele><time>2026-04-18T13:59:13.68Z</time></trkpt><trkpt lat="9.5059839" lon="-75.5740124"><ele>10.0</ele><time>2026-04-18T13:59:14.681Z</time></trkpt><trkpt lat="9.5060769" lon="-75.5739978"><ele>10.0</ele><time>2026-04-18T13:59:15.69Z</time></trkpt><trkpt lat="9.5061615" lon="-75.5739829"><ele>10.0</ele><time>2026-04-18T13:59:16.684Z</time></trkpt><trkpt lat="9.5062388" lon="-75.5739683"><ele>10.0</ele><time>2026-04-18T13:59:17.686Z</time></trkpt><trkpt lat="9.5063201" lon="-75.5739528"><ele>10.0</ele><time>2026-04-18T13:59:18.684Z</time></trkpt><trkpt lat="9.5063948" lon="-75.5739413"><ele>9.5</ele><time>2026-04-18T13:59:19.686Z</time></trkpt><trkpt lat="9.5064714" lon="-75.5739282"><ele>9.0</ele><time>2026-04-18T13:59:20.684Z</time></trkpt><trkpt lat="9.5065486" lon="-75.5739131"><ele>8.5</ele><time>2026-04-18T13:59:21.683Z</time></trkpt><trkpt lat="9.506626" lon="-75.5738992"><ele>8.0</ele><time>2026-04-18T13:59:22.684Z</time></trkpt><trkpt lat="9.5067013" lon="-75.5738839"><ele>7.500000000000001</ele><time>2026-04-18T13:59:23.685Z</time></trkpt><trkpt lat="9.506778" lon="-75.5738678"><ele>7.0</ele><time>2026-04-18T13:59:24.684Z</time></trkpt><trkpt lat="9.5068515" lon="-75.5738537"><ele>7.000000000000001</ele><time>2026-04-18T13:59:25.681Z</time></trkpt><trkpt lat="9.5069273" lon="-75.5738413"><ele>7.0</ele><time>2026-04-18T13:59:26.679Z</time></trkpt><trkpt lat="9.5070036" lon="-75.5738322"><ele>7.0</ele><time>2026-04-18T13:59:27.684Z</time></trkpt><trkpt lat="9.5070825" lon="-75.5738181"><ele>7.0</ele><time>2026-04-18T13:59:28.684Z</time></trkpt><trkpt lat="9.5071584" lon="-75.5738075"><ele>7.000000000000001</ele><time>2026-04-18T13:59:29.684Z</time></trkpt><trkpt lat="9.5072356" lon="-75.5737932"><ele>7.0</ele><time>2026-04-18T13:59:30.684Z</time></trkpt><trkpt lat="9.5073076" lon="-75.5737793"><ele>7.333333333333334</ele><time>2026-04-18T13:59:31.683Z</time></trkpt><trkpt lat="9.5073814" lon="-75.573768"><ele>7.666666666666667</ele><time>2026-04-18T13:59:32.687Z</time></trkpt><trkpt lat="9.5074555" lon="-75.5737488"><ele>8.0</ele><time>2026-04-18T13:59:33.689Z</time></trkpt><trkpt lat="9.5075301" lon="-75.5737349"><ele>8.333333333333334</ele><time>2026-04-18T13:59:34.685Z</time></trkpt><trkpt lat="9.5076058" lon="-75.5737192"><ele>8.666666666666666</ele><time>2026-04-18T13:59:35.69Z</time></trkpt><trkpt lat="9.5076801" lon="-75.5737051"><ele>9.0</ele><time>2026-04-18T13:59:36.687Z</time></trkpt><trkpt lat="9.507757" lon="-75.5736905"><ele>9.0</ele><time>2026-04-18T13:59:37.692Z</time></trkpt><trkpt lat="9.5078365" lon="-75.5736782"><ele>9.0</ele><time>2026-04-18T13:59:38.682Z</time></trkpt><trkpt lat="9.5079136" lon="-75.573661"><ele>9.0</ele><time>2026-04-18T13:59:39.682Z</time></trkpt><trkpt lat="9.5079952" lon="-75.5736475"><ele>9.0</ele><time>2026-04-18T13:59:40.683Z</time></trkpt><trkpt lat="9.5080771" lon="-75.5736336"><ele>9.0</ele><time>2026-04-18T13:59:41.683Z</time></trkpt><trkpt lat="9.5081594" lon="-75.5736177"><ele>9.0</ele><time>2026-04-18T13:59:42.684Z</time></trkpt><trkpt lat="9.5082402" lon="-75.5736033"><ele>8.833333333333334</ele><time>2026-04-18T13:59:43.686Z</time></trkpt><trkpt lat="9.5083268" lon="-75.5735875"><ele>8.666666666666666</ele><time>2026-04-18T13:59:44.683Z</time></trkpt><trkpt lat="9.5084159" lon="-75.5735712"><ele>8.5</ele><time>2026-04-18T13:59:45.686Z</time></trkpt><trkpt lat="9.5085025" lon="-75.5735545"><ele>8.333333333333332</ele><time>2026-04-18T13:59:46.684Z</time></trkpt><trkpt lat="9.5085892" lon="-75.573538"><ele>8.166666666666666</ele><time>2026-04-18T13:59:47.685Z</time></trkpt><trkpt lat="9.508677" lon="-75.5735199"><ele>8.0</ele><time>2026-04-18T13:59:48.685Z</time></trkpt><trkpt lat="9.508767" lon="-75.5735016"><ele>7.800000000000001</ele><time>2026-04-18T13:59:49.682Z</time></trkpt><trkpt lat="9.508859" lon="-75.5734851"><ele>7.6000000000000005</ele><time>2026-04-18T13:59:50.686Z</time></trkpt><trkpt lat="9.5089549" lon="-75.5734656"><ele>7.3999999999999995</ele><time>2026-04-18T13:59:51.689Z</time></trkpt><trkpt lat="9.5090496" lon="-75.5734508"><ele>7.199999999999999</ele><time>2026-04-18T13:59:52.69Z</time></trkpt><trkpt lat="9.50914" lon="-75.5734304"><ele>7.0</ele><time>2026-04-18T13:59:53.687Z</time></trkpt><trkpt lat="9.5092365" lon="-75.5734143"><ele>7.0</ele><time>2026-04-18T13:59:54.686Z</time></trkpt><trkpt lat="9.5093313" lon="-75.5733972"><ele>6.999999999999999</ele><time>2026-04-18T13:59:55.685Z</time></trkpt><trkpt lat="9.5094247" lon="-75.5733779"><ele>6.999999999999999</ele><time>2026-04-18T13:59:56.68Z</time></trkpt><trkpt lat="9.5095177" lon="-75.5733584"><ele>7.0</ele><time>2026-04-18T13:59:57.682Z</time></trkpt><trkpt lat="9.5096132" lon="-75.5733398"><ele>7.0</ele><time>2026-04-18T13:59:58.68Z</time></trkpt><trkpt lat="9.5097055" lon="-75.5733197"><ele>7.199999999999999</ele><time>2026-04-18T13:59:59.679Z</time></trkpt><trkpt lat="9.5098005" lon="-75.573304"><ele>7.3999999999999995</ele><time>2026-04-18T14:00:00.681Z</time></trkpt><trkpt lat="9.5098975" lon="-75.5732861"><ele>7.6000000000000005</ele><time>2026-04-18T14:00:01.687Z</time></trkpt><trkpt lat="9.5099937" lon="-75.5732709"><ele>7.800000000000001</ele><time>2026-04-18T14:00:02.683Z</time></trkpt><trkpt lat="9.5100875" lon="-75.5732581"><ele>8.0</ele><time>2026-04-18T14:00:03.684Z</time></trkpt><trkpt lat="9.5101775" lon="-75.5732425"><ele>8.0</ele><time>2026-04-18T14:00:04.682Z</time></trkpt><trkpt lat="9.5102725" lon="-75.5732248"><ele>8.0</ele><time>2026-04-18T14:00:05.684Z</time></trkpt><trkpt lat="9.5103634" lon="-75.5732109"><ele>8.0</ele><time>2026-04-18T14:00:06.689Z</time></trkpt><trkpt lat="9.5104562" lon="-75.5731953"><ele>8.0</ele><time>2026-04-18T14:00:07.686Z</time></trkpt><trkpt lat="9.5105515" lon="-75.5731804"><ele>8.0</ele><time>2026-04-18T14:00:08.685Z</time></trkpt><trkpt lat="9.5106401" lon="-75.573163"><ele>8.0</ele><time>2026-04-18T14:00:09.683Z</time></trkpt><trkpt lat="9.5107305" lon="-75.5731469"><ele>8.0</ele><time>2026-04-18T14:00:10.687Z</time></trkpt><trkpt lat="9.5108194" lon="-75.5731275"><ele>8.0</ele><time>2026-04-18T14:00:11.683Z</time></trkpt><trkpt lat="9.5109066" lon="-75.5731133"><ele>8.0</ele><time>2026-04-18T14:00:12.691Z</time></trkpt><trkpt lat="9.5109952" lon="-75.573096"><ele>8.0</ele><time>2026-04-18T14:00:13.688Z</time></trkpt><trkpt lat="9.5110854" lon="-75.5730771"><ele>7.999999999999999</ele><time>2026-04-18T14:00:14.689Z</time></trkpt><trkpt lat="9.5111723" lon="-75.573058"><ele>8.0</ele><time>2026-04-18T14:00:15.688Z</time></trkpt><trkpt lat="9.5112605" lon="-75.5730471"><ele>8.0</ele><time>2026-04-18T14:00:16.687Z</time></trkpt><trkpt lat="9.5113462" lon="-75.5730308"><ele>8.0</ele><time>2026-04-18T14:00:17.684Z</time></trkpt><trkpt lat="9.5114292" lon="-75.5730143"><ele>7.999999999999999</ele><time>2026-04-18T14:00:18.684Z</time></trkpt><trkpt lat="9.5115142" lon="-75.5729978"><ele>8.0</ele><time>2026-04-18T14:00:19.687Z</time></trkpt><trkpt lat="9.5116017" lon="-75.5729814"><ele>7.999999999999999</ele><time>2026-04-18T14:00:20.681Z</time></trkpt><trkpt lat="9.5116842" lon="-75.5729637"><ele>8.0</ele><time>2026-04-18T14:00:21.682Z</time></trkpt><trkpt lat="9.5117679" lon="-75.5729466"><ele>8.0</ele><time>2026-04-18T14:00:22.683Z</time></trkpt><trkpt lat="9.5118538" lon="-75.5729321"><ele>8.0</ele><time>2026-04-18T14:00:23.682Z</time></trkpt><trkpt lat="9.5119362" lon="-75.5729161"><ele>7.999999999999999</ele><time>2026-04-18T14:00:24.683Z</time></trkpt><trkpt lat="9.5120169" lon="-75.5729001"><ele>8.0</ele><time>2026-04-18T14:00:25.681Z</time></trkpt><trkpt lat="9.5120987" lon="-75.5728829"><ele>7.999999999999999</ele><time>2026-04-18T14:00:26.683Z</time></trkpt><trkpt lat="9.5121835" lon="-75.5728681"><ele>8.0</ele><time>2026-04-18T14:00:27.686Z</time></trkpt><trkpt lat="9.5122665" lon="-75.5728547"><ele>8.0</ele><time>2026-04-18T14:00:28.68Z</time></trkpt><trkpt lat="9.5123501" lon="-75.572839"><ele>8.0</ele><time>2026-04-18T14:00:29.684Z</time></trkpt><trkpt lat="9.5124341" lon="-75.5728244"><ele>7.999999999999999</ele><time>2026-04-18T14:00:30.685Z</time></trkpt><trkpt lat="9.5125183" lon="-75.5728086"><ele>8.0</ele><time>2026-04-18T14:00:31.685Z</time></trkpt><trkpt lat="9.5126006" lon="-75.5727948"><ele>7.999999999999999</ele><time>2026-04-18T14:00:32.685Z</time></trkpt><trkpt lat="9.5126838" lon="-75.5727779"><ele>8.0</ele><time>2026-04-18T14:00:33.677Z</time></trkpt><trkpt lat="9.5127696" lon="-75.5727624"><ele>8.0</ele><time>2026-04-18T14:00:34.683Z</time></trkpt><trkpt lat="9.5128527" lon="-75.5727497"><ele>8.0</ele><time>2026-04-18T14:00:35.686Z</time></trkpt><trkpt lat="9.5129374" lon="-75.572732"><ele>7.999999999999999</ele><time>2026-04-18T14:00:36.682Z</time></trkpt><trkpt lat="9.5130193" lon="-75.5727174"><ele>8.0</ele><time>2026-04-18T14:00:37.681Z</time></trkpt><trkpt lat="9.5131072" lon="-75.5727016"><ele>7.833333333333333</ele><time>2026-04-18T14:00:38.68Z</time></trkpt><trkpt lat="9.5131905" lon="-75.5726832"><ele>7.666666666666666</ele><time>2026-04-18T14:00:39.684Z</time></trkpt><trkpt lat="9.5132733" lon="-75.5726701"><ele>7.5</ele><time>2026-04-18T14:00:40.682Z</time></trkpt><trkpt lat="9.5133584" lon="-75.5726573"><ele>7.333333333333334</ele><time>2026-04-18T14:00:41.685Z</time></trkpt><trkpt lat="9.5134425" lon="-75.5726442"><ele>7.166666666666667</ele><time>2026-04-18T14:00:42.682Z</time></trkpt><trkpt lat="9.513525" lon="-75.5726297"><ele>7.0</ele><time>2026-04-18T14:00:43.683Z</time></trkpt><trkpt lat="9.5136095" lon="-75.5726163"><ele>7.000000000000001</ele><time>2026-04-18T14:00:44.684Z</time></trkpt><trkpt lat="9.5136958" lon="-75.5725998"><ele>7.0</ele><time>2026-04-18T14:00:45.68Z</time></trkpt><trkpt lat="9.5137829" lon="-75.5725825"><ele>7.0</ele><time>2026-04-18T14:00:46.682Z</time></trkpt><trkpt lat="9.513868" lon="-75.5725615"><ele>7.0</ele><time>2026-04-18T14:00:47.68Z</time></trkpt><trkpt lat="9.5139537" lon="-75.5725454"><ele>7.000000000000001</ele><time>2026-04-18T14:00:48.682Z</time></trkpt><trkpt lat="9.5140374" lon="-75.5725275"><ele>7.0</ele><time>2026-04-18T14:00:49.681Z</time></trkpt><trkpt lat="9.5141238" lon="-75.5725082"><ele>7.000000000000001</ele><time>2026-04-18T14:00:50.68Z</time></trkpt><trkpt lat="9.5142091" lon="-75.5724883"><ele>7.0</ele><time>2026-04-18T14:00:51.686Z</time></trkpt><trkpt lat="9.5142963" lon="-75.5724744"><ele>7.0</ele><time>2026-04-18T14:00:52.686Z</time></trkpt><trkpt lat="9.5143891" lon="-75.5724596"><ele>7.0</ele><time>2026-04-18T14:00:53.688Z</time></trkpt><trkpt lat="9.5144731" lon="-75.5724361"><ele>7.000000000000001</ele><time>2026-04-18T14:00:54.681Z</time></trkpt><trkpt lat="9.5145614" lon="-75.5724171"><ele>7.0</ele><time>2026-04-18T14:00:55.692Z</time></trkpt><trkpt lat="9.5146488" lon="-75.5724016"><ele>7.199999999999999</ele><time>2026-04-18T14:00:56.686Z</time></trkpt><trkpt lat="9.5147407" lon="-75.5723851"><ele>7.3999999999999995</ele><time>2026-04-18T14:00:57.686Z</time></trkpt><trkpt lat="9.5148308" lon="-75.5723662"><ele>7.6000000000000005</ele><time>2026-04-18T14:00:58.683Z</time></trkpt><trkpt lat="9.5149261" lon="-75.5723466"><ele>7.800000000000001</ele><time>2026-04-18T14:00:59.685Z</time></trkpt><trkpt lat="9.5150236" lon="-75.5723271"><ele>8.0</ele><time>2026-04-18T14:01:00.686Z</time></trkpt><trkpt lat="9.5151178" lon="-75.5723043"><ele>8.0</ele><time>2026-04-18T14:01:01.684Z</time></trkpt><trkpt lat="9.5152132" lon="-75.5722844"><ele>8.0</ele><time>2026-04-18T14:01:02.681Z</time></trkpt><trkpt lat="9.5153103" lon="-75.5722623"><ele>8.0</ele><time>2026-04-18T14:01:03.682Z</time></trkpt><trkpt lat="9.5154064" lon="-75.5722408"><ele>8.0</ele><time>2026-04-18T14:01:04.685Z</time></trkpt><trkpt lat="9.5155035" lon="-75.5722204"><ele>8.0</ele><time>2026-04-18T14:01:05.681Z</time></trkpt><trkpt lat="9.5156002" lon="-75.572201"><ele>7.800000000000001</ele><time>2026-04-18T14:01:06.678Z</time></trkpt><trkpt lat="9.5156929" lon="-75.5721818"><ele>7.6000000000000005</ele><time>2026-04-18T14:01:07.678Z</time></trkpt><trkpt lat="9.5157884" lon="-75.5721632"><ele>7.3999999999999995</ele><time>2026-04-18T14:01:08.681Z</time></trkpt><trkpt lat="9.5158882" lon="-75.5721439"><ele>7.199999999999999</ele><time>2026-04-18T14:01:09.682Z</time></trkpt><trkpt lat="9.5159854" lon="-75.5721238"><ele>7.0</ele><time>2026-04-18T14:01:10.68Z</time></trkpt><trkpt lat="9.5160834" lon="-75.5721016"><ele>7.0</ele><time>2026-04-18T14:01:11.678Z</time></trkpt><trkpt lat="9.5161831" lon="-75.5720829"><ele>6.999999999999999</ele><time>2026-04-18T14:01:12.681Z</time></trkpt><trkpt lat="9.5162821" lon="-75.5720633"><ele>6.999999999999999</ele><time>2026-04-18T14:01:13.682Z</time></trkpt><trkpt lat="9.5163776" lon="-75.5720429"><ele>7.0</ele><time>2026-04-18T14:01:14.684Z</time></trkpt><trkpt lat="9.5164751" lon="-75.57202"><ele>7.0</ele><time>2026-04-18T14:01:15.683Z</time></trkpt><trkpt lat="9.5165675" lon="-75.5719997"><ele>6.8</ele><time>2026-04-18T14:01:16.685Z</time></trkpt><trkpt lat="9.5166611" lon="-75.5719758"><ele>6.6</ele><time>2026-04-18T14:01:17.682Z</time></trkpt><trkpt lat="9.5167547" lon="-75.5719556"><ele>6.3999999999999995</ele><time>2026-04-18T14:01:18.682Z</time></trkpt><trkpt lat="9.5168477" lon="-75.5719337"><ele>6.199999999999999</ele><time>2026-04-18T14:01:19.679Z</time></trkpt><trkpt lat="9.5169373" lon="-75.571917"><ele>6.0</ele><time>2026-04-18T14:01:20.681Z</time></trkpt><trkpt lat="9.5170263" lon="-75.5718948"><ele>6.4</ele><time>2026-04-18T14:01:21.68Z</time></trkpt><trkpt lat="9.5171198" lon="-75.5718742"><ele>6.8</ele><time>2026-04-18T14:01:22.682Z</time></trkpt><trkpt lat="9.5172179" lon="-75.5718543"><ele>7.200000000000001</ele><time>2026-04-18T14:01:23.682Z</time></trkpt><trkpt lat="9.5173092" lon="-75.5718364"><ele>7.6000000000000005</ele><time>2026-04-18T14:01:24.684Z</time></trkpt><trkpt lat="9.5173996" lon="-75.5718198"><ele>8.0</ele><time>2026-04-18T14:01:25.686Z</time></trkpt><trkpt lat="9.5174933" lon="-75.5718022"><ele>8.0</ele><time>2026-04-18T14:01:26.683Z</time></trkpt><trkpt lat="9.517585" lon="-75.5717884"><ele>8.0</ele><time>2026-04-18T14:01:27.686Z</time></trkpt><trkpt lat="9.5176748" lon="-75.5717672"><ele>8.0</ele><time>2026-04-18T14:01:28.679Z</time></trkpt><trkpt lat="9.5177655" lon="-75.5717473"><ele>8.0</ele><time>2026-04-18T14:01:29.682Z</time></trkpt><trkpt lat="9.5178545" lon="-75.5717295"><ele>8.0</ele><time>2026-04-18T14:01:30.679Z</time></trkpt><trkpt lat="9.5179436" lon="-75.5717121"><ele>8.166666666666666</ele><time>2026-04-18T14:01:31.685Z</time></trkpt><trkpt lat="9.5180304" lon="-75.5716931"><ele>8.333333333333332</ele><time>2026-04-18T14:01:32.684Z</time></trkpt><trkpt lat="9.5181162" lon="-75.5716733"><ele>8.5</ele><time>2026-04-18T14:01:33.681Z</time></trkpt><trkpt lat="9.5182048" lon="-75.571654"><ele>8.666666666666666</ele><time>2026-04-18T14:01:34.681Z</time></trkpt><trkpt lat="9.5182901" lon="-75.5716354"><ele>8.833333333333334</ele><time>2026-04-18T14:01:35.686Z</time></trkpt><trkpt lat="9.5183755" lon="-75.5716211"><ele>9.0</ele><time>2026-04-18T14:01:36.689Z</time></trkpt><trkpt lat="9.5184575" lon="-75.5716031"><ele>9.0</ele><time>2026-04-18T14:01:37.686Z</time></trkpt><trkpt lat="9.518542" lon="-75.5715878"><ele>9.0</ele><time>2026-04-18T14:01:38.686Z</time></trkpt><trkpt lat="9.5186248" lon="-75.5715743"><ele>9.0</ele><time>2026-04-18T14:01:39.684Z</time></trkpt><trkpt lat="9.5187031" lon="-75.5715598"><ele>9.0</ele><time>2026-04-18T14:01:40.689Z</time></trkpt><trkpt lat="9.5187798" lon="-75.5715427"><ele>9.0</ele><time>2026-04-18T14:01:41.682Z</time></trkpt><trkpt lat="9.5188549" lon="-75.5715266"><ele>9.0</ele><time>2026-04-18T14:01:42.683Z</time></trkpt><trkpt lat="9.51893" lon="-75.5715123"><ele>8.833333333333334</ele><time>2026-04-18T14:01:43.684Z</time></trkpt><trkpt lat="9.5190029" lon="-75.5714976"><ele>8.666666666666666</ele><time>2026-04-18T14:01:44.681Z</time></trkpt><trkpt lat="9.5190763" lon="-75.5714843"><ele>8.5</ele><time>2026-04-18T14:01:45.68Z</time></trkpt><trkpt lat="9.5191464" lon="-75.5714712"><ele>8.333333333333332</ele><time>2026-04-18T14:01:46.684Z</time></trkpt><trkpt lat="9.519286" lon="-75.5714412"><ele>8.166666666666666</ele><time>2026-04-18T14:01:48.684Z</time></trkpt><trkpt lat="9.5193586" lon="-75.5714271"><ele>8.0</ele><time>2026-04-18T14:01:49.68Z</time></trkpt><trkpt lat="9.5194298" lon="-75.5714131"><ele>7.999999999999999</ele><time>2026-04-18T14:01:50.68Z</time></trkpt><trkpt lat="9.5194988" lon="-75.5713959"><ele>8.0</ele><time>2026-04-18T14:01:51.68Z</time></trkpt><trkpt lat="9.5195616" lon="-75.5713811"><ele>8.0</ele><time>2026-04-18T14:01:52.683Z</time></trkpt><trkpt lat="9.5196254" lon="-75.5713719"><ele>8.0</ele><time>2026-04-18T14:01:53.688Z</time></trkpt><trkpt lat="9.5197524" lon="-75.5713472"><ele>7.999999999999999</ele><time>2026-04-18T14:01:55.682Z</time></trkpt><trkpt lat="9.5198696" lon="-75.5713216"><ele>8.0</ele><time>2026-04-18T14:01:57.681Z</time></trkpt><trkpt lat="9.5199345" lon="-75.5713076"><ele>8.0</ele><time>2026-04-18T14:01:58.683Z</time></trkpt><trkpt lat="9.5200526" lon="-75.5712831"><ele>8.0</ele><time>2026-04-18T14:02:00.687Z</time></trkpt><trkpt lat="9.5201553" lon="-75.5712683"><ele>8.0</ele><time>2026-04-18T14:02:02.681Z</time></trkpt><trkpt lat="9.5202517" lon="-75.5712468"><ele>8.0</ele><time>2026-04-18T14:02:04.686Z</time></trkpt><trkpt lat="9.5203467" lon="-75.571217"><ele>8.0</ele><time>2026-04-18T14:02:06.68Z</time></trkpt><trkpt lat="9.5204394" lon="-75.5711764"><ele>9.0</ele><time>2026-04-18T14:02:08.682Z</time></trkpt><trkpt lat="9.5205222" lon="-75.5711176"><ele>10.0</ele><time>2026-04-18T14:02:10.683Z</time></trkpt><trkpt lat="9.5205994" lon="-75.5710419"><ele>11.0</ele><time>2026-04-18T14:02:12.685Z</time></trkpt><trkpt lat="9.5206723" lon="-75.5709642"><ele>12.0</ele><time>2026-04-18T14:02:14.683Z</time></trkpt><trkpt lat="9.520745" lon="-75.5708914"><ele>13.0</ele><time>2026-04-18T14:02:16.686Z</time></trkpt><trkpt lat="9.5208333" lon="-75.5708276"><ele>12.999999999999998</ele><time>2026-04-18T14:02:18.681Z</time></trkpt><trkpt lat="9.5209425" lon="-75.5708009"><ele>13.0</ele><time>2026-04-18T14:02:20.681Z</time></trkpt><trkpt lat="9.5210646" lon="-75.5708058"><ele>13.0</ele><time>2026-04-18T14:02:22.681Z</time></trkpt><trkpt lat="9.5211281" lon="-75.5708205"><ele>13.0</ele><time>2026-04-18T14:02:23.682Z</time></trkpt><trkpt lat="9.5211947" lon="-75.57084"><ele>12.999999999999998</ele><time>2026-04-18T14:02:24.685Z</time></trkpt><trkpt lat="9.5212587" lon="-75.570857"><ele>13.0</ele><time>2026-04-18T14:02:25.682Z</time></trkpt><trkpt lat="9.5213223" lon="-75.5708758"><ele>12.200000000000001</ele><time>2026-04-18T14:02:26.681Z</time></trkpt><trkpt lat="9.5213838" lon="-75.57089"><ele>11.4</ele><time>2026-04-18T14:02:27.685Z</time></trkpt><trkpt lat="9.5215047" lon="-75.5709002"><ele>10.600000000000001</ele><time>2026-04-18T14:02:29.687Z</time></trkpt><trkpt lat="9.5216212" lon="-75.5708664"><ele>9.8</ele><time>2026-04-18T14:02:31.683Z</time></trkpt><trkpt lat="9.5217387" lon="-75.570823"><ele>9.0</ele><time>2026-04-18T14:02:33.685Z</time></trkpt><trkpt lat="9.5218455" lon="-75.5707723"><ele>9.0</ele><time>2026-04-18T14:02:35.683Z</time></trkpt><trkpt lat="9.5219343" lon="-75.5707304"><ele>9.0</ele><time>2026-04-18T14:02:37.679Z</time></trkpt><trkpt lat="9.5219924" lon="-75.5706939"><ele>9.0</ele><time>2026-04-18T14:02:39.683Z</time></trkpt><trkpt lat="9.5220614" lon="-75.5706434"><ele>9.0</ele><time>2026-04-18T14:02:42.683Z</time></trkpt><trkpt lat="9.5221371" lon="-75.5706246"><ele>9.0</ele><time>2026-04-18T14:02:44.684Z</time></trkpt><trkpt lat="9.5222326" lon="-75.5705904"><ele>9.0</ele><time>2026-04-18T14:02:46.682Z</time></trkpt><trkpt lat="9.5223247" lon="-75.5705471"><ele>9.166666666666666</ele><time>2026-04-18T14:02:48.682Z</time></trkpt><trkpt lat="9.522418" lon="-75.5705019"><ele>9.333333333333334</ele><time>2026-04-18T14:02:50.679Z</time></trkpt><trkpt lat="9.5225048" lon="-75.5704614"><ele>9.5</ele><time>2026-04-18T14:02:52.68Z</time></trkpt><trkpt lat="9.5225835" lon="-75.5704241"><ele>9.666666666666668</ele><time>2026-04-18T14:02:54.679Z</time></trkpt><trkpt lat="9.522651" lon="-75.5703965"><ele>9.833333333333334</ele><time>2026-04-18T14:02:56.682Z</time></trkpt><trkpt lat="9.5226997" lon="-75.5703545"><ele>10.0</ele><time>2026-04-18T14:02:59.681Z</time></trkpt><trkpt lat="9.5227292" lon="-75.5702918"><ele>10.0</ele><time>2026-04-18T14:07:54.69Z</time></trkpt><trkpt lat="9.5226663" lon="-75.570276"><ele>10.0</ele><time>2026-04-18T14:09:09.679Z</time></trkpt><trkpt lat="9.5227015" lon="-75.570347"><ele>10.0</ele><time>2026-04-18T14:11:20.675Z</time></trkpt><trkpt lat="9.5227589" lon="-75.570388"><ele>10.0</ele><time>2026-04-18T14:11:25.679Z</time></trkpt><trkpt lat="9.5228083" lon="-75.5703404"><ele>10.0</ele><time>2026-04-18T14:11:28.683Z</time></trkpt><trkpt lat="9.5228765" lon="-75.5702971"><ele>10.0</ele><time>2026-04-18T14:11:31.677Z</time></trkpt><trkpt lat="9.522953" lon="-75.5702499"><ele>9.666666666666668</ele><time>2026-04-18T14:11:34.681Z</time></trkpt><trkpt lat="9.5230153" lon="-75.5702225"><ele>9.333333333333334</ele><time>2026-04-18T14:11:36.681Z</time></trkpt><trkpt lat="9.5230863" lon="-75.5701919"><ele>9.0</ele><time>2026-04-18T14:11:38.683Z</time></trkpt><trkpt lat="9.5231644" lon="-75.5701614"><ele>8.666666666666666</ele><time>2026-04-18T14:11:40.679Z</time></trkpt><trkpt lat="9.523242" lon="-75.5701257"><ele>8.333333333333332</ele><time>2026-04-18T14:11:42.681Z</time></trkpt><trkpt lat="9.5233218" lon="-75.5700833"><ele>8.0</ele><time>2026-04-18T14:11:44.691Z</time></trkpt><trkpt lat="9.5234062" lon="-75.5700384"><ele>8.0</ele><time>2026-04-18T14:11:46.681Z</time></trkpt><trkpt lat="9.523496" lon="-75.5700055"><ele>8.0</ele><time>2026-04-18T14:11:48.68Z</time></trkpt><trkpt lat="9.5235882" lon="-75.5699599"><ele>8.0</ele><time>2026-04-18T14:11:50.68Z</time></trkpt><trkpt lat="9.5236969" lon="-75.5699109"><ele>8.0</ele><time>2026-04-18T14:11:52.684Z</time></trkpt><trkpt lat="9.5237916" lon="-75.5698628"><ele>8.0</ele><time>2026-04-18T14:11:54.674Z</time></trkpt><trkpt lat="9.5238853" lon="-75.5698161"><ele>7.6000000000000005</ele><time>2026-04-18T14:11:56.674Z</time></trkpt><trkpt lat="9.5239799" lon="-75.5697711"><ele>7.200000000000001</ele><time>2026-04-18T14:11:58.676Z</time></trkpt><trkpt lat="9.5240779" lon="-75.5697223"><ele>6.8</ele><time>2026-04-18T14:12:00.675Z</time></trkpt><trkpt lat="9.5241783" lon="-75.5696682"><ele>6.4</ele><time>2026-04-18T14:12:02.684Z</time></trkpt><trkpt lat="9.5242813" lon="-75.5696206"><ele>6.0</ele><time>2026-04-18T14:12:04.681Z</time></trkpt><trkpt lat="9.5243856" lon="-75.5695751"><ele>6.25</ele><time>2026-04-18T14:12:06.686Z</time></trkpt><trkpt lat="9.5244877" lon="-75.5695229"><ele>6.5</ele><time>2026-04-18T14:12:08.682Z</time></trkpt><trkpt lat="9.5245965" lon="-75.5694762"><ele>6.75</ele><time>2026-04-18T14:12:10.695Z</time></trkpt><trkpt lat="9.5247045" lon="-75.5694278"><ele>7.0</ele><time>2026-04-18T14:12:12.674Z</time></trkpt><trkpt lat="9.5248073" lon="-75.5693771"><ele>7.0</ele><time>2026-04-18T14:12:14.675Z</time></trkpt><trkpt lat="9.524904" lon="-75.5693295"><ele>6.999999999999999</ele><time>2026-04-18T14:12:16.686Z</time></trkpt><trkpt lat="9.5250013" lon="-75.5692864"><ele>6.999999999999999</ele><time>2026-04-18T14:12:18.683Z</time></trkpt><trkpt lat="9.5250982" lon="-75.5692512"><ele>7.0</ele><time>2026-04-18T14:12:20.682Z</time></trkpt><trkpt lat="9.5251955" lon="-75.5692052"><ele>7.0</ele><time>2026-04-18T14:12:22.68Z</time></trkpt><trkpt lat="9.5252921" lon="-75.5691563"><ele>7.0</ele><time>2026-04-18T14:12:24.679Z</time></trkpt><trkpt lat="9.5253951" lon="-75.5691042"><ele>7.0</ele><time>2026-04-18T14:12:26.681Z</time></trkpt><trkpt lat="9.5255022" lon="-75.569061"><ele>7.0</ele><time>2026-04-18T14:12:28.681Z</time></trkpt><trkpt lat="9.5256052" lon="-75.5690082"><ele>7.0</ele><time>2026-04-18T14:12:30.677Z</time></trkpt><trkpt lat="9.5257185" lon="-75.5689578"><ele>6.833333333333334</ele><time>2026-04-18T14:12:32.687Z</time></trkpt><trkpt lat="9.5257772" lon="-75.5689328"><ele>6.666666666666667</ele><time>2026-04-18T14:12:33.675Z</time></trkpt><trkpt lat="9.5258345" lon="-75.5689057"><ele>6.5</ele><time>2026-04-18T14:12:34.681Z</time></trkpt><trkpt lat="9.525892" lon="-75.5688791"><ele>6.333333333333334</ele><time>2026-04-18T14:12:35.676Z</time></trkpt><trkpt lat="9.5260055" lon="-75.5688275"><ele>6.166666666666667</ele><time>2026-04-18T14:12:37.679Z</time></trkpt><trkpt lat="9.5261202" lon="-75.5687806"><ele>6.0</ele><time>2026-04-18T14:12:39.678Z</time></trkpt><trkpt lat="9.5262343" lon="-75.568725"><ele>6.0</ele><time>2026-04-18T14:12:41.676Z</time></trkpt><trkpt lat="9.526294" lon="-75.5687003"><ele>6.0</ele><time>2026-04-18T14:12:42.675Z</time></trkpt><trkpt lat="9.5263538" lon="-75.5686726"><ele>6.0</ele><time>2026-04-18T14:12:43.683Z</time></trkpt><trkpt lat="9.5264667" lon="-75.568623"><ele>6.0</ele><time>2026-04-18T14:12:45.681Z</time></trkpt><trkpt lat="9.5265233" lon="-75.568593"><ele>6.0</ele><time>2026-04-18T14:12:46.681Z</time></trkpt><trkpt lat="9.5265848" lon="-75.5685626"><ele>6.0</ele><time>2026-04-18T14:12:47.676Z</time></trkpt><trkpt lat="9.5266972" lon="-75.5685135"><ele>6.0</ele><time>2026-04-18T14:12:49.684Z</time></trkpt><trkpt lat="9.5268042" lon="-75.5684654"><ele>6.0</ele><time>2026-04-18T14:12:51.678Z</time></trkpt><trkpt lat="9.5269136" lon="-75.56842"><ele>6.0</ele><time>2026-04-18T14:12:53.676Z</time></trkpt><trkpt lat="9.5270243" lon="-75.5683719"><ele>6.0</ele><time>2026-04-18T14:12:55.679Z</time></trkpt><trkpt lat="9.5270834" lon="-75.5683434"><ele>6.0</ele><time>2026-04-18T14:12:56.68Z</time></trkpt><trkpt lat="9.5271966" lon="-75.5682978"><ele>6.428571428571428</ele><time>2026-04-18T14:12:58.678Z</time></trkpt><trkpt lat="9.5272515" lon="-75.5682656"><ele>6.857142857142858</ele><time>2026-04-18T14:12:59.682Z</time></trkpt><trkpt lat="9.5273062" lon="-75.5682336"><ele>7.2857142857142865</ele><time>2026-04-18T14:13:00.683Z</time></trkpt><trkpt lat="9.5273644" lon="-75.5682038"><ele>7.714285714285714</ele><time>2026-04-18T14:13:01.676Z</time></trkpt><trkpt lat="9.5274244" lon="-75.56818"><ele>8.142857142857142</ele><time>2026-04-18T14:13:02.684Z</time></trkpt><trkpt lat="9.5275452" lon="-75.5681467"><ele>8.571428571428573</ele><time>2026-04-18T14:13:04.679Z</time></trkpt><trkpt lat="9.5276043" lon="-75.56812"><ele>9.0</ele><time>2026-04-18T14:13:05.686Z</time></trkpt><trkpt lat="9.5276649" lon="-75.5680916"><ele>9.0</ele><time>2026-04-18T14:13:06.682Z</time></trkpt><trkpt lat="9.5277273" lon="-75.5680627"><ele>9.0</ele><time>2026-04-18T14:13:07.683Z</time></trkpt><trkpt lat="9.5277839" lon="-75.5680315"><ele>9.0</ele><time>2026-04-18T14:13:08.687Z</time></trkpt><trkpt lat="9.52784" lon="-75.5679974"><ele>9.0</ele><time>2026-04-18T14:13:09.68Z</time></trkpt><trkpt lat="9.5279521" lon="-75.5679312"><ele>9.0</ele><time>2026-04-18T14:13:11.686Z</time></trkpt><trkpt lat="9.5280083" lon="-75.5678986"><ele>9.0</ele><time>2026-04-18T14:13:12.683Z</time></trkpt><trkpt lat="9.5281151" lon="-75.5678391"><ele>9.142857142857144</ele><time>2026-04-18T14:13:14.683Z</time></trkpt><trkpt lat="9.5281733" lon="-75.5678069"><ele>9.285714285714286</ele><time>2026-04-18T14:13:15.686Z</time></trkpt><trkpt lat="9.5282292" lon="-75.5677741"><ele>9.428571428571429</ele><time>2026-04-18T14:13:16.683Z</time></trkpt><trkpt lat="9.5282853" lon="-75.5677447"><ele>9.571428571428573</ele><time>2026-04-18T14:13:17.68Z</time></trkpt><trkpt lat="9.5283441" lon="-75.5677144"><ele>9.714285714285715</ele><time>2026-04-18T14:13:18.679Z</time></trkpt><trkpt lat="9.5284004" lon="-75.56768"><ele>9.857142857142858</ele><time>2026-04-18T14:13:19.681Z</time></trkpt><trkpt lat="9.5284571" lon="-75.5676507"><ele>10.0</ele><time>2026-04-18T14:13:20.682Z</time></trkpt><trkpt lat="9.5285137" lon="-75.5676199"><ele>10.0</ele><time>2026-04-18T14:13:21.681Z</time></trkpt><trkpt lat="9.5285698" lon="-75.5675861"><ele>10.0</ele><time>2026-04-18T14:13:22.681Z</time></trkpt><trkpt lat="9.5286312" lon="-75.5675552"><ele>10.0</ele><time>2026-04-18T14:13:23.696Z</time></trkpt><trkpt lat="9.5286954" lon="-75.567527"><ele>10.0</ele><time>2026-04-18T14:13:24.68Z</time></trkpt><trkpt lat="9.5287581" lon="-75.5674919"><ele>10.0</ele><time>2026-04-18T14:13:25.683Z</time></trkpt><trkpt lat="9.5288191" lon="-75.56746"><ele>10.0</ele><time>2026-04-18T14:13:26.683Z</time></trkpt><trkpt lat="9.5288739" lon="-75.567423"><ele>10.0</ele><time>2026-04-18T14:13:27.678Z</time></trkpt><trkpt lat="9.528934" lon="-75.5673912"><ele>9.6</ele><time>2026-04-18T14:13:28.681Z</time></trkpt><trkpt lat="9.5289927" lon="-75.5673596"><ele>9.2</ele><time>2026-04-18T14:13:29.676Z</time></trkpt><trkpt lat="9.5290524" lon="-75.567335"><ele>8.8</ele><time>2026-04-18T14:13:30.677Z</time></trkpt><trkpt lat="9.5291596" lon="-75.5672709"><ele>8.4</ele><time>2026-04-18T14:13:32.676Z</time></trkpt><trkpt lat="9.5292719" lon="-75.5672145"><ele>8.0</ele><time>2026-04-18T14:13:34.679Z</time></trkpt><trkpt lat="9.5293765" lon="-75.5671547"><ele>8.0</ele><time>2026-04-18T14:13:36.683Z</time></trkpt><trkpt lat="9.5294314" lon="-75.5671217"><ele>8.0</ele><time>2026-04-18T14:13:37.68Z</time></trkpt><trkpt lat="9.5295303" lon="-75.567069"><ele>8.0</ele><time>2026-04-18T14:13:39.68Z</time></trkpt><trkpt lat="9.529628" lon="-75.5670171"><ele>8.0</ele><time>2026-04-18T14:13:41.68Z</time></trkpt><trkpt lat="9.5297305" lon="-75.5669619"><ele>8.0</ele><time>2026-04-18T14:13:43.681Z</time></trkpt><trkpt lat="9.5298273" lon="-75.5669048"><ele>8.200000000000001</ele><time>2026-04-18T14:13:45.681Z</time></trkpt><trkpt lat="9.5299251" lon="-75.5668561"><ele>8.4</ele><time>2026-04-18T14:13:47.685Z</time></trkpt><trkpt lat="9.5300322" lon="-75.5667956"><ele>8.600000000000001</ele><time>2026-04-18T14:13:49.682Z</time></trkpt><trkpt lat="9.5301376" lon="-75.5667396"><ele>8.8</ele><time>2026-04-18T14:13:51.682Z</time></trkpt><trkpt lat="9.5301952" lon="-75.5667067"><ele>9.0</ele><time>2026-04-18T14:13:52.679Z</time></trkpt><trkpt lat="9.5302933" lon="-75.5666461"><ele>8.4</ele><time>2026-04-18T14:13:54.683Z</time></trkpt><trkpt lat="9.5303963" lon="-75.5665871"><ele>7.800000000000001</ele><time>2026-04-18T14:13:56.679Z</time></trkpt><trkpt lat="9.530452" lon="-75.5665546"><ele>7.199999999999999</ele><time>2026-04-18T14:13:57.677Z</time></trkpt><trkpt lat="9.5305573" lon="-75.5664955"><ele>6.6</ele><time>2026-04-18T14:13:59.689Z</time></trkpt><trkpt lat="9.5306671" lon="-75.5664372"><ele>6.0</ele><time>2026-04-18T14:14:01.681Z</time></trkpt><trkpt lat="9.5307762" lon="-75.5663775"><ele>6.0</ele><time>2026-04-18T14:14:03.684Z</time></trkpt><trkpt lat="9.5308843" lon="-75.5663165"><ele>6.0</ele><time>2026-04-18T14:14:05.685Z</time></trkpt><trkpt lat="9.5309919" lon="-75.566258"><ele>6.0</ele><time>2026-04-18T14:14:07.681Z</time></trkpt><trkpt lat="9.5310925" lon="-75.5662007"><ele>6.0</ele><time>2026-04-18T14:14:09.688Z</time></trkpt><trkpt lat="9.5312019" lon="-75.5661387"><ele>5.7142857142857135</ele><time>2026-04-18T14:14:11.69Z</time></trkpt><trkpt lat="9.5312591" lon="-75.5661091"><ele>5.428571428571429</ele><time>2026-04-18T14:14:12.684Z</time></trkpt><trkpt lat="9.5313618" lon="-75.566058"><ele>5.142857142857142</ele><time>2026-04-18T14:14:14.681Z</time></trkpt><trkpt lat="9.5314171" lon="-75.5660239"><ele>4.857142857142857</ele><time>2026-04-18T14:14:15.678Z</time></trkpt><trkpt lat="9.5314698" lon="-75.5659885"><ele>4.571428571428571</ele><time>2026-04-18T14:14:16.682Z</time></trkpt><trkpt lat="9.5315304" lon="-75.5659566"><ele>4.285714285714286</ele><time>2026-04-18T14:14:17.681Z</time></trkpt><trkpt lat="9.5315911" lon="-75.565926"><ele>4.0</ele><time>2026-04-18T14:14:18.679Z</time></trkpt><trkpt lat="9.5316522" lon="-75.5658912"><ele>4.0</ele><time>2026-04-18T14:14:19.682Z</time></trkpt><trkpt lat="9.5317123" lon="-75.5658601"><ele>3.9999999999999996</ele><time>2026-04-18T14:14:20.684Z</time></trkpt><trkpt lat="9.5317692" lon="-75.5658263"><ele>4.0</ele><time>2026-04-18T14:14:21.682Z</time></trkpt><trkpt lat="9.5318306" lon="-75.5657952"><ele>4.0</ele><time>2026-04-18T14:14:22.681Z</time></trkpt><trkpt lat="9.5318944" lon="-75.5657643"><ele>3.9999999999999996</ele><time>2026-04-18T14:14:23.682Z</time></trkpt><trkpt lat="9.5319547" lon="-75.5657271"><ele>4.0</ele><time>2026-04-18T14:14:24.682Z</time></trkpt><trkpt lat="9.532015" lon="-75.5656919"><ele>4.0</ele><time>2026-04-18T14:14:25.68Z</time></trkpt><trkpt lat="9.5320756" lon="-75.565659"><ele>4.285714285714286</ele><time>2026-04-18T14:14:26.68Z</time></trkpt><trkpt lat="9.5321384" lon="-75.5656253"><ele>4.571428571428571</ele><time>2026-04-18T14:14:27.68Z</time></trkpt><trkpt lat="9.5322004" lon="-75.5655878"><ele>4.857142857142857</ele><time>2026-04-18T14:14:28.679Z</time></trkpt><trkpt lat="9.5322624" lon="-75.5655533"><ele>5.142857142857142</ele><time>2026-04-18T14:14:29.678Z</time></trkpt><trkpt lat="9.5323252" lon="-75.565513"><ele>5.428571428571429</ele><time>2026-04-18T14:14:30.679Z</time></trkpt><trkpt lat="9.5323921" lon="-75.5654742"><ele>5.7142857142857135</ele><time>2026-04-18T14:14:31.68Z</time></trkpt><trkpt lat="9.532459" lon="-75.5654387"><ele>6.0</ele><time>2026-04-18T14:14:32.683Z</time></trkpt><trkpt lat="9.5325288" lon="-75.5654055"><ele>6.0</ele><time>2026-04-18T14:14:33.681Z</time></trkpt><trkpt lat="9.5325915" lon="-75.5653642"><ele>6.0</ele><time>2026-04-18T14:14:34.682Z</time></trkpt><trkpt lat="9.5326587" lon="-75.5653237"><ele>6.0</ele><time>2026-04-18T14:14:35.68Z</time></trkpt><trkpt lat="9.5327258" lon="-75.5652823"><ele>6.0</ele><time>2026-04-18T14:14:36.68Z</time></trkpt><trkpt lat="9.5327954" lon="-75.5652424"><ele>6.0</ele><time>2026-04-18T14:14:37.68Z</time></trkpt><trkpt lat="9.5328628" lon="-75.5652037"><ele>6.0</ele><time>2026-04-18T14:14:38.678Z</time></trkpt><trkpt lat="9.5329335" lon="-75.5651685"><ele>6.166666666666667</ele><time>2026-04-18T14:14:39.682Z</time></trkpt><trkpt lat="9.5330031" lon="-75.5651328"><ele>6.333333333333334</ele><time>2026-04-18T14:14:40.682Z</time></trkpt><trkpt lat="9.5330695" lon="-75.5650936"><ele>6.5</ele><time>2026-04-18T14:14:41.68Z</time></trkpt><trkpt lat="9.533139" lon="-75.5650553"><ele>6.666666666666667</ele><time>2026-04-18T14:14:42.683Z</time></trkpt><trkpt lat="9.5332051" lon="-75.5650192"><ele>6.833333333333334</ele><time>2026-04-18T14:14:43.682Z</time></trkpt><trkpt lat="9.5332708" lon="-75.5649867"><ele>7.0</ele><time>2026-04-18T14:14:44.68Z</time></trkpt><trkpt lat="9.5333342" lon="-75.5649487"><ele>7.000000000000001</ele><time>2026-04-18T14:14:45.68Z</time></trkpt><trkpt lat="9.5334019" lon="-75.5649104"><ele>7.0</ele><time>2026-04-18T14:14:46.678Z</time></trkpt><trkpt lat="9.5334676" lon="-75.5648711"><ele>7.0</ele><time>2026-04-18T14:14:47.684Z</time></trkpt><trkpt lat="9.5335367" lon="-75.5648316"><ele>7.0</ele><time>2026-04-18T14:14:48.682Z</time></trkpt><trkpt lat="9.5336033" lon="-75.5647932"><ele>7.000000000000001</ele><time>2026-04-18T14:14:49.682Z</time></trkpt><trkpt lat="9.5336725" lon="-75.564754"><ele>7.0</ele><time>2026-04-18T14:14:50.682Z</time></trkpt><trkpt lat="9.5337419" lon="-75.5647156"><ele>7.000000000000001</ele><time>2026-04-18T14:14:51.688Z</time></trkpt><trkpt lat="9.5338107" lon="-75.5646788"><ele>7.0</ele><time>2026-04-18T14:14:52.683Z</time></trkpt><trkpt lat="9.5338859" lon="-75.5646397"><ele>7.0</ele><time>2026-04-18T14:14:53.682Z</time></trkpt><trkpt lat="9.5339563" lon="-75.5646041"><ele>7.0</ele><time>2026-04-18T14:14:54.683Z</time></trkpt><trkpt lat="9.5340256" lon="-75.5645644"><ele>7.000000000000001</ele><time>2026-04-18T14:14:55.682Z</time></trkpt><trkpt lat="9.5340943" lon="-75.5645276"><ele>7.0</ele><time>2026-04-18T14:14:56.683Z</time></trkpt><trkpt lat="9.5341632" lon="-75.5644889"><ele>6.833333333333334</ele><time>2026-04-18T14:14:57.685Z</time></trkpt><trkpt lat="9.5342302" lon="-75.5644485"><ele>6.666666666666667</ele><time>2026-04-18T14:14:58.679Z</time></trkpt><trkpt lat="9.5342986" lon="-75.5644126"><ele>6.5</ele><time>2026-04-18T14:14:59.684Z</time></trkpt><trkpt lat="9.5343654" lon="-75.5643707"><ele>6.333333333333334</ele><time>2026-04-18T14:15:00.682Z</time></trkpt><trkpt lat="9.5344321" lon="-75.5643352"><ele>6.166666666666667</ele><time>2026-04-18T14:15:01.681Z</time></trkpt><trkpt lat="9.5344971" lon="-75.5642987"><ele>6.0</ele><time>2026-04-18T14:15:02.68Z</time></trkpt><trkpt lat="9.5345722" lon="-75.5642583"><ele>6.0</ele><time>2026-04-18T14:15:03.683Z</time></trkpt><trkpt lat="9.5346392" lon="-75.564216"><ele>6.0</ele><time>2026-04-18T14:15:04.684Z</time></trkpt><trkpt lat="9.5347079" lon="-75.5641736"><ele>6.0</ele><time>2026-04-18T14:15:05.685Z</time></trkpt><trkpt lat="9.5347783" lon="-75.5641341"><ele>6.0</ele><time>2026-04-18T14:15:06.684Z</time></trkpt><trkpt lat="9.534849" lon="-75.5640977"><ele>6.0</ele><time>2026-04-18T14:15:07.682Z</time></trkpt><trkpt lat="9.534915" lon="-75.564059"><ele>6.0</ele><time>2026-04-18T14:15:08.684Z</time></trkpt><trkpt lat="9.5349867" lon="-75.5640185"><ele>6.0</ele><time>2026-04-18T14:15:09.683Z</time></trkpt><trkpt lat="9.5350561" lon="-75.5639783"><ele>6.0</ele><time>2026-04-18T14:15:10.68Z</time></trkpt><trkpt lat="9.5351264" lon="-75.5639397"><ele>6.0</ele><time>2026-04-18T14:15:11.681Z</time></trkpt><trkpt lat="9.5351956" lon="-75.5639007"><ele>6.0</ele><time>2026-04-18T14:15:12.682Z</time></trkpt><trkpt lat="9.5352641" lon="-75.5638616"><ele>6.0</ele><time>2026-04-18T14:15:13.68Z</time></trkpt><trkpt lat="9.5353378" lon="-75.5638219"><ele>6.0</ele><time>2026-04-18T14:15:14.678Z</time></trkpt><trkpt lat="9.5354093" lon="-75.5637818"><ele>6.166666666666667</ele><time>2026-04-18T14:15:15.68Z</time></trkpt><trkpt lat="9.5354811" lon="-75.5637416"><ele>6.333333333333334</ele><time>2026-04-18T14:15:16.681Z</time></trkpt><trkpt lat="9.5355537" lon="-75.5637028"><ele>6.5</ele><time>2026-04-18T14:15:17.681Z</time></trkpt><trkpt lat="9.5356272" lon="-75.5636596"><ele>6.666666666666667</ele><time>2026-04-18T14:15:18.681Z</time></trkpt><trkpt lat="9.5357002" lon="-75.5636168"><ele>6.833333333333334</ele><time>2026-04-18T14:15:19.684Z</time></trkpt><trkpt lat="9.5357689" lon="-75.5635764"><ele>7.0</ele><time>2026-04-18T14:15:20.685Z</time></trkpt><trkpt lat="9.5358353" lon="-75.5635355"><ele>7.000000000000001</ele><time>2026-04-18T14:15:21.684Z</time></trkpt><trkpt lat="9.535905" lon="-75.5634961"><ele>7.0</ele><time>2026-04-18T14:15:22.683Z</time></trkpt><trkpt lat="9.5359747" lon="-75.5634543"><ele>7.0</ele><time>2026-04-18T14:15:23.68Z</time></trkpt><trkpt lat="9.5360401" lon="-75.5634123"><ele>7.0</ele><time>2026-04-18T14:15:24.681Z</time></trkpt><trkpt lat="9.536105" lon="-75.5633756"><ele>7.000000000000001</ele><time>2026-04-18T14:15:25.679Z</time></trkpt><trkpt lat="9.5361703" lon="-75.5633395"><ele>7.0</ele><time>2026-04-18T14:15:26.682Z</time></trkpt><trkpt lat="9.5362391" lon="-75.5633024"><ele>7.000000000000001</ele><time>2026-04-18T14:15:27.684Z</time></trkpt><trkpt lat="9.5363065" lon="-75.5632635"><ele>7.0</ele><time>2026-04-18T14:15:28.681Z</time></trkpt><trkpt lat="9.5363719" lon="-75.563224"><ele>7.0</ele><time>2026-04-18T14:15:29.684Z</time></trkpt><trkpt lat="9.536438" lon="-75.5631864"><ele>7.0</ele><time>2026-04-18T14:15:30.681Z</time></trkpt><trkpt lat="9.5365036" lon="-75.563149"><ele>7.000000000000001</ele><time>2026-04-18T14:15:31.683Z</time></trkpt><trkpt lat="9.5365663" lon="-75.5631133"><ele>7.0</ele><time>2026-04-18T14:15:32.681Z</time></trkpt><trkpt lat="9.5366355" lon="-75.5630752"><ele>7.000000000000001</ele><time>2026-04-18T14:15:33.681Z</time></trkpt><trkpt lat="9.5367014" lon="-75.5630336"><ele>7.0</ele><time>2026-04-18T14:15:34.683Z</time></trkpt><trkpt lat="9.5367745" lon="-75.562995"><ele>7.0</ele><time>2026-04-18T14:15:35.682Z</time></trkpt><trkpt lat="9.5368446" lon="-75.5629527"><ele>7.0</ele><time>2026-04-18T14:15:36.684Z</time></trkpt><trkpt lat="9.536917" lon="-75.5629111"><ele>7.000000000000001</ele><time>2026-04-18T14:15:37.683Z</time></trkpt><trkpt lat="9.536986" lon="-75.5628705"><ele>7.0</ele><time>2026-04-18T14:15:38.679Z</time></trkpt><trkpt lat="9.5370559" lon="-75.5628297"><ele>6.833333333333334</ele><time>2026-04-18T14:15:39.68Z</time></trkpt><trkpt lat="9.5371266" lon="-75.5627918"><ele>6.666666666666667</ele><time>2026-04-18T14:15:40.68Z</time></trkpt><trkpt lat="9.5372" lon="-75.5627503"><ele>6.5</ele><time>2026-04-18T14:15:41.679Z</time></trkpt><trkpt lat="9.5372731" lon="-75.5627052"><ele>6.333333333333334</ele><time>2026-04-18T14:15:42.684Z</time></trkpt><trkpt lat="9.5373446" lon="-75.562664"><ele>6.166666666666667</ele><time>2026-04-18T14:15:43.68Z</time></trkpt><trkpt lat="9.5374186" lon="-75.5626202"><ele>6.0</ele><time>2026-04-18T14:15:44.68Z</time></trkpt><trkpt lat="9.5374917" lon="-75.5625779"><ele>6.0</ele><time>2026-04-18T14:15:45.682Z</time></trkpt><trkpt lat="9.5375644" lon="-75.5625387"><ele>6.0</ele><time>2026-04-18T14:15:46.68Z</time></trkpt><trkpt lat="9.5376357" lon="-75.5625017"><ele>6.0</ele><time>2026-04-18T14:15:47.682Z</time></trkpt><trkpt lat="9.5377073" lon="-75.5624595"><ele>6.0</ele><time>2026-04-18T14:15:48.681Z</time></trkpt><trkpt lat="9.5377776" lon="-75.5624152"><ele>6.0</ele><time>2026-04-18T14:15:49.68Z</time></trkpt><trkpt lat="9.537851" lon="-75.5623738"><ele>6.0</ele><time>2026-04-18T14:15:50.682Z</time></trkpt><trkpt lat="9.5379241" lon="-75.5623355"><ele>6.166666666666667</ele><time>2026-04-18T14:15:51.677Z</time></trkpt><trkpt lat="9.537995" lon="-75.5622958"><ele>6.333333333333334</ele><time>2026-04-18T14:15:52.679Z</time></trkpt><trkpt lat="9.5380688" lon="-75.5622531"><ele>6.5</ele><time>2026-04-18T14:15:53.68Z</time></trkpt><trkpt lat="9.5381442" lon="-75.5622089"><ele>6.666666666666667</ele><time>2026-04-18T14:15:54.684Z</time></trkpt><trkpt lat="9.5382201" lon="-75.5621658"><ele>6.833333333333334</ele><time>2026-04-18T14:15:55.68Z</time></trkpt><trkpt lat="9.5382935" lon="-75.5621219"><ele>7.0</ele><time>2026-04-18T14:15:56.683Z</time></trkpt><trkpt lat="9.5383687" lon="-75.5620781"><ele>7.000000000000001</ele><time>2026-04-18T14:15:57.68Z</time></trkpt><trkpt lat="9.5384436" lon="-75.562034"><ele>7.0</ele><time>2026-04-18T14:15:58.682Z</time></trkpt><trkpt lat="9.5385179" lon="-75.5619892"><ele>7.0</ele><time>2026-04-18T14:15:59.68Z</time></trkpt><trkpt lat="9.5385931" lon="-75.561948"><ele>7.0</ele><time>2026-04-18T14:16:00.687Z</time></trkpt><trkpt lat="9.5386689" lon="-75.5619074"><ele>7.000000000000001</ele><time>2026-04-18T14:16:01.681Z</time></trkpt><trkpt lat="9.5387424" lon="-75.5618653"><ele>7.0</ele><time>2026-04-18T14:16:02.682Z</time></trkpt><trkpt lat="9.5388145" lon="-75.5618231"><ele>7.000000000000001</ele><time>2026-04-18T14:16:03.685Z</time></trkpt><trkpt lat="9.538886" lon="-75.561777"><ele>7.0</ele><time>2026-04-18T14:16:04.681Z</time></trkpt><trkpt lat="9.5389563" lon="-75.5617345"><ele>7.0</ele><time>2026-04-18T14:16:05.682Z</time></trkpt><trkpt lat="9.5390297" lon="-75.5616922"><ele>7.0</ele><time>2026-04-18T14:16:06.68Z</time></trkpt><trkpt lat="9.5391025" lon="-75.5616492"><ele>7.000000000000001</ele><time>2026-04-18T14:16:07.686Z</time></trkpt><trkpt lat="9.5391737" lon="-75.5616078"><ele>7.0</ele><time>2026-04-18T14:16:08.682Z</time></trkpt><trkpt lat="9.5392491" lon="-75.5615667"><ele>7.000000000000001</ele><time>2026-04-18T14:16:09.682Z</time></trkpt><trkpt lat="9.5393226" lon="-75.5615244"><ele>7.0</ele><time>2026-04-18T14:16:10.679Z</time></trkpt><trkpt lat="9.5393956" lon="-75.5614826"><ele>7.0</ele><time>2026-04-18T14:16:11.681Z</time></trkpt><trkpt lat="9.5394712" lon="-75.5614428"><ele>7.0</ele><time>2026-04-18T14:16:12.679Z</time></trkpt><trkpt lat="9.5395431" lon="-75.5614023"><ele>7.000000000000001</ele><time>2026-04-18T14:16:13.683Z</time></trkpt><trkpt lat="9.5396133" lon="-75.5613636"><ele>7.0</ele><time>2026-04-18T14:16:14.681Z</time></trkpt><trkpt lat="9.5396861" lon="-75.5613218"><ele>7.000000000000001</ele><time>2026-04-18T14:16:15.68Z</time></trkpt><trkpt lat="9.5397649" lon="-75.5612744"><ele>7.0</ele><time>2026-04-18T14:16:16.681Z</time></trkpt><trkpt lat="9.5398378" lon="-75.5612338"><ele>7.0</ele><time>2026-04-18T14:16:17.682Z</time></trkpt><trkpt lat="9.5399092" lon="-75.5611907"><ele>7.0</ele><time>2026-04-18T14:16:18.68Z</time></trkpt><trkpt lat="9.5399796" lon="-75.5611455"><ele>7.000000000000001</ele><time>2026-04-18T14:16:19.681Z</time></trkpt><trkpt lat="9.5400506" lon="-75.561102"><ele>7.0</ele><time>2026-04-18T14:16:20.681Z</time></trkpt><trkpt lat="9.5401291" lon="-75.5610613"><ele>7.166666666666667</ele><time>2026-04-18T14:16:21.687Z</time></trkpt><trkpt lat="9.5402072" lon="-75.561018"><ele>7.333333333333334</ele><time>2026-04-18T14:16:22.679Z</time></trkpt><trkpt lat="9.5402796" lon="-75.5609762"><ele>7.5</ele><time>2026-04-18T14:16:23.683Z</time></trkpt><trkpt lat="9.5403498" lon="-75.560934"><ele>7.666666666666666</ele><time>2026-04-18T14:16:24.685Z</time></trkpt><trkpt lat="9.5404232" lon="-75.5608943"><ele>7.833333333333333</ele><time>2026-04-18T14:16:25.679Z</time></trkpt><trkpt lat="9.5404966" lon="-75.5608523"><ele>8.0</ele><time>2026-04-18T14:16:26.681Z</time></trkpt><trkpt lat="9.5405728" lon="-75.5608124"><ele>7.999999999999999</ele><time>2026-04-18T14:16:27.679Z</time></trkpt><trkpt lat="9.5406484" lon="-75.5607662"><ele>8.0</ele><time>2026-04-18T14:16:28.681Z</time></trkpt><trkpt lat="9.5407239" lon="-75.5607232"><ele>8.0</ele><time>2026-04-18T14:16:29.68Z</time></trkpt><trkpt lat="9.5407992" lon="-75.5606791"><ele>8.0</ele><time>2026-04-18T14:16:30.683Z</time></trkpt><trkpt lat="9.5408733" lon="-75.560633"><ele>7.999999999999999</ele><time>2026-04-18T14:16:31.68Z</time></trkpt><trkpt lat="9.5409413" lon="-75.5605873"><ele>8.0</ele><time>2026-04-18T14:16:32.679Z</time></trkpt><trkpt lat="9.5410123" lon="-75.5605399"><ele>7.999999999999999</ele><time>2026-04-18T14:16:33.677Z</time></trkpt><trkpt lat="9.541083" lon="-75.5604899"><ele>8.0</ele><time>2026-04-18T14:16:34.677Z</time></trkpt><trkpt lat="9.541151" lon="-75.5604376"><ele>8.0</ele><time>2026-04-18T14:16:35.677Z</time></trkpt><trkpt lat="9.5412189" lon="-75.5603819"><ele>8.0</ele><time>2026-04-18T14:16:36.68Z</time></trkpt><trkpt lat="9.5412827" lon="-75.5603267"><ele>7.999999999999999</ele><time>2026-04-18T14:16:37.681Z</time></trkpt><trkpt lat="9.5413497" lon="-75.5602714"><ele>8.0</ele><time>2026-04-18T14:16:38.678Z</time></trkpt><trkpt lat="9.5414159" lon="-75.5602126"><ele>8.166666666666666</ele><time>2026-04-18T14:16:39.682Z</time></trkpt><trkpt lat="9.5414772" lon="-75.560155"><ele>8.333333333333332</ele><time>2026-04-18T14:16:40.677Z</time></trkpt><trkpt lat="9.5415349" lon="-75.5600933"><ele>8.5</ele><time>2026-04-18T14:16:41.679Z</time></trkpt><trkpt lat="9.5415973" lon="-75.5600277"><ele>8.666666666666666</ele><time>2026-04-18T14:16:42.677Z</time></trkpt><trkpt lat="9.5416588" lon="-75.5599631"><ele>8.833333333333334</ele><time>2026-04-18T14:16:43.679Z</time></trkpt><trkpt lat="9.5417161" lon="-75.5598986"><ele>9.0</ele><time>2026-04-18T14:16:44.68Z</time></trkpt><trkpt lat="9.5417679" lon="-75.5598321"><ele>9.0</ele><time>2026-04-18T14:16:45.681Z</time></trkpt><trkpt lat="9.5418221" lon="-75.5597631"><ele>9.0</ele><time>2026-04-18T14:16:46.684Z</time></trkpt><trkpt lat="9.541873" lon="-75.5596943"><ele>9.0</ele><time>2026-04-18T14:16:47.682Z</time></trkpt><trkpt lat="9.5419189" lon="-75.5596271"><ele>9.0</ele><time>2026-04-18T14:16:48.68Z</time></trkpt><trkpt lat="9.5419686" lon="-75.5595576"><ele>9.0</ele><time>2026-04-18T14:16:49.679Z</time></trkpt><trkpt lat="9.5420181" lon="-75.5594838"><ele>9.0</ele><time>2026-04-18T14:16:50.676Z</time></trkpt><trkpt lat="9.5420613" lon="-75.5594117"><ele>8.666666666666666</ele><time>2026-04-18T14:16:51.677Z</time></trkpt><trkpt lat="9.5421082" lon="-75.5593361"><ele>8.333333333333334</ele><time>2026-04-18T14:16:52.683Z</time></trkpt><trkpt lat="9.5421521" lon="-75.5592644"><ele>8.0</ele><time>2026-04-18T14:16:53.679Z</time></trkpt><trkpt lat="9.5421976" lon="-75.5591902"><ele>7.666666666666667</ele><time>2026-04-18T14:16:54.677Z</time></trkpt><trkpt lat="9.5422397" lon="-75.5591176"><ele>7.333333333333334</ele><time>2026-04-18T14:16:55.679Z</time></trkpt><trkpt lat="9.5422818" lon="-75.5590415"><ele>7.0</ele><time>2026-04-18T14:16:56.677Z</time></trkpt><trkpt lat="9.5423242" lon="-75.558967"><ele>7.000000000000001</ele><time>2026-04-18T14:16:57.679Z</time></trkpt><trkpt lat="9.5423633" lon="-75.5588902"><ele>7.0</ele><time>2026-04-18T14:16:58.678Z</time></trkpt><trkpt lat="9.5424007" lon="-75.5588193"><ele>7.0</ele><time>2026-04-18T14:16:59.678Z</time></trkpt><trkpt lat="9.542444" lon="-75.5587442"><ele>7.0</ele><time>2026-04-18T14:17:00.675Z</time></trkpt><trkpt lat="9.5424843" lon="-75.5586661"><ele>7.000000000000001</ele><time>2026-04-18T14:17:01.683Z</time></trkpt><trkpt lat="9.5425196" lon="-75.5585896"><ele>7.0</ele><time>2026-04-18T14:17:02.676Z</time></trkpt><trkpt lat="9.5425572" lon="-75.5585137"><ele>7.0</ele><time>2026-04-18T14:17:03.678Z</time></trkpt><trkpt lat="9.5425969" lon="-75.5584379"><ele>6.999999999999999</ele><time>2026-04-18T14:17:04.678Z</time></trkpt><trkpt lat="9.5426366" lon="-75.558354"><ele>6.999999999999999</ele><time>2026-04-18T14:17:05.676Z</time></trkpt><trkpt lat="9.5426786" lon="-75.5582764"><ele>7.0</ele><time>2026-04-18T14:17:06.677Z</time></trkpt><trkpt lat="9.5427228" lon="-75.5581863"><ele>7.0</ele><time>2026-04-18T14:17:07.68Z</time></trkpt><trkpt lat="9.5427652" lon="-75.5581025"><ele>7.000000000000001</ele><time>2026-04-18T14:17:08.682Z</time></trkpt><trkpt lat="9.5428084" lon="-75.5580284"><ele>7.0</ele><time>2026-04-18T14:17:09.683Z</time></trkpt><trkpt lat="9.5428441" lon="-75.5579627"><ele>7.0</ele><time>2026-04-18T14:17:10.679Z</time></trkpt><trkpt lat="9.5428899" lon="-75.5578856"><ele>7.0</ele><time>2026-04-18T14:17:11.675Z</time></trkpt><trkpt lat="9.5429306" lon="-75.5578097"><ele>7.000000000000001</ele><time>2026-04-18T14:17:12.681Z</time></trkpt><trkpt lat="9.5429709" lon="-75.5577313"><ele>7.0</ele><time>2026-04-18T14:17:13.681Z</time></trkpt><trkpt lat="9.5430084" lon="-75.5576547"><ele>7.500000000000001</ele><time>2026-04-18T14:17:14.683Z</time></trkpt><trkpt lat="9.5430581" lon="-75.5575742"><ele>8.0</ele><time>2026-04-18T14:17:15.681Z</time></trkpt><trkpt lat="9.5430958" lon="-75.5574956"><ele>8.5</ele><time>2026-04-18T14:17:16.68Z</time></trkpt><trkpt lat="9.5431401" lon="-75.5574185"><ele>9.0</ele><time>2026-04-18T14:17:17.678Z</time></trkpt><trkpt lat="9.5431804" lon="-75.5573412"><ele>9.5</ele><time>2026-04-18T14:17:18.682Z</time></trkpt><trkpt lat="9.5432215" lon="-75.5572643"><ele>10.0</ele><time>2026-04-18T14:17:19.681Z</time></trkpt><trkpt lat="9.5432631" lon="-75.5571877"><ele>10.0</ele><time>2026-04-18T14:17:20.684Z</time></trkpt><trkpt lat="9.5433055" lon="-75.557114"><ele>10.0</ele><time>2026-04-18T14:17:21.68Z</time></trkpt><trkpt lat="9.5433462" lon="-75.5570372"><ele>10.0</ele><time>2026-04-18T14:17:22.68Z</time></trkpt><trkpt lat="9.5433913" lon="-75.5569592"><ele>10.0</ele><time>2026-04-18T14:17:23.681Z</time></trkpt><trkpt lat="9.5434308" lon="-75.5568786"><ele>10.0</ele><time>2026-04-18T14:17:24.679Z</time></trkpt><trkpt lat="9.5434748" lon="-75.5568027"><ele>10.0</ele><time>2026-04-18T14:17:25.679Z</time></trkpt><trkpt lat="9.5435132" lon="-75.5567223"><ele>9.833333333333334</ele><time>2026-04-18T14:17:26.68Z</time></trkpt><trkpt lat="9.543556" lon="-75.5566447"><ele>9.666666666666668</ele><time>2026-04-18T14:17:27.681Z</time></trkpt><trkpt lat="9.543599" lon="-75.5565647"><ele>9.5</ele><time>2026-04-18T14:17:28.68Z</time></trkpt><trkpt lat="9.5436407" lon="-75.5564824"><ele>9.333333333333334</ele><time>2026-04-18T14:17:29.685Z</time></trkpt><trkpt lat="9.5436805" lon="-75.5564034"><ele>9.166666666666666</ele><time>2026-04-18T14:17:30.683Z</time></trkpt><trkpt lat="9.5437245" lon="-75.5563279"><ele>9.0</ele><time>2026-04-18T14:17:31.677Z</time></trkpt><trkpt lat="9.5437638" lon="-75.5562507"><ele>8.333333333333334</ele><time>2026-04-18T14:17:32.683Z</time></trkpt><trkpt lat="9.543807" lon="-75.5561735"><ele>7.666666666666667</ele><time>2026-04-18T14:17:33.679Z</time></trkpt><trkpt lat="9.5438478" lon="-75.5560972"><ele>7.0</ele><time>2026-04-18T14:17:34.678Z</time></trkpt><trkpt lat="9.5438891" lon="-75.5560211"><ele>6.333333333333334</ele><time>2026-04-18T14:17:35.681Z</time></trkpt><trkpt lat="9.543928" lon="-75.5559465"><ele>5.666666666666667</ele><time>2026-04-18T14:17:36.679Z</time></trkpt><trkpt lat="9.5439678" lon="-75.5558676"><ele>5.0</ele><time>2026-04-18T14:17:37.679Z</time></trkpt><trkpt lat="9.5440079" lon="-75.5557953"><ele>5.0</ele><time>2026-04-18T14:17:38.679Z</time></trkpt><trkpt lat="9.5440526" lon="-75.5557168"><ele>5.0</ele><time>2026-04-18T14:17:39.681Z</time></trkpt><trkpt lat="9.5440965" lon="-75.5556408"><ele>5.0</ele><time>2026-04-18T14:17:40.68Z</time></trkpt><trkpt lat="9.5441399" lon="-75.5555649"><ele>5.0</ele><time>2026-04-18T14:17:41.682Z</time></trkpt><trkpt lat="9.5441813" lon="-75.5554831"><ele>5.0</ele><time>2026-04-18T14:17:42.679Z</time></trkpt><trkpt lat="9.5442219" lon="-75.5554062"><ele>5.0</ele><time>2026-04-18T14:17:43.678Z</time></trkpt><trkpt lat="9.5442625" lon="-75.5553275"><ele>5.333333333333334</ele><time>2026-04-18T14:17:44.678Z</time></trkpt><trkpt lat="9.5443062" lon="-75.5552485"><ele>5.666666666666667</ele><time>2026-04-18T14:17:45.681Z</time></trkpt><trkpt lat="9.5443464" lon="-75.5551755"><ele>6.0</ele><time>2026-04-18T14:17:46.679Z</time></trkpt><trkpt lat="9.5443886" lon="-75.5550975"><ele>6.333333333333334</ele><time>2026-04-18T14:17:47.68Z</time></trkpt><trkpt lat="9.5444288" lon="-75.5550196"><ele>6.666666666666667</ele><time>2026-04-18T14:17:48.682Z</time></trkpt><trkpt lat="9.5444704" lon="-75.5549465"><ele>7.0</ele><time>2026-04-18T14:17:49.679Z</time></trkpt><trkpt lat="9.5445062" lon="-75.5548725"><ele>7.000000000000001</ele><time>2026-04-18T14:17:50.683Z</time></trkpt><trkpt lat="9.5445392" lon="-75.5548021"><ele>7.0</ele><time>2026-04-18T14:17:51.681Z</time></trkpt><trkpt lat="9.5445822" lon="-75.5547248"><ele>7.0</ele><time>2026-04-18T14:17:52.681Z</time></trkpt><trkpt lat="9.5446247" lon="-75.5546465"><ele>7.0</ele><time>2026-04-18T14:17:53.678Z</time></trkpt><trkpt lat="9.544666" lon="-75.5545675"><ele>7.000000000000001</ele><time>2026-04-18T14:17:54.68Z</time></trkpt><trkpt lat="9.5447037" lon="-75.5544917"><ele>7.0</ele><time>2026-04-18T14:17:55.682Z</time></trkpt><trkpt lat="9.5447395" lon="-75.5544157"><ele>6.833333333333334</ele><time>2026-04-18T14:17:56.682Z</time></trkpt><trkpt lat="9.544782" lon="-75.5543396"><ele>6.666666666666667</ele><time>2026-04-18T14:17:57.68Z</time></trkpt><trkpt lat="9.5448195" lon="-75.5542629"><ele>6.5</ele><time>2026-04-18T14:17:58.679Z</time></trkpt><trkpt lat="9.5448614" lon="-75.5541865"><ele>6.333333333333334</ele><time>2026-04-18T14:17:59.679Z</time></trkpt><trkpt lat="9.5449045" lon="-75.5541059"><ele>6.166666666666667</ele><time>2026-04-18T14:18:00.678Z</time></trkpt><trkpt lat="9.5449505" lon="-75.5540297"><ele>6.0</ele><time>2026-04-18T14:18:01.68Z</time></trkpt><trkpt lat="9.5449926" lon="-75.5539526"><ele>6.0</ele><time>2026-04-18T14:18:02.682Z</time></trkpt><trkpt lat="9.5450363" lon="-75.5538727"><ele>6.0</ele><time>2026-04-18T14:18:03.683Z</time></trkpt><trkpt lat="9.5450777" lon="-75.5537957"><ele>6.0</ele><time>2026-04-18T14:18:04.679Z</time></trkpt><trkpt lat="9.545121" lon="-75.5537239"><ele>6.0</ele><time>2026-04-18T14:18:05.678Z</time></trkpt><trkpt lat="9.5451633" lon="-75.5536485"><ele>6.0</ele><time>2026-04-18T14:18:06.678Z</time></trkpt><trkpt lat="9.5452045" lon="-75.5535761"><ele>6.0</ele><time>2026-04-18T14:18:07.677Z</time></trkpt><trkpt lat="9.5452413" lon="-75.5535035"><ele>6.166666666666667</ele><time>2026-04-18T14:18:08.682Z</time></trkpt><trkpt lat="9.5452739" lon="-75.553424"><ele>6.333333333333334</ele><time>2026-04-18T14:18:09.678Z</time></trkpt><trkpt lat="9.5453189" lon="-75.5533481"><ele>6.5</ele><time>2026-04-18T14:18:10.679Z</time></trkpt><trkpt lat="9.5453599" lon="-75.5532746"><ele>6.666666666666667</ele><time>2026-04-18T14:18:11.679Z</time></trkpt><trkpt lat="9.545397" lon="-75.5532002"><ele>6.833333333333334</ele><time>2026-04-18T14:18:12.68Z</time></trkpt><trkpt lat="9.5454378" lon="-75.5531234"><ele>7.0</ele><time>2026-04-18T14:18:13.679Z</time></trkpt><trkpt lat="9.5454847" lon="-75.5530445"><ele>7.000000000000001</ele><time>2026-04-18T14:18:14.678Z</time></trkpt><trkpt lat="9.5455199" lon="-75.5529753"><ele>7.0</ele><time>2026-04-18T14:18:15.68Z</time></trkpt><trkpt lat="9.5455632" lon="-75.5528904"><ele>7.0</ele><time>2026-04-18T14:18:16.683Z</time></trkpt><trkpt lat="9.545601" lon="-75.5528161"><ele>7.0</ele><time>2026-04-18T14:18:17.681Z</time></trkpt><trkpt lat="9.545642" lon="-75.5527453"><ele>7.000000000000001</ele><time>2026-04-18T14:18:18.683Z</time></trkpt><trkpt lat="9.545679" lon="-75.5526718"><ele>7.0</ele><time>2026-04-18T14:18:19.68Z</time></trkpt><trkpt lat="9.5457134" lon="-75.5526007"><ele>6.500000000000001</ele><time>2026-04-18T14:18:20.679Z</time></trkpt><trkpt lat="9.5457498" lon="-75.552527"><ele>6.0</ele><time>2026-04-18T14:18:21.68Z</time></trkpt><trkpt lat="9.5457809" lon="-75.5524472"><ele>5.5</ele><time>2026-04-18T14:18:22.681Z</time></trkpt><trkpt lat="9.5458128" lon="-75.5523676"><ele>5.0</ele><time>2026-04-18T14:18:23.682Z</time></trkpt><trkpt lat="9.5458452" lon="-75.5522912"><ele>4.5</ele><time>2026-04-18T14:18:24.681Z</time></trkpt><trkpt lat="9.5458736" lon="-75.5522093"><ele>4.0</ele><time>2026-04-18T14:18:25.679Z</time></trkpt><trkpt lat="9.5458986" lon="-75.5521291"><ele>3.9999999999999996</ele><time>2026-04-18T14:18:26.682Z</time></trkpt><trkpt lat="9.5459246" lon="-75.5520485"><ele>4.0</ele><time>2026-04-18T14:18:27.681Z</time></trkpt><trkpt lat="9.5459453" lon="-75.5519654"><ele>4.0</ele><time>2026-04-18T14:18:28.68Z</time></trkpt><trkpt lat="9.5459666" lon="-75.5518808"><ele>4.0</ele><time>2026-04-18T14:18:29.683Z</time></trkpt><trkpt lat="9.5459799" lon="-75.5517986"><ele>3.9999999999999996</ele><time>2026-04-18T14:18:30.685Z</time></trkpt><trkpt lat="9.545997" lon="-75.5517149"><ele>4.0</ele><time>2026-04-18T14:18:31.677Z</time></trkpt><trkpt lat="9.5460048" lon="-75.5516357"><ele>3.9999999999999996</ele><time>2026-04-18T14:18:32.679Z</time></trkpt><trkpt lat="9.5460138" lon="-75.5515523"><ele>4.0</ele><time>2026-04-18T14:18:33.677Z</time></trkpt><trkpt lat="9.5460271" lon="-75.5514716"><ele>4.0</ele><time>2026-04-18T14:18:34.678Z</time></trkpt><trkpt lat="9.54604" lon="-75.5513907"><ele>4.0</ele><time>2026-04-18T14:18:35.679Z</time></trkpt><trkpt lat="9.5460512" lon="-75.5513059"><ele>3.9999999999999996</ele><time>2026-04-18T14:18:36.676Z</time></trkpt><trkpt lat="9.5460624" lon="-75.5512245"><ele>4.0</ele><time>2026-04-18T14:18:37.68Z</time></trkpt><trkpt lat="9.5460741" lon="-75.5511392"><ele>4.333333333333333</ele><time>2026-04-18T14:18:38.68Z</time></trkpt><trkpt lat="9.5460902" lon="-75.5510578"><ele>4.666666666666666</ele><time>2026-04-18T14:18:39.679Z</time></trkpt><trkpt lat="9.5460987" lon="-75.550975"><ele>5.0</ele><time>2026-04-18T14:18:40.684Z</time></trkpt><trkpt lat="9.5461148" lon="-75.5508907"><ele>5.333333333333333</ele><time>2026-04-18T14:18:41.681Z</time></trkpt><trkpt lat="9.546134" lon="-75.5508131"><ele>5.666666666666667</ele><time>2026-04-18T14:18:42.679Z</time></trkpt><trkpt lat="9.5461523" lon="-75.5507295"><ele>6.0</ele><time>2026-04-18T14:18:43.679Z</time></trkpt><trkpt lat="9.5461721" lon="-75.5506526"><ele>6.0</ele><time>2026-04-18T14:18:44.684Z</time></trkpt><trkpt lat="9.5461987" lon="-75.5505746"><ele>6.0</ele><time>2026-04-18T14:18:45.681Z</time></trkpt><trkpt lat="9.5462251" lon="-75.550495"><ele>6.0</ele><time>2026-04-18T14:18:46.682Z</time></trkpt><trkpt lat="9.5462601" lon="-75.5504186"><ele>6.0</ele><time>2026-04-18T14:18:47.683Z</time></trkpt><trkpt lat="9.54629" lon="-75.5503407"><ele>6.0</ele><time>2026-04-18T14:18:48.686Z</time></trkpt><trkpt lat="9.5463217" lon="-75.5502626"><ele>6.0</ele><time>2026-04-18T14:18:49.68Z</time></trkpt><trkpt lat="9.5463594" lon="-75.550189"><ele>6.166666666666667</ele><time>2026-04-18T14:18:50.68Z</time></trkpt><trkpt lat="9.5463961" lon="-75.5501172"><ele>6.333333333333334</ele><time>2026-04-18T14:18:51.682Z</time></trkpt><trkpt lat="9.5464354" lon="-75.5500475"><ele>6.5</ele><time>2026-04-18T14:18:52.68Z</time></trkpt><trkpt lat="9.5464755" lon="-75.5499796"><ele>6.666666666666667</ele><time>2026-04-18T14:18:53.681Z</time></trkpt><trkpt lat="9.5465225" lon="-75.5499083"><ele>6.833333333333334</ele><time>2026-04-18T14:18:54.681Z</time></trkpt><trkpt lat="9.5465686" lon="-75.5498345"><ele>7.0</ele><time>2026-04-18T14:18:55.679Z</time></trkpt><trkpt lat="9.5466157" lon="-75.5497653"><ele>7.000000000000001</ele><time>2026-04-18T14:18:56.68Z</time></trkpt><trkpt lat="9.5466628" lon="-75.5496953"><ele>7.0</ele><time>2026-04-18T14:18:57.68Z</time></trkpt><trkpt lat="9.5467119" lon="-75.5496283"><ele>7.0</ele><time>2026-04-18T14:18:58.679Z</time></trkpt><trkpt lat="9.5467591" lon="-75.5495601"><ele>7.0</ele><time>2026-04-18T14:18:59.68Z</time></trkpt><trkpt lat="9.5468073" lon="-75.5494956"><ele>7.000000000000001</ele><time>2026-04-18T14:19:00.685Z</time></trkpt><trkpt lat="9.5468567" lon="-75.5494262"><ele>7.0</ele><time>2026-04-18T14:19:01.677Z</time></trkpt><trkpt lat="9.5469009" lon="-75.5493527"><ele>6.833333333333334</ele><time>2026-04-18T14:19:02.681Z</time></trkpt><trkpt lat="9.5469477" lon="-75.5492812"><ele>6.666666666666667</ele><time>2026-04-18T14:19:03.681Z</time></trkpt><trkpt lat="9.5469956" lon="-75.5492083"><ele>6.5</ele><time>2026-04-18T14:19:04.683Z</time></trkpt><trkpt lat="9.5470415" lon="-75.5491326"><ele>6.333333333333334</ele><time>2026-04-18T14:19:05.678Z</time></trkpt><trkpt lat="9.547084" lon="-75.5490592"><ele>6.166666666666667</ele><time>2026-04-18T14:19:06.685Z</time></trkpt><trkpt lat="9.5471253" lon="-75.548986"><ele>6.0</ele><time>2026-04-18T14:19:07.684Z</time></trkpt><trkpt lat="9.5471624" lon="-75.5489069"><ele>6.0</ele><time>2026-04-18T14:19:08.68Z</time></trkpt><trkpt lat="9.5471973" lon="-75.5488301"><ele>6.0</ele><time>2026-04-18T14:19:09.681Z</time></trkpt><trkpt lat="9.5472302" lon="-75.5487497"><ele>6.0</ele><time>2026-04-18T14:19:10.681Z</time></trkpt><trkpt lat="9.5472649" lon="-75.5486699"><ele>6.0</ele><time>2026-04-18T14:19:11.675Z</time></trkpt><trkpt lat="9.547298" lon="-75.5485869"><ele>6.0</ele><time>2026-04-18T14:19:12.682Z</time></trkpt><trkpt lat="9.5473234" lon="-75.5485041"><ele>6.0</ele><time>2026-04-18T14:19:13.677Z</time></trkpt><trkpt lat="9.5473484" lon="-75.54842"><ele>6.0</ele><time>2026-04-18T14:19:14.68Z</time></trkpt><trkpt lat="9.5473691" lon="-75.5483358"><ele>6.0</ele><time>2026-04-18T14:19:15.681Z</time></trkpt><trkpt lat="9.5473878" lon="-75.5482544"><ele>6.0</ele><time>2026-04-18T14:19:16.681Z</time></trkpt><trkpt lat="9.5474015" lon="-75.5481738"><ele>6.0</ele><time>2026-04-18T14:19:17.681Z</time></trkpt><trkpt lat="9.5474167" lon="-75.5480936"><ele>6.0</ele><time>2026-04-18T14:19:18.681Z</time></trkpt><trkpt lat="9.5474341" lon="-75.5480089"><ele>6.0</ele><time>2026-04-18T14:19:19.68Z</time></trkpt><trkpt lat="9.5474494" lon="-75.5479251"><ele>6.0</ele><time>2026-04-18T14:19:20.682Z</time></trkpt><trkpt lat="9.5474663" lon="-75.5478406"><ele>6.0</ele><time>2026-04-18T14:19:21.683Z</time></trkpt><trkpt lat="9.5474871" lon="-75.5477582"><ele>6.0</ele><time>2026-04-18T14:19:22.681Z</time></trkpt><trkpt lat="9.5474999" lon="-75.5476755"><ele>6.0</ele><time>2026-04-18T14:19:23.68Z</time></trkpt><trkpt lat="9.5475152" lon="-75.5475913"><ele>6.0</ele><time>2026-04-18T14:19:24.682Z</time></trkpt><trkpt lat="9.5475341" lon="-75.5475081"><ele>6.0</ele><time>2026-04-18T14:19:25.678Z</time></trkpt><trkpt lat="9.5475549" lon="-75.5474227"><ele>6.0</ele><time>2026-04-18T14:19:26.679Z</time></trkpt><trkpt lat="9.5475707" lon="-75.5473391"><ele>6.0</ele><time>2026-04-18T14:19:27.68Z</time></trkpt><trkpt lat="9.5475901" lon="-75.5472541"><ele>6.0</ele><time>2026-04-18T14:19:28.682Z</time></trkpt><trkpt lat="9.547605" lon="-75.5471686"><ele>6.0</ele><time>2026-04-18T14:19:29.679Z</time></trkpt><trkpt lat="9.5476199" lon="-75.5470825"><ele>6.0</ele><time>2026-04-18T14:19:30.679Z</time></trkpt><trkpt lat="9.547638" lon="-75.5469986"><ele>6.0</ele><time>2026-04-18T14:19:31.68Z</time></trkpt><trkpt lat="9.5476584" lon="-75.5469126"><ele>6.333333333333333</ele><time>2026-04-18T14:19:32.684Z</time></trkpt><trkpt lat="9.5476721" lon="-75.5468323"><ele>6.666666666666666</ele><time>2026-04-18T14:19:33.678Z</time></trkpt><trkpt lat="9.5476874" lon="-75.5467471"><ele>7.0</ele><time>2026-04-18T14:19:34.683Z</time></trkpt><trkpt lat="9.5477065" lon="-75.5466615"><ele>7.333333333333333</ele><time>2026-04-18T14:19:35.684Z</time></trkpt><trkpt lat="9.5477238" lon="-75.5465782"><ele>7.666666666666666</ele><time>2026-04-18T14:19:36.689Z</time></trkpt><trkpt lat="9.5477413" lon="-75.5464987"><ele>8.0</ele><time>2026-04-18T14:19:37.69Z</time></trkpt><trkpt lat="9.547761" lon="-75.5464121"><ele>7.999999999999999</ele><time>2026-04-18T14:19:38.688Z</time></trkpt><trkpt lat="9.5477772" lon="-75.546327"><ele>8.0</ele><time>2026-04-18T14:19:39.692Z</time></trkpt><trkpt lat="9.5477963" lon="-75.5462438"><ele>8.0</ele><time>2026-04-18T14:19:40.681Z</time></trkpt><trkpt lat="9.5478134" lon="-75.5461558"><ele>8.0</ele><time>2026-04-18T14:19:41.678Z</time></trkpt><trkpt lat="9.5478296" lon="-75.5460694"><ele>7.999999999999999</ele><time>2026-04-18T14:19:42.681Z</time></trkpt><trkpt lat="9.5478427" lon="-75.5459868"><ele>8.0</ele><time>2026-04-18T14:19:43.678Z</time></trkpt><trkpt lat="9.5478545" lon="-75.5459046"><ele>8.166666666666666</ele><time>2026-04-18T14:19:44.679Z</time></trkpt><trkpt lat="9.5478746" lon="-75.5458215"><ele>8.333333333333332</ele><time>2026-04-18T14:19:45.682Z</time></trkpt><trkpt lat="9.5478842" lon="-75.5457389"><ele>8.5</ele><time>2026-04-18T14:19:46.677Z</time></trkpt><trkpt lat="9.5478885" lon="-75.5456537"><ele>8.666666666666666</ele><time>2026-04-18T14:19:47.682Z</time></trkpt><trkpt lat="9.5478892" lon="-75.5455675"><ele>8.833333333333334</ele><time>2026-04-18T14:19:48.681Z</time></trkpt><trkpt lat="9.5478921" lon="-75.5454844"><ele>9.0</ele><time>2026-04-18T14:19:49.683Z</time></trkpt><trkpt lat="9.5478949" lon="-75.5454014"><ele>8.833333333333334</ele><time>2026-04-18T14:19:50.682Z</time></trkpt><trkpt lat="9.5478933" lon="-75.545312"><ele>8.666666666666666</ele><time>2026-04-18T14:19:51.681Z</time></trkpt><trkpt lat="9.5478804" lon="-75.5452284"><ele>8.5</ele><time>2026-04-18T14:19:52.681Z</time></trkpt><trkpt lat="9.5478682" lon="-75.5451478"><ele>8.333333333333332</ele><time>2026-04-18T14:19:53.678Z</time></trkpt><trkpt lat="9.5478526" lon="-75.5450649"><ele>8.166666666666666</ele><time>2026-04-18T14:19:54.682Z</time></trkpt><trkpt lat="9.5478367" lon="-75.5449826"><ele>8.0</ele><time>2026-04-18T14:19:55.68Z</time></trkpt><trkpt lat="9.5478214" lon="-75.5449031"><ele>8.333333333333332</ele><time>2026-04-18T14:19:56.68Z</time></trkpt><trkpt lat="9.5478017" lon="-75.544822"><ele>8.666666666666666</ele><time>2026-04-18T14:19:57.683Z</time></trkpt><trkpt lat="9.5477796" lon="-75.5447381"><ele>9.0</ele><time>2026-04-18T14:19:58.677Z</time></trkpt><trkpt lat="9.5477552" lon="-75.5446576"><ele>9.333333333333334</ele><time>2026-04-18T14:19:59.678Z</time></trkpt><trkpt lat="9.5477317" lon="-75.5445797"><ele>9.666666666666668</ele><time>2026-04-18T14:20:00.677Z</time></trkpt><trkpt lat="9.5477077" lon="-75.5445025"><ele>10.0</ele><time>2026-04-18T14:20:01.676Z</time></trkpt><trkpt lat="9.5476832" lon="-75.5444231"><ele>10.0</ele><time>2026-04-18T14:20:02.681Z</time></trkpt><trkpt lat="9.5476569" lon="-75.5443438"><ele>10.0</ele><time>2026-04-18T14:20:03.679Z</time></trkpt><trkpt lat="9.5476352" lon="-75.5442643"><ele>10.0</ele><time>2026-04-18T14:20:04.677Z</time></trkpt><trkpt lat="9.5476118" lon="-75.5441789"><ele>10.0</ele><time>2026-04-18T14:20:05.679Z</time></trkpt><trkpt lat="9.547589" lon="-75.5440982"><ele>10.0</ele><time>2026-04-18T14:20:06.679Z</time></trkpt><trkpt lat="9.547567" lon="-75.5440206"><ele>10.0</ele><time>2026-04-18T14:20:07.679Z</time></trkpt><trkpt lat="9.5475491" lon="-75.5439429"><ele>10.0</ele><time>2026-04-18T14:20:08.678Z</time></trkpt><trkpt lat="9.5475275" lon="-75.5438612"><ele>10.0</ele><time>2026-04-18T14:20:09.679Z</time></trkpt><trkpt lat="9.5475096" lon="-75.5437802"><ele>10.0</ele><time>2026-04-18T14:20:10.68Z</time></trkpt><trkpt lat="9.5474998" lon="-75.5437026"><ele>10.0</ele><time>2026-04-18T14:20:11.68Z</time></trkpt><trkpt lat="9.5474899" lon="-75.5436233"><ele>10.0</ele><time>2026-04-18T14:20:12.682Z</time></trkpt><trkpt lat="9.5474799" lon="-75.5435379"><ele>10.0</ele><time>2026-04-18T14:20:13.679Z</time></trkpt><trkpt lat="9.5474761" lon="-75.5434558"><ele>10.0</ele><time>2026-04-18T14:20:14.679Z</time></trkpt><trkpt lat="9.5474732" lon="-75.5433734"><ele>10.0</ele><time>2026-04-18T14:20:15.68Z</time></trkpt><trkpt lat="9.5474755" lon="-75.5432883"><ele>10.0</ele><time>2026-04-18T14:20:16.676Z</time></trkpt><trkpt lat="9.5474784" lon="-75.5432059"><ele>10.0</ele><time>2026-04-18T14:20:17.677Z</time></trkpt><trkpt lat="9.5474826" lon="-75.5431238"><ele>10.0</ele><time>2026-04-18T14:20:18.677Z</time></trkpt><trkpt lat="9.5474896" lon="-75.5430441"><ele>10.0</ele><time>2026-04-18T14:20:19.688Z</time></trkpt><trkpt lat="9.5474967" lon="-75.5429616"><ele>9.833333333333334</ele><time>2026-04-18T14:20:20.682Z</time></trkpt><trkpt lat="9.5475104" lon="-75.5428798"><ele>9.666666666666668</ele><time>2026-04-18T14:20:21.677Z</time></trkpt><trkpt lat="9.5475225" lon="-75.542797"><ele>9.5</ele><time>2026-04-18T14:20:22.675Z</time></trkpt><trkpt lat="9.5475399" lon="-75.542716"><ele>9.333333333333334</ele><time>2026-04-18T14:20:23.677Z</time></trkpt><trkpt lat="9.5475569" lon="-75.5426379"><ele>9.166666666666666</ele><time>2026-04-18T14:20:24.676Z</time></trkpt><trkpt lat="9.5475732" lon="-75.5425552"><ele>9.0</ele><time>2026-04-18T14:20:25.679Z</time></trkpt><trkpt lat="9.5475888" lon="-75.5424733"><ele>9.0</ele><time>2026-04-18T14:20:26.682Z</time></trkpt><trkpt lat="9.547606" lon="-75.5423913"><ele>9.0</ele><time>2026-04-18T14:20:27.679Z</time></trkpt><trkpt lat="9.5476285" lon="-75.5423099"><ele>9.0</ele><time>2026-04-18T14:20:28.677Z</time></trkpt><trkpt lat="9.5476468" lon="-75.5422301"><ele>9.0</ele><time>2026-04-18T14:20:29.68Z</time></trkpt><trkpt lat="9.5476657" lon="-75.5421469"><ele>9.0</ele><time>2026-04-18T14:20:30.681Z</time></trkpt><trkpt lat="9.5476858" lon="-75.5420641"><ele>9.0</ele><time>2026-04-18T14:20:31.679Z</time></trkpt><trkpt lat="9.5477082" lon="-75.5419847"><ele>8.833333333333334</ele><time>2026-04-18T14:20:32.681Z</time></trkpt><trkpt lat="9.5477258" lon="-75.5419018"><ele>8.666666666666666</ele><time>2026-04-18T14:20:33.677Z</time></trkpt><trkpt lat="9.5477443" lon="-75.5418243"><ele>8.5</ele><time>2026-04-18T14:20:34.679Z</time></trkpt><trkpt lat="9.5477588" lon="-75.5417411"><ele>8.333333333333332</ele><time>2026-04-18T14:20:35.677Z</time></trkpt><trkpt lat="9.5477712" lon="-75.5416567"><ele>8.166666666666666</ele><time>2026-04-18T14:20:36.679Z</time></trkpt><trkpt lat="9.5477879" lon="-75.5415769"><ele>8.0</ele><time>2026-04-18T14:20:37.676Z</time></trkpt><trkpt lat="9.5478059" lon="-75.5414965"><ele>7.999999999999999</ele><time>2026-04-18T14:20:38.678Z</time></trkpt><trkpt lat="9.5478275" lon="-75.5414154"><ele>8.0</ele><time>2026-04-18T14:20:39.677Z</time></trkpt><trkpt lat="9.5478436" lon="-75.5413332"><ele>8.0</ele><time>2026-04-18T14:20:40.68Z</time></trkpt><trkpt lat="9.5478579" lon="-75.5412555"><ele>8.0</ele><time>2026-04-18T14:20:41.679Z</time></trkpt><trkpt lat="9.547876" lon="-75.5411759"><ele>7.999999999999999</ele><time>2026-04-18T14:20:42.679Z</time></trkpt><trkpt lat="9.5478923" lon="-75.5410962"><ele>8.0</ele><time>2026-04-18T14:20:43.68Z</time></trkpt><trkpt lat="9.5479101" lon="-75.5410152"><ele>8.166666666666666</ele><time>2026-04-18T14:20:44.68Z</time></trkpt><trkpt lat="9.5479292" lon="-75.5409344"><ele>8.333333333333332</ele><time>2026-04-18T14:20:45.679Z</time></trkpt><trkpt lat="9.5479476" lon="-75.5408537"><ele>8.5</ele><time>2026-04-18T14:20:46.679Z</time></trkpt><trkpt lat="9.5479639" lon="-75.5407713"><ele>8.666666666666666</ele><time>2026-04-18T14:20:47.679Z</time></trkpt><trkpt lat="9.5479818" lon="-75.5406892"><ele>8.833333333333334</ele><time>2026-04-18T14:20:48.684Z</time></trkpt><trkpt lat="9.5479985" lon="-75.5406066"><ele>9.0</ele><time>2026-04-18T14:20:49.682Z</time></trkpt><trkpt lat="9.548016" lon="-75.5405251"><ele>9.0</ele><time>2026-04-18T14:20:50.681Z</time></trkpt><trkpt lat="9.5480307" lon="-75.5404424"><ele>9.0</ele><time>2026-04-18T14:20:51.681Z</time></trkpt><trkpt lat="9.5480519" lon="-75.54036"><ele>9.0</ele><time>2026-04-18T14:20:52.683Z</time></trkpt><trkpt lat="9.5480717" lon="-75.5402796"><ele>9.0</ele><time>2026-04-18T14:20:53.682Z</time></trkpt><trkpt lat="9.548092" lon="-75.540198"><ele>9.0</ele><time>2026-04-18T14:20:54.678Z</time></trkpt><trkpt lat="9.5481166" lon="-75.5401197"><ele>9.0</ele><time>2026-04-18T14:20:55.677Z</time></trkpt><trkpt lat="9.5481396" lon="-75.540034"><ele>8.833333333333334</ele><time>2026-04-18T14:20:56.678Z</time></trkpt><trkpt lat="9.5481522" lon="-75.5399556"><ele>8.666666666666666</ele><time>2026-04-18T14:20:57.679Z</time></trkpt><trkpt lat="9.5481706" lon="-75.5398684"><ele>8.5</ele><time>2026-04-18T14:20:58.679Z</time></trkpt><trkpt lat="9.5481921" lon="-75.539782"><ele>8.333333333333332</ele><time>2026-04-18T14:20:59.678Z</time></trkpt><trkpt lat="9.5482119" lon="-75.5396995"><ele>8.166666666666666</ele><time>2026-04-18T14:21:00.681Z</time></trkpt><trkpt lat="9.548231" lon="-75.5396156"><ele>8.0</ele><time>2026-04-18T14:21:01.682Z</time></trkpt><trkpt lat="9.5482496" lon="-75.5395288"><ele>7.999999999999999</ele><time>2026-04-18T14:21:02.683Z</time></trkpt><trkpt lat="9.5482606" lon="-75.5394477"><ele>8.0</ele><time>2026-04-18T14:21:03.679Z</time></trkpt><trkpt lat="9.5482696" lon="-75.5393592"><ele>8.0</ele><time>2026-04-18T14:21:04.683Z</time></trkpt><trkpt lat="9.5482775" lon="-75.539273"><ele>8.0</ele><time>2026-04-18T14:21:05.68Z</time></trkpt><trkpt lat="9.5482885" lon="-75.5391842"><ele>7.999999999999999</ele><time>2026-04-18T14:21:06.678Z</time></trkpt><trkpt lat="9.5482943" lon="-75.539098"><ele>8.0</ele><time>2026-04-18T14:21:07.68Z</time></trkpt><trkpt lat="9.5482986" lon="-75.5390089"><ele>7.999999999999999</ele><time>2026-04-18T14:21:08.678Z</time></trkpt><trkpt lat="9.5482954" lon="-75.5389223"><ele>8.0</ele><time>2026-04-18T14:21:09.68Z</time></trkpt><trkpt lat="9.5482905" lon="-75.5388363"><ele>8.0</ele><time>2026-04-18T14:21:10.679Z</time></trkpt><trkpt lat="9.5482806" lon="-75.5387501"><ele>8.0</ele><time>2026-04-18T14:21:11.683Z</time></trkpt><trkpt lat="9.5482668" lon="-75.5386665"><ele>7.999999999999999</ele><time>2026-04-18T14:21:12.681Z</time></trkpt><trkpt lat="9.5482539" lon="-75.5385816"><ele>8.0</ele><time>2026-04-18T14:21:13.683Z</time></trkpt><trkpt lat="9.5482356" lon="-75.5384939"><ele>7.999999999999999</ele><time>2026-04-18T14:21:14.678Z</time></trkpt><trkpt lat="9.548214" lon="-75.5384099"><ele>8.0</ele><time>2026-04-18T14:21:15.68Z</time></trkpt><trkpt lat="9.5481911" lon="-75.538327"><ele>8.0</ele><time>2026-04-18T14:21:16.679Z</time></trkpt><trkpt lat="9.5481687" lon="-75.5382435"><ele>8.0</ele><time>2026-04-18T14:21:17.676Z</time></trkpt><trkpt lat="9.5481449" lon="-75.5381605"><ele>7.999999999999999</ele><time>2026-04-18T14:21:18.677Z</time></trkpt><trkpt lat="9.5481219" lon="-75.538076"><ele>8.0</ele><time>2026-04-18T14:21:19.679Z</time></trkpt><trkpt lat="9.5481007" lon="-75.5379867"><ele>7.999999999999999</ele><time>2026-04-18T14:21:20.68Z</time></trkpt><trkpt lat="9.5480839" lon="-75.5378983"><ele>8.0</ele><time>2026-04-18T14:21:21.68Z</time></trkpt><trkpt lat="9.5480621" lon="-75.5378143"><ele>8.0</ele><time>2026-04-18T14:21:22.679Z</time></trkpt><trkpt lat="9.548044" lon="-75.5377307"><ele>8.0</ele><time>2026-04-18T14:21:23.684Z</time></trkpt><trkpt lat="9.5480285" lon="-75.537648"><ele>7.999999999999999</ele><time>2026-04-18T14:21:24.682Z</time></trkpt><trkpt lat="9.5480166" lon="-75.5375634"><ele>8.0</ele><time>2026-04-18T14:21:25.678Z</time></trkpt><trkpt lat="9.5480083" lon="-75.5374824"><ele>7.999999999999999</ele><time>2026-04-18T14:21:26.678Z</time></trkpt><trkpt lat="9.5480022" lon="-75.5373985"><ele>8.0</ele><time>2026-04-18T14:21:27.682Z</time></trkpt><trkpt lat="9.5479975" lon="-75.5373162"><ele>8.0</ele><time>2026-04-18T14:21:28.678Z</time></trkpt><trkpt lat="9.5479996" lon="-75.5372299"><ele>8.0</ele><time>2026-04-18T14:21:29.68Z</time></trkpt><trkpt lat="9.5480061" lon="-75.5371472"><ele>7.999999999999999</ele><time>2026-04-18T14:21:30.69Z</time></trkpt><trkpt lat="9.5480103" lon="-75.5370628"><ele>8.0</ele><time>2026-04-18T14:21:31.678Z</time></trkpt><trkpt lat="9.5480174" lon="-75.5369764"><ele>7.999999999999999</ele><time>2026-04-18T14:21:32.676Z</time></trkpt><trkpt lat="9.5480286" lon="-75.5368931"><ele>8.0</ele><time>2026-04-18T14:21:33.675Z</time></trkpt><trkpt lat="9.5480414" lon="-75.5368102"><ele>8.0</ele><time>2026-04-18T14:21:34.679Z</time></trkpt><trkpt lat="9.5480551" lon="-75.536729"><ele>8.0</ele><time>2026-04-18T14:21:35.681Z</time></trkpt><trkpt lat="9.5480746" lon="-75.5366442"><ele>7.999999999999999</ele><time>2026-04-18T14:21:36.679Z</time></trkpt><trkpt lat="9.5480938" lon="-75.5365629"><ele>8.0</ele><time>2026-04-18T14:21:37.681Z</time></trkpt><trkpt lat="9.548121" lon="-75.5364797"><ele>7.999999999999999</ele><time>2026-04-18T14:21:38.68Z</time></trkpt><trkpt lat="9.5481471" lon="-75.5363979"><ele>8.0</ele><time>2026-04-18T14:21:39.679Z</time></trkpt><trkpt lat="9.5481789" lon="-75.5363162"><ele>8.0</ele><time>2026-04-18T14:21:40.678Z</time></trkpt><trkpt lat="9.5482099" lon="-75.5362368"><ele>8.0</ele><time>2026-04-18T14:21:41.682Z</time></trkpt><trkpt lat="9.5482539" lon="-75.5361566"><ele>7.999999999999999</ele><time>2026-04-18T14:21:42.679Z</time></trkpt><trkpt lat="9.5482905" lon="-75.5360812"><ele>8.0</ele><time>2026-04-18T14:21:43.679Z</time></trkpt><trkpt lat="9.548333" lon="-75.5360056"><ele>7.999999999999999</ele><time>2026-04-18T14:21:44.679Z</time></trkpt><trkpt lat="9.5483756" lon="-75.5359341"><ele>8.0</ele><time>2026-04-18T14:21:45.682Z</time></trkpt><trkpt lat="9.5484227" lon="-75.5358611"><ele>8.0</ele><time>2026-04-18T14:21:46.68Z</time></trkpt><trkpt lat="9.5484715" lon="-75.535791"><ele>8.0</ele><time>2026-04-18T14:21:47.674Z</time></trkpt><trkpt lat="9.5485223" lon="-75.5357257"><ele>7.999999999999999</ele><time>2026-04-18T14:21:48.681Z</time></trkpt><trkpt lat="9.5485785" lon="-75.5356597"><ele>8.0</ele><time>2026-04-18T14:21:49.676Z</time></trkpt><trkpt lat="9.5486351" lon="-75.5355977"><ele>7.999999999999999</ele><time>2026-04-18T14:21:50.678Z</time></trkpt><trkpt lat="9.5486934" lon="-75.5355368"><ele>8.0</ele><time>2026-04-18T14:21:51.677Z</time></trkpt><trkpt lat="9.5487512" lon="-75.5354773"><ele>8.0</ele><time>2026-04-18T14:21:52.678Z</time></trkpt><trkpt lat="9.548812" lon="-75.5354199"><ele>8.0</ele><time>2026-04-18T14:21:53.678Z</time></trkpt><trkpt lat="9.5488734" lon="-75.5353611"><ele>7.999999999999999</ele><time>2026-04-18T14:21:54.679Z</time></trkpt><trkpt lat="9.5489341" lon="-75.5353075"><ele>8.0</ele><time>2026-04-18T14:21:55.677Z</time></trkpt><trkpt lat="9.5489999" lon="-75.5352566"><ele>7.666666666666666</ele><time>2026-04-18T14:21:56.681Z</time></trkpt><trkpt lat="9.5490681" lon="-75.5352041"><ele>7.333333333333333</ele><time>2026-04-18T14:21:57.68Z</time></trkpt><trkpt lat="9.5491406" lon="-75.5351523"><ele>7.0</ele><time>2026-04-18T14:21:58.678Z</time></trkpt><trkpt lat="9.5492062" lon="-75.5351044"><ele>6.666666666666666</ele><time>2026-04-18T14:21:59.679Z</time></trkpt><trkpt lat="9.5492774" lon="-75.5350594"><ele>6.333333333333333</ele><time>2026-04-18T14:22:00.681Z</time></trkpt><trkpt lat="9.5493477" lon="-75.5350143"><ele>6.0</ele><time>2026-04-18T14:22:01.679Z</time></trkpt><trkpt lat="9.5494156" lon="-75.5349703"><ele>6.0</ele><time>2026-04-18T14:22:02.683Z</time></trkpt><trkpt lat="9.5494855" lon="-75.5349196"><ele>6.0</ele><time>2026-04-18T14:22:03.675Z</time></trkpt><trkpt lat="9.5495538" lon="-75.5348702"><ele>6.0</ele><time>2026-04-18T14:22:04.681Z</time></trkpt><trkpt lat="9.5496273" lon="-75.5348226"><ele>6.0</ele><time>2026-04-18T14:22:05.678Z</time></trkpt><trkpt lat="9.5496979" lon="-75.5347721"><ele>6.0</ele><time>2026-04-18T14:22:06.679Z</time></trkpt><trkpt lat="9.5497662" lon="-75.5347225"><ele>6.0</ele><time>2026-04-18T14:22:07.678Z</time></trkpt><trkpt lat="9.549835" lon="-75.5346762"><ele>5.666666666666667</ele><time>2026-04-18T14:22:08.678Z</time></trkpt><trkpt lat="9.5499053" lon="-75.5346259"><ele>5.333333333333333</ele><time>2026-04-18T14:22:09.681Z</time></trkpt><trkpt lat="9.5499755" lon="-75.5345762"><ele>5.0</ele><time>2026-04-18T14:22:10.679Z</time></trkpt><trkpt lat="9.5500468" lon="-75.534527"><ele>4.666666666666666</ele><time>2026-04-18T14:22:11.677Z</time></trkpt><trkpt lat="9.5501168" lon="-75.5344767"><ele>4.333333333333333</ele><time>2026-04-18T14:22:12.68Z</time></trkpt><trkpt lat="9.5501898" lon="-75.5344309"><ele>4.0</ele><time>2026-04-18T14:22:13.683Z</time></trkpt><trkpt lat="9.5502578" lon="-75.5343831"><ele>3.9999999999999996</ele><time>2026-04-18T14:22:14.678Z</time></trkpt><trkpt lat="9.550332" lon="-75.5343319"><ele>4.0</ele><time>2026-04-18T14:22:15.683Z</time></trkpt><trkpt lat="9.5504035" lon="-75.5342851"><ele>4.0</ele><time>2026-04-18T14:22:16.679Z</time></trkpt><trkpt lat="9.5504741" lon="-75.5342365"><ele>4.0</ele><time>2026-04-18T14:22:17.679Z</time></trkpt><trkpt lat="9.5505415" lon="-75.5341844"><ele>3.9999999999999996</ele><time>2026-04-18T14:22:18.68Z</time></trkpt><trkpt lat="9.5506128" lon="-75.5341344"><ele>4.0</ele><time>2026-04-18T14:22:19.677Z</time></trkpt><trkpt lat="9.5506867" lon="-75.5340889"><ele>4.333333333333333</ele><time>2026-04-18T14:22:20.679Z</time></trkpt><trkpt lat="9.5507553" lon="-75.5340425"><ele>4.666666666666666</ele><time>2026-04-18T14:22:21.678Z</time></trkpt><trkpt lat="9.5508346" lon="-75.5339948"><ele>5.0</ele><time>2026-04-18T14:22:22.684Z</time></trkpt><trkpt lat="9.5509039" lon="-75.5339463"><ele>5.333333333333333</ele><time>2026-04-18T14:22:23.682Z</time></trkpt><trkpt lat="9.5509733" lon="-75.5338977"><ele>5.666666666666667</ele><time>2026-04-18T14:22:24.681Z</time></trkpt><trkpt lat="9.5510426" lon="-75.5338508"><ele>6.0</ele><time>2026-04-18T14:22:25.681Z</time></trkpt><trkpt lat="9.5511108" lon="-75.5337994"><ele>6.0</ele><time>2026-04-18T14:22:26.678Z</time></trkpt><trkpt lat="9.5511806" lon="-75.5337474"><ele>6.0</ele><time>2026-04-18T14:22:27.679Z</time></trkpt><trkpt lat="9.5512524" lon="-75.533702"><ele>6.0</ele><time>2026-04-18T14:22:28.68Z</time></trkpt><trkpt lat="9.551325" lon="-75.5336557"><ele>6.0</ele><time>2026-04-18T14:22:29.679Z</time></trkpt><trkpt lat="9.5513979" lon="-75.5336079"><ele>6.0</ele><time>2026-04-18T14:22:30.679Z</time></trkpt><trkpt lat="9.5514661" lon="-75.5335579"><ele>6.0</ele><time>2026-04-18T14:22:31.68Z</time></trkpt><trkpt lat="9.5515437" lon="-75.5335092"><ele>6.333333333333333</ele><time>2026-04-18T14:22:32.685Z</time></trkpt><trkpt lat="9.5516154" lon="-75.5334623"><ele>6.666666666666666</ele><time>2026-04-18T14:22:33.685Z</time></trkpt><trkpt lat="9.5516846" lon="-75.5334139"><ele>7.0</ele><time>2026-04-18T14:22:34.678Z</time></trkpt><trkpt lat="9.5517506" lon="-75.5333694"><ele>7.333333333333333</ele><time>2026-04-18T14:22:35.683Z</time></trkpt><trkpt lat="9.5518193" lon="-75.5333167"><ele>7.666666666666666</ele><time>2026-04-18T14:22:36.679Z</time></trkpt><trkpt lat="9.551894" lon="-75.5332644"><ele>8.0</ele><time>2026-04-18T14:22:37.68Z</time></trkpt><trkpt lat="9.5519664" lon="-75.5332139"><ele>7.999999999999999</ele><time>2026-04-18T14:22:38.679Z</time></trkpt><trkpt lat="9.5520377" lon="-75.5331616"><ele>8.0</ele><time>2026-04-18T14:22:39.682Z</time></trkpt><trkpt lat="9.552108" lon="-75.5331106"><ele>8.0</ele><time>2026-04-18T14:22:40.68Z</time></trkpt><trkpt lat="9.5521851" lon="-75.5330612"><ele>8.0</ele><time>2026-04-18T14:22:41.681Z</time></trkpt><trkpt lat="9.5522547" lon="-75.5330143"><ele>7.999999999999999</ele><time>2026-04-18T14:22:42.683Z</time></trkpt><trkpt lat="9.5523271" lon="-75.5329659"><ele>8.0</ele><time>2026-04-18T14:22:43.68Z</time></trkpt><trkpt lat="9.5524" lon="-75.5329152"><ele>7.999999999999999</ele><time>2026-04-18T14:22:44.677Z</time></trkpt><trkpt lat="9.5524699" lon="-75.5328643"><ele>8.0</ele><time>2026-04-18T14:22:45.677Z</time></trkpt><trkpt lat="9.5525453" lon="-75.5328155"><ele>8.0</ele><time>2026-04-18T14:22:46.679Z</time></trkpt><trkpt lat="9.5526157" lon="-75.532769"><ele>8.0</ele><time>2026-04-18T14:22:47.68Z</time></trkpt><trkpt lat="9.5526866" lon="-75.5327165"><ele>7.999999999999999</ele><time>2026-04-18T14:22:48.678Z</time></trkpt><trkpt lat="9.5527628" lon="-75.532665"><ele>8.0</ele><time>2026-04-18T14:22:49.679Z</time></trkpt><trkpt lat="9.5528325" lon="-75.5326171"><ele>8.166666666666666</ele><time>2026-04-18T14:22:50.679Z</time></trkpt><trkpt lat="9.5529032" lon="-75.5325699"><ele>8.333333333333332</ele><time>2026-04-18T14:22:51.676Z</time></trkpt><trkpt lat="9.5529762" lon="-75.5325153"><ele>8.5</ele><time>2026-04-18T14:22:52.676Z</time></trkpt><trkpt lat="9.5530438" lon="-75.5324669"><ele>8.666666666666666</ele><time>2026-04-18T14:22:53.677Z</time></trkpt><trkpt lat="9.5531157" lon="-75.5324205"><ele>8.833333333333334</ele><time>2026-04-18T14:22:54.681Z</time></trkpt><trkpt lat="9.5531862" lon="-75.532368"><ele>9.0</ele><time>2026-04-18T14:22:55.677Z</time></trkpt><trkpt lat="9.5532591" lon="-75.5323192"><ele>9.0</ele><time>2026-04-18T14:22:56.678Z</time></trkpt><trkpt lat="9.5533272" lon="-75.5322688"><ele>9.0</ele><time>2026-04-18T14:22:57.678Z</time></trkpt><trkpt lat="9.553397" lon="-75.5322202"><ele>9.0</ele><time>2026-04-18T14:22:58.677Z</time></trkpt><trkpt lat="9.5534741" lon="-75.5321691"><ele>9.0</ele><time>2026-04-18T14:22:59.682Z</time></trkpt><trkpt lat="9.5535487" lon="-75.5321223"><ele>9.0</ele><time>2026-04-18T14:23:00.678Z</time></trkpt><trkpt lat="9.5536189" lon="-75.5320739"><ele>9.0</ele><time>2026-04-18T14:23:01.676Z</time></trkpt><trkpt lat="9.5536924" lon="-75.5320165"><ele>9.166666666666666</ele><time>2026-04-18T14:23:02.68Z</time></trkpt><trkpt lat="9.5537599" lon="-75.5319592"><ele>9.333333333333334</ele><time>2026-04-18T14:23:03.676Z</time></trkpt><trkpt lat="9.553827" lon="-75.5318965"><ele>9.5</ele><time>2026-04-18T14:23:04.678Z</time></trkpt><trkpt lat="9.5538921" lon="-75.5318349"><ele>9.666666666666668</ele><time>2026-04-18T14:23:05.681Z</time></trkpt><trkpt lat="9.5539569" lon="-75.5317723"><ele>9.833333333333334</ele><time>2026-04-18T14:23:06.677Z</time></trkpt><trkpt lat="9.5540204" lon="-75.5317077"><ele>10.0</ele><time>2026-04-18T14:23:07.674Z</time></trkpt><trkpt lat="9.55408" lon="-75.5316461"><ele>10.0</ele><time>2026-04-18T14:23:08.676Z</time></trkpt><trkpt lat="9.5541335" lon="-75.5315731"><ele>10.0</ele><time>2026-04-18T14:23:09.687Z</time></trkpt><trkpt lat="9.5541907" lon="-75.5314991"><ele>10.0</ele><time>2026-04-18T14:23:10.674Z</time></trkpt><trkpt lat="9.5542434" lon="-75.5314293"><ele>10.0</ele><time>2026-04-18T14:23:11.68Z</time></trkpt><trkpt lat="9.5542917" lon="-75.5313573"><ele>10.0</ele><time>2026-04-18T14:23:12.675Z</time></trkpt><trkpt lat="9.554343" lon="-75.5312843"><ele>10.0</ele><time>2026-04-18T14:23:13.677Z</time></trkpt><trkpt lat="9.5543941" lon="-75.5312099"><ele>9.5</ele><time>2026-04-18T14:23:14.68Z</time></trkpt><trkpt lat="9.5544406" lon="-75.5311352"><ele>9.0</ele><time>2026-04-18T14:23:15.682Z</time></trkpt><trkpt lat="9.554487" lon="-75.5310586"><ele>8.5</ele><time>2026-04-18T14:23:16.681Z</time></trkpt><trkpt lat="9.5545343" lon="-75.5309832"><ele>8.0</ele><time>2026-04-18T14:23:17.677Z</time></trkpt><trkpt lat="9.5545801" lon="-75.5309098"><ele>7.500000000000001</ele><time>2026-04-18T14:23:18.685Z</time></trkpt><trkpt lat="9.5546252" lon="-75.5308317"><ele>7.0</ele><time>2026-04-18T14:23:19.682Z</time></trkpt><trkpt lat="9.5546752" lon="-75.5307574"><ele>7.000000000000001</ele><time>2026-04-18T14:23:20.681Z</time></trkpt><trkpt lat="9.5547217" lon="-75.530682"><ele>7.0</ele><time>2026-04-18T14:23:21.678Z</time></trkpt><trkpt lat="9.5547719" lon="-75.5306064"><ele>7.0</ele><time>2026-04-18T14:23:22.683Z</time></trkpt><trkpt lat="9.5548192" lon="-75.530533"><ele>7.0</ele><time>2026-04-18T14:23:23.681Z</time></trkpt><trkpt lat="9.5548654" lon="-75.5304617"><ele>7.000000000000001</ele><time>2026-04-18T14:23:24.679Z</time></trkpt><trkpt lat="9.5549142" lon="-75.5303846"><ele>7.0</ele><time>2026-04-18T14:23:25.678Z</time></trkpt><trkpt lat="9.5549601" lon="-75.5303118"><ele>7.333333333333334</ele><time>2026-04-18T14:23:26.68Z</time></trkpt><trkpt lat="9.5550075" lon="-75.5302371"><ele>7.666666666666667</ele><time>2026-04-18T14:23:27.68Z</time></trkpt><trkpt lat="9.5550509" lon="-75.5301651"><ele>8.0</ele><time>2026-04-18T14:23:28.679Z</time></trkpt><trkpt lat="9.5550942" lon="-75.5300942"><ele>8.333333333333334</ele><time>2026-04-18T14:23:29.686Z</time></trkpt><trkpt lat="9.5551401" lon="-75.5300203"><ele>8.666666666666666</ele><time>2026-04-18T14:23:30.685Z</time></trkpt><trkpt lat="9.5551847" lon="-75.529949"><ele>9.0</ele><time>2026-04-18T14:23:31.675Z</time></trkpt><trkpt lat="9.5552305" lon="-75.5298756"><ele>9.0</ele><time>2026-04-18T14:23:32.681Z</time></trkpt><trkpt lat="9.5552742" lon="-75.529802"><ele>9.0</ele><time>2026-04-18T14:23:33.681Z</time></trkpt><trkpt lat="9.5553179" lon="-75.52973"><ele>9.0</ele><time>2026-04-18T14:23:34.683Z</time></trkpt><trkpt lat="9.5553623" lon="-75.5296569"><ele>9.0</ele><time>2026-04-18T14:23:35.68Z</time></trkpt><trkpt lat="9.5554077" lon="-75.5295888"><ele>9.0</ele><time>2026-04-18T14:23:36.68Z</time></trkpt><trkpt lat="9.5554526" lon="-75.5295186"><ele>9.0</ele><time>2026-04-18T14:23:37.68Z</time></trkpt><trkpt lat="9.5554991" lon="-75.5294522"><ele>8.833333333333334</ele><time>2026-04-18T14:23:38.676Z</time></trkpt><trkpt lat="9.555546" lon="-75.5293801"><ele>8.666666666666666</ele><time>2026-04-18T14:23:39.676Z</time></trkpt><trkpt lat="9.5555915" lon="-75.5293106"><ele>8.5</ele><time>2026-04-18T14:23:40.675Z</time></trkpt><trkpt lat="9.5556405" lon="-75.5292414"><ele>8.333333333333332</ele><time>2026-04-18T14:23:41.674Z</time></trkpt><trkpt lat="9.5556847" lon="-75.5291703"><ele>8.166666666666666</ele><time>2026-04-18T14:23:42.68Z</time></trkpt><trkpt lat="9.555728" lon="-75.5290969"><ele>8.0</ele><time>2026-04-18T14:23:43.675Z</time></trkpt><trkpt lat="9.5557747" lon="-75.529021"><ele>7.999999999999999</ele><time>2026-04-18T14:23:44.676Z</time></trkpt><trkpt lat="9.5558187" lon="-75.528952"><ele>8.0</ele><time>2026-04-18T14:23:45.677Z</time></trkpt><trkpt lat="9.5558605" lon="-75.528879"><ele>8.0</ele><time>2026-04-18T14:23:46.682Z</time></trkpt><trkpt lat="9.5559122" lon="-75.5288087"><ele>8.0</ele><time>2026-04-18T14:23:47.681Z</time></trkpt><trkpt lat="9.5559533" lon="-75.5287388"><ele>7.999999999999999</ele><time>2026-04-18T14:23:48.676Z</time></trkpt><trkpt lat="9.555999" lon="-75.5286672"><ele>8.0</ele><time>2026-04-18T14:23:49.675Z</time></trkpt><trkpt lat="9.5560443" lon="-75.5285977"><ele>7.833333333333333</ele><time>2026-04-18T14:23:50.677Z</time></trkpt><trkpt lat="9.5560896" lon="-75.5285229"><ele>7.666666666666666</ele><time>2026-04-18T14:23:51.676Z</time></trkpt><trkpt lat="9.5561344" lon="-75.5284549"><ele>7.5</ele><time>2026-04-18T14:23:52.678Z</time></trkpt><trkpt lat="9.5561779" lon="-75.5283874"><ele>7.333333333333334</ele><time>2026-04-18T14:23:53.678Z</time></trkpt><trkpt lat="9.5562204" lon="-75.5283107"><ele>7.166666666666667</ele><time>2026-04-18T14:23:54.682Z</time></trkpt><trkpt lat="9.5562693" lon="-75.5282425"><ele>7.0</ele><time>2026-04-18T14:23:55.682Z</time></trkpt><trkpt lat="9.5563086" lon="-75.528172"><ele>7.000000000000001</ele><time>2026-04-18T14:23:56.676Z</time></trkpt><trkpt lat="9.5563484" lon="-75.5281039"><ele>7.0</ele><time>2026-04-18T14:23:57.678Z</time></trkpt><trkpt lat="9.5563913" lon="-75.528027"><ele>7.0</ele><time>2026-04-18T14:23:58.678Z</time></trkpt><trkpt lat="9.5564307" lon="-75.5279579"><ele>7.0</ele><time>2026-04-18T14:23:59.683Z</time></trkpt><trkpt lat="9.5564726" lon="-75.5278861"><ele>7.000000000000001</ele><time>2026-04-18T14:24:00.674Z</time></trkpt><trkpt lat="9.5565103" lon="-75.5278096"><ele>7.0</ele><time>2026-04-18T14:24:01.693Z</time></trkpt><trkpt lat="9.5565473" lon="-75.5277325"><ele>7.166666666666667</ele><time>2026-04-18T14:24:02.677Z</time></trkpt><trkpt lat="9.5565757" lon="-75.5276521"><ele>7.333333333333334</ele><time>2026-04-18T14:24:03.677Z</time></trkpt><trkpt lat="9.5566046" lon="-75.5275725"><ele>7.5</ele><time>2026-04-18T14:24:04.678Z</time></trkpt><trkpt lat="9.5566298" lon="-75.5274949"><ele>7.666666666666666</ele><time>2026-04-18T14:24:05.674Z</time></trkpt><trkpt lat="9.5566569" lon="-75.5274157"><ele>7.833333333333333</ele><time>2026-04-18T14:24:06.673Z</time></trkpt><trkpt lat="9.5566771" lon="-75.5273297"><ele>8.0</ele><time>2026-04-18T14:24:07.678Z</time></trkpt><trkpt lat="9.556701" lon="-75.5272475"><ele>7.999999999999999</ele><time>2026-04-18T14:24:08.68Z</time></trkpt><trkpt lat="9.5567243" lon="-75.5271686"><ele>8.0</ele><time>2026-04-18T14:24:09.678Z</time></trkpt><trkpt lat="9.5567405" lon="-75.5270866"><ele>8.0</ele><time>2026-04-18T14:24:10.677Z</time></trkpt><trkpt lat="9.5567556" lon="-75.5270026"><ele>8.0</ele><time>2026-04-18T14:24:11.678Z</time></trkpt><trkpt lat="9.5567717" lon="-75.5269196"><ele>7.999999999999999</ele><time>2026-04-18T14:24:12.68Z</time></trkpt><trkpt lat="9.5567847" lon="-75.5268354"><ele>8.0</ele><time>2026-04-18T14:24:13.68Z</time></trkpt><trkpt lat="9.556797" lon="-75.5267496"><ele>7.833333333333333</ele><time>2026-04-18T14:24:14.681Z</time></trkpt><trkpt lat="9.5568081" lon="-75.5266673"><ele>7.666666666666666</ele><time>2026-04-18T14:24:15.68Z</time></trkpt><trkpt lat="9.5568225" lon="-75.5265813"><ele>7.5</ele><time>2026-04-18T14:24:16.683Z</time></trkpt><trkpt lat="9.5568388" lon="-75.5264959"><ele>7.333333333333334</ele><time>2026-04-18T14:24:17.682Z</time></trkpt><trkpt lat="9.5568634" lon="-75.5264133"><ele>7.166666666666667</ele><time>2026-04-18T14:24:18.677Z</time></trkpt><trkpt lat="9.556878" lon="-75.5263332"><ele>7.0</ele><time>2026-04-18T14:24:19.678Z</time></trkpt><trkpt lat="9.5568885" lon="-75.5262544"><ele>7.000000000000001</ele><time>2026-04-18T14:24:20.675Z</time></trkpt><trkpt lat="9.556904" lon="-75.5261727"><ele>7.0</ele><time>2026-04-18T14:24:21.676Z</time></trkpt><trkpt lat="9.5569263" lon="-75.5260857"><ele>7.0</ele><time>2026-04-18T14:24:22.678Z</time></trkpt><trkpt lat="9.5569519" lon="-75.5260038"><ele>7.0</ele><time>2026-04-18T14:24:23.676Z</time></trkpt><trkpt lat="9.556974" lon="-75.5259256"><ele>7.000000000000001</ele><time>2026-04-18T14:24:24.678Z</time></trkpt><trkpt lat="9.5570012" lon="-75.5258502"><ele>7.0</ele><time>2026-04-18T14:24:25.677Z</time></trkpt><trkpt lat="9.5570347" lon="-75.5257734"><ele>6.833333333333334</ele><time>2026-04-18T14:24:26.678Z</time></trkpt><trkpt lat="9.5570666" lon="-75.5256992"><ele>6.666666666666667</ele><time>2026-04-18T14:24:27.681Z</time></trkpt><trkpt lat="9.5571052" lon="-75.5256294"><ele>6.5</ele><time>2026-04-18T14:24:28.68Z</time></trkpt><trkpt lat="9.557148" lon="-75.5255558"><ele>6.333333333333334</ele><time>2026-04-18T14:24:29.68Z</time></trkpt><trkpt lat="9.5571859" lon="-75.5254857"><ele>6.166666666666667</ele><time>2026-04-18T14:24:30.68Z</time></trkpt><trkpt lat="9.5572252" lon="-75.5254138"><ele>6.0</ele><time>2026-04-18T14:24:31.679Z</time></trkpt><trkpt lat="9.5572721" lon="-75.5253475"><ele>6.0</ele><time>2026-04-18T14:24:32.679Z</time></trkpt><trkpt lat="9.5573153" lon="-75.5252859"><ele>6.0</ele><time>2026-04-18T14:24:33.68Z</time></trkpt><trkpt lat="9.5573656" lon="-75.5252235"><ele>6.0</ele><time>2026-04-18T14:24:34.683Z</time></trkpt><trkpt lat="9.5574187" lon="-75.525166"><ele>6.0</ele><time>2026-04-18T14:24:35.677Z</time></trkpt><trkpt lat="9.5574701" lon="-75.5251104"><ele>6.0</ele><time>2026-04-18T14:24:36.679Z</time></trkpt><trkpt lat="9.5575271" lon="-75.5250537"><ele>6.0</ele><time>2026-04-18T14:24:37.68Z</time></trkpt><trkpt lat="9.5575867" lon="-75.5249988"><ele>6.0</ele><time>2026-04-18T14:24:38.68Z</time></trkpt><trkpt lat="9.5576518" lon="-75.524944"><ele>6.0</ele><time>2026-04-18T14:24:39.677Z</time></trkpt><trkpt lat="9.5577097" lon="-75.524892"><ele>6.0</ele><time>2026-04-18T14:24:40.677Z</time></trkpt><trkpt lat="9.5577719" lon="-75.5248375"><ele>6.0</ele><time>2026-04-18T14:24:41.677Z</time></trkpt><trkpt lat="9.5578307" lon="-75.5247817"><ele>6.0</ele><time>2026-04-18T14:24:42.683Z</time></trkpt><trkpt lat="9.5578899" lon="-75.5247305"><ele>6.0</ele><time>2026-04-18T14:24:43.682Z</time></trkpt><trkpt lat="9.5579536" lon="-75.5246761"><ele>6.166666666666667</ele><time>2026-04-18T14:24:44.677Z</time></trkpt><trkpt lat="9.5580187" lon="-75.5246213"><ele>6.333333333333334</ele><time>2026-04-18T14:24:45.678Z</time></trkpt><trkpt lat="9.5580786" lon="-75.5245687"><ele>6.5</ele><time>2026-04-18T14:24:46.675Z</time></trkpt><trkpt lat="9.5581428" lon="-75.5245139"><ele>6.666666666666667</ele><time>2026-04-18T14:24:47.68Z</time></trkpt><trkpt lat="9.5582068" lon="-75.5244615"><ele>6.833333333333334</ele><time>2026-04-18T14:24:48.678Z</time></trkpt><trkpt lat="9.5582686" lon="-75.5244069"><ele>7.0</ele><time>2026-04-18T14:24:49.68Z</time></trkpt><trkpt lat="9.5583304" lon="-75.5243533"><ele>7.000000000000001</ele><time>2026-04-18T14:24:50.678Z</time></trkpt><trkpt lat="9.5583936" lon="-75.5242995"><ele>7.0</ele><time>2026-04-18T14:24:51.68Z</time></trkpt><trkpt lat="9.5584558" lon="-75.5242477"><ele>7.0</ele><time>2026-04-18T14:24:52.68Z</time></trkpt><trkpt lat="9.5585204" lon="-75.5241877"><ele>7.0</ele><time>2026-04-18T14:24:53.684Z</time></trkpt><trkpt lat="9.5585845" lon="-75.5241293"><ele>7.000000000000001</ele><time>2026-04-18T14:24:54.683Z</time></trkpt><trkpt lat="9.5586481" lon="-75.5240741"><ele>7.0</ele><time>2026-04-18T14:24:55.681Z</time></trkpt><trkpt lat="9.5587117" lon="-75.5240159"><ele>7.000000000000001</ele><time>2026-04-18T14:24:56.682Z</time></trkpt><trkpt lat="9.5587819" lon="-75.5239595"><ele>7.0</ele><time>2026-04-18T14:24:57.678Z</time></trkpt><trkpt lat="9.5588476" lon="-75.5239046"><ele>7.0</ele><time>2026-04-18T14:24:58.68Z</time></trkpt><trkpt lat="9.5589159" lon="-75.5238481"><ele>7.0</ele><time>2026-04-18T14:24:59.68Z</time></trkpt><trkpt lat="9.5589809" lon="-75.5237949"><ele>7.000000000000001</ele><time>2026-04-18T14:25:00.679Z</time></trkpt><trkpt lat="9.5590472" lon="-75.5237419"><ele>7.0</ele><time>2026-04-18T14:25:01.683Z</time></trkpt><trkpt lat="9.5591109" lon="-75.5236851"><ele>7.000000000000001</ele><time>2026-04-18T14:25:02.676Z</time></trkpt><trkpt lat="9.5591729" lon="-75.5236308"><ele>7.0</ele><time>2026-04-18T14:25:03.681Z</time></trkpt><trkpt lat="9.5592402" lon="-75.523575"><ele>7.0</ele><time>2026-04-18T14:25:04.678Z</time></trkpt><trkpt lat="9.5593034" lon="-75.5235195"><ele>7.0</ele><time>2026-04-18T14:25:05.678Z</time></trkpt><trkpt lat="9.5593719" lon="-75.5234656"><ele>7.000000000000001</ele><time>2026-04-18T14:25:06.685Z</time></trkpt><trkpt lat="9.5594385" lon="-75.5234064"><ele>7.0</ele><time>2026-04-18T14:25:07.679Z</time></trkpt><trkpt lat="9.5595016" lon="-75.5233479"><ele>6.833333333333334</ele><time>2026-04-18T14:25:08.679Z</time></trkpt><trkpt lat="9.559567" lon="-75.5232903"><ele>6.666666666666667</ele><time>2026-04-18T14:25:09.681Z</time></trkpt><trkpt lat="9.5596286" lon="-75.5232297"><ele>6.5</ele><time>2026-04-18T14:25:10.682Z</time></trkpt><trkpt lat="9.5596946" lon="-75.5231683"><ele>6.333333333333334</ele><time>2026-04-18T14:25:11.678Z</time></trkpt><trkpt lat="9.5597581" lon="-75.5231092"><ele>6.166666666666667</ele><time>2026-04-18T14:25:12.679Z</time></trkpt><trkpt lat="9.5598176" lon="-75.5230507"><ele>6.0</ele><time>2026-04-18T14:25:13.678Z</time></trkpt><trkpt lat="9.5598726" lon="-75.5229907"><ele>6.0</ele><time>2026-04-18T14:25:14.678Z</time></trkpt><trkpt lat="9.5599313" lon="-75.5229236"><ele>6.0</ele><time>2026-04-18T14:25:15.676Z</time></trkpt><trkpt lat="9.5599868" lon="-75.5228517"><ele>6.0</ele><time>2026-04-18T14:25:16.678Z</time></trkpt><trkpt lat="9.5600404" lon="-75.5227835"><ele>6.0</ele><time>2026-04-18T14:25:17.682Z</time></trkpt><trkpt lat="9.5600942" lon="-75.5227133"><ele>6.0</ele><time>2026-04-18T14:25:18.677Z</time></trkpt><trkpt lat="9.5601431" lon="-75.5226432"><ele>6.0</ele><time>2026-04-18T14:25:19.676Z</time></trkpt><trkpt lat="9.5601897" lon="-75.5225711"><ele>6.0</ele><time>2026-04-18T14:25:20.678Z</time></trkpt><trkpt lat="9.5602422" lon="-75.5225003"><ele>6.0</ele><time>2026-04-18T14:25:21.679Z</time></trkpt><trkpt lat="9.5602907" lon="-75.5224304"><ele>6.0</ele><time>2026-04-18T14:25:22.68Z</time></trkpt><trkpt lat="9.560336" lon="-75.522362"><ele>6.0</ele><time>2026-04-18T14:25:23.68Z</time></trkpt><trkpt lat="9.5603846" lon="-75.5222885"><ele>6.0</ele><time>2026-04-18T14:25:24.681Z</time></trkpt><trkpt lat="9.5604291" lon="-75.522212"><ele>6.0</ele><time>2026-04-18T14:25:25.681Z</time></trkpt><trkpt lat="9.5604758" lon="-75.5221415"><ele>6.0</ele><time>2026-04-18T14:25:26.682Z</time></trkpt><trkpt lat="9.5605278" lon="-75.5220703"><ele>6.0</ele><time>2026-04-18T14:25:27.678Z</time></trkpt><trkpt lat="9.560574" lon="-75.5220002"><ele>6.0</ele><time>2026-04-18T14:25:28.679Z</time></trkpt><trkpt lat="9.5606212" lon="-75.5219285"><ele>6.0</ele><time>2026-04-18T14:25:29.677Z</time></trkpt><trkpt lat="9.5606696" lon="-75.5218611"><ele>6.0</ele><time>2026-04-18T14:25:30.677Z</time></trkpt><trkpt lat="9.5607171" lon="-75.5217907"><ele>6.0</ele><time>2026-04-18T14:25:31.682Z</time></trkpt><trkpt lat="9.5607565" lon="-75.5217201"><ele>5.833333333333333</ele><time>2026-04-18T14:25:32.677Z</time></trkpt><trkpt lat="9.5608032" lon="-75.5216488"><ele>5.666666666666667</ele><time>2026-04-18T14:25:33.676Z</time></trkpt><trkpt lat="9.5608479" lon="-75.5215801"><ele>5.5</ele><time>2026-04-18T14:25:34.678Z</time></trkpt><trkpt lat="9.560892" lon="-75.5215089"><ele>5.333333333333334</ele><time>2026-04-18T14:25:35.683Z</time></trkpt><trkpt lat="9.5609363" lon="-75.5214345"><ele>5.166666666666667</ele><time>2026-04-18T14:25:36.679Z</time></trkpt><trkpt lat="9.5609827" lon="-75.5213615"><ele>5.0</ele><time>2026-04-18T14:25:37.676Z</time></trkpt><trkpt lat="9.5610293" lon="-75.5212849"><ele>5.0</ele><time>2026-04-18T14:25:38.677Z</time></trkpt><trkpt lat="9.5610741" lon="-75.521214"><ele>5.0</ele><time>2026-04-18T14:25:39.679Z</time></trkpt><trkpt lat="9.561123" lon="-75.5211379"><ele>5.0</ele><time>2026-04-18T14:25:40.678Z</time></trkpt><trkpt lat="9.5611762" lon="-75.5210685"><ele>5.0</ele><time>2026-04-18T14:25:41.68Z</time></trkpt><trkpt lat="9.5612224" lon="-75.5209969"><ele>5.0</ele><time>2026-04-18T14:25:42.681Z</time></trkpt><trkpt lat="9.5612671" lon="-75.5209277"><ele>5.0</ele><time>2026-04-18T14:25:43.683Z</time></trkpt><trkpt lat="9.5613157" lon="-75.5208534"><ele>5.0</ele><time>2026-04-18T14:25:44.675Z</time></trkpt><trkpt lat="9.561362" lon="-75.5207813"><ele>5.0</ele><time>2026-04-18T14:25:45.679Z</time></trkpt><trkpt lat="9.5614106" lon="-75.520709"><ele>5.0</ele><time>2026-04-18T14:25:46.679Z</time></trkpt><trkpt lat="9.5614569" lon="-75.5206392"><ele>5.0</ele><time>2026-04-18T14:25:47.676Z</time></trkpt><trkpt lat="9.561503" lon="-75.5205729"><ele>5.0</ele><time>2026-04-18T14:25:48.677Z</time></trkpt><trkpt lat="9.5615442" lon="-75.5205078"><ele>5.0</ele><time>2026-04-18T14:25:49.68Z</time></trkpt><trkpt lat="9.5615885" lon="-75.5204456"><ele>5.333333333333334</ele><time>2026-04-18T14:25:50.678Z</time></trkpt><trkpt lat="9.5616283" lon="-75.5203836"><ele>5.666666666666667</ele><time>2026-04-18T14:25:51.677Z</time></trkpt><trkpt lat="9.5616684" lon="-75.5203247"><ele>6.0</ele><time>2026-04-18T14:25:52.685Z</time></trkpt><trkpt lat="9.561715" lon="-75.5202632"><ele>6.333333333333334</ele><time>2026-04-18T14:25:53.679Z</time></trkpt><trkpt lat="9.5617644" lon="-75.520206"><ele>6.666666666666667</ele><time>2026-04-18T14:25:54.675Z</time></trkpt><trkpt lat="9.5618175" lon="-75.5201438"><ele>7.0</ele><time>2026-04-18T14:25:55.677Z</time></trkpt><trkpt lat="9.5618708" lon="-75.5200828"><ele>7.000000000000001</ele><time>2026-04-18T14:25:56.676Z</time></trkpt><trkpt lat="9.5619295" lon="-75.5200244"><ele>7.0</ele><time>2026-04-18T14:25:57.676Z</time></trkpt><trkpt lat="9.561992" lon="-75.5199654"><ele>7.0</ele><time>2026-04-18T14:25:58.677Z</time></trkpt><trkpt lat="9.5620509" lon="-75.5199101"><ele>7.0</ele><time>2026-04-18T14:25:59.675Z</time></trkpt><trkpt lat="9.5621107" lon="-75.5198537"><ele>7.000000000000001</ele><time>2026-04-18T14:26:00.674Z</time></trkpt><trkpt lat="9.5621789" lon="-75.5198049"><ele>7.0</ele><time>2026-04-18T14:26:01.677Z</time></trkpt><trkpt lat="9.562243" lon="-75.5197575"><ele>6.833333333333334</ele><time>2026-04-18T14:26:02.679Z</time></trkpt><trkpt lat="9.5623064" lon="-75.5197148"><ele>6.666666666666667</ele><time>2026-04-18T14:26:03.674Z</time></trkpt><trkpt lat="9.5623761" lon="-75.5196741"><ele>6.5</ele><time>2026-04-18T14:26:04.682Z</time></trkpt><trkpt lat="9.562445" lon="-75.5196331"><ele>6.333333333333334</ele><time>2026-04-18T14:26:05.673Z</time></trkpt><trkpt lat="9.5625146" lon="-75.5195976"><ele>6.166666666666667</ele><time>2026-04-18T14:26:06.676Z</time></trkpt><trkpt lat="9.5625834" lon="-75.519563"><ele>6.0</ele><time>2026-04-18T14:26:07.674Z</time></trkpt><trkpt lat="9.562651" lon="-75.5195284"><ele>6.0</ele><time>2026-04-18T14:26:08.679Z</time></trkpt><trkpt lat="9.5627196" lon="-75.5194983"><ele>6.0</ele><time>2026-04-18T14:26:09.678Z</time></trkpt><trkpt lat="9.5627927" lon="-75.5194719"><ele>6.0</ele><time>2026-04-18T14:26:10.679Z</time></trkpt><trkpt lat="9.5628697" lon="-75.5194519"><ele>6.0</ele><time>2026-04-18T14:26:11.678Z</time></trkpt><trkpt lat="9.5629461" lon="-75.5194326"><ele>6.0</ele><time>2026-04-18T14:26:12.68Z</time></trkpt><trkpt lat="9.5630185" lon="-75.5194122"><ele>6.0</ele><time>2026-04-18T14:26:13.68Z</time></trkpt><trkpt lat="9.5630989" lon="-75.5193927"><ele>6.333333333333333</ele><time>2026-04-18T14:26:14.681Z</time></trkpt><trkpt lat="9.5631748" lon="-75.5193829"><ele>6.666666666666666</ele><time>2026-04-18T14:26:15.684Z</time></trkpt><trkpt lat="9.5632541" lon="-75.5193676"><ele>7.0</ele><time>2026-04-18T14:26:16.678Z</time></trkpt><trkpt lat="9.5633323" lon="-75.5193532"><ele>7.333333333333333</ele><time>2026-04-18T14:26:17.678Z</time></trkpt><trkpt lat="9.5634096" lon="-75.5193459"><ele>7.666666666666666</ele><time>2026-04-18T14:26:18.682Z</time></trkpt><trkpt lat="9.5634831" lon="-75.519337"><ele>8.0</ele><time>2026-04-18T14:26:19.683Z</time></trkpt><trkpt lat="9.563559" lon="-75.5193285"><ele>7.999999999999999</ele><time>2026-04-18T14:26:20.681Z</time></trkpt><trkpt lat="9.5636369" lon="-75.51932"><ele>8.0</ele><time>2026-04-18T14:26:21.675Z</time></trkpt><trkpt lat="9.563715" lon="-75.5193047"><ele>8.0</ele><time>2026-04-18T14:26:22.673Z</time></trkpt><trkpt lat="9.5637891" lon="-75.5192931"><ele>8.0</ele><time>2026-04-18T14:26:23.679Z</time></trkpt><trkpt lat="9.5638663" lon="-75.5192791"><ele>7.999999999999999</ele><time>2026-04-18T14:26:24.677Z</time></trkpt><trkpt lat="9.5639434" lon="-75.5192636"><ele>8.0</ele><time>2026-04-18T14:26:25.673Z</time></trkpt><trkpt lat="9.5640221" lon="-75.5192508"><ele>8.333333333333332</ele><time>2026-04-18T14:26:26.678Z</time></trkpt><trkpt lat="9.5640986" lon="-75.5192387"><ele>8.666666666666666</ele><time>2026-04-18T14:26:27.679Z</time></trkpt><trkpt lat="9.56418" lon="-75.5192261"><ele>9.0</ele><time>2026-04-18T14:26:28.676Z</time></trkpt><trkpt lat="9.5642603" lon="-75.5192115"><ele>9.333333333333334</ele><time>2026-04-18T14:26:29.672Z</time></trkpt><trkpt lat="9.5643374" lon="-75.5192004"><ele>9.666666666666668</ele><time>2026-04-18T14:26:30.679Z</time></trkpt><trkpt lat="9.5644178" lon="-75.5191851"><ele>10.0</ele><time>2026-04-18T14:26:31.681Z</time></trkpt><trkpt lat="9.5645005" lon="-75.519166"><ele>10.0</ele><time>2026-04-18T14:26:32.678Z</time></trkpt><trkpt lat="9.5645799" lon="-75.519148"><ele>10.0</ele><time>2026-04-18T14:26:33.681Z</time></trkpt><trkpt lat="9.5646632" lon="-75.5191245"><ele>10.0</ele><time>2026-04-18T14:26:34.678Z</time></trkpt><trkpt lat="9.5647475" lon="-75.5190997"><ele>10.0</ele><time>2026-04-18T14:26:35.68Z</time></trkpt><trkpt lat="9.5648296" lon="-75.51907"><ele>10.0</ele><time>2026-04-18T14:26:36.677Z</time></trkpt><trkpt lat="9.5649131" lon="-75.5190334"><ele>10.0</ele><time>2026-04-18T14:26:37.68Z</time></trkpt><trkpt lat="9.5649959" lon="-75.5189974"><ele>10.0</ele><time>2026-04-18T14:26:38.677Z</time></trkpt><trkpt lat="9.5650749" lon="-75.5189589"><ele>10.0</ele><time>2026-04-18T14:26:39.677Z</time></trkpt><trkpt lat="9.5651546" lon="-75.5189202"><ele>10.0</ele><time>2026-04-18T14:26:40.677Z</time></trkpt><trkpt lat="9.5652348" lon="-75.5188736"><ele>10.0</ele><time>2026-04-18T14:26:41.674Z</time></trkpt><trkpt lat="9.5653065" lon="-75.518826"><ele>10.0</ele><time>2026-04-18T14:26:42.677Z</time></trkpt><trkpt lat="9.5653798" lon="-75.5187763"><ele>10.0</ele><time>2026-04-18T14:26:43.678Z</time></trkpt><trkpt lat="9.5654475" lon="-75.5187202"><ele>9.5</ele><time>2026-04-18T14:26:44.681Z</time></trkpt><trkpt lat="9.5655142" lon="-75.5186609"><ele>9.0</ele><time>2026-04-18T14:26:45.676Z</time></trkpt><trkpt lat="9.5655784" lon="-75.518597"><ele>8.5</ele><time>2026-04-18T14:26:46.68Z</time></trkpt><trkpt lat="9.5656392" lon="-75.5185326"><ele>8.0</ele><time>2026-04-18T14:26:47.682Z</time></trkpt><trkpt lat="9.5656985" lon="-75.5184638"><ele>7.500000000000001</ele><time>2026-04-18T14:26:48.677Z</time></trkpt><trkpt lat="9.5657582" lon="-75.5183923"><ele>7.0</ele><time>2026-04-18T14:26:49.677Z</time></trkpt><trkpt lat="9.5658094" lon="-75.5183216"><ele>7.000000000000001</ele><time>2026-04-18T14:26:50.684Z</time></trkpt><trkpt lat="9.5658638" lon="-75.5182487"><ele>7.0</ele><time>2026-04-18T14:26:51.676Z</time></trkpt><trkpt lat="9.5659069" lon="-75.5181733"><ele>7.0</ele><time>2026-04-18T14:26:52.678Z</time></trkpt><trkpt lat="9.5659457" lon="-75.5180941"><ele>7.0</ele><time>2026-04-18T14:26:53.68Z</time></trkpt><trkpt lat="9.5659836" lon="-75.5180152"><ele>7.000000000000001</ele><time>2026-04-18T14:26:54.679Z</time></trkpt><trkpt lat="9.56602" lon="-75.5179331"><ele>7.0</ele><time>2026-04-18T14:26:55.679Z</time></trkpt><trkpt lat="9.5660535" lon="-75.517846"><ele>6.833333333333334</ele><time>2026-04-18T14:26:56.672Z</time></trkpt><trkpt lat="9.5660859" lon="-75.5177615"><ele>6.666666666666667</ele><time>2026-04-18T14:26:57.681Z</time></trkpt><trkpt lat="9.5661135" lon="-75.5176824"><ele>6.5</ele><time>2026-04-18T14:26:58.678Z</time></trkpt><trkpt lat="9.5661406" lon="-75.5175948"><ele>6.333333333333334</ele><time>2026-04-18T14:26:59.674Z</time></trkpt><trkpt lat="9.5661659" lon="-75.5175119"><ele>6.166666666666667</ele><time>2026-04-18T14:27:00.673Z</time></trkpt><trkpt lat="9.5661907" lon="-75.5174294"><ele>6.0</ele><time>2026-04-18T14:27:01.68Z</time></trkpt><trkpt lat="9.566216" lon="-75.517347"><ele>6.333333333333333</ele><time>2026-04-18T14:27:02.675Z</time></trkpt><trkpt lat="9.5662406" lon="-75.5172643"><ele>6.666666666666666</ele><time>2026-04-18T14:27:03.675Z</time></trkpt><trkpt lat="9.5662678" lon="-75.5171831"><ele>7.0</ele><time>2026-04-18T14:27:04.675Z</time></trkpt><trkpt lat="9.5662912" lon="-75.5171038"><ele>7.333333333333333</ele><time>2026-04-18T14:27:05.676Z</time></trkpt><trkpt lat="9.5663196" lon="-75.5170212"><ele>7.666666666666666</ele><time>2026-04-18T14:27:06.674Z</time></trkpt><trkpt lat="9.5663414" lon="-75.5169376"><ele>8.0</ele><time>2026-04-18T14:27:07.675Z</time></trkpt><trkpt lat="9.5663609" lon="-75.5168444"><ele>7.999999999999999</ele><time>2026-04-18T14:27:08.676Z</time></trkpt><trkpt lat="9.5663815" lon="-75.5167606"><ele>8.0</ele><time>2026-04-18T14:27:09.674Z</time></trkpt><trkpt lat="9.5664098" lon="-75.5166836"><ele>8.0</ele><time>2026-04-18T14:27:10.68Z</time></trkpt><trkpt lat="9.5664322" lon="-75.5166006"><ele>8.0</ele><time>2026-04-18T14:27:11.676Z</time></trkpt><trkpt lat="9.5664545" lon="-75.51652"><ele>7.999999999999999</ele><time>2026-04-18T14:27:12.677Z</time></trkpt><trkpt lat="9.5664759" lon="-75.5164384"><ele>8.0</ele><time>2026-04-18T14:27:13.677Z</time></trkpt><trkpt lat="9.5664986" lon="-75.5163489"><ele>8.0</ele><time>2026-04-18T14:27:14.68Z</time></trkpt><trkpt lat="9.5665213" lon="-75.516259"><ele>8.0</ele><time>2026-04-18T14:27:15.677Z</time></trkpt><trkpt lat="9.5665491" lon="-75.5161691"><ele>8.0</ele><time>2026-04-18T14:27:16.676Z</time></trkpt><trkpt lat="9.5665754" lon="-75.5160798"><ele>8.0</ele><time>2026-04-18T14:27:17.679Z</time></trkpt><trkpt lat="9.5666004" lon="-75.5159871"><ele>8.0</ele><time>2026-04-18T14:27:18.679Z</time></trkpt><trkpt lat="9.56663" lon="-75.5158929"><ele>7.999999999999999</ele><time>2026-04-18T14:27:19.679Z</time></trkpt><trkpt lat="9.5666508" lon="-75.5158043"><ele>8.0</ele><time>2026-04-18T14:27:20.689Z</time></trkpt><trkpt lat="9.5666751" lon="-75.5157199"><ele>8.0</ele><time>2026-04-18T14:27:21.68Z</time></trkpt><trkpt lat="9.5666976" lon="-75.5156341"><ele>8.0</ele><time>2026-04-18T14:27:22.68Z</time></trkpt><trkpt lat="9.5667201" lon="-75.5155459"><ele>7.999999999999999</ele><time>2026-04-18T14:27:23.675Z</time></trkpt><trkpt lat="9.5667441" lon="-75.5154595"><ele>8.0</ele><time>2026-04-18T14:27:24.679Z</time></trkpt><trkpt lat="9.5667683" lon="-75.5153734"><ele>7.833333333333333</ele><time>2026-04-18T14:27:25.681Z</time></trkpt><trkpt lat="9.5667908" lon="-75.5152839"><ele>7.666666666666666</ele><time>2026-04-18T14:27:26.68Z</time></trkpt><trkpt lat="9.5668153" lon="-75.5151955"><ele>7.5</ele><time>2026-04-18T14:27:27.686Z</time></trkpt><trkpt lat="9.56684" lon="-75.5151094"><ele>7.333333333333334</ele><time>2026-04-18T14:27:28.677Z</time></trkpt><trkpt lat="9.5668647" lon="-75.5150245"><ele>7.166666666666667</ele><time>2026-04-18T14:27:29.677Z</time></trkpt><trkpt lat="9.5668909" lon="-75.5149397"><ele>7.0</ele><time>2026-04-18T14:27:30.676Z</time></trkpt><trkpt lat="9.5669127" lon="-75.5148586"><ele>7.000000000000001</ele><time>2026-04-18T14:27:31.675Z</time></trkpt><trkpt lat="9.5669354" lon="-75.5147713"><ele>7.0</ele><time>2026-04-18T14:27:32.677Z</time></trkpt><trkpt lat="9.56696" lon="-75.5146858"><ele>7.0</ele><time>2026-04-18T14:27:33.678Z</time></trkpt><trkpt lat="9.5669853" lon="-75.5145993"><ele>7.0</ele><time>2026-04-18T14:27:34.677Z</time></trkpt><trkpt lat="9.5670109" lon="-75.5145139"><ele>7.000000000000001</ele><time>2026-04-18T14:27:35.676Z</time></trkpt><trkpt lat="9.5670387" lon="-75.5144297"><ele>7.0</ele><time>2026-04-18T14:27:36.677Z</time></trkpt><trkpt lat="9.5670691" lon="-75.5143447"><ele>7.000000000000001</ele><time>2026-04-18T14:27:37.676Z</time></trkpt><trkpt lat="9.5671035" lon="-75.5142636"><ele>7.0</ele><time>2026-04-18T14:27:38.679Z</time></trkpt><trkpt lat="9.5671415" lon="-75.5141838"><ele>7.0</ele><time>2026-04-18T14:27:39.685Z</time></trkpt><trkpt lat="9.5671833" lon="-75.5141056"><ele>7.0</ele><time>2026-04-18T14:27:40.678Z</time></trkpt><trkpt lat="9.5672269" lon="-75.5140341"><ele>7.000000000000001</ele><time>2026-04-18T14:27:41.676Z</time></trkpt><trkpt lat="9.5672713" lon="-75.5139621"><ele>7.0</ele><time>2026-04-18T14:27:42.675Z</time></trkpt><trkpt lat="9.5673157" lon="-75.51389"><ele>7.000000000000001</ele><time>2026-04-18T14:27:43.676Z</time></trkpt><trkpt lat="9.5673651" lon="-75.513824"><ele>7.0</ele><time>2026-04-18T14:27:44.677Z</time></trkpt><trkpt lat="9.5674189" lon="-75.5137566"><ele>7.0</ele><time>2026-04-18T14:27:45.675Z</time></trkpt><trkpt lat="9.5674711" lon="-75.5136921"><ele>7.0</ele><time>2026-04-18T14:27:46.675Z</time></trkpt><trkpt lat="9.567527" lon="-75.5136334"><ele>7.000000000000001</ele><time>2026-04-18T14:27:47.677Z</time></trkpt><trkpt lat="9.5675875" lon="-75.5135755"><ele>7.0</ele><time>2026-04-18T14:27:48.675Z</time></trkpt><trkpt lat="9.5676505" lon="-75.513519"><ele>7.000000000000001</ele><time>2026-04-18T14:27:49.679Z</time></trkpt><trkpt lat="9.5677173" lon="-75.5134681"><ele>7.0</ele><time>2026-04-18T14:27:50.679Z</time></trkpt><trkpt lat="9.5677798" lon="-75.5134196"><ele>7.0</ele><time>2026-04-18T14:27:51.677Z</time></trkpt><trkpt lat="9.567841" lon="-75.5133704"><ele>7.0</ele><time>2026-04-18T14:27:52.677Z</time></trkpt><trkpt lat="9.5679098" lon="-75.513328"><ele>7.000000000000001</ele><time>2026-04-18T14:27:53.677Z</time></trkpt><trkpt lat="9.5679759" lon="-75.5132865"><ele>7.0</ele><time>2026-04-18T14:27:54.68Z</time></trkpt><trkpt lat="9.5680477" lon="-75.5132483"><ele>7.166666666666667</ele><time>2026-04-18T14:27:55.675Z</time></trkpt><trkpt lat="9.5681196" lon="-75.5132159"><ele>7.333333333333334</ele><time>2026-04-18T14:27:56.675Z</time></trkpt><trkpt lat="9.5681925" lon="-75.5131822"><ele>7.5</ele><time>2026-04-18T14:27:57.678Z</time></trkpt><trkpt lat="9.5682691" lon="-75.5131564"><ele>7.666666666666666</ele><time>2026-04-18T14:27:58.677Z</time></trkpt><trkpt lat="9.5683456" lon="-75.5131306"><ele>7.833333333333333</ele><time>2026-04-18T14:27:59.677Z</time></trkpt><trkpt lat="9.5684234" lon="-75.5131054"><ele>8.0</ele><time>2026-04-18T14:28:00.677Z</time></trkpt><trkpt lat="9.5684976" lon="-75.5130829"><ele>7.999999999999999</ele><time>2026-04-18T14:28:01.679Z</time></trkpt><trkpt lat="9.5685757" lon="-75.513063"><ele>8.0</ele><time>2026-04-18T14:28:02.682Z</time></trkpt><trkpt lat="9.5686545" lon="-75.5130485"><ele>8.0</ele><time>2026-04-18T14:28:03.682Z</time></trkpt><trkpt lat="9.5687335" lon="-75.5130315"><ele>8.0</ele><time>2026-04-18T14:28:04.68Z</time></trkpt><trkpt lat="9.5688122" lon="-75.5130114"><ele>7.999999999999999</ele><time>2026-04-18T14:28:05.676Z</time></trkpt><trkpt lat="9.5688977" lon="-75.512994"><ele>8.0</ele><time>2026-04-18T14:28:06.678Z</time></trkpt><trkpt lat="9.568982" lon="-75.512979"><ele>8.166666666666666</ele><time>2026-04-18T14:28:07.679Z</time></trkpt><trkpt lat="9.5690648" lon="-75.5129669"><ele>8.333333333333332</ele><time>2026-04-18T14:28:08.676Z</time></trkpt><trkpt lat="9.5691517" lon="-75.5129506"><ele>8.5</ele><time>2026-04-18T14:28:09.675Z</time></trkpt><trkpt lat="9.5692381" lon="-75.5129363"><ele>8.666666666666666</ele><time>2026-04-18T14:28:10.674Z</time></trkpt><trkpt lat="9.5693213" lon="-75.5129174"><ele>8.833333333333334</ele><time>2026-04-18T14:28:11.678Z</time></trkpt><trkpt lat="9.569404" lon="-75.5129018"><ele>9.0</ele><time>2026-04-18T14:28:12.677Z</time></trkpt><trkpt lat="9.5694904" lon="-75.5128836"><ele>8.5</ele><time>2026-04-18T14:28:13.676Z</time></trkpt><trkpt lat="9.5695701" lon="-75.5128675"><ele>8.0</ele><time>2026-04-18T14:28:14.686Z</time></trkpt><trkpt lat="9.5696593" lon="-75.5128508"><ele>7.5</ele><time>2026-04-18T14:28:15.678Z</time></trkpt><trkpt lat="9.5697488" lon="-75.5128356"><ele>7.0</ele><time>2026-04-18T14:28:16.675Z</time></trkpt><trkpt lat="9.5698373" lon="-75.5128171"><ele>6.5</ele><time>2026-04-18T14:28:17.678Z</time></trkpt><trkpt lat="9.569925" lon="-75.5127997"><ele>6.0</ele><time>2026-04-18T14:28:18.678Z</time></trkpt><trkpt lat="9.5700139" lon="-75.5127846"><ele>6.0</ele><time>2026-04-18T14:28:19.678Z</time></trkpt><trkpt lat="9.5701037" lon="-75.5127689"><ele>6.0</ele><time>2026-04-18T14:28:20.682Z</time></trkpt><trkpt lat="9.5701878" lon="-75.5127514"><ele>6.0</ele><time>2026-04-18T14:28:21.683Z</time></trkpt><trkpt lat="9.5702731" lon="-75.512736"><ele>6.0</ele><time>2026-04-18T14:28:22.677Z</time></trkpt><trkpt lat="9.5703602" lon="-75.5127198"><ele>6.0</ele><time>2026-04-18T14:28:23.679Z</time></trkpt><trkpt lat="9.5704515" lon="-75.5126964"><ele>6.0</ele><time>2026-04-18T14:28:24.675Z</time></trkpt><trkpt lat="9.5705419" lon="-75.5126755"><ele>6.6</ele><time>2026-04-18T14:28:25.678Z</time></trkpt><trkpt lat="9.5706389" lon="-75.5126571"><ele>7.199999999999999</ele><time>2026-04-18T14:28:26.68Z</time></trkpt><trkpt lat="9.5707354" lon="-75.5126372"><ele>7.800000000000001</ele><time>2026-04-18T14:28:27.675Z</time></trkpt><trkpt lat="9.5708314" lon="-75.5126194"><ele>8.4</ele><time>2026-04-18T14:28:28.676Z</time></trkpt><trkpt lat="9.5709268" lon="-75.512603"><ele>9.0</ele><time>2026-04-18T14:28:29.676Z</time></trkpt><trkpt lat="9.5710202" lon="-75.512586"><ele>9.0</ele><time>2026-04-18T14:28:30.678Z</time></trkpt><trkpt lat="9.5711091" lon="-75.5125734"><ele>9.0</ele><time>2026-04-18T14:28:31.676Z</time></trkpt><trkpt lat="9.5711958" lon="-75.5125617"><ele>9.0</ele><time>2026-04-18T14:28:32.675Z</time></trkpt><trkpt lat="9.5712829" lon="-75.5125474"><ele>9.0</ele><time>2026-04-18T14:28:33.678Z</time></trkpt><trkpt lat="9.5713649" lon="-75.5125271"><ele>9.0</ele><time>2026-04-18T14:28:34.68Z</time></trkpt><trkpt lat="9.5714505" lon="-75.5125082"><ele>9.0</ele><time>2026-04-18T14:28:35.679Z</time></trkpt><trkpt lat="9.5715412" lon="-75.5124935"><ele>8.666666666666666</ele><time>2026-04-18T14:28:36.676Z</time></trkpt><trkpt lat="9.5716337" lon="-75.512475"><ele>8.333333333333334</ele><time>2026-04-18T14:28:37.681Z</time></trkpt><trkpt lat="9.5717213" lon="-75.5124586"><ele>8.0</ele><time>2026-04-18T14:28:38.68Z</time></trkpt><trkpt lat="9.5718109" lon="-75.512443"><ele>7.666666666666667</ele><time>2026-04-18T14:28:39.68Z</time></trkpt><trkpt lat="9.5718992" lon="-75.5124286"><ele>7.333333333333334</ele><time>2026-04-18T14:28:40.675Z</time></trkpt><trkpt lat="9.5719803" lon="-75.5124101"><ele>7.0</ele><time>2026-04-18T14:28:41.681Z</time></trkpt><trkpt lat="9.5720626" lon="-75.5123934"><ele>7.000000000000001</ele><time>2026-04-18T14:28:42.677Z</time></trkpt><trkpt lat="9.5721431" lon="-75.5123759"><ele>7.0</ele><time>2026-04-18T14:28:43.677Z</time></trkpt><trkpt lat="9.5722304" lon="-75.5123609"><ele>7.0</ele><time>2026-04-18T14:28:44.692Z</time></trkpt><trkpt lat="9.5723192" lon="-75.512345"><ele>7.0</ele><time>2026-04-18T14:28:45.678Z</time></trkpt><trkpt lat="9.5724088" lon="-75.512326"><ele>7.000000000000001</ele><time>2026-04-18T14:28:46.68Z</time></trkpt><trkpt lat="9.5724981" lon="-75.512306"><ele>7.0</ele><time>2026-04-18T14:28:47.678Z</time></trkpt><trkpt lat="9.5725841" lon="-75.5122882"><ele>7.000000000000001</ele><time>2026-04-18T14:28:48.679Z</time></trkpt><trkpt lat="9.572672" lon="-75.5122724"><ele>7.0</ele><time>2026-04-18T14:28:49.68Z</time></trkpt><trkpt lat="9.572757" lon="-75.5122569"><ele>7.0</ele><time>2026-04-18T14:28:50.679Z</time></trkpt><trkpt lat="9.5728415" lon="-75.5122419"><ele>7.0</ele><time>2026-04-18T14:28:51.677Z</time></trkpt><trkpt lat="9.5729277" lon="-75.5122248"><ele>7.000000000000001</ele><time>2026-04-18T14:28:52.678Z</time></trkpt><trkpt lat="9.5730123" lon="-75.5122055"><ele>7.0</ele><time>2026-04-18T14:28:53.676Z</time></trkpt><trkpt lat="9.5731002" lon="-75.5121821"><ele>6.833333333333334</ele><time>2026-04-18T14:28:54.682Z</time></trkpt><trkpt lat="9.573184" lon="-75.512165"><ele>6.666666666666667</ele><time>2026-04-18T14:28:55.679Z</time></trkpt><trkpt lat="9.5732702" lon="-75.5121488"><ele>6.5</ele><time>2026-04-18T14:28:56.677Z</time></trkpt><trkpt lat="9.5733533" lon="-75.5121305"><ele>6.333333333333334</ele><time>2026-04-18T14:28:57.679Z</time></trkpt><trkpt lat="9.5734393" lon="-75.5121108"><ele>6.166666666666667</ele><time>2026-04-18T14:28:58.681Z</time></trkpt><trkpt lat="9.5735244" lon="-75.5120928"><ele>6.0</ele><time>2026-04-18T14:28:59.677Z</time></trkpt><trkpt lat="9.5736097" lon="-75.5120761"><ele>6.333333333333333</ele><time>2026-04-18T14:29:00.678Z</time></trkpt><trkpt lat="9.5737007" lon="-75.512061"><ele>6.666666666666666</ele><time>2026-04-18T14:29:01.679Z</time></trkpt><trkpt lat="9.5737865" lon="-75.5120363"><ele>7.0</ele><time>2026-04-18T14:29:02.68Z</time></trkpt><trkpt lat="9.5738706" lon="-75.5120177"><ele>7.333333333333333</ele><time>2026-04-18T14:29:03.682Z</time></trkpt><trkpt lat="9.5739539" lon="-75.5119973"><ele>7.666666666666666</ele><time>2026-04-18T14:29:04.681Z</time></trkpt><trkpt lat="9.5740346" lon="-75.5119806"><ele>8.0</ele><time>2026-04-18T14:29:05.677Z</time></trkpt><trkpt lat="9.5741219" lon="-75.511965"><ele>7.999999999999999</ele><time>2026-04-18T14:29:06.68Z</time></trkpt><trkpt lat="9.5742068" lon="-75.5119502"><ele>8.0</ele><time>2026-04-18T14:29:07.68Z</time></trkpt><trkpt lat="9.5742961" lon="-75.5119352"><ele>8.0</ele><time>2026-04-18T14:29:08.682Z</time></trkpt><trkpt lat="9.5743796" lon="-75.5119194"><ele>8.0</ele><time>2026-04-18T14:29:09.679Z</time></trkpt><trkpt lat="9.5744633" lon="-75.5119002"><ele>7.999999999999999</ele><time>2026-04-18T14:29:10.677Z</time></trkpt><trkpt lat="9.5745515" lon="-75.5118823"><ele>8.0</ele><time>2026-04-18T14:29:11.675Z</time></trkpt><trkpt lat="9.5746406" lon="-75.5118672"><ele>7.800000000000001</ele><time>2026-04-18T14:29:12.679Z</time></trkpt><trkpt lat="9.5747292" lon="-75.5118504"><ele>7.6000000000000005</ele><time>2026-04-18T14:29:13.681Z</time></trkpt><trkpt lat="9.5748201" lon="-75.5118317"><ele>7.3999999999999995</ele><time>2026-04-18T14:29:14.675Z</time></trkpt><trkpt lat="9.5749112" lon="-75.5118132"><ele>7.199999999999999</ele><time>2026-04-18T14:29:15.679Z</time></trkpt><trkpt lat="9.5750007" lon="-75.5117957"><ele>7.0</ele><time>2026-04-18T14:29:16.677Z</time></trkpt><trkpt lat="9.5750894" lon="-75.5117795"><ele>7.0</ele><time>2026-04-18T14:29:17.68Z</time></trkpt><trkpt lat="9.5751827" lon="-75.5117617"><ele>6.999999999999999</ele><time>2026-04-18T14:29:18.679Z</time></trkpt><trkpt lat="9.5752719" lon="-75.5117414"><ele>6.999999999999999</ele><time>2026-04-18T14:29:19.679Z</time></trkpt><trkpt lat="9.5753628" lon="-75.5117244"><ele>7.0</ele><time>2026-04-18T14:29:20.681Z</time></trkpt><trkpt lat="9.5754513" lon="-75.5117039"><ele>7.0</ele><time>2026-04-18T14:29:21.679Z</time></trkpt><trkpt lat="9.5755418" lon="-75.5116895"><ele>7.000000000000001</ele><time>2026-04-18T14:29:22.678Z</time></trkpt><trkpt lat="9.57563" lon="-75.5116738"><ele>7.0</ele><time>2026-04-18T14:29:23.677Z</time></trkpt><trkpt lat="9.5757164" lon="-75.5116566"><ele>7.0</ele><time>2026-04-18T14:29:24.678Z</time></trkpt><trkpt lat="9.5758033" lon="-75.5116366"><ele>7.0</ele><time>2026-04-18T14:29:25.676Z</time></trkpt><trkpt lat="9.5758914" lon="-75.5116175"><ele>7.000000000000001</ele><time>2026-04-18T14:29:26.675Z</time></trkpt><trkpt lat="9.5759775" lon="-75.5115981"><ele>7.0</ele><time>2026-04-18T14:29:27.677Z</time></trkpt><trkpt lat="9.5760677" lon="-75.5115795"><ele>7.000000000000001</ele><time>2026-04-18T14:29:28.675Z</time></trkpt><trkpt lat="9.5761588" lon="-75.5115646"><ele>7.0</ele><time>2026-04-18T14:29:29.679Z</time></trkpt><trkpt lat="9.5762449" lon="-75.5115475"><ele>7.0</ele><time>2026-04-18T14:29:30.681Z</time></trkpt><trkpt lat="9.5763272" lon="-75.5115317"><ele>7.0</ele><time>2026-04-18T14:29:31.68Z</time></trkpt><trkpt lat="9.5764198" lon="-75.5115141"><ele>7.000000000000001</ele><time>2026-04-18T14:29:32.681Z</time></trkpt><trkpt lat="9.5765023" lon="-75.5114945"><ele>7.0</ele><time>2026-04-18T14:29:33.68Z</time></trkpt><trkpt lat="9.5765799" lon="-75.5114757"><ele>6.833333333333334</ele><time>2026-04-18T14:29:34.679Z</time></trkpt><trkpt lat="9.5766599" lon="-75.511461"><ele>6.666666666666667</ele><time>2026-04-18T14:29:35.679Z</time></trkpt><trkpt lat="9.5767468" lon="-75.5114423"><ele>6.5</ele><time>2026-04-18T14:29:36.683Z</time></trkpt><trkpt lat="9.5768277" lon="-75.5114289"><ele>6.333333333333334</ele><time>2026-04-18T14:29:37.677Z</time></trkpt><trkpt lat="9.5769096" lon="-75.5114075"><ele>6.166666666666667</ele><time>2026-04-18T14:29:38.68Z</time></trkpt><trkpt lat="9.576993" lon="-75.511393"><ele>6.0</ele><time>2026-04-18T14:29:39.68Z</time></trkpt><trkpt lat="9.5770776" lon="-75.5113743"><ele>6.0</ele><time>2026-04-18T14:29:40.679Z</time></trkpt><trkpt lat="9.5771558" lon="-75.511361"><ele>6.0</ele><time>2026-04-18T14:29:41.676Z</time></trkpt><trkpt lat="9.5772393" lon="-75.5113438"><ele>6.0</ele><time>2026-04-18T14:29:42.676Z</time></trkpt><trkpt lat="9.5773194" lon="-75.5113273"><ele>6.0</ele><time>2026-04-18T14:29:43.68Z</time></trkpt><trkpt lat="9.5774053" lon="-75.5113181"><ele>6.0</ele><time>2026-04-18T14:29:44.683Z</time></trkpt><trkpt lat="9.5774842" lon="-75.5112965"><ele>6.0</ele><time>2026-04-18T14:29:45.677Z</time></trkpt><trkpt lat="9.577565" lon="-75.5112789"><ele>6.0</ele><time>2026-04-18T14:29:46.682Z</time></trkpt><trkpt lat="9.5776433" lon="-75.5112645"><ele>6.0</ele><time>2026-04-18T14:29:47.679Z</time></trkpt><trkpt lat="9.5777224" lon="-75.5112452"><ele>6.0</ele><time>2026-04-18T14:29:48.678Z</time></trkpt><trkpt lat="9.5777966" lon="-75.5112278"><ele>6.0</ele><time>2026-04-18T14:29:49.678Z</time></trkpt><trkpt lat="9.5778733" lon="-75.5112121"><ele>6.0</ele><time>2026-04-18T14:29:50.678Z</time></trkpt><trkpt lat="9.5779463" lon="-75.5111966"><ele>6.0</ele><time>2026-04-18T14:29:51.678Z</time></trkpt><trkpt lat="9.578027" lon="-75.5111845"><ele>6.0</ele><time>2026-04-18T14:29:52.681Z</time></trkpt><trkpt lat="9.5781066" lon="-75.5111566"><ele>6.0</ele><time>2026-04-18T14:29:53.678Z</time></trkpt><trkpt lat="9.578187" lon="-75.5111411"><ele>6.0</ele><time>2026-04-18T14:29:54.679Z</time></trkpt><trkpt lat="9.5782659" lon="-75.511131"><ele>6.0</ele><time>2026-04-18T14:29:55.682Z</time></trkpt><trkpt lat="9.5783443" lon="-75.5111171"><ele>6.0</ele><time>2026-04-18T14:29:56.681Z</time></trkpt><trkpt lat="9.5784247" lon="-75.5111017"><ele>6.0</ele><time>2026-04-18T14:29:57.677Z</time></trkpt><trkpt lat="9.5785064" lon="-75.5110873"><ele>6.0</ele><time>2026-04-18T14:29:58.677Z</time></trkpt><trkpt lat="9.5785857" lon="-75.5110675"><ele>6.0</ele><time>2026-04-18T14:29:59.675Z</time></trkpt><trkpt lat="9.5786656" lon="-75.5110515"><ele>6.0</ele><time>2026-04-18T14:30:00.676Z</time></trkpt><trkpt lat="9.5787421" lon="-75.5110358"><ele>6.0</ele><time>2026-04-18T14:30:01.677Z</time></trkpt><trkpt lat="9.5788277" lon="-75.5110195"><ele>6.0</ele><time>2026-04-18T14:30:02.676Z</time></trkpt><trkpt lat="9.5789112" lon="-75.5110025"><ele>6.0</ele><time>2026-04-18T14:30:03.675Z</time></trkpt><trkpt lat="9.5789913" lon="-75.5109852"><ele>6.5</ele><time>2026-04-18T14:30:04.675Z</time></trkpt><trkpt lat="9.579073" lon="-75.5109673"><ele>7.0</ele><time>2026-04-18T14:30:05.677Z</time></trkpt><trkpt lat="9.5791567" lon="-75.5109514"><ele>7.5</ele><time>2026-04-18T14:30:06.674Z</time></trkpt><trkpt lat="9.5792446" lon="-75.5109385"><ele>8.0</ele><time>2026-04-18T14:30:07.677Z</time></trkpt><trkpt lat="9.5793272" lon="-75.5109207"><ele>8.5</ele><time>2026-04-18T14:30:08.68Z</time></trkpt><trkpt lat="9.5794105" lon="-75.5109068"><ele>9.0</ele><time>2026-04-18T14:30:09.679Z</time></trkpt><trkpt lat="9.5794949" lon="-75.510894"><ele>9.166666666666666</ele><time>2026-04-18T14:30:10.679Z</time></trkpt><trkpt lat="9.5795727" lon="-75.5108751"><ele>9.333333333333334</ele><time>2026-04-18T14:30:11.681Z</time></trkpt><trkpt lat="9.5796511" lon="-75.510855"><ele>9.5</ele><time>2026-04-18T14:30:12.678Z</time></trkpt><trkpt lat="9.5797316" lon="-75.5108402"><ele>9.666666666666668</ele><time>2026-04-18T14:30:13.675Z</time></trkpt><trkpt lat="9.5798097" lon="-75.510821"><ele>9.833333333333334</ele><time>2026-04-18T14:30:14.677Z</time></trkpt><trkpt lat="9.5798874" lon="-75.510804"><ele>10.0</ele><time>2026-04-18T14:30:15.675Z</time></trkpt><trkpt lat="9.579964" lon="-75.5107883"><ele>10.0</ele><time>2026-04-18T14:30:16.678Z</time></trkpt><trkpt lat="9.5800361" lon="-75.5107704"><ele>10.0</ele><time>2026-04-18T14:30:17.675Z</time></trkpt><trkpt lat="9.5801155" lon="-75.5107527"><ele>10.0</ele><time>2026-04-18T14:30:18.675Z</time></trkpt><trkpt lat="9.5801907" lon="-75.5107345"><ele>10.0</ele><time>2026-04-18T14:30:19.679Z</time></trkpt><trkpt lat="9.5802705" lon="-75.510714"><ele>10.0</ele><time>2026-04-18T14:30:20.684Z</time></trkpt><trkpt lat="9.580347" lon="-75.5107004"><ele>10.0</ele><time>2026-04-18T14:30:21.68Z</time></trkpt><trkpt lat="9.5804298" lon="-75.5106865"><ele>10.0</ele><time>2026-04-18T14:30:22.675Z</time></trkpt><trkpt lat="9.5805134" lon="-75.5106686"><ele>10.0</ele><time>2026-04-18T14:30:23.673Z</time></trkpt><trkpt lat="9.5805968" lon="-75.5106474"><ele>10.0</ele><time>2026-04-18T14:30:24.675Z</time></trkpt><trkpt lat="9.5806761" lon="-75.5106284"><ele>10.0</ele><time>2026-04-18T14:30:25.678Z</time></trkpt><trkpt lat="9.580759" lon="-75.5106095"><ele>10.0</ele><time>2026-04-18T14:30:26.675Z</time></trkpt><trkpt lat="9.5808404" lon="-75.5105951"><ele>10.0</ele><time>2026-04-18T14:30:27.681Z</time></trkpt><trkpt lat="9.5809218" lon="-75.5105788"><ele>10.0</ele><time>2026-04-18T14:30:28.68Z</time></trkpt><trkpt lat="9.5810002" lon="-75.5105668"><ele>10.0</ele><time>2026-04-18T14:30:29.676Z</time></trkpt><trkpt lat="9.5810825" lon="-75.5105483"><ele>10.0</ele><time>2026-04-18T14:30:30.682Z</time></trkpt><trkpt lat="9.5811626" lon="-75.510533"><ele>10.0</ele><time>2026-04-18T14:30:31.679Z</time></trkpt><trkpt lat="9.5812469" lon="-75.5105128"><ele>10.0</ele><time>2026-04-18T14:30:32.676Z</time></trkpt><trkpt lat="9.5813336" lon="-75.5104944"><ele>10.0</ele><time>2026-04-18T14:30:33.675Z</time></trkpt><trkpt lat="9.5814195" lon="-75.5104754"><ele>9.833333333333334</ele><time>2026-04-18T14:30:34.684Z</time></trkpt><trkpt lat="9.5815057" lon="-75.5104546"><ele>9.666666666666668</ele><time>2026-04-18T14:30:35.681Z</time></trkpt><trkpt lat="9.5815909" lon="-75.5104343"><ele>9.5</ele><time>2026-04-18T14:30:36.678Z</time></trkpt><trkpt lat="9.5816759" lon="-75.5104164"><ele>9.333333333333334</ele><time>2026-04-18T14:30:37.677Z</time></trkpt><trkpt lat="9.5817626" lon="-75.5104028"><ele>9.166666666666666</ele><time>2026-04-18T14:30:38.683Z</time></trkpt><trkpt lat="9.5818476" lon="-75.510384"><ele>9.0</ele><time>2026-04-18T14:30:39.679Z</time></trkpt><trkpt lat="9.5819308" lon="-75.5103667"><ele>8.833333333333334</ele><time>2026-04-18T14:30:40.683Z</time></trkpt><trkpt lat="9.582013" lon="-75.5103503"><ele>8.666666666666666</ele><time>2026-04-18T14:30:41.681Z</time></trkpt><trkpt lat="9.5820978" lon="-75.510332"><ele>8.5</ele><time>2026-04-18T14:30:42.676Z</time></trkpt><trkpt lat="9.5821804" lon="-75.5103192"><ele>8.333333333333332</ele><time>2026-04-18T14:30:43.675Z</time></trkpt><trkpt lat="9.5822616" lon="-75.5103022"><ele>8.166666666666666</ele><time>2026-04-18T14:30:44.674Z</time></trkpt><trkpt lat="9.5823446" lon="-75.5102832"><ele>8.0</ele><time>2026-04-18T14:30:45.682Z</time></trkpt><trkpt lat="9.582423" lon="-75.5102674"><ele>7.999999999999999</ele><time>2026-04-18T14:30:46.677Z</time></trkpt><trkpt lat="9.5825015" lon="-75.5102508"><ele>8.0</ele><time>2026-04-18T14:30:47.676Z</time></trkpt><trkpt lat="9.5825805" lon="-75.5102323"><ele>8.0</ele><time>2026-04-18T14:30:48.676Z</time></trkpt><trkpt lat="9.5826616" lon="-75.5102137"><ele>8.0</ele><time>2026-04-18T14:30:49.675Z</time></trkpt><trkpt lat="9.5827431" lon="-75.5101966"><ele>7.999999999999999</ele><time>2026-04-18T14:30:50.677Z</time></trkpt><trkpt lat="9.5828266" lon="-75.5101779"><ele>8.0</ele><time>2026-04-18T14:30:51.679Z</time></trkpt><trkpt lat="9.5829068" lon="-75.5101598"><ele>7.833333333333333</ele><time>2026-04-18T14:30:52.677Z</time></trkpt><trkpt lat="9.5829848" lon="-75.5101469"><ele>7.666666666666666</ele><time>2026-04-18T14:30:53.679Z</time></trkpt><trkpt lat="9.5830622" lon="-75.5101257"><ele>7.5</ele><time>2026-04-18T14:30:54.682Z</time></trkpt><trkpt lat="9.5831441" lon="-75.5101069"><ele>7.333333333333334</ele><time>2026-04-18T14:30:55.682Z</time></trkpt><trkpt lat="9.5832273" lon="-75.5100886"><ele>7.166666666666667</ele><time>2026-04-18T14:30:56.687Z</time></trkpt><trkpt lat="9.5833083" lon="-75.5100707"><ele>7.0</ele><time>2026-04-18T14:30:57.68Z</time></trkpt><trkpt lat="9.5833908" lon="-75.5100519"><ele>7.000000000000001</ele><time>2026-04-18T14:30:58.682Z</time></trkpt><trkpt lat="9.5834703" lon="-75.5100339"><ele>7.0</ele><time>2026-04-18T14:30:59.68Z</time></trkpt><trkpt lat="9.5835508" lon="-75.5100206"><ele>7.0</ele><time>2026-04-18T14:31:00.683Z</time></trkpt><trkpt lat="9.5836305" lon="-75.5099995"><ele>7.0</ele><time>2026-04-18T14:31:01.675Z</time></trkpt><trkpt lat="9.5837111" lon="-75.5099738"><ele>7.000000000000001</ele><time>2026-04-18T14:31:02.676Z</time></trkpt><trkpt lat="9.5837924" lon="-75.5099563"><ele>7.0</ele><time>2026-04-18T14:31:03.674Z</time></trkpt><trkpt lat="9.5838775" lon="-75.5099406"><ele>7.166666666666667</ele><time>2026-04-18T14:31:04.678Z</time></trkpt><trkpt lat="9.5839557" lon="-75.5099233"><ele>7.333333333333334</ele><time>2026-04-18T14:31:05.676Z</time></trkpt><trkpt lat="9.5840334" lon="-75.5099044"><ele>7.5</ele><time>2026-04-18T14:31:06.672Z</time></trkpt><trkpt lat="9.5841114" lon="-75.509885"><ele>7.666666666666666</ele><time>2026-04-18T14:31:07.678Z</time></trkpt><trkpt lat="9.5841904" lon="-75.5098653"><ele>7.833333333333333</ele><time>2026-04-18T14:31:08.675Z</time></trkpt><trkpt lat="9.5842701" lon="-75.5098451"><ele>8.0</ele><time>2026-04-18T14:31:09.672Z</time></trkpt><trkpt lat="9.5843486" lon="-75.5098298"><ele>7.999999999999999</ele><time>2026-04-18T14:31:10.672Z</time></trkpt><trkpt lat="9.5844303" lon="-75.5098147"><ele>8.0</ele><time>2026-04-18T14:31:11.676Z</time></trkpt><trkpt lat="9.5845016" lon="-75.5097971"><ele>8.0</ele><time>2026-04-18T14:31:12.674Z</time></trkpt><trkpt lat="9.5845847" lon="-75.5097806"><ele>8.0</ele><time>2026-04-18T14:31:13.678Z</time></trkpt><trkpt lat="9.5846655" lon="-75.5097644"><ele>7.999999999999999</ele><time>2026-04-18T14:31:14.676Z</time></trkpt><trkpt lat="9.5847454" lon="-75.509748"><ele>8.0</ele><time>2026-04-18T14:31:15.676Z</time></trkpt><trkpt lat="9.5848317" lon="-75.5097331"><ele>7.800000000000001</ele><time>2026-04-18T14:31:16.682Z</time></trkpt><trkpt lat="9.5849197" lon="-75.5097092"><ele>7.6000000000000005</ele><time>2026-04-18T14:31:17.675Z</time></trkpt><trkpt lat="9.5850062" lon="-75.5096885"><ele>7.3999999999999995</ele><time>2026-04-18T14:31:18.675Z</time></trkpt><trkpt lat="9.5850997" lon="-75.5096663"><ele>7.199999999999999</ele><time>2026-04-18T14:31:19.677Z</time></trkpt><trkpt lat="9.5851883" lon="-75.5096484"><ele>7.0</ele><time>2026-04-18T14:31:20.681Z</time></trkpt><trkpt lat="9.5852823" lon="-75.5096293"><ele>7.0</ele><time>2026-04-18T14:31:21.679Z</time></trkpt><trkpt lat="9.5853748" lon="-75.5096124"><ele>6.999999999999999</ele><time>2026-04-18T14:31:22.678Z</time></trkpt><trkpt lat="9.5854688" lon="-75.5095957"><ele>6.999999999999999</ele><time>2026-04-18T14:31:23.678Z</time></trkpt><trkpt lat="9.5855588" lon="-75.5095755"><ele>7.0</ele><time>2026-04-18T14:31:24.671Z</time></trkpt><trkpt lat="9.5856505" lon="-75.5095564"><ele>7.0</ele><time>2026-04-18T14:31:25.673Z</time></trkpt><trkpt lat="9.5857437" lon="-75.5095451"><ele>7.000000000000001</ele><time>2026-04-18T14:31:26.678Z</time></trkpt><trkpt lat="9.5858324" lon="-75.5095234"><ele>7.0</ele><time>2026-04-18T14:31:27.678Z</time></trkpt><trkpt lat="9.5859201" lon="-75.5095076"><ele>7.0</ele><time>2026-04-18T14:31:28.676Z</time></trkpt><trkpt lat="9.5860048" lon="-75.5094921"><ele>7.0</ele><time>2026-04-18T14:31:29.674Z</time></trkpt><trkpt lat="9.5860903" lon="-75.5094737"><ele>7.000000000000001</ele><time>2026-04-18T14:31:30.674Z</time></trkpt><trkpt lat="9.5861771" lon="-75.5094593"><ele>7.0</ele><time>2026-04-18T14:31:31.679Z</time></trkpt><trkpt lat="9.5862624" lon="-75.5094386"><ele>7.666666666666667</ele><time>2026-04-18T14:31:32.676Z</time></trkpt><trkpt lat="9.5863464" lon="-75.5094219"><ele>8.333333333333334</ele><time>2026-04-18T14:31:33.676Z</time></trkpt><trkpt lat="9.5864325" lon="-75.5094014"><ele>9.0</ele><time>2026-04-18T14:31:34.675Z</time></trkpt><trkpt lat="9.586516" lon="-75.509382"><ele>9.666666666666666</ele><time>2026-04-18T14:31:35.675Z</time></trkpt><trkpt lat="9.5865964" lon="-75.5093653"><ele>10.333333333333332</ele><time>2026-04-18T14:31:36.676Z</time></trkpt><trkpt lat="9.5866793" lon="-75.5093457"><ele>11.0</ele><time>2026-04-18T14:31:37.677Z</time></trkpt><trkpt lat="9.5867583" lon="-75.5093334"><ele>11.0</ele><time>2026-04-18T14:31:38.677Z</time></trkpt><trkpt lat="9.5868411" lon="-75.5093158"><ele>11.0</ele><time>2026-04-18T14:31:39.675Z</time></trkpt><trkpt lat="9.5869243" lon="-75.5093034"><ele>11.0</ele><time>2026-04-18T14:31:40.674Z</time></trkpt><trkpt lat="9.5870045" lon="-75.5092828"><ele>11.0</ele><time>2026-04-18T14:31:41.676Z</time></trkpt><trkpt lat="9.5870879" lon="-75.5092634"><ele>11.0</ele><time>2026-04-18T14:31:42.675Z</time></trkpt><trkpt lat="9.5871705" lon="-75.5092494"><ele>11.0</ele><time>2026-04-18T14:31:43.676Z</time></trkpt><trkpt lat="9.5872547" lon="-75.5092313"><ele>10.5</ele><time>2026-04-18T14:31:44.674Z</time></trkpt><trkpt lat="9.5873367" lon="-75.509213"><ele>10.0</ele><time>2026-04-18T14:31:45.674Z</time></trkpt><trkpt lat="9.5874172" lon="-75.5091975"><ele>9.5</ele><time>2026-04-18T14:31:46.676Z</time></trkpt><trkpt lat="9.5874975" lon="-75.5091784"><ele>9.0</ele><time>2026-04-18T14:31:47.675Z</time></trkpt><trkpt lat="9.5875773" lon="-75.5091597"><ele>8.5</ele><time>2026-04-18T14:31:48.677Z</time></trkpt><trkpt lat="9.5876539" lon="-75.5091391"><ele>8.0</ele><time>2026-04-18T14:31:49.672Z</time></trkpt><trkpt lat="9.5877348" lon="-75.509122"><ele>7.999999999999999</ele><time>2026-04-18T14:31:50.674Z</time></trkpt><trkpt lat="9.5878115" lon="-75.5091051"><ele>8.0</ele><time>2026-04-18T14:31:51.673Z</time></trkpt><trkpt lat="9.5878913" lon="-75.5090865"><ele>8.0</ele><time>2026-04-18T14:31:52.68Z</time></trkpt><trkpt lat="9.5879693" lon="-75.5090688"><ele>8.0</ele><time>2026-04-18T14:31:53.682Z</time></trkpt><trkpt lat="9.5880545" lon="-75.5090517"><ele>7.999999999999999</ele><time>2026-04-18T14:31:54.677Z</time></trkpt><trkpt lat="9.5881353" lon="-75.5090343"><ele>8.0</ele><time>2026-04-18T14:31:55.679Z</time></trkpt><trkpt lat="9.5882118" lon="-75.5090164"><ele>8.166666666666666</ele><time>2026-04-18T14:31:56.676Z</time></trkpt><trkpt lat="9.5882903" lon="-75.5089982"><ele>8.333333333333332</ele><time>2026-04-18T14:31:57.677Z</time></trkpt><trkpt lat="9.5883647" lon="-75.5089809"><ele>8.5</ele><time>2026-04-18T14:31:58.673Z</time></trkpt><trkpt lat="9.5884432" lon="-75.508963"><ele>8.666666666666666</ele><time>2026-04-18T14:31:59.674Z</time></trkpt><trkpt lat="9.5885177" lon="-75.5089471"><ele>8.833333333333334</ele><time>2026-04-18T14:32:00.676Z</time></trkpt><trkpt lat="9.5885972" lon="-75.508935"><ele>9.0</ele><time>2026-04-18T14:32:01.678Z</time></trkpt><trkpt lat="9.5886795" lon="-75.5089153"><ele>8.666666666666666</ele><time>2026-04-18T14:32:02.672Z</time></trkpt><trkpt lat="9.5887538" lon="-75.5088936"><ele>8.333333333333334</ele><time>2026-04-18T14:32:03.683Z</time></trkpt><trkpt lat="9.5888328" lon="-75.5088764"><ele>8.0</ele><time>2026-04-18T14:32:04.681Z</time></trkpt><trkpt lat="9.5889093" lon="-75.5088663"><ele>7.666666666666667</ele><time>2026-04-18T14:32:05.679Z</time></trkpt><trkpt lat="9.5889914" lon="-75.5088473"><ele>7.333333333333334</ele><time>2026-04-18T14:32:06.679Z</time></trkpt><trkpt lat="9.5890748" lon="-75.5088281"><ele>7.0</ele><time>2026-04-18T14:32:07.68Z</time></trkpt><trkpt lat="9.589152" lon="-75.5088116"><ele>7.000000000000001</ele><time>2026-04-18T14:32:08.679Z</time></trkpt><trkpt lat="9.5892319" lon="-75.5087959"><ele>7.0</ele><time>2026-04-18T14:32:09.676Z</time></trkpt><trkpt lat="9.5893175" lon="-75.5087781"><ele>7.0</ele><time>2026-04-18T14:32:10.682Z</time></trkpt><trkpt lat="9.5893998" lon="-75.5087594"><ele>7.0</ele><time>2026-04-18T14:32:11.68Z</time></trkpt><trkpt lat="9.589484" lon="-75.5087446"><ele>7.000000000000001</ele><time>2026-04-18T14:32:12.674Z</time></trkpt><trkpt lat="9.5895697" lon="-75.5087237"><ele>7.0</ele><time>2026-04-18T14:32:13.68Z</time></trkpt><trkpt lat="9.5896552" lon="-75.5087051"><ele>7.833333333333334</ele><time>2026-04-18T14:32:14.677Z</time></trkpt><trkpt lat="9.5897407" lon="-75.508686"><ele>8.666666666666668</ele><time>2026-04-18T14:32:15.679Z</time></trkpt><trkpt lat="9.5898278" lon="-75.5086669"><ele>9.5</ele><time>2026-04-18T14:32:16.674Z</time></trkpt><trkpt lat="9.5899139" lon="-75.5086469"><ele>10.333333333333334</ele><time>2026-04-18T14:32:17.676Z</time></trkpt><trkpt lat="9.5900007" lon="-75.5086273"><ele>11.166666666666666</ele><time>2026-04-18T14:32:18.674Z</time></trkpt><trkpt lat="9.5900907" lon="-75.5086055"><ele>12.0</ele><time>2026-04-18T14:32:19.675Z</time></trkpt><trkpt lat="9.5901758" lon="-75.5085866"><ele>12.0</ele><time>2026-04-18T14:32:20.679Z</time></trkpt><trkpt lat="9.5902601" lon="-75.5085664"><ele>12.0</ele><time>2026-04-18T14:32:21.679Z</time></trkpt><trkpt lat="9.5903453" lon="-75.5085432"><ele>12.0</ele><time>2026-04-18T14:32:22.674Z</time></trkpt><trkpt lat="9.5904313" lon="-75.5085248"><ele>12.0</ele><time>2026-04-18T14:32:23.68Z</time></trkpt><trkpt lat="9.5905171" lon="-75.5085026"><ele>12.0</ele><time>2026-04-18T14:32:24.682Z</time></trkpt><trkpt lat="9.5905973" lon="-75.508478"><ele>12.0</ele><time>2026-04-18T14:32:25.673Z</time></trkpt><trkpt lat="9.5906798" lon="-75.5084573"><ele>12.0</ele><time>2026-04-18T14:32:26.683Z</time></trkpt><trkpt lat="9.5907627" lon="-75.5084385"><ele>12.0</ele><time>2026-04-18T14:32:27.68Z</time></trkpt><trkpt lat="9.5908464" lon="-75.5084141"><ele>12.0</ele><time>2026-04-18T14:32:28.686Z</time></trkpt><trkpt lat="9.5909328" lon="-75.5083898"><ele>12.0</ele><time>2026-04-18T14:32:29.682Z</time></trkpt><trkpt lat="9.5910157" lon="-75.5083621"><ele>12.0</ele><time>2026-04-18T14:32:30.681Z</time></trkpt><trkpt lat="9.5911015" lon="-75.5083255"><ele>12.0</ele><time>2026-04-18T14:32:31.678Z</time></trkpt><trkpt lat="9.5911884" lon="-75.5082914"><ele>12.0</ele><time>2026-04-18T14:32:32.678Z</time></trkpt><trkpt lat="9.5912713" lon="-75.5082552"><ele>12.0</ele><time>2026-04-18T14:32:33.678Z</time></trkpt><trkpt lat="9.5913528" lon="-75.5082225"><ele>12.0</ele><time>2026-04-18T14:32:34.679Z</time></trkpt><trkpt lat="9.5914321" lon="-75.5081834"><ele>12.0</ele><time>2026-04-18T14:32:35.68Z</time></trkpt><trkpt lat="9.5915117" lon="-75.5081495"><ele>12.0</ele><time>2026-04-18T14:32:36.681Z</time></trkpt><trkpt lat="9.5915926" lon="-75.5081103"><ele>12.0</ele><time>2026-04-18T14:32:37.676Z</time></trkpt><trkpt lat="9.5916725" lon="-75.5080781"><ele>12.0</ele><time>2026-04-18T14:32:38.675Z</time></trkpt><trkpt lat="9.5917511" lon="-75.5080426"><ele>12.0</ele><time>2026-04-18T14:32:39.673Z</time></trkpt><trkpt lat="9.5918293" lon="-75.5080088"><ele>12.0</ele><time>2026-04-18T14:32:40.677Z</time></trkpt><trkpt lat="9.5919078" lon="-75.507974"><ele>12.0</ele><time>2026-04-18T14:32:41.675Z</time></trkpt><trkpt lat="9.5919861" lon="-75.5079381"><ele>12.0</ele><time>2026-04-18T14:32:42.674Z</time></trkpt><trkpt lat="9.5920605" lon="-75.5078975"><ele>12.0</ele><time>2026-04-18T14:32:43.677Z</time></trkpt><trkpt lat="9.5921402" lon="-75.5078631"><ele>12.0</ele><time>2026-04-18T14:32:44.676Z</time></trkpt><trkpt lat="9.5922159" lon="-75.5078265"><ele>12.0</ele><time>2026-04-18T14:32:45.673Z</time></trkpt><trkpt lat="9.5922955" lon="-75.5077937"><ele>12.0</ele><time>2026-04-18T14:32:46.671Z</time></trkpt><trkpt lat="9.592373" lon="-75.5077611"><ele>12.0</ele><time>2026-04-18T14:32:47.672Z</time></trkpt><trkpt lat="9.5924484" lon="-75.5077262"><ele>12.0</ele><time>2026-04-18T14:32:48.671Z</time></trkpt><trkpt lat="9.5925261" lon="-75.5076919"><ele>12.0</ele><time>2026-04-18T14:32:49.672Z</time></trkpt><trkpt lat="9.5926004" lon="-75.5076604"><ele>12.0</ele><time>2026-04-18T14:32:50.674Z</time></trkpt><trkpt lat="9.5926794" lon="-75.5076256"><ele>12.0</ele><time>2026-04-18T14:32:51.674Z</time></trkpt><trkpt lat="9.592755" lon="-75.5075921"><ele>12.0</ele><time>2026-04-18T14:32:52.678Z</time></trkpt><trkpt lat="9.5928348" lon="-75.5075613"><ele>12.0</ele><time>2026-04-18T14:32:53.677Z</time></trkpt><trkpt lat="9.592916" lon="-75.5075329"><ele>12.0</ele><time>2026-04-18T14:32:54.675Z</time></trkpt><trkpt lat="9.5929933" lon="-75.5074997"><ele>12.0</ele><time>2026-04-18T14:32:55.675Z</time></trkpt><trkpt lat="9.5930752" lon="-75.5074721"><ele>12.0</ele><time>2026-04-18T14:32:56.674Z</time></trkpt><trkpt lat="9.5931521" lon="-75.5074433"><ele>12.0</ele><time>2026-04-18T14:32:57.676Z</time></trkpt><trkpt lat="9.5932334" lon="-75.5074153"><ele>12.0</ele><time>2026-04-18T14:32:58.674Z</time></trkpt><trkpt lat="9.593313" lon="-75.5073879"><ele>12.0</ele><time>2026-04-18T14:32:59.676Z</time></trkpt><trkpt lat="9.5933964" lon="-75.5073626"><ele>12.0</ele><time>2026-04-18T14:33:00.677Z</time></trkpt><trkpt lat="9.5934776" lon="-75.5073392"><ele>12.0</ele><time>2026-04-18T14:33:01.677Z</time></trkpt><trkpt lat="9.5935604" lon="-75.5073123"><ele>12.0</ele><time>2026-04-18T14:33:02.681Z</time></trkpt><trkpt lat="9.5936411" lon="-75.5072908"><ele>12.0</ele><time>2026-04-18T14:33:03.678Z</time></trkpt><trkpt lat="9.5937187" lon="-75.5072668"><ele>12.0</ele><time>2026-04-18T14:33:04.679Z</time></trkpt><trkpt lat="9.5937979" lon="-75.5072447"><ele>12.0</ele><time>2026-04-18T14:33:05.677Z</time></trkpt><trkpt lat="9.59388" lon="-75.5072201"><ele>12.0</ele><time>2026-04-18T14:33:06.674Z</time></trkpt><trkpt lat="9.5939626" lon="-75.5071968"><ele>12.0</ele><time>2026-04-18T14:33:07.675Z</time></trkpt><trkpt lat="9.5940409" lon="-75.5071742"><ele>11.666666666666666</ele><time>2026-04-18T14:33:08.673Z</time></trkpt><trkpt lat="9.5941222" lon="-75.5071518"><ele>11.333333333333334</ele><time>2026-04-18T14:33:09.673Z</time></trkpt><trkpt lat="9.5942072" lon="-75.5071279"><ele>11.0</ele><time>2026-04-18T14:33:10.673Z</time></trkpt><trkpt lat="9.5942868" lon="-75.5071054"><ele>10.666666666666668</ele><time>2026-04-18T14:33:11.673Z</time></trkpt><trkpt lat="9.5943686" lon="-75.5070844"><ele>10.333333333333334</ele><time>2026-04-18T14:33:12.676Z</time></trkpt><trkpt lat="9.5944523" lon="-75.5070623"><ele>10.0</ele><time>2026-04-18T14:33:13.673Z</time></trkpt><trkpt lat="9.5945337" lon="-75.5070368"><ele>9.666666666666668</ele><time>2026-04-18T14:33:14.678Z</time></trkpt><trkpt lat="9.5946153" lon="-75.5070141"><ele>9.333333333333334</ele><time>2026-04-18T14:33:15.679Z</time></trkpt><trkpt lat="9.5946973" lon="-75.506989"><ele>9.0</ele><time>2026-04-18T14:33:16.675Z</time></trkpt><trkpt lat="9.59478" lon="-75.5069652"><ele>8.666666666666666</ele><time>2026-04-18T14:33:17.675Z</time></trkpt><trkpt lat="9.5948615" lon="-75.5069409"><ele>8.333333333333332</ele><time>2026-04-18T14:33:18.67Z</time></trkpt><trkpt lat="9.5949421" lon="-75.5069145"><ele>8.0</ele><time>2026-04-18T14:33:19.674Z</time></trkpt><trkpt lat="9.5950186" lon="-75.5068879"><ele>7.999999999999999</ele><time>2026-04-18T14:33:20.688Z</time></trkpt><trkpt lat="9.5951006" lon="-75.5068514"><ele>8.0</ele><time>2026-04-18T14:33:21.672Z</time></trkpt><trkpt lat="9.5951771" lon="-75.506818"><ele>8.0</ele><time>2026-04-18T14:33:22.673Z</time></trkpt><trkpt lat="9.595253" lon="-75.5067881"><ele>8.0</ele><time>2026-04-18T14:33:23.681Z</time></trkpt><trkpt lat="9.5953293" lon="-75.5067537"><ele>7.999999999999999</ele><time>2026-04-18T14:33:24.68Z</time></trkpt><trkpt lat="9.5954025" lon="-75.5067215"><ele>8.0</ele><time>2026-04-18T14:33:25.681Z</time></trkpt><trkpt lat="9.5954776" lon="-75.5066849"><ele>8.166666666666666</ele><time>2026-04-18T14:33:26.678Z</time></trkpt><trkpt lat="9.5955553" lon="-75.506647"><ele>8.333333333333332</ele><time>2026-04-18T14:33:27.676Z</time></trkpt><trkpt lat="9.5956314" lon="-75.5066062"><ele>8.5</ele><time>2026-04-18T14:33:28.68Z</time></trkpt><trkpt lat="9.5957057" lon="-75.506566"><ele>8.666666666666666</ele><time>2026-04-18T14:33:29.68Z</time></trkpt><trkpt lat="9.5957803" lon="-75.5065286"><ele>8.833333333333334</ele><time>2026-04-18T14:33:30.674Z</time></trkpt><trkpt lat="9.59585" lon="-75.506486"><ele>9.0</ele><time>2026-04-18T14:33:31.682Z</time></trkpt><trkpt lat="9.595919" lon="-75.5064457"><ele>9.0</ele><time>2026-04-18T14:33:32.679Z</time></trkpt><trkpt lat="9.5959931" lon="-75.5063968"><ele>9.0</ele><time>2026-04-18T14:33:33.674Z</time></trkpt><trkpt lat="9.5960659" lon="-75.5063538"><ele>9.0</ele><time>2026-04-18T14:33:34.676Z</time></trkpt><trkpt lat="9.5961404" lon="-75.5063104"><ele>9.0</ele><time>2026-04-18T14:33:35.677Z</time></trkpt><trkpt lat="9.5962097" lon="-75.5062668"><ele>9.0</ele><time>2026-04-18T14:33:36.678Z</time></trkpt><trkpt lat="9.5962827" lon="-75.5062181"><ele>9.0</ele><time>2026-04-18T14:33:37.676Z</time></trkpt><trkpt lat="9.5963522" lon="-75.506175"><ele>9.666666666666666</ele><time>2026-04-18T14:33:38.677Z</time></trkpt><trkpt lat="9.5964234" lon="-75.5061277"><ele>10.333333333333332</ele><time>2026-04-18T14:33:39.677Z</time></trkpt><trkpt lat="9.5964962" lon="-75.5060829"><ele>11.0</ele><time>2026-04-18T14:33:40.675Z</time></trkpt><trkpt lat="9.5965685" lon="-75.5060343"><ele>11.666666666666666</ele><time>2026-04-18T14:33:41.673Z</time></trkpt><trkpt lat="9.5966424" lon="-75.505988"><ele>12.333333333333332</ele><time>2026-04-18T14:33:42.674Z</time></trkpt><trkpt lat="9.5967134" lon="-75.5059416"><ele>13.0</ele><time>2026-04-18T14:33:43.677Z</time></trkpt><trkpt lat="9.596787" lon="-75.5058947"><ele>12.999999999999998</ele><time>2026-04-18T14:33:44.675Z</time></trkpt><trkpt lat="9.5968593" lon="-75.5058489"><ele>13.0</ele><time>2026-04-18T14:33:45.675Z</time></trkpt><trkpt lat="9.5969298" lon="-75.5058048"><ele>13.0</ele><time>2026-04-18T14:33:46.675Z</time></trkpt><trkpt lat="9.5969981" lon="-75.505762"><ele>13.0</ele><time>2026-04-18T14:33:47.675Z</time></trkpt><trkpt lat="9.5970708" lon="-75.50572"><ele>12.999999999999998</ele><time>2026-04-18T14:33:48.675Z</time></trkpt><trkpt lat="9.5971406" lon="-75.5056738"><ele>13.0</ele><time>2026-04-18T14:33:49.68Z</time></trkpt><trkpt lat="9.5972115" lon="-75.505631"><ele>12.999999999999998</ele><time>2026-04-18T14:33:50.677Z</time></trkpt><trkpt lat="9.5972803" lon="-75.5055875"><ele>13.0</ele><time>2026-04-18T14:33:51.682Z</time></trkpt><trkpt lat="9.5973499" lon="-75.5055456"><ele>13.0</ele><time>2026-04-18T14:33:52.679Z</time></trkpt><trkpt lat="9.5974207" lon="-75.5055004"><ele>13.0</ele><time>2026-04-18T14:33:53.677Z</time></trkpt><trkpt lat="9.597487" lon="-75.5054605"><ele>12.999999999999998</ele><time>2026-04-18T14:33:54.677Z</time></trkpt><trkpt lat="9.5975563" lon="-75.5054155"><ele>13.0</ele><time>2026-04-18T14:33:55.675Z</time></trkpt><trkpt lat="9.5976263" lon="-75.5053737"><ele>12.999999999999998</ele><time>2026-04-18T14:33:56.674Z</time></trkpt><trkpt lat="9.5976942" lon="-75.5053326"><ele>13.0</ele><time>2026-04-18T14:33:57.677Z</time></trkpt><trkpt lat="9.5977635" lon="-75.5052887"><ele>13.0</ele><time>2026-04-18T14:33:58.68Z</time></trkpt><trkpt lat="9.597833" lon="-75.5052445"><ele>13.0</ele><time>2026-04-18T14:33:59.682Z</time></trkpt><trkpt lat="9.5979026" lon="-75.5052015"><ele>12.999999999999998</ele><time>2026-04-18T14:34:00.683Z</time></trkpt><trkpt lat="9.5979701" lon="-75.505161"><ele>13.0</ele><time>2026-04-18T14:34:01.681Z</time></trkpt><trkpt lat="9.5980375" lon="-75.5051203"><ele>13.166666666666666</ele><time>2026-04-18T14:34:02.681Z</time></trkpt><trkpt lat="9.5981024" lon="-75.5050789"><ele>13.333333333333332</ele><time>2026-04-18T14:34:03.681Z</time></trkpt><trkpt lat="9.5981739" lon="-75.5050402"><ele>13.5</ele><time>2026-04-18T14:34:04.683Z</time></trkpt><trkpt lat="9.5982418" lon="-75.5050003"><ele>13.666666666666668</ele><time>2026-04-18T14:34:05.68Z</time></trkpt><trkpt lat="9.5983122" lon="-75.5049674"><ele>13.833333333333334</ele><time>2026-04-18T14:34:06.68Z</time></trkpt><trkpt lat="9.5983825" lon="-75.5049322"><ele>14.0</ele><time>2026-04-18T14:34:07.681Z</time></trkpt><trkpt lat="9.5984525" lon="-75.5048986"><ele>14.000000000000002</ele><time>2026-04-18T14:34:08.68Z</time></trkpt><trkpt lat="9.5985176" lon="-75.5048692"><ele>14.0</ele><time>2026-04-18T14:34:09.679Z</time></trkpt><trkpt lat="9.5985891" lon="-75.5048408"><ele>14.0</ele><time>2026-04-18T14:34:10.674Z</time></trkpt><trkpt lat="9.5986605" lon="-75.5048094"><ele>14.0</ele><time>2026-04-18T14:34:11.678Z</time></trkpt><trkpt lat="9.5987274" lon="-75.50478"><ele>14.000000000000002</ele><time>2026-04-18T14:34:12.687Z</time></trkpt><trkpt lat="9.5988021" lon="-75.504753"><ele>14.0</ele><time>2026-04-18T14:34:13.682Z</time></trkpt><trkpt lat="9.5988726" lon="-75.5047313"><ele>14.166666666666668</ele><time>2026-04-18T14:34:14.675Z</time></trkpt><trkpt lat="9.5989459" lon="-75.5047079"><ele>14.333333333333334</ele><time>2026-04-18T14:34:15.68Z</time></trkpt><trkpt lat="9.5990235" lon="-75.5046867"><ele>14.5</ele><time>2026-04-18T14:34:16.676Z</time></trkpt><trkpt lat="9.5990989" lon="-75.5046709"><ele>14.666666666666668</ele><time>2026-04-18T14:34:17.679Z</time></trkpt><trkpt lat="9.5991752" lon="-75.50465"><ele>14.833333333333334</ele><time>2026-04-18T14:34:18.673Z</time></trkpt><trkpt lat="9.5992533" lon="-75.5046304"><ele>15.0</ele><time>2026-04-18T14:34:19.673Z</time></trkpt><trkpt lat="9.5993296" lon="-75.5046098"><ele>15.0</ele><time>2026-04-18T14:34:20.674Z</time></trkpt><trkpt lat="9.5994063" lon="-75.504591"><ele>15.0</ele><time>2026-04-18T14:34:21.675Z</time></trkpt><trkpt lat="9.5994811" lon="-75.5045719"><ele>15.0</ele><time>2026-04-18T14:34:22.682Z</time></trkpt><trkpt lat="9.5995594" lon="-75.5045539"><ele>15.0</ele><time>2026-04-18T14:34:23.679Z</time></trkpt><trkpt lat="9.599634" lon="-75.5045371"><ele>15.0</ele><time>2026-04-18T14:34:24.679Z</time></trkpt><trkpt lat="9.5997062" lon="-75.5045199"><ele>15.0</ele><time>2026-04-18T14:34:25.675Z</time></trkpt><trkpt lat="9.5997835" lon="-75.504503"><ele>15.166666666666666</ele><time>2026-04-18T14:34:26.68Z</time></trkpt><trkpt lat="9.5998564" lon="-75.5044856"><ele>15.333333333333332</ele><time>2026-04-18T14:34:27.68Z</time></trkpt><trkpt lat="9.5999292" lon="-75.5044684"><ele>15.5</ele><time>2026-04-18T14:34:28.677Z</time></trkpt><trkpt lat="9.6000075" lon="-75.5044497"><ele>15.666666666666666</ele><time>2026-04-18T14:34:29.677Z</time></trkpt><trkpt lat="9.6000841" lon="-75.504427"><ele>15.833333333333332</ele><time>2026-04-18T14:34:30.677Z</time></trkpt><trkpt lat="9.6001603" lon="-75.5044065"><ele>16.0</ele><time>2026-04-18T14:34:31.671Z</time></trkpt><trkpt lat="9.6002361" lon="-75.5043847"><ele>15.999999999999998</ele><time>2026-04-18T14:34:32.677Z</time></trkpt><trkpt lat="9.6003167" lon="-75.5043639"><ele>16.0</ele><time>2026-04-18T14:34:33.677Z</time></trkpt><trkpt lat="9.6003972" lon="-75.5043439"><ele>16.0</ele><time>2026-04-18T14:34:34.674Z</time></trkpt><trkpt lat="9.6004745" lon="-75.5043283"><ele>16.0</ele><time>2026-04-18T14:34:35.679Z</time></trkpt><trkpt lat="9.6005504" lon="-75.5043054"><ele>15.999999999999998</ele><time>2026-04-18T14:34:36.681Z</time></trkpt><trkpt lat="9.6006261" lon="-75.504289"><ele>16.0</ele><time>2026-04-18T14:34:37.676Z</time></trkpt><trkpt lat="9.6007007" lon="-75.5042737"><ele>15.666666666666666</ele><time>2026-04-18T14:34:38.677Z</time></trkpt><trkpt lat="9.6007777" lon="-75.5042597"><ele>15.333333333333332</ele><time>2026-04-18T14:34:39.674Z</time></trkpt><trkpt lat="9.6008501" lon="-75.504241"><ele>15.0</ele><time>2026-04-18T14:34:40.684Z</time></trkpt><trkpt lat="9.6009241" lon="-75.5042227"><ele>14.666666666666668</ele><time>2026-04-18T14:34:41.674Z</time></trkpt><trkpt lat="9.6009998" lon="-75.5042025"><ele>14.333333333333334</ele><time>2026-04-18T14:34:42.677Z</time></trkpt><trkpt lat="9.6010772" lon="-75.5041906"><ele>14.0</ele><time>2026-04-18T14:34:43.671Z</time></trkpt><trkpt lat="9.6011563" lon="-75.5041756"><ele>14.333333333333334</ele><time>2026-04-18T14:34:44.674Z</time></trkpt><trkpt lat="9.6012332" lon="-75.5041571"><ele>14.666666666666668</ele><time>2026-04-18T14:34:45.674Z</time></trkpt><trkpt lat="9.6013073" lon="-75.5041378"><ele>15.0</ele><time>2026-04-18T14:34:46.676Z</time></trkpt><trkpt lat="9.601381" lon="-75.504124"><ele>15.333333333333332</ele><time>2026-04-18T14:34:47.675Z</time></trkpt><trkpt lat="9.6014519" lon="-75.5041061"><ele>15.666666666666666</ele><time>2026-04-18T14:34:48.681Z</time></trkpt><trkpt lat="9.6015218" lon="-75.5040876"><ele>16.0</ele><time>2026-04-18T14:34:49.674Z</time></trkpt><trkpt lat="9.6015946" lon="-75.5040693"><ele>15.999999999999998</ele><time>2026-04-18T14:34:50.673Z</time></trkpt><trkpt lat="9.6016664" lon="-75.5040463"><ele>16.0</ele><time>2026-04-18T14:34:51.673Z</time></trkpt><trkpt lat="9.6017386" lon="-75.5040281"><ele>16.0</ele><time>2026-04-18T14:34:52.681Z</time></trkpt><trkpt lat="9.60181" lon="-75.5040114"><ele>16.0</ele><time>2026-04-18T14:34:53.678Z</time></trkpt><trkpt lat="9.6018858" lon="-75.5039933"><ele>15.999999999999998</ele><time>2026-04-18T14:34:54.677Z</time></trkpt><trkpt lat="9.6019636" lon="-75.5039743"><ele>16.0</ele><time>2026-04-18T14:34:55.676Z</time></trkpt><trkpt lat="9.6020406" lon="-75.5039549"><ele>16.5</ele><time>2026-04-18T14:34:56.679Z</time></trkpt><trkpt lat="9.6021191" lon="-75.5039322"><ele>17.0</ele><time>2026-04-18T14:34:57.672Z</time></trkpt><trkpt lat="9.6021962" lon="-75.5039149"><ele>17.5</ele><time>2026-04-18T14:34:58.679Z</time></trkpt><trkpt lat="9.6022737" lon="-75.5038986"><ele>18.0</ele><time>2026-04-18T14:34:59.673Z</time></trkpt><trkpt lat="9.6023504" lon="-75.5038803"><ele>18.5</ele><time>2026-04-18T14:35:00.673Z</time></trkpt><trkpt lat="9.602431" lon="-75.5038592"><ele>19.0</ele><time>2026-04-18T14:35:01.681Z</time></trkpt><trkpt lat="9.6025091" lon="-75.5038389"><ele>19.0</ele><time>2026-04-18T14:35:02.672Z</time></trkpt><trkpt lat="9.6025888" lon="-75.5038186"><ele>19.0</ele><time>2026-04-18T14:35:03.676Z</time></trkpt><trkpt lat="9.6026669" lon="-75.5037988"><ele>19.0</ele><time>2026-04-18T14:35:04.675Z</time></trkpt><trkpt lat="9.6027449" lon="-75.5037809"><ele>19.0</ele><time>2026-04-18T14:35:05.674Z</time></trkpt><trkpt lat="9.602828" lon="-75.5037603"><ele>19.0</ele><time>2026-04-18T14:35:06.676Z</time></trkpt><trkpt lat="9.6029133" lon="-75.5037397"><ele>19.0</ele><time>2026-04-18T14:35:07.675Z</time></trkpt><trkpt lat="9.6029937" lon="-75.5037216"><ele>18.833333333333332</ele><time>2026-04-18T14:35:08.671Z</time></trkpt><trkpt lat="9.6030738" lon="-75.5037002"><ele>18.666666666666664</ele><time>2026-04-18T14:35:09.673Z</time></trkpt><trkpt lat="9.603156" lon="-75.5036795"><ele>18.5</ele><time>2026-04-18T14:35:10.673Z</time></trkpt><trkpt lat="9.6032343" lon="-75.5036581"><ele>18.333333333333332</ele><time>2026-04-18T14:35:11.675Z</time></trkpt><trkpt lat="9.6033149" lon="-75.5036389"><ele>18.166666666666668</ele><time>2026-04-18T14:35:12.674Z</time></trkpt><trkpt lat="9.6033873" lon="-75.5036186"><ele>18.0</ele><time>2026-04-18T14:35:13.674Z</time></trkpt><trkpt lat="9.603471" lon="-75.5036001"><ele>18.0</ele><time>2026-04-18T14:35:14.675Z</time></trkpt><trkpt lat="9.6035501" lon="-75.5035811"><ele>18.0</ele><time>2026-04-18T14:35:15.677Z</time></trkpt><trkpt lat="9.6036321" lon="-75.5035681"><ele>18.0</ele><time>2026-04-18T14:35:16.678Z</time></trkpt><trkpt lat="9.6037149" lon="-75.5035478"><ele>18.0</ele><time>2026-04-18T14:35:17.674Z</time></trkpt><trkpt lat="9.6037976" lon="-75.503527"><ele>18.0</ele><time>2026-04-18T14:35:18.673Z</time></trkpt><trkpt lat="9.6038807" lon="-75.5035072"><ele>18.0</ele><time>2026-04-18T14:35:19.672Z</time></trkpt><trkpt lat="9.6039619" lon="-75.5034886"><ele>17.833333333333332</ele><time>2026-04-18T14:35:20.676Z</time></trkpt><trkpt lat="9.6040469" lon="-75.5034685"><ele>17.666666666666668</ele><time>2026-04-18T14:35:21.676Z</time></trkpt><trkpt lat="9.6041299" lon="-75.5034484"><ele>17.5</ele><time>2026-04-18T14:35:22.674Z</time></trkpt><trkpt lat="9.6042124" lon="-75.5034271"><ele>17.333333333333336</ele><time>2026-04-18T14:35:23.674Z</time></trkpt><trkpt lat="9.6042962" lon="-75.5034055"><ele>17.166666666666668</ele><time>2026-04-18T14:35:24.671Z</time></trkpt><trkpt lat="9.6043855" lon="-75.5033807"><ele>17.0</ele><time>2026-04-18T14:35:25.673Z</time></trkpt><trkpt lat="9.60447" lon="-75.5033596"><ele>16.666666666666668</ele><time>2026-04-18T14:35:26.676Z</time></trkpt><trkpt lat="9.6045536" lon="-75.5033376"><ele>16.333333333333336</ele><time>2026-04-18T14:35:27.675Z</time></trkpt><trkpt lat="9.6046378" lon="-75.5033132"><ele>16.0</ele><time>2026-04-18T14:35:28.679Z</time></trkpt><trkpt lat="9.6047259" lon="-75.5032918"><ele>15.666666666666668</ele><time>2026-04-18T14:35:29.675Z</time></trkpt><trkpt lat="9.6048084" lon="-75.5032695"><ele>15.333333333333334</ele><time>2026-04-18T14:35:30.676Z</time></trkpt><trkpt lat="9.6048914" lon="-75.5032495"><ele>15.0</ele><time>2026-04-18T14:35:31.679Z</time></trkpt><trkpt lat="9.6049782" lon="-75.5032306"><ele>15.0</ele><time>2026-04-18T14:35:32.681Z</time></trkpt><trkpt lat="9.6050636" lon="-75.5032096"><ele>15.0</ele><time>2026-04-18T14:35:33.673Z</time></trkpt><trkpt lat="9.6051509" lon="-75.5031857"><ele>15.0</ele><time>2026-04-18T14:35:34.674Z</time></trkpt><trkpt lat="9.6052409" lon="-75.5031624"><ele>15.0</ele><time>2026-04-18T14:35:35.674Z</time></trkpt><trkpt lat="9.6053285" lon="-75.5031449"><ele>15.0</ele><time>2026-04-18T14:35:36.674Z</time></trkpt><trkpt lat="9.6054189" lon="-75.503128"><ele>15.2</ele><time>2026-04-18T14:35:37.677Z</time></trkpt><trkpt lat="9.6055099" lon="-75.5031129"><ele>15.4</ele><time>2026-04-18T14:35:38.675Z</time></trkpt><trkpt lat="9.6056033" lon="-75.5030982"><ele>15.600000000000001</ele><time>2026-04-18T14:35:39.679Z</time></trkpt><trkpt lat="9.6056962" lon="-75.5030877"><ele>15.8</ele><time>2026-04-18T14:35:40.675Z</time></trkpt><trkpt lat="9.6057884" lon="-75.5030781"><ele>16.0</ele><time>2026-04-18T14:35:41.675Z</time></trkpt><trkpt lat="9.6058784" lon="-75.5030703"><ele>15.999999999999998</ele><time>2026-04-18T14:35:42.683Z</time></trkpt><trkpt lat="9.6059672" lon="-75.5030637"><ele>16.0</ele><time>2026-04-18T14:35:43.68Z</time></trkpt><trkpt lat="9.6060595" lon="-75.5030643"><ele>16.0</ele><time>2026-04-18T14:35:44.683Z</time></trkpt><trkpt lat="9.6061479" lon="-75.5030647"><ele>16.0</ele><time>2026-04-18T14:35:45.678Z</time></trkpt><trkpt lat="9.6062324" lon="-75.5030717"><ele>15.999999999999998</ele><time>2026-04-18T14:35:46.677Z</time></trkpt><trkpt lat="9.6063255" lon="-75.5030799"><ele>16.0</ele><time>2026-04-18T14:35:47.674Z</time></trkpt><trkpt lat="9.6064126" lon="-75.503093"><ele>15.8</ele><time>2026-04-18T14:35:48.673Z</time></trkpt><trkpt lat="9.6065031" lon="-75.5031068"><ele>15.600000000000001</ele><time>2026-04-18T14:35:49.674Z</time></trkpt><trkpt lat="9.6066011" lon="-75.5031201"><ele>15.4</ele><time>2026-04-18T14:35:50.67Z</time></trkpt><trkpt lat="9.606705" lon="-75.5031377"><ele>15.2</ele><time>2026-04-18T14:35:51.674Z</time></trkpt><trkpt lat="9.6068109" lon="-75.5031558"><ele>15.0</ele><time>2026-04-18T14:35:52.671Z</time></trkpt><trkpt lat="9.6069135" lon="-75.5031766"><ele>14.8</ele><time>2026-04-18T14:35:53.674Z</time></trkpt><trkpt lat="9.6070169" lon="-75.503199"><ele>14.6</ele><time>2026-04-18T14:35:54.674Z</time></trkpt><trkpt lat="9.6071182" lon="-75.5032175"><ele>14.399999999999999</ele><time>2026-04-18T14:35:55.676Z</time></trkpt><trkpt lat="9.6072205" lon="-75.5032414"><ele>14.2</ele><time>2026-04-18T14:35:56.675Z</time></trkpt><trkpt lat="9.6073163" lon="-75.5032662"><ele>14.0</ele><time>2026-04-18T14:35:57.674Z</time></trkpt><trkpt lat="9.6074106" lon="-75.5032865"><ele>14.0</ele><time>2026-04-18T14:35:58.673Z</time></trkpt><trkpt lat="9.6075051" lon="-75.5033084"><ele>13.999999999999998</ele><time>2026-04-18T14:35:59.677Z</time></trkpt><trkpt lat="9.6075965" lon="-75.5033308"><ele>13.999999999999998</ele><time>2026-04-18T14:36:00.674Z</time></trkpt><trkpt lat="9.6076881" lon="-75.5033507"><ele>14.0</ele><time>2026-04-18T14:36:01.674Z</time></trkpt><trkpt lat="9.6077811" lon="-75.5033697"><ele>14.0</ele><time>2026-04-18T14:36:02.675Z</time></trkpt><trkpt lat="9.6078682" lon="-75.5033899"><ele>14.0</ele><time>2026-04-18T14:36:03.682Z</time></trkpt><trkpt lat="9.6079562" lon="-75.5034083"><ele>13.999999999999998</ele><time>2026-04-18T14:36:04.674Z</time></trkpt><trkpt lat="9.6080458" lon="-75.5034296"><ele>13.999999999999998</ele><time>2026-04-18T14:36:05.675Z</time></trkpt><trkpt lat="9.6081349" lon="-75.5034494"><ele>14.0</ele><time>2026-04-18T14:36:06.675Z</time></trkpt><trkpt lat="9.6082251" lon="-75.5034681"><ele>14.0</ele><time>2026-04-18T14:36:07.677Z</time></trkpt><trkpt lat="9.6083134" lon="-75.5034877"><ele>14.000000000000002</ele><time>2026-04-18T14:36:08.677Z</time></trkpt><trkpt lat="9.6083996" lon="-75.5035011"><ele>14.0</ele><time>2026-04-18T14:36:09.677Z</time></trkpt><trkpt lat="9.6084865" lon="-75.5035203"><ele>14.0</ele><time>2026-04-18T14:36:10.674Z</time></trkpt><trkpt lat="9.6085755" lon="-75.5035325"><ele>14.0</ele><time>2026-04-18T14:36:11.674Z</time></trkpt><trkpt lat="9.6086615" lon="-75.5035473"><ele>14.000000000000002</ele><time>2026-04-18T14:36:12.677Z</time></trkpt><trkpt lat="9.6087497" lon="-75.5035611"><ele>14.0</ele><time>2026-04-18T14:36:13.675Z</time></trkpt><trkpt lat="9.608841" lon="-75.50358"><ele>13.833333333333334</ele><time>2026-04-18T14:36:14.673Z</time></trkpt><trkpt lat="9.6089296" lon="-75.5035929"><ele>13.666666666666668</ele><time>2026-04-18T14:36:15.675Z</time></trkpt><trkpt lat="9.6090199" lon="-75.503607"><ele>13.5</ele><time>2026-04-18T14:36:16.674Z</time></trkpt><trkpt lat="9.6091105" lon="-75.5036161"><ele>13.333333333333332</ele><time>2026-04-18T14:36:17.676Z</time></trkpt><trkpt lat="9.6092009" lon="-75.5036257"><ele>13.166666666666666</ele><time>2026-04-18T14:36:18.673Z</time></trkpt><trkpt lat="9.6092867" lon="-75.503636"><ele>13.0</ele><time>2026-04-18T14:36:19.677Z</time></trkpt><trkpt lat="9.6093728" lon="-75.5036406"><ele>12.999999999999998</ele><time>2026-04-18T14:36:20.68Z</time></trkpt><trkpt lat="9.609457" lon="-75.5036438"><ele>13.0</ele><time>2026-04-18T14:36:21.678Z</time></trkpt><trkpt lat="9.6095416" lon="-75.5036445"><ele>13.0</ele><time>2026-04-18T14:36:22.675Z</time></trkpt><trkpt lat="9.609625" lon="-75.5036469"><ele>13.0</ele><time>2026-04-18T14:36:23.675Z</time></trkpt><trkpt lat="9.6097087" lon="-75.5036447"><ele>12.999999999999998</ele><time>2026-04-18T14:36:24.676Z</time></trkpt><trkpt lat="9.6097937" lon="-75.5036414"><ele>13.0</ele><time>2026-04-18T14:36:25.674Z</time></trkpt><trkpt lat="9.6098762" lon="-75.5036403"><ele>12.833333333333332</ele><time>2026-04-18T14:36:26.678Z</time></trkpt><trkpt lat="9.6099607" lon="-75.5036398"><ele>12.666666666666666</ele><time>2026-04-18T14:36:27.679Z</time></trkpt><trkpt lat="9.6100448" lon="-75.503639"><ele>12.5</ele><time>2026-04-18T14:36:28.68Z</time></trkpt><trkpt lat="9.6101262" lon="-75.5036382"><ele>12.333333333333332</ele><time>2026-04-18T14:36:29.681Z</time></trkpt><trkpt lat="9.6102074" lon="-75.503636"><ele>12.166666666666666</ele><time>2026-04-18T14:36:30.68Z</time></trkpt><trkpt lat="9.6102887" lon="-75.5036312"><ele>12.0</ele><time>2026-04-18T14:36:31.68Z</time></trkpt><trkpt lat="9.6103692" lon="-75.5036272"><ele>12.333333333333334</ele><time>2026-04-18T14:36:32.677Z</time></trkpt><trkpt lat="9.6104531" lon="-75.5036234"><ele>12.666666666666668</ele><time>2026-04-18T14:36:33.676Z</time></trkpt><trkpt lat="9.6105342" lon="-75.5036222"><ele>13.0</ele><time>2026-04-18T14:36:34.675Z</time></trkpt><trkpt lat="9.6106162" lon="-75.5036213"><ele>13.333333333333334</ele><time>2026-04-18T14:36:35.675Z</time></trkpt><trkpt lat="9.6106989" lon="-75.5036179"><ele>13.666666666666668</ele><time>2026-04-18T14:36:36.672Z</time></trkpt><trkpt lat="9.610777" lon="-75.5036169"><ele>14.0</ele><time>2026-04-18T14:36:37.676Z</time></trkpt><trkpt lat="9.6108568" lon="-75.5036175"><ele>14.000000000000002</ele><time>2026-04-18T14:36:38.678Z</time></trkpt><trkpt lat="9.6109368" lon="-75.5036182"><ele>14.0</ele><time>2026-04-18T14:36:39.681Z</time></trkpt><trkpt lat="9.6110182" lon="-75.5036157"><ele>14.0</ele><time>2026-04-18T14:36:40.676Z</time></trkpt><trkpt lat="9.6111014" lon="-75.5036138"><ele>14.0</ele><time>2026-04-18T14:36:41.673Z</time></trkpt><trkpt lat="9.6111832" lon="-75.5036134"><ele>14.000000000000002</ele><time>2026-04-18T14:36:42.677Z</time></trkpt><trkpt lat="9.6112673" lon="-75.5036136"><ele>14.0</ele><time>2026-04-18T14:36:43.679Z</time></trkpt><trkpt lat="9.6113488" lon="-75.5036135"><ele>13.833333333333334</ele><time>2026-04-18T14:36:44.678Z</time></trkpt><trkpt lat="9.61143" lon="-75.5036096"><ele>13.666666666666668</ele><time>2026-04-18T14:36:45.679Z</time></trkpt><trkpt lat="9.6115143" lon="-75.5036136"><ele>13.5</ele><time>2026-04-18T14:36:46.678Z</time></trkpt><trkpt lat="9.611594" lon="-75.5036166"><ele>13.333333333333332</ele><time>2026-04-18T14:36:47.678Z</time></trkpt><trkpt lat="9.6116819" lon="-75.5036185"><ele>13.166666666666666</ele><time>2026-04-18T14:36:48.679Z</time></trkpt><trkpt lat="9.6117645" lon="-75.5036252"><ele>13.0</ele><time>2026-04-18T14:36:49.68Z</time></trkpt><trkpt lat="9.6118504" lon="-75.5036357"><ele>12.999999999999998</ele><time>2026-04-18T14:36:50.679Z</time></trkpt><trkpt lat="9.611938" lon="-75.5036436"><ele>13.0</ele><time>2026-04-18T14:36:51.678Z</time></trkpt><trkpt lat="9.6120224" lon="-75.5036519"><ele>13.0</ele><time>2026-04-18T14:36:52.677Z</time></trkpt><trkpt lat="9.6121068" lon="-75.5036638"><ele>13.0</ele><time>2026-04-18T14:36:53.675Z</time></trkpt><trkpt lat="9.6121862" lon="-75.5036735"><ele>12.999999999999998</ele><time>2026-04-18T14:36:54.674Z</time></trkpt><trkpt lat="9.6122694" lon="-75.5036852"><ele>13.0</ele><time>2026-04-18T14:36:55.671Z</time></trkpt><trkpt lat="9.6123538" lon="-75.5036994"><ele>12.833333333333332</ele><time>2026-04-18T14:36:56.675Z</time></trkpt><trkpt lat="9.6124387" lon="-75.5037118"><ele>12.666666666666666</ele><time>2026-04-18T14:36:57.67Z</time></trkpt><trkpt lat="9.6125211" lon="-75.5037278"><ele>12.5</ele><time>2026-04-18T14:36:58.677Z</time></trkpt><trkpt lat="9.6126044" lon="-75.5037445"><ele>12.333333333333332</ele><time>2026-04-18T14:36:59.676Z</time></trkpt><trkpt lat="9.6126867" lon="-75.5037588"><ele>12.166666666666666</ele><time>2026-04-18T14:37:00.678Z</time></trkpt><trkpt lat="9.6127706" lon="-75.5037788"><ele>12.0</ele><time>2026-04-18T14:37:01.68Z</time></trkpt><trkpt lat="9.6128557" lon="-75.503796"><ele>12.333333333333334</ele><time>2026-04-18T14:37:02.676Z</time></trkpt><trkpt lat="9.6129371" lon="-75.5038103"><ele>12.666666666666668</ele><time>2026-04-18T14:37:03.678Z</time></trkpt><trkpt lat="9.6130205" lon="-75.5038263"><ele>13.0</ele><time>2026-04-18T14:37:04.682Z</time></trkpt><trkpt lat="9.6131012" lon="-75.5038479"><ele>13.333333333333334</ele><time>2026-04-18T14:37:05.679Z</time></trkpt><trkpt lat="9.6131793" lon="-75.5038668"><ele>13.666666666666668</ele><time>2026-04-18T14:37:06.674Z</time></trkpt><trkpt lat="9.6132601" lon="-75.5038834"><ele>14.0</ele><time>2026-04-18T14:37:07.676Z</time></trkpt><trkpt lat="9.6133375" lon="-75.5038997"><ele>14.000000000000002</ele><time>2026-04-18T14:37:08.679Z</time></trkpt><trkpt lat="9.6134154" lon="-75.5039201"><ele>14.0</ele><time>2026-04-18T14:37:09.679Z</time></trkpt><trkpt lat="9.6134994" lon="-75.5039362"><ele>14.0</ele><time>2026-04-18T14:37:10.678Z</time></trkpt><trkpt lat="9.6135863" lon="-75.5039553"><ele>14.0</ele><time>2026-04-18T14:37:11.67Z</time></trkpt><trkpt lat="9.6136682" lon="-75.5039746"><ele>14.000000000000002</ele><time>2026-04-18T14:37:12.672Z</time></trkpt><trkpt lat="9.6137542" lon="-75.5039942"><ele>14.0</ele><time>2026-04-18T14:37:13.673Z</time></trkpt><trkpt lat="9.6138372" lon="-75.5040124"><ele>13.666666666666668</ele><time>2026-04-18T14:37:14.676Z</time></trkpt><trkpt lat="9.6139194" lon="-75.5040299"><ele>13.333333333333334</ele><time>2026-04-18T14:37:15.674Z</time></trkpt><trkpt lat="9.6139994" lon="-75.504046"><ele>13.0</ele><time>2026-04-18T14:37:16.677Z</time></trkpt><trkpt lat="9.6140788" lon="-75.5040612"><ele>12.666666666666668</ele><time>2026-04-18T14:37:17.672Z</time></trkpt><trkpt lat="9.6141612" lon="-75.5040772"><ele>12.333333333333334</ele><time>2026-04-18T14:37:18.674Z</time></trkpt><trkpt lat="9.6142521" lon="-75.5040896"><ele>12.0</ele><time>2026-04-18T14:37:19.674Z</time></trkpt><trkpt lat="9.6143397" lon="-75.5041012"><ele>12.0</ele><time>2026-04-18T14:37:20.676Z</time></trkpt><trkpt lat="9.6144225" lon="-75.5041116"><ele>12.0</ele><time>2026-04-18T14:37:21.672Z</time></trkpt><trkpt lat="9.6145071" lon="-75.5041226"><ele>12.0</ele><time>2026-04-18T14:37:22.675Z</time></trkpt><trkpt lat="9.6145886" lon="-75.5041273"><ele>12.0</ele><time>2026-04-18T14:37:23.672Z</time></trkpt><trkpt lat="9.6146734" lon="-75.5041277"><ele>12.0</ele><time>2026-04-18T14:37:24.675Z</time></trkpt><trkpt lat="9.6147546" lon="-75.5041271"><ele>12.0</ele><time>2026-04-18T14:37:25.673Z</time></trkpt><trkpt lat="9.6148378" lon="-75.5041229"><ele>12.166666666666666</ele><time>2026-04-18T14:37:26.674Z</time></trkpt><trkpt lat="9.6149212" lon="-75.5041229"><ele>12.333333333333332</ele><time>2026-04-18T14:37:27.674Z</time></trkpt><trkpt lat="9.6150041" lon="-75.5041179"><ele>12.5</ele><time>2026-04-18T14:37:28.676Z</time></trkpt><trkpt lat="9.6150858" lon="-75.5041104"><ele>12.666666666666666</ele><time>2026-04-18T14:37:29.673Z</time></trkpt><trkpt lat="9.6151646" lon="-75.5041002"><ele>12.833333333333332</ele><time>2026-04-18T14:37:30.675Z</time></trkpt><trkpt lat="9.6152467" lon="-75.5040848"><ele>13.0</ele><time>2026-04-18T14:37:31.674Z</time></trkpt><trkpt lat="9.6153279" lon="-75.504068"><ele>13.166666666666666</ele><time>2026-04-18T14:37:32.68Z</time></trkpt><trkpt lat="9.6154089" lon="-75.5040492"><ele>13.333333333333332</ele><time>2026-04-18T14:37:33.674Z</time></trkpt><trkpt lat="9.6154888" lon="-75.5040334"><ele>13.5</ele><time>2026-04-18T14:37:34.674Z</time></trkpt><trkpt lat="9.6155677" lon="-75.5040118"><ele>13.666666666666668</ele><time>2026-04-18T14:37:35.674Z</time></trkpt><trkpt lat="9.6156468" lon="-75.5039898"><ele>13.833333333333334</ele><time>2026-04-18T14:37:36.678Z</time></trkpt><trkpt lat="9.6157269" lon="-75.5039689"><ele>14.0</ele><time>2026-04-18T14:37:37.679Z</time></trkpt><trkpt lat="9.6158061" lon="-75.5039462"><ele>14.000000000000002</ele><time>2026-04-18T14:37:38.679Z</time></trkpt><trkpt lat="9.6158828" lon="-75.5039259"><ele>14.0</ele><time>2026-04-18T14:37:39.678Z</time></trkpt><trkpt lat="9.6159569" lon="-75.5039058"><ele>14.0</ele><time>2026-04-18T14:37:40.677Z</time></trkpt><trkpt lat="9.6160353" lon="-75.5038844"><ele>14.0</ele><time>2026-04-18T14:37:41.679Z</time></trkpt><trkpt lat="9.6161162" lon="-75.5038594"><ele>14.000000000000002</ele><time>2026-04-18T14:37:42.681Z</time></trkpt><trkpt lat="9.6161936" lon="-75.5038344"><ele>14.0</ele><time>2026-04-18T14:37:43.677Z</time></trkpt><trkpt lat="9.6162757" lon="-75.5038149"><ele>13.833333333333334</ele><time>2026-04-18T14:37:44.677Z</time></trkpt><trkpt lat="9.6163572" lon="-75.5037957"><ele>13.666666666666668</ele><time>2026-04-18T14:37:45.678Z</time></trkpt><trkpt lat="9.6164387" lon="-75.5037704"><ele>13.5</ele><time>2026-04-18T14:37:46.677Z</time></trkpt><trkpt lat="9.6165208" lon="-75.5037459"><ele>13.333333333333332</ele><time>2026-04-18T14:37:47.675Z</time></trkpt><trkpt lat="9.6166016" lon="-75.503725"><ele>13.166666666666666</ele><time>2026-04-18T14:37:48.683Z</time></trkpt><trkpt lat="9.6166867" lon="-75.5037003"><ele>13.0</ele><time>2026-04-18T14:37:49.678Z</time></trkpt><trkpt lat="9.6167723" lon="-75.5036785"><ele>12.999999999999998</ele><time>2026-04-18T14:37:50.675Z</time></trkpt><trkpt lat="9.6168564" lon="-75.5036556"><ele>13.0</ele><time>2026-04-18T14:37:51.679Z</time></trkpt><trkpt lat="9.6169426" lon="-75.5036339"><ele>13.0</ele><time>2026-04-18T14:37:52.682Z</time></trkpt><trkpt lat="9.6170293" lon="-75.5036163"><ele>13.0</ele><time>2026-04-18T14:37:53.676Z</time></trkpt><trkpt lat="9.6171138" lon="-75.5035979"><ele>12.999999999999998</ele><time>2026-04-18T14:37:54.675Z</time></trkpt><trkpt lat="9.6172038" lon="-75.5035811"><ele>13.0</ele><time>2026-04-18T14:37:55.676Z</time></trkpt><trkpt lat="9.6172945" lon="-75.503567"><ele>12.833333333333332</ele><time>2026-04-18T14:37:56.677Z</time></trkpt><trkpt lat="9.6173842" lon="-75.5035585"><ele>12.666666666666666</ele><time>2026-04-18T14:37:57.68Z</time></trkpt><trkpt lat="9.6174707" lon="-75.5035476"><ele>12.5</ele><time>2026-04-18T14:37:58.679Z</time></trkpt><trkpt lat="9.61756" lon="-75.5035391"><ele>12.333333333333332</ele><time>2026-04-18T14:37:59.677Z</time></trkpt><trkpt lat="9.6176457" lon="-75.5035387"><ele>12.166666666666666</ele><time>2026-04-18T14:38:00.678Z</time></trkpt><trkpt lat="9.617733" lon="-75.5035373"><ele>12.0</ele><time>2026-04-18T14:38:01.676Z</time></trkpt><trkpt lat="9.6178211" lon="-75.5035393"><ele>12.0</ele><time>2026-04-18T14:38:02.676Z</time></trkpt><trkpt lat="9.617905" lon="-75.5035439"><ele>12.0</ele><time>2026-04-18T14:38:03.675Z</time></trkpt><trkpt lat="9.6179944" lon="-75.5035503"><ele>12.0</ele><time>2026-04-18T14:38:04.675Z</time></trkpt><trkpt lat="9.6180808" lon="-75.503558"><ele>12.0</ele><time>2026-04-18T14:38:05.676Z</time></trkpt><trkpt lat="9.618168" lon="-75.5035736"><ele>12.0</ele><time>2026-04-18T14:38:06.677Z</time></trkpt><trkpt lat="9.6182537" lon="-75.5035872"><ele>12.0</ele><time>2026-04-18T14:38:07.679Z</time></trkpt><trkpt lat="9.6183422" lon="-75.5036055"><ele>12.0</ele><time>2026-04-18T14:38:08.678Z</time></trkpt><trkpt lat="9.6184326" lon="-75.5036288"><ele>12.0</ele><time>2026-04-18T14:38:09.673Z</time></trkpt><trkpt lat="9.6185191" lon="-75.503648"><ele>12.0</ele><time>2026-04-18T14:38:10.675Z</time></trkpt><trkpt lat="9.6186076" lon="-75.5036658"><ele>12.0</ele><time>2026-04-18T14:38:11.671Z</time></trkpt><trkpt lat="9.6186973" lon="-75.5036841"><ele>12.0</ele><time>2026-04-18T14:38:12.673Z</time></trkpt><trkpt lat="9.6187832" lon="-75.5037069"><ele>12.0</ele><time>2026-04-18T14:38:13.674Z</time></trkpt><trkpt lat="9.6188693" lon="-75.503729"><ele>12.0</ele><time>2026-04-18T14:38:14.673Z</time></trkpt><trkpt lat="9.6189526" lon="-75.5037478"><ele>12.0</ele><time>2026-04-18T14:38:15.678Z</time></trkpt><trkpt lat="9.6190341" lon="-75.5037669"><ele>12.0</ele><time>2026-04-18T14:38:16.681Z</time></trkpt><trkpt lat="9.6191142" lon="-75.5037812"><ele>12.0</ele><time>2026-04-18T14:38:17.677Z</time></trkpt><trkpt lat="9.6191958" lon="-75.503799"><ele>12.0</ele><time>2026-04-18T14:38:18.682Z</time></trkpt><trkpt lat="9.619281" lon="-75.5038246"><ele>12.0</ele><time>2026-04-18T14:38:19.68Z</time></trkpt><trkpt lat="9.619366" lon="-75.5038426"><ele>12.0</ele><time>2026-04-18T14:38:20.674Z</time></trkpt><trkpt lat="9.6194493" lon="-75.5038603"><ele>12.0</ele><time>2026-04-18T14:38:21.678Z</time></trkpt><trkpt lat="9.6195375" lon="-75.5038754"><ele>12.0</ele><time>2026-04-18T14:38:22.674Z</time></trkpt><trkpt lat="9.6196249" lon="-75.5038957"><ele>12.0</ele><time>2026-04-18T14:38:23.681Z</time></trkpt><trkpt lat="9.6197086" lon="-75.5039132"><ele>12.0</ele><time>2026-04-18T14:38:24.676Z</time></trkpt><trkpt lat="9.6197911" lon="-75.50393"><ele>12.333333333333334</ele><time>2026-04-18T14:38:25.676Z</time></trkpt><trkpt lat="9.6198698" lon="-75.5039393"><ele>12.666666666666668</ele><time>2026-04-18T14:38:26.677Z</time></trkpt><trkpt lat="9.6199545" lon="-75.5039512"><ele>13.0</ele><time>2026-04-18T14:38:27.675Z</time></trkpt><trkpt lat="9.6200391" lon="-75.503965"><ele>13.333333333333334</ele><time>2026-04-18T14:38:28.676Z</time></trkpt><trkpt lat="9.6201254" lon="-75.5039738"><ele>13.666666666666668</ele><time>2026-04-18T14:38:29.677Z</time></trkpt><trkpt lat="9.6202139" lon="-75.5039796"><ele>14.0</ele><time>2026-04-18T14:38:30.676Z</time></trkpt><trkpt lat="9.6203026" lon="-75.5039861"><ele>14.000000000000002</ele><time>2026-04-18T14:38:31.679Z</time></trkpt><trkpt lat="9.6203933" lon="-75.5039937"><ele>14.0</ele><time>2026-04-18T14:38:32.676Z</time></trkpt><trkpt lat="9.6204821" lon="-75.5039987"><ele>14.0</ele><time>2026-04-18T14:38:33.674Z</time></trkpt><trkpt lat="9.6205728" lon="-75.5040025"><ele>14.0</ele><time>2026-04-18T14:38:34.675Z</time></trkpt><trkpt lat="9.6206602" lon="-75.504004"><ele>14.000000000000002</ele><time>2026-04-18T14:38:35.678Z</time></trkpt><trkpt lat="9.620748" lon="-75.5040036"><ele>14.0</ele><time>2026-04-18T14:38:36.676Z</time></trkpt><trkpt lat="9.6208344" lon="-75.5040014"><ele>14.000000000000002</ele><time>2026-04-18T14:38:37.675Z</time></trkpt><trkpt lat="9.6209183" lon="-75.503998"><ele>14.0</ele><time>2026-04-18T14:38:38.673Z</time></trkpt><trkpt lat="9.6210019" lon="-75.5039918"><ele>14.0</ele><time>2026-04-18T14:38:39.67Z</time></trkpt><trkpt lat="9.621086" lon="-75.5039881"><ele>14.0</ele><time>2026-04-18T14:38:40.675Z</time></trkpt><trkpt lat="9.6211729" lon="-75.5039795"><ele>14.000000000000002</ele><time>2026-04-18T14:38:41.673Z</time></trkpt><trkpt lat="9.6212609" lon="-75.5039713"><ele>14.0</ele><time>2026-04-18T14:38:42.671Z</time></trkpt><trkpt lat="9.6213497" lon="-75.5039625"><ele>14.6</ele><time>2026-04-18T14:38:43.672Z</time></trkpt><trkpt lat="9.6214385" lon="-75.5039573"><ele>15.2</ele><time>2026-04-18T14:38:44.675Z</time></trkpt><trkpt lat="9.6215286" lon="-75.5039502"><ele>15.799999999999999</ele><time>2026-04-18T14:38:45.675Z</time></trkpt><trkpt lat="9.6216182" lon="-75.5039453"><ele>16.4</ele><time>2026-04-18T14:38:46.673Z</time></trkpt><trkpt lat="9.6217115" lon="-75.5039378"><ele>17.0</ele><time>2026-04-18T14:38:47.673Z</time></trkpt><trkpt lat="9.6218037" lon="-75.5039369"><ele>17.0</ele><time>2026-04-18T14:38:48.678Z</time></trkpt><trkpt lat="9.6218942" lon="-75.5039314"><ele>17.0</ele><time>2026-04-18T14:38:49.676Z</time></trkpt><trkpt lat="9.6219821" lon="-75.5039245"><ele>17.0</ele><time>2026-04-18T14:38:50.675Z</time></trkpt><trkpt lat="9.6220643" lon="-75.5039211"><ele>17.0</ele><time>2026-04-18T14:38:51.679Z</time></trkpt><trkpt lat="9.622151" lon="-75.5039176"><ele>17.0</ele><time>2026-04-18T14:38:52.675Z</time></trkpt><trkpt lat="9.622235" lon="-75.5039125"><ele>17.0</ele><time>2026-04-18T14:38:53.677Z</time></trkpt><trkpt lat="9.6223245" lon="-75.5039088"><ele>16.5</ele><time>2026-04-18T14:38:54.682Z</time></trkpt><trkpt lat="9.6224144" lon="-75.5039051"><ele>16.0</ele><time>2026-04-18T14:38:55.676Z</time></trkpt><trkpt lat="9.6225014" lon="-75.5039049"><ele>15.5</ele><time>2026-04-18T14:38:56.677Z</time></trkpt><trkpt lat="9.6225862" lon="-75.503902"><ele>15.0</ele><time>2026-04-18T14:38:57.677Z</time></trkpt><trkpt lat="9.622672" lon="-75.5038989"><ele>14.500000000000002</ele><time>2026-04-18T14:38:58.676Z</time></trkpt><trkpt lat="9.6227531" lon="-75.5038966"><ele>14.0</ele><time>2026-04-18T14:38:59.676Z</time></trkpt><trkpt lat="9.6228391" lon="-75.5038924"><ele>13.666666666666668</ele><time>2026-04-18T14:39:00.677Z</time></trkpt><trkpt lat="9.6229256" lon="-75.5038935"><ele>13.333333333333334</ele><time>2026-04-18T14:39:01.678Z</time></trkpt><trkpt lat="9.6230126" lon="-75.5038907"><ele>13.0</ele><time>2026-04-18T14:39:02.683Z</time></trkpt><trkpt lat="9.6230996" lon="-75.5038895"><ele>12.666666666666668</ele><time>2026-04-18T14:39:03.68Z</time></trkpt><trkpt lat="9.6231823" lon="-75.5038932"><ele>12.333333333333334</ele><time>2026-04-18T14:39:04.678Z</time></trkpt><trkpt lat="9.6232648" lon="-75.5038929"><ele>12.0</ele><time>2026-04-18T14:39:05.681Z</time></trkpt><trkpt lat="9.6233464" lon="-75.5038875"><ele>12.0</ele><time>2026-04-18T14:39:06.671Z</time></trkpt><trkpt lat="9.623429" lon="-75.5038826"><ele>12.0</ele><time>2026-04-18T14:39:07.677Z</time></trkpt><trkpt lat="9.6235146" lon="-75.5038775"><ele>12.0</ele><time>2026-04-18T14:39:08.678Z</time></trkpt><trkpt lat="9.6235972" lon="-75.5038729"><ele>12.0</ele><time>2026-04-18T14:39:09.673Z</time></trkpt><trkpt lat="9.6236829" lon="-75.5038681"><ele>12.0</ele><time>2026-04-18T14:39:10.676Z</time></trkpt><trkpt lat="9.6237683" lon="-75.5038616"><ele>12.0</ele><time>2026-04-18T14:39:11.677Z</time></trkpt><trkpt lat="9.6238509" lon="-75.5038561"><ele>12.5</ele><time>2026-04-18T14:39:12.677Z</time></trkpt><trkpt lat="9.6239328" lon="-75.5038533"><ele>13.0</ele><time>2026-04-18T14:39:13.674Z</time></trkpt><trkpt lat="9.6240163" lon="-75.5038501"><ele>13.5</ele><time>2026-04-18T14:39:14.674Z</time></trkpt><trkpt lat="9.6241002" lon="-75.5038466"><ele>14.0</ele><time>2026-04-18T14:39:15.676Z</time></trkpt><trkpt lat="9.6241875" lon="-75.5038472"><ele>14.5</ele><time>2026-04-18T14:39:16.672Z</time></trkpt><trkpt lat="9.6242758" lon="-75.503844"><ele>15.0</ele><time>2026-04-18T14:39:17.674Z</time></trkpt><trkpt lat="9.6243573" lon="-75.5038431"><ele>15.0</ele><time>2026-04-18T14:39:18.674Z</time></trkpt><trkpt lat="9.6244456" lon="-75.5038436"><ele>15.0</ele><time>2026-04-18T14:39:19.674Z</time></trkpt><trkpt lat="9.6245337" lon="-75.5038392"><ele>15.0</ele><time>2026-04-18T14:39:20.682Z</time></trkpt><trkpt lat="9.6246171" lon="-75.503835"><ele>15.0</ele><time>2026-04-18T14:39:21.676Z</time></trkpt><trkpt lat="9.6247023" lon="-75.5038297"><ele>15.0</ele><time>2026-04-18T14:39:22.677Z</time></trkpt><trkpt lat="9.6247836" lon="-75.5038247"><ele>15.0</ele><time>2026-04-18T14:39:23.676Z</time></trkpt><trkpt lat="9.6248704" lon="-75.5038239"><ele>14.666666666666666</ele><time>2026-04-18T14:39:24.676Z</time></trkpt><trkpt lat="9.6249518" lon="-75.5038143"><ele>14.333333333333332</ele><time>2026-04-18T14:39:25.677Z</time></trkpt><trkpt lat="9.6250365" lon="-75.5038098"><ele>14.0</ele><time>2026-04-18T14:39:26.679Z</time></trkpt><trkpt lat="9.6251231" lon="-75.5038045"><ele>13.666666666666666</ele><time>2026-04-18T14:39:27.675Z</time></trkpt><trkpt lat="9.6252102" lon="-75.5038038"><ele>13.333333333333332</ele><time>2026-04-18T14:39:28.681Z</time></trkpt><trkpt lat="9.6252925" lon="-75.5037986"><ele>13.0</ele><time>2026-04-18T14:39:29.68Z</time></trkpt><trkpt lat="9.6253811" lon="-75.5037944"><ele>12.833333333333332</ele><time>2026-04-18T14:39:30.673Z</time></trkpt><trkpt lat="9.6254667" lon="-75.5037898"><ele>12.666666666666666</ele><time>2026-04-18T14:39:31.673Z</time></trkpt><trkpt lat="9.6255525" lon="-75.5037873"><ele>12.5</ele><time>2026-04-18T14:39:32.676Z</time></trkpt><trkpt lat="9.6256397" lon="-75.5037847"><ele>12.333333333333332</ele><time>2026-04-18T14:39:33.674Z</time></trkpt><trkpt lat="9.6257292" lon="-75.5037786"><ele>12.166666666666666</ele><time>2026-04-18T14:39:34.675Z</time></trkpt><trkpt lat="9.6258119" lon="-75.5037749"><ele>12.0</ele><time>2026-04-18T14:39:35.683Z</time></trkpt><trkpt lat="9.6258983" lon="-75.5037682"><ele>12.0</ele><time>2026-04-18T14:39:36.677Z</time></trkpt><trkpt lat="9.6259926" lon="-75.5037671"><ele>12.0</ele><time>2026-04-18T14:39:37.676Z</time></trkpt><trkpt lat="9.6260828" lon="-75.5037596"><ele>12.0</ele><time>2026-04-18T14:39:38.677Z</time></trkpt><trkpt lat="9.6261691" lon="-75.5037573"><ele>12.0</ele><time>2026-04-18T14:39:39.679Z</time></trkpt><trkpt lat="9.626257" lon="-75.5037536"><ele>12.0</ele><time>2026-04-18T14:39:40.674Z</time></trkpt><trkpt lat="9.626343" lon="-75.5037531"><ele>12.0</ele><time>2026-04-18T14:39:41.677Z</time></trkpt><trkpt lat="9.6264289" lon="-75.5037504"><ele>11.833333333333334</ele><time>2026-04-18T14:39:42.677Z</time></trkpt><trkpt lat="9.6265139" lon="-75.5037453"><ele>11.666666666666666</ele><time>2026-04-18T14:39:43.676Z</time></trkpt><trkpt lat="9.6265973" lon="-75.5037472"><ele>11.5</ele><time>2026-04-18T14:39:44.677Z</time></trkpt><trkpt lat="9.6266823" lon="-75.5037461"><ele>11.333333333333332</ele><time>2026-04-18T14:39:45.679Z</time></trkpt><trkpt lat="9.6267671" lon="-75.5037413"><ele>11.166666666666666</ele><time>2026-04-18T14:39:46.678Z</time></trkpt><trkpt lat="9.626854" lon="-75.5037409"><ele>11.0</ele><time>2026-04-18T14:39:47.676Z</time></trkpt><trkpt lat="9.6269388" lon="-75.5037367"><ele>11.0</ele><time>2026-04-18T14:39:48.675Z</time></trkpt><trkpt lat="9.6270228" lon="-75.503737"><ele>11.0</ele><time>2026-04-18T14:39:49.671Z</time></trkpt><trkpt lat="9.627107" lon="-75.5037357"><ele>11.0</ele><time>2026-04-18T14:39:50.676Z</time></trkpt><trkpt lat="9.6271942" lon="-75.5037342"><ele>11.0</ele><time>2026-04-18T14:39:51.672Z</time></trkpt><trkpt lat="9.6272798" lon="-75.5037349"><ele>11.0</ele><time>2026-04-18T14:39:52.676Z</time></trkpt><trkpt lat="9.6273659" lon="-75.5037327"><ele>11.0</ele><time>2026-04-18T14:39:53.674Z</time></trkpt><trkpt lat="9.6274525" lon="-75.5037319"><ele>11.0</ele><time>2026-04-18T14:39:54.674Z</time></trkpt><trkpt lat="9.6275397" lon="-75.5037283"><ele>11.0</ele><time>2026-04-18T14:39:55.677Z</time></trkpt><trkpt lat="9.6276266" lon="-75.5037288"><ele>11.0</ele><time>2026-04-18T14:39:56.676Z</time></trkpt><trkpt lat="9.6277129" lon="-75.5037331"><ele>11.0</ele><time>2026-04-18T14:39:57.676Z</time></trkpt><trkpt lat="9.6277986" lon="-75.5037336"><ele>11.0</ele><time>2026-04-18T14:39:58.679Z</time></trkpt><trkpt lat="9.6278835" lon="-75.5037339"><ele>11.0</ele><time>2026-04-18T14:39:59.674Z</time></trkpt><trkpt lat="9.6279675" lon="-75.5037353"><ele>11.166666666666666</ele><time>2026-04-18T14:40:00.68Z</time></trkpt><trkpt lat="9.6280532" lon="-75.5037355"><ele>11.333333333333332</ele><time>2026-04-18T14:40:01.681Z</time></trkpt><trkpt lat="9.628137" lon="-75.5037333"><ele>11.5</ele><time>2026-04-18T14:40:02.678Z</time></trkpt><trkpt lat="9.6282245" lon="-75.5037353"><ele>11.666666666666666</ele><time>2026-04-18T14:40:03.679Z</time></trkpt><trkpt lat="9.6283081" lon="-75.5037371"><ele>11.833333333333334</ele><time>2026-04-18T14:40:04.678Z</time></trkpt><trkpt lat="9.6283963" lon="-75.5037384"><ele>12.0</ele><time>2026-04-18T14:40:05.672Z</time></trkpt><trkpt lat="9.6284825" lon="-75.5037399"><ele>12.0</ele><time>2026-04-18T14:40:06.673Z</time></trkpt><trkpt lat="9.6285725" lon="-75.5037398"><ele>12.0</ele><time>2026-04-18T14:40:07.673Z</time></trkpt><trkpt lat="9.6286527" lon="-75.5037359"><ele>12.0</ele><time>2026-04-18T14:40:08.673Z</time></trkpt><trkpt lat="9.6287383" lon="-75.503736"><ele>12.0</ele><time>2026-04-18T14:40:09.674Z</time></trkpt><trkpt lat="9.6288251" lon="-75.5037359"><ele>12.0</ele><time>2026-04-18T14:40:10.673Z</time></trkpt><trkpt lat="9.6289092" lon="-75.5037388"><ele>12.0</ele><time>2026-04-18T14:40:11.677Z</time></trkpt><trkpt lat="9.6289925" lon="-75.5037418"><ele>12.166666666666666</ele><time>2026-04-18T14:40:12.675Z</time></trkpt><trkpt lat="9.6290757" lon="-75.5037429"><ele>12.333333333333332</ele><time>2026-04-18T14:40:13.675Z</time></trkpt><trkpt lat="9.6291569" lon="-75.5037439"><ele>12.5</ele><time>2026-04-18T14:40:14.674Z</time></trkpt><trkpt lat="9.6292416" lon="-75.5037419"><ele>12.666666666666666</ele><time>2026-04-18T14:40:15.677Z</time></trkpt><trkpt lat="9.6293213" lon="-75.5037427"><ele>12.833333333333332</ele><time>2026-04-18T14:40:16.683Z</time></trkpt><trkpt lat="9.6294081" lon="-75.5037466"><ele>13.0</ele><time>2026-04-18T14:40:17.674Z</time></trkpt><trkpt lat="9.6294916" lon="-75.5037501"><ele>13.499999999999998</ele><time>2026-04-18T14:40:18.678Z</time></trkpt><trkpt lat="9.6295748" lon="-75.5037507"><ele>14.0</ele><time>2026-04-18T14:40:19.676Z</time></trkpt><trkpt lat="9.6296584" lon="-75.5037525"><ele>14.5</ele><time>2026-04-18T14:40:20.675Z</time></trkpt><trkpt lat="9.6297389" lon="-75.5037545"><ele>15.0</ele><time>2026-04-18T14:40:21.68Z</time></trkpt><trkpt lat="9.6298224" lon="-75.5037564"><ele>15.499999999999998</ele><time>2026-04-18T14:40:22.677Z</time></trkpt><trkpt lat="9.6299051" lon="-75.5037612"><ele>16.0</ele><time>2026-04-18T14:40:23.673Z</time></trkpt><trkpt lat="9.629987" lon="-75.5037607"><ele>15.999999999999998</ele><time>2026-04-18T14:40:24.674Z</time></trkpt><trkpt lat="9.6300692" lon="-75.5037615"><ele>16.0</ele><time>2026-04-18T14:40:25.678Z</time></trkpt><trkpt lat="9.6301534" lon="-75.5037647"><ele>16.0</ele><time>2026-04-18T14:40:26.675Z</time></trkpt><trkpt lat="9.6302382" lon="-75.5037681"><ele>16.0</ele><time>2026-04-18T14:40:27.676Z</time></trkpt><trkpt lat="9.6303222" lon="-75.5037696"><ele>15.999999999999998</ele><time>2026-04-18T14:40:28.681Z</time></trkpt><trkpt lat="9.6304008" lon="-75.5037714"><ele>16.0</ele><time>2026-04-18T14:40:29.677Z</time></trkpt><trkpt lat="9.6304856" lon="-75.5037743"><ele>15.999999999999998</ele><time>2026-04-18T14:40:30.677Z</time></trkpt><trkpt lat="9.6305688" lon="-75.5037728"><ele>16.0</ele><time>2026-04-18T14:40:31.675Z</time></trkpt><trkpt lat="9.6306512" lon="-75.5037769"><ele>16.0</ele><time>2026-04-18T14:40:32.676Z</time></trkpt><trkpt lat="9.6307307" lon="-75.5037799"><ele>16.0</ele><time>2026-04-18T14:40:33.675Z</time></trkpt><trkpt lat="9.6308092" lon="-75.5037814"><ele>15.999999999999998</ele><time>2026-04-18T14:40:34.676Z</time></trkpt><trkpt lat="9.6308876" lon="-75.5037856"><ele>16.0</ele><time>2026-04-18T14:40:35.676Z</time></trkpt><trkpt lat="9.630968" lon="-75.5037875"><ele>15.999999999999998</ele><time>2026-04-18T14:40:36.673Z</time></trkpt><trkpt lat="9.6310504" lon="-75.5037872"><ele>16.0</ele><time>2026-04-18T14:40:37.677Z</time></trkpt><trkpt lat="9.6311297" lon="-75.5037899"><ele>16.0</ele><time>2026-04-18T14:40:38.677Z</time></trkpt><trkpt lat="9.6312121" lon="-75.5037898"><ele>16.0</ele><time>2026-04-18T14:40:39.678Z</time></trkpt><trkpt lat="9.6312912" lon="-75.5037894"><ele>15.999999999999998</ele><time>2026-04-18T14:40:40.676Z</time></trkpt><trkpt lat="9.6313715" lon="-75.5037913"><ele>16.0</ele><time>2026-04-18T14:40:41.675Z</time></trkpt><trkpt lat="9.6314545" lon="-75.5037939"><ele>15.666666666666666</ele><time>2026-04-18T14:40:42.679Z</time></trkpt><trkpt lat="9.6315399" lon="-75.5038003"><ele>15.333333333333332</ele><time>2026-04-18T14:40:43.68Z</time></trkpt><trkpt lat="9.6316198" lon="-75.5038057"><ele>15.0</ele><time>2026-04-18T14:40:44.673Z</time></trkpt><trkpt lat="9.6317043" lon="-75.5038137"><ele>14.666666666666668</ele><time>2026-04-18T14:40:45.676Z</time></trkpt><trkpt lat="9.6317875" lon="-75.5038126"><ele>14.333333333333334</ele><time>2026-04-18T14:40:46.676Z</time></trkpt><trkpt lat="9.631871" lon="-75.503811"><ele>14.0</ele><time>2026-04-18T14:40:47.675Z</time></trkpt><trkpt lat="9.6319524" lon="-75.5038094"><ele>13.833333333333334</ele><time>2026-04-18T14:40:48.677Z</time></trkpt><trkpt lat="9.6320309" lon="-75.5038135"><ele>13.666666666666668</ele><time>2026-04-18T14:40:49.681Z</time></trkpt><trkpt lat="9.6321135" lon="-75.5038151"><ele>13.5</ele><time>2026-04-18T14:40:50.677Z</time></trkpt><trkpt lat="9.632195" lon="-75.5038173"><ele>13.333333333333332</ele><time>2026-04-18T14:40:51.676Z</time></trkpt><trkpt lat="9.6322779" lon="-75.5038172"><ele>13.166666666666666</ele><time>2026-04-18T14:40:52.677Z</time></trkpt><trkpt lat="9.6323577" lon="-75.5038219"><ele>13.0</ele><time>2026-04-18T14:40:53.675Z</time></trkpt><trkpt lat="9.6324406" lon="-75.5038255"><ele>12.999999999999998</ele><time>2026-04-18T14:40:54.676Z</time></trkpt><trkpt lat="9.6325235" lon="-75.5038288"><ele>13.0</ele><time>2026-04-18T14:40:55.674Z</time></trkpt><trkpt lat="9.632609" lon="-75.503829"><ele>13.0</ele><time>2026-04-18T14:40:56.672Z</time></trkpt><trkpt lat="9.6326956" lon="-75.5038283"><ele>13.0</ele><time>2026-04-18T14:40:57.673Z</time></trkpt><trkpt lat="9.6327805" lon="-75.503831"><ele>12.999999999999998</ele><time>2026-04-18T14:40:58.673Z</time></trkpt><trkpt lat="9.6328664" lon="-75.5038347"><ele>13.0</ele><time>2026-04-18T14:40:59.675Z</time></trkpt><trkpt lat="9.6329507" lon="-75.5038356"><ele>12.833333333333332</ele><time>2026-04-18T14:41:00.675Z</time></trkpt><trkpt lat="9.6330389" lon="-75.5038413"><ele>12.666666666666666</ele><time>2026-04-18T14:41:01.672Z</time></trkpt><trkpt lat="9.6331223" lon="-75.5038441"><ele>12.5</ele><time>2026-04-18T14:41:02.675Z</time></trkpt><trkpt lat="9.633206" lon="-75.5038465"><ele>12.333333333333332</ele><time>2026-04-18T14:41:03.675Z</time></trkpt><trkpt lat="9.6332865" lon="-75.5038488"><ele>12.166666666666666</ele><time>2026-04-18T14:41:04.677Z</time></trkpt><trkpt lat="9.6333673" lon="-75.5038533"><ele>12.0</ele><time>2026-04-18T14:41:05.678Z</time></trkpt><trkpt lat="9.6334493" lon="-75.5038553"><ele>12.0</ele><time>2026-04-18T14:41:06.681Z</time></trkpt><trkpt lat="9.6335312" lon="-75.503856"><ele>12.0</ele><time>2026-04-18T14:41:07.68Z</time></trkpt><trkpt lat="9.6336163" lon="-75.5038552"><ele>12.0</ele><time>2026-04-18T14:41:08.679Z</time></trkpt><trkpt lat="9.6336983" lon="-75.503857"><ele>12.0</ele><time>2026-04-18T14:41:09.682Z</time></trkpt><trkpt lat="9.6337805" lon="-75.5038587"><ele>12.0</ele><time>2026-04-18T14:41:10.677Z</time></trkpt><trkpt lat="9.633864" lon="-75.5038627"><ele>12.0</ele><time>2026-04-18T14:41:11.676Z</time></trkpt><trkpt lat="9.6339438" lon="-75.503865"><ele>12.0</ele><time>2026-04-18T14:41:12.671Z</time></trkpt><trkpt lat="9.6340265" lon="-75.5038682"><ele>12.0</ele><time>2026-04-18T14:41:13.678Z</time></trkpt><trkpt lat="9.6341074" lon="-75.5038691"><ele>12.0</ele><time>2026-04-18T14:41:14.676Z</time></trkpt><trkpt lat="9.6341892" lon="-75.5038709"><ele>12.0</ele><time>2026-04-18T14:41:15.678Z</time></trkpt><trkpt lat="9.6342724" lon="-75.5038687"><ele>12.0</ele><time>2026-04-18T14:41:16.67Z</time></trkpt><trkpt lat="9.6343577" lon="-75.5038659"><ele>12.0</ele><time>2026-04-18T14:41:17.674Z</time></trkpt><trkpt lat="9.6344401" lon="-75.5038603"><ele>12.0</ele><time>2026-04-18T14:41:18.672Z</time></trkpt><trkpt lat="9.6345216" lon="-75.5038507"><ele>12.0</ele><time>2026-04-18T14:41:19.678Z</time></trkpt><trkpt lat="9.6346004" lon="-75.5038429"><ele>12.0</ele><time>2026-04-18T14:41:20.674Z</time></trkpt><trkpt lat="9.6346816" lon="-75.5038355"><ele>12.0</ele><time>2026-04-18T14:41:21.674Z</time></trkpt><trkpt lat="9.6347604" lon="-75.5038285"><ele>12.0</ele><time>2026-04-18T14:41:22.674Z</time></trkpt><trkpt lat="9.634844" lon="-75.5038188"><ele>12.0</ele><time>2026-04-18T14:41:23.678Z</time></trkpt><trkpt lat="9.6349273" lon="-75.5038099"><ele>12.0</ele><time>2026-04-18T14:41:24.678Z</time></trkpt><trkpt lat="9.6350096" lon="-75.5037976"><ele>12.0</ele><time>2026-04-18T14:41:25.68Z</time></trkpt><trkpt lat="9.6350917" lon="-75.5037846"><ele>12.0</ele><time>2026-04-18T14:41:26.675Z</time></trkpt><trkpt lat="9.6351744" lon="-75.5037697"><ele>12.0</ele><time>2026-04-18T14:41:27.675Z</time></trkpt><trkpt lat="9.6352541" lon="-75.5037546"><ele>12.0</ele><time>2026-04-18T14:41:28.679Z</time></trkpt><trkpt lat="9.6353285" lon="-75.5037352"><ele>12.0</ele><time>2026-04-18T14:41:29.677Z</time></trkpt><trkpt lat="9.6354058" lon="-75.5037187"><ele>12.5</ele><time>2026-04-18T14:41:30.675Z</time></trkpt><trkpt lat="9.635486" lon="-75.5036986"><ele>13.0</ele><time>2026-04-18T14:41:31.676Z</time></trkpt><trkpt lat="9.6355641" lon="-75.5036798"><ele>13.5</ele><time>2026-04-18T14:41:32.675Z</time></trkpt><trkpt lat="9.6356429" lon="-75.5036564"><ele>14.0</ele><time>2026-04-18T14:41:33.676Z</time></trkpt><trkpt lat="9.6357196" lon="-75.5036301"><ele>14.5</ele><time>2026-04-18T14:41:34.676Z</time></trkpt><trkpt lat="9.6357985" lon="-75.5036046"><ele>15.0</ele><time>2026-04-18T14:41:35.674Z</time></trkpt><trkpt lat="9.6358766" lon="-75.5035765"><ele>15.0</ele><time>2026-04-18T14:41:36.676Z</time></trkpt><trkpt lat="9.6359557" lon="-75.503548"><ele>15.0</ele><time>2026-04-18T14:41:37.673Z</time></trkpt><trkpt lat="9.6360323" lon="-75.5035155"><ele>15.0</ele><time>2026-04-18T14:41:38.673Z</time></trkpt><trkpt lat="9.6361137" lon="-75.503485"><ele>15.0</ele><time>2026-04-18T14:41:39.673Z</time></trkpt><trkpt lat="9.636191" lon="-75.5034482"><ele>15.0</ele><time>2026-04-18T14:41:40.678Z</time></trkpt><trkpt lat="9.6362657" lon="-75.5034117"><ele>15.0</ele><time>2026-04-18T14:41:41.675Z</time></trkpt><trkpt lat="9.6363377" lon="-75.5033752"><ele>15.5</ele><time>2026-04-18T14:41:42.675Z</time></trkpt><trkpt lat="9.6364128" lon="-75.5033377"><ele>16.0</ele><time>2026-04-18T14:41:43.676Z</time></trkpt><trkpt lat="9.6364826" lon="-75.5032959"><ele>16.5</ele><time>2026-04-18T14:41:44.676Z</time></trkpt><trkpt lat="9.6365584" lon="-75.503257"><ele>17.0</ele><time>2026-04-18T14:41:45.674Z</time></trkpt><trkpt lat="9.6366248" lon="-75.5032111"><ele>17.5</ele><time>2026-04-18T14:41:46.677Z</time></trkpt><trkpt lat="9.6366923" lon="-75.5031671"><ele>18.0</ele><time>2026-04-18T14:41:47.674Z</time></trkpt><trkpt lat="9.636763" lon="-75.5031186"><ele>18.0</ele><time>2026-04-18T14:41:48.678Z</time></trkpt><trkpt lat="9.6368335" lon="-75.5030713"><ele>18.0</ele><time>2026-04-18T14:41:49.672Z</time></trkpt><trkpt lat="9.6369027" lon="-75.5030202"><ele>18.0</ele><time>2026-04-18T14:41:50.675Z</time></trkpt><trkpt lat="9.6369737" lon="-75.5029682"><ele>18.0</ele><time>2026-04-18T14:41:51.676Z</time></trkpt><trkpt lat="9.6370373" lon="-75.5029177"><ele>18.0</ele><time>2026-04-18T14:41:52.677Z</time></trkpt><trkpt lat="9.6371025" lon="-75.5028636"><ele>18.0</ele><time>2026-04-18T14:41:53.678Z</time></trkpt><trkpt lat="9.6371622" lon="-75.5028135"><ele>17.333333333333332</ele><time>2026-04-18T14:41:54.676Z</time></trkpt><trkpt lat="9.6372229" lon="-75.5027603"><ele>16.666666666666668</ele><time>2026-04-18T14:41:55.673Z</time></trkpt><trkpt lat="9.6372822" lon="-75.5027127"><ele>16.0</ele><time>2026-04-18T14:41:56.675Z</time></trkpt><trkpt lat="9.6373427" lon="-75.5026587"><ele>15.333333333333334</ele><time>2026-04-18T14:41:57.673Z</time></trkpt><trkpt lat="9.6374018" lon="-75.5026035"><ele>14.666666666666668</ele><time>2026-04-18T14:41:58.673Z</time></trkpt><trkpt lat="9.6374642" lon="-75.5025455"><ele>14.0</ele><time>2026-04-18T14:41:59.678Z</time></trkpt><trkpt lat="9.6375216" lon="-75.5024867"><ele>14.000000000000002</ele><time>2026-04-18T14:42:00.677Z</time></trkpt><trkpt lat="9.6375764" lon="-75.502425"><ele>14.0</ele><time>2026-04-18T14:42:01.678Z</time></trkpt><trkpt lat="9.6376309" lon="-75.502362"><ele>14.0</ele><time>2026-04-18T14:42:02.678Z</time></trkpt><trkpt lat="9.6376874" lon="-75.5023016"><ele>14.0</ele><time>2026-04-18T14:42:03.676Z</time></trkpt><trkpt lat="9.6377379" lon="-75.502238"><ele>14.000000000000002</ele><time>2026-04-18T14:42:04.68Z</time></trkpt><trkpt lat="9.6377847" lon="-75.5021739"><ele>14.0</ele><time>2026-04-18T14:42:05.678Z</time></trkpt><trkpt lat="9.6378369" lon="-75.5021082"><ele>14.500000000000002</ele><time>2026-04-18T14:42:06.674Z</time></trkpt><trkpt lat="9.6378843" lon="-75.5020443"><ele>15.0</ele><time>2026-04-18T14:42:07.671Z</time></trkpt><trkpt lat="9.6379336" lon="-75.501982"><ele>15.5</ele><time>2026-04-18T14:42:08.671Z</time></trkpt><trkpt lat="9.637979" lon="-75.5019195"><ele>16.0</ele><time>2026-04-18T14:42:09.675Z</time></trkpt><trkpt lat="9.6380279" lon="-75.5018569"><ele>16.5</ele><time>2026-04-18T14:42:10.68Z</time></trkpt><trkpt lat="9.6380747" lon="-75.5017886"><ele>17.0</ele><time>2026-04-18T14:42:11.677Z</time></trkpt><trkpt lat="9.6381185" lon="-75.5017151"><ele>17.0</ele><time>2026-04-18T14:42:12.677Z</time></trkpt><trkpt lat="9.6381632" lon="-75.5016471"><ele>17.0</ele><time>2026-04-18T14:42:13.682Z</time></trkpt><trkpt lat="9.6382062" lon="-75.5015735"><ele>17.0</ele><time>2026-04-18T14:42:14.675Z</time></trkpt><trkpt lat="9.6382476" lon="-75.5015014"><ele>17.0</ele><time>2026-04-18T14:42:15.672Z</time></trkpt><trkpt lat="9.6382853" lon="-75.5014292"><ele>17.0</ele><time>2026-04-18T14:42:16.676Z</time></trkpt><trkpt lat="9.6383241" lon="-75.501357"><ele>17.0</ele><time>2026-04-18T14:42:17.676Z</time></trkpt><trkpt lat="9.6383611" lon="-75.5012811"><ele>16.666666666666668</ele><time>2026-04-18T14:42:18.675Z</time></trkpt><trkpt lat="9.638396" lon="-75.5012025"><ele>16.333333333333336</ele><time>2026-04-18T14:42:19.675Z</time></trkpt><trkpt lat="9.6384287" lon="-75.5011269"><ele>16.0</ele><time>2026-04-18T14:42:20.677Z</time></trkpt><trkpt lat="9.6384618" lon="-75.5010526"><ele>15.666666666666668</ele><time>2026-04-18T14:42:21.678Z</time></trkpt><trkpt lat="9.6384891" lon="-75.5009771"><ele>15.333333333333334</ele><time>2026-04-18T14:42:22.676Z</time></trkpt><trkpt lat="9.6385163" lon="-75.5008994"><ele>15.0</ele><time>2026-04-18T14:42:23.673Z</time></trkpt><trkpt lat="9.6385476" lon="-75.5008241"><ele>15.0</ele><time>2026-04-18T14:42:24.671Z</time></trkpt><trkpt lat="9.6385756" lon="-75.5007528"><ele>15.0</ele><time>2026-04-18T14:42:25.672Z</time></trkpt><trkpt lat="9.638603" lon="-75.5006779"><ele>15.0</ele><time>2026-04-18T14:42:26.677Z</time></trkpt><trkpt lat="9.6386283" lon="-75.5006008"><ele>15.0</ele><time>2026-04-18T14:42:27.679Z</time></trkpt><trkpt lat="9.6386551" lon="-75.5005283"><ele>15.0</ele><time>2026-04-18T14:42:28.675Z</time></trkpt><trkpt lat="9.6386801" lon="-75.5004486"><ele>15.0</ele><time>2026-04-18T14:42:29.677Z</time></trkpt><trkpt lat="9.6387051" lon="-75.5003734"><ele>15.333333333333334</ele><time>2026-04-18T14:42:30.675Z</time></trkpt><trkpt lat="9.6387306" lon="-75.5003006"><ele>15.666666666666668</ele><time>2026-04-18T14:42:31.678Z</time></trkpt><trkpt lat="9.6387616" lon="-75.5002253"><ele>16.0</ele><time>2026-04-18T14:42:32.679Z</time></trkpt><trkpt lat="9.6387873" lon="-75.5001523"><ele>16.333333333333336</ele><time>2026-04-18T14:42:33.676Z</time></trkpt><trkpt lat="9.6388135" lon="-75.5000749"><ele>16.666666666666668</ele><time>2026-04-18T14:42:34.677Z</time></trkpt><trkpt lat="9.6388409" lon="-75.5000037"><ele>17.0</ele><time>2026-04-18T14:42:35.674Z</time></trkpt><trkpt lat="9.638865" lon="-75.4999301"><ele>17.0</ele><time>2026-04-18T14:42:36.682Z</time></trkpt><trkpt lat="9.6388862" lon="-75.4998577"><ele>17.0</ele><time>2026-04-18T14:42:37.677Z</time></trkpt><trkpt lat="9.6389114" lon="-75.4997836"><ele>17.0</ele><time>2026-04-18T14:42:38.677Z</time></trkpt><trkpt lat="9.638938" lon="-75.4997094"><ele>17.0</ele><time>2026-04-18T14:42:39.676Z</time></trkpt><trkpt lat="9.638962" lon="-75.4996361"><ele>17.0</ele><time>2026-04-18T14:42:40.676Z</time></trkpt><trkpt lat="9.638989" lon="-75.4995622"><ele>17.0</ele><time>2026-04-18T14:42:41.675Z</time></trkpt><trkpt lat="9.6390134" lon="-75.4994918"><ele>17.166666666666668</ele><time>2026-04-18T14:42:42.673Z</time></trkpt><trkpt lat="9.6390393" lon="-75.4994244"><ele>17.333333333333336</ele><time>2026-04-18T14:42:43.679Z</time></trkpt><trkpt lat="9.6390635" lon="-75.4993489"><ele>17.5</ele><time>2026-04-18T14:42:44.675Z</time></trkpt><trkpt lat="9.639096" lon="-75.4992772"><ele>17.666666666666668</ele><time>2026-04-18T14:42:45.68Z</time></trkpt><trkpt lat="9.6391205" lon="-75.4992038"><ele>17.833333333333332</ele><time>2026-04-18T14:42:46.673Z</time></trkpt><trkpt lat="9.6391438" lon="-75.4991293"><ele>18.0</ele><time>2026-04-18T14:42:47.676Z</time></trkpt><trkpt lat="9.6391649" lon="-75.4990574"><ele>18.0</ele><time>2026-04-18T14:42:48.672Z</time></trkpt><trkpt lat="9.6391872" lon="-75.4989882"><ele>18.0</ele><time>2026-04-18T14:42:49.674Z</time></trkpt><trkpt lat="9.6392135" lon="-75.4989129"><ele>18.0</ele><time>2026-04-18T14:42:50.676Z</time></trkpt><trkpt lat="9.6392421" lon="-75.4988378"><ele>18.0</ele><time>2026-04-18T14:42:51.674Z</time></trkpt><trkpt lat="9.639269" lon="-75.4987667"><ele>18.0</ele><time>2026-04-18T14:42:52.676Z</time></trkpt><trkpt lat="9.6392922" lon="-75.4986938"><ele>18.0</ele><time>2026-04-18T14:42:53.676Z</time></trkpt><trkpt lat="9.6393162" lon="-75.498622"><ele>18.166666666666668</ele><time>2026-04-18T14:42:54.675Z</time></trkpt><trkpt lat="9.6393458" lon="-75.4985484"><ele>18.333333333333332</ele><time>2026-04-18T14:42:55.676Z</time></trkpt><trkpt lat="9.6393744" lon="-75.4984761"><ele>18.5</ele><time>2026-04-18T14:42:56.674Z</time></trkpt><trkpt lat="9.6394011" lon="-75.4984045"><ele>18.666666666666664</ele><time>2026-04-18T14:42:57.677Z</time></trkpt><trkpt lat="9.6394276" lon="-75.4983288"><ele>18.833333333333332</ele><time>2026-04-18T14:42:58.68Z</time></trkpt><trkpt lat="9.6394513" lon="-75.4982523"><ele>19.0</ele><time>2026-04-18T14:42:59.674Z</time></trkpt><trkpt lat="9.6394796" lon="-75.4981766"><ele>19.0</ele><time>2026-04-18T14:43:00.676Z</time></trkpt><trkpt lat="9.6395051" lon="-75.4980979"><ele>19.0</ele><time>2026-04-18T14:43:01.676Z</time></trkpt><trkpt lat="9.6395331" lon="-75.4980222"><ele>19.0</ele><time>2026-04-18T14:43:02.677Z</time></trkpt><trkpt lat="9.6395628" lon="-75.4979419"><ele>19.0</ele><time>2026-04-18T14:43:03.679Z</time></trkpt><trkpt lat="9.6395897" lon="-75.4978638"><ele>19.0</ele><time>2026-04-18T14:43:04.675Z</time></trkpt><trkpt lat="9.6396155" lon="-75.4977871"><ele>19.0</ele><time>2026-04-18T14:43:05.676Z</time></trkpt><trkpt lat="9.6396393" lon="-75.4977087"><ele>19.166666666666664</ele><time>2026-04-18T14:43:06.676Z</time></trkpt><trkpt lat="9.6396678" lon="-75.4976286"><ele>19.333333333333332</ele><time>2026-04-18T14:43:07.675Z</time></trkpt><trkpt lat="9.6396955" lon="-75.4975515"><ele>19.5</ele><time>2026-04-18T14:43:08.678Z</time></trkpt><trkpt lat="9.6397202" lon="-75.4974682"><ele>19.666666666666668</ele><time>2026-04-18T14:43:09.678Z</time></trkpt><trkpt lat="9.6397476" lon="-75.497387"><ele>19.833333333333336</ele><time>2026-04-18T14:43:10.675Z</time></trkpt><trkpt lat="9.6397734" lon="-75.4973089"><ele>20.0</ele><time>2026-04-18T14:43:11.677Z</time></trkpt><trkpt lat="9.6398045" lon="-75.4972321"><ele>20.0</ele><time>2026-04-18T14:43:12.672Z</time></trkpt><trkpt lat="9.6398317" lon="-75.497154"><ele>20.0</ele><time>2026-04-18T14:43:13.677Z</time></trkpt><trkpt lat="9.6398615" lon="-75.4970801"><ele>20.0</ele><time>2026-04-18T14:43:14.675Z</time></trkpt><trkpt lat="9.6398897" lon="-75.497006"><ele>20.0</ele><time>2026-04-18T14:43:15.677Z</time></trkpt><trkpt lat="9.6399175" lon="-75.4969299"><ele>20.0</ele><time>2026-04-18T14:43:16.675Z</time></trkpt><trkpt lat="9.6399464" lon="-75.4968543"><ele>20.0</ele><time>2026-04-18T14:43:17.676Z</time></trkpt><trkpt lat="9.6399754" lon="-75.4967819"><ele>20.0</ele><time>2026-04-18T14:43:18.672Z</time></trkpt><trkpt lat="9.640006" lon="-75.4967159"><ele>20.0</ele><time>2026-04-18T14:43:19.676Z</time></trkpt><trkpt lat="9.640045" lon="-75.4966474"><ele>20.0</ele><time>2026-04-18T14:43:20.673Z</time></trkpt><trkpt lat="9.6400802" lon="-75.4965744"><ele>20.0</ele><time>2026-04-18T14:43:21.676Z</time></trkpt><trkpt lat="9.6401176" lon="-75.496502"><ele>20.0</ele><time>2026-04-18T14:43:22.68Z</time></trkpt><trkpt lat="9.6401547" lon="-75.4964298"><ele>20.0</ele><time>2026-04-18T14:43:23.675Z</time></trkpt><trkpt lat="9.6401911" lon="-75.4963562"><ele>20.0</ele><time>2026-04-18T14:43:24.674Z</time></trkpt><trkpt lat="9.6402238" lon="-75.4962866"><ele>20.0</ele><time>2026-04-18T14:43:25.678Z</time></trkpt><trkpt lat="9.6402667" lon="-75.4962187"><ele>20.0</ele><time>2026-04-18T14:43:26.679Z</time></trkpt><trkpt lat="9.6403119" lon="-75.4961509"><ele>20.0</ele><time>2026-04-18T14:43:27.676Z</time></trkpt><trkpt lat="9.6403554" lon="-75.4960858"><ele>20.0</ele><time>2026-04-18T14:43:28.677Z</time></trkpt><trkpt lat="9.6403997" lon="-75.4960191"><ele>20.0</ele><time>2026-04-18T14:43:29.674Z</time></trkpt><trkpt lat="9.6404412" lon="-75.4959546"><ele>20.0</ele><time>2026-04-18T14:43:30.679Z</time></trkpt><trkpt lat="9.6404853" lon="-75.4958896"><ele>20.0</ele><time>2026-04-18T14:43:31.674Z</time></trkpt><trkpt lat="9.6405272" lon="-75.4958191"><ele>20.0</ele><time>2026-04-18T14:43:32.67Z</time></trkpt><trkpt lat="9.640571" lon="-75.4957525"><ele>20.0</ele><time>2026-04-18T14:43:33.671Z</time></trkpt><trkpt lat="9.640617" lon="-75.4956874"><ele>20.0</ele><time>2026-04-18T14:43:34.671Z</time></trkpt><trkpt lat="9.6406594" lon="-75.4956193"><ele>20.0</ele><time>2026-04-18T14:43:35.673Z</time></trkpt><trkpt lat="9.6407039" lon="-75.4955547"><ele>20.0</ele><time>2026-04-18T14:43:36.678Z</time></trkpt><trkpt lat="9.640745" lon="-75.4954904"><ele>20.0</ele><time>2026-04-18T14:43:37.676Z</time></trkpt><trkpt lat="9.6407894" lon="-75.4954258"><ele>20.0</ele><time>2026-04-18T14:43:38.677Z</time></trkpt><trkpt lat="9.6408364" lon="-75.4953636"><ele>20.0</ele><time>2026-04-18T14:43:39.676Z</time></trkpt><trkpt lat="9.6408833" lon="-75.495293"><ele>20.0</ele><time>2026-04-18T14:43:40.675Z</time></trkpt><trkpt lat="9.6409306" lon="-75.4952247"><ele>20.0</ele><time>2026-04-18T14:43:41.676Z</time></trkpt><trkpt lat="9.6409781" lon="-75.4951601"><ele>20.0</ele><time>2026-04-18T14:43:42.675Z</time></trkpt><trkpt lat="9.6410237" lon="-75.4950916"><ele>20.0</ele><time>2026-04-18T14:43:43.673Z</time></trkpt><trkpt lat="9.6410662" lon="-75.4950261"><ele>20.0</ele><time>2026-04-18T14:43:44.675Z</time></trkpt><trkpt lat="9.6411132" lon="-75.4949589"><ele>20.0</ele><time>2026-04-18T14:43:45.675Z</time></trkpt><trkpt lat="9.6411621" lon="-75.4948892"><ele>20.0</ele><time>2026-04-18T14:43:46.675Z</time></trkpt><trkpt lat="9.6412101" lon="-75.4948196"><ele>20.0</ele><time>2026-04-18T14:43:47.677Z</time></trkpt><trkpt lat="9.6412576" lon="-75.4947504"><ele>19.666666666666668</ele><time>2026-04-18T14:43:48.679Z</time></trkpt><trkpt lat="9.6413024" lon="-75.4946806"><ele>19.333333333333336</ele><time>2026-04-18T14:43:49.673Z</time></trkpt><trkpt lat="9.6413469" lon="-75.4946122"><ele>19.0</ele><time>2026-04-18T14:43:50.678Z</time></trkpt><trkpt lat="9.6413932" lon="-75.4945442"><ele>18.666666666666668</ele><time>2026-04-18T14:43:51.674Z</time></trkpt><trkpt lat="9.6414395" lon="-75.4944746"><ele>18.333333333333332</ele><time>2026-04-18T14:43:52.673Z</time></trkpt><trkpt lat="9.6414875" lon="-75.4944054"><ele>18.0</ele><time>2026-04-18T14:43:53.673Z</time></trkpt><trkpt lat="9.6415361" lon="-75.4943329"><ele>18.0</ele><time>2026-04-18T14:43:54.673Z</time></trkpt><trkpt lat="9.6415823" lon="-75.4942667"><ele>18.0</ele><time>2026-04-18T14:43:55.677Z</time></trkpt><trkpt lat="9.6416271" lon="-75.494197"><ele>18.0</ele><time>2026-04-18T14:43:56.68Z</time></trkpt><trkpt lat="9.6416709" lon="-75.4941259"><ele>18.0</ele><time>2026-04-18T14:43:57.677Z</time></trkpt><trkpt lat="9.6417158" lon="-75.4940549"><ele>18.0</ele><time>2026-04-18T14:43:58.679Z</time></trkpt><trkpt lat="9.6417601" lon="-75.4939826"><ele>18.0</ele><time>2026-04-18T14:43:59.676Z</time></trkpt><trkpt lat="9.6418072" lon="-75.4939116"><ele>18.0</ele><time>2026-04-18T14:44:00.677Z</time></trkpt><trkpt lat="9.6418537" lon="-75.4938376"><ele>18.0</ele><time>2026-04-18T14:44:01.679Z</time></trkpt><trkpt lat="9.6419033" lon="-75.4937675"><ele>18.0</ele><time>2026-04-18T14:44:02.676Z</time></trkpt><trkpt lat="9.6419512" lon="-75.4936965"><ele>18.0</ele><time>2026-04-18T14:44:03.676Z</time></trkpt><trkpt lat="9.6419978" lon="-75.493623"><ele>18.0</ele><time>2026-04-18T14:44:04.677Z</time></trkpt><trkpt lat="9.6420438" lon="-75.4935528"><ele>18.0</ele><time>2026-04-18T14:44:05.677Z</time></trkpt><trkpt lat="9.6420888" lon="-75.4934792"><ele>18.333333333333332</ele><time>2026-04-18T14:44:06.673Z</time></trkpt><trkpt lat="9.6421314" lon="-75.4934095"><ele>18.666666666666668</ele><time>2026-04-18T14:44:07.673Z</time></trkpt><trkpt lat="9.6421765" lon="-75.4933406"><ele>19.0</ele><time>2026-04-18T14:44:08.675Z</time></trkpt><trkpt lat="9.6422277" lon="-75.493273"><ele>19.333333333333336</ele><time>2026-04-18T14:44:09.677Z</time></trkpt><trkpt lat="9.6422741" lon="-75.4932043"><ele>19.666666666666668</ele><time>2026-04-18T14:44:10.675Z</time></trkpt><trkpt lat="9.6423208" lon="-75.4931367"><ele>20.0</ele><time>2026-04-18T14:44:11.68Z</time></trkpt><trkpt lat="9.6423664" lon="-75.4930703"><ele>20.0</ele><time>2026-04-18T14:44:12.673Z</time></trkpt><trkpt lat="9.6424102" lon="-75.4929989"><ele>20.0</ele><time>2026-04-18T14:44:13.673Z</time></trkpt><trkpt lat="9.6424589" lon="-75.492929"><ele>20.0</ele><time>2026-04-18T14:44:14.676Z</time></trkpt><trkpt lat="9.6425068" lon="-75.492863"><ele>20.0</ele><time>2026-04-18T14:44:15.676Z</time></trkpt><trkpt lat="9.6425555" lon="-75.4927949"><ele>20.0</ele><time>2026-04-18T14:44:16.676Z</time></trkpt><trkpt lat="9.642602" lon="-75.4927271"><ele>20.0</ele><time>2026-04-18T14:44:17.676Z</time></trkpt><trkpt lat="9.6426456" lon="-75.4926542"><ele>19.833333333333336</ele><time>2026-04-18T14:44:18.673Z</time></trkpt><trkpt lat="9.6426936" lon="-75.492589"><ele>19.666666666666668</ele><time>2026-04-18T14:44:19.675Z</time></trkpt><trkpt lat="9.6427407" lon="-75.4925203"><ele>19.5</ele><time>2026-04-18T14:44:20.675Z</time></trkpt><trkpt lat="9.6427881" lon="-75.4924555"><ele>19.333333333333332</ele><time>2026-04-18T14:44:21.68Z</time></trkpt><trkpt lat="9.6428323" lon="-75.4923938"><ele>19.166666666666664</ele><time>2026-04-18T14:44:22.675Z</time></trkpt><trkpt lat="9.6428759" lon="-75.4923225"><ele>19.0</ele><time>2026-04-18T14:44:23.676Z</time></trkpt><trkpt lat="9.6429264" lon="-75.4922535"><ele>18.833333333333332</ele><time>2026-04-18T14:44:24.674Z</time></trkpt><trkpt lat="9.6429742" lon="-75.4921844"><ele>18.666666666666664</ele><time>2026-04-18T14:44:25.674Z</time></trkpt><trkpt lat="9.64302" lon="-75.4921139"><ele>18.5</ele><time>2026-04-18T14:44:26.674Z</time></trkpt><trkpt lat="9.6430693" lon="-75.4920455"><ele>18.333333333333332</ele><time>2026-04-18T14:44:27.675Z</time></trkpt><trkpt lat="9.6431111" lon="-75.4919782"><ele>18.166666666666668</ele><time>2026-04-18T14:44:28.673Z</time></trkpt><trkpt lat="9.643153" lon="-75.491905"><ele>18.0</ele><time>2026-04-18T14:44:29.675Z</time></trkpt><trkpt lat="9.6431954" lon="-75.4918326"><ele>18.666666666666668</ele><time>2026-04-18T14:44:30.673Z</time></trkpt><trkpt lat="9.6432424" lon="-75.4917616"><ele>19.333333333333332</ele><time>2026-04-18T14:44:31.675Z</time></trkpt><trkpt lat="9.6432895" lon="-75.4916938"><ele>20.0</ele><time>2026-04-18T14:44:32.677Z</time></trkpt><trkpt lat="9.6433356" lon="-75.4916228"><ele>20.666666666666664</ele><time>2026-04-18T14:44:33.675Z</time></trkpt><trkpt lat="9.6433813" lon="-75.4915511"><ele>21.333333333333332</ele><time>2026-04-18T14:44:34.678Z</time></trkpt><trkpt lat="9.6434309" lon="-75.4914812"><ele>22.0</ele><time>2026-04-18T14:44:35.678Z</time></trkpt><trkpt lat="9.6434792" lon="-75.4914095"><ele>22.0</ele><time>2026-04-18T14:44:36.677Z</time></trkpt><trkpt lat="9.6435242" lon="-75.4913404"><ele>22.0</ele><time>2026-04-18T14:44:37.674Z</time></trkpt><trkpt lat="9.6435733" lon="-75.4912692"><ele>22.0</ele><time>2026-04-18T14:44:38.675Z</time></trkpt><trkpt lat="9.643624" lon="-75.4912001"><ele>22.0</ele><time>2026-04-18T14:44:39.676Z</time></trkpt><trkpt lat="9.6436709" lon="-75.4911324"><ele>22.0</ele><time>2026-04-18T14:44:40.678Z</time></trkpt><trkpt lat="9.6437175" lon="-75.4910617"><ele>22.0</ele><time>2026-04-18T14:44:41.675Z</time></trkpt><trkpt lat="9.6437666" lon="-75.4909881"><ele>21.666666666666664</ele><time>2026-04-18T14:44:42.678Z</time></trkpt><trkpt lat="9.643816" lon="-75.4909176"><ele>21.333333333333332</ele><time>2026-04-18T14:44:43.672Z</time></trkpt><trkpt lat="9.643861" lon="-75.4908505"><ele>21.0</ele><time>2026-04-18T14:44:44.681Z</time></trkpt><trkpt lat="9.6439091" lon="-75.4907829"><ele>20.666666666666668</ele><time>2026-04-18T14:44:45.677Z</time></trkpt><trkpt lat="9.6439566" lon="-75.4907123"><ele>20.333333333333336</ele><time>2026-04-18T14:44:46.682Z</time></trkpt><trkpt lat="9.6440097" lon="-75.490643"><ele>20.0</ele><time>2026-04-18T14:44:47.676Z</time></trkpt><trkpt lat="9.6440608" lon="-75.4905754"><ele>20.0</ele><time>2026-04-18T14:44:48.672Z</time></trkpt><trkpt lat="9.6441105" lon="-75.490506"><ele>20.0</ele><time>2026-04-18T14:44:49.673Z</time></trkpt><trkpt lat="9.6441644" lon="-75.4904381"><ele>20.0</ele><time>2026-04-18T14:44:50.674Z</time></trkpt><trkpt lat="9.6442201" lon="-75.4903737"><ele>20.0</ele><time>2026-04-18T14:44:51.677Z</time></trkpt><trkpt lat="9.644277" lon="-75.4903104"><ele>20.0</ele><time>2026-04-18T14:44:52.676Z</time></trkpt><trkpt lat="9.6443366" lon="-75.490247"><ele>20.0</ele><time>2026-04-18T14:44:53.677Z</time></trkpt><trkpt lat="9.6443954" lon="-75.4901896"><ele>20.0</ele><time>2026-04-18T14:44:54.673Z</time></trkpt><trkpt lat="9.644451" lon="-75.4901293"><ele>20.0</ele><time>2026-04-18T14:44:55.677Z</time></trkpt><trkpt lat="9.6445078" lon="-75.4900701"><ele>20.0</ele><time>2026-04-18T14:44:56.673Z</time></trkpt><trkpt lat="9.644569" lon="-75.4900149"><ele>20.0</ele><time>2026-04-18T14:44:57.674Z</time></trkpt><trkpt lat="9.6446312" lon="-75.4899611"><ele>20.0</ele><time>2026-04-18T14:44:58.677Z</time></trkpt><trkpt lat="9.6447002" lon="-75.4899067"><ele>20.0</ele><time>2026-04-18T14:44:59.675Z</time></trkpt><trkpt lat="9.6447656" lon="-75.4898551"><ele>20.0</ele><time>2026-04-18T14:45:00.676Z</time></trkpt><trkpt lat="9.6448353" lon="-75.4898048"><ele>20.0</ele><time>2026-04-18T14:45:01.678Z</time></trkpt><trkpt lat="9.6449017" lon="-75.4897564"><ele>20.0</ele><time>2026-04-18T14:45:02.677Z</time></trkpt><trkpt lat="9.6449706" lon="-75.4897125"><ele>20.0</ele><time>2026-04-18T14:45:03.675Z</time></trkpt><trkpt lat="9.6450419" lon="-75.4896635"><ele>20.0</ele><time>2026-04-18T14:45:04.675Z</time></trkpt><trkpt lat="9.6451099" lon="-75.4896173"><ele>20.0</ele><time>2026-04-18T14:45:05.677Z</time></trkpt><trkpt lat="9.6451772" lon="-75.48957"><ele>20.5</ele><time>2026-04-18T14:45:06.677Z</time></trkpt><trkpt lat="9.6452481" lon="-75.4895284"><ele>21.0</ele><time>2026-04-18T14:45:07.673Z</time></trkpt><trkpt lat="9.6453184" lon="-75.4894844"><ele>21.5</ele><time>2026-04-18T14:45:08.677Z</time></trkpt><trkpt lat="9.6453891" lon="-75.4894375"><ele>22.0</ele><time>2026-04-18T14:45:09.675Z</time></trkpt><trkpt lat="9.6454574" lon="-75.4893975"><ele>22.5</ele><time>2026-04-18T14:45:10.678Z</time></trkpt><trkpt lat="9.6455326" lon="-75.4893544"><ele>23.0</ele><time>2026-04-18T14:45:11.673Z</time></trkpt><trkpt lat="9.6456066" lon="-75.489311"><ele>23.0</ele><time>2026-04-18T14:45:12.675Z</time></trkpt><trkpt lat="9.6456775" lon="-75.48927"><ele>23.0</ele><time>2026-04-18T14:45:13.675Z</time></trkpt><trkpt lat="9.6457525" lon="-75.4892273"><ele>23.0</ele><time>2026-04-18T14:45:14.673Z</time></trkpt><trkpt lat="9.6458267" lon="-75.4891844"><ele>23.0</ele><time>2026-04-18T14:45:15.675Z</time></trkpt><trkpt lat="9.6459009" lon="-75.4891438"><ele>23.0</ele><time>2026-04-18T14:45:16.679Z</time></trkpt><trkpt lat="9.6459711" lon="-75.4890979"><ele>23.0</ele><time>2026-04-18T14:45:17.675Z</time></trkpt><trkpt lat="9.6460443" lon="-75.4890538"><ele>23.0</ele><time>2026-04-18T14:45:18.675Z</time></trkpt><trkpt lat="9.646118" lon="-75.489011"><ele>23.0</ele><time>2026-04-18T14:45:19.674Z</time></trkpt><trkpt lat="9.6461892" lon="-75.488968"><ele>23.0</ele><time>2026-04-18T14:45:20.676Z</time></trkpt><trkpt lat="9.6462618" lon="-75.4889273"><ele>23.0</ele><time>2026-04-18T14:45:21.676Z</time></trkpt><trkpt lat="9.6463352" lon="-75.4888853"><ele>23.0</ele><time>2026-04-18T14:45:22.673Z</time></trkpt><trkpt lat="9.6464117" lon="-75.488845"><ele>23.0</ele><time>2026-04-18T14:45:23.674Z</time></trkpt><trkpt lat="9.6464859" lon="-75.4888"><ele>23.0</ele><time>2026-04-18T14:45:24.677Z</time></trkpt><trkpt lat="9.646563" lon="-75.4887576"><ele>23.0</ele><time>2026-04-18T14:45:25.674Z</time></trkpt><trkpt lat="9.6466369" lon="-75.4887136"><ele>23.0</ele><time>2026-04-18T14:45:26.675Z</time></trkpt><trkpt lat="9.6467119" lon="-75.4886702"><ele>23.0</ele><time>2026-04-18T14:45:27.674Z</time></trkpt><trkpt lat="9.6467862" lon="-75.4886266"><ele>23.0</ele><time>2026-04-18T14:45:28.674Z</time></trkpt><trkpt lat="9.6468642" lon="-75.4885795"><ele>23.0</ele><time>2026-04-18T14:45:29.674Z</time></trkpt><trkpt lat="9.6469397" lon="-75.4885366"><ele>22.5</ele><time>2026-04-18T14:45:30.676Z</time></trkpt><trkpt lat="9.6470158" lon="-75.4884913"><ele>22.0</ele><time>2026-04-18T14:45:31.675Z</time></trkpt><trkpt lat="9.6470912" lon="-75.4884503"><ele>21.5</ele><time>2026-04-18T14:45:32.674Z</time></trkpt><trkpt lat="9.647165" lon="-75.4884033"><ele>21.0</ele><time>2026-04-18T14:45:33.674Z</time></trkpt><trkpt lat="9.6472392" lon="-75.4883567"><ele>20.5</ele><time>2026-04-18T14:45:34.676Z</time></trkpt><trkpt lat="9.6473154" lon="-75.4883126"><ele>20.0</ele><time>2026-04-18T14:45:35.679Z</time></trkpt><trkpt lat="9.64739" lon="-75.4882649"><ele>20.0</ele><time>2026-04-18T14:45:36.676Z</time></trkpt><trkpt lat="9.6474668" lon="-75.4882229"><ele>20.0</ele><time>2026-04-18T14:45:37.676Z</time></trkpt><trkpt lat="9.647539" lon="-75.4881784"><ele>20.0</ele><time>2026-04-18T14:45:38.675Z</time></trkpt><trkpt lat="9.647615" lon="-75.488132"><ele>20.0</ele><time>2026-04-18T14:45:39.676Z</time></trkpt><trkpt lat="9.6476876" lon="-75.4880837"><ele>20.0</ele><time>2026-04-18T14:45:40.675Z</time></trkpt><trkpt lat="9.6477588" lon="-75.4880347"><ele>20.0</ele><time>2026-04-18T14:45:41.679Z</time></trkpt><trkpt lat="9.6478282" lon="-75.4879858"><ele>20.0</ele><time>2026-04-18T14:45:42.677Z</time></trkpt><trkpt lat="9.6478984" lon="-75.487936"><ele>20.0</ele><time>2026-04-18T14:45:43.675Z</time></trkpt><trkpt lat="9.6479681" lon="-75.4878858"><ele>20.0</ele><time>2026-04-18T14:45:44.672Z</time></trkpt><trkpt lat="9.6480383" lon="-75.4878343"><ele>20.0</ele><time>2026-04-18T14:45:45.673Z</time></trkpt><trkpt lat="9.6481043" lon="-75.4877813"><ele>20.0</ele><time>2026-04-18T14:45:46.672Z</time></trkpt><trkpt lat="9.6481674" lon="-75.4877286"><ele>20.0</ele><time>2026-04-18T14:45:47.675Z</time></trkpt><trkpt lat="9.6482312" lon="-75.4876779"><ele>20.0</ele><time>2026-04-18T14:45:48.674Z</time></trkpt><trkpt lat="9.6482965" lon="-75.4876239"><ele>20.0</ele><time>2026-04-18T14:45:49.677Z</time></trkpt><trkpt lat="9.6483644" lon="-75.487567"><ele>20.0</ele><time>2026-04-18T14:45:50.675Z</time></trkpt><trkpt lat="9.648425" lon="-75.4875071"><ele>20.0</ele><time>2026-04-18T14:45:51.673Z</time></trkpt><trkpt lat="9.6484847" lon="-75.487446"><ele>20.0</ele><time>2026-04-18T14:45:52.673Z</time></trkpt><trkpt lat="9.6485471" lon="-75.4873869"><ele>20.0</ele><time>2026-04-18T14:45:53.679Z</time></trkpt><trkpt lat="9.6486064" lon="-75.4873293"><ele>19.833333333333336</ele><time>2026-04-18T14:45:54.677Z</time></trkpt><trkpt lat="9.6486663" lon="-75.4872675"><ele>19.666666666666668</ele><time>2026-04-18T14:45:55.679Z</time></trkpt><trkpt lat="9.6487267" lon="-75.4872032"><ele>19.5</ele><time>2026-04-18T14:45:56.674Z</time></trkpt><trkpt lat="9.6487873" lon="-75.4871426"><ele>19.333333333333332</ele><time>2026-04-18T14:45:57.675Z</time></trkpt><trkpt lat="9.6488428" lon="-75.487083"><ele>19.166666666666664</ele><time>2026-04-18T14:45:58.675Z</time></trkpt><trkpt lat="9.6488997" lon="-75.4870193"><ele>19.0</ele><time>2026-04-18T14:45:59.675Z</time></trkpt><trkpt lat="9.6489569" lon="-75.4869536"><ele>19.0</ele><time>2026-04-18T14:46:00.676Z</time></trkpt><trkpt lat="9.6490103" lon="-75.4868898"><ele>19.0</ele><time>2026-04-18T14:46:01.677Z</time></trkpt><trkpt lat="9.6490591" lon="-75.4868235"><ele>19.0</ele><time>2026-04-18T14:46:02.678Z</time></trkpt><trkpt lat="9.6491087" lon="-75.486759"><ele>19.0</ele><time>2026-04-18T14:46:03.674Z</time></trkpt><trkpt lat="9.6491583" lon="-75.4866956"><ele>19.0</ele><time>2026-04-18T14:46:04.672Z</time></trkpt><trkpt lat="9.649209" lon="-75.4866294"><ele>19.0</ele><time>2026-04-18T14:46:05.671Z</time></trkpt><trkpt lat="9.6492498" lon="-75.486563"><ele>19.0</ele><time>2026-04-18T14:46:06.672Z</time></trkpt><trkpt lat="9.6492926" lon="-75.4864951"><ele>19.0</ele><time>2026-04-18T14:46:07.674Z</time></trkpt><trkpt lat="9.6493326" lon="-75.4864242"><ele>19.0</ele><time>2026-04-18T14:46:08.673Z</time></trkpt><trkpt lat="9.6493758" lon="-75.4863545"><ele>19.0</ele><time>2026-04-18T14:46:09.675Z</time></trkpt><trkpt lat="9.6494227" lon="-75.4862852"><ele>19.0</ele><time>2026-04-18T14:46:10.675Z</time></trkpt><trkpt lat="9.6494608" lon="-75.4862164"><ele>19.0</ele><time>2026-04-18T14:46:11.676Z</time></trkpt><trkpt lat="9.6495041" lon="-75.4861478"><ele>19.166666666666664</ele><time>2026-04-18T14:46:12.677Z</time></trkpt><trkpt lat="9.6495456" lon="-75.4860769"><ele>19.333333333333332</ele><time>2026-04-18T14:46:13.676Z</time></trkpt><trkpt lat="9.6495761" lon="-75.4860033"><ele>19.5</ele><time>2026-04-18T14:46:14.675Z</time></trkpt><trkpt lat="9.6496155" lon="-75.485931"><ele>19.666666666666668</ele><time>2026-04-18T14:46:15.678Z</time></trkpt><trkpt lat="9.6496515" lon="-75.4858592"><ele>19.833333333333336</ele><time>2026-04-18T14:46:16.679Z</time></trkpt><trkpt lat="9.649689" lon="-75.4857867"><ele>20.0</ele><time>2026-04-18T14:46:17.679Z</time></trkpt><trkpt lat="9.6497212" lon="-75.4857152"><ele>20.0</ele><time>2026-04-18T14:46:18.681Z</time></trkpt><trkpt lat="9.6497522" lon="-75.4856439"><ele>20.0</ele><time>2026-04-18T14:46:19.676Z</time></trkpt><trkpt lat="9.6497863" lon="-75.4855722"><ele>20.0</ele><time>2026-04-18T14:46:20.675Z</time></trkpt><trkpt lat="9.6498189" lon="-75.4854986"><ele>20.0</ele><time>2026-04-18T14:46:21.672Z</time></trkpt><trkpt lat="9.6498474" lon="-75.4854248"><ele>20.0</ele><time>2026-04-18T14:46:22.672Z</time></trkpt><trkpt lat="9.6498777" lon="-75.4853476"><ele>20.0</ele><time>2026-04-18T14:46:23.672Z</time></trkpt><trkpt lat="9.6499084" lon="-75.4852713"><ele>20.333333333333336</ele><time>2026-04-18T14:46:24.672Z</time></trkpt><trkpt lat="9.6499361" lon="-75.4851946"><ele>20.666666666666668</ele><time>2026-04-18T14:46:25.673Z</time></trkpt><trkpt lat="9.6499591" lon="-75.4851146"><ele>21.0</ele><time>2026-04-18T14:46:26.672Z</time></trkpt><trkpt lat="9.6499821" lon="-75.4850417"><ele>21.333333333333332</ele><time>2026-04-18T14:46:27.676Z</time></trkpt><trkpt lat="9.6500011" lon="-75.4849717"><ele>21.666666666666664</ele><time>2026-04-18T14:46:28.677Z</time></trkpt><trkpt lat="9.6500232" lon="-75.484897"><ele>22.0</ele><time>2026-04-18T14:46:29.675Z</time></trkpt><trkpt lat="9.6500425" lon="-75.4848215"><ele>22.0</ele><time>2026-04-18T14:46:30.678Z</time></trkpt><trkpt lat="9.6500653" lon="-75.4847495"><ele>22.0</ele><time>2026-04-18T14:46:31.677Z</time></trkpt><trkpt lat="9.6500878" lon="-75.4846736"><ele>22.0</ele><time>2026-04-18T14:46:32.676Z</time></trkpt><trkpt lat="9.6501056" lon="-75.4845971"><ele>22.0</ele><time>2026-04-18T14:46:33.677Z</time></trkpt><trkpt lat="9.650125" lon="-75.4845165"><ele>22.0</ele><time>2026-04-18T14:46:34.678Z</time></trkpt><trkpt lat="9.6501478" lon="-75.4844398"><ele>22.0</ele><time>2026-04-18T14:46:35.678Z</time></trkpt><trkpt lat="9.6501679" lon="-75.4843596"><ele>22.0</ele><time>2026-04-18T14:46:36.677Z</time></trkpt><trkpt lat="9.6501851" lon="-75.4842796"><ele>22.0</ele><time>2026-04-18T14:46:37.674Z</time></trkpt><trkpt lat="9.6502073" lon="-75.4841966"><ele>22.0</ele><time>2026-04-18T14:46:38.676Z</time></trkpt><trkpt lat="9.6502287" lon="-75.4841173"><ele>22.0</ele><time>2026-04-18T14:46:39.673Z</time></trkpt><trkpt lat="9.6502532" lon="-75.4840344"><ele>22.0</ele><time>2026-04-18T14:46:40.671Z</time></trkpt><trkpt lat="9.6502744" lon="-75.4839571"><ele>22.0</ele><time>2026-04-18T14:46:41.672Z</time></trkpt><trkpt lat="9.6502936" lon="-75.4838737"><ele>22.0</ele><time>2026-04-18T14:46:42.674Z</time></trkpt><trkpt lat="9.6503156" lon="-75.4837938"><ele>22.0</ele><time>2026-04-18T14:46:43.677Z</time></trkpt><trkpt lat="9.650335" lon="-75.4837174"><ele>22.0</ele><time>2026-04-18T14:46:44.675Z</time></trkpt><trkpt lat="9.6503598" lon="-75.4836361"><ele>22.0</ele><time>2026-04-18T14:46:45.676Z</time></trkpt><trkpt lat="9.6503868" lon="-75.4835562"><ele>22.0</ele><time>2026-04-18T14:46:46.675Z</time></trkpt><trkpt lat="9.6504114" lon="-75.4834787"><ele>22.0</ele><time>2026-04-18T14:46:47.676Z</time></trkpt><trkpt lat="9.6504361" lon="-75.4833954"><ele>22.0</ele><time>2026-04-18T14:46:48.678Z</time></trkpt><trkpt lat="9.6504583" lon="-75.4833126"><ele>22.0</ele><time>2026-04-18T14:46:49.678Z</time></trkpt><trkpt lat="9.6504768" lon="-75.4832309"><ele>22.0</ele><time>2026-04-18T14:46:50.673Z</time></trkpt><trkpt lat="9.6504945" lon="-75.4831539"><ele>22.0</ele><time>2026-04-18T14:46:51.675Z</time></trkpt><trkpt lat="9.6505142" lon="-75.4830716"><ele>22.0</ele><time>2026-04-18T14:46:52.677Z</time></trkpt><trkpt lat="9.6505337" lon="-75.4829897"><ele>22.0</ele><time>2026-04-18T14:46:53.674Z</time></trkpt><trkpt lat="9.6505565" lon="-75.4829105"><ele>22.0</ele><time>2026-04-18T14:46:54.678Z</time></trkpt><trkpt lat="9.6505842" lon="-75.4828252"><ele>22.0</ele><time>2026-04-18T14:46:55.675Z</time></trkpt><trkpt lat="9.6506097" lon="-75.4827441"><ele>22.0</ele><time>2026-04-18T14:46:56.679Z</time></trkpt><trkpt lat="9.6506289" lon="-75.4826602"><ele>22.0</ele><time>2026-04-18T14:46:57.677Z</time></trkpt><trkpt lat="9.650647" lon="-75.4825778"><ele>22.0</ele><time>2026-04-18T14:46:58.676Z</time></trkpt><trkpt lat="9.6506671" lon="-75.4824989"><ele>22.0</ele><time>2026-04-18T14:46:59.677Z</time></trkpt><trkpt lat="9.6506891" lon="-75.4824222"><ele>22.0</ele><time>2026-04-18T14:47:00.68Z</time></trkpt><trkpt lat="9.6507124" lon="-75.4823461"><ele>22.0</ele><time>2026-04-18T14:47:01.679Z</time></trkpt><trkpt lat="9.6507361" lon="-75.4822685"><ele>22.0</ele><time>2026-04-18T14:47:02.677Z</time></trkpt><trkpt lat="9.6507588" lon="-75.48219"><ele>22.0</ele><time>2026-04-18T14:47:03.675Z</time></trkpt><trkpt lat="9.6507761" lon="-75.482113"><ele>22.0</ele><time>2026-04-18T14:47:04.677Z</time></trkpt><trkpt lat="9.6507943" lon="-75.4820344"><ele>22.0</ele><time>2026-04-18T14:47:05.678Z</time></trkpt><trkpt lat="9.6508196" lon="-75.481957"><ele>22.166666666666664</ele><time>2026-04-18T14:47:06.676Z</time></trkpt><trkpt lat="9.6508465" lon="-75.4818773"><ele>22.333333333333332</ele><time>2026-04-18T14:47:07.676Z</time></trkpt><trkpt lat="9.6508702" lon="-75.4818002"><ele>22.5</ele><time>2026-04-18T14:47:08.679Z</time></trkpt><trkpt lat="9.6508921" lon="-75.4817228"><ele>22.666666666666668</ele><time>2026-04-18T14:47:09.681Z</time></trkpt><trkpt lat="9.6509102" lon="-75.4816452"><ele>22.833333333333336</ele><time>2026-04-18T14:47:10.674Z</time></trkpt><trkpt lat="9.6509297" lon="-75.4815651"><ele>23.0</ele><time>2026-04-18T14:47:11.676Z</time></trkpt><trkpt lat="9.6509546" lon="-75.4814883"><ele>23.0</ele><time>2026-04-18T14:47:12.678Z</time></trkpt><trkpt lat="9.6509772" lon="-75.481409"><ele>23.0</ele><time>2026-04-18T14:47:13.674Z</time></trkpt><trkpt lat="9.6509971" lon="-75.4813286"><ele>23.0</ele><time>2026-04-18T14:47:14.676Z</time></trkpt><trkpt lat="9.6510194" lon="-75.481253"><ele>23.0</ele><time>2026-04-18T14:47:15.672Z</time></trkpt><trkpt lat="9.6510426" lon="-75.4811737"><ele>23.0</ele><time>2026-04-18T14:47:16.672Z</time></trkpt><trkpt lat="9.6510597" lon="-75.4810971"><ele>23.0</ele><time>2026-04-18T14:47:17.673Z</time></trkpt><trkpt lat="9.6510794" lon="-75.4810234"><ele>23.0</ele><time>2026-04-18T14:47:18.677Z</time></trkpt><trkpt lat="9.651105" lon="-75.480947"><ele>23.0</ele><time>2026-04-18T14:47:19.673Z</time></trkpt><trkpt lat="9.6511232" lon="-75.4808695"><ele>23.0</ele><time>2026-04-18T14:47:20.672Z</time></trkpt><trkpt lat="9.6511403" lon="-75.4807895"><ele>23.0</ele><time>2026-04-18T14:47:21.674Z</time></trkpt><trkpt lat="9.6511591" lon="-75.4807128"><ele>23.0</ele><time>2026-04-18T14:47:22.674Z</time></trkpt><trkpt lat="9.6511818" lon="-75.4806361"><ele>23.0</ele><time>2026-04-18T14:47:23.676Z</time></trkpt><trkpt lat="9.6512013" lon="-75.4805595"><ele>23.0</ele><time>2026-04-18T14:47:24.675Z</time></trkpt><trkpt lat="9.6512215" lon="-75.4804785"><ele>23.0</ele><time>2026-04-18T14:47:25.674Z</time></trkpt><trkpt lat="9.6512444" lon="-75.4804047"><ele>23.0</ele><time>2026-04-18T14:47:26.677Z</time></trkpt><trkpt lat="9.6512688" lon="-75.480328"><ele>23.0</ele><time>2026-04-18T14:47:27.676Z</time></trkpt><trkpt lat="9.65129" lon="-75.4802523"><ele>23.0</ele><time>2026-04-18T14:47:28.675Z</time></trkpt><trkpt lat="9.6513113" lon="-75.4801727"><ele>23.0</ele><time>2026-04-18T14:47:29.677Z</time></trkpt><trkpt lat="9.6513315" lon="-75.4800988"><ele>23.0</ele><time>2026-04-18T14:47:30.675Z</time></trkpt><trkpt lat="9.6513554" lon="-75.4800207"><ele>23.0</ele><time>2026-04-18T14:47:31.676Z</time></trkpt><trkpt lat="9.6513792" lon="-75.479944"><ele>23.0</ele><time>2026-04-18T14:47:32.674Z</time></trkpt><trkpt lat="9.6514003" lon="-75.4798661"><ele>23.0</ele><time>2026-04-18T14:47:33.673Z</time></trkpt><trkpt lat="9.6514229" lon="-75.4797897"><ele>23.0</ele><time>2026-04-18T14:47:34.671Z</time></trkpt><trkpt lat="9.6514415" lon="-75.4797121"><ele>23.0</ele><time>2026-04-18T14:47:35.673Z</time></trkpt><trkpt lat="9.6514627" lon="-75.4796335"><ele>23.0</ele><time>2026-04-18T14:47:36.671Z</time></trkpt><trkpt lat="9.651488" lon="-75.479556"><ele>23.0</ele><time>2026-04-18T14:47:37.684Z</time></trkpt><trkpt lat="9.651505" lon="-75.4794804"><ele>23.0</ele><time>2026-04-18T14:47:38.676Z</time></trkpt><trkpt lat="9.6515246" lon="-75.4794026"><ele>23.0</ele><time>2026-04-18T14:47:39.679Z</time></trkpt><trkpt lat="9.6515405" lon="-75.4793258"><ele>23.0</ele><time>2026-04-18T14:47:40.679Z</time></trkpt><trkpt lat="9.6515598" lon="-75.4792522"><ele>23.0</ele><time>2026-04-18T14:47:41.675Z</time></trkpt><trkpt lat="9.6515791" lon="-75.4791731"><ele>23.0</ele><time>2026-04-18T14:47:42.672Z</time></trkpt><trkpt lat="9.651602" lon="-75.4790957"><ele>23.0</ele><time>2026-04-18T14:47:43.674Z</time></trkpt><trkpt lat="9.6516191" lon="-75.4790208"><ele>23.0</ele><time>2026-04-18T14:47:44.674Z</time></trkpt><trkpt lat="9.6516397" lon="-75.4789417"><ele>23.0</ele><time>2026-04-18T14:47:45.675Z</time></trkpt><trkpt lat="9.6516613" lon="-75.4788637"><ele>23.0</ele><time>2026-04-18T14:47:46.675Z</time></trkpt><trkpt lat="9.6516848" lon="-75.4787858"><ele>23.0</ele><time>2026-04-18T14:47:47.677Z</time></trkpt><trkpt lat="9.6517087" lon="-75.4787114"><ele>23.0</ele><time>2026-04-18T14:47:48.679Z</time></trkpt><trkpt lat="9.6517303" lon="-75.4786339"><ele>23.0</ele><time>2026-04-18T14:47:49.676Z</time></trkpt><trkpt lat="9.651754" lon="-75.4785574"><ele>23.0</ele><time>2026-04-18T14:47:50.675Z</time></trkpt><trkpt lat="9.6517721" lon="-75.4784806"><ele>23.0</ele><time>2026-04-18T14:47:51.673Z</time></trkpt><trkpt lat="9.6517937" lon="-75.4784028"><ele>23.0</ele><time>2026-04-18T14:47:52.67Z</time></trkpt><trkpt lat="9.6518171" lon="-75.4783259"><ele>23.0</ele><time>2026-04-18T14:47:53.671Z</time></trkpt><trkpt lat="9.6518411" lon="-75.4782468"><ele>23.0</ele><time>2026-04-18T14:47:54.67Z</time></trkpt><trkpt lat="9.6518643" lon="-75.4781657"><ele>23.0</ele><time>2026-04-18T14:47:55.672Z</time></trkpt><trkpt lat="9.651887" lon="-75.4780875"><ele>23.0</ele><time>2026-04-18T14:47:56.672Z</time></trkpt><trkpt lat="9.6519091" lon="-75.4780085"><ele>23.0</ele><time>2026-04-18T14:47:57.674Z</time></trkpt><trkpt lat="9.6519316" lon="-75.477928"><ele>23.0</ele><time>2026-04-18T14:47:58.671Z</time></trkpt><trkpt lat="9.6519549" lon="-75.4778489"><ele>23.0</ele><time>2026-04-18T14:47:59.67Z</time></trkpt><trkpt lat="9.6519743" lon="-75.4777682"><ele>22.833333333333336</ele><time>2026-04-18T14:48:00.673Z</time></trkpt><trkpt lat="9.6519989" lon="-75.477691"><ele>22.666666666666668</ele><time>2026-04-18T14:48:01.676Z</time></trkpt><trkpt lat="9.6520181" lon="-75.4776083"><ele>22.5</ele><time>2026-04-18T14:48:02.674Z</time></trkpt><trkpt lat="9.6520384" lon="-75.4775292"><ele>22.333333333333332</ele><time>2026-04-18T14:48:03.674Z</time></trkpt><trkpt lat="9.652062" lon="-75.4774464"><ele>22.166666666666664</ele><time>2026-04-18T14:48:04.674Z</time></trkpt><trkpt lat="9.6520868" lon="-75.4773666"><ele>22.0</ele><time>2026-04-18T14:48:05.671Z</time></trkpt><trkpt lat="9.6521116" lon="-75.4772837"><ele>22.0</ele><time>2026-04-18T14:48:06.674Z</time></trkpt><trkpt lat="9.6521375" lon="-75.4772011"><ele>22.0</ele><time>2026-04-18T14:48:07.674Z</time></trkpt><trkpt lat="9.6521627" lon="-75.4771194"><ele>22.0</ele><time>2026-04-18T14:48:08.677Z</time></trkpt><trkpt lat="9.6521859" lon="-75.4770394"><ele>22.0</ele><time>2026-04-18T14:48:09.678Z</time></trkpt><trkpt lat="9.6522108" lon="-75.4769585"><ele>22.0</ele><time>2026-04-18T14:48:10.676Z</time></trkpt><trkpt lat="9.6522316" lon="-75.4768783"><ele>22.0</ele><time>2026-04-18T14:48:11.676Z</time></trkpt><trkpt lat="9.6522552" lon="-75.4767943"><ele>21.833333333333332</ele><time>2026-04-18T14:48:12.671Z</time></trkpt><trkpt lat="9.6522761" lon="-75.4767136"><ele>21.666666666666664</ele><time>2026-04-18T14:48:13.675Z</time></trkpt><trkpt lat="9.6523048" lon="-75.4766335"><ele>21.5</ele><time>2026-04-18T14:48:14.677Z</time></trkpt><trkpt lat="9.6523257" lon="-75.4765513"><ele>21.333333333333332</ele><time>2026-04-18T14:48:15.672Z</time></trkpt><trkpt lat="9.6523464" lon="-75.4764728"><ele>21.166666666666668</ele><time>2026-04-18T14:48:16.674Z</time></trkpt><trkpt lat="9.6523694" lon="-75.4763949"><ele>21.0</ele><time>2026-04-18T14:48:17.673Z</time></trkpt><trkpt lat="9.6523873" lon="-75.476317"><ele>21.333333333333332</ele><time>2026-04-18T14:48:18.674Z</time></trkpt><trkpt lat="9.6524116" lon="-75.4762351"><ele>21.666666666666668</ele><time>2026-04-18T14:48:19.673Z</time></trkpt><trkpt lat="9.6524389" lon="-75.4761528"><ele>22.0</ele><time>2026-04-18T14:48:20.674Z</time></trkpt><trkpt lat="9.6524627" lon="-75.4760687"><ele>22.333333333333336</ele><time>2026-04-18T14:48:21.675Z</time></trkpt><trkpt lat="9.6524834" lon="-75.4759853"><ele>22.666666666666668</ele><time>2026-04-18T14:48:22.674Z</time></trkpt><trkpt lat="9.6525084" lon="-75.475904"><ele>23.0</ele><time>2026-04-18T14:48:23.673Z</time></trkpt><trkpt lat="9.652534" lon="-75.4758211"><ele>23.0</ele><time>2026-04-18T14:48:24.676Z</time></trkpt><trkpt lat="9.6525573" lon="-75.4757364"><ele>23.0</ele><time>2026-04-18T14:48:25.673Z</time></trkpt><trkpt lat="9.6525794" lon="-75.4756496"><ele>23.0</ele><time>2026-04-18T14:48:26.676Z</time></trkpt><trkpt lat="9.6526053" lon="-75.4755682"><ele>23.0</ele><time>2026-04-18T14:48:27.677Z</time></trkpt><trkpt lat="9.6526272" lon="-75.4754871"><ele>23.0</ele><time>2026-04-18T14:48:28.674Z</time></trkpt><trkpt lat="9.6526562" lon="-75.4754013"><ele>23.0</ele><time>2026-04-18T14:48:29.676Z</time></trkpt><trkpt lat="9.6526764" lon="-75.4753247"><ele>23.0</ele><time>2026-04-18T14:48:30.677Z</time></trkpt><trkpt lat="9.6526971" lon="-75.4752428"><ele>23.0</ele><time>2026-04-18T14:48:31.674Z</time></trkpt><trkpt lat="9.6527207" lon="-75.4751587"><ele>23.0</ele><time>2026-04-18T14:48:32.67Z</time></trkpt><trkpt lat="9.6527402" lon="-75.4750742"><ele>23.0</ele><time>2026-04-18T14:48:33.673Z</time></trkpt><trkpt lat="9.6527616" lon="-75.4749914"><ele>23.0</ele><time>2026-04-18T14:48:34.671Z</time></trkpt><trkpt lat="9.6527856" lon="-75.4749089"><ele>23.0</ele><time>2026-04-18T14:48:35.673Z</time></trkpt><trkpt lat="9.6528112" lon="-75.4748236"><ele>23.0</ele><time>2026-04-18T14:48:36.672Z</time></trkpt><trkpt lat="9.6528354" lon="-75.4747399"><ele>23.0</ele><time>2026-04-18T14:48:37.67Z</time></trkpt><trkpt lat="9.6528611" lon="-75.4746582"><ele>23.0</ele><time>2026-04-18T14:48:38.672Z</time></trkpt><trkpt lat="9.6528879" lon="-75.4745727"><ele>23.0</ele><time>2026-04-18T14:48:39.673Z</time></trkpt><trkpt lat="9.6529143" lon="-75.4744945"><ele>23.0</ele><time>2026-04-18T14:48:40.678Z</time></trkpt><trkpt lat="9.6529357" lon="-75.4744155"><ele>23.0</ele><time>2026-04-18T14:48:41.676Z</time></trkpt><trkpt lat="9.652962" lon="-75.4743346"><ele>23.166666666666668</ele><time>2026-04-18T14:48:42.674Z</time></trkpt><trkpt lat="9.6529807" lon="-75.474258"><ele>23.333333333333336</ele><time>2026-04-18T14:48:43.674Z</time></trkpt><trkpt lat="9.6530029" lon="-75.474184"><ele>23.5</ele><time>2026-04-18T14:48:44.678Z</time></trkpt><trkpt lat="9.6530247" lon="-75.4741078"><ele>23.666666666666668</ele><time>2026-04-18T14:48:45.674Z</time></trkpt><trkpt lat="9.6530476" lon="-75.4740335"><ele>23.833333333333332</ele><time>2026-04-18T14:48:46.677Z</time></trkpt><trkpt lat="9.6530709" lon="-75.4739593"><ele>24.0</ele><time>2026-04-18T14:48:47.674Z</time></trkpt><trkpt lat="9.6530877" lon="-75.4738874"><ele>24.0</ele><time>2026-04-18T14:48:48.677Z</time></trkpt><trkpt lat="9.6531081" lon="-75.4738164"><ele>24.0</ele><time>2026-04-18T14:48:49.679Z</time></trkpt><trkpt lat="9.6531302" lon="-75.4737415"><ele>24.0</ele><time>2026-04-18T14:48:50.677Z</time></trkpt><trkpt lat="9.653151" lon="-75.473669"><ele>24.0</ele><time>2026-04-18T14:48:51.675Z</time></trkpt><trkpt lat="9.6531747" lon="-75.4735967"><ele>24.0</ele><time>2026-04-18T14:48:52.675Z</time></trkpt><trkpt lat="9.6531971" lon="-75.4735213"><ele>24.0</ele><time>2026-04-18T14:48:53.674Z</time></trkpt><trkpt lat="9.6532187" lon="-75.4734467"><ele>24.166666666666668</ele><time>2026-04-18T14:48:54.674Z</time></trkpt><trkpt lat="9.6532434" lon="-75.4733698"><ele>24.333333333333336</ele><time>2026-04-18T14:48:55.675Z</time></trkpt><trkpt lat="9.6532629" lon="-75.4732951"><ele>24.5</ele><time>2026-04-18T14:48:56.677Z</time></trkpt><trkpt lat="9.6532849" lon="-75.4732229"><ele>24.666666666666668</ele><time>2026-04-18T14:48:57.675Z</time></trkpt><trkpt lat="9.6533072" lon="-75.4731483"><ele>24.833333333333336</ele><time>2026-04-18T14:48:58.676Z</time></trkpt><trkpt lat="9.6533253" lon="-75.4730741"><ele>25.0</ele><time>2026-04-18T14:48:59.676Z</time></trkpt><trkpt lat="9.6533477" lon="-75.4729982"><ele>25.000000000000004</ele><time>2026-04-18T14:49:00.675Z</time></trkpt><trkpt lat="9.6533705" lon="-75.4729228"><ele>25.0</ele><time>2026-04-18T14:49:01.673Z</time></trkpt><trkpt lat="9.6533926" lon="-75.4728503"><ele>25.0</ele><time>2026-04-18T14:49:02.672Z</time></trkpt><trkpt lat="9.6534135" lon="-75.4727771"><ele>25.0</ele><time>2026-04-18T14:49:03.681Z</time></trkpt><trkpt lat="9.6534355" lon="-75.472704"><ele>25.000000000000004</ele><time>2026-04-18T14:49:04.673Z</time></trkpt><trkpt lat="9.6534572" lon="-75.4726309"><ele>25.0</ele><time>2026-04-18T14:49:05.673Z</time></trkpt><trkpt lat="9.6534812" lon="-75.4725552"><ele>25.000000000000004</ele><time>2026-04-18T14:49:06.675Z</time></trkpt><trkpt lat="9.6535026" lon="-75.4724816"><ele>25.0</ele><time>2026-04-18T14:49:07.676Z</time></trkpt><trkpt lat="9.6535235" lon="-75.4724072"><ele>25.0</ele><time>2026-04-18T14:49:08.681Z</time></trkpt><trkpt lat="9.6535447" lon="-75.4723363"><ele>25.0</ele><time>2026-04-18T14:49:09.682Z</time></trkpt><trkpt lat="9.6535654" lon="-75.4722637"><ele>25.000000000000004</ele><time>2026-04-18T14:49:10.675Z</time></trkpt><trkpt lat="9.6535886" lon="-75.4721908"><ele>25.0</ele><time>2026-04-18T14:49:11.682Z</time></trkpt><trkpt lat="9.6536109" lon="-75.4721167"><ele>25.142857142857146</ele><time>2026-04-18T14:49:12.676Z</time></trkpt><trkpt lat="9.6536312" lon="-75.4720483"><ele>25.285714285714285</ele><time>2026-04-18T14:49:13.671Z</time></trkpt><trkpt lat="9.653654" lon="-75.4719786"><ele>25.42857142857143</ele><time>2026-04-18T14:49:14.681Z</time></trkpt><trkpt lat="9.6536713" lon="-75.4719068"><ele>25.571428571428573</ele><time>2026-04-18T14:49:15.674Z</time></trkpt><trkpt lat="9.65369" lon="-75.4718398"><ele>25.714285714285715</ele><time>2026-04-18T14:49:16.673Z</time></trkpt><trkpt lat="9.6537078" lon="-75.4717652"><ele>25.857142857142858</ele><time>2026-04-18T14:49:17.679Z</time></trkpt><trkpt lat="9.6537279" lon="-75.4716944"><ele>26.0</ele><time>2026-04-18T14:49:18.679Z</time></trkpt><trkpt lat="9.6537451" lon="-75.4716272"><ele>26.0</ele><time>2026-04-18T14:49:19.672Z</time></trkpt><trkpt lat="9.6537668" lon="-75.4715528"><ele>26.0</ele><time>2026-04-18T14:49:20.674Z</time></trkpt><trkpt lat="9.6537858" lon="-75.4714845"><ele>26.0</ele><time>2026-04-18T14:49:21.673Z</time></trkpt><trkpt lat="9.6538032" lon="-75.4714139"><ele>26.0</ele><time>2026-04-18T14:49:22.67Z</time></trkpt><trkpt lat="9.6538244" lon="-75.4713488"><ele>26.0</ele><time>2026-04-18T14:49:23.673Z</time></trkpt><trkpt lat="9.6538523" lon="-75.4712782"><ele>26.0</ele><time>2026-04-18T14:49:24.676Z</time></trkpt><trkpt lat="9.6538697" lon="-75.4712126"><ele>26.0</ele><time>2026-04-18T14:49:25.681Z</time></trkpt><trkpt lat="9.653891" lon="-75.471143"><ele>25.857142857142858</ele><time>2026-04-18T14:49:26.676Z</time></trkpt><trkpt lat="9.6539081" lon="-75.471077"><ele>25.714285714285715</ele><time>2026-04-18T14:49:27.68Z</time></trkpt><trkpt lat="9.6539271" lon="-75.4710106"><ele>25.571428571428573</ele><time>2026-04-18T14:49:28.679Z</time></trkpt><trkpt lat="9.6539442" lon="-75.4709436"><ele>25.42857142857143</ele><time>2026-04-18T14:49:29.67Z</time></trkpt><trkpt lat="9.6539683" lon="-75.4708747"><ele>25.285714285714285</ele><time>2026-04-18T14:49:30.675Z</time></trkpt><trkpt lat="9.6539829" lon="-75.4708054"><ele>25.142857142857146</ele><time>2026-04-18T14:49:31.671Z</time></trkpt><trkpt lat="9.6540022" lon="-75.4707362"><ele>25.0</ele><time>2026-04-18T14:49:32.672Z</time></trkpt><trkpt lat="9.6540249" lon="-75.4706686"><ele>25.000000000000004</ele><time>2026-04-18T14:49:33.673Z</time></trkpt><trkpt lat="9.6540475" lon="-75.4705972"><ele>25.0</ele><time>2026-04-18T14:49:34.674Z</time></trkpt><trkpt lat="9.6540692" lon="-75.470529"><ele>25.0</ele><time>2026-04-18T14:49:35.67Z</time></trkpt><trkpt lat="9.6540878" lon="-75.4704643"><ele>25.0</ele><time>2026-04-18T14:49:36.677Z</time></trkpt><trkpt lat="9.654107" lon="-75.470395"><ele>25.0</ele><time>2026-04-18T14:49:37.672Z</time></trkpt><trkpt lat="9.6541235" lon="-75.4703262"><ele>25.000000000000004</ele><time>2026-04-18T14:49:38.675Z</time></trkpt><trkpt lat="9.6541428" lon="-75.4702538"><ele>25.0</ele><time>2026-04-18T14:49:39.677Z</time></trkpt><trkpt lat="9.6541642" lon="-75.4701802"><ele>24.857142857142858</ele><time>2026-04-18T14:49:40.676Z</time></trkpt><trkpt lat="9.6541859" lon="-75.4701088"><ele>24.714285714285715</ele><time>2026-04-18T14:49:41.672Z</time></trkpt><trkpt lat="9.6542067" lon="-75.4700403"><ele>24.57142857142857</ele><time>2026-04-18T14:49:42.674Z</time></trkpt><trkpt lat="9.6542301" lon="-75.4699697"><ele>24.42857142857143</ele><time>2026-04-18T14:49:43.675Z</time></trkpt><trkpt lat="9.6542523" lon="-75.4698989"><ele>24.285714285714285</ele><time>2026-04-18T14:49:44.675Z</time></trkpt><trkpt lat="9.654275" lon="-75.4698306"><ele>24.142857142857142</ele><time>2026-04-18T14:49:45.676Z</time></trkpt><trkpt lat="9.6542968" lon="-75.4697592"><ele>24.0</ele><time>2026-04-18T14:49:46.679Z</time></trkpt><trkpt lat="9.6543167" lon="-75.4696898"><ele>23.999999999999996</ele><time>2026-04-18T14:49:47.676Z</time></trkpt><trkpt lat="9.6543359" lon="-75.4696234"><ele>24.0</ele><time>2026-04-18T14:49:48.678Z</time></trkpt><trkpt lat="9.6543548" lon="-75.4695538"><ele>24.0</ele><time>2026-04-18T14:49:49.676Z</time></trkpt><trkpt lat="9.6543741" lon="-75.4694822"><ele>24.0</ele><time>2026-04-18T14:49:50.677Z</time></trkpt><trkpt lat="9.6543959" lon="-75.4694091"><ele>24.0</ele><time>2026-04-18T14:49:51.677Z</time></trkpt><trkpt lat="9.6544127" lon="-75.4693404"><ele>23.999999999999996</ele><time>2026-04-18T14:49:52.677Z</time></trkpt><trkpt lat="9.6544313" lon="-75.4692692"><ele>24.0</ele><time>2026-04-18T14:49:53.672Z</time></trkpt><trkpt lat="9.6544524" lon="-75.4691999"><ele>24.142857142857142</ele><time>2026-04-18T14:49:54.674Z</time></trkpt><trkpt lat="9.6544732" lon="-75.4691335"><ele>24.285714285714285</ele><time>2026-04-18T14:49:55.677Z</time></trkpt><trkpt lat="9.6544925" lon="-75.4690661"><ele>24.42857142857143</ele><time>2026-04-18T14:49:56.673Z</time></trkpt><trkpt lat="9.6545147" lon="-75.4689962"><ele>24.57142857142857</ele><time>2026-04-18T14:49:57.673Z</time></trkpt><trkpt lat="9.6545334" lon="-75.4689272"><ele>24.714285714285715</ele><time>2026-04-18T14:49:58.68Z</time></trkpt><trkpt lat="9.6545547" lon="-75.4688572"><ele>24.857142857142858</ele><time>2026-04-18T14:49:59.675Z</time></trkpt><trkpt lat="9.6545747" lon="-75.4687897"><ele>25.0</ele><time>2026-04-18T14:50:00.681Z</time></trkpt><trkpt lat="9.6545922" lon="-75.4687252"><ele>25.000000000000004</ele><time>2026-04-18T14:50:01.675Z</time></trkpt><trkpt lat="9.6546105" lon="-75.4686605"><ele>25.0</ele><time>2026-04-18T14:50:02.677Z</time></trkpt><trkpt lat="9.6546304" lon="-75.4685956"><ele>25.0</ele><time>2026-04-18T14:50:03.673Z</time></trkpt><trkpt lat="9.6546486" lon="-75.4685301"><ele>25.0</ele><time>2026-04-18T14:50:04.671Z</time></trkpt><trkpt lat="9.6546643" lon="-75.4684668"><ele>25.0</ele><time>2026-04-18T14:50:05.674Z</time></trkpt><trkpt lat="9.6546824" lon="-75.4684026"><ele>25.000000000000004</ele><time>2026-04-18T14:50:06.673Z</time></trkpt><trkpt lat="9.6547009" lon="-75.468338"><ele>25.0</ele><time>2026-04-18T14:50:07.671Z</time></trkpt><trkpt lat="9.6547171" lon="-75.4682741"><ele>25.000000000000004</ele><time>2026-04-18T14:50:08.674Z</time></trkpt><trkpt lat="9.6547384" lon="-75.4682107"><ele>25.0</ele><time>2026-04-18T14:50:09.674Z</time></trkpt><trkpt lat="9.6547598" lon="-75.4681458"><ele>25.0</ele><time>2026-04-18T14:50:10.673Z</time></trkpt><trkpt lat="9.6547827" lon="-75.46808"><ele>25.0</ele><time>2026-04-18T14:50:11.675Z</time></trkpt><trkpt lat="9.6548048" lon="-75.4680136"><ele>25.0</ele><time>2026-04-18T14:50:12.674Z</time></trkpt><trkpt lat="9.6548248" lon="-75.4679465"><ele>25.000000000000004</ele><time>2026-04-18T14:50:13.673Z</time></trkpt><trkpt lat="9.6548466" lon="-75.4678778"><ele>25.0</ele><time>2026-04-18T14:50:14.679Z</time></trkpt><trkpt lat="9.6548705" lon="-75.4678094"><ele>25.714285714285715</ele><time>2026-04-18T14:50:15.674Z</time></trkpt><trkpt lat="9.6548918" lon="-75.4677412"><ele>26.42857142857143</ele><time>2026-04-18T14:50:16.677Z</time></trkpt><trkpt lat="9.6549126" lon="-75.4676702"><ele>27.142857142857146</ele><time>2026-04-18T14:50:17.674Z</time></trkpt><trkpt lat="9.6549261" lon="-75.4676012"><ele>27.857142857142858</ele><time>2026-04-18T14:50:18.677Z</time></trkpt><trkpt lat="9.654939" lon="-75.4675309"><ele>28.57142857142857</ele><time>2026-04-18T14:50:19.677Z</time></trkpt><trkpt lat="9.6549482" lon="-75.4674658"><ele>29.28571428571429</ele><time>2026-04-18T14:50:20.678Z</time></trkpt><trkpt lat="9.6549522" lon="-75.4674001"><ele>30.0</ele><time>2026-04-18T14:50:21.679Z</time></trkpt><trkpt lat="9.6549257" lon="-75.4672656"><ele>30.0</ele><time>2026-04-18T14:50:23.677Z</time></trkpt><trkpt lat="9.6549083" lon="-75.4671955"><ele>30.0</ele><time>2026-04-18T14:50:24.677Z</time></trkpt><trkpt lat="9.6548859" lon="-75.4671233"><ele>30.0</ele><time>2026-04-18T14:50:25.675Z</time></trkpt><trkpt lat="9.6548686" lon="-75.4670544"><ele>30.0</ele><time>2026-04-18T14:50:26.679Z</time></trkpt><trkpt lat="9.6548596" lon="-75.4669838"><ele>30.0</ele><time>2026-04-18T14:50:27.673Z</time></trkpt><trkpt lat="9.6548626" lon="-75.4669136"><ele>30.0</ele><time>2026-04-18T14:50:28.678Z</time></trkpt><trkpt lat="9.6548862" lon="-75.4668422"><ele>30.0</ele><time>2026-04-18T14:50:29.677Z</time></trkpt><trkpt lat="9.654921" lon="-75.4667745"><ele>30.142857142857146</ele><time>2026-04-18T14:50:30.678Z</time></trkpt><trkpt lat="9.654963" lon="-75.4667223"><ele>30.285714285714285</ele><time>2026-04-18T14:50:31.678Z</time></trkpt><trkpt lat="9.6550254" lon="-75.4666803"><ele>30.42857142857143</ele><time>2026-04-18T14:50:32.677Z</time></trkpt><trkpt lat="9.655096" lon="-75.4666602"><ele>30.571428571428573</ele><time>2026-04-18T14:50:33.677Z</time></trkpt><trkpt lat="9.6551669" lon="-75.4666605"><ele>30.714285714285715</ele><time>2026-04-18T14:50:34.679Z</time></trkpt><trkpt lat="9.6552357" lon="-75.4666787"><ele>30.857142857142858</ele><time>2026-04-18T14:50:35.675Z</time></trkpt><trkpt lat="9.6552978" lon="-75.4667087"><ele>31.0</ele><time>2026-04-18T14:50:36.677Z</time></trkpt><trkpt lat="9.655355" lon="-75.4667499"><ele>31.0</ele><time>2026-04-18T14:50:37.676Z</time></trkpt><trkpt lat="9.6554014" lon="-75.4668029"><ele>31.000000000000004</ele><time>2026-04-18T14:50:38.675Z</time></trkpt><trkpt lat="9.6554469" lon="-75.4668631"><ele>31.0</ele><time>2026-04-18T14:50:39.678Z</time></trkpt><trkpt lat="9.6554901" lon="-75.4669254"><ele>31.0</ele><time>2026-04-18T14:50:40.68Z</time></trkpt><trkpt lat="9.6555343" lon="-75.4669847"><ele>31.000000000000004</ele><time>2026-04-18T14:50:41.678Z</time></trkpt><trkpt lat="9.6555802" lon="-75.4670478"><ele>31.0</ele><time>2026-04-18T14:50:42.679Z</time></trkpt><trkpt lat="9.6556356" lon="-75.4671026"><ele>31.0</ele><time>2026-04-18T14:50:43.675Z</time></trkpt><trkpt lat="9.6556927" lon="-75.4671531"><ele>31.0</ele><time>2026-04-18T14:50:44.67Z</time></trkpt><trkpt lat="9.6557525" lon="-75.4672059"><ele>31.000000000000004</ele><time>2026-04-18T14:50:45.671Z</time></trkpt><trkpt lat="9.6558144" lon="-75.4672479"><ele>31.0</ele><time>2026-04-18T14:50:46.671Z</time></trkpt><trkpt lat="9.6558798" lon="-75.4672821"><ele>31.0</ele><time>2026-04-18T14:50:47.671Z</time></trkpt><trkpt lat="9.6559448" lon="-75.4673134"><ele>31.000000000000004</ele><time>2026-04-18T14:50:48.675Z</time></trkpt><trkpt lat="9.6560096" lon="-75.4673422"><ele>31.0</ele><time>2026-04-18T14:50:49.675Z</time></trkpt><trkpt lat="9.6560731" lon="-75.4673722"><ele>31.0</ele><time>2026-04-18T14:50:50.684Z</time></trkpt><trkpt lat="9.6561333" lon="-75.4673981"><ele>31.0</ele><time>2026-04-18T14:50:51.675Z</time></trkpt><trkpt lat="9.6561973" lon="-75.4674251"><ele>31.000000000000004</ele><time>2026-04-18T14:50:52.672Z</time></trkpt><trkpt lat="9.6562597" lon="-75.4674529"><ele>31.0</ele><time>2026-04-18T14:50:53.673Z</time></trkpt><trkpt lat="9.6563277" lon="-75.4674799"><ele>31.0</ele><time>2026-04-18T14:50:54.675Z</time></trkpt><trkpt lat="9.6563884" lon="-75.4675063"><ele>31.000000000000004</ele><time>2026-04-18T14:50:55.673Z</time></trkpt><trkpt lat="9.6564545" lon="-75.4675264"><ele>31.0</ele><time>2026-04-18T14:50:56.672Z</time></trkpt><trkpt lat="9.6565169" lon="-75.4675485"><ele>31.0</ele><time>2026-04-18T14:50:57.674Z</time></trkpt><trkpt lat="9.6565807" lon="-75.4675746"><ele>31.0</ele><time>2026-04-18T14:50:58.68Z</time></trkpt><trkpt lat="9.6566474" lon="-75.4676002"><ele>31.000000000000004</ele><time>2026-04-18T14:50:59.673Z</time></trkpt><trkpt lat="9.6567102" lon="-75.4676209"><ele>31.0</ele><time>2026-04-18T14:51:00.671Z</time></trkpt><trkpt lat="9.6567727" lon="-75.4676478"><ele>31.0</ele><time>2026-04-18T14:51:01.673Z</time></trkpt><trkpt lat="9.6568393" lon="-75.4676733"><ele>31.000000000000004</ele><time>2026-04-18T14:51:02.674Z</time></trkpt><trkpt lat="9.6569072" lon="-75.4676945"><ele>31.0</ele><time>2026-04-18T14:51:03.672Z</time></trkpt><trkpt lat="9.6569727" lon="-75.4677129"><ele>31.0</ele><time>2026-04-18T14:51:04.676Z</time></trkpt><trkpt lat="9.6570404" lon="-75.4677311"><ele>31.42857142857143</ele><time>2026-04-18T14:51:05.675Z</time></trkpt><trkpt lat="9.6571089" lon="-75.4677484"><ele>31.85714285714286</ele><time>2026-04-18T14:51:06.671Z</time></trkpt><trkpt lat="9.6571767" lon="-75.4677695"><ele>32.285714285714285</ele><time>2026-04-18T14:51:07.677Z</time></trkpt><trkpt lat="9.6572488" lon="-75.4677864"><ele>32.714285714285715</ele><time>2026-04-18T14:51:08.675Z</time></trkpt><trkpt lat="9.6573131" lon="-75.4678078"><ele>33.14285714285714</ele><time>2026-04-18T14:51:09.674Z</time></trkpt><trkpt lat="9.6573835" lon="-75.4678311"><ele>33.57142857142857</ele><time>2026-04-18T14:51:10.675Z</time></trkpt><trkpt lat="9.6574521" lon="-75.4678493"><ele>34.0</ele><time>2026-04-18T14:51:11.673Z</time></trkpt><trkpt lat="9.6575211" lon="-75.4678694"><ele>34.0</ele><time>2026-04-18T14:51:12.673Z</time></trkpt><trkpt lat="9.6575937" lon="-75.4678945"><ele>34.0</ele><time>2026-04-18T14:51:13.677Z</time></trkpt><trkpt lat="9.6576623" lon="-75.4679147"><ele>34.0</ele><time>2026-04-18T14:51:14.673Z</time></trkpt><trkpt lat="9.6577292" lon="-75.4679421"><ele>34.0</ele><time>2026-04-18T14:51:15.677Z</time></trkpt><trkpt lat="9.6578011" lon="-75.4679682"><ele>34.0</ele><time>2026-04-18T14:51:16.674Z</time></trkpt><trkpt lat="9.6578709" lon="-75.4679948"><ele>34.0</ele><time>2026-04-18T14:51:17.677Z</time></trkpt><trkpt lat="9.6579453" lon="-75.4680242"><ele>34.333333333333336</ele><time>2026-04-18T14:51:18.678Z</time></trkpt><trkpt lat="9.6580187" lon="-75.4680514"><ele>34.66666666666667</ele><time>2026-04-18T14:51:19.677Z</time></trkpt><trkpt lat="9.6580905" lon="-75.4680839"><ele>35.0</ele><time>2026-04-18T14:51:20.675Z</time></trkpt><trkpt lat="9.6581641" lon="-75.4681123"><ele>35.333333333333336</ele><time>2026-04-18T14:51:21.673Z</time></trkpt><trkpt lat="9.6582433" lon="-75.468145"><ele>35.666666666666664</ele><time>2026-04-18T14:51:22.673Z</time></trkpt><trkpt lat="9.6583198" lon="-75.4681776"><ele>36.0</ele><time>2026-04-18T14:51:23.674Z</time></trkpt><trkpt lat="9.6583974" lon="-75.4682099"><ele>36.0</ele><time>2026-04-18T14:51:24.67Z</time></trkpt><trkpt lat="9.6584747" lon="-75.46825"><ele>36.0</ele><time>2026-04-18T14:51:25.676Z</time></trkpt><trkpt lat="9.6585556" lon="-75.4682887"><ele>36.0</ele><time>2026-04-18T14:51:26.673Z</time></trkpt><trkpt lat="9.6586342" lon="-75.4683298"><ele>36.0</ele><time>2026-04-18T14:51:27.678Z</time></trkpt><trkpt lat="9.6587161" lon="-75.4683726"><ele>36.0</ele><time>2026-04-18T14:51:28.676Z</time></trkpt><trkpt lat="9.6588025" lon="-75.4684143"><ele>36.0</ele><time>2026-04-18T14:51:29.675Z</time></trkpt><trkpt lat="9.6588875" lon="-75.4684546"><ele>36.0</ele><time>2026-04-18T14:51:30.673Z</time></trkpt><trkpt lat="9.6589707" lon="-75.4684977"><ele>36.0</ele><time>2026-04-18T14:51:31.673Z</time></trkpt><trkpt lat="9.6590547" lon="-75.4685372"><ele>36.0</ele><time>2026-04-18T14:51:32.672Z</time></trkpt><trkpt lat="9.659142" lon="-75.4685738"><ele>36.0</ele><time>2026-04-18T14:51:33.678Z</time></trkpt><trkpt lat="9.6592308" lon="-75.4686135"><ele>36.0</ele><time>2026-04-18T14:51:34.675Z</time></trkpt><trkpt lat="9.6593181" lon="-75.4686548"><ele>36.0</ele><time>2026-04-18T14:51:35.673Z</time></trkpt><trkpt lat="9.6594079" lon="-75.4686943"><ele>36.0</ele><time>2026-04-18T14:51:36.672Z</time></trkpt><trkpt lat="9.6594941" lon="-75.4687341"><ele>36.0</ele><time>2026-04-18T14:51:37.674Z</time></trkpt><trkpt lat="9.6595777" lon="-75.468775"><ele>36.0</ele><time>2026-04-18T14:51:38.673Z</time></trkpt><trkpt lat="9.6596638" lon="-75.4688138"><ele>34.4</ele><time>2026-04-18T14:51:39.672Z</time></trkpt><trkpt lat="9.6597509" lon="-75.4688517"><ele>32.8</ele><time>2026-04-18T14:51:40.674Z</time></trkpt><trkpt lat="9.6598366" lon="-75.4688887"><ele>31.199999999999996</ele><time>2026-04-18T14:51:41.674Z</time></trkpt><trkpt lat="9.6599191" lon="-75.4689303"><ele>29.599999999999998</ele><time>2026-04-18T14:51:42.677Z</time></trkpt><trkpt lat="9.6600029" lon="-75.4689687"><ele>28.0</ele><time>2026-04-18T14:51:43.67Z</time></trkpt><trkpt lat="9.6600851" lon="-75.4690044"><ele>28.000000000000004</ele><time>2026-04-18T14:51:44.675Z</time></trkpt><trkpt lat="9.6601668" lon="-75.469045"><ele>28.0</ele><time>2026-04-18T14:51:45.672Z</time></trkpt><trkpt lat="9.6602493" lon="-75.4690835"><ele>28.0</ele><time>2026-04-18T14:51:46.671Z</time></trkpt><trkpt lat="9.6603293" lon="-75.4691217"><ele>28.0</ele><time>2026-04-18T14:51:47.673Z</time></trkpt><trkpt lat="9.6604104" lon="-75.4691607"><ele>28.000000000000004</ele><time>2026-04-18T14:51:48.67Z</time></trkpt><trkpt lat="9.660487" lon="-75.4691995"><ele>28.0</ele><time>2026-04-18T14:51:49.674Z</time></trkpt><trkpt lat="9.6605648" lon="-75.4692384"><ele>28.833333333333336</ele><time>2026-04-18T14:51:50.673Z</time></trkpt><trkpt lat="9.6606415" lon="-75.4692746"><ele>29.666666666666668</ele><time>2026-04-18T14:51:51.674Z</time></trkpt><trkpt lat="9.6607167" lon="-75.4693122"><ele>30.5</ele><time>2026-04-18T14:51:52.676Z</time></trkpt><trkpt lat="9.660794" lon="-75.4693465"><ele>31.333333333333336</ele><time>2026-04-18T14:51:53.676Z</time></trkpt><trkpt lat="9.6608705" lon="-75.4693785"><ele>32.166666666666664</ele><time>2026-04-18T14:51:54.677Z</time></trkpt><trkpt lat="9.6609459" lon="-75.4694136"><ele>33.0</ele><time>2026-04-18T14:51:55.677Z</time></trkpt><trkpt lat="9.6610208" lon="-75.4694472"><ele>33.0</ele><time>2026-04-18T14:51:56.678Z</time></trkpt><trkpt lat="9.6610954" lon="-75.4694855"><ele>33.0</ele><time>2026-04-18T14:51:57.674Z</time></trkpt><trkpt lat="9.6611694" lon="-75.4695202"><ele>33.0</ele><time>2026-04-18T14:51:58.675Z</time></trkpt><trkpt lat="9.6612402" lon="-75.4695563"><ele>33.0</ele><time>2026-04-18T14:51:59.674Z</time></trkpt><trkpt lat="9.6613147" lon="-75.4695894"><ele>33.0</ele><time>2026-04-18T14:52:00.675Z</time></trkpt><trkpt lat="9.6613875" lon="-75.469623"><ele>33.0</ele><time>2026-04-18T14:52:01.675Z</time></trkpt><trkpt lat="9.6614638" lon="-75.4696573"><ele>33.166666666666664</ele><time>2026-04-18T14:52:02.675Z</time></trkpt><trkpt lat="9.6615341" lon="-75.4696904"><ele>33.333333333333336</ele><time>2026-04-18T14:52:03.676Z</time></trkpt><trkpt lat="9.6616067" lon="-75.4697281"><ele>33.5</ele><time>2026-04-18T14:52:04.672Z</time></trkpt><trkpt lat="9.661679" lon="-75.4697649"><ele>33.66666666666667</ele><time>2026-04-18T14:52:05.672Z</time></trkpt><trkpt lat="9.6617512" lon="-75.4698006"><ele>33.833333333333336</ele><time>2026-04-18T14:52:06.677Z</time></trkpt><trkpt lat="9.6618238" lon="-75.4698351"><ele>34.0</ele><time>2026-04-18T14:52:07.673Z</time></trkpt><trkpt lat="9.6618954" lon="-75.469868"><ele>34.16666666666667</ele><time>2026-04-18T14:52:08.674Z</time></trkpt><trkpt lat="9.6619706" lon="-75.4699053"><ele>34.333333333333336</ele><time>2026-04-18T14:52:09.676Z</time></trkpt><trkpt lat="9.6620466" lon="-75.4699397"><ele>34.5</ele><time>2026-04-18T14:52:10.672Z</time></trkpt><trkpt lat="9.6621208" lon="-75.4699759"><ele>34.666666666666664</ele><time>2026-04-18T14:52:11.676Z</time></trkpt><trkpt lat="9.662194" lon="-75.4700141"><ele>34.83333333333333</ele><time>2026-04-18T14:52:12.675Z</time></trkpt><trkpt lat="9.662269" lon="-75.4700512"><ele>35.0</ele><time>2026-04-18T14:52:13.677Z</time></trkpt><trkpt lat="9.6623461" lon="-75.4700901"><ele>35.0</ele><time>2026-04-18T14:52:14.676Z</time></trkpt><trkpt lat="9.6624229" lon="-75.4701275"><ele>35.0</ele><time>2026-04-18T14:52:15.675Z</time></trkpt><trkpt lat="9.6624971" lon="-75.47016"><ele>35.0</ele><time>2026-04-18T14:52:16.678Z</time></trkpt><trkpt lat="9.662572" lon="-75.4701985"><ele>35.0</ele><time>2026-04-18T14:52:17.674Z</time></trkpt><trkpt lat="9.6626494" lon="-75.4702345"><ele>35.0</ele><time>2026-04-18T14:52:18.674Z</time></trkpt><trkpt lat="9.6627297" lon="-75.4702704"><ele>35.0</ele><time>2026-04-18T14:52:19.673Z</time></trkpt><trkpt lat="9.6628048" lon="-75.4703105"><ele>35.0</ele><time>2026-04-18T14:52:20.673Z</time></trkpt><trkpt lat="9.6628836" lon="-75.4703443"><ele>35.0</ele><time>2026-04-18T14:52:21.675Z</time></trkpt><trkpt lat="9.66296" lon="-75.4703804"><ele>35.0</ele><time>2026-04-18T14:52:22.674Z</time></trkpt><trkpt lat="9.6630395" lon="-75.4704185"><ele>35.0</ele><time>2026-04-18T14:52:23.676Z</time></trkpt><trkpt lat="9.6631196" lon="-75.4704557"><ele>35.0</ele><time>2026-04-18T14:52:24.678Z</time></trkpt><trkpt lat="9.6631997" lon="-75.4704946"><ele>35.0</ele><time>2026-04-18T14:52:25.671Z</time></trkpt><trkpt lat="9.66328" lon="-75.4705328"><ele>34.33333333333333</ele><time>2026-04-18T14:52:26.679Z</time></trkpt><trkpt lat="9.6633587" lon="-75.4705708"><ele>33.666666666666664</ele><time>2026-04-18T14:52:27.676Z</time></trkpt><trkpt lat="9.6634368" lon="-75.4706118"><ele>33.0</ele><time>2026-04-18T14:52:28.673Z</time></trkpt><trkpt lat="9.6635149" lon="-75.4706481"><ele>32.333333333333336</ele><time>2026-04-18T14:52:29.677Z</time></trkpt><trkpt lat="9.6635898" lon="-75.4706859"><ele>31.666666666666668</ele><time>2026-04-18T14:52:30.676Z</time></trkpt><trkpt lat="9.663671" lon="-75.4707205"><ele>31.0</ele><time>2026-04-18T14:52:31.674Z</time></trkpt><trkpt lat="9.6637499" lon="-75.4707555"><ele>30.666666666666668</ele><time>2026-04-18T14:52:32.671Z</time></trkpt><trkpt lat="9.6638268" lon="-75.4707926"><ele>30.333333333333336</ele><time>2026-04-18T14:52:33.676Z</time></trkpt><trkpt lat="9.6639022" lon="-75.4708283"><ele>30.0</ele><time>2026-04-18T14:52:34.676Z</time></trkpt><trkpt lat="9.6639775" lon="-75.4708623"><ele>29.666666666666664</ele><time>2026-04-18T14:52:35.673Z</time></trkpt><trkpt lat="9.6640534" lon="-75.4708991"><ele>29.333333333333332</ele><time>2026-04-18T14:52:36.678Z</time></trkpt><trkpt lat="9.6641281" lon="-75.4709387"><ele>29.0</ele><time>2026-04-18T14:52:37.676Z</time></trkpt><trkpt lat="9.6642021" lon="-75.4709768"><ele>28.999999999999996</ele><time>2026-04-18T14:52:38.676Z</time></trkpt><trkpt lat="9.6642753" lon="-75.4710117"><ele>29.0</ele><time>2026-04-18T14:52:39.675Z</time></trkpt><trkpt lat="9.6643509" lon="-75.4710479"><ele>29.0</ele><time>2026-04-18T14:52:40.67Z</time></trkpt><trkpt lat="9.6644254" lon="-75.4710812"><ele>29.0</ele><time>2026-04-18T14:52:41.675Z</time></trkpt><trkpt lat="9.664499" lon="-75.4711182"><ele>28.999999999999996</ele><time>2026-04-18T14:52:42.675Z</time></trkpt><trkpt lat="9.6645723" lon="-75.4711544"><ele>29.0</ele><time>2026-04-18T14:52:43.673Z</time></trkpt><trkpt lat="9.6646489" lon="-75.4711912"><ele>29.833333333333332</ele><time>2026-04-18T14:52:44.673Z</time></trkpt><trkpt lat="9.664723" lon="-75.4712285"><ele>30.666666666666664</ele><time>2026-04-18T14:52:45.675Z</time></trkpt><trkpt lat="9.6647996" lon="-75.4712624"><ele>31.5</ele><time>2026-04-18T14:52:46.675Z</time></trkpt><trkpt lat="9.6648742" lon="-75.4712995"><ele>32.333333333333336</ele><time>2026-04-18T14:52:47.677Z</time></trkpt><trkpt lat="9.6649513" lon="-75.4713368"><ele>33.16666666666667</ele><time>2026-04-18T14:52:48.675Z</time></trkpt><trkpt lat="9.6650276" lon="-75.4713727"><ele>34.0</ele><time>2026-04-18T14:52:49.673Z</time></trkpt><trkpt lat="9.665103" lon="-75.4714102"><ele>34.0</ele><time>2026-04-18T14:52:50.675Z</time></trkpt><trkpt lat="9.6651793" lon="-75.4714499"><ele>34.0</ele><time>2026-04-18T14:52:51.674Z</time></trkpt><trkpt lat="9.665255" lon="-75.4714852"><ele>34.0</ele><time>2026-04-18T14:52:52.674Z</time></trkpt><trkpt lat="9.6653319" lon="-75.4715211"><ele>34.0</ele><time>2026-04-18T14:52:53.678Z</time></trkpt><trkpt lat="9.6654101" lon="-75.4715558"><ele>34.0</ele><time>2026-04-18T14:52:54.673Z</time></trkpt><trkpt lat="9.6654882" lon="-75.4715925"><ele>34.0</ele><time>2026-04-18T14:52:55.675Z</time></trkpt><trkpt lat="9.665571" lon="-75.47163"><ele>33.5</ele><time>2026-04-18T14:52:56.675Z</time></trkpt><trkpt lat="9.6656472" lon="-75.4716703"><ele>33.0</ele><time>2026-04-18T14:52:57.675Z</time></trkpt><trkpt lat="9.6657278" lon="-75.471707"><ele>32.5</ele><time>2026-04-18T14:52:58.675Z</time></trkpt><trkpt lat="9.6658064" lon="-75.471749"><ele>32.0</ele><time>2026-04-18T14:52:59.677Z</time></trkpt><trkpt lat="9.6658867" lon="-75.4717866"><ele>31.500000000000004</ele><time>2026-04-18T14:53:00.678Z</time></trkpt><trkpt lat="9.6659679" lon="-75.4718242"><ele>31.0</ele><time>2026-04-18T14:53:01.671Z</time></trkpt><trkpt lat="9.6660491" lon="-75.4718626"><ele>30.6</ele><time>2026-04-18T14:53:02.674Z</time></trkpt><trkpt lat="9.6661286" lon="-75.4719026"><ele>30.200000000000003</ele><time>2026-04-18T14:53:03.674Z</time></trkpt><trkpt lat="9.6662091" lon="-75.4719441"><ele>29.799999999999997</ele><time>2026-04-18T14:53:04.669Z</time></trkpt><trkpt lat="9.6662932" lon="-75.4719861"><ele>29.4</ele><time>2026-04-18T14:53:05.672Z</time></trkpt><trkpt lat="9.6663806" lon="-75.4720223"><ele>29.0</ele><time>2026-04-18T14:53:06.676Z</time></trkpt><trkpt lat="9.6664642" lon="-75.4720631"><ele>29.0</ele><time>2026-04-18T14:53:07.674Z</time></trkpt><trkpt lat="9.6665471" lon="-75.4721035"><ele>29.0</ele><time>2026-04-18T14:53:08.679Z</time></trkpt><trkpt lat="9.6666272" lon="-75.472147"><ele>29.0</ele><time>2026-04-18T14:53:09.674Z</time></trkpt><trkpt lat="9.666708" lon="-75.4721864"><ele>29.0</ele><time>2026-04-18T14:53:10.674Z</time></trkpt><trkpt lat="9.6667901" lon="-75.4722236"><ele>29.0</ele><time>2026-04-18T14:53:11.672Z</time></trkpt><trkpt lat="9.6668717" lon="-75.4722659"><ele>29.0</ele><time>2026-04-18T14:53:12.676Z</time></trkpt><trkpt lat="9.6669591" lon="-75.4723054"><ele>29.0</ele><time>2026-04-18T14:53:13.673Z</time></trkpt><trkpt lat="9.6670462" lon="-75.4723445"><ele>29.0</ele><time>2026-04-18T14:53:14.671Z</time></trkpt><trkpt lat="9.6671314" lon="-75.4723832"><ele>29.0</ele><time>2026-04-18T14:53:15.671Z</time></trkpt><trkpt lat="9.6672157" lon="-75.4724251"><ele>29.0</ele><time>2026-04-18T14:53:16.675Z</time></trkpt><trkpt lat="9.667303" lon="-75.4724668"><ele>29.0</ele><time>2026-04-18T14:53:17.674Z</time></trkpt><trkpt lat="9.6673886" lon="-75.4725081"><ele>29.0</ele><time>2026-04-18T14:53:18.67Z</time></trkpt><trkpt lat="9.6674713" lon="-75.4725483"><ele>29.0</ele><time>2026-04-18T14:53:19.673Z</time></trkpt><trkpt lat="9.6675574" lon="-75.472587"><ele>29.0</ele><time>2026-04-18T14:53:20.671Z</time></trkpt><trkpt lat="9.6676425" lon="-75.4726282"><ele>29.0</ele><time>2026-04-18T14:53:21.676Z</time></trkpt><trkpt lat="9.667722" lon="-75.4726663"><ele>29.0</ele><time>2026-04-18T14:53:22.677Z</time></trkpt><trkpt lat="9.6678059" lon="-75.4727027"><ele>29.0</ele><time>2026-04-18T14:53:23.668Z</time></trkpt><trkpt lat="9.6678908" lon="-75.4727422"><ele>29.0</ele><time>2026-04-18T14:53:24.674Z</time></trkpt><trkpt lat="9.6679743" lon="-75.4727805"><ele>29.0</ele><time>2026-04-18T14:53:25.672Z</time></trkpt><trkpt lat="9.6680489" lon="-75.4728217"><ele>29.0</ele><time>2026-04-18T14:53:26.68Z</time></trkpt><trkpt lat="9.668132" lon="-75.4728567"><ele>29.0</ele><time>2026-04-18T14:53:27.675Z</time></trkpt><trkpt lat="9.6682129" lon="-75.4729008"><ele>29.0</ele><time>2026-04-18T14:53:28.676Z</time></trkpt><trkpt lat="9.6682939" lon="-75.4729409"><ele>29.0</ele><time>2026-04-18T14:53:29.676Z</time></trkpt><trkpt lat="9.6683746" lon="-75.4729863"><ele>29.0</ele><time>2026-04-18T14:53:30.675Z</time></trkpt><trkpt lat="9.6684549" lon="-75.4730279"><ele>29.0</ele><time>2026-04-18T14:53:31.681Z</time></trkpt><trkpt lat="9.6685376" lon="-75.4730623"><ele>28.999999999999996</ele><time>2026-04-18T14:53:32.671Z</time></trkpt><trkpt lat="9.6686176" lon="-75.4731015"><ele>29.0</ele><time>2026-04-18T14:53:33.672Z</time></trkpt><trkpt lat="9.668697" lon="-75.4731407"><ele>29.0</ele><time>2026-04-18T14:53:34.671Z</time></trkpt><trkpt lat="9.6687761" lon="-75.4731798"><ele>29.0</ele><time>2026-04-18T14:53:35.676Z</time></trkpt><trkpt lat="9.6688533" lon="-75.4732171"><ele>28.999999999999996</ele><time>2026-04-18T14:53:36.671Z</time></trkpt><trkpt lat="9.6689346" lon="-75.4732541"><ele>29.0</ele><time>2026-04-18T14:53:37.673Z</time></trkpt><trkpt lat="9.6690099" lon="-75.4732917"><ele>28.999999999999996</ele><time>2026-04-18T14:53:38.671Z</time></trkpt><trkpt lat="9.6690855" lon="-75.4733306"><ele>29.0</ele><time>2026-04-18T14:53:39.671Z</time></trkpt><trkpt lat="9.6691601" lon="-75.4733673"><ele>29.0</ele><time>2026-04-18T14:53:40.677Z</time></trkpt><trkpt lat="9.6692366" lon="-75.4734064"><ele>29.0</ele><time>2026-04-18T14:53:41.676Z</time></trkpt><trkpt lat="9.6693105" lon="-75.473442"><ele>28.999999999999996</ele><time>2026-04-18T14:53:42.677Z</time></trkpt><trkpt lat="9.6693804" lon="-75.4734777"><ele>29.0</ele><time>2026-04-18T14:53:43.674Z</time></trkpt><trkpt lat="9.6694539" lon="-75.4735162"><ele>29.142857142857146</ele><time>2026-04-18T14:53:44.676Z</time></trkpt><trkpt lat="9.66952" lon="-75.4735498"><ele>29.285714285714285</ele><time>2026-04-18T14:53:45.676Z</time></trkpt><trkpt lat="9.6695877" lon="-75.4735801"><ele>29.42857142857143</ele><time>2026-04-18T14:53:46.675Z</time></trkpt><trkpt lat="9.6696557" lon="-75.4736134"><ele>29.571428571428573</ele><time>2026-04-18T14:53:47.681Z</time></trkpt><trkpt lat="9.6697229" lon="-75.4736346"><ele>29.714285714285715</ele><time>2026-04-18T14:53:48.683Z</time></trkpt><trkpt lat="9.6697892" lon="-75.4736664"><ele>29.857142857142858</ele><time>2026-04-18T14:53:49.682Z</time></trkpt><trkpt lat="9.6698555" lon="-75.4736951"><ele>30.0</ele><time>2026-04-18T14:53:50.676Z</time></trkpt><trkpt lat="9.669917" lon="-75.4737272"><ele>30.0</ele><time>2026-04-18T14:53:51.677Z</time></trkpt><trkpt lat="9.6699755" lon="-75.4737595"><ele>30.0</ele><time>2026-04-18T14:53:52.674Z</time></trkpt><trkpt lat="9.670082" lon="-75.4738163"><ele>30.0</ele><time>2026-04-18T14:53:54.676Z</time></trkpt><trkpt lat="9.6701403" lon="-75.4738448"><ele>30.0</ele><time>2026-04-18T14:53:55.673Z</time></trkpt><trkpt lat="9.6702447" lon="-75.4738973"><ele>30.0</ele><time>2026-04-18T14:53:57.668Z</time></trkpt><trkpt lat="9.6703474" lon="-75.47394"><ele>31.5</ele><time>2026-04-18T14:53:59.677Z</time></trkpt><trkpt lat="9.6704479" lon="-75.4739862"><ele>33.0</ele><time>2026-04-18T14:54:01.672Z</time></trkpt><trkpt lat="9.6705535" lon="-75.474034"><ele>34.5</ele><time>2026-04-18T14:54:03.674Z</time></trkpt><trkpt lat="9.6706561" lon="-75.4740817"><ele>36.0</ele><time>2026-04-18T14:54:05.673Z</time></trkpt><trkpt lat="9.6707606" lon="-75.4741372"><ele>36.0</ele><time>2026-04-18T14:54:07.672Z</time></trkpt><trkpt lat="9.6708597" lon="-75.4741813"><ele>36.0</ele><time>2026-04-18T14:54:09.677Z</time></trkpt><trkpt lat="9.6709639" lon="-75.4742306"><ele>36.0</ele><time>2026-04-18T14:54:11.675Z</time></trkpt><trkpt lat="9.6710707" lon="-75.4742842"><ele>36.0</ele><time>2026-04-18T14:54:13.667Z</time></trkpt><trkpt lat="9.6711821" lon="-75.4743376"><ele>36.5</ele><time>2026-04-18T14:54:15.668Z</time></trkpt><trkpt lat="9.6712918" lon="-75.474388"><ele>37.0</ele><time>2026-04-18T14:54:17.675Z</time></trkpt><trkpt lat="9.6714042" lon="-75.4744398"><ele>37.5</ele><time>2026-04-18T14:54:19.673Z</time></trkpt><trkpt lat="9.6715183" lon="-75.4744916"><ele>38.0</ele><time>2026-04-18T14:54:21.678Z</time></trkpt><trkpt lat="9.6716328" lon="-75.474541"><ele>38.0</ele><time>2026-04-18T14:54:23.67Z</time></trkpt><trkpt lat="9.671694" lon="-75.4745722"><ele>38.0</ele><time>2026-04-18T14:54:24.673Z</time></trkpt><trkpt lat="9.6718073" lon="-75.4746253"><ele>38.0</ele><time>2026-04-18T14:54:26.675Z</time></trkpt><trkpt lat="9.6718652" lon="-75.4746538"><ele>38.0</ele><time>2026-04-18T14:54:27.669Z</time></trkpt><trkpt lat="9.6719226" lon="-75.4746856"><ele>38.0</ele><time>2026-04-18T14:54:28.672Z</time></trkpt><trkpt lat="9.6719826" lon="-75.4747134"><ele>38.0</ele><time>2026-04-18T14:54:29.672Z</time></trkpt><trkpt lat="9.6720395" lon="-75.4747424"><ele>38.57142857142857</ele><time>2026-04-18T14:54:30.673Z</time></trkpt><trkpt lat="9.6720997" lon="-75.4747682"><ele>39.142857142857146</ele><time>2026-04-18T14:54:31.672Z</time></trkpt><trkpt lat="9.6721572" lon="-75.4747971"><ele>39.714285714285715</ele><time>2026-04-18T14:54:32.673Z</time></trkpt><trkpt lat="9.6722163" lon="-75.4748252"><ele>40.285714285714285</ele><time>2026-04-18T14:54:33.678Z</time></trkpt><trkpt lat="9.6722735" lon="-75.474856"><ele>40.85714285714286</ele><time>2026-04-18T14:54:34.678Z</time></trkpt><trkpt lat="9.6723344" lon="-75.4748816"><ele>41.42857142857143</ele><time>2026-04-18T14:54:35.676Z</time></trkpt><trkpt lat="9.6723933" lon="-75.4749102"><ele>42.0</ele><time>2026-04-18T14:54:36.673Z</time></trkpt><trkpt lat="9.6724542" lon="-75.4749401"><ele>42.0</ele><time>2026-04-18T14:54:37.678Z</time></trkpt><trkpt lat="9.672514" lon="-75.4749715"><ele>42.0</ele><time>2026-04-18T14:54:38.677Z</time></trkpt><trkpt lat="9.6725739" lon="-75.4750041"><ele>42.0</ele><time>2026-04-18T14:54:39.673Z</time></trkpt><trkpt lat="9.672633" lon="-75.475034"><ele>42.0</ele><time>2026-04-18T14:54:40.673Z</time></trkpt><trkpt lat="9.6726936" lon="-75.4750652"><ele>42.0</ele><time>2026-04-18T14:54:41.672Z</time></trkpt><trkpt lat="9.6727529" lon="-75.475094"><ele>42.0</ele><time>2026-04-18T14:54:42.672Z</time></trkpt><trkpt lat="9.6728122" lon="-75.4751263"><ele>42.0</ele><time>2026-04-18T14:54:43.675Z</time></trkpt><trkpt lat="9.6728737" lon="-75.4751525"><ele>41.857142857142854</ele><time>2026-04-18T14:54:44.672Z</time></trkpt><trkpt lat="9.672936" lon="-75.4751854"><ele>41.714285714285715</ele><time>2026-04-18T14:54:45.675Z</time></trkpt><trkpt lat="9.6729974" lon="-75.475215"><ele>41.57142857142857</ele><time>2026-04-18T14:54:46.677Z</time></trkpt><trkpt lat="9.6730579" lon="-75.4752441"><ele>41.42857142857143</ele><time>2026-04-18T14:54:47.673Z</time></trkpt><trkpt lat="9.6731199" lon="-75.4752767"><ele>41.285714285714285</ele><time>2026-04-18T14:54:48.676Z</time></trkpt><trkpt lat="9.6731809" lon="-75.4753095"><ele>41.14285714285714</ele><time>2026-04-18T14:54:49.672Z</time></trkpt><trkpt lat="9.673241" lon="-75.4753492"><ele>41.0</ele><time>2026-04-18T14:54:50.678Z</time></trkpt><trkpt lat="9.6733084" lon="-75.4753791"><ele>40.99999999999999</ele><time>2026-04-18T14:54:51.67Z</time></trkpt><trkpt lat="9.6733712" lon="-75.4754082"><ele>41.0</ele><time>2026-04-18T14:54:52.673Z</time></trkpt><trkpt lat="9.6734309" lon="-75.4754358"><ele>41.0</ele><time>2026-04-18T14:54:53.671Z</time></trkpt><trkpt lat="9.6734957" lon="-75.4754666"><ele>41.0</ele><time>2026-04-18T14:54:54.673Z</time></trkpt><trkpt lat="9.6735616" lon="-75.4754985"><ele>41.0</ele><time>2026-04-18T14:54:55.675Z</time></trkpt><trkpt lat="9.6736307" lon="-75.4755286"><ele>40.99999999999999</ele><time>2026-04-18T14:54:56.676Z</time></trkpt><trkpt lat="9.6736926" lon="-75.4755595"><ele>41.0</ele><time>2026-04-18T14:54:57.693Z</time></trkpt><trkpt lat="9.6737587" lon="-75.4755879"><ele>40.71428571428571</ele><time>2026-04-18T14:54:58.674Z</time></trkpt><trkpt lat="9.6738223" lon="-75.4756253"><ele>40.42857142857143</ele><time>2026-04-18T14:54:59.675Z</time></trkpt><trkpt lat="9.6738864" lon="-75.4756577"><ele>40.14285714285714</ele><time>2026-04-18T14:55:00.674Z</time></trkpt><trkpt lat="9.6739489" lon="-75.4756909"><ele>39.857142857142854</ele><time>2026-04-18T14:55:01.676Z</time></trkpt><trkpt lat="9.6740148" lon="-75.4757201"><ele>39.57142857142857</ele><time>2026-04-18T14:55:02.674Z</time></trkpt><trkpt lat="9.6740815" lon="-75.4757524"><ele>39.285714285714285</ele><time>2026-04-18T14:55:03.672Z</time></trkpt><trkpt lat="9.6741457" lon="-75.4757855"><ele>39.0</ele><time>2026-04-18T14:55:04.677Z</time></trkpt><trkpt lat="9.6742115" lon="-75.4758146"><ele>39.0</ele><time>2026-04-18T14:55:05.678Z</time></trkpt><trkpt lat="9.6742831" lon="-75.4758477"><ele>39.0</ele><time>2026-04-18T14:55:06.676Z</time></trkpt><trkpt lat="9.6743498" lon="-75.4758831"><ele>39.0</ele><time>2026-04-18T14:55:07.68Z</time></trkpt><trkpt lat="9.6744195" lon="-75.4759172"><ele>39.0</ele><time>2026-04-18T14:55:08.676Z</time></trkpt><trkpt lat="9.6744925" lon="-75.475951"><ele>39.0</ele><time>2026-04-18T14:55:09.678Z</time></trkpt><trkpt lat="9.6745641" lon="-75.475986"><ele>39.0</ele><time>2026-04-18T14:55:10.675Z</time></trkpt><trkpt lat="9.6746338" lon="-75.4760172"><ele>38.833333333333336</ele><time>2026-04-18T14:55:11.681Z</time></trkpt><trkpt lat="9.6747099" lon="-75.4760532"><ele>38.666666666666664</ele><time>2026-04-18T14:55:12.68Z</time></trkpt><trkpt lat="9.6747819" lon="-75.4760894"><ele>38.5</ele><time>2026-04-18T14:55:13.681Z</time></trkpt><trkpt lat="9.674854" lon="-75.4761244"><ele>38.33333333333333</ele><time>2026-04-18T14:55:14.674Z</time></trkpt><trkpt lat="9.6749273" lon="-75.4761604"><ele>38.166666666666664</ele><time>2026-04-18T14:55:15.674Z</time></trkpt><trkpt lat="9.6750016" lon="-75.4761969"><ele>38.0</ele><time>2026-04-18T14:55:16.673Z</time></trkpt><trkpt lat="9.6750809" lon="-75.4762336"><ele>37.166666666666664</ele><time>2026-04-18T14:55:17.673Z</time></trkpt><trkpt lat="9.6751569" lon="-75.4762733"><ele>36.33333333333333</ele><time>2026-04-18T14:55:18.669Z</time></trkpt><trkpt lat="9.6752342" lon="-75.4763136"><ele>35.5</ele><time>2026-04-18T14:55:19.674Z</time></trkpt><trkpt lat="9.6753107" lon="-75.4763526"><ele>34.666666666666664</ele><time>2026-04-18T14:55:20.669Z</time></trkpt><trkpt lat="9.6753893" lon="-75.4763925"><ele>33.833333333333336</ele><time>2026-04-18T14:55:21.67Z</time></trkpt><trkpt lat="9.6754696" lon="-75.4764309"><ele>33.0</ele><time>2026-04-18T14:55:22.671Z</time></trkpt><trkpt lat="9.6755546" lon="-75.4764701"><ele>33.0</ele><time>2026-04-18T14:55:23.671Z</time></trkpt><trkpt lat="9.6756404" lon="-75.4765071"><ele>33.0</ele><time>2026-04-18T14:55:24.675Z</time></trkpt><trkpt lat="9.6757258" lon="-75.4765468"><ele>33.0</ele><time>2026-04-18T14:55:25.675Z</time></trkpt><trkpt lat="9.6758164" lon="-75.4765897"><ele>33.0</ele><time>2026-04-18T14:55:26.675Z</time></trkpt><trkpt lat="9.6759049" lon="-75.4766324"><ele>33.0</ele><time>2026-04-18T14:55:27.674Z</time></trkpt><trkpt lat="9.6759932" lon="-75.4766736"><ele>33.0</ele><time>2026-04-18T14:55:28.669Z</time></trkpt><trkpt lat="9.6760827" lon="-75.4767145"><ele>33.0</ele><time>2026-04-18T14:55:29.675Z</time></trkpt><trkpt lat="9.6761756" lon="-75.4767558"><ele>33.0</ele><time>2026-04-18T14:55:30.671Z</time></trkpt><trkpt lat="9.6762669" lon="-75.4767947"><ele>33.0</ele><time>2026-04-18T14:55:31.673Z</time></trkpt><trkpt lat="9.6763538" lon="-75.4768383"><ele>33.0</ele><time>2026-04-18T14:55:32.671Z</time></trkpt><trkpt lat="9.6764437" lon="-75.4768813"><ele>32.8</ele><time>2026-04-18T14:55:33.674Z</time></trkpt><trkpt lat="9.6765339" lon="-75.4769235"><ele>32.599999999999994</ele><time>2026-04-18T14:55:34.67Z</time></trkpt><trkpt lat="9.6766201" lon="-75.4769682"><ele>32.400000000000006</ele><time>2026-04-18T14:55:35.673Z</time></trkpt><trkpt lat="9.6767071" lon="-75.4770071"><ele>32.2</ele><time>2026-04-18T14:55:36.677Z</time></trkpt><trkpt lat="9.6767943" lon="-75.4770488"><ele>32.0</ele><time>2026-04-18T14:55:37.678Z</time></trkpt><trkpt lat="9.6768797" lon="-75.477092"><ele>31.6</ele><time>2026-04-18T14:55:38.676Z</time></trkpt><trkpt lat="9.6769689" lon="-75.4771342"><ele>31.200000000000003</ele><time>2026-04-18T14:55:39.677Z</time></trkpt><trkpt lat="9.6770563" lon="-75.4771794"><ele>30.8</ele><time>2026-04-18T14:55:40.675Z</time></trkpt><trkpt lat="9.6771472" lon="-75.4772218"><ele>30.4</ele><time>2026-04-18T14:55:41.677Z</time></trkpt><trkpt lat="9.6772372" lon="-75.4772657"><ele>30.0</ele><time>2026-04-18T14:55:42.685Z</time></trkpt><trkpt lat="9.6773293" lon="-75.4773104"><ele>30.0</ele><time>2026-04-18T14:55:43.674Z</time></trkpt><trkpt lat="9.6774226" lon="-75.4773523"><ele>30.0</ele><time>2026-04-18T14:55:44.672Z</time></trkpt><trkpt lat="9.677518" lon="-75.4773968"><ele>30.0</ele><time>2026-04-18T14:55:45.669Z</time></trkpt><trkpt lat="9.6776094" lon="-75.4774401"><ele>30.0</ele><time>2026-04-18T14:55:46.674Z</time></trkpt><trkpt lat="9.6777017" lon="-75.4774824"><ele>30.0</ele><time>2026-04-18T14:55:47.681Z</time></trkpt><trkpt lat="9.6777934" lon="-75.477525"><ele>30.0</ele><time>2026-04-18T14:55:48.671Z</time></trkpt><trkpt lat="9.6778841" lon="-75.4775693"><ele>30.0</ele><time>2026-04-18T14:55:49.675Z</time></trkpt><trkpt lat="9.6779761" lon="-75.4776143"><ele>30.0</ele><time>2026-04-18T14:55:50.671Z</time></trkpt><trkpt lat="9.6780711" lon="-75.4776605"><ele>30.0</ele><time>2026-04-18T14:55:51.676Z</time></trkpt><trkpt lat="9.6781631" lon="-75.4777081"><ele>30.0</ele><time>2026-04-18T14:55:52.673Z</time></trkpt><trkpt lat="9.678257" lon="-75.4777579"><ele>30.0</ele><time>2026-04-18T14:55:53.674Z</time></trkpt><trkpt lat="9.6783488" lon="-75.4778049"><ele>30.0</ele><time>2026-04-18T14:55:54.677Z</time></trkpt><trkpt lat="9.6784437" lon="-75.4778488"><ele>30.0</ele><time>2026-04-18T14:55:55.676Z</time></trkpt><trkpt lat="9.6785377" lon="-75.4778926"><ele>30.0</ele><time>2026-04-18T14:55:56.678Z</time></trkpt><trkpt lat="9.6786291" lon="-75.4779389"><ele>30.0</ele><time>2026-04-18T14:55:57.676Z</time></trkpt><trkpt lat="9.6787218" lon="-75.4779851"><ele>29.6</ele><time>2026-04-18T14:55:58.673Z</time></trkpt><trkpt lat="9.6788166" lon="-75.4780285"><ele>29.2</ele><time>2026-04-18T14:55:59.676Z</time></trkpt><trkpt lat="9.6789115" lon="-75.4780715"><ele>28.799999999999997</ele><time>2026-04-18T14:56:00.673Z</time></trkpt><trkpt lat="9.6790063" lon="-75.4781177"><ele>28.4</ele><time>2026-04-18T14:56:01.678Z</time></trkpt><trkpt lat="9.6790953" lon="-75.4781626"><ele>28.0</ele><time>2026-04-18T14:56:02.679Z</time></trkpt><trkpt lat="9.6791797" lon="-75.4782032"><ele>28.0</ele><time>2026-04-18T14:56:03.678Z</time></trkpt><trkpt lat="9.6792667" lon="-75.4782505"><ele>27.999999999999996</ele><time>2026-04-18T14:56:04.679Z</time></trkpt><trkpt lat="9.6793531" lon="-75.4782945"><ele>27.999999999999996</ele><time>2026-04-18T14:56:05.674Z</time></trkpt><trkpt lat="9.6794416" lon="-75.4783352"><ele>28.0</ele><time>2026-04-18T14:56:06.673Z</time></trkpt><trkpt lat="9.6795287" lon="-75.4783722"><ele>28.0</ele><time>2026-04-18T14:56:07.674Z</time></trkpt><trkpt lat="9.6796145" lon="-75.4784125"><ele>28.0</ele><time>2026-04-18T14:56:08.678Z</time></trkpt><trkpt lat="9.6797023" lon="-75.4784534"><ele>27.999999999999996</ele><time>2026-04-18T14:56:09.674Z</time></trkpt><trkpt lat="9.6797873" lon="-75.4784931"><ele>27.999999999999996</ele><time>2026-04-18T14:56:10.673Z</time></trkpt><trkpt lat="9.6798726" lon="-75.4785331"><ele>28.0</ele><time>2026-04-18T14:56:11.677Z</time></trkpt><trkpt lat="9.6799547" lon="-75.4785668"><ele>28.0</ele><time>2026-04-18T14:56:12.677Z</time></trkpt><trkpt lat="9.6800406" lon="-75.4786118"><ele>28.0</ele><time>2026-04-18T14:56:13.67Z</time></trkpt><trkpt lat="9.6801254" lon="-75.4786501"><ele>27.999999999999996</ele><time>2026-04-18T14:56:14.676Z</time></trkpt><trkpt lat="9.6802092" lon="-75.4786868"><ele>27.999999999999996</ele><time>2026-04-18T14:56:15.673Z</time></trkpt><trkpt lat="9.6802913" lon="-75.4787244"><ele>28.0</ele><time>2026-04-18T14:56:16.671Z</time></trkpt><trkpt lat="9.6803715" lon="-75.4787622"><ele>28.0</ele><time>2026-04-18T14:56:17.677Z</time></trkpt><trkpt lat="9.6804547" lon="-75.478803"><ele>27.799999999999997</ele><time>2026-04-18T14:56:18.675Z</time></trkpt><trkpt lat="9.6805357" lon="-75.4788411"><ele>27.599999999999998</ele><time>2026-04-18T14:56:19.676Z</time></trkpt><trkpt lat="9.6806166" lon="-75.4788803"><ele>27.400000000000002</ele><time>2026-04-18T14:56:20.676Z</time></trkpt><trkpt lat="9.6806995" lon="-75.4789174"><ele>27.200000000000003</ele><time>2026-04-18T14:56:21.677Z</time></trkpt><trkpt lat="9.6807845" lon="-75.4789648"><ele>27.0</ele><time>2026-04-18T14:56:22.678Z</time></trkpt><trkpt lat="9.6808696" lon="-75.4790065"><ele>27.0</ele><time>2026-04-18T14:56:23.672Z</time></trkpt><trkpt lat="9.6809484" lon="-75.4790452"><ele>27.000000000000004</ele><time>2026-04-18T14:56:24.671Z</time></trkpt><trkpt lat="9.6810306" lon="-75.4790845"><ele>27.000000000000004</ele><time>2026-04-18T14:56:25.668Z</time></trkpt><trkpt lat="9.6811102" lon="-75.4791252"><ele>27.0</ele><time>2026-04-18T14:56:26.671Z</time></trkpt><trkpt lat="9.6811954" lon="-75.4791631"><ele>27.0</ele><time>2026-04-18T14:56:27.666Z</time></trkpt><trkpt lat="9.6812745" lon="-75.4792055"><ele>27.200000000000003</ele><time>2026-04-18T14:56:28.667Z</time></trkpt><trkpt lat="9.6813574" lon="-75.4792436"><ele>27.400000000000002</ele><time>2026-04-18T14:56:29.677Z</time></trkpt><trkpt lat="9.6814394" lon="-75.4792823"><ele>27.599999999999998</ele><time>2026-04-18T14:56:30.674Z</time></trkpt><trkpt lat="9.6815214" lon="-75.4793223"><ele>27.799999999999997</ele><time>2026-04-18T14:56:31.671Z</time></trkpt><trkpt lat="9.6816021" lon="-75.4793668"><ele>28.0</ele><time>2026-04-18T14:56:32.673Z</time></trkpt><trkpt lat="9.6816871" lon="-75.4794071"><ele>28.0</ele><time>2026-04-18T14:56:33.673Z</time></trkpt><trkpt lat="9.6817742" lon="-75.4794434"><ele>27.999999999999996</ele><time>2026-04-18T14:56:34.672Z</time></trkpt><trkpt lat="9.6818567" lon="-75.4794824"><ele>27.999999999999996</ele><time>2026-04-18T14:56:35.67Z</time></trkpt><trkpt lat="9.6819369" lon="-75.4795212"><ele>28.0</ele><time>2026-04-18T14:56:36.672Z</time></trkpt><trkpt lat="9.6820198" lon="-75.4795606"><ele>28.0</ele><time>2026-04-18T14:56:37.673Z</time></trkpt><trkpt lat="9.6820993" lon="-75.4796021"><ele>27.599999999999998</ele><time>2026-04-18T14:56:38.67Z</time></trkpt><trkpt lat="9.6821808" lon="-75.4796409"><ele>27.199999999999996</ele><time>2026-04-18T14:56:39.675Z</time></trkpt><trkpt lat="9.6822628" lon="-75.4796809"><ele>26.8</ele><time>2026-04-18T14:56:40.672Z</time></trkpt><trkpt lat="9.6823421" lon="-75.4797249"><ele>26.4</ele><time>2026-04-18T14:56:41.671Z</time></trkpt><trkpt lat="9.682425" lon="-75.4797653"><ele>26.0</ele><time>2026-04-18T14:56:42.675Z</time></trkpt><trkpt lat="9.6825062" lon="-75.4798101"><ele>25.999999999999996</ele><time>2026-04-18T14:56:43.672Z</time></trkpt><trkpt lat="9.682585" lon="-75.4798485"><ele>26.0</ele><time>2026-04-18T14:56:44.667Z</time></trkpt><trkpt lat="9.6826642" lon="-75.4798842"><ele>26.0</ele><time>2026-04-18T14:56:45.666Z</time></trkpt><trkpt lat="9.6827486" lon="-75.4799224"><ele>26.0</ele><time>2026-04-18T14:56:46.67Z</time></trkpt><trkpt lat="9.6828306" lon="-75.4799608"><ele>25.999999999999996</ele><time>2026-04-18T14:56:47.671Z</time></trkpt><trkpt lat="9.6829112" lon="-75.4799958"><ele>26.0</ele><time>2026-04-18T14:56:48.667Z</time></trkpt><trkpt lat="9.6829935" lon="-75.4800354"><ele>26.200000000000003</ele><time>2026-04-18T14:56:49.67Z</time></trkpt><trkpt lat="9.6830739" lon="-75.4800726"><ele>26.400000000000002</ele><time>2026-04-18T14:56:50.671Z</time></trkpt><trkpt lat="9.683158" lon="-75.4801123"><ele>26.6</ele><time>2026-04-18T14:56:51.67Z</time></trkpt><trkpt lat="9.6832375" lon="-75.4801541"><ele>26.8</ele><time>2026-04-18T14:56:52.677Z</time></trkpt><trkpt lat="9.6833202" lon="-75.4801928"><ele>27.0</ele><time>2026-04-18T14:56:53.675Z</time></trkpt><trkpt lat="9.6834007" lon="-75.4802328"><ele>27.0</ele><time>2026-04-18T14:56:54.676Z</time></trkpt><trkpt lat="9.6834797" lon="-75.4802728"><ele>27.0</ele><time>2026-04-18T14:56:55.677Z</time></trkpt><trkpt lat="9.6835591" lon="-75.4803109"><ele>27.0</ele><time>2026-04-18T14:56:56.673Z</time></trkpt><trkpt lat="9.6836405" lon="-75.4803496"><ele>27.0</ele><time>2026-04-18T14:56:57.671Z</time></trkpt><trkpt lat="9.6837192" lon="-75.4803879"><ele>27.0</ele><time>2026-04-18T14:56:58.671Z</time></trkpt><trkpt lat="9.6838009" lon="-75.4804257"><ele>27.0</ele><time>2026-04-18T14:56:59.674Z</time></trkpt><trkpt lat="9.6838809" lon="-75.4804652"><ele>26.833333333333332</ele><time>2026-04-18T14:57:00.672Z</time></trkpt><trkpt lat="9.6839618" lon="-75.4805029"><ele>26.666666666666664</ele><time>2026-04-18T14:57:01.673Z</time></trkpt><trkpt lat="9.6840439" lon="-75.4805391"><ele>26.5</ele><time>2026-04-18T14:57:02.68Z</time></trkpt><trkpt lat="9.6841263" lon="-75.4805763"><ele>26.333333333333332</ele><time>2026-04-18T14:57:03.68Z</time></trkpt><trkpt lat="9.6842017" lon="-75.4806144"><ele>26.166666666666664</ele><time>2026-04-18T14:57:04.674Z</time></trkpt><trkpt lat="9.6842792" lon="-75.4806519"><ele>26.0</ele><time>2026-04-18T14:57:05.673Z</time></trkpt><trkpt lat="9.6843593" lon="-75.480685"><ele>26.166666666666664</ele><time>2026-04-18T14:57:06.669Z</time></trkpt><trkpt lat="9.6844385" lon="-75.4807255"><ele>26.333333333333332</ele><time>2026-04-18T14:57:07.674Z</time></trkpt><trkpt lat="9.6845159" lon="-75.4807632"><ele>26.5</ele><time>2026-04-18T14:57:08.672Z</time></trkpt><trkpt lat="9.6845906" lon="-75.4808006"><ele>26.666666666666664</ele><time>2026-04-18T14:57:09.671Z</time></trkpt><trkpt lat="9.6846673" lon="-75.4808402"><ele>26.833333333333332</ele><time>2026-04-18T14:57:10.67Z</time></trkpt><trkpt lat="9.684743" lon="-75.480877"><ele>27.0</ele><time>2026-04-18T14:57:11.669Z</time></trkpt><trkpt lat="9.6848223" lon="-75.480917"><ele>27.0</ele><time>2026-04-18T14:57:12.677Z</time></trkpt><trkpt lat="9.6848972" lon="-75.4809558"><ele>27.0</ele><time>2026-04-18T14:57:13.671Z</time></trkpt><trkpt lat="9.6849764" lon="-75.480993"><ele>27.0</ele><time>2026-04-18T14:57:14.673Z</time></trkpt><trkpt lat="9.6850538" lon="-75.4810306"><ele>27.0</ele><time>2026-04-18T14:57:15.676Z</time></trkpt><trkpt lat="9.6851321" lon="-75.4810696"><ele>27.0</ele><time>2026-04-18T14:57:16.668Z</time></trkpt><trkpt lat="9.6852089" lon="-75.4811041"><ele>27.0</ele><time>2026-04-18T14:57:17.672Z</time></trkpt><trkpt lat="9.6852869" lon="-75.4811409"><ele>27.333333333333332</ele><time>2026-04-18T14:57:18.673Z</time></trkpt><trkpt lat="9.6853645" lon="-75.4811779"><ele>27.666666666666664</ele><time>2026-04-18T14:57:19.676Z</time></trkpt><trkpt lat="9.6854427" lon="-75.4812155"><ele>28.0</ele><time>2026-04-18T14:57:20.674Z</time></trkpt><trkpt lat="9.6855222" lon="-75.481256"><ele>28.333333333333332</ele><time>2026-04-18T14:57:21.675Z</time></trkpt><trkpt lat="9.6855988" lon="-75.4812922"><ele>28.666666666666664</ele><time>2026-04-18T14:57:22.675Z</time></trkpt><trkpt lat="9.6856781" lon="-75.481328"><ele>29.0</ele><time>2026-04-18T14:57:23.672Z</time></trkpt><trkpt lat="9.6857586" lon="-75.4813638"><ele>28.999999999999996</ele><time>2026-04-18T14:57:24.682Z</time></trkpt><trkpt lat="9.6858385" lon="-75.4814037"><ele>29.0</ele><time>2026-04-18T14:57:25.675Z</time></trkpt><trkpt lat="9.6859186" lon="-75.4814387"><ele>29.0</ele><time>2026-04-18T14:57:26.671Z</time></trkpt><trkpt lat="9.6859954" lon="-75.4814742"><ele>29.0</ele><time>2026-04-18T14:57:27.67Z</time></trkpt><trkpt lat="9.6860736" lon="-75.4815163"><ele>28.999999999999996</ele><time>2026-04-18T14:57:28.675Z</time></trkpt><trkpt lat="9.6861531" lon="-75.4815486"><ele>29.0</ele><time>2026-04-18T14:57:29.672Z</time></trkpt><trkpt lat="9.6862298" lon="-75.4815896"><ele>28.999999999999996</ele><time>2026-04-18T14:57:30.675Z</time></trkpt><trkpt lat="9.6863063" lon="-75.4816289"><ele>29.0</ele><time>2026-04-18T14:57:31.673Z</time></trkpt><trkpt lat="9.6863832" lon="-75.4816655"><ele>29.0</ele><time>2026-04-18T14:57:32.668Z</time></trkpt><trkpt lat="9.6864625" lon="-75.4817035"><ele>29.0</ele><time>2026-04-18T14:57:33.672Z</time></trkpt><trkpt lat="9.6865392" lon="-75.4817419"><ele>28.999999999999996</ele><time>2026-04-18T14:57:34.674Z</time></trkpt><trkpt lat="9.6866164" lon="-75.4817817"><ele>29.0</ele><time>2026-04-18T14:57:35.673Z</time></trkpt><trkpt lat="9.6866909" lon="-75.4818216"><ele>28.999999999999996</ele><time>2026-04-18T14:57:36.671Z</time></trkpt><trkpt lat="9.6867693" lon="-75.4818609"><ele>29.0</ele><time>2026-04-18T14:57:37.67Z</time></trkpt><trkpt lat="9.6868473" lon="-75.4819075"><ele>29.0</ele><time>2026-04-18T14:57:38.672Z</time></trkpt><trkpt lat="9.6869237" lon="-75.4819447"><ele>29.0</ele><time>2026-04-18T14:57:39.672Z</time></trkpt><trkpt lat="9.6870026" lon="-75.4819813"><ele>28.999999999999996</ele><time>2026-04-18T14:57:40.673Z</time></trkpt><trkpt lat="9.6870823" lon="-75.4820179"><ele>29.0</ele><time>2026-04-18T14:57:41.672Z</time></trkpt><trkpt lat="9.6871603" lon="-75.4820585"><ele>29.166666666666664</ele><time>2026-04-18T14:57:42.673Z</time></trkpt><trkpt lat="9.687238" lon="-75.4820987"><ele>29.333333333333332</ele><time>2026-04-18T14:57:43.673Z</time></trkpt><trkpt lat="9.6873141" lon="-75.4821335"><ele>29.5</ele><time>2026-04-18T14:57:44.676Z</time></trkpt><trkpt lat="9.6873913" lon="-75.482174"><ele>29.666666666666664</ele><time>2026-04-18T14:57:45.673Z</time></trkpt><trkpt lat="9.6874717" lon="-75.4822135"><ele>29.833333333333332</ele><time>2026-04-18T14:57:46.678Z</time></trkpt><trkpt lat="9.6875485" lon="-75.4822539"><ele>30.0</ele><time>2026-04-18T14:57:47.673Z</time></trkpt><trkpt lat="9.6876261" lon="-75.4822906"><ele>30.0</ele><time>2026-04-18T14:57:48.676Z</time></trkpt><trkpt lat="9.6877051" lon="-75.4823243"><ele>30.0</ele><time>2026-04-18T14:57:49.67Z</time></trkpt><trkpt lat="9.6877827" lon="-75.4823572"><ele>30.0</ele><time>2026-04-18T14:57:50.67Z</time></trkpt><trkpt lat="9.6878636" lon="-75.4823943"><ele>30.0</ele><time>2026-04-18T14:57:51.671Z</time></trkpt><trkpt lat="9.687944" lon="-75.4824283"><ele>30.0</ele><time>2026-04-18T14:57:52.67Z</time></trkpt><trkpt lat="9.6880257" lon="-75.4824629"><ele>30.0</ele><time>2026-04-18T14:57:53.671Z</time></trkpt><trkpt lat="9.6881017" lon="-75.4825012"><ele>29.666666666666668</ele><time>2026-04-18T14:57:54.674Z</time></trkpt><trkpt lat="9.6881809" lon="-75.4825401"><ele>29.333333333333336</ele><time>2026-04-18T14:57:55.671Z</time></trkpt><trkpt lat="9.6882613" lon="-75.4825773"><ele>29.0</ele><time>2026-04-18T14:57:56.676Z</time></trkpt><trkpt lat="9.6883401" lon="-75.4826152"><ele>28.666666666666668</ele><time>2026-04-18T14:57:57.669Z</time></trkpt><trkpt lat="9.6884193" lon="-75.482656"><ele>28.333333333333336</ele><time>2026-04-18T14:57:58.673Z</time></trkpt><trkpt lat="9.6884974" lon="-75.4826919"><ele>28.0</ele><time>2026-04-18T14:57:59.676Z</time></trkpt><trkpt lat="9.6885771" lon="-75.4827328"><ele>28.000000000000004</ele><time>2026-04-18T14:58:00.678Z</time></trkpt><trkpt lat="9.6886555" lon="-75.4827723"><ele>28.0</ele><time>2026-04-18T14:58:01.673Z</time></trkpt><trkpt lat="9.6887311" lon="-75.4828131"><ele>28.0</ele><time>2026-04-18T14:58:02.671Z</time></trkpt><trkpt lat="9.6888113" lon="-75.4828535"><ele>28.0</ele><time>2026-04-18T14:58:03.668Z</time></trkpt><trkpt lat="9.6888857" lon="-75.4828894"><ele>28.000000000000004</ele><time>2026-04-18T14:58:04.669Z</time></trkpt><trkpt lat="9.6889588" lon="-75.4829243"><ele>28.0</ele><time>2026-04-18T14:58:05.673Z</time></trkpt><trkpt lat="9.6890357" lon="-75.4829613"><ele>28.166666666666668</ele><time>2026-04-18T14:58:06.674Z</time></trkpt><trkpt lat="9.6891142" lon="-75.4829975"><ele>28.333333333333336</ele><time>2026-04-18T14:58:07.678Z</time></trkpt><trkpt lat="9.6891916" lon="-75.4830292"><ele>28.5</ele><time>2026-04-18T14:58:08.674Z</time></trkpt><trkpt lat="9.689273" lon="-75.4830689"><ele>28.666666666666664</ele><time>2026-04-18T14:58:09.673Z</time></trkpt><trkpt lat="9.6893504" lon="-75.4831031"><ele>28.833333333333332</ele><time>2026-04-18T14:58:10.674Z</time></trkpt><trkpt lat="9.6894283" lon="-75.4831374"><ele>29.0</ele><time>2026-04-18T14:58:11.678Z</time></trkpt><trkpt lat="9.6895018" lon="-75.4831832"><ele>28.999999999999996</ele><time>2026-04-18T14:58:12.675Z</time></trkpt><trkpt lat="9.6895772" lon="-75.4832219"><ele>29.0</ele><time>2026-04-18T14:58:13.673Z</time></trkpt><trkpt lat="9.6896518" lon="-75.4832584"><ele>29.0</ele><time>2026-04-18T14:58:14.672Z</time></trkpt><trkpt lat="9.6897317" lon="-75.4832929"><ele>29.0</ele><time>2026-04-18T14:58:15.676Z</time></trkpt><trkpt lat="9.689809" lon="-75.4833288"><ele>28.999999999999996</ele><time>2026-04-18T14:58:16.673Z</time></trkpt><trkpt lat="9.6898837" lon="-75.4833638"><ele>29.0</ele><time>2026-04-18T14:58:17.675Z</time></trkpt><trkpt lat="9.6899586" lon="-75.4833975"><ele>28.999999999999996</ele><time>2026-04-18T14:58:18.675Z</time></trkpt><trkpt lat="9.6900372" lon="-75.4834355"><ele>29.0</ele><time>2026-04-18T14:58:19.673Z</time></trkpt><trkpt lat="9.6901161" lon="-75.4834711"><ele>29.0</ele><time>2026-04-18T14:58:20.672Z</time></trkpt><trkpt lat="9.6901916" lon="-75.4835062"><ele>29.0</ele><time>2026-04-18T14:58:21.676Z</time></trkpt><trkpt lat="9.6902704" lon="-75.4835421"><ele>28.999999999999996</ele><time>2026-04-18T14:58:22.672Z</time></trkpt><trkpt lat="9.690346" lon="-75.4835809"><ele>29.0</ele><time>2026-04-18T14:58:23.669Z</time></trkpt><trkpt lat="9.690422" lon="-75.4836206"><ele>28.833333333333332</ele><time>2026-04-18T14:58:24.67Z</time></trkpt><trkpt lat="9.6904987" lon="-75.4836578"><ele>28.666666666666664</ele><time>2026-04-18T14:58:25.673Z</time></trkpt><trkpt lat="9.6905758" lon="-75.4836988"><ele>28.5</ele><time>2026-04-18T14:58:26.671Z</time></trkpt><trkpt lat="9.6906515" lon="-75.4837397"><ele>28.333333333333336</ele><time>2026-04-18T14:58:27.674Z</time></trkpt><trkpt lat="9.6907305" lon="-75.4837746"><ele>28.166666666666668</ele><time>2026-04-18T14:58:28.672Z</time></trkpt><trkpt lat="9.6908094" lon="-75.4838087"><ele>28.0</ele><time>2026-04-18T14:58:29.672Z</time></trkpt><trkpt lat="9.6908885" lon="-75.4838479"><ele>28.000000000000004</ele><time>2026-04-18T14:58:30.678Z</time></trkpt><trkpt lat="9.6909659" lon="-75.483886"><ele>28.0</ele><time>2026-04-18T14:58:31.672Z</time></trkpt><trkpt lat="9.6910427" lon="-75.4839204"><ele>28.0</ele><time>2026-04-18T14:58:32.677Z</time></trkpt><trkpt lat="9.6911191" lon="-75.483955"><ele>28.0</ele><time>2026-04-18T14:58:33.677Z</time></trkpt><trkpt lat="9.691195" lon="-75.4839943"><ele>28.000000000000004</ele><time>2026-04-18T14:58:34.676Z</time></trkpt><trkpt lat="9.6912742" lon="-75.4840319"><ele>28.0</ele><time>2026-04-18T14:58:35.669Z</time></trkpt><trkpt lat="9.6913532" lon="-75.4840707"><ele>27.833333333333336</ele><time>2026-04-18T14:58:36.674Z</time></trkpt><trkpt lat="9.6914281" lon="-75.4841056"><ele>27.666666666666668</ele><time>2026-04-18T14:58:37.67Z</time></trkpt><trkpt lat="9.6915079" lon="-75.4841433"><ele>27.5</ele><time>2026-04-18T14:58:38.669Z</time></trkpt><trkpt lat="9.6915861" lon="-75.4841781"><ele>27.333333333333336</ele><time>2026-04-18T14:58:39.674Z</time></trkpt><trkpt lat="9.6916621" lon="-75.4842192"><ele>27.166666666666668</ele><time>2026-04-18T14:58:40.67Z</time></trkpt><trkpt lat="9.6917439" lon="-75.4842567"><ele>27.0</ele><time>2026-04-18T14:58:41.671Z</time></trkpt><trkpt lat="9.6918236" lon="-75.4842932"><ele>27.0</ele><time>2026-04-18T14:58:42.678Z</time></trkpt><trkpt lat="9.6919023" lon="-75.4843321"><ele>27.0</ele><time>2026-04-18T14:58:43.671Z</time></trkpt><trkpt lat="9.6919778" lon="-75.4843658"><ele>27.0</ele><time>2026-04-18T14:58:44.674Z</time></trkpt><trkpt lat="9.6920547" lon="-75.4844039"><ele>27.0</ele><time>2026-04-18T14:58:45.673Z</time></trkpt><trkpt lat="9.6921343" lon="-75.484445"><ele>27.0</ele><time>2026-04-18T14:58:46.671Z</time></trkpt><trkpt lat="9.6922114" lon="-75.4844833"><ele>27.0</ele><time>2026-04-18T14:58:47.671Z</time></trkpt><trkpt lat="9.6922902" lon="-75.4845194"><ele>27.0</ele><time>2026-04-18T14:58:48.669Z</time></trkpt><trkpt lat="9.6923667" lon="-75.4845548"><ele>27.0</ele><time>2026-04-18T14:58:49.675Z</time></trkpt><trkpt lat="9.6924436" lon="-75.484595"><ele>27.0</ele><time>2026-04-18T14:58:50.669Z</time></trkpt><trkpt lat="9.6925189" lon="-75.4846356"><ele>27.0</ele><time>2026-04-18T14:58:51.673Z</time></trkpt><trkpt lat="9.6925946" lon="-75.4846703"><ele>27.0</ele><time>2026-04-18T14:58:52.674Z</time></trkpt><trkpt lat="9.6926688" lon="-75.4847053"><ele>27.0</ele><time>2026-04-18T14:58:53.669Z</time></trkpt><trkpt lat="9.6927451" lon="-75.4847457"><ele>27.333333333333332</ele><time>2026-04-18T14:58:54.67Z</time></trkpt><trkpt lat="9.6928209" lon="-75.4847869"><ele>27.666666666666664</ele><time>2026-04-18T14:58:55.669Z</time></trkpt><trkpt lat="9.6928997" lon="-75.4848229"><ele>28.0</ele><time>2026-04-18T14:58:56.67Z</time></trkpt><trkpt lat="9.6929771" lon="-75.4848565"><ele>28.333333333333332</ele><time>2026-04-18T14:58:57.671Z</time></trkpt><trkpt lat="9.693053" lon="-75.484892"><ele>28.666666666666664</ele><time>2026-04-18T14:58:58.673Z</time></trkpt><trkpt lat="9.6931294" lon="-75.4849329"><ele>29.0</ele><time>2026-04-18T14:58:59.673Z</time></trkpt><trkpt lat="9.6932063" lon="-75.4849638"><ele>28.999999999999996</ele><time>2026-04-18T14:59:00.67Z</time></trkpt><trkpt lat="9.6932817" lon="-75.4850013"><ele>29.0</ele><time>2026-04-18T14:59:01.674Z</time></trkpt><trkpt lat="9.6933562" lon="-75.4850358"><ele>29.0</ele><time>2026-04-18T14:59:02.669Z</time></trkpt><trkpt lat="9.693434" lon="-75.4850726"><ele>29.0</ele><time>2026-04-18T14:59:03.671Z</time></trkpt><trkpt lat="9.6935126" lon="-75.4851118"><ele>28.999999999999996</ele><time>2026-04-18T14:59:04.668Z</time></trkpt><trkpt lat="9.6935912" lon="-75.4851504"><ele>29.0</ele><time>2026-04-18T14:59:05.672Z</time></trkpt><trkpt lat="9.6936663" lon="-75.4851888"><ele>28.999999999999996</ele><time>2026-04-18T14:59:06.671Z</time></trkpt><trkpt lat="9.6937437" lon="-75.485228"><ele>29.0</ele><time>2026-04-18T14:59:07.672Z</time></trkpt><trkpt lat="9.6938224" lon="-75.4852666"><ele>29.0</ele><time>2026-04-18T14:59:08.67Z</time></trkpt><trkpt lat="9.693901" lon="-75.485306"><ele>29.0</ele><time>2026-04-18T14:59:09.67Z</time></trkpt><trkpt lat="9.693979" lon="-75.4853445"><ele>28.999999999999996</ele><time>2026-04-18T14:59:10.667Z</time></trkpt><trkpt lat="9.6940559" lon="-75.4853816"><ele>29.0</ele><time>2026-04-18T14:59:11.668Z</time></trkpt><trkpt lat="9.6941363" lon="-75.4854205"><ele>29.0</ele><time>2026-04-18T14:59:12.669Z</time></trkpt><trkpt lat="9.6942143" lon="-75.4854603"><ele>29.0</ele><time>2026-04-18T14:59:13.666Z</time></trkpt><trkpt lat="9.6942971" lon="-75.4854983"><ele>29.0</ele><time>2026-04-18T14:59:14.672Z</time></trkpt><trkpt lat="9.6943789" lon="-75.485535"><ele>29.0</ele><time>2026-04-18T14:59:15.67Z</time></trkpt><trkpt lat="9.6944621" lon="-75.4855777"><ele>29.0</ele><time>2026-04-18T14:59:16.671Z</time></trkpt><trkpt lat="9.6945428" lon="-75.485617"><ele>29.0</ele><time>2026-04-18T14:59:17.671Z</time></trkpt><trkpt lat="9.6946259" lon="-75.485655"><ele>29.0</ele><time>2026-04-18T14:59:18.667Z</time></trkpt><trkpt lat="9.694709" lon="-75.4856935"><ele>29.0</ele><time>2026-04-18T14:59:19.669Z</time></trkpt><trkpt lat="9.6947927" lon="-75.4857321"><ele>29.0</ele><time>2026-04-18T14:59:20.668Z</time></trkpt><trkpt lat="9.6948781" lon="-75.4857677"><ele>29.0</ele><time>2026-04-18T14:59:21.667Z</time></trkpt><trkpt lat="9.6949603" lon="-75.4858093"><ele>29.0</ele><time>2026-04-18T14:59:22.672Z</time></trkpt><trkpt lat="9.695044" lon="-75.4858486"><ele>29.0</ele><time>2026-04-18T14:59:23.675Z</time></trkpt><trkpt lat="9.6951294" lon="-75.4858832"><ele>29.0</ele><time>2026-04-18T14:59:24.669Z</time></trkpt><trkpt lat="9.6952124" lon="-75.4859205"><ele>29.0</ele><time>2026-04-18T14:59:25.668Z</time></trkpt><trkpt lat="9.6952932" lon="-75.4859661"><ele>29.0</ele><time>2026-04-18T14:59:26.668Z</time></trkpt><trkpt lat="9.6953744" lon="-75.4860057"><ele>28.499999999999996</ele><time>2026-04-18T14:59:27.67Z</time></trkpt><trkpt lat="9.6954529" lon="-75.4860447"><ele>28.0</ele><time>2026-04-18T14:59:28.669Z</time></trkpt><trkpt lat="9.6955341" lon="-75.4860847"><ele>27.5</ele><time>2026-04-18T14:59:29.672Z</time></trkpt><trkpt lat="9.6956153" lon="-75.4861246"><ele>27.0</ele><time>2026-04-18T14:59:30.669Z</time></trkpt><trkpt lat="9.6956971" lon="-75.4861632"><ele>26.499999999999996</ele><time>2026-04-18T14:59:31.67Z</time></trkpt><trkpt lat="9.6957763" lon="-75.4862005"><ele>26.0</ele><time>2026-04-18T14:59:32.672Z</time></trkpt><trkpt lat="9.6958548" lon="-75.4862374"><ele>26.166666666666664</ele><time>2026-04-18T14:59:33.673Z</time></trkpt><trkpt lat="9.695931" lon="-75.4862759"><ele>26.333333333333332</ele><time>2026-04-18T14:59:34.676Z</time></trkpt><trkpt lat="9.6960067" lon="-75.4863156"><ele>26.5</ele><time>2026-04-18T14:59:35.672Z</time></trkpt><trkpt lat="9.6960808" lon="-75.4863524"><ele>26.666666666666664</ele><time>2026-04-18T14:59:36.669Z</time></trkpt><trkpt lat="9.6961566" lon="-75.4863926"><ele>26.833333333333332</ele><time>2026-04-18T14:59:37.674Z</time></trkpt><trkpt lat="9.6962334" lon="-75.4864302"><ele>27.0</ele><time>2026-04-18T14:59:38.666Z</time></trkpt><trkpt lat="9.6963178" lon="-75.4864673"><ele>27.0</ele><time>2026-04-18T14:59:39.667Z</time></trkpt><trkpt lat="9.6963938" lon="-75.4865037"><ele>27.0</ele><time>2026-04-18T14:59:40.668Z</time></trkpt><trkpt lat="9.6964691" lon="-75.4865433"><ele>27.0</ele><time>2026-04-18T14:59:41.669Z</time></trkpt><trkpt lat="9.6965456" lon="-75.4865793"><ele>27.0</ele><time>2026-04-18T14:59:42.67Z</time></trkpt><trkpt lat="9.6966266" lon="-75.4866108"><ele>27.0</ele><time>2026-04-18T14:59:43.672Z</time></trkpt><trkpt lat="9.6967037" lon="-75.4866496"><ele>27.0</ele><time>2026-04-18T14:59:44.671Z</time></trkpt><trkpt lat="9.6967818" lon="-75.4866872"><ele>27.0</ele><time>2026-04-18T14:59:45.673Z</time></trkpt><trkpt lat="9.6968578" lon="-75.4867228"><ele>27.0</ele><time>2026-04-18T14:59:46.671Z</time></trkpt><trkpt lat="9.6969367" lon="-75.4867596"><ele>27.0</ele><time>2026-04-18T14:59:47.674Z</time></trkpt><trkpt lat="9.6970152" lon="-75.4868008"><ele>27.0</ele><time>2026-04-18T14:59:48.673Z</time></trkpt><trkpt lat="9.6970933" lon="-75.4868381"><ele>27.0</ele><time>2026-04-18T14:59:49.678Z</time></trkpt><trkpt lat="9.6971705" lon="-75.4868761"><ele>27.0</ele><time>2026-04-18T14:59:50.673Z</time></trkpt><trkpt lat="9.6972479" lon="-75.4869102"><ele>27.0</ele><time>2026-04-18T14:59:51.675Z</time></trkpt><trkpt lat="9.6973258" lon="-75.4869491"><ele>27.0</ele><time>2026-04-18T14:59:52.674Z</time></trkpt><trkpt lat="9.6974024" lon="-75.4869862"><ele>27.0</ele><time>2026-04-18T14:59:53.673Z</time></trkpt><trkpt lat="9.6974757" lon="-75.4870279"><ele>27.0</ele><time>2026-04-18T14:59:54.672Z</time></trkpt><trkpt lat="9.69755" lon="-75.4870651"><ele>27.0</ele><time>2026-04-18T14:59:55.67Z</time></trkpt><trkpt lat="9.6976301" lon="-75.4871026"><ele>27.0</ele><time>2026-04-18T14:59:56.667Z</time></trkpt><trkpt lat="9.6977064" lon="-75.4871376"><ele>27.0</ele><time>2026-04-18T14:59:57.669Z</time></trkpt><trkpt lat="9.6977869" lon="-75.4871757"><ele>27.0</ele><time>2026-04-18T14:59:58.674Z</time></trkpt><trkpt lat="9.697866" lon="-75.4872095"><ele>27.0</ele><time>2026-04-18T14:59:59.672Z</time></trkpt><trkpt lat="9.6979443" lon="-75.487244"><ele>27.0</ele><time>2026-04-18T15:00:00.67Z</time></trkpt><trkpt lat="9.6980254" lon="-75.487281"><ele>27.0</ele><time>2026-04-18T15:00:01.672Z</time></trkpt><trkpt lat="9.698105" lon="-75.487316"><ele>27.0</ele><time>2026-04-18T15:00:02.676Z</time></trkpt><trkpt lat="9.6981856" lon="-75.4873487"><ele>27.0</ele><time>2026-04-18T15:00:03.673Z</time></trkpt><trkpt lat="9.6982619" lon="-75.4873843"><ele>27.0</ele><time>2026-04-18T15:00:04.673Z</time></trkpt><trkpt lat="9.6983379" lon="-75.4874211"><ele>27.0</ele><time>2026-04-18T15:00:05.669Z</time></trkpt><trkpt lat="9.698416" lon="-75.487457"><ele>27.0</ele><time>2026-04-18T15:00:06.669Z</time></trkpt><trkpt lat="9.6984941" lon="-75.4874941"><ele>27.0</ele><time>2026-04-18T15:00:07.671Z</time></trkpt><trkpt lat="9.6985688" lon="-75.4875304"><ele>27.0</ele><time>2026-04-18T15:00:08.673Z</time></trkpt><trkpt lat="9.6986466" lon="-75.487569"><ele>26.833333333333332</ele><time>2026-04-18T15:00:09.672Z</time></trkpt><trkpt lat="9.698727" lon="-75.4876072"><ele>26.666666666666664</ele><time>2026-04-18T15:00:10.674Z</time></trkpt><trkpt lat="9.6988045" lon="-75.487645"><ele>26.5</ele><time>2026-04-18T15:00:11.675Z</time></trkpt><trkpt lat="9.6988822" lon="-75.487681"><ele>26.333333333333332</ele><time>2026-04-18T15:00:12.672Z</time></trkpt><trkpt lat="9.6989585" lon="-75.4877193"><ele>26.166666666666664</ele><time>2026-04-18T15:00:13.672Z</time></trkpt><trkpt lat="9.6990355" lon="-75.4877568"><ele>26.0</ele><time>2026-04-18T15:00:14.675Z</time></trkpt><trkpt lat="9.6991117" lon="-75.4877937"><ele>25.999999999999996</ele><time>2026-04-18T15:00:15.677Z</time></trkpt><trkpt lat="9.6991913" lon="-75.4878339"><ele>26.0</ele><time>2026-04-18T15:00:16.673Z</time></trkpt><trkpt lat="9.6992695" lon="-75.4878721"><ele>26.0</ele><time>2026-04-18T15:00:17.675Z</time></trkpt><trkpt lat="9.6993451" lon="-75.4879124"><ele>26.0</ele><time>2026-04-18T15:00:18.672Z</time></trkpt><trkpt lat="9.6994222" lon="-75.4879508"><ele>25.999999999999996</ele><time>2026-04-18T15:00:19.672Z</time></trkpt><trkpt lat="9.6995036" lon="-75.4879901"><ele>26.0</ele><time>2026-04-18T15:00:20.673Z</time></trkpt><trkpt lat="9.6995827" lon="-75.4880251"><ele>26.166666666666664</ele><time>2026-04-18T15:00:21.68Z</time></trkpt><trkpt lat="9.6996585" lon="-75.4880599"><ele>26.333333333333332</ele><time>2026-04-18T15:00:22.673Z</time></trkpt><trkpt lat="9.6997371" lon="-75.488099"><ele>26.5</ele><time>2026-04-18T15:00:23.677Z</time></trkpt><trkpt lat="9.699813" lon="-75.4881366"><ele>26.666666666666664</ele><time>2026-04-18T15:00:24.675Z</time></trkpt><trkpt lat="9.6998933" lon="-75.4881748"><ele>26.833333333333332</ele><time>2026-04-18T15:00:25.671Z</time></trkpt><trkpt lat="9.6999736" lon="-75.4882113"><ele>27.0</ele><time>2026-04-18T15:00:26.671Z</time></trkpt><trkpt lat="9.7000494" lon="-75.4882477"><ele>27.0</ele><time>2026-04-18T15:00:27.67Z</time></trkpt><trkpt lat="9.7001303" lon="-75.4882877"><ele>27.0</ele><time>2026-04-18T15:00:28.668Z</time></trkpt><trkpt lat="9.7002109" lon="-75.4883251"><ele>27.0</ele><time>2026-04-18T15:00:29.666Z</time></trkpt><trkpt lat="9.7002903" lon="-75.4883626"><ele>27.0</ele><time>2026-04-18T15:00:30.668Z</time></trkpt><trkpt lat="9.7003672" lon="-75.4884002"><ele>27.0</ele><time>2026-04-18T15:00:31.668Z</time></trkpt><trkpt lat="9.700443" lon="-75.4884372"><ele>27.0</ele><time>2026-04-18T15:00:32.671Z</time></trkpt><trkpt lat="9.7005204" lon="-75.4884763"><ele>26.666666666666668</ele><time>2026-04-18T15:00:33.671Z</time></trkpt><trkpt lat="9.7006015" lon="-75.4885152"><ele>26.333333333333336</ele><time>2026-04-18T15:00:34.671Z</time></trkpt><trkpt lat="9.7006843" lon="-75.4885507"><ele>26.0</ele><time>2026-04-18T15:00:35.668Z</time></trkpt><trkpt lat="9.7007605" lon="-75.488585"><ele>25.666666666666668</ele><time>2026-04-18T15:00:36.668Z</time></trkpt><trkpt lat="9.7008393" lon="-75.4886199"><ele>25.333333333333336</ele><time>2026-04-18T15:00:37.67Z</time></trkpt><trkpt lat="9.7009189" lon="-75.488661"><ele>25.0</ele><time>2026-04-18T15:00:38.672Z</time></trkpt><trkpt lat="9.700998" lon="-75.4886994"><ele>25.000000000000004</ele><time>2026-04-18T15:00:39.67Z</time></trkpt><trkpt lat="9.7010795" lon="-75.4887396"><ele>25.0</ele><time>2026-04-18T15:00:40.674Z</time></trkpt><trkpt lat="9.701158" lon="-75.4887764"><ele>25.0</ele><time>2026-04-18T15:00:41.669Z</time></trkpt><trkpt lat="9.701234" lon="-75.4888141"><ele>25.0</ele><time>2026-04-18T15:00:42.67Z</time></trkpt><trkpt lat="9.7013104" lon="-75.4888521"><ele>25.000000000000004</ele><time>2026-04-18T15:00:43.676Z</time></trkpt><trkpt lat="9.7013885" lon="-75.4888861"><ele>25.0</ele><time>2026-04-18T15:00:44.672Z</time></trkpt><trkpt lat="9.7014652" lon="-75.4889206"><ele>25.000000000000004</ele><time>2026-04-18T15:00:45.672Z</time></trkpt><trkpt lat="9.70154" lon="-75.4889582"><ele>25.0</ele><time>2026-04-18T15:00:46.672Z</time></trkpt><trkpt lat="9.7016171" lon="-75.4889922"><ele>25.0</ele><time>2026-04-18T15:00:47.672Z</time></trkpt><trkpt lat="9.7016952" lon="-75.4890307"><ele>25.0</ele><time>2026-04-18T15:00:48.669Z</time></trkpt><trkpt lat="9.7017711" lon="-75.4890668"><ele>25.000000000000004</ele><time>2026-04-18T15:00:49.668Z</time></trkpt><trkpt lat="9.7018495" lon="-75.4891068"><ele>25.0</ele><time>2026-04-18T15:00:50.671Z</time></trkpt><trkpt lat="9.7019266" lon="-75.4891438"><ele>24.833333333333336</ele><time>2026-04-18T15:00:51.678Z</time></trkpt><trkpt lat="9.7020057" lon="-75.4891831"><ele>24.666666666666668</ele><time>2026-04-18T15:00:52.669Z</time></trkpt><trkpt lat="9.7020838" lon="-75.4892194"><ele>24.5</ele><time>2026-04-18T15:00:53.673Z</time></trkpt><trkpt lat="9.7021633" lon="-75.4892539"><ele>24.333333333333336</ele><time>2026-04-18T15:00:54.674Z</time></trkpt><trkpt lat="9.7022396" lon="-75.489292"><ele>24.166666666666668</ele><time>2026-04-18T15:00:55.672Z</time></trkpt><trkpt lat="9.7023194" lon="-75.4893289"><ele>24.0</ele><time>2026-04-18T15:00:56.677Z</time></trkpt><trkpt lat="9.7023989" lon="-75.4893667"><ele>24.0</ele><time>2026-04-18T15:00:57.668Z</time></trkpt><trkpt lat="9.7024773" lon="-75.489408"><ele>24.0</ele><time>2026-04-18T15:00:58.674Z</time></trkpt><trkpt lat="9.7025558" lon="-75.4894467"><ele>24.0</ele><time>2026-04-18T15:00:59.675Z</time></trkpt><trkpt lat="9.7026336" lon="-75.4894826"><ele>24.0</ele><time>2026-04-18T15:01:00.675Z</time></trkpt><trkpt lat="9.7027126" lon="-75.4895196"><ele>24.0</ele><time>2026-04-18T15:01:01.669Z</time></trkpt><trkpt lat="9.7027916" lon="-75.4895572"><ele>24.0</ele><time>2026-04-18T15:01:02.67Z</time></trkpt><trkpt lat="9.702869" lon="-75.489598"><ele>24.5</ele><time>2026-04-18T15:01:03.669Z</time></trkpt><trkpt lat="9.7029491" lon="-75.4896367"><ele>25.0</ele><time>2026-04-18T15:01:04.672Z</time></trkpt><trkpt lat="9.7030333" lon="-75.4896776"><ele>25.5</ele><time>2026-04-18T15:01:05.672Z</time></trkpt><trkpt lat="9.7031145" lon="-75.4897186"><ele>26.0</ele><time>2026-04-18T15:01:06.67Z</time></trkpt><trkpt lat="9.7031929" lon="-75.4897581"><ele>26.5</ele><time>2026-04-18T15:01:07.674Z</time></trkpt><trkpt lat="9.7032721" lon="-75.4897969"><ele>27.0</ele><time>2026-04-18T15:01:08.673Z</time></trkpt><trkpt lat="9.7033508" lon="-75.4898348"><ele>27.0</ele><time>2026-04-18T15:01:09.672Z</time></trkpt><trkpt lat="9.703428" lon="-75.4898698"><ele>27.0</ele><time>2026-04-18T15:01:10.682Z</time></trkpt><trkpt lat="9.703509" lon="-75.4899102"><ele>27.0</ele><time>2026-04-18T15:01:11.669Z</time></trkpt><trkpt lat="9.7035899" lon="-75.4899479"><ele>27.0</ele><time>2026-04-18T15:01:12.674Z</time></trkpt><trkpt lat="9.7036676" lon="-75.4899866"><ele>27.0</ele><time>2026-04-18T15:01:13.672Z</time></trkpt><trkpt lat="9.7037486" lon="-75.4900201"><ele>27.0</ele><time>2026-04-18T15:01:14.677Z</time></trkpt><trkpt lat="9.7038244" lon="-75.4900585"><ele>27.0</ele><time>2026-04-18T15:01:15.672Z</time></trkpt><trkpt lat="9.7039032" lon="-75.4900995"><ele>27.0</ele><time>2026-04-18T15:01:16.671Z</time></trkpt><trkpt lat="9.7039794" lon="-75.4901365"><ele>27.0</ele><time>2026-04-18T15:01:17.679Z</time></trkpt><trkpt lat="9.7040605" lon="-75.4901726"><ele>27.0</ele><time>2026-04-18T15:01:18.671Z</time></trkpt><trkpt lat="9.7041397" lon="-75.4902094"><ele>27.0</ele><time>2026-04-18T15:01:19.675Z</time></trkpt><trkpt lat="9.7042168" lon="-75.4902488"><ele>27.0</ele><time>2026-04-18T15:01:20.67Z</time></trkpt><trkpt lat="9.7042929" lon="-75.4902856"><ele>27.0</ele><time>2026-04-18T15:01:21.668Z</time></trkpt><trkpt lat="9.7043727" lon="-75.4903204"><ele>27.0</ele><time>2026-04-18T15:01:22.674Z</time></trkpt><trkpt lat="9.7044526" lon="-75.490362"><ele>27.0</ele><time>2026-04-18T15:01:23.67Z</time></trkpt><trkpt lat="9.7045326" lon="-75.4904011"><ele>27.0</ele><time>2026-04-18T15:01:24.672Z</time></trkpt><trkpt lat="9.7046175" lon="-75.4904403"><ele>27.0</ele><time>2026-04-18T15:01:25.671Z</time></trkpt><trkpt lat="9.7046966" lon="-75.4904765"><ele>27.0</ele><time>2026-04-18T15:01:26.673Z</time></trkpt><trkpt lat="9.7047766" lon="-75.4905221"><ele>27.333333333333332</ele><time>2026-04-18T15:01:27.669Z</time></trkpt><trkpt lat="9.7048559" lon="-75.4905617"><ele>27.666666666666664</ele><time>2026-04-18T15:01:28.671Z</time></trkpt><trkpt lat="9.704934" lon="-75.4905982"><ele>28.0</ele><time>2026-04-18T15:01:29.672Z</time></trkpt><trkpt lat="9.7050161" lon="-75.490634"><ele>28.333333333333332</ele><time>2026-04-18T15:01:30.677Z</time></trkpt><trkpt lat="9.7050905" lon="-75.4906679"><ele>28.666666666666664</ele><time>2026-04-18T15:01:31.676Z</time></trkpt><trkpt lat="9.7051704" lon="-75.4907047"><ele>29.0</ele><time>2026-04-18T15:01:32.673Z</time></trkpt><trkpt lat="9.7052484" lon="-75.4907383"><ele>28.999999999999996</ele><time>2026-04-18T15:01:33.672Z</time></trkpt><trkpt lat="9.7053277" lon="-75.490782"><ele>29.0</ele><time>2026-04-18T15:01:34.671Z</time></trkpt><trkpt lat="9.7054108" lon="-75.4908195"><ele>29.0</ele><time>2026-04-18T15:01:35.673Z</time></trkpt><trkpt lat="9.7054882" lon="-75.4908596"><ele>29.0</ele><time>2026-04-18T15:01:36.672Z</time></trkpt><trkpt lat="9.7055699" lon="-75.4908975"><ele>28.999999999999996</ele><time>2026-04-18T15:01:37.673Z</time></trkpt><trkpt lat="9.7056496" lon="-75.4909357"><ele>29.0</ele><time>2026-04-18T15:01:38.672Z</time></trkpt><trkpt lat="9.7057269" lon="-75.4909727"><ele>28.999999999999996</ele><time>2026-04-18T15:01:39.672Z</time></trkpt><trkpt lat="9.7058022" lon="-75.4910079"><ele>29.0</ele><time>2026-04-18T15:01:40.668Z</time></trkpt><trkpt lat="9.7058795" lon="-75.491046"><ele>29.0</ele><time>2026-04-18T15:01:41.676Z</time></trkpt><trkpt lat="9.7059569" lon="-75.4910793"><ele>29.0</ele><time>2026-04-18T15:01:42.67Z</time></trkpt><trkpt lat="9.7060358" lon="-75.491119"><ele>28.999999999999996</ele><time>2026-04-18T15:01:43.677Z</time></trkpt><trkpt lat="9.7061137" lon="-75.4911629"><ele>29.0</ele><time>2026-04-18T15:01:44.678Z</time></trkpt><trkpt lat="9.7061945" lon="-75.4912041"><ele>28.999999999999996</ele><time>2026-04-18T15:01:45.678Z</time></trkpt><trkpt lat="9.7062698" lon="-75.4912395"><ele>29.0</ele><time>2026-04-18T15:01:46.679Z</time></trkpt><trkpt lat="9.7063494" lon="-75.4912811"><ele>29.0</ele><time>2026-04-18T15:01:47.681Z</time></trkpt><trkpt lat="9.7064228" lon="-75.4913191"><ele>29.0</ele><time>2026-04-18T15:01:48.683Z</time></trkpt><trkpt lat="9.7064994" lon="-75.4913544"><ele>28.999999999999996</ele><time>2026-04-18T15:01:49.674Z</time></trkpt><trkpt lat="9.7065746" lon="-75.4913889"><ele>29.0</ele><time>2026-04-18T15:01:50.674Z</time></trkpt><trkpt lat="9.7066527" lon="-75.4914224"><ele>28.999999999999996</ele><time>2026-04-18T15:01:51.675Z</time></trkpt><trkpt lat="9.7067288" lon="-75.4914578"><ele>29.0</ele><time>2026-04-18T15:01:52.674Z</time></trkpt><trkpt lat="9.7068006" lon="-75.4914946"><ele>29.0</ele><time>2026-04-18T15:01:53.671Z</time></trkpt><trkpt lat="9.7068764" lon="-75.4915312"><ele>29.0</ele><time>2026-04-18T15:01:54.673Z</time></trkpt><trkpt lat="9.706953" lon="-75.4915681"><ele>28.999999999999996</ele><time>2026-04-18T15:01:55.672Z</time></trkpt><trkpt lat="9.7070306" lon="-75.491601"><ele>29.0</ele><time>2026-04-18T15:01:56.671Z</time></trkpt><trkpt lat="9.7071075" lon="-75.4916382"><ele>28.666666666666664</ele><time>2026-04-18T15:01:57.666Z</time></trkpt><trkpt lat="9.7071817" lon="-75.4916722"><ele>28.333333333333332</ele><time>2026-04-18T15:01:58.671Z</time></trkpt><trkpt lat="9.707256" lon="-75.4917045"><ele>28.0</ele><time>2026-04-18T15:01:59.666Z</time></trkpt><trkpt lat="9.7073332" lon="-75.4917392"><ele>27.666666666666664</ele><time>2026-04-18T15:02:00.668Z</time></trkpt><trkpt lat="9.7074092" lon="-75.4917744"><ele>27.333333333333332</ele><time>2026-04-18T15:02:01.672Z</time></trkpt><trkpt lat="9.7074865" lon="-75.4918166"><ele>27.0</ele><time>2026-04-18T15:02:02.676Z</time></trkpt><trkpt lat="9.7075655" lon="-75.4918519"><ele>27.0</ele><time>2026-04-18T15:02:03.672Z</time></trkpt><trkpt lat="9.7076451" lon="-75.4918847"><ele>27.0</ele><time>2026-04-18T15:02:04.67Z</time></trkpt><trkpt lat="9.7077243" lon="-75.4919175"><ele>27.0</ele><time>2026-04-18T15:02:05.669Z</time></trkpt><trkpt lat="9.7078058" lon="-75.4919559"><ele>27.0</ele><time>2026-04-18T15:02:06.676Z</time></trkpt><trkpt lat="9.7078804" lon="-75.4919954"><ele>27.0</ele><time>2026-04-18T15:02:07.671Z</time></trkpt><trkpt lat="9.7079586" lon="-75.4920323"><ele>27.0</ele><time>2026-04-18T15:02:08.673Z</time></trkpt><trkpt lat="9.7080409" lon="-75.4920696"><ele>27.166666666666668</ele><time>2026-04-18T15:02:09.668Z</time></trkpt><trkpt lat="9.708122" lon="-75.4921097"><ele>27.333333333333336</ele><time>2026-04-18T15:02:10.672Z</time></trkpt><trkpt lat="9.7082035" lon="-75.4921449"><ele>27.5</ele><time>2026-04-18T15:02:11.667Z</time></trkpt><trkpt lat="9.7082823" lon="-75.4921798"><ele>27.666666666666668</ele><time>2026-04-18T15:02:12.668Z</time></trkpt><trkpt lat="9.7083611" lon="-75.492218"><ele>27.833333333333336</ele><time>2026-04-18T15:02:13.676Z</time></trkpt><trkpt lat="9.7084434" lon="-75.4922543"><ele>28.0</ele><time>2026-04-18T15:02:14.667Z</time></trkpt><trkpt lat="9.7085238" lon="-75.4922928"><ele>28.166666666666668</ele><time>2026-04-18T15:02:15.672Z</time></trkpt><trkpt lat="9.7086075" lon="-75.4923326"><ele>28.333333333333336</ele><time>2026-04-18T15:02:16.677Z</time></trkpt><trkpt lat="9.7086886" lon="-75.4923695"><ele>28.5</ele><time>2026-04-18T15:02:17.671Z</time></trkpt><trkpt lat="9.7087679" lon="-75.492409"><ele>28.666666666666664</ele><time>2026-04-18T15:02:18.672Z</time></trkpt><trkpt lat="9.7088488" lon="-75.4924473"><ele>28.833333333333332</ele><time>2026-04-18T15:02:19.674Z</time></trkpt><trkpt lat="9.708926" lon="-75.4924863"><ele>29.0</ele><time>2026-04-18T15:02:20.671Z</time></trkpt><trkpt lat="9.7090052" lon="-75.4925238"><ele>28.999999999999996</ele><time>2026-04-18T15:02:21.671Z</time></trkpt><trkpt lat="9.7090834" lon="-75.4925606"><ele>29.0</ele><time>2026-04-18T15:02:22.672Z</time></trkpt><trkpt lat="9.7091627" lon="-75.492594"><ele>29.0</ele><time>2026-04-18T15:02:23.671Z</time></trkpt><trkpt lat="9.709239" lon="-75.492628"><ele>29.0</ele><time>2026-04-18T15:02:24.674Z</time></trkpt><trkpt lat="9.7093169" lon="-75.4926597"><ele>28.999999999999996</ele><time>2026-04-18T15:02:25.669Z</time></trkpt><trkpt lat="9.7093919" lon="-75.492696"><ele>29.0</ele><time>2026-04-18T15:02:26.669Z</time></trkpt><trkpt lat="9.7094675" lon="-75.492732"><ele>29.166666666666664</ele><time>2026-04-18T15:02:27.671Z</time></trkpt><trkpt lat="9.7095431" lon="-75.4927678"><ele>29.333333333333332</ele><time>2026-04-18T15:02:28.667Z</time></trkpt><trkpt lat="9.7096214" lon="-75.4928048"><ele>29.5</ele><time>2026-04-18T15:02:29.671Z</time></trkpt><trkpt lat="9.7097008" lon="-75.4928414"><ele>29.666666666666664</ele><time>2026-04-18T15:02:30.669Z</time></trkpt><trkpt lat="9.709779" lon="-75.4928779"><ele>29.833333333333332</ele><time>2026-04-18T15:02:31.668Z</time></trkpt><trkpt lat="9.709855" lon="-75.4929168"><ele>30.0</ele><time>2026-04-18T15:02:32.673Z</time></trkpt><trkpt lat="9.709933" lon="-75.4929525"><ele>29.666666666666668</ele><time>2026-04-18T15:02:33.674Z</time></trkpt><trkpt lat="9.7100106" lon="-75.4929914"><ele>29.333333333333336</ele><time>2026-04-18T15:02:34.67Z</time></trkpt><trkpt lat="9.7100862" lon="-75.4930256"><ele>29.0</ele><time>2026-04-18T15:02:35.671Z</time></trkpt><trkpt lat="9.7101626" lon="-75.4930637"><ele>28.666666666666668</ele><time>2026-04-18T15:02:36.674Z</time></trkpt><trkpt lat="9.7102392" lon="-75.4931001"><ele>28.333333333333336</ele><time>2026-04-18T15:02:37.68Z</time></trkpt><trkpt lat="9.7103124" lon="-75.4931322"><ele>28.0</ele><time>2026-04-18T15:02:38.675Z</time></trkpt><trkpt lat="9.7103878" lon="-75.4931714"><ele>28.000000000000004</ele><time>2026-04-18T15:02:39.673Z</time></trkpt><trkpt lat="9.7104598" lon="-75.4932061"><ele>28.0</ele><time>2026-04-18T15:02:40.685Z</time></trkpt><trkpt lat="9.7105354" lon="-75.4932407"><ele>28.0</ele><time>2026-04-18T15:02:41.671Z</time></trkpt><trkpt lat="9.7106066" lon="-75.493276"><ele>28.0</ele><time>2026-04-18T15:02:42.675Z</time></trkpt><trkpt lat="9.710677" lon="-75.493311"><ele>28.000000000000004</ele><time>2026-04-18T15:02:43.677Z</time></trkpt><trkpt lat="9.7107505" lon="-75.4933462"><ele>28.0</ele><time>2026-04-18T15:02:44.677Z</time></trkpt><trkpt lat="9.710826" lon="-75.4933811"><ele>28.000000000000004</ele><time>2026-04-18T15:02:45.68Z</time></trkpt><trkpt lat="9.7109001" lon="-75.4934186"><ele>28.0</ele><time>2026-04-18T15:02:46.668Z</time></trkpt><trkpt lat="9.7109757" lon="-75.4934568"><ele>28.0</ele><time>2026-04-18T15:02:47.666Z</time></trkpt><trkpt lat="9.7110514" lon="-75.4934932"><ele>28.0</ele><time>2026-04-18T15:02:48.665Z</time></trkpt><trkpt lat="9.7111247" lon="-75.4935282"><ele>28.000000000000004</ele><time>2026-04-18T15:02:49.666Z</time></trkpt><trkpt lat="9.7111999" lon="-75.4935649"><ele>28.0</ele><time>2026-04-18T15:02:50.667Z</time></trkpt><trkpt lat="9.7112742" lon="-75.4936021"><ele>28.166666666666668</ele><time>2026-04-18T15:02:51.666Z</time></trkpt><trkpt lat="9.7113493" lon="-75.4936399"><ele>28.333333333333336</ele><time>2026-04-18T15:02:52.667Z</time></trkpt><trkpt lat="9.7114246" lon="-75.4936705"><ele>28.5</ele><time>2026-04-18T15:02:53.668Z</time></trkpt><trkpt lat="9.7114962" lon="-75.4937063"><ele>28.666666666666664</ele><time>2026-04-18T15:02:54.666Z</time></trkpt><trkpt lat="9.7115701" lon="-75.4937443"><ele>28.833333333333332</ele><time>2026-04-18T15:02:55.669Z</time></trkpt><trkpt lat="9.7116469" lon="-75.4937843"><ele>29.0</ele><time>2026-04-18T15:02:56.669Z</time></trkpt><trkpt lat="9.7117271" lon="-75.493823"><ele>28.499999999999996</ele><time>2026-04-18T15:02:57.675Z</time></trkpt><trkpt lat="9.7118061" lon="-75.49386"><ele>28.0</ele><time>2026-04-18T15:02:58.674Z</time></trkpt><trkpt lat="9.7118853" lon="-75.4939033"><ele>27.5</ele><time>2026-04-18T15:02:59.674Z</time></trkpt><trkpt lat="9.7119624" lon="-75.4939415"><ele>27.0</ele><time>2026-04-18T15:03:00.677Z</time></trkpt><trkpt lat="9.7120398" lon="-75.4939806"><ele>26.499999999999996</ele><time>2026-04-18T15:03:01.692Z</time></trkpt><trkpt lat="9.7121176" lon="-75.4940187"><ele>26.0</ele><time>2026-04-18T15:03:02.677Z</time></trkpt><trkpt lat="9.7121976" lon="-75.4940554"><ele>26.0</ele><time>2026-04-18T15:03:03.674Z</time></trkpt><trkpt lat="9.7122792" lon="-75.4940919"><ele>26.0</ele><time>2026-04-18T15:03:04.671Z</time></trkpt><trkpt lat="9.7123633" lon="-75.4941301"><ele>26.0</ele><time>2026-04-18T15:03:05.675Z</time></trkpt><trkpt lat="9.7124459" lon="-75.4941661"><ele>26.0</ele><time>2026-04-18T15:03:06.671Z</time></trkpt><trkpt lat="9.7125299" lon="-75.4942087"><ele>26.0</ele><time>2026-04-18T15:03:07.67Z</time></trkpt><trkpt lat="9.712611" lon="-75.4942531"><ele>26.0</ele><time>2026-04-18T15:03:08.673Z</time></trkpt><trkpt lat="9.7126949" lon="-75.4942917"><ele>26.0</ele><time>2026-04-18T15:03:09.669Z</time></trkpt><trkpt lat="9.7127786" lon="-75.4943312"><ele>26.0</ele><time>2026-04-18T15:03:10.674Z</time></trkpt><trkpt lat="9.7128615" lon="-75.4943708"><ele>26.0</ele><time>2026-04-18T15:03:11.674Z</time></trkpt><trkpt lat="9.712943" lon="-75.49441"><ele>26.0</ele><time>2026-04-18T15:03:12.674Z</time></trkpt><trkpt lat="9.7130254" lon="-75.4944486"><ele>25.8</ele><time>2026-04-18T15:03:13.67Z</time></trkpt><trkpt lat="9.7131065" lon="-75.4944914"><ele>25.6</ele><time>2026-04-18T15:03:14.672Z</time></trkpt><trkpt lat="9.7131909" lon="-75.4945347"><ele>25.4</ele><time>2026-04-18T15:03:15.672Z</time></trkpt><trkpt lat="9.7132718" lon="-75.4945743"><ele>25.2</ele><time>2026-04-18T15:03:16.67Z</time></trkpt><trkpt lat="9.7133544" lon="-75.4946165"><ele>25.0</ele><time>2026-04-18T15:03:17.675Z</time></trkpt><trkpt lat="9.7134374" lon="-75.494656"><ele>25.0</ele><time>2026-04-18T15:03:18.676Z</time></trkpt><trkpt lat="9.7135173" lon="-75.494694"><ele>25.0</ele><time>2026-04-18T15:03:19.673Z</time></trkpt><trkpt lat="9.7135987" lon="-75.4947346"><ele>25.0</ele><time>2026-04-18T15:03:20.675Z</time></trkpt><trkpt lat="9.7136785" lon="-75.4947771"><ele>25.0</ele><time>2026-04-18T15:03:21.669Z</time></trkpt><trkpt lat="9.713763" lon="-75.4948202"><ele>25.0</ele><time>2026-04-18T15:03:22.678Z</time></trkpt><trkpt lat="9.7138427" lon="-75.4948642"><ele>25.0</ele><time>2026-04-18T15:03:23.673Z</time></trkpt><trkpt lat="9.7139267" lon="-75.4949034"><ele>25.0</ele><time>2026-04-18T15:03:24.672Z</time></trkpt><trkpt lat="9.7140116" lon="-75.4949462"><ele>25.0</ele><time>2026-04-18T15:03:25.676Z</time></trkpt><trkpt lat="9.7140948" lon="-75.4949884"><ele>25.0</ele><time>2026-04-18T15:03:26.67Z</time></trkpt><trkpt lat="9.7141786" lon="-75.4950287"><ele>25.0</ele><time>2026-04-18T15:03:27.666Z</time></trkpt><trkpt lat="9.714263" lon="-75.4950702"><ele>25.0</ele><time>2026-04-18T15:03:28.668Z</time></trkpt><trkpt lat="9.7143453" lon="-75.4951135"><ele>25.0</ele><time>2026-04-18T15:03:29.67Z</time></trkpt><trkpt lat="9.7144287" lon="-75.495157"><ele>25.0</ele><time>2026-04-18T15:03:30.673Z</time></trkpt><trkpt lat="9.714511" lon="-75.4952022"><ele>25.0</ele><time>2026-04-18T15:03:31.674Z</time></trkpt><trkpt lat="9.7145889" lon="-75.4952406"><ele>25.0</ele><time>2026-04-18T15:03:32.673Z</time></trkpt><trkpt lat="9.7146686" lon="-75.495284"><ele>24.8</ele><time>2026-04-18T15:03:33.669Z</time></trkpt><trkpt lat="9.7147519" lon="-75.4953261"><ele>24.6</ele><time>2026-04-18T15:03:34.67Z</time></trkpt><trkpt lat="9.7148329" lon="-75.4953688"><ele>24.4</ele><time>2026-04-18T15:03:35.672Z</time></trkpt><trkpt lat="9.714916" lon="-75.4954054"><ele>24.2</ele><time>2026-04-18T15:03:36.669Z</time></trkpt><trkpt lat="9.7150001" lon="-75.495444"><ele>24.0</ele><time>2026-04-18T15:03:37.671Z</time></trkpt><trkpt lat="9.7150822" lon="-75.4954802"><ele>24.333333333333332</ele><time>2026-04-18T15:03:38.667Z</time></trkpt><trkpt lat="9.7151644" lon="-75.4955204"><ele>24.666666666666664</ele><time>2026-04-18T15:03:39.668Z</time></trkpt><trkpt lat="9.7152435" lon="-75.4955554"><ele>25.0</ele><time>2026-04-18T15:03:40.67Z</time></trkpt><trkpt lat="9.7153221" lon="-75.4955966"><ele>25.333333333333332</ele><time>2026-04-18T15:03:41.669Z</time></trkpt><trkpt lat="9.7153968" lon="-75.4956353"><ele>25.666666666666664</ele><time>2026-04-18T15:03:42.667Z</time></trkpt><trkpt lat="9.715476" lon="-75.4956788"><ele>26.0</ele><time>2026-04-18T15:03:43.666Z</time></trkpt><trkpt lat="9.7155568" lon="-75.4957236"><ele>26.0</ele><time>2026-04-18T15:03:44.668Z</time></trkpt><trkpt lat="9.7156374" lon="-75.4957634"><ele>26.0</ele><time>2026-04-18T15:03:45.669Z</time></trkpt><trkpt lat="9.7157237" lon="-75.4958038"><ele>26.0</ele><time>2026-04-18T15:03:46.669Z</time></trkpt><trkpt lat="9.7158061" lon="-75.4958437"><ele>26.0</ele><time>2026-04-18T15:03:47.674Z</time></trkpt><trkpt lat="9.7158863" lon="-75.4958828"><ele>26.0</ele><time>2026-04-18T15:03:48.67Z</time></trkpt><trkpt lat="9.7159667" lon="-75.4959213"><ele>26.0</ele><time>2026-04-18T15:03:49.673Z</time></trkpt><trkpt lat="9.716048" lon="-75.4959594"><ele>26.0</ele><time>2026-04-18T15:03:50.673Z</time></trkpt><trkpt lat="9.7161276" lon="-75.4959987"><ele>26.0</ele><time>2026-04-18T15:03:51.673Z</time></trkpt><trkpt lat="9.7162086" lon="-75.4960403"><ele>26.0</ele><time>2026-04-18T15:03:52.671Z</time></trkpt><trkpt lat="9.7162925" lon="-75.496082"><ele>26.0</ele><time>2026-04-18T15:03:53.674Z</time></trkpt><trkpt lat="9.7163743" lon="-75.4961235"><ele>25.8</ele><time>2026-04-18T15:03:54.669Z</time></trkpt><trkpt lat="9.7164572" lon="-75.4961604"><ele>25.6</ele><time>2026-04-18T15:03:55.669Z</time></trkpt><trkpt lat="9.7165396" lon="-75.4962056"><ele>25.4</ele><time>2026-04-18T15:03:56.669Z</time></trkpt><trkpt lat="9.7166239" lon="-75.4962455"><ele>25.2</ele><time>2026-04-18T15:03:57.67Z</time></trkpt><trkpt lat="9.7167087" lon="-75.4962809"><ele>25.0</ele><time>2026-04-18T15:03:58.666Z</time></trkpt><trkpt lat="9.7167936" lon="-75.4963198"><ele>25.0</ele><time>2026-04-18T15:03:59.674Z</time></trkpt><trkpt lat="9.7168759" lon="-75.4963639"><ele>25.0</ele><time>2026-04-18T15:04:00.669Z</time></trkpt><trkpt lat="9.7169578" lon="-75.4964058"><ele>25.0</ele><time>2026-04-18T15:04:01.667Z</time></trkpt><trkpt lat="9.7170396" lon="-75.4964419"><ele>25.0</ele><time>2026-04-18T15:04:02.67Z</time></trkpt><trkpt lat="9.7171228" lon="-75.4964804"><ele>25.0</ele><time>2026-04-18T15:04:03.669Z</time></trkpt><trkpt lat="9.7172014" lon="-75.4965181"><ele>25.000000000000004</ele><time>2026-04-18T15:04:04.669Z</time></trkpt><trkpt lat="9.7172776" lon="-75.4965561"><ele>25.0</ele><time>2026-04-18T15:04:05.668Z</time></trkpt><trkpt lat="9.7173591" lon="-75.4965918"><ele>25.0</ele><time>2026-04-18T15:04:06.671Z</time></trkpt><trkpt lat="9.717439" lon="-75.4966285"><ele>25.0</ele><time>2026-04-18T15:04:07.671Z</time></trkpt><trkpt lat="9.7175222" lon="-75.4966676"><ele>25.000000000000004</ele><time>2026-04-18T15:04:08.674Z</time></trkpt><trkpt lat="9.7176025" lon="-75.4967087"><ele>25.0</ele><time>2026-04-18T15:04:09.67Z</time></trkpt><trkpt lat="9.7176807" lon="-75.4967454"><ele>25.4</ele><time>2026-04-18T15:04:10.691Z</time></trkpt><trkpt lat="9.7177649" lon="-75.4967856"><ele>25.8</ele><time>2026-04-18T15:04:11.675Z</time></trkpt><trkpt lat="9.7178463" lon="-75.4968217"><ele>26.200000000000003</ele><time>2026-04-18T15:04:12.67Z</time></trkpt><trkpt lat="9.717929" lon="-75.4968619"><ele>26.6</ele><time>2026-04-18T15:04:13.672Z</time></trkpt><trkpt lat="9.7180127" lon="-75.4969026"><ele>27.0</ele><time>2026-04-18T15:04:14.671Z</time></trkpt><trkpt lat="9.7180933" lon="-75.4969436"><ele>27.0</ele><time>2026-04-18T15:04:15.671Z</time></trkpt><trkpt lat="9.7181738" lon="-75.4969864"><ele>27.0</ele><time>2026-04-18T15:04:16.669Z</time></trkpt><trkpt lat="9.7182551" lon="-75.4970243"><ele>27.0</ele><time>2026-04-18T15:04:17.671Z</time></trkpt><trkpt lat="9.7183352" lon="-75.4970611"><ele>27.0</ele><time>2026-04-18T15:04:18.669Z</time></trkpt><trkpt lat="9.7184133" lon="-75.4970993"><ele>27.0</ele><time>2026-04-18T15:04:19.681Z</time></trkpt><trkpt lat="9.7184913" lon="-75.4971332"><ele>27.0</ele><time>2026-04-18T15:04:20.674Z</time></trkpt><trkpt lat="9.7185675" lon="-75.4971742"><ele>26.666666666666668</ele><time>2026-04-18T15:04:21.671Z</time></trkpt><trkpt lat="9.7186409" lon="-75.4972129"><ele>26.333333333333336</ele><time>2026-04-18T15:04:22.669Z</time></trkpt><trkpt lat="9.7187155" lon="-75.4972504"><ele>26.0</ele><time>2026-04-18T15:04:23.671Z</time></trkpt><trkpt lat="9.718793" lon="-75.4972854"><ele>25.666666666666668</ele><time>2026-04-18T15:04:24.671Z</time></trkpt><trkpt lat="9.7188711" lon="-75.4973205"><ele>25.333333333333336</ele><time>2026-04-18T15:04:25.669Z</time></trkpt><trkpt lat="9.7189518" lon="-75.4973562"><ele>25.0</ele><time>2026-04-18T15:04:26.669Z</time></trkpt><trkpt lat="9.7190334" lon="-75.4973955"><ele>25.0</ele><time>2026-04-18T15:04:27.669Z</time></trkpt><trkpt lat="9.7191162" lon="-75.4974383"><ele>25.0</ele><time>2026-04-18T15:04:28.672Z</time></trkpt><trkpt lat="9.7192" lon="-75.4974759"><ele>25.0</ele><time>2026-04-18T15:04:29.672Z</time></trkpt><trkpt lat="9.7192843" lon="-75.4975175"><ele>25.0</ele><time>2026-04-18T15:04:30.67Z</time></trkpt><trkpt lat="9.7193655" lon="-75.4975579"><ele>25.0</ele><time>2026-04-18T15:04:31.671Z</time></trkpt><trkpt lat="9.7194469" lon="-75.4975966"><ele>24.666666666666668</ele><time>2026-04-18T15:04:32.672Z</time></trkpt><trkpt lat="9.7195258" lon="-75.4976342"><ele>24.333333333333336</ele><time>2026-04-18T15:04:33.67Z</time></trkpt><trkpt lat="9.7196046" lon="-75.4976752"><ele>24.0</ele><time>2026-04-18T15:04:34.67Z</time></trkpt><trkpt lat="9.7196862" lon="-75.497714"><ele>23.666666666666668</ele><time>2026-04-18T15:04:35.667Z</time></trkpt><trkpt lat="9.7197657" lon="-75.4977539"><ele>23.333333333333336</ele><time>2026-04-18T15:04:36.673Z</time></trkpt><trkpt lat="9.719843" lon="-75.497791"><ele>23.0</ele><time>2026-04-18T15:04:37.671Z</time></trkpt><trkpt lat="9.7199224" lon="-75.4978299"><ele>23.0</ele><time>2026-04-18T15:04:38.67Z</time></trkpt><trkpt lat="9.7200032" lon="-75.4978696"><ele>23.0</ele><time>2026-04-18T15:04:39.669Z</time></trkpt><trkpt lat="9.7200837" lon="-75.4979068"><ele>23.0</ele><time>2026-04-18T15:04:40.677Z</time></trkpt><trkpt lat="9.7201627" lon="-75.4979502"><ele>23.0</ele><time>2026-04-18T15:04:41.671Z</time></trkpt><trkpt lat="9.7202398" lon="-75.4979873"><ele>23.0</ele><time>2026-04-18T15:04:42.673Z</time></trkpt><trkpt lat="9.7203201" lon="-75.498024"><ele>23.0</ele><time>2026-04-18T15:04:43.672Z</time></trkpt><trkpt lat="9.7204014" lon="-75.4980633"><ele>23.5</ele><time>2026-04-18T15:04:44.672Z</time></trkpt><trkpt lat="9.7204832" lon="-75.4981001"><ele>24.0</ele><time>2026-04-18T15:04:45.674Z</time></trkpt><trkpt lat="9.7205628" lon="-75.4981348"><ele>24.5</ele><time>2026-04-18T15:04:46.67Z</time></trkpt><trkpt lat="9.7206412" lon="-75.4981786"><ele>25.0</ele><time>2026-04-18T15:04:47.674Z</time></trkpt><trkpt lat="9.7207169" lon="-75.4982137"><ele>25.499999999999996</ele><time>2026-04-18T15:04:48.673Z</time></trkpt><trkpt lat="9.7207951" lon="-75.4982519"><ele>26.0</ele><time>2026-04-18T15:04:49.674Z</time></trkpt><trkpt lat="9.7208694" lon="-75.4982907"><ele>25.999999999999996</ele><time>2026-04-18T15:04:50.671Z</time></trkpt><trkpt lat="9.7209461" lon="-75.4983306"><ele>26.0</ele><time>2026-04-18T15:04:51.669Z</time></trkpt><trkpt lat="9.7210229" lon="-75.4983669"><ele>26.0</ele><time>2026-04-18T15:04:52.67Z</time></trkpt><trkpt lat="9.7211011" lon="-75.4984024"><ele>26.0</ele><time>2026-04-18T15:04:53.671Z</time></trkpt><trkpt lat="9.7211792" lon="-75.4984358"><ele>25.999999999999996</ele><time>2026-04-18T15:04:54.672Z</time></trkpt><trkpt lat="9.7212597" lon="-75.4984709"><ele>26.0</ele><time>2026-04-18T15:04:55.672Z</time></trkpt><trkpt lat="9.7213337" lon="-75.4985121"><ele>25.833333333333332</ele><time>2026-04-18T15:04:56.673Z</time></trkpt><trkpt lat="9.721408" lon="-75.4985514"><ele>25.666666666666664</ele><time>2026-04-18T15:04:57.673Z</time></trkpt><trkpt lat="9.7214851" lon="-75.4985904"><ele>25.5</ele><time>2026-04-18T15:04:58.668Z</time></trkpt><trkpt lat="9.7215648" lon="-75.4986271"><ele>25.333333333333336</ele><time>2026-04-18T15:04:59.672Z</time></trkpt><trkpt lat="9.7216426" lon="-75.4986624"><ele>25.166666666666668</ele><time>2026-04-18T15:05:00.667Z</time></trkpt><trkpt lat="9.7217233" lon="-75.4986988"><ele>25.0</ele><time>2026-04-18T15:05:01.673Z</time></trkpt><trkpt lat="9.7217986" lon="-75.4987378"><ele>25.000000000000004</ele><time>2026-04-18T15:05:02.668Z</time></trkpt><trkpt lat="9.7218752" lon="-75.4987789"><ele>25.0</ele><time>2026-04-18T15:05:03.675Z</time></trkpt><trkpt lat="9.7219527" lon="-75.4988171"><ele>25.0</ele><time>2026-04-18T15:05:04.671Z</time></trkpt><trkpt lat="9.7220299" lon="-75.4988499"><ele>25.0</ele><time>2026-04-18T15:05:05.672Z</time></trkpt><trkpt lat="9.7221103" lon="-75.4988878"><ele>25.000000000000004</ele><time>2026-04-18T15:05:06.671Z</time></trkpt><trkpt lat="9.7221867" lon="-75.4989275"><ele>25.0</ele><time>2026-04-18T15:05:07.673Z</time></trkpt><trkpt lat="9.7222668" lon="-75.4989659"><ele>25.000000000000004</ele><time>2026-04-18T15:05:08.668Z</time></trkpt><trkpt lat="9.7223441" lon="-75.499005"><ele>25.0</ele><time>2026-04-18T15:05:09.672Z</time></trkpt><trkpt lat="9.7224234" lon="-75.4990409"><ele>25.0</ele><time>2026-04-18T15:05:10.67Z</time></trkpt><trkpt lat="9.7225004" lon="-75.4990758"><ele>25.0</ele><time>2026-04-18T15:05:11.671Z</time></trkpt><trkpt lat="9.7225778" lon="-75.4991131"><ele>25.000000000000004</ele><time>2026-04-18T15:05:12.676Z</time></trkpt><trkpt lat="9.7226558" lon="-75.4991526"><ele>25.0</ele><time>2026-04-18T15:05:13.674Z</time></trkpt><trkpt lat="9.7227359" lon="-75.4991901"><ele>25.166666666666668</ele><time>2026-04-18T15:05:14.672Z</time></trkpt><trkpt lat="9.7228114" lon="-75.49923"><ele>25.333333333333336</ele><time>2026-04-18T15:05:15.673Z</time></trkpt><trkpt lat="9.7228882" lon="-75.4992702"><ele>25.5</ele><time>2026-04-18T15:05:16.672Z</time></trkpt><trkpt lat="9.7229663" lon="-75.4993081"><ele>25.666666666666664</ele><time>2026-04-18T15:05:17.671Z</time></trkpt><trkpt lat="9.7230473" lon="-75.4993483"><ele>25.833333333333332</ele><time>2026-04-18T15:05:18.674Z</time></trkpt><trkpt lat="9.7231266" lon="-75.4993891"><ele>26.0</ele><time>2026-04-18T15:05:19.671Z</time></trkpt><trkpt lat="9.7232072" lon="-75.499428"><ele>25.999999999999996</ele><time>2026-04-18T15:05:20.669Z</time></trkpt><trkpt lat="9.7232847" lon="-75.4994653"><ele>26.0</ele><time>2026-04-18T15:05:21.67Z</time></trkpt><trkpt lat="9.723364" lon="-75.4995009"><ele>26.0</ele><time>2026-04-18T15:05:22.669Z</time></trkpt><trkpt lat="9.7234435" lon="-75.4995379"><ele>26.0</ele><time>2026-04-18T15:05:23.669Z</time></trkpt><trkpt lat="9.723521" lon="-75.4995722"><ele>25.999999999999996</ele><time>2026-04-18T15:05:24.67Z</time></trkpt><trkpt lat="9.7235996" lon="-75.4996083"><ele>26.0</ele><time>2026-04-18T15:05:25.67Z</time></trkpt><trkpt lat="9.7236757" lon="-75.4996438"><ele>25.666666666666664</ele><time>2026-04-18T15:05:26.671Z</time></trkpt><trkpt lat="9.7237518" lon="-75.4996796"><ele>25.333333333333332</ele><time>2026-04-18T15:05:27.673Z</time></trkpt><trkpt lat="9.7238279" lon="-75.4997137"><ele>25.0</ele><time>2026-04-18T15:05:28.673Z</time></trkpt><trkpt lat="9.7239056" lon="-75.4997513"><ele>24.666666666666664</ele><time>2026-04-18T15:05:29.673Z</time></trkpt><trkpt lat="9.7239817" lon="-75.4997895"><ele>24.333333333333332</ele><time>2026-04-18T15:05:30.671Z</time></trkpt><trkpt lat="9.7240618" lon="-75.499825"><ele>24.0</ele><time>2026-04-18T15:05:31.672Z</time></trkpt><trkpt lat="9.7241406" lon="-75.4998635"><ele>24.0</ele><time>2026-04-18T15:05:32.672Z</time></trkpt><trkpt lat="9.7242172" lon="-75.4999018"><ele>24.0</ele><time>2026-04-18T15:05:33.668Z</time></trkpt><trkpt lat="9.7242951" lon="-75.4999427"><ele>24.0</ele><time>2026-04-18T15:05:34.672Z</time></trkpt><trkpt lat="9.7243731" lon="-75.4999802"><ele>24.0</ele><time>2026-04-18T15:05:35.674Z</time></trkpt><trkpt lat="9.7244492" lon="-75.5000179"><ele>24.0</ele><time>2026-04-18T15:05:36.672Z</time></trkpt><trkpt lat="9.7245288" lon="-75.5000548"><ele>24.0</ele><time>2026-04-18T15:05:37.668Z</time></trkpt><trkpt lat="9.7246078" lon="-75.500091"><ele>23.833333333333332</ele><time>2026-04-18T15:05:38.671Z</time></trkpt><trkpt lat="9.7246872" lon="-75.5001284"><ele>23.666666666666668</ele><time>2026-04-18T15:05:39.669Z</time></trkpt><trkpt lat="9.7247638" lon="-75.500164"><ele>23.5</ele><time>2026-04-18T15:05:40.67Z</time></trkpt><trkpt lat="9.7248423" lon="-75.5002045"><ele>23.333333333333336</ele><time>2026-04-18T15:05:41.67Z</time></trkpt><trkpt lat="9.7249198" lon="-75.5002419"><ele>23.166666666666668</ele><time>2026-04-18T15:05:42.669Z</time></trkpt><trkpt lat="9.7249996" lon="-75.5002794"><ele>23.0</ele><time>2026-04-18T15:05:43.669Z</time></trkpt><trkpt lat="9.7250796" lon="-75.5003155"><ele>23.0</ele><time>2026-04-18T15:05:44.675Z</time></trkpt><trkpt lat="9.7251608" lon="-75.5003558"><ele>23.0</ele><time>2026-04-18T15:05:45.675Z</time></trkpt><trkpt lat="9.7252401" lon="-75.500393"><ele>23.0</ele><time>2026-04-18T15:05:46.675Z</time></trkpt><trkpt lat="9.7253201" lon="-75.5004282"><ele>23.0</ele><time>2026-04-18T15:05:47.674Z</time></trkpt><trkpt lat="9.7254006" lon="-75.5004676"><ele>23.0</ele><time>2026-04-18T15:05:48.671Z</time></trkpt><trkpt lat="9.7254796" lon="-75.5005021"><ele>23.0</ele><time>2026-04-18T15:05:49.67Z</time></trkpt><trkpt lat="9.7255587" lon="-75.5005404"><ele>23.0</ele><time>2026-04-18T15:05:50.67Z</time></trkpt><trkpt lat="9.7256354" lon="-75.5005778"><ele>23.0</ele><time>2026-04-18T15:05:51.675Z</time></trkpt><trkpt lat="9.7257147" lon="-75.5006202"><ele>23.0</ele><time>2026-04-18T15:05:52.667Z</time></trkpt><trkpt lat="9.7257945" lon="-75.5006574"><ele>23.0</ele><time>2026-04-18T15:05:53.671Z</time></trkpt><trkpt lat="9.7258712" lon="-75.500696"><ele>23.0</ele><time>2026-04-18T15:05:54.671Z</time></trkpt><trkpt lat="9.7259487" lon="-75.5007356"><ele>23.0</ele><time>2026-04-18T15:05:55.672Z</time></trkpt><trkpt lat="9.7260283" lon="-75.5007757"><ele>23.0</ele><time>2026-04-18T15:05:56.668Z</time></trkpt><trkpt lat="9.7261098" lon="-75.500816"><ele>23.0</ele><time>2026-04-18T15:05:57.67Z</time></trkpt><trkpt lat="9.726191" lon="-75.5008542"><ele>23.0</ele><time>2026-04-18T15:05:58.67Z</time></trkpt><trkpt lat="9.726272" lon="-75.5008948"><ele>23.0</ele><time>2026-04-18T15:05:59.669Z</time></trkpt><trkpt lat="9.7263536" lon="-75.5009365"><ele>23.0</ele><time>2026-04-18T15:06:00.668Z</time></trkpt><trkpt lat="9.7264303" lon="-75.5009754"><ele>23.0</ele><time>2026-04-18T15:06:01.668Z</time></trkpt><trkpt lat="9.7240618" lon="-75.499825"><ele>23.0</ele><time>2026-04-18T15:05:31.672Z</time></trkpt><trkpt lat="9.7241406" lon="-75.4998635"><ele>23.0</ele><time>2026-04-18T15:05:32.672Z</time></trkpt><trkpt lat="9.7242172" lon="-75.4999018"><ele>23.0</ele><time>2026-04-18T15:05:33.668Z</time></trkpt><trkpt lat="9.7242951" lon="-75.4999427"><ele>23.0</ele><time>2026-04-18T15:05:34.672Z</time></trkpt><trkpt lat="9.7243731" lon="-75.4999802"><ele>23.0</ele><time>2026-04-18T15:05:35.674Z</time></trkpt><trkpt lat="9.7244492" lon="-75.5000179"><ele>23.0</ele><time>2026-04-18T15:05:36.672Z</time></trkpt><trkpt lat="9.7245288" lon="-75.5000548"><ele>23.0</ele><time>2026-04-18T15:05:37.668Z</time></trkpt><trkpt lat="9.7246078" lon="-75.500091"><ele>23.0</ele><time>2026-04-18T15:05:38.671Z</time></trkpt><trkpt lat="9.7246872" lon="-75.5001284"><ele>23.0</ele><time>2026-04-18T15:05:39.669Z</time></trkpt><trkpt lat="9.7247638" lon="-75.500164"><ele>23.0</ele><time>2026-04-18T15:05:40.67Z</time></trkpt><trkpt lat="9.7248423" lon="-75.5002045"><ele>23.0</ele><time>2026-04-18T15:05:41.67Z</time></trkpt><trkpt lat="9.7249198" lon="-75.5002419"><ele>23.0</ele><time>2026-04-18T15:05:42.669Z</time></trkpt><trkpt lat="9.7249996" lon="-75.5002794"><ele>23.0</ele><time>2026-04-18T15:05:43.669Z</time></trkpt><trkpt lat="9.7250796" lon="-75.5003155"><ele>23.0</ele><time>2026-04-18T15:05:44.675Z</time></trkpt><trkpt lat="9.7251608" lon="-75.5003558"><ele>23.0</ele><time>2026-04-18T15:05:45.675Z</time></trkpt><trkpt lat="9.7252401" lon="-75.500393"><ele>23.0</ele><time>2026-04-18T15:05:46.675Z</time></trkpt><trkpt lat="9.7253201" lon="-75.5004282"><ele>23.0</ele><time>2026-04-18T15:05:47.674Z</time></trkpt><trkpt lat="9.7254006" lon="-75.5004676"><ele>23.0</ele><time>2026-04-18T15:05:48.671Z</time></trkpt><trkpt lat="9.7254796" lon="-75.5005021"><ele>23.0</ele><time>2026-04-18T15:05:49.67Z</time></trkpt><trkpt lat="9.7255587" lon="-75.5005404"><ele>23.0</ele><time>2026-04-18T15:05:50.67Z</time></trkpt><trkpt lat="9.7256354" lon="-75.5005778"><ele>23.0</ele><time>2026-04-18T15:05:51.675Z</time></trkpt><trkpt lat="9.7257147" lon="-75.5006202"><ele>23.0</ele><time>2026-04-18T15:05:52.667Z</time></trkpt><trkpt lat="9.7257945" lon="-75.5006574"><ele>23.0</ele><time>2026-04-18T15:05:53.671Z</time></trkpt><trkpt lat="9.7258712" lon="-75.500696"><ele>23.0</ele><time>2026-04-18T15:05:54.671Z</time></trkpt><trkpt lat="9.7259487" lon="-75.5007356"><ele>23.0</ele><time>2026-04-18T15:05:55.672Z</time></trkpt><trkpt lat="9.7260283" lon="-75.5007757"><ele>23.0</ele><time>2026-04-18T15:05:56.668Z</time></trkpt><trkpt lat="9.7261098" lon="-75.500816"><ele>23.0</ele><time>2026-04-18T15:05:57.67Z</time></trkpt><trkpt lat="9.726191" lon="-75.5008542"><ele>23.0</ele><time>2026-04-18T15:05:58.67Z</time></trkpt><trkpt lat="9.726272" lon="-75.5008948"><ele>23.0</ele><time>2026-04-18T15:05:59.669Z</time></trkpt><trkpt lat="9.7263536" lon="-75.5009365"><ele>23.0</ele><time>2026-04-18T15:06:00.668Z</time></trkpt><trkpt lat="9.7264303" lon="-75.5009754"><ele>23.0</ele><time>2026-04-18T15:06:01.668Z</time></trkpt><trkpt lat="9.7265081" lon="-75.5010155"><ele>23.0</ele><time>2026-04-18T15:06:02.668Z</time></trkpt><trkpt lat="9.7265904" lon="-75.5010545"><ele>23.0</ele><time>2026-04-18T15:06:03.671Z</time></trkpt><trkpt lat="9.7266733" lon="-75.5010899"><ele>23.0</ele><time>2026-04-18T15:06:04.671Z</time></trkpt><trkpt lat="9.7267566" lon="-75.5011287"><ele>23.0</ele><time>2026-04-18T15:06:05.67Z</time></trkpt><trkpt lat="9.7268362" lon="-75.5011682"><ele>23.166666666666668</ele><time>2026-04-18T15:06:06.672Z</time></trkpt><trkpt lat="9.7269164" lon="-75.5012094"><ele>23.333333333333336</ele><time>2026-04-18T15:06:07.667Z</time></trkpt><trkpt lat="9.7269994" lon="-75.5012501"><ele>23.5</ele><time>2026-04-18T15:06:08.669Z</time></trkpt><trkpt lat="9.7270807" lon="-75.5012888"><ele>23.666666666666668</ele><time>2026-04-18T15:06:09.672Z</time></trkpt><trkpt lat="9.7271599" lon="-75.5013286"><ele>23.833333333333332</ele><time>2026-04-18T15:06:10.673Z</time></trkpt><trkpt lat="9.727241" lon="-75.5013651"><ele>24.0</ele><time>2026-04-18T15:06:11.67Z</time></trkpt><trkpt lat="9.7273218" lon="-75.5014"><ele>24.0</ele><time>2026-04-18T15:06:12.674Z</time></trkpt><trkpt lat="9.7274055" lon="-75.5014405"><ele>24.0</ele><time>2026-04-18T15:06:13.678Z</time></trkpt><trkpt lat="9.7274839" lon="-75.5014797"><ele>24.0</ele><time>2026-04-18T15:06:14.67Z</time></trkpt><trkpt lat="9.7275647" lon="-75.5015173"><ele>24.0</ele><time>2026-04-18T15:06:15.67Z</time></trkpt><trkpt lat="9.7276444" lon="-75.5015548"><ele>24.0</ele><time>2026-04-18T15:06:16.673Z</time></trkpt><trkpt lat="9.7277224" lon="-75.5015922"><ele>24.0</ele><time>2026-04-18T15:06:17.671Z</time></trkpt><trkpt lat="9.727803" lon="-75.5016315"><ele>24.0</ele><time>2026-04-18T15:06:18.672Z</time></trkpt><trkpt lat="9.7278853" lon="-75.5016667"><ele>24.0</ele><time>2026-04-18T15:06:19.67Z</time></trkpt><trkpt lat="9.727965" lon="-75.5017063"><ele>24.0</ele><time>2026-04-18T15:06:20.678Z</time></trkpt><trkpt lat="9.728046" lon="-75.501747"><ele>24.0</ele><time>2026-04-18T15:06:21.672Z</time></trkpt><trkpt lat="9.7281277" lon="-75.5017896"><ele>24.0</ele><time>2026-04-18T15:06:22.672Z</time></trkpt><trkpt lat="9.7282124" lon="-75.5018327"><ele>24.0</ele><time>2026-04-18T15:06:23.674Z</time></trkpt><trkpt lat="9.7282941" lon="-75.501875"><ele>24.0</ele><time>2026-04-18T15:06:24.672Z</time></trkpt><trkpt lat="9.7283759" lon="-75.5019157"><ele>24.0</ele><time>2026-04-18T15:06:25.674Z</time></trkpt><trkpt lat="9.7284499" lon="-75.5019601"><ele>24.0</ele><time>2026-04-18T15:06:26.674Z</time></trkpt><trkpt lat="9.7285245" lon="-75.5020053"><ele>24.0</ele><time>2026-04-18T15:06:27.673Z</time></trkpt><trkpt lat="9.7285999" lon="-75.5020544"><ele>24.0</ele><time>2026-04-18T15:06:28.676Z</time></trkpt><trkpt lat="9.7286732" lon="-75.5021053"><ele>24.666666666666668</ele><time>2026-04-18T15:06:29.673Z</time></trkpt><trkpt lat="9.728742" lon="-75.5021588"><ele>25.333333333333336</ele><time>2026-04-18T15:06:30.672Z</time></trkpt><trkpt lat="9.7288123" lon="-75.5022121"><ele>26.0</ele><time>2026-04-18T15:06:31.674Z</time></trkpt><trkpt lat="9.7288804" lon="-75.5022694"><ele>26.666666666666668</ele><time>2026-04-18T15:06:32.669Z</time></trkpt><trkpt lat="9.7289462" lon="-75.5023378"><ele>27.333333333333336</ele><time>2026-04-18T15:06:33.67Z</time></trkpt><trkpt lat="9.7290075" lon="-75.5024026"><ele>28.0</ele><time>2026-04-18T15:06:34.673Z</time></trkpt><trkpt lat="9.7290621" lon="-75.5024678"><ele>28.000000000000004</ele><time>2026-04-18T15:06:35.68Z</time></trkpt><trkpt lat="9.72912" lon="-75.5025327"><ele>28.0</ele><time>2026-04-18T15:06:36.676Z</time></trkpt><trkpt lat="9.7291713" lon="-75.5026014"><ele>28.0</ele><time>2026-04-18T15:06:37.679Z</time></trkpt><trkpt lat="9.7292229" lon="-75.5026735"><ele>28.0</ele><time>2026-04-18T15:06:38.681Z</time></trkpt><trkpt lat="9.7292703" lon="-75.5027465"><ele>28.000000000000004</ele><time>2026-04-18T15:06:39.671Z</time></trkpt><trkpt lat="9.7293154" lon="-75.5028237"><ele>28.0</ele><time>2026-04-18T15:06:40.673Z</time></trkpt><trkpt lat="9.7293592" lon="-75.502898"><ele>27.666666666666668</ele><time>2026-04-18T15:06:41.674Z</time></trkpt><trkpt lat="9.7294045" lon="-75.5029735"><ele>27.333333333333336</ele><time>2026-04-18T15:06:42.675Z</time></trkpt><trkpt lat="9.7294497" lon="-75.5030509"><ele>27.0</ele><time>2026-04-18T15:06:43.672Z</time></trkpt><trkpt lat="9.7294952" lon="-75.5031271"><ele>26.666666666666664</ele><time>2026-04-18T15:06:44.673Z</time></trkpt><trkpt lat="9.7295374" lon="-75.5032037"><ele>26.333333333333332</ele><time>2026-04-18T15:06:45.67Z</time></trkpt><trkpt lat="9.7295829" lon="-75.5032786"><ele>26.0</ele><time>2026-04-18T15:06:46.671Z</time></trkpt><trkpt lat="9.7296262" lon="-75.5033598"><ele>25.999999999999996</ele><time>2026-04-18T15:06:47.671Z</time></trkpt><trkpt lat="9.7296667" lon="-75.5034383"><ele>26.0</ele><time>2026-04-18T15:06:48.67Z</time></trkpt><trkpt lat="9.7297098" lon="-75.5035157"><ele>26.0</ele><time>2026-04-18T15:06:49.669Z</time></trkpt><trkpt lat="9.7297481" lon="-75.5035878"><ele>26.0</ele><time>2026-04-18T15:06:50.669Z</time></trkpt><trkpt lat="9.7297896" lon="-75.5036632"><ele>25.999999999999996</ele><time>2026-04-18T15:06:51.672Z</time></trkpt><trkpt lat="9.7298321" lon="-75.5037414"><ele>26.0</ele><time>2026-04-18T15:06:52.672Z</time></trkpt><trkpt lat="9.7298737" lon="-75.5038138"><ele>25.833333333333332</ele><time>2026-04-18T15:06:53.669Z</time></trkpt><trkpt lat="9.7299156" lon="-75.5038879"><ele>25.666666666666664</ele><time>2026-04-18T15:06:54.671Z</time></trkpt><trkpt lat="9.7299566" lon="-75.5039603"><ele>25.5</ele><time>2026-04-18T15:06:55.67Z</time></trkpt><trkpt lat="9.7299935" lon="-75.5040317"><ele>25.333333333333336</ele><time>2026-04-18T15:06:56.67Z</time></trkpt><trkpt lat="9.7300347" lon="-75.5041023"><ele>25.166666666666668</ele><time>2026-04-18T15:06:57.674Z</time></trkpt><trkpt lat="9.730076" lon="-75.5041764"><ele>25.0</ele><time>2026-04-18T15:06:58.671Z</time></trkpt><trkpt lat="9.7301175" lon="-75.5042468"><ele>25.000000000000004</ele><time>2026-04-18T15:06:59.672Z</time></trkpt><trkpt lat="9.7301562" lon="-75.5043196"><ele>25.0</ele><time>2026-04-18T15:07:00.671Z</time></trkpt><trkpt lat="9.7301992" lon="-75.5043906"><ele>25.0</ele><time>2026-04-18T15:07:01.677Z</time></trkpt><trkpt lat="9.7302391" lon="-75.5044575"><ele>25.0</ele><time>2026-04-18T15:07:02.676Z</time></trkpt><trkpt lat="9.7302766" lon="-75.5045293"><ele>25.000000000000004</ele><time>2026-04-18T15:07:03.669Z</time></trkpt><trkpt lat="9.7303147" lon="-75.5046015"><ele>25.0</ele><time>2026-04-18T15:07:04.671Z</time></trkpt><trkpt lat="9.7303527" lon="-75.5046756"><ele>24.500000000000004</ele><time>2026-04-18T15:07:05.676Z</time></trkpt><trkpt lat="9.7303914" lon="-75.5047439"><ele>24.0</ele><time>2026-04-18T15:07:06.675Z</time></trkpt><trkpt lat="9.7304296" lon="-75.5048145"><ele>23.5</ele><time>2026-04-18T15:07:07.67Z</time></trkpt><trkpt lat="9.7304687" lon="-75.5048838"><ele>23.0</ele><time>2026-04-18T15:07:08.669Z</time></trkpt><trkpt lat="9.7305079" lon="-75.5049561"><ele>22.5</ele><time>2026-04-18T15:07:09.667Z</time></trkpt><trkpt lat="9.7305471" lon="-75.5050292"><ele>22.0</ele><time>2026-04-18T15:07:10.67Z</time></trkpt><trkpt lat="9.7305916" lon="-75.5051047"><ele>22.0</ele><time>2026-04-18T15:07:11.669Z</time></trkpt><trkpt lat="9.7306332" lon="-75.5051817"><ele>22.0</ele><time>2026-04-18T15:07:12.671Z</time></trkpt><trkpt lat="9.7306746" lon="-75.505253"><ele>22.0</ele><time>2026-04-18T15:07:13.674Z</time></trkpt><trkpt lat="9.7307153" lon="-75.5053241"><ele>22.0</ele><time>2026-04-18T15:07:14.669Z</time></trkpt><trkpt lat="9.7307551" lon="-75.5053993"><ele>22.0</ele><time>2026-04-18T15:07:15.672Z</time></trkpt><trkpt lat="9.7307967" lon="-75.5054724"><ele>22.0</ele><time>2026-04-18T15:07:16.67Z</time></trkpt><trkpt lat="9.7308379" lon="-75.5055485"><ele>22.166666666666664</ele><time>2026-04-18T15:07:17.672Z</time></trkpt><trkpt lat="9.7308821" lon="-75.5056211"><ele>22.333333333333332</ele><time>2026-04-18T15:07:18.672Z</time></trkpt><trkpt lat="9.7309209" lon="-75.5056976"><ele>22.5</ele><time>2026-04-18T15:07:19.672Z</time></trkpt><trkpt lat="9.7309612" lon="-75.5057752"><ele>22.666666666666668</ele><time>2026-04-18T15:07:20.676Z</time></trkpt><trkpt lat="9.7310048" lon="-75.5058529"><ele>22.833333333333336</ele><time>2026-04-18T15:07:21.671Z</time></trkpt><trkpt lat="9.7310452" lon="-75.5059314"><ele>23.0</ele><time>2026-04-18T15:07:22.673Z</time></trkpt><trkpt lat="9.7310862" lon="-75.5060106"><ele>23.0</ele><time>2026-04-18T15:07:23.676Z</time></trkpt><trkpt lat="9.7311297" lon="-75.5060873"><ele>23.0</ele><time>2026-04-18T15:07:24.669Z</time></trkpt><trkpt lat="9.7311732" lon="-75.5061643"><ele>23.0</ele><time>2026-04-18T15:07:25.673Z</time></trkpt><trkpt lat="9.7312149" lon="-75.5062421"><ele>23.0</ele><time>2026-04-18T15:07:26.671Z</time></trkpt><trkpt lat="9.731262" lon="-75.5063248"><ele>23.0</ele><time>2026-04-18T15:07:27.671Z</time></trkpt><trkpt lat="9.7313041" lon="-75.5064026"><ele>23.0</ele><time>2026-04-18T15:07:28.668Z</time></trkpt><trkpt lat="9.7313482" lon="-75.5064787"><ele>22.833333333333336</ele><time>2026-04-18T15:07:29.668Z</time></trkpt><trkpt lat="9.7313915" lon="-75.5065563"><ele>22.666666666666668</ele><time>2026-04-18T15:07:30.669Z</time></trkpt><trkpt lat="9.7314323" lon="-75.5066292"><ele>22.5</ele><time>2026-04-18T15:07:31.672Z</time></trkpt><trkpt lat="9.7314708" lon="-75.5067027"><ele>22.333333333333332</ele><time>2026-04-18T15:07:32.673Z</time></trkpt><trkpt lat="9.7315124" lon="-75.5067802"><ele>22.166666666666664</ele><time>2026-04-18T15:07:33.677Z</time></trkpt><trkpt lat="9.7315527" lon="-75.5068525"><ele>22.0</ele><time>2026-04-18T15:07:34.672Z</time></trkpt><trkpt lat="9.7315927" lon="-75.5069283"><ele>22.0</ele><time>2026-04-18T15:07:35.671Z</time></trkpt><trkpt lat="9.7316345" lon="-75.5069994"><ele>22.0</ele><time>2026-04-18T15:07:36.673Z</time></trkpt><trkpt lat="9.7316763" lon="-75.5070781"><ele>22.0</ele><time>2026-04-18T15:07:37.678Z</time></trkpt><trkpt lat="9.7317172" lon="-75.5071547"><ele>22.0</ele><time>2026-04-18T15:07:38.673Z</time></trkpt><trkpt lat="9.7317577" lon="-75.5072315"><ele>22.0</ele><time>2026-04-18T15:07:39.668Z</time></trkpt><trkpt lat="9.7317979" lon="-75.5073126"><ele>22.0</ele><time>2026-04-18T15:07:40.674Z</time></trkpt><trkpt lat="9.7318418" lon="-75.5073904"><ele>22.166666666666664</ele><time>2026-04-18T15:07:41.672Z</time></trkpt><trkpt lat="9.7318808" lon="-75.5074676"><ele>22.333333333333332</ele><time>2026-04-18T15:07:42.668Z</time></trkpt><trkpt lat="9.7319254" lon="-75.5075448"><ele>22.5</ele><time>2026-04-18T15:07:43.668Z</time></trkpt><trkpt lat="9.7319699" lon="-75.5076234"><ele>22.666666666666668</ele><time>2026-04-18T15:07:44.675Z</time></trkpt><trkpt lat="9.7320128" lon="-75.5076972"><ele>22.833333333333336</ele><time>2026-04-18T15:07:45.669Z</time></trkpt><trkpt lat="9.7320571" lon="-75.5077692"><ele>23.0</ele><time>2026-04-18T15:07:46.673Z</time></trkpt><trkpt lat="9.7320986" lon="-75.5078489"><ele>23.333333333333336</ele><time>2026-04-18T15:07:47.671Z</time></trkpt><trkpt lat="9.732148" lon="-75.5079257"><ele>23.666666666666668</ele><time>2026-04-18T15:07:48.67Z</time></trkpt><trkpt lat="9.7321946" lon="-75.5080004"><ele>24.0</ele><time>2026-04-18T15:07:49.673Z</time></trkpt><trkpt lat="9.7322328" lon="-75.5080726"><ele>24.333333333333336</ele><time>2026-04-18T15:07:50.67Z</time></trkpt><trkpt lat="9.7322752" lon="-75.5081505"><ele>24.666666666666668</ele><time>2026-04-18T15:07:51.67Z</time></trkpt><trkpt lat="9.7323171" lon="-75.5082222"><ele>25.0</ele><time>2026-04-18T15:07:52.672Z</time></trkpt><trkpt lat="9.7323597" lon="-75.5082988"><ele>25.000000000000004</ele><time>2026-04-18T15:07:53.67Z</time></trkpt><trkpt lat="9.7323987" lon="-75.5083738"><ele>25.0</ele><time>2026-04-18T15:07:54.671Z</time></trkpt><trkpt lat="9.7324416" lon="-75.508448"><ele>25.0</ele><time>2026-04-18T15:07:55.67Z</time></trkpt><trkpt lat="9.7324798" lon="-75.5085259"><ele>25.0</ele><time>2026-04-18T15:07:56.671Z</time></trkpt><trkpt lat="9.7325219" lon="-75.508601"><ele>25.000000000000004</ele><time>2026-04-18T15:07:57.675Z</time></trkpt><trkpt lat="9.7325647" lon="-75.5086808"><ele>25.0</ele><time>2026-04-18T15:07:58.675Z</time></trkpt><trkpt lat="9.7326064" lon="-75.5087617"><ele>24.833333333333336</ele><time>2026-04-18T15:07:59.672Z</time></trkpt><trkpt lat="9.7326505" lon="-75.5088433"><ele>24.666666666666668</ele><time>2026-04-18T15:08:00.671Z</time></trkpt><trkpt lat="9.7326969" lon="-75.5089238"><ele>24.5</ele><time>2026-04-18T15:08:01.673Z</time></trkpt><trkpt lat="9.732744" lon="-75.5089989"><ele>24.333333333333336</ele><time>2026-04-18T15:08:02.674Z</time></trkpt><trkpt lat="9.73279" lon="-75.5090728"><ele>24.166666666666668</ele><time>2026-04-18T15:08:03.671Z</time></trkpt><trkpt lat="9.7328298" lon="-75.5091489"><ele>24.0</ele><time>2026-04-18T15:08:04.671Z</time></trkpt><trkpt lat="9.7328682" lon="-75.5092234"><ele>24.0</ele><time>2026-04-18T15:08:05.674Z</time></trkpt><trkpt lat="9.7329082" lon="-75.5093014"><ele>24.0</ele><time>2026-04-18T15:08:06.671Z</time></trkpt><trkpt lat="9.7329531" lon="-75.5093767"><ele>24.0</ele><time>2026-04-18T15:08:07.675Z</time></trkpt><trkpt lat="9.7329962" lon="-75.5094568"><ele>24.0</ele><time>2026-04-18T15:08:08.673Z</time></trkpt><trkpt lat="9.7330435" lon="-75.509536"><ele>24.0</ele><time>2026-04-18T15:08:09.668Z</time></trkpt><trkpt lat="9.7330919" lon="-75.5096177"><ele>24.0</ele><time>2026-04-18T15:08:10.681Z</time></trkpt><trkpt lat="9.7331377" lon="-75.5096978"><ele>24.166666666666668</ele><time>2026-04-18T15:08:11.673Z</time></trkpt><trkpt lat="9.7331857" lon="-75.5097777"><ele>24.333333333333336</ele><time>2026-04-18T15:08:12.673Z</time></trkpt><trkpt lat="9.7332285" lon="-75.5098588"><ele>24.5</ele><time>2026-04-18T15:08:13.672Z</time></trkpt><trkpt lat="9.7332722" lon="-75.5099374"><ele>24.666666666666668</ele><time>2026-04-18T15:08:14.67Z</time></trkpt><trkpt lat="9.7333122" lon="-75.5100144"><ele>24.833333333333336</ele><time>2026-04-18T15:08:15.668Z</time></trkpt><trkpt lat="9.7333543" lon="-75.5100901"><ele>25.0</ele><time>2026-04-18T15:08:16.67Z</time></trkpt><trkpt lat="9.7333968" lon="-75.5101646"><ele>25.000000000000004</ele><time>2026-04-18T15:08:17.677Z</time></trkpt><trkpt lat="9.7334385" lon="-75.510241"><ele>25.0</ele><time>2026-04-18T15:08:18.667Z</time></trkpt><trkpt lat="9.7334816" lon="-75.5103132"><ele>25.0</ele><time>2026-04-18T15:08:19.669Z</time></trkpt><trkpt lat="9.7335218" lon="-75.5103855"><ele>25.0</ele><time>2026-04-18T15:08:20.673Z</time></trkpt><trkpt lat="9.733564" lon="-75.5104549"><ele>25.000000000000004</ele><time>2026-04-18T15:08:21.673Z</time></trkpt><trkpt lat="9.7336026" lon="-75.5105234"><ele>25.0</ele><time>2026-04-18T15:08:22.67Z</time></trkpt><trkpt lat="9.7336383" lon="-75.5105872"><ele>25.42857142857143</ele><time>2026-04-18T15:08:23.669Z</time></trkpt><trkpt lat="9.7336743" lon="-75.5106511"><ele>25.857142857142858</ele><time>2026-04-18T15:08:24.673Z</time></trkpt><trkpt lat="9.7337071" lon="-75.5107114"><ele>26.285714285714285</ele><time>2026-04-18T15:08:25.672Z</time></trkpt><trkpt lat="9.7337437" lon="-75.5107739"><ele>26.714285714285715</ele><time>2026-04-18T15:08:26.673Z</time></trkpt><trkpt lat="9.7337732" lon="-75.5108351"><ele>27.142857142857142</ele><time>2026-04-18T15:08:27.679Z</time></trkpt><trkpt lat="9.7338042" lon="-75.5108968"><ele>27.571428571428573</ele><time>2026-04-18T15:08:28.671Z</time></trkpt><trkpt lat="9.7338357" lon="-75.5109528"><ele>28.0</ele><time>2026-04-18T15:08:29.695Z</time></trkpt><trkpt lat="9.733866" lon="-75.5110123"><ele>28.0</ele><time>2026-04-18T15:08:30.673Z</time></trkpt><trkpt lat="9.7339246" lon="-75.5111199"><ele>27.999999999999996</ele><time>2026-04-18T15:08:32.681Z</time></trkpt><trkpt lat="9.7339839" lon="-75.5112219"><ele>27.999999999999996</ele><time>2026-04-18T15:08:34.672Z</time></trkpt><trkpt lat="9.7340373" lon="-75.511332"><ele>28.0</ele><time>2026-04-18T15:08:36.671Z</time></trkpt><trkpt lat="9.7340675" lon="-75.5113892"><ele>28.0</ele><time>2026-04-18T15:08:37.668Z</time></trkpt><trkpt lat="9.734103" lon="-75.5114479"><ele>27.714285714285715</ele><time>2026-04-18T15:08:38.671Z</time></trkpt><trkpt lat="9.7341399" lon="-75.5115085"><ele>27.42857142857143</ele><time>2026-04-18T15:08:39.671Z</time></trkpt><trkpt lat="9.7341754" lon="-75.5115697"><ele>27.142857142857142</ele><time>2026-04-18T15:08:40.671Z</time></trkpt><trkpt lat="9.7342112" lon="-75.5116354"><ele>26.857142857142858</ele><time>2026-04-18T15:08:41.672Z</time></trkpt><trkpt lat="9.7342467" lon="-75.5117004"><ele>26.571428571428573</ele><time>2026-04-18T15:08:42.673Z</time></trkpt><trkpt lat="9.7342814" lon="-75.5117643"><ele>26.285714285714285</ele><time>2026-04-18T15:08:43.671Z</time></trkpt><trkpt lat="9.7343172" lon="-75.511826"><ele>26.0</ele><time>2026-04-18T15:08:44.67Z</time></trkpt><trkpt lat="9.7343554" lon="-75.5118902"><ele>25.999999999999996</ele><time>2026-04-18T15:08:45.672Z</time></trkpt><trkpt lat="9.7343874" lon="-75.5119547"><ele>26.0</ele><time>2026-04-18T15:08:46.671Z</time></trkpt><trkpt lat="9.7344243" lon="-75.5120238"><ele>26.0</ele><time>2026-04-18T15:08:47.673Z</time></trkpt><trkpt lat="9.7344643" lon="-75.5120914"><ele>26.0</ele><time>2026-04-18T15:08:48.676Z</time></trkpt><trkpt lat="9.7345018" lon="-75.5121626"><ele>25.999999999999996</ele><time>2026-04-18T15:08:49.678Z</time></trkpt><trkpt lat="9.7345336" lon="-75.5122267"><ele>26.0</ele><time>2026-04-18T15:08:50.675Z</time></trkpt><trkpt lat="9.7345714" lon="-75.5122969"><ele>26.833333333333332</ele><time>2026-04-18T15:08:51.673Z</time></trkpt><trkpt lat="9.7346121" lon="-75.5123657"><ele>27.666666666666664</ele><time>2026-04-18T15:08:52.67Z</time></trkpt><trkpt lat="9.7346491" lon="-75.5124329"><ele>28.5</ele><time>2026-04-18T15:08:53.674Z</time></trkpt><trkpt lat="9.7346855" lon="-75.512503"><ele>29.333333333333336</ele><time>2026-04-18T15:08:54.67Z</time></trkpt><trkpt lat="9.7347237" lon="-75.5125722"><ele>30.166666666666668</ele><time>2026-04-18T15:08:55.674Z</time></trkpt><trkpt lat="9.734758" lon="-75.5126433"><ele>31.0</ele><time>2026-04-18T15:08:56.674Z</time></trkpt><trkpt lat="9.7347926" lon="-75.5127076"><ele>31.0</ele><time>2026-04-18T15:08:57.674Z</time></trkpt><trkpt lat="9.7348297" lon="-75.512773"><ele>31.000000000000004</ele><time>2026-04-18T15:08:58.674Z</time></trkpt><trkpt lat="9.734866" lon="-75.5128381"><ele>31.0</ele><time>2026-04-18T15:08:59.675Z</time></trkpt><trkpt lat="9.7348998" lon="-75.5129028"><ele>31.0</ele><time>2026-04-18T15:09:00.679Z</time></trkpt><trkpt lat="9.7349327" lon="-75.5129614"><ele>31.000000000000004</ele><time>2026-04-18T15:09:01.674Z</time></trkpt><trkpt lat="9.7349652" lon="-75.5130235"><ele>31.0</ele><time>2026-04-18T15:09:02.677Z</time></trkpt><trkpt lat="9.7350006" lon="-75.5130843"><ele>31.0</ele><time>2026-04-18T15:09:03.674Z</time></trkpt><trkpt lat="9.7350329" lon="-75.5131429"><ele>31.0</ele><time>2026-04-18T15:09:04.673Z</time></trkpt><trkpt lat="9.7350953" lon="-75.5132495"><ele>31.0</ele><time>2026-04-18T15:09:06.675Z</time></trkpt><trkpt lat="9.7351554" lon="-75.5133279"><ele>31.0</ele><time>2026-04-18T15:09:08.682Z</time></trkpt><trkpt lat="9.7352218" lon="-75.5133884"><ele>31.0</ele><time>2026-04-18T15:09:10.67Z</time></trkpt><trkpt lat="9.7352886" lon="-75.5134316"><ele>31.0</ele><time>2026-04-18T15:09:12.668Z</time></trkpt><trkpt lat="9.7353463" lon="-75.513466"><ele>30.857142857142858</ele><time>2026-04-18T15:09:14.669Z</time></trkpt><trkpt lat="9.7354103" lon="-75.5135078"><ele>30.714285714285715</ele><time>2026-04-18T15:09:17.671Z</time></trkpt><trkpt lat="9.7354555" lon="-75.5135539"><ele>30.571428571428573</ele><time>2026-04-18T15:09:20.672Z</time></trkpt><trkpt lat="9.7355145" lon="-75.5135776"><ele>30.42857142857143</ele><time>2026-04-18T15:10:22.577Z</time></trkpt><trkpt lat="9.7355188" lon="-75.5136457"><ele>30.285714285714285</ele><time>2026-04-18T15:38:15.669Z</time></trkpt><trkpt lat="9.7354976" lon="-75.5135842"><ele>30.142857142857146</ele><time>2026-04-18T15:42:18.665Z</time></trkpt><trkpt lat="9.7354358" lon="-75.5136105"><ele>30.0</ele><time>2026-04-18T15:42:24.667Z</time></trkpt><trkpt lat="9.7354167" lon="-75.5136989"><ele>30.0</ele><time>2026-04-18T15:46:51.671Z</time></trkpt><trkpt lat="9.7354182" lon="-75.5137814"><ele>30.0</ele><time>2026-04-18T15:46:57.664Z</time></trkpt><trkpt lat="9.7354227" lon="-75.5138589"><ele>30.0</ele><time>2026-04-18T15:47:00.666Z</time></trkpt><trkpt lat="9.735448" lon="-75.5139295"><ele>30.0</ele><time>2026-04-18T15:47:03.67Z</time></trkpt><trkpt lat="9.7354916" lon="-75.5139951"><ele>30.0</ele><time>2026-04-18T15:47:06.671Z</time></trkpt><trkpt lat="9.7355222" lon="-75.5140574"><ele>30.0</ele><time>2026-04-18T15:47:09.668Z</time></trkpt><trkpt lat="9.7355742" lon="-75.5141317"><ele>30.0</ele><time>2026-04-18T15:47:12.664Z</time></trkpt><trkpt lat="9.7356112" lon="-75.5141902"><ele>30.0</ele><time>2026-04-18T15:47:14.666Z</time></trkpt><trkpt lat="9.7356435" lon="-75.5142483"><ele>30.0</ele><time>2026-04-18T15:47:16.667Z</time></trkpt><trkpt lat="9.7356763" lon="-75.5143035"><ele>30.0</ele><time>2026-04-18T15:47:18.666Z</time></trkpt><trkpt lat="9.7357069" lon="-75.5143647"><ele>30.0</ele><time>2026-04-18T15:47:20.661Z</time></trkpt><trkpt lat="9.7357386" lon="-75.5144259"><ele>30.0</ele><time>2026-04-18T15:47:22.663Z</time></trkpt><trkpt lat="9.7357721" lon="-75.5144933"><ele>30.0</ele><time>2026-04-18T15:47:24.665Z</time></trkpt><trkpt lat="9.7358127" lon="-75.5145617"><ele>29.857142857142858</ele><time>2026-04-18T15:47:26.663Z</time></trkpt><trkpt lat="9.7358558" lon="-75.5146333"><ele>29.714285714285715</ele><time>2026-04-18T15:47:28.664Z</time></trkpt><trkpt lat="9.7358964" lon="-75.514703"><ele>29.571428571428573</ele><time>2026-04-18T15:47:30.662Z</time></trkpt><trkpt lat="9.735937" lon="-75.5147684"><ele>29.42857142857143</ele><time>2026-04-18T15:47:32.664Z</time></trkpt><trkpt lat="9.7359745" lon="-75.5148319"><ele>29.285714285714285</ele><time>2026-04-18T15:47:34.661Z</time></trkpt><trkpt lat="9.7360065" lon="-75.5148934"><ele>29.142857142857146</ele><time>2026-04-18T15:47:36.663Z</time></trkpt><trkpt lat="9.7360406" lon="-75.5149499"><ele>29.000000000000004</ele><time>2026-04-18T15:47:38.662Z</time></trkpt><trkpt lat="9.7360738" lon="-75.5150099"><ele>29.499999999999996</ele><time>2026-04-18T15:47:40.663Z</time></trkpt><trkpt lat="9.7361113" lon="-75.5150763"><ele>30.0</ele><time>2026-04-18T15:47:42.664Z</time></trkpt><trkpt lat="9.7361517" lon="-75.5151469"><ele>30.5</ele><time>2026-04-18T15:47:44.669Z</time></trkpt><trkpt lat="9.7361917" lon="-75.5152206"><ele>31.0</ele><time>2026-04-18T15:47:46.668Z</time></trkpt><trkpt lat="9.7362323" lon="-75.5152999"><ele>31.499999999999996</ele><time>2026-04-18T15:47:48.663Z</time></trkpt><trkpt lat="9.736277" lon="-75.5153788"><ele>32.0</ele><time>2026-04-18T15:47:50.665Z</time></trkpt><trkpt lat="9.7363119" lon="-75.5154622"><ele>31.999999999999996</ele><time>2026-04-18T15:47:52.659Z</time></trkpt><trkpt lat="9.7363568" lon="-75.5155401"><ele>32.0</ele><time>2026-04-18T15:47:54.665Z</time></trkpt><trkpt lat="9.7363973" lon="-75.5156194"><ele>32.0</ele><time>2026-04-18T15:47:56.662Z</time></trkpt><trkpt lat="9.7364387" lon="-75.5156956"><ele>32.0</ele><time>2026-04-18T15:47:58.666Z</time></trkpt><trkpt lat="9.7364857" lon="-75.5157689"><ele>31.999999999999996</ele><time>2026-04-18T15:48:00.661Z</time></trkpt><trkpt lat="9.736527" lon="-75.5158423"><ele>32.0</ele><time>2026-04-18T15:48:02.661Z</time></trkpt><trkpt lat="9.7365729" lon="-75.5159255"><ele>31.999999999999996</ele><time>2026-04-18T15:48:04.662Z</time></trkpt><trkpt lat="9.7366287" lon="-75.5160015"><ele>32.0</ele><time>2026-04-18T15:48:06.659Z</time></trkpt><trkpt lat="9.7366683" lon="-75.5160771"><ele>32.0</ele><time>2026-04-18T15:48:08.658Z</time></trkpt><trkpt lat="9.7367097" lon="-75.5161387"><ele>32.0</ele><time>2026-04-18T15:48:10.661Z</time></trkpt><trkpt lat="9.7367482" lon="-75.5162043"><ele>31.999999999999996</ele><time>2026-04-18T15:48:12.659Z</time></trkpt><trkpt lat="9.736787" lon="-75.5162685"><ele>32.0</ele><time>2026-04-18T15:48:14.66Z</time></trkpt><trkpt lat="9.7368229" lon="-75.5163391"><ele>31.833333333333332</ele><time>2026-04-18T15:48:16.662Z</time></trkpt><trkpt lat="9.7368615" lon="-75.5164124"><ele>31.666666666666664</ele><time>2026-04-18T15:48:18.661Z</time></trkpt><trkpt lat="9.7369095" lon="-75.5164884"><ele>31.5</ele><time>2026-04-18T15:48:20.662Z</time></trkpt><trkpt lat="9.7369453" lon="-75.5165639"><ele>31.333333333333336</ele><time>2026-04-18T15:48:22.662Z</time></trkpt><trkpt lat="9.7369841" lon="-75.5166358"><ele>31.166666666666668</ele><time>2026-04-18T15:48:24.663Z</time></trkpt><trkpt lat="9.7370227" lon="-75.5167058"><ele>31.0</ele><time>2026-04-18T15:48:26.665Z</time></trkpt><trkpt lat="9.7370636" lon="-75.5167742"><ele>30.833333333333336</ele><time>2026-04-18T15:48:28.666Z</time></trkpt><trkpt lat="9.7371128" lon="-75.5168467"><ele>30.666666666666668</ele><time>2026-04-18T15:48:30.669Z</time></trkpt><trkpt lat="9.7371562" lon="-75.5169228"><ele>30.5</ele><time>2026-04-18T15:48:32.663Z</time></trkpt><trkpt lat="9.7372006" lon="-75.516996"><ele>30.333333333333336</ele><time>2026-04-18T15:48:34.665Z</time></trkpt><trkpt lat="9.7372552" lon="-75.5170688"><ele>30.166666666666668</ele><time>2026-04-18T15:48:36.667Z</time></trkpt><trkpt lat="9.7373125" lon="-75.5171438"><ele>30.0</ele><time>2026-04-18T15:48:38.673Z</time></trkpt><trkpt lat="9.7373673" lon="-75.5172194"><ele>30.0</ele><time>2026-04-18T15:48:40.663Z</time></trkpt><trkpt lat="9.7374387" lon="-75.5172901"><ele>30.0</ele><time>2026-04-18T15:48:42.663Z</time></trkpt><trkpt lat="9.7375181" lon="-75.5173556"><ele>30.0</ele><time>2026-04-18T15:48:44.664Z</time></trkpt><trkpt lat="9.7375974" lon="-75.5174243"><ele>30.0</ele><time>2026-04-18T15:48:46.663Z</time></trkpt><trkpt lat="9.7376743" lon="-75.5174931"><ele>30.0</ele><time>2026-04-18T15:48:48.663Z</time></trkpt><trkpt lat="9.7377478" lon="-75.517558"><ele>29.8</ele><time>2026-04-18T15:48:50.659Z</time></trkpt><trkpt lat="9.7378188" lon="-75.5176187"><ele>29.6</ele><time>2026-04-18T15:48:52.664Z</time></trkpt><trkpt lat="9.7378932" lon="-75.5176854"><ele>29.4</ele><time>2026-04-18T15:48:54.661Z</time></trkpt><trkpt lat="9.7379741" lon="-75.5177469"><ele>29.2</ele><time>2026-04-18T15:48:56.668Z</time></trkpt><trkpt lat="9.7380565" lon="-75.5178194"><ele>29.0</ele><time>2026-04-18T15:48:58.667Z</time></trkpt><trkpt lat="9.7381456" lon="-75.5178935"><ele>28.799999999999997</ele><time>2026-04-18T15:49:00.664Z</time></trkpt><trkpt lat="9.7382363" lon="-75.5179703"><ele>28.599999999999998</ele><time>2026-04-18T15:49:02.664Z</time></trkpt><trkpt lat="9.7383203" lon="-75.5180466"><ele>28.4</ele><time>2026-04-18T15:49:04.662Z</time></trkpt><trkpt lat="9.7384048" lon="-75.5181123"><ele>28.2</ele><time>2026-04-18T15:49:06.661Z</time></trkpt><trkpt lat="9.7384933" lon="-75.5181776"><ele>28.0</ele><time>2026-04-18T15:49:08.67Z</time></trkpt><trkpt lat="9.7385752" lon="-75.5182476"><ele>28.0</ele><time>2026-04-18T15:49:10.663Z</time></trkpt><trkpt lat="9.7386598" lon="-75.5183237"><ele>28.0</ele><time>2026-04-18T15:49:12.664Z</time></trkpt><trkpt lat="9.7387483" lon="-75.5183861"><ele>28.0</ele><time>2026-04-18T15:49:14.668Z</time></trkpt><trkpt lat="9.7388435" lon="-75.5184558"><ele>28.0</ele><time>2026-04-18T15:49:16.665Z</time></trkpt><trkpt lat="9.738932" lon="-75.5185385"><ele>28.0</ele><time>2026-04-18T15:49:18.662Z</time></trkpt><trkpt lat="9.7390223" lon="-75.5186118"><ele>27.999999999999996</ele><time>2026-04-18T15:49:20.662Z</time></trkpt><trkpt lat="9.7391089" lon="-75.5186865"><ele>27.999999999999996</ele><time>2026-04-18T15:49:22.667Z</time></trkpt><trkpt lat="9.7391927" lon="-75.5187542"><ele>28.0</ele><time>2026-04-18T15:49:24.666Z</time></trkpt><trkpt lat="9.7392768" lon="-75.5188261"><ele>28.0</ele><time>2026-04-18T15:49:26.669Z</time></trkpt><trkpt lat="9.7393567" lon="-75.5188856"><ele>28.4</ele><time>2026-04-18T15:49:28.664Z</time></trkpt><trkpt lat="9.7394283" lon="-75.5189476"><ele>28.799999999999997</ele><time>2026-04-18T15:49:30.663Z</time></trkpt><trkpt lat="9.7395014" lon="-75.5190136"><ele>29.2</ele><time>2026-04-18T15:49:32.665Z</time></trkpt><trkpt lat="9.7395746" lon="-75.519084"><ele>29.6</ele><time>2026-04-18T15:49:34.668Z</time></trkpt><trkpt lat="9.7396516" lon="-75.5191493"><ele>30.0</ele><time>2026-04-18T15:49:36.666Z</time></trkpt><trkpt lat="9.7397235" lon="-75.5192072"><ele>30.0</ele><time>2026-04-18T15:49:38.666Z</time></trkpt><trkpt lat="9.7397968" lon="-75.5192675"><ele>30.0</ele><time>2026-04-18T15:49:40.662Z</time></trkpt><trkpt lat="9.7398643" lon="-75.5193263"><ele>30.0</ele><time>2026-04-18T15:49:42.664Z</time></trkpt><trkpt lat="9.73993" lon="-75.519384"><ele>30.0</ele><time>2026-04-18T15:49:44.663Z</time></trkpt><trkpt lat="9.7399964" lon="-75.5194428"><ele>30.0</ele><time>2026-04-18T15:49:46.669Z</time></trkpt><trkpt lat="9.7400616" lon="-75.5194986"><ele>30.0</ele><time>2026-04-18T15:49:48.668Z</time></trkpt><trkpt lat="9.7401292" lon="-75.5195522"><ele>30.5</ele><time>2026-04-18T15:49:50.666Z</time></trkpt><trkpt lat="9.7401993" lon="-75.5196079"><ele>31.0</ele><time>2026-04-18T15:49:52.67Z</time></trkpt><trkpt lat="9.7402636" lon="-75.5196613"><ele>31.5</ele><time>2026-04-18T15:49:54.664Z</time></trkpt><trkpt lat="9.7403236" lon="-75.5197153"><ele>32.0</ele><time>2026-04-18T15:49:56.665Z</time></trkpt><trkpt lat="9.7403773" lon="-75.5197655"><ele>32.5</ele><time>2026-04-18T15:49:58.667Z</time></trkpt><trkpt lat="9.7404352" lon="-75.5198134"><ele>33.0</ele><time>2026-04-18T15:50:00.667Z</time></trkpt><trkpt lat="9.740495" lon="-75.5198681"><ele>33.333333333333336</ele><time>2026-04-18T15:50:02.659Z</time></trkpt><trkpt lat="9.7405617" lon="-75.5199233"><ele>33.666666666666664</ele><time>2026-04-18T15:50:04.663Z</time></trkpt><trkpt lat="9.7406256" lon="-75.5199793"><ele>34.0</ele><time>2026-04-18T15:50:06.665Z</time></trkpt><trkpt lat="9.7406948" lon="-75.5200387"><ele>34.33333333333333</ele><time>2026-04-18T15:50:08.665Z</time></trkpt><trkpt lat="9.7407573" lon="-75.5201052"><ele>34.666666666666664</ele><time>2026-04-18T15:50:10.668Z</time></trkpt><trkpt lat="9.7408247" lon="-75.520167"><ele>35.0</ele><time>2026-04-18T15:50:12.665Z</time></trkpt><trkpt lat="9.7408934" lon="-75.5202213"><ele>35.0</ele><time>2026-04-18T15:50:14.668Z</time></trkpt><trkpt lat="9.7409623" lon="-75.5202765"><ele>35.0</ele><time>2026-04-18T15:50:16.667Z</time></trkpt><trkpt lat="9.7410358" lon="-75.5203344"><ele>35.0</ele><time>2026-04-18T15:50:18.665Z</time></trkpt><trkpt lat="9.7411097" lon="-75.5203942"><ele>35.0</ele><time>2026-04-18T15:50:20.667Z</time></trkpt><trkpt lat="9.7411947" lon="-75.5204543"><ele>35.0</ele><time>2026-04-18T15:50:22.665Z</time></trkpt><trkpt lat="9.7412853" lon="-75.520514"><ele>35.0</ele><time>2026-04-18T15:50:24.665Z</time></trkpt><trkpt lat="9.741383" lon="-75.5205516"><ele>35.0</ele><time>2026-04-18T15:50:26.67Z</time></trkpt><trkpt lat="9.7414898" lon="-75.5205796"><ele>35.0</ele><time>2026-04-18T15:50:28.669Z</time></trkpt><trkpt lat="9.741591" lon="-75.5206026"><ele>35.0</ele><time>2026-04-18T15:50:30.669Z</time></trkpt><trkpt lat="9.741702" lon="-75.5206132"><ele>35.0</ele><time>2026-04-18T15:50:32.666Z</time></trkpt><trkpt lat="9.7418053" lon="-75.5206166"><ele>35.2</ele><time>2026-04-18T15:50:34.662Z</time></trkpt><trkpt lat="9.7419111" lon="-75.5206024"><ele>35.4</ele><time>2026-04-18T15:50:36.663Z</time></trkpt><trkpt lat="9.742006" lon="-75.5205885"><ele>35.6</ele><time>2026-04-18T15:50:38.661Z</time></trkpt><trkpt lat="9.7421015" lon="-75.5205829"><ele>35.8</ele><time>2026-04-18T15:50:40.671Z</time></trkpt><trkpt lat="9.742182" lon="-75.5205643"><ele>36.0</ele><time>2026-04-18T15:50:42.672Z</time></trkpt><trkpt lat="9.7422536" lon="-75.5205491"><ele>36.00000000000001</ele><time>2026-04-18T15:50:44.669Z</time></trkpt><trkpt lat="9.7423241" lon="-75.5205348"><ele>36.0</ele><time>2026-04-18T15:50:46.665Z</time></trkpt><trkpt lat="9.7423948" lon="-75.5205203"><ele>36.0</ele><time>2026-04-18T15:50:48.667Z</time></trkpt><trkpt lat="9.742468" lon="-75.5205012"><ele>36.0</ele><time>2026-04-18T15:50:50.666Z</time></trkpt><trkpt lat="9.7425417" lon="-75.5204835"><ele>36.0</ele><time>2026-04-18T15:50:52.669Z</time></trkpt><trkpt lat="9.7426133" lon="-75.5204669"><ele>36.00000000000001</ele><time>2026-04-18T15:50:54.669Z</time></trkpt><trkpt lat="9.7426855" lon="-75.5204483"><ele>36.0</ele><time>2026-04-18T15:50:56.668Z</time></trkpt><trkpt lat="9.7427606" lon="-75.520434"><ele>36.166666666666664</ele><time>2026-04-18T15:50:58.667Z</time></trkpt><trkpt lat="9.7428333" lon="-75.5204164"><ele>36.333333333333336</ele><time>2026-04-18T15:51:00.667Z</time></trkpt><trkpt lat="9.7429072" lon="-75.5204008"><ele>36.5</ele><time>2026-04-18T15:51:02.663Z</time></trkpt><trkpt lat="9.7429833" lon="-75.5203859"><ele>36.66666666666667</ele><time>2026-04-18T15:51:04.673Z</time></trkpt><trkpt lat="9.7430591" lon="-75.5203692"><ele>36.833333333333336</ele><time>2026-04-18T15:51:06.665Z</time></trkpt><trkpt lat="9.7431348" lon="-75.5203526"><ele>37.0</ele><time>2026-04-18T15:51:08.666Z</time></trkpt><trkpt lat="9.7432111" lon="-75.5203377"><ele>37.0</ele><time>2026-04-18T15:51:10.666Z</time></trkpt><trkpt lat="9.7432881" lon="-75.5203222"><ele>37.0</ele><time>2026-04-18T15:51:12.671Z</time></trkpt><trkpt lat="9.7433637" lon="-75.520305"><ele>37.0</ele><time>2026-04-18T15:51:14.668Z</time></trkpt><trkpt lat="9.7434392" lon="-75.5202922"><ele>37.0</ele><time>2026-04-18T15:51:16.666Z</time></trkpt><trkpt lat="9.7435162" lon="-75.5202736"><ele>37.0</ele><time>2026-04-18T15:51:18.668Z</time></trkpt><trkpt lat="9.7435975" lon="-75.5202555"><ele>37.0</ele><time>2026-04-18T15:51:20.664Z</time></trkpt><trkpt lat="9.74368" lon="-75.5202364"><ele>37.5</ele><time>2026-04-18T15:51:22.663Z</time></trkpt><trkpt lat="9.7437648" lon="-75.5202168"><ele>38.0</ele><time>2026-04-18T15:51:24.664Z</time></trkpt><trkpt lat="9.7438505" lon="-75.520197"><ele>38.5</ele><time>2026-04-18T15:51:26.669Z</time></trkpt><trkpt lat="9.7439363" lon="-75.5201809"><ele>39.0</ele><time>2026-04-18T15:51:28.666Z</time></trkpt><trkpt lat="9.7440253" lon="-75.5201608"><ele>39.5</ele><time>2026-04-18T15:51:30.666Z</time></trkpt><trkpt lat="9.7441091" lon="-75.5201387"><ele>40.0</ele><time>2026-04-18T15:51:32.666Z</time></trkpt><trkpt lat="9.7442006" lon="-75.5201187"><ele>40.0</ele><time>2026-04-18T15:51:34.667Z</time></trkpt><trkpt lat="9.7442843" lon="-75.5200928"><ele>40.0</ele><time>2026-04-18T15:51:36.661Z</time></trkpt><trkpt lat="9.7443731" lon="-75.520071"><ele>40.0</ele><time>2026-04-18T15:51:38.662Z</time></trkpt><trkpt lat="9.74447" lon="-75.5200492"><ele>40.0</ele><time>2026-04-18T15:51:40.662Z</time></trkpt><trkpt lat="9.7445614" lon="-75.5200367"><ele>40.0</ele><time>2026-04-18T15:51:42.665Z</time></trkpt><trkpt lat="9.7446466" lon="-75.5200125"><ele>40.2</ele><time>2026-04-18T15:51:44.665Z</time></trkpt><trkpt lat="9.7447408" lon="-75.5199894"><ele>40.4</ele><time>2026-04-18T15:51:46.667Z</time></trkpt><trkpt lat="9.7448398" lon="-75.5199683"><ele>40.599999999999994</ele><time>2026-04-18T15:51:48.667Z</time></trkpt><trkpt lat="9.7449333" lon="-75.5199534"><ele>40.8</ele><time>2026-04-18T15:51:50.665Z</time></trkpt><trkpt lat="9.7450309" lon="-75.5199301"><ele>41.0</ele><time>2026-04-18T15:51:52.664Z</time></trkpt><trkpt lat="9.7451274" lon="-75.5199129"><ele>41.0</ele><time>2026-04-18T15:51:54.662Z</time></trkpt><trkpt lat="9.7452194" lon="-75.519884"><ele>41.0</ele><time>2026-04-18T15:51:56.665Z</time></trkpt><trkpt lat="9.7453098" lon="-75.5198617"><ele>41.0</ele><time>2026-04-18T15:51:58.665Z</time></trkpt><trkpt lat="9.7454032" lon="-75.519846"><ele>41.0</ele><time>2026-04-18T15:52:00.661Z</time></trkpt><trkpt lat="9.7454969" lon="-75.5198225"><ele>41.0</ele><time>2026-04-18T15:52:02.663Z</time></trkpt><trkpt lat="9.7455924" lon="-75.5198053"><ele>41.0</ele><time>2026-04-18T15:52:04.663Z</time></trkpt><trkpt lat="9.7456884" lon="-75.5197848"><ele>41.0</ele><time>2026-04-18T15:52:06.667Z</time></trkpt><trkpt lat="9.7457845" lon="-75.519765"><ele>41.0</ele><time>2026-04-18T15:52:08.662Z</time></trkpt><trkpt lat="9.7458818" lon="-75.5197504"><ele>41.0</ele><time>2026-04-18T15:52:10.662Z</time></trkpt><trkpt lat="9.7459648" lon="-75.5197296"><ele>41.0</ele><time>2026-04-18T15:52:12.664Z</time></trkpt><trkpt lat="9.7460544" lon="-75.5197156"><ele>41.599999999999994</ele><time>2026-04-18T15:52:14.662Z</time></trkpt><trkpt lat="9.7461469" lon="-75.5196936"><ele>42.2</ele><time>2026-04-18T15:52:16.664Z</time></trkpt><trkpt lat="9.7462437" lon="-75.5196806"><ele>42.8</ele><time>2026-04-18T15:52:18.669Z</time></trkpt><trkpt lat="9.7463318" lon="-75.5196631"><ele>43.400000000000006</ele><time>2026-04-18T15:52:20.667Z</time></trkpt><trkpt lat="9.7464214" lon="-75.5196403"><ele>44.0</ele><time>2026-04-18T15:52:22.666Z</time></trkpt><trkpt lat="9.7465132" lon="-75.519627"><ele>44.0</ele><time>2026-04-18T15:52:24.663Z</time></trkpt><trkpt lat="9.7466039" lon="-75.5196054"><ele>44.0</ele><time>2026-04-18T15:52:26.66Z</time></trkpt><trkpt lat="9.7466924" lon="-75.5195838"><ele>44.0</ele><time>2026-04-18T15:52:28.666Z</time></trkpt><trkpt lat="9.7467865" lon="-75.5195567"><ele>44.0</ele><time>2026-04-18T15:52:30.667Z</time></trkpt><trkpt lat="9.7468738" lon="-75.5195411"><ele>44.0</ele><time>2026-04-18T15:52:32.662Z</time></trkpt><trkpt lat="9.7469659" lon="-75.5195259"><ele>43.6</ele><time>2026-04-18T15:52:34.665Z</time></trkpt><trkpt lat="9.7470566" lon="-75.5195028"><ele>43.2</ele><time>2026-04-18T15:52:36.666Z</time></trkpt><trkpt lat="9.747153" lon="-75.519478"><ele>42.800000000000004</ele><time>2026-04-18T15:52:38.663Z</time></trkpt><trkpt lat="9.7472538" lon="-75.5194557"><ele>42.400000000000006</ele><time>2026-04-18T15:52:40.663Z</time></trkpt><trkpt lat="9.7473542" lon="-75.5194355"><ele>42.0</ele><time>2026-04-18T15:52:42.664Z</time></trkpt><trkpt lat="9.7474551" lon="-75.5194107"><ele>42.0</ele><time>2026-04-18T15:52:44.666Z</time></trkpt><trkpt lat="9.7475572" lon="-75.5193878"><ele>42.0</ele><time>2026-04-18T15:52:46.666Z</time></trkpt><trkpt lat="9.7476715" lon="-75.5193658"><ele>42.0</ele><time>2026-04-18T15:52:48.66Z</time></trkpt><trkpt lat="9.7477917" lon="-75.5193428"><ele>42.0</ele><time>2026-04-18T15:52:50.663Z</time></trkpt><trkpt lat="9.7479088" lon="-75.5193106"><ele>42.75</ele><time>2026-04-18T15:52:52.663Z</time></trkpt><trkpt lat="9.7480229" lon="-75.5192838"><ele>43.5</ele><time>2026-04-18T15:52:54.66Z</time></trkpt><trkpt lat="9.7481414" lon="-75.5192502"><ele>44.25</ele><time>2026-04-18T15:52:56.66Z</time></trkpt><trkpt lat="9.7482577" lon="-75.5192308"><ele>45.0</ele><time>2026-04-18T15:52:58.661Z</time></trkpt><trkpt lat="9.7483828" lon="-75.5192067"><ele>45.0</ele><time>2026-04-18T15:53:00.665Z</time></trkpt><trkpt lat="9.7485034" lon="-75.5191826"><ele>45.0</ele><time>2026-04-18T15:53:02.667Z</time></trkpt><trkpt lat="9.74862" lon="-75.5191623"><ele>45.0</ele><time>2026-04-18T15:53:04.665Z</time></trkpt><trkpt lat="9.74873" lon="-75.5191486"><ele>45.0</ele><time>2026-04-18T15:53:06.669Z</time></trkpt><trkpt lat="9.7488364" lon="-75.5191246"><ele>45.0</ele><time>2026-04-18T15:53:08.663Z</time></trkpt><trkpt lat="9.7489408" lon="-75.5191037"><ele>45.0</ele><time>2026-04-18T15:53:10.666Z</time></trkpt><trkpt lat="9.7490461" lon="-75.5190785"><ele>45.0</ele><time>2026-04-18T15:53:12.663Z</time></trkpt><trkpt lat="9.7491538" lon="-75.5190555"><ele>45.0</ele><time>2026-04-18T15:53:14.668Z</time></trkpt><trkpt lat="9.7492617" lon="-75.5190337"><ele>45.0</ele><time>2026-04-18T15:53:16.664Z</time></trkpt><trkpt lat="9.7493672" lon="-75.5190065"><ele>45.8</ele><time>2026-04-18T15:53:18.664Z</time></trkpt><trkpt lat="9.7494808" lon="-75.518984"><ele>46.6</ele><time>2026-04-18T15:53:20.662Z</time></trkpt><trkpt lat="9.7495865" lon="-75.5189615"><ele>47.400000000000006</ele><time>2026-04-18T15:53:22.661Z</time></trkpt><trkpt lat="9.7496993" lon="-75.5189418"><ele>48.2</ele><time>2026-04-18T15:53:24.659Z</time></trkpt><trkpt lat="9.749805" lon="-75.518916"><ele>49.0</ele><time>2026-04-18T15:53:26.666Z</time></trkpt><trkpt lat="9.7499134" lon="-75.5188905"><ele>49.0</ele><time>2026-04-18T15:53:28.663Z</time></trkpt><trkpt lat="9.7500203" lon="-75.5188664"><ele>49.0</ele><time>2026-04-18T15:53:30.658Z</time></trkpt><trkpt lat="9.7501341" lon="-75.5188438"><ele>49.0</ele><time>2026-04-18T15:53:32.666Z</time></trkpt><trkpt lat="9.7502394" lon="-75.5188285"><ele>49.0</ele><time>2026-04-18T15:53:34.662Z</time></trkpt><trkpt lat="9.7503525" lon="-75.5188114"><ele>49.0</ele><time>2026-04-18T15:53:36.664Z</time></trkpt><trkpt lat="9.750461" lon="-75.5187825"><ele>49.400000000000006</ele><time>2026-04-18T15:53:38.658Z</time></trkpt><trkpt lat="9.75057" lon="-75.5187576"><ele>49.8</ele><time>2026-04-18T15:53:40.664Z</time></trkpt><trkpt lat="9.7506749" lon="-75.5187361"><ele>50.2</ele><time>2026-04-18T15:53:42.662Z</time></trkpt><trkpt lat="9.7507797" lon="-75.518706"><ele>50.599999999999994</ele><time>2026-04-18T15:53:44.661Z</time></trkpt><trkpt lat="9.7508875" lon="-75.5186807"><ele>51.0</ele><time>2026-04-18T15:53:46.664Z</time></trkpt><trkpt lat="9.750998" lon="-75.5186538"><ele>50.833333333333336</ele><time>2026-04-18T15:53:48.66Z</time></trkpt><trkpt lat="9.7511125" lon="-75.5186261"><ele>50.66666666666667</ele><time>2026-04-18T15:53:50.659Z</time></trkpt><trkpt lat="9.7512351" lon="-75.5186023"><ele>50.5</ele><time>2026-04-18T15:53:52.659Z</time></trkpt><trkpt lat="9.7512976" lon="-75.5185924"><ele>50.333333333333336</ele><time>2026-04-18T15:53:53.66Z</time></trkpt><trkpt lat="9.7513611" lon="-75.5185784"><ele>50.16666666666667</ele><time>2026-04-18T15:53:54.661Z</time></trkpt><trkpt lat="9.7514279" lon="-75.5185642"><ele>50.0</ele><time>2026-04-18T15:53:55.663Z</time></trkpt><trkpt lat="9.75155" lon="-75.5185441"><ele>50.00000000000001</ele><time>2026-04-18T15:53:57.666Z</time></trkpt><trkpt lat="9.7516745" lon="-75.5185236"><ele>50.0</ele><time>2026-04-18T15:53:59.663Z</time></trkpt><trkpt lat="9.7517373" lon="-75.5185117"><ele>50.0</ele><time>2026-04-18T15:54:00.661Z</time></trkpt><trkpt lat="9.7518012" lon="-75.5184986"><ele>50.0</ele><time>2026-04-18T15:54:01.663Z</time></trkpt><trkpt lat="9.7518677" lon="-75.5184857"><ele>50.00000000000001</ele><time>2026-04-18T15:54:02.662Z</time></trkpt><trkpt lat="9.7519316" lon="-75.518469"><ele>50.0</ele><time>2026-04-18T15:54:03.665Z</time></trkpt><trkpt lat="9.7519953" lon="-75.5184561"><ele>50.2</ele><time>2026-04-18T15:54:04.663Z</time></trkpt><trkpt lat="9.7521178" lon="-75.5184306"><ele>50.4</ele><time>2026-04-18T15:54:06.67Z</time></trkpt><trkpt lat="9.7521814" lon="-75.5184158"><ele>50.599999999999994</ele><time>2026-04-18T15:54:07.66Z</time></trkpt><trkpt lat="9.7522924" lon="-75.5183846"><ele>50.8</ele><time>2026-04-18T15:54:09.658Z</time></trkpt><trkpt lat="9.7524105" lon="-75.5183644"><ele>51.0</ele><time>2026-04-18T15:54:11.66Z</time></trkpt><trkpt lat="9.7525202" lon="-75.5183378"><ele>51.0</ele><time>2026-04-18T15:54:13.661Z</time></trkpt><trkpt lat="9.7526403" lon="-75.5183061"><ele>51.0</ele><time>2026-04-18T15:54:15.661Z</time></trkpt><trkpt lat="9.7527591" lon="-75.5182884"><ele>51.0</ele><time>2026-04-18T15:54:17.665Z</time></trkpt><trkpt lat="9.7528255" lon="-75.5182801"><ele>51.0</ele><time>2026-04-18T15:54:18.667Z</time></trkpt><trkpt lat="9.7528901" lon="-75.5182614"><ele>51.0</ele><time>2026-04-18T15:54:19.658Z</time></trkpt><trkpt lat="9.7529529" lon="-75.5182457"><ele>51.0</ele><time>2026-04-18T15:54:20.666Z</time></trkpt><trkpt lat="9.7530177" lon="-75.5182288"><ele>51.333333333333336</ele><time>2026-04-18T15:54:21.665Z</time></trkpt><trkpt lat="9.7530826" lon="-75.5182167"><ele>51.66666666666667</ele><time>2026-04-18T15:54:22.662Z</time></trkpt><trkpt lat="9.7531482" lon="-75.5182063"><ele>52.0</ele><time>2026-04-18T15:54:23.664Z</time></trkpt><trkpt lat="9.7532128" lon="-75.5181953"><ele>52.333333333333336</ele><time>2026-04-18T15:54:24.659Z</time></trkpt><trkpt lat="9.7532783" lon="-75.5181806"><ele>52.66666666666667</ele><time>2026-04-18T15:54:25.665Z</time></trkpt><trkpt lat="9.7533951" lon="-75.5181554"><ele>53.0</ele><time>2026-04-18T15:54:27.662Z</time></trkpt><trkpt lat="9.7535236" lon="-75.5181368"><ele>53.142857142857146</ele><time>2026-04-18T15:54:29.662Z</time></trkpt><trkpt lat="9.75359" lon="-75.5181234"><ele>53.285714285714285</ele><time>2026-04-18T15:54:30.663Z</time></trkpt><trkpt lat="9.7536564" lon="-75.5181082"><ele>53.42857142857143</ele><time>2026-04-18T15:54:31.665Z</time></trkpt><trkpt lat="9.7537232" lon="-75.5180934"><ele>53.57142857142857</ele><time>2026-04-18T15:54:32.666Z</time></trkpt><trkpt lat="9.7537901" lon="-75.5180774"><ele>53.71428571428571</ele><time>2026-04-18T15:54:33.666Z</time></trkpt><trkpt lat="9.7538595" lon="-75.5180612"><ele>53.857142857142854</ele><time>2026-04-18T15:54:34.662Z</time></trkpt><trkpt lat="9.7539269" lon="-75.5180456"><ele>54.0</ele><time>2026-04-18T15:54:35.662Z</time></trkpt><trkpt lat="9.753998" lon="-75.5180315"><ele>54.0</ele><time>2026-04-18T15:54:36.667Z</time></trkpt><trkpt lat="9.7540634" lon="-75.5180159"><ele>54.0</ele><time>2026-04-18T15:54:37.664Z</time></trkpt><trkpt lat="9.7541344" lon="-75.518003"><ele>54.0</ele><time>2026-04-18T15:54:38.662Z</time></trkpt><trkpt lat="9.7542038" lon="-75.5179856"><ele>54.0</ele><time>2026-04-18T15:54:39.663Z</time></trkpt><trkpt lat="9.754273" lon="-75.5179716"><ele>54.0</ele><time>2026-04-18T15:54:40.662Z</time></trkpt><trkpt lat="9.754344" lon="-75.5179594"><ele>54.0</ele><time>2026-04-18T15:54:41.661Z</time></trkpt><trkpt lat="9.7544165" lon="-75.5179439"><ele>54.0</ele><time>2026-04-18T15:54:42.661Z</time></trkpt><trkpt lat="9.7544883" lon="-75.5179288"><ele>54.0</ele><time>2026-04-18T15:54:43.662Z</time></trkpt><trkpt lat="9.7545593" lon="-75.517913"><ele>54.0</ele><time>2026-04-18T15:54:44.663Z</time></trkpt><trkpt lat="9.7546307" lon="-75.5178982"><ele>54.0</ele><time>2026-04-18T15:54:45.662Z</time></trkpt><trkpt lat="9.7547022" lon="-75.5178838"><ele>54.0</ele><time>2026-04-18T15:54:46.658Z</time></trkpt><trkpt lat="9.7547736" lon="-75.5178688"><ele>54.0</ele><time>2026-04-18T15:54:47.662Z</time></trkpt><trkpt lat="9.7548464" lon="-75.5178566"><ele>54.0</ele><time>2026-04-18T15:54:48.662Z</time></trkpt><trkpt lat="9.7549163" lon="-75.5178421"><ele>54.0</ele><time>2026-04-18T15:54:49.662Z</time></trkpt><trkpt lat="9.7549838" lon="-75.5178298"><ele>54.0</ele><time>2026-04-18T15:54:50.663Z</time></trkpt><trkpt lat="9.755054" lon="-75.5178114"><ele>54.0</ele><time>2026-04-18T15:54:51.665Z</time></trkpt><trkpt lat="9.7551258" lon="-75.517798"><ele>54.0</ele><time>2026-04-18T15:54:52.661Z</time></trkpt><trkpt lat="9.7552001" lon="-75.5177818"><ele>54.0</ele><time>2026-04-18T15:54:53.66Z</time></trkpt><trkpt lat="9.7552708" lon="-75.5177646"><ele>54.0</ele><time>2026-04-18T15:54:54.664Z</time></trkpt><trkpt lat="9.7553397" lon="-75.5177428"><ele>54.0</ele><time>2026-04-18T15:54:55.66Z</time></trkpt><trkpt lat="9.7554091" lon="-75.5177255"><ele>54.0</ele><time>2026-04-18T15:54:56.658Z</time></trkpt><trkpt lat="9.7554785" lon="-75.5177069"><ele>54.14285714285714</ele><time>2026-04-18T15:54:57.659Z</time></trkpt><trkpt lat="9.7555481" lon="-75.5176863"><ele>54.285714285714285</ele><time>2026-04-18T15:54:58.66Z</time></trkpt><trkpt lat="9.7556167" lon="-75.5176632"><ele>54.42857142857143</ele><time>2026-04-18T15:54:59.661Z</time></trkpt><trkpt lat="9.7556839" lon="-75.5176318"><ele>54.57142857142857</ele><time>2026-04-18T15:55:00.662Z</time></trkpt><trkpt lat="9.7557547" lon="-75.517602"><ele>54.714285714285715</ele><time>2026-04-18T15:55:01.658Z</time></trkpt><trkpt lat="9.7558217" lon="-75.5175701"><ele>54.857142857142854</ele><time>2026-04-18T15:55:02.66Z</time></trkpt><trkpt lat="9.7558899" lon="-75.5175358"><ele>55.0</ele><time>2026-04-18T15:55:03.66Z</time></trkpt><trkpt lat="9.7559563" lon="-75.5175048"><ele>54.99999999999999</ele><time>2026-04-18T15:55:04.662Z</time></trkpt><trkpt lat="9.7560229" lon="-75.5174681"><ele>55.0</ele><time>2026-04-18T15:55:05.664Z</time></trkpt><trkpt lat="9.7560889" lon="-75.5174374"><ele>55.0</ele><time>2026-04-18T15:55:06.665Z</time></trkpt><trkpt lat="9.7561602" lon="-75.5174027"><ele>55.0</ele><time>2026-04-18T15:55:07.664Z</time></trkpt><trkpt lat="9.7562314" lon="-75.5173729"><ele>55.0</ele><time>2026-04-18T15:55:08.666Z</time></trkpt><trkpt lat="9.7562952" lon="-75.5173421"><ele>54.99999999999999</ele><time>2026-04-18T15:55:09.666Z</time></trkpt><trkpt lat="9.7563561" lon="-75.5173137"><ele>55.0</ele><time>2026-04-18T15:55:10.666Z</time></trkpt><trkpt lat="9.7564193" lon="-75.5172859"><ele>55.28571428571428</ele><time>2026-04-18T15:55:11.667Z</time></trkpt><trkpt lat="9.7564808" lon="-75.5172596"><ele>55.57142857142857</ele><time>2026-04-18T15:55:12.657Z</time></trkpt><trkpt lat="9.7565455" lon="-75.517232"><ele>55.857142857142854</ele><time>2026-04-18T15:55:13.661Z</time></trkpt><trkpt lat="9.7566059" lon="-75.517206"><ele>56.14285714285714</ele><time>2026-04-18T15:55:14.66Z</time></trkpt><trkpt lat="9.7566672" lon="-75.5171793"><ele>56.42857142857142</ele><time>2026-04-18T15:55:15.66Z</time></trkpt><trkpt lat="9.7567252" lon="-75.5171519"><ele>56.71428571428571</ele><time>2026-04-18T15:55:16.662Z</time></trkpt><trkpt lat="9.75679" lon="-75.5171259"><ele>57.0</ele><time>2026-04-18T15:55:17.66Z</time></trkpt><trkpt lat="9.7569001" lon="-75.5170689"><ele>57.285714285714285</ele><time>2026-04-18T15:55:19.66Z</time></trkpt><trkpt lat="9.7569598" lon="-75.5170426"><ele>57.57142857142857</ele><time>2026-04-18T15:55:20.659Z</time></trkpt><trkpt lat="9.7570211" lon="-75.5170138"><ele>57.857142857142854</ele><time>2026-04-18T15:55:21.663Z</time></trkpt><trkpt lat="9.7570829" lon="-75.5169832"><ele>58.14285714285714</ele><time>2026-04-18T15:55:22.663Z</time></trkpt><trkpt lat="9.7571435" lon="-75.5169546"><ele>58.42857142857143</ele><time>2026-04-18T15:55:23.666Z</time></trkpt><trkpt lat="9.7572097" lon="-75.5169176"><ele>58.71428571428571</ele><time>2026-04-18T15:55:24.664Z</time></trkpt><trkpt lat="9.7572801" lon="-75.5168836"><ele>59.0</ele><time>2026-04-18T15:55:25.666Z</time></trkpt><trkpt lat="9.7573545" lon="-75.516852"><ele>59.0</ele><time>2026-04-18T15:55:26.659Z</time></trkpt><trkpt lat="9.7574299" lon="-75.5168128"><ele>59.00000000000001</ele><time>2026-04-18T15:55:27.662Z</time></trkpt><trkpt lat="9.7575105" lon="-75.5167738"><ele>59.00000000000001</ele><time>2026-04-18T15:55:28.663Z</time></trkpt><trkpt lat="9.7575901" lon="-75.5167337"><ele>59.0</ele><time>2026-04-18T15:55:29.67Z</time></trkpt><trkpt lat="9.7576767" lon="-75.5166924"><ele>59.0</ele><time>2026-04-18T15:55:30.66Z</time></trkpt><trkpt lat="9.7577661" lon="-75.5166508"><ele>57.800000000000004</ele><time>2026-04-18T15:55:31.662Z</time></trkpt><trkpt lat="9.7578596" lon="-75.5166035"><ele>56.60000000000001</ele><time>2026-04-18T15:55:32.658Z</time></trkpt><trkpt lat="9.7579512" lon="-75.5165582"><ele>55.4</ele><time>2026-04-18T15:55:33.661Z</time></trkpt><trkpt lat="9.7580454" lon="-75.5165067"><ele>54.2</ele><time>2026-04-18T15:55:34.669Z</time></trkpt><trkpt lat="9.7581374" lon="-75.5164588"><ele>53.0</ele><time>2026-04-18T15:55:35.66Z</time></trkpt><trkpt lat="9.7582335" lon="-75.5164153"><ele>53.0</ele><time>2026-04-18T15:55:36.665Z</time></trkpt><trkpt lat="9.758327" lon="-75.5163709"><ele>53.0</ele><time>2026-04-18T15:55:37.663Z</time></trkpt><trkpt lat="9.7584262" lon="-75.5163288"><ele>53.0</ele><time>2026-04-18T15:55:38.663Z</time></trkpt><trkpt lat="9.7585201" lon="-75.5162866"><ele>53.0</ele><time>2026-04-18T15:55:39.662Z</time></trkpt><trkpt lat="9.7586245" lon="-75.5162382"><ele>53.0</ele><time>2026-04-18T15:55:40.661Z</time></trkpt><trkpt lat="9.7587218" lon="-75.5161921"><ele>53.4</ele><time>2026-04-18T15:55:41.66Z</time></trkpt><trkpt lat="9.7588162" lon="-75.5161465"><ele>53.8</ele><time>2026-04-18T15:55:42.667Z</time></trkpt><trkpt lat="9.7589101" lon="-75.5160924"><ele>54.2</ele><time>2026-04-18T15:55:43.665Z</time></trkpt><trkpt lat="9.7590069" lon="-75.5160473"><ele>54.6</ele><time>2026-04-18T15:55:44.663Z</time></trkpt><trkpt lat="9.7590996" lon="-75.5160016"><ele>55.0</ele><time>2026-04-18T15:55:45.665Z</time></trkpt><trkpt lat="9.7591881" lon="-75.51596"><ele>55.0</ele><time>2026-04-18T15:55:46.664Z</time></trkpt><trkpt lat="9.7592784" lon="-75.5159159"><ele>55.0</ele><time>2026-04-18T15:55:47.663Z</time></trkpt><trkpt lat="9.7593649" lon="-75.5158731"><ele>55.0</ele><time>2026-04-18T15:55:48.663Z</time></trkpt><trkpt lat="9.7594467" lon="-75.5158301"><ele>55.0</ele><time>2026-04-18T15:55:49.678Z</time></trkpt><trkpt lat="9.759522" lon="-75.5157888"><ele>55.0</ele><time>2026-04-18T15:55:50.66Z</time></trkpt><trkpt lat="9.7596011" lon="-75.5157585"><ele>54.8</ele><time>2026-04-18T15:55:51.664Z</time></trkpt><trkpt lat="9.7596825" lon="-75.5157208"><ele>54.6</ele><time>2026-04-18T15:55:52.662Z</time></trkpt><trkpt lat="9.7597627" lon="-75.5156805"><ele>54.400000000000006</ele><time>2026-04-18T15:55:53.661Z</time></trkpt><trkpt lat="9.7598449" lon="-75.5156414"><ele>54.2</ele><time>2026-04-18T15:55:54.66Z</time></trkpt><trkpt lat="9.7599289" lon="-75.5156015"><ele>54.0</ele><time>2026-04-18T15:55:55.666Z</time></trkpt><trkpt lat="9.7600119" lon="-75.5155594"><ele>54.0</ele><time>2026-04-18T15:55:56.668Z</time></trkpt><trkpt lat="9.760094" lon="-75.5155206"><ele>54.0</ele><time>2026-04-18T15:55:57.664Z</time></trkpt><trkpt lat="9.7601763" lon="-75.5154875"><ele>54.0</ele><time>2026-04-18T15:55:58.661Z</time></trkpt><trkpt lat="9.7602572" lon="-75.5154458"><ele>54.0</ele><time>2026-04-18T15:55:59.664Z</time></trkpt><trkpt lat="9.7603395" lon="-75.5154064"><ele>54.0</ele><time>2026-04-18T15:56:00.663Z</time></trkpt><trkpt lat="9.7604161" lon="-75.5153704"><ele>54.0</ele><time>2026-04-18T15:56:01.663Z</time></trkpt><trkpt lat="9.760501" lon="-75.51533"><ele>54.2</ele><time>2026-04-18T15:56:02.663Z</time></trkpt><trkpt lat="9.7605823" lon="-75.5152959"><ele>54.400000000000006</ele><time>2026-04-18T15:56:03.66Z</time></trkpt><trkpt lat="9.760667" lon="-75.5152579"><ele>54.6</ele><time>2026-04-18T15:56:04.663Z</time></trkpt><trkpt lat="9.7607513" lon="-75.5152165"><ele>54.8</ele><time>2026-04-18T15:56:05.663Z</time></trkpt><trkpt lat="9.7608384" lon="-75.5151777"><ele>55.0</ele><time>2026-04-18T15:56:06.663Z</time></trkpt><trkpt lat="9.7609261" lon="-75.5151388"><ele>55.0</ele><time>2026-04-18T15:56:07.667Z</time></trkpt><trkpt lat="9.7610086" lon="-75.5150992"><ele>55.0</ele><time>2026-04-18T15:56:08.664Z</time></trkpt><trkpt lat="9.7610917" lon="-75.5150606"><ele>55.0</ele><time>2026-04-18T15:56:09.662Z</time></trkpt><trkpt lat="9.7611722" lon="-75.5150244"><ele>55.0</ele><time>2026-04-18T15:56:10.663Z</time></trkpt><trkpt lat="9.7612526" lon="-75.5149869"><ele>55.0</ele><time>2026-04-18T15:56:11.664Z</time></trkpt><trkpt lat="9.7613362" lon="-75.514948"><ele>53.8</ele><time>2026-04-18T15:56:12.663Z</time></trkpt><trkpt lat="9.7614159" lon="-75.5149097"><ele>52.6</ele><time>2026-04-18T15:56:13.661Z</time></trkpt><trkpt lat="9.7614992" lon="-75.5148723"><ele>51.400000000000006</ele><time>2026-04-18T15:56:14.662Z</time></trkpt><trkpt lat="9.7615836" lon="-75.5148287"><ele>50.2</ele><time>2026-04-18T15:56:15.664Z</time></trkpt><trkpt lat="9.7616643" lon="-75.5147864"><ele>49.0</ele><time>2026-04-18T15:56:16.662Z</time></trkpt><trkpt lat="9.7617429" lon="-75.5147483"><ele>49.0</ele><time>2026-04-18T15:56:17.666Z</time></trkpt><trkpt lat="9.7618251" lon="-75.5147061"><ele>49.0</ele><time>2026-04-18T15:56:18.663Z</time></trkpt><trkpt lat="9.7619043" lon="-75.5146634"><ele>49.0</ele><time>2026-04-18T15:56:19.661Z</time></trkpt><trkpt lat="9.761989" lon="-75.5146229"><ele>49.0</ele><time>2026-04-18T15:56:20.663Z</time></trkpt><trkpt lat="9.7620769" lon="-75.5145799"><ele>49.0</ele><time>2026-04-18T15:56:21.663Z</time></trkpt><trkpt lat="9.7621691" lon="-75.5145423"><ele>49.800000000000004</ele><time>2026-04-18T15:56:22.669Z</time></trkpt><trkpt lat="9.7622554" lon="-75.5145023"><ele>50.6</ele><time>2026-04-18T15:56:23.666Z</time></trkpt><trkpt lat="9.7623388" lon="-75.5144667"><ele>51.4</ele><time>2026-04-18T15:56:24.664Z</time></trkpt><trkpt lat="9.7624235" lon="-75.5144221"><ele>52.2</ele><time>2026-04-18T15:56:25.663Z</time></trkpt><trkpt lat="9.7625071" lon="-75.5143836"><ele>53.0</ele><time>2026-04-18T15:56:26.667Z</time></trkpt><trkpt lat="9.7625958" lon="-75.5143456"><ele>53.0</ele><time>2026-04-18T15:56:27.664Z</time></trkpt><trkpt lat="9.7626757" lon="-75.5143051"><ele>53.0</ele><time>2026-04-18T15:56:28.665Z</time></trkpt><trkpt lat="9.7627546" lon="-75.5142672"><ele>53.0</ele><time>2026-04-18T15:56:29.664Z</time></trkpt><trkpt lat="9.762838" lon="-75.5142286"><ele>53.0</ele><time>2026-04-18T15:56:30.662Z</time></trkpt><trkpt lat="9.7629188" lon="-75.5141889"><ele>53.0</ele><time>2026-04-18T15:56:31.667Z</time></trkpt><trkpt lat="9.7630059" lon="-75.5141456"><ele>52.8</ele><time>2026-04-18T15:56:32.663Z</time></trkpt><trkpt lat="9.7630947" lon="-75.5141063"><ele>52.599999999999994</ele><time>2026-04-18T15:56:33.665Z</time></trkpt><trkpt lat="9.7631873" lon="-75.5140648"><ele>52.400000000000006</ele><time>2026-04-18T15:56:34.663Z</time></trkpt><trkpt lat="9.7632754" lon="-75.5140227"><ele>52.2</ele><time>2026-04-18T15:56:35.664Z</time></trkpt><trkpt lat="9.7633649" lon="-75.5139776"><ele>52.0</ele><time>2026-04-18T15:56:36.663Z</time></trkpt><trkpt lat="9.7634528" lon="-75.513936"><ele>50.2</ele><time>2026-04-18T15:56:37.662Z</time></trkpt><trkpt lat="9.7635423" lon="-75.5138949"><ele>48.400000000000006</ele><time>2026-04-18T15:56:38.668Z</time></trkpt><trkpt lat="9.7636297" lon="-75.5138584"><ele>46.599999999999994</ele><time>2026-04-18T15:56:39.663Z</time></trkpt><trkpt lat="9.7637177" lon="-75.513818"><ele>44.8</ele><time>2026-04-18T15:56:40.669Z</time></trkpt><trkpt lat="9.7638006" lon="-75.5137775"><ele>43.0</ele><time>2026-04-18T15:56:41.662Z</time></trkpt><trkpt lat="9.7638899" lon="-75.5137393"><ele>43.599999999999994</ele><time>2026-04-18T15:56:42.665Z</time></trkpt><trkpt lat="9.7639783" lon="-75.5136998"><ele>44.199999999999996</ele><time>2026-04-18T15:56:43.664Z</time></trkpt><trkpt lat="9.7640675" lon="-75.5136556"><ele>44.8</ele><time>2026-04-18T15:56:44.662Z</time></trkpt><trkpt lat="9.7641606" lon="-75.5136123"><ele>45.4</ele><time>2026-04-18T15:56:45.662Z</time></trkpt><trkpt lat="9.7642488" lon="-75.5135695"><ele>46.0</ele><time>2026-04-18T15:56:46.662Z</time></trkpt><trkpt lat="9.7643288" lon="-75.5135272"><ele>45.4</ele><time>2026-04-18T15:56:47.663Z</time></trkpt><trkpt lat="9.7644167" lon="-75.5134907"><ele>44.8</ele><time>2026-04-18T15:56:48.66Z</time></trkpt><trkpt lat="9.7645023" lon="-75.5134524"><ele>44.199999999999996</ele><time>2026-04-18T15:56:49.66Z</time></trkpt><trkpt lat="9.7645815" lon="-75.5134108"><ele>43.599999999999994</ele><time>2026-04-18T15:56:50.659Z</time></trkpt><trkpt lat="9.764663" lon="-75.5133713"><ele>43.0</ele><time>2026-04-18T15:56:51.662Z</time></trkpt><trkpt lat="9.7647445" lon="-75.5133329"><ele>43.0</ele><time>2026-04-18T15:56:52.662Z</time></trkpt><trkpt lat="9.764822" lon="-75.5132961"><ele>43.0</ele><time>2026-04-18T15:56:53.668Z</time></trkpt><trkpt lat="9.7649008" lon="-75.5132588"><ele>43.0</ele><time>2026-04-18T15:56:54.662Z</time></trkpt><trkpt lat="9.7649793" lon="-75.5132264"><ele>43.0</ele><time>2026-04-18T15:56:55.661Z</time></trkpt><trkpt lat="9.7650509" lon="-75.5131916"><ele>43.0</ele><time>2026-04-18T15:56:56.663Z</time></trkpt><trkpt lat="9.7651241" lon="-75.5131587"><ele>43.0</ele><time>2026-04-18T15:56:57.663Z</time></trkpt><trkpt lat="9.7651948" lon="-75.5131265"><ele>44.00000000000001</ele><time>2026-04-18T15:56:58.665Z</time></trkpt><trkpt lat="9.7652654" lon="-75.5130941"><ele>45.0</ele><time>2026-04-18T15:56:59.668Z</time></trkpt><trkpt lat="9.7653297" lon="-75.5130595"><ele>46.0</ele><time>2026-04-18T15:57:00.664Z</time></trkpt><trkpt lat="9.7653986" lon="-75.5130268"><ele>47.0</ele><time>2026-04-18T15:57:01.663Z</time></trkpt><trkpt lat="9.7654664" lon="-75.5129943"><ele>48.0</ele><time>2026-04-18T15:57:02.659Z</time></trkpt><trkpt lat="9.765533" lon="-75.5129626"><ele>49.00000000000001</ele><time>2026-04-18T15:57:03.66Z</time></trkpt><trkpt lat="9.7655958" lon="-75.5129313"><ele>50.0</ele><time>2026-04-18T15:57:04.661Z</time></trkpt><trkpt lat="9.7656579" lon="-75.5128986"><ele>50.00000000000001</ele><time>2026-04-18T15:57:05.659Z</time></trkpt><trkpt lat="9.7657231" lon="-75.5128668"><ele>50.0</ele><time>2026-04-18T15:57:06.663Z</time></trkpt><trkpt lat="9.7657917" lon="-75.5128374"><ele>50.0</ele><time>2026-04-18T15:57:07.658Z</time></trkpt><trkpt lat="9.7658598" lon="-75.5128081"><ele>50.0</ele><time>2026-04-18T15:57:08.661Z</time></trkpt><trkpt lat="9.7659294" lon="-75.5127689"><ele>50.0</ele><time>2026-04-18T15:57:09.661Z</time></trkpt><trkpt lat="9.7659992" lon="-75.5127373"><ele>50.00000000000001</ele><time>2026-04-18T15:57:10.662Z</time></trkpt><trkpt lat="9.766067" lon="-75.5127112"><ele>50.0</ele><time>2026-04-18T15:57:11.664Z</time></trkpt><trkpt lat="9.7661362" lon="-75.5126792"><ele>49.42857142857143</ele><time>2026-04-18T15:57:12.667Z</time></trkpt><trkpt lat="9.7662017" lon="-75.5126471"><ele>48.85714285714286</ele><time>2026-04-18T15:57:13.663Z</time></trkpt><trkpt lat="9.7662743" lon="-75.5126153"><ele>48.28571428571429</ele><time>2026-04-18T15:57:14.66Z</time></trkpt><trkpt lat="9.7663382" lon="-75.5125835"><ele>47.714285714285715</ele><time>2026-04-18T15:57:15.658Z</time></trkpt><trkpt lat="9.7664068" lon="-75.5125493"><ele>47.14285714285714</ele><time>2026-04-18T15:57:16.66Z</time></trkpt><trkpt lat="9.7664749" lon="-75.5125165"><ele>46.57142857142858</ele><time>2026-04-18T15:57:17.665Z</time></trkpt><trkpt lat="9.766543" lon="-75.5124858"><ele>46.0</ele><time>2026-04-18T15:57:18.663Z</time></trkpt><trkpt lat="9.7666125" lon="-75.5124523"><ele>46.0</ele><time>2026-04-18T15:57:19.668Z</time></trkpt><trkpt lat="9.7666825" lon="-75.512417"><ele>46.0</ele><time>2026-04-18T15:57:20.659Z</time></trkpt><trkpt lat="9.766752" lon="-75.5123818"><ele>46.0</ele><time>2026-04-18T15:57:21.656Z</time></trkpt><trkpt lat="9.7668243" lon="-75.5123545"><ele>46.0</ele><time>2026-04-18T15:57:22.655Z</time></trkpt><trkpt lat="9.7668968" lon="-75.5123176"><ele>46.0</ele><time>2026-04-18T15:57:23.659Z</time></trkpt><trkpt lat="9.7669655" lon="-75.5122815"><ele>46.0</ele><time>2026-04-18T15:57:24.658Z</time></trkpt><trkpt lat="9.7670424" lon="-75.512246"><ele>46.0</ele><time>2026-04-18T15:57:25.658Z</time></trkpt><trkpt lat="9.7671149" lon="-75.5122181"><ele>46.0</ele><time>2026-04-18T15:57:26.66Z</time></trkpt><trkpt lat="9.7671875" lon="-75.5121901"><ele>46.0</ele><time>2026-04-18T15:57:27.66Z</time></trkpt><trkpt lat="9.7672665" lon="-75.5121503"><ele>46.0</ele><time>2026-04-18T15:57:28.658Z</time></trkpt><trkpt lat="9.7673426" lon="-75.5121134"><ele>46.0</ele><time>2026-04-18T15:57:29.66Z</time></trkpt><trkpt lat="9.7674235" lon="-75.5120741"><ele>46.0</ele><time>2026-04-18T15:57:30.658Z</time></trkpt><trkpt lat="9.7675017" lon="-75.5120343"><ele>46.0</ele><time>2026-04-18T15:57:31.659Z</time></trkpt><trkpt lat="9.7675799" lon="-75.5119928"><ele>46.0</ele><time>2026-04-18T15:57:32.66Z</time></trkpt><trkpt lat="9.7676626" lon="-75.5119539"><ele>46.0</ele><time>2026-04-18T15:57:33.66Z</time></trkpt><trkpt lat="9.7677437" lon="-75.5119082"><ele>46.0</ele><time>2026-04-18T15:57:34.663Z</time></trkpt><trkpt lat="9.7678299" lon="-75.5118727"><ele>46.0</ele><time>2026-04-18T15:57:35.664Z</time></trkpt><trkpt lat="9.7679108" lon="-75.5118313"><ele>46.0</ele><time>2026-04-18T15:57:36.658Z</time></trkpt><trkpt lat="9.7679908" lon="-75.5117962"><ele>46.0</ele><time>2026-04-18T15:57:37.66Z</time></trkpt><trkpt lat="9.768072" lon="-75.511762"><ele>46.0</ele><time>2026-04-18T15:57:38.657Z</time></trkpt><trkpt lat="9.7681546" lon="-75.5117238"><ele>46.0</ele><time>2026-04-18T15:57:39.659Z</time></trkpt><trkpt lat="9.7682363" lon="-75.5116836"><ele>46.0</ele><time>2026-04-18T15:57:40.655Z</time></trkpt><trkpt lat="9.7683172" lon="-75.5116417"><ele>46.0</ele><time>2026-04-18T15:57:41.658Z</time></trkpt><trkpt lat="9.7683996" lon="-75.511601"><ele>46.0</ele><time>2026-04-18T15:57:42.66Z</time></trkpt><trkpt lat="9.7684958" lon="-75.5115569"><ele>46.0</ele><time>2026-04-18T15:57:43.658Z</time></trkpt><trkpt lat="9.7685839" lon="-75.5115144"><ele>46.0</ele><time>2026-04-18T15:57:44.658Z</time></trkpt><trkpt lat="9.7686687" lon="-75.5114736"><ele>46.0</ele><time>2026-04-18T15:57:45.661Z</time></trkpt><trkpt lat="9.7687585" lon="-75.5114287"><ele>46.0</ele><time>2026-04-18T15:57:46.659Z</time></trkpt><trkpt lat="9.7688425" lon="-75.5113882"><ele>45.16666666666667</ele><time>2026-04-18T15:57:47.66Z</time></trkpt><trkpt lat="9.7689224" lon="-75.5113494"><ele>44.333333333333336</ele><time>2026-04-18T15:57:48.662Z</time></trkpt><trkpt lat="9.7690022" lon="-75.5113117"><ele>43.5</ele><time>2026-04-18T15:57:49.664Z</time></trkpt><trkpt lat="9.7690806" lon="-75.5112749"><ele>42.666666666666664</ele><time>2026-04-18T15:57:50.661Z</time></trkpt><trkpt lat="9.7691553" lon="-75.5112394"><ele>41.83333333333333</ele><time>2026-04-18T15:57:51.66Z</time></trkpt><trkpt lat="9.7692286" lon="-75.5112059"><ele>41.0</ele><time>2026-04-18T15:57:52.661Z</time></trkpt><trkpt lat="9.7693035" lon="-75.5111694"><ele>41.666666666666664</ele><time>2026-04-18T15:57:53.664Z</time></trkpt><trkpt lat="9.7693793" lon="-75.5111324"><ele>42.33333333333333</ele><time>2026-04-18T15:57:54.662Z</time></trkpt><trkpt lat="9.7694551" lon="-75.5110943"><ele>43.0</ele><time>2026-04-18T15:57:55.663Z</time></trkpt><trkpt lat="9.7695263" lon="-75.5110579"><ele>43.666666666666664</ele><time>2026-04-18T15:57:56.665Z</time></trkpt><trkpt lat="9.7695887" lon="-75.5110196"><ele>44.333333333333336</ele><time>2026-04-18T15:57:57.662Z</time></trkpt><trkpt lat="9.7696524" lon="-75.5109812"><ele>45.0</ele><time>2026-04-18T15:57:58.659Z</time></trkpt><trkpt lat="9.7697174" lon="-75.5109411"><ele>45.0</ele><time>2026-04-18T15:57:59.66Z</time></trkpt><trkpt lat="9.7697755" lon="-75.5109033"><ele>45.0</ele><time>2026-04-18T15:58:00.663Z</time></trkpt><trkpt lat="9.7698333" lon="-75.5108655"><ele>45.0</ele><time>2026-04-18T15:58:01.659Z</time></trkpt><trkpt lat="9.7698889" lon="-75.5108202"><ele>45.0</ele><time>2026-04-18T15:58:02.662Z</time></trkpt><trkpt lat="9.7699827" lon="-75.5107381"><ele>45.0</ele><time>2026-04-18T15:58:04.661Z</time></trkpt><trkpt lat="9.7700671" lon="-75.5106529"><ele>45.0</ele><time>2026-04-18T15:58:06.658Z</time></trkpt><trkpt lat="9.7701431" lon="-75.5105634"><ele>45.0</ele><time>2026-04-18T15:58:08.662Z</time></trkpt><trkpt lat="9.7702169" lon="-75.5104658"><ele>45.0</ele><time>2026-04-18T15:58:10.66Z</time></trkpt><trkpt lat="9.770289" lon="-75.5103712"><ele>45.0</ele><time>2026-04-18T15:58:12.662Z</time></trkpt><trkpt lat="9.7703533" lon="-75.5102712"><ele>45.25</ele><time>2026-04-18T15:58:14.658Z</time></trkpt><trkpt lat="9.7704091" lon="-75.5101638"><ele>45.5</ele><time>2026-04-18T15:58:16.657Z</time></trkpt><trkpt lat="9.7704669" lon="-75.5100628"><ele>45.75</ele><time>2026-04-18T15:58:18.666Z</time></trkpt><trkpt lat="9.7705238" lon="-75.5099572"><ele>46.0</ele><time>2026-04-18T15:58:20.659Z</time></trkpt><trkpt lat="9.7705751" lon="-75.5098529"><ele>46.0</ele><time>2026-04-18T15:58:22.663Z</time></trkpt><trkpt lat="9.7706286" lon="-75.5097452"><ele>46.0</ele><time>2026-04-18T15:58:24.662Z</time></trkpt><trkpt lat="9.7706851" lon="-75.5096389"><ele>46.0</ele><time>2026-04-18T15:58:26.664Z</time></trkpt><trkpt lat="9.7707379" lon="-75.5095236"><ele>46.0</ele><time>2026-04-18T15:58:28.663Z</time></trkpt><trkpt lat="9.7707669" lon="-75.5094665"><ele>46.0</ele><time>2026-04-18T15:58:29.655Z</time></trkpt><trkpt lat="9.7708277" lon="-75.5093589"><ele>46.833333333333336</ele><time>2026-04-18T15:58:31.658Z</time></trkpt><trkpt lat="9.7708566" lon="-75.509298"><ele>47.66666666666667</ele><time>2026-04-18T15:58:32.661Z</time></trkpt><trkpt lat="9.7708872" lon="-75.5092405"><ele>48.5</ele><time>2026-04-18T15:58:33.661Z</time></trkpt><trkpt lat="9.7709517" lon="-75.509125"><ele>49.333333333333336</ele><time>2026-04-18T15:58:35.668Z</time></trkpt><trkpt lat="9.7709805" lon="-75.5090671"><ele>50.166666666666664</ele><time>2026-04-18T15:58:36.664Z</time></trkpt><trkpt lat="9.7710117" lon="-75.5090091"><ele>51.0</ele><time>2026-04-18T15:58:37.665Z</time></trkpt><trkpt lat="9.7710411" lon="-75.5089475"><ele>51.0</ele><time>2026-04-18T15:58:38.667Z</time></trkpt><trkpt lat="9.7710708" lon="-75.5088892"><ele>51.0</ele><time>2026-04-18T15:58:39.663Z</time></trkpt><trkpt lat="9.7711004" lon="-75.5088258"><ele>51.0</ele><time>2026-04-18T15:58:40.666Z</time></trkpt><trkpt lat="9.7711278" lon="-75.5087642"><ele>51.0</ele><time>2026-04-18T15:58:41.661Z</time></trkpt><trkpt lat="9.7711569" lon="-75.5087011"><ele>51.0</ele><time>2026-04-18T15:58:42.664Z</time></trkpt><trkpt lat="9.7711856" lon="-75.5086404"><ele>51.0</ele><time>2026-04-18T15:58:43.662Z</time></trkpt><trkpt lat="9.7712163" lon="-75.5085843"><ele>51.0</ele><time>2026-04-18T15:58:44.66Z</time></trkpt><trkpt lat="9.7712473" lon="-75.5085225"><ele>51.285714285714285</ele><time>2026-04-18T15:58:45.663Z</time></trkpt><trkpt lat="9.7712793" lon="-75.508462"><ele>51.57142857142857</ele><time>2026-04-18T15:58:46.662Z</time></trkpt><trkpt lat="9.7713081" lon="-75.5084008"><ele>51.85714285714286</ele><time>2026-04-18T15:58:47.663Z</time></trkpt><trkpt lat="9.771338" lon="-75.5083373"><ele>52.14285714285714</ele><time>2026-04-18T15:58:48.662Z</time></trkpt><trkpt lat="9.7713696" lon="-75.5082753"><ele>52.42857142857142</ele><time>2026-04-18T15:58:49.658Z</time></trkpt><trkpt lat="9.7714045" lon="-75.5082118"><ele>52.714285714285715</ele><time>2026-04-18T15:58:50.659Z</time></trkpt><trkpt lat="9.7714355" lon="-75.5081534"><ele>53.0</ele><time>2026-04-18T15:58:51.66Z</time></trkpt><trkpt lat="9.7714659" lon="-75.5080892"><ele>53.0</ele><time>2026-04-18T15:58:52.66Z</time></trkpt><trkpt lat="9.771524" lon="-75.5079802"><ele>53.0</ele><time>2026-04-18T15:58:54.66Z</time></trkpt><trkpt lat="9.7715783" lon="-75.5078695"><ele>53.0</ele><time>2026-04-18T15:58:56.662Z</time></trkpt><trkpt lat="9.7716275" lon="-75.5077607"><ele>53.0</ele><time>2026-04-18T15:58:58.668Z</time></trkpt><trkpt lat="9.7716589" lon="-75.5077052"><ele>53.0</ele><time>2026-04-18T15:58:59.66Z</time></trkpt><trkpt lat="9.7716884" lon="-75.5076473"><ele>53.0</ele><time>2026-04-18T15:59:00.664Z</time></trkpt><trkpt lat="9.7717456" lon="-75.5075355"><ele>53.0</ele><time>2026-04-18T15:59:02.661Z</time></trkpt><trkpt lat="9.7718013" lon="-75.5074213"><ele>53.0</ele><time>2026-04-18T15:59:04.664Z</time></trkpt><trkpt lat="9.7718563" lon="-75.5073143"><ele>53.0</ele><time>2026-04-18T15:59:06.658Z</time></trkpt><trkpt lat="9.7719086" lon="-75.507207"><ele>53.0</ele><time>2026-04-18T15:59:08.661Z</time></trkpt><trkpt lat="9.7719662" lon="-75.5070983"><ele>53.0</ele><time>2026-04-18T15:59:10.659Z</time></trkpt><trkpt lat="9.7720196" lon="-75.5069927"><ele>53.0</ele><time>2026-04-18T15:59:12.661Z</time></trkpt><trkpt lat="9.7720736" lon="-75.5068791"><ele>53.0</ele><time>2026-04-18T15:59:14.663Z</time></trkpt><trkpt lat="9.7721283" lon="-75.5067753"><ele>54.0</ele><time>2026-04-18T15:59:16.665Z</time></trkpt><trkpt lat="9.7721847" lon="-75.5066702"><ele>55.0</ele><time>2026-04-18T15:59:18.663Z</time></trkpt><trkpt lat="9.7722291" lon="-75.5065619"><ele>56.0</ele><time>2026-04-18T15:59:20.665Z</time></trkpt><trkpt lat="9.7722757" lon="-75.5064616"><ele>57.0</ele><time>2026-04-18T15:59:22.661Z</time></trkpt><trkpt lat="9.7723295" lon="-75.5063573"><ele>57.0</ele><time>2026-04-18T15:59:24.665Z</time></trkpt><trkpt lat="9.7723785" lon="-75.5062576"><ele>57.0</ele><time>2026-04-18T15:59:26.662Z</time></trkpt><trkpt lat="9.7724291" lon="-75.5061551"><ele>57.0</ele><time>2026-04-18T15:59:28.658Z</time></trkpt><trkpt lat="9.7724775" lon="-75.5060545"><ele>57.0</ele><time>2026-04-18T15:59:30.659Z</time></trkpt><trkpt lat="9.7725323" lon="-75.5059528"><ele>57.0</ele><time>2026-04-18T15:59:32.665Z</time></trkpt><trkpt lat="9.7725793" lon="-75.5058598"><ele>57.2</ele><time>2026-04-18T15:59:34.665Z</time></trkpt><trkpt lat="9.7726288" lon="-75.5057712"><ele>57.400000000000006</ele><time>2026-04-18T15:59:36.66Z</time></trkpt><trkpt lat="9.772672" lon="-75.5056818"><ele>57.599999999999994</ele><time>2026-04-18T15:59:38.661Z</time></trkpt><trkpt lat="9.7727167" lon="-75.5055932"><ele>57.8</ele><time>2026-04-18T15:59:40.658Z</time></trkpt><trkpt lat="9.7727595" lon="-75.5055032"><ele>58.0</ele><time>2026-04-18T15:59:42.665Z</time></trkpt><trkpt lat="9.7727994" lon="-75.5054141"><ele>59.8</ele><time>2026-04-18T15:59:44.662Z</time></trkpt><trkpt lat="9.7728464" lon="-75.5053248"><ele>61.599999999999994</ele><time>2026-04-18T15:59:46.663Z</time></trkpt><trkpt lat="9.7729016" lon="-75.5052427"><ele>63.400000000000006</ele><time>2026-04-18T15:59:48.667Z</time></trkpt><trkpt lat="9.7729477" lon="-75.5051588"><ele>65.2</ele><time>2026-04-18T15:59:50.662Z</time></trkpt><trkpt lat="9.7729872" lon="-75.5050731"><ele>67.0</ele><time>2026-04-18T15:59:52.667Z</time></trkpt><trkpt lat="9.773037" lon="-75.5049814"><ele>67.0</ele><time>2026-04-18T15:59:54.662Z</time></trkpt><trkpt lat="9.7730751" lon="-75.5048994"><ele>67.0</ele><time>2026-04-18T15:59:56.664Z</time></trkpt><trkpt lat="9.7731136" lon="-75.5048131"><ele>67.0</ele><time>2026-04-18T15:59:58.662Z</time></trkpt><trkpt lat="9.7731606" lon="-75.5047274"><ele>67.0</ele><time>2026-04-18T16:00:00.663Z</time></trkpt><trkpt lat="9.7732079" lon="-75.5046496"><ele>67.0</ele><time>2026-04-18T16:00:02.662Z</time></trkpt><trkpt lat="9.7732521" lon="-75.504567"><ele>66.4</ele><time>2026-04-18T16:00:04.668Z</time></trkpt><trkpt lat="9.773302" lon="-75.5044832"><ele>65.80000000000001</ele><time>2026-04-18T16:00:06.666Z</time></trkpt><trkpt lat="9.7733519" lon="-75.5043976"><ele>65.2</ele><time>2026-04-18T16:00:08.664Z</time></trkpt><trkpt lat="9.7734028" lon="-75.504317"><ele>64.60000000000001</ele><time>2026-04-18T16:00:10.662Z</time></trkpt><trkpt lat="9.7734646" lon="-75.504232"><ele>64.0</ele><time>2026-04-18T16:00:12.661Z</time></trkpt><trkpt lat="9.773527" lon="-75.5041477"><ele>64.0</ele><time>2026-04-18T16:00:14.662Z</time></trkpt><trkpt lat="9.7736022" lon="-75.5040719"><ele>64.0</ele><time>2026-04-18T16:00:16.662Z</time></trkpt><trkpt lat="9.7736712" lon="-75.5039868"><ele>64.0</ele><time>2026-04-18T16:00:18.666Z</time></trkpt><trkpt lat="9.7737493" lon="-75.5039051"><ele>64.0</ele><time>2026-04-18T16:00:20.666Z</time></trkpt><trkpt lat="9.7738287" lon="-75.5038239"><ele>64.0</ele><time>2026-04-18T16:00:22.661Z</time></trkpt><trkpt lat="9.7739139" lon="-75.503749"><ele>65.0</ele><time>2026-04-18T16:00:24.665Z</time></trkpt><trkpt lat="9.7740047" lon="-75.5036684"><ele>66.0</ele><time>2026-04-18T16:00:26.662Z</time></trkpt><trkpt lat="9.7740929" lon="-75.5035895"><ele>67.0</ele><time>2026-04-18T16:00:28.662Z</time></trkpt><trkpt lat="9.7741787" lon="-75.5035044"><ele>68.0</ele><time>2026-04-18T16:00:30.664Z</time></trkpt><trkpt lat="9.7742243" lon="-75.5034594"><ele>69.0</ele><time>2026-04-18T16:00:31.659Z</time></trkpt><trkpt lat="9.7743186" lon="-75.503374"><ele>69.0</ele><time>2026-04-18T16:00:33.661Z</time></trkpt><trkpt lat="9.7743669" lon="-75.5033323"><ele>69.0</ele><time>2026-04-18T16:00:34.664Z</time></trkpt><trkpt lat="9.7744591" lon="-75.503253"><ele>69.0</ele><time>2026-04-18T16:00:36.664Z</time></trkpt><trkpt lat="9.774507" lon="-75.503209"><ele>69.0</ele><time>2026-04-18T16:00:37.665Z</time></trkpt><trkpt lat="9.7746008" lon="-75.503128"><ele>69.0</ele><time>2026-04-18T16:00:39.658Z</time></trkpt><trkpt lat="9.7746956" lon="-75.5030399"><ele>69.0</ele><time>2026-04-18T16:00:41.662Z</time></trkpt><trkpt lat="9.774743" lon="-75.5029971"><ele>69.0</ele><time>2026-04-18T16:00:42.665Z</time></trkpt><trkpt lat="9.774791" lon="-75.5029549"><ele>69.0</ele><time>2026-04-18T16:00:43.661Z</time></trkpt><trkpt lat="9.774884" lon="-75.5028724"><ele>69.0</ele><time>2026-04-18T16:00:45.663Z</time></trkpt><trkpt lat="9.7749773" lon="-75.5027937"><ele>69.0</ele><time>2026-04-18T16:00:47.661Z</time></trkpt><trkpt lat="9.7750266" lon="-75.5027491"><ele>69.0</ele><time>2026-04-18T16:00:48.662Z</time></trkpt><trkpt lat="9.77508" lon="-75.5027077"><ele>69.0</ele><time>2026-04-18T16:00:49.662Z</time></trkpt><trkpt lat="9.7751296" lon="-75.5026648"><ele>69.0</ele><time>2026-04-18T16:00:50.657Z</time></trkpt><trkpt lat="9.7751785" lon="-75.5026225"><ele>69.0</ele><time>2026-04-18T16:00:51.661Z</time></trkpt><trkpt lat="9.7752268" lon="-75.5025785"><ele>69.0</ele><time>2026-04-18T16:00:52.662Z</time></trkpt><trkpt lat="9.7752759" lon="-75.5025352"><ele>69.0</ele><time>2026-04-18T16:00:53.658Z</time></trkpt><trkpt lat="9.7753252" lon="-75.5024928"><ele>69.0</ele><time>2026-04-18T16:00:54.658Z</time></trkpt><trkpt lat="9.7753712" lon="-75.5024484"><ele>69.0</ele><time>2026-04-18T16:00:55.657Z</time></trkpt><trkpt lat="9.7754207" lon="-75.5024052"><ele>69.0</ele><time>2026-04-18T16:00:56.662Z</time></trkpt><trkpt lat="9.7754723" lon="-75.5023631"><ele>69.0</ele><time>2026-04-18T16:00:57.659Z</time></trkpt><trkpt lat="9.7755189" lon="-75.5023197"><ele>69.0</ele><time>2026-04-18T16:00:58.666Z</time></trkpt><trkpt lat="9.7755689" lon="-75.5022756"><ele>69.0</ele><time>2026-04-18T16:00:59.661Z</time></trkpt><trkpt lat="9.7756168" lon="-75.5022322"><ele>69.0</ele><time>2026-04-18T16:01:00.665Z</time></trkpt><trkpt lat="9.7756674" lon="-75.5021931"><ele>69.0</ele><time>2026-04-18T16:01:01.66Z</time></trkpt><trkpt lat="9.7757167" lon="-75.502146"><ele>69.0</ele><time>2026-04-18T16:01:02.663Z</time></trkpt><trkpt lat="9.7757673" lon="-75.5021014"><ele>69.42857142857143</ele><time>2026-04-18T16:01:03.663Z</time></trkpt><trkpt lat="9.7758165" lon="-75.5020526"><ele>69.85714285714286</ele><time>2026-04-18T16:01:04.664Z</time></trkpt><trkpt lat="9.7758664" lon="-75.5020102"><ele>70.28571428571429</ele><time>2026-04-18T16:01:05.663Z</time></trkpt><trkpt lat="9.775916" lon="-75.5019679"><ele>70.71428571428572</ele><time>2026-04-18T16:01:06.665Z</time></trkpt><trkpt lat="9.7759614" lon="-75.5019179"><ele>71.14285714285714</ele><time>2026-04-18T16:01:07.656Z</time></trkpt><trkpt lat="9.7760144" lon="-75.501877"><ele>71.57142857142858</ele><time>2026-04-18T16:01:08.658Z</time></trkpt><trkpt lat="9.7760718" lon="-75.5018369"><ele>72.0</ele><time>2026-04-18T16:01:09.658Z</time></trkpt><trkpt lat="9.7761217" lon="-75.5017903"><ele>72.00000000000001</ele><time>2026-04-18T16:01:10.657Z</time></trkpt><trkpt lat="9.7761732" lon="-75.5017453"><ele>72.0</ele><time>2026-04-18T16:01:11.659Z</time></trkpt><trkpt lat="9.7762204" lon="-75.5017017"><ele>72.0</ele><time>2026-04-18T16:01:12.657Z</time></trkpt><trkpt lat="9.7762714" lon="-75.5016554"><ele>72.0</ele><time>2026-04-18T16:01:13.66Z</time></trkpt><trkpt lat="9.7763277" lon="-75.501612"><ele>72.0</ele><time>2026-04-18T16:01:14.656Z</time></trkpt><trkpt lat="9.7763788" lon="-75.5015682"><ele>72.00000000000001</ele><time>2026-04-18T16:01:15.658Z</time></trkpt><trkpt lat="9.7764302" lon="-75.501521"><ele>72.0</ele><time>2026-04-18T16:01:16.659Z</time></trkpt><trkpt lat="9.7764868" lon="-75.5014783"><ele>72.00000000000001</ele><time>2026-04-18T16:01:17.666Z</time></trkpt><trkpt lat="9.7765391" lon="-75.5014303"><ele>72.0</ele><time>2026-04-18T16:01:18.666Z</time></trkpt><trkpt lat="9.7765912" lon="-75.5013823"><ele>72.0</ele><time>2026-04-18T16:01:19.668Z</time></trkpt><trkpt lat="9.7766456" lon="-75.5013396"><ele>72.0</ele><time>2026-04-18T16:01:20.66Z</time></trkpt><trkpt lat="9.7766981" lon="-75.5012932"><ele>72.0</ele><time>2026-04-18T16:01:21.66Z</time></trkpt><trkpt lat="9.776752" lon="-75.5012444"><ele>72.00000000000001</ele><time>2026-04-18T16:01:22.662Z</time></trkpt><trkpt lat="9.7768036" lon="-75.5011939"><ele>72.0</ele><time>2026-04-18T16:01:23.669Z</time></trkpt><trkpt lat="9.7768561" lon="-75.5011487"><ele>72.14285714285715</ele><time>2026-04-18T16:01:24.657Z</time></trkpt><trkpt lat="9.7769102" lon="-75.5011013"><ele>72.28571428571429</ele><time>2026-04-18T16:01:25.659Z</time></trkpt><trkpt lat="9.7769619" lon="-75.5010518"><ele>72.42857142857143</ele><time>2026-04-18T16:01:26.657Z</time></trkpt><trkpt lat="9.7770139" lon="-75.5010043"><ele>72.57142857142858</ele><time>2026-04-18T16:01:27.66Z</time></trkpt><trkpt lat="9.7770661" lon="-75.5009531"><ele>72.71428571428572</ele><time>2026-04-18T16:01:28.658Z</time></trkpt><trkpt lat="9.7771222" lon="-75.500908"><ele>72.85714285714286</ele><time>2026-04-18T16:01:29.66Z</time></trkpt><trkpt lat="9.7771737" lon="-75.5008602"><ele>73.0</ele><time>2026-04-18T16:01:30.661Z</time></trkpt><trkpt lat="9.7772245" lon="-75.5008148"><ele>73.0</ele><time>2026-04-18T16:01:31.663Z</time></trkpt><trkpt lat="9.7772775" lon="-75.5007698"><ele>73.0</ele><time>2026-04-18T16:01:32.665Z</time></trkpt><trkpt lat="9.7773352" lon="-75.5007255"><ele>73.0</ele><time>2026-04-18T16:01:33.662Z</time></trkpt><trkpt lat="9.7773884" lon="-75.5006768"><ele>73.0</ele><time>2026-04-18T16:01:34.66Z</time></trkpt><trkpt lat="9.7774417" lon="-75.5006275"><ele>73.0</ele><time>2026-04-18T16:01:35.663Z</time></trkpt><trkpt lat="9.7774938" lon="-75.5005772"><ele>73.0</ele><time>2026-04-18T16:01:36.661Z</time></trkpt><trkpt lat="9.7775437" lon="-75.5005252"><ele>73.0</ele><time>2026-04-18T16:01:37.661Z</time></trkpt><trkpt lat="9.7775966" lon="-75.5004757"><ele>73.0</ele><time>2026-04-18T16:01:38.663Z</time></trkpt><trkpt lat="9.7776476" lon="-75.5004243"><ele>73.0</ele><time>2026-04-18T16:01:39.665Z</time></trkpt><trkpt lat="9.7777034" lon="-75.5003726"><ele>73.0</ele><time>2026-04-18T16:01:40.657Z</time></trkpt><trkpt lat="9.7777603" lon="-75.5003267"><ele>73.0</ele><time>2026-04-18T16:01:41.662Z</time></trkpt><trkpt lat="9.7778156" lon="-75.5002804"><ele>73.0</ele><time>2026-04-18T16:01:42.663Z</time></trkpt><trkpt lat="9.777866" lon="-75.5002323"><ele>73.0</ele><time>2026-04-18T16:01:43.659Z</time></trkpt><trkpt lat="9.7779213" lon="-75.5001836"><ele>73.0</ele><time>2026-04-18T16:01:44.658Z</time></trkpt><trkpt lat="9.7779718" lon="-75.5001332"><ele>74.5</ele><time>2026-04-18T16:01:45.656Z</time></trkpt><trkpt lat="9.7780313" lon="-75.500086"><ele>76.0</ele><time>2026-04-18T16:01:46.658Z</time></trkpt><trkpt lat="9.7780869" lon="-75.5000348"><ele>77.5</ele><time>2026-04-18T16:01:47.659Z</time></trkpt><trkpt lat="9.7781414" lon="-75.4999851"><ele>79.0</ele><time>2026-04-18T16:01:48.658Z</time></trkpt><trkpt lat="9.7781953" lon="-75.4999322"><ele>80.5</ele><time>2026-04-18T16:01:49.659Z</time></trkpt><trkpt lat="9.7782579" lon="-75.4998801"><ele>82.0</ele><time>2026-04-18T16:01:50.655Z</time></trkpt><trkpt lat="9.7783138" lon="-75.4998271"><ele>82.0</ele><time>2026-04-18T16:01:51.666Z</time></trkpt><trkpt lat="9.7783718" lon="-75.4997816"><ele>82.0</ele><time>2026-04-18T16:01:52.663Z</time></trkpt><trkpt lat="9.7784299" lon="-75.4997295"><ele>82.0</ele><time>2026-04-18T16:01:53.66Z</time></trkpt><trkpt lat="9.778486" lon="-75.4996788"><ele>82.0</ele><time>2026-04-18T16:01:54.662Z</time></trkpt><trkpt lat="9.7785408" lon="-75.499629"><ele>82.0</ele><time>2026-04-18T16:01:55.664Z</time></trkpt><trkpt lat="9.7785954" lon="-75.499576"><ele>82.0</ele><time>2026-04-18T16:01:56.661Z</time></trkpt><trkpt lat="9.7786538" lon="-75.4995246"><ele>81.71428571428571</ele><time>2026-04-18T16:01:57.664Z</time></trkpt><trkpt lat="9.7787116" lon="-75.4994712"><ele>81.42857142857143</ele><time>2026-04-18T16:01:58.664Z</time></trkpt><trkpt lat="9.7787646" lon="-75.4994222"><ele>81.14285714285714</ele><time>2026-04-18T16:01:59.661Z</time></trkpt><trkpt lat="9.7788226" lon="-75.4993719"><ele>80.85714285714286</ele><time>2026-04-18T16:02:00.662Z</time></trkpt><trkpt lat="9.7788788" lon="-75.4993257"><ele>80.57142857142857</ele><time>2026-04-18T16:02:01.66Z</time></trkpt><trkpt lat="9.7789374" lon="-75.4992795"><ele>80.28571428571428</ele><time>2026-04-18T16:02:02.66Z</time></trkpt><trkpt lat="9.7789935" lon="-75.4992358"><ele>80.0</ele><time>2026-04-18T16:02:03.661Z</time></trkpt><trkpt lat="9.7790497" lon="-75.4991898"><ele>80.0</ele><time>2026-04-18T16:02:04.663Z</time></trkpt><trkpt lat="9.779103" lon="-75.4991414"><ele>80.0</ele><time>2026-04-18T16:02:05.663Z</time></trkpt><trkpt lat="9.7791565" lon="-75.4990938"><ele>80.0</ele><time>2026-04-18T16:02:06.658Z</time></trkpt><trkpt lat="9.7792047" lon="-75.4990455"><ele>80.0</ele><time>2026-04-18T16:02:07.663Z</time></trkpt><trkpt lat="9.7792566" lon="-75.4989994"><ele>80.0</ele><time>2026-04-18T16:02:08.666Z</time></trkpt><trkpt lat="9.7793114" lon="-75.498953"><ele>80.0</ele><time>2026-04-18T16:02:09.659Z</time></trkpt><trkpt lat="9.7793627" lon="-75.4989041"><ele>80.0</ele><time>2026-04-18T16:02:10.658Z</time></trkpt><trkpt lat="9.7794129" lon="-75.4988586"><ele>80.16666666666667</ele><time>2026-04-18T16:02:11.661Z</time></trkpt><trkpt lat="9.7794605" lon="-75.4988151"><ele>80.33333333333334</ele><time>2026-04-18T16:02:12.662Z</time></trkpt><trkpt lat="9.7795096" lon="-75.4987699"><ele>80.5</ele><time>2026-04-18T16:02:13.657Z</time></trkpt><trkpt lat="9.7795586" lon="-75.4987253"><ele>80.66666666666667</ele><time>2026-04-18T16:02:14.657Z</time></trkpt><trkpt lat="9.7796512" lon="-75.4986431"><ele>80.83333333333333</ele><time>2026-04-18T16:02:16.665Z</time></trkpt><trkpt lat="9.7797399" lon="-75.4985633"><ele>81.0</ele><time>2026-04-18T16:02:18.662Z</time></trkpt><trkpt lat="9.7798313" lon="-75.4984936"><ele>81.0</ele><time>2026-04-18T16:02:20.663Z</time></trkpt><trkpt lat="9.779925" lon="-75.4984212"><ele>81.0</ele><time>2026-04-18T16:02:22.662Z</time></trkpt><trkpt lat="9.7800101" lon="-75.4983429"><ele>81.0</ele><time>2026-04-18T16:02:24.664Z</time></trkpt><trkpt lat="9.7800929" lon="-75.4982687"><ele>81.0</ele><time>2026-04-18T16:02:26.661Z</time></trkpt><trkpt lat="9.7801783" lon="-75.4981918"><ele>81.0</ele><time>2026-04-18T16:02:28.666Z</time></trkpt><trkpt lat="9.7802658" lon="-75.4981133"><ele>81.0</ele><time>2026-04-18T16:02:30.672Z</time></trkpt><trkpt lat="9.7803548" lon="-75.4980311"><ele>81.0</ele><time>2026-04-18T16:02:32.665Z</time></trkpt><trkpt lat="9.7804362" lon="-75.4979545"><ele>81.0</ele><time>2026-04-18T16:02:34.665Z</time></trkpt><trkpt lat="9.7805193" lon="-75.497877"><ele>80.6</ele><time>2026-04-18T16:02:36.658Z</time></trkpt><trkpt lat="9.7806075" lon="-75.4977958"><ele>80.19999999999999</ele><time>2026-04-18T16:02:38.66Z</time></trkpt><trkpt lat="9.7807023" lon="-75.4977124"><ele>79.80000000000001</ele><time>2026-04-18T16:02:40.66Z</time></trkpt><trkpt lat="9.780752" lon="-75.4976699"><ele>79.4</ele><time>2026-04-18T16:02:41.659Z</time></trkpt><trkpt lat="9.7808423" lon="-75.4975828"><ele>79.0</ele><time>2026-04-18T16:02:43.662Z</time></trkpt><trkpt lat="9.7809344" lon="-75.4974962"><ele>79.00000000000001</ele><time>2026-04-18T16:02:45.661Z</time></trkpt><trkpt lat="9.7809834" lon="-75.4974532"><ele>79.0</ele><time>2026-04-18T16:02:46.66Z</time></trkpt><trkpt lat="9.781038" lon="-75.4974057"><ele>79.0</ele><time>2026-04-18T16:02:47.664Z</time></trkpt><trkpt lat="9.78109" lon="-75.4973566"><ele>79.0</ele><time>2026-04-18T16:02:48.662Z</time></trkpt><trkpt lat="9.7811434" lon="-75.4973081"><ele>79.0</ele><time>2026-04-18T16:02:49.661Z</time></trkpt><trkpt lat="9.7811946" lon="-75.4972615"><ele>79.00000000000001</ele><time>2026-04-18T16:02:50.661Z</time></trkpt><trkpt lat="9.7812476" lon="-75.4972155"><ele>79.0</ele><time>2026-04-18T16:02:51.659Z</time></trkpt><trkpt lat="9.7813065" lon="-75.4971682"><ele>78.83333333333333</ele><time>2026-04-18T16:02:52.661Z</time></trkpt><trkpt lat="9.7813659" lon="-75.4971208"><ele>78.66666666666666</ele><time>2026-04-18T16:02:53.658Z</time></trkpt><trkpt lat="9.7814264" lon="-75.4970669"><ele>78.5</ele><time>2026-04-18T16:02:54.658Z</time></trkpt><trkpt lat="9.781494" lon="-75.4970124"><ele>78.33333333333333</ele><time>2026-04-18T16:02:55.665Z</time></trkpt><trkpt lat="9.7815535" lon="-75.4969582"><ele>78.16666666666667</ele><time>2026-04-18T16:02:56.659Z</time></trkpt><trkpt lat="9.7816184" lon="-75.4969019"><ele>78.0</ele><time>2026-04-18T16:02:57.658Z</time></trkpt><trkpt lat="9.7816803" lon="-75.4968474"><ele>78.0</ele><time>2026-04-18T16:02:58.662Z</time></trkpt><trkpt lat="9.7817398" lon="-75.4967917"><ele>78.0</ele><time>2026-04-18T16:02:59.661Z</time></trkpt><trkpt lat="9.7817996" lon="-75.496734"><ele>78.0</ele><time>2026-04-18T16:03:00.66Z</time></trkpt><trkpt lat="9.7818603" lon="-75.49668"><ele>78.0</ele><time>2026-04-18T16:03:01.661Z</time></trkpt><trkpt lat="9.7819276" lon="-75.4966283"><ele>78.0</ele><time>2026-04-18T16:03:02.662Z</time></trkpt><trkpt lat="9.7819864" lon="-75.4965735"><ele>78.0</ele><time>2026-04-18T16:03:03.661Z</time></trkpt><trkpt lat="9.7820466" lon="-75.496517"><ele>77.83333333333333</ele><time>2026-04-18T16:03:04.657Z</time></trkpt><trkpt lat="9.7821058" lon="-75.4964602"><ele>77.66666666666667</ele><time>2026-04-18T16:03:05.66Z</time></trkpt><trkpt lat="9.7821658" lon="-75.4964069"><ele>77.5</ele><time>2026-04-18T16:03:06.658Z</time></trkpt><trkpt lat="9.7822258" lon="-75.496355"><ele>77.33333333333334</ele><time>2026-04-18T16:03:07.659Z</time></trkpt><trkpt lat="9.7822798" lon="-75.4963008"><ele>77.16666666666667</ele><time>2026-04-18T16:03:08.659Z</time></trkpt><trkpt lat="9.7823353" lon="-75.4962501"><ele>77.0</ele><time>2026-04-18T16:03:09.659Z</time></trkpt><trkpt lat="9.7823904" lon="-75.4961988"><ele>77.42857142857143</ele><time>2026-04-18T16:03:10.657Z</time></trkpt><trkpt lat="9.7824453" lon="-75.4961506"><ele>77.85714285714286</ele><time>2026-04-18T16:03:11.66Z</time></trkpt><trkpt lat="9.7825001" lon="-75.4961033"><ele>78.28571428571428</ele><time>2026-04-18T16:03:12.662Z</time></trkpt><trkpt lat="9.7825559" lon="-75.4960577"><ele>78.71428571428572</ele><time>2026-04-18T16:03:13.659Z</time></trkpt><trkpt lat="9.7826075" lon="-75.4960082"><ele>79.14285714285714</ele><time>2026-04-18T16:03:14.657Z</time></trkpt><trkpt lat="9.7826603" lon="-75.495968"><ele>79.57142857142857</ele><time>2026-04-18T16:03:15.659Z</time></trkpt><trkpt lat="9.7827081" lon="-75.4959251"><ele>80.0</ele><time>2026-04-18T16:03:16.663Z</time></trkpt><trkpt lat="9.7827575" lon="-75.4958811"><ele>81.4</ele><time>2026-04-18T16:03:17.664Z</time></trkpt><trkpt lat="9.7828098" lon="-75.4958378"><ele>82.8</ele><time>2026-04-18T16:03:18.658Z</time></trkpt><trkpt lat="9.7828966" lon="-75.4957597"><ele>84.19999999999999</ele><time>2026-04-18T16:03:20.66Z</time></trkpt><trkpt lat="9.7829949" lon="-75.4956843"><ele>85.6</ele><time>2026-04-18T16:03:22.662Z</time></trkpt><trkpt lat="9.7830932" lon="-75.4956039"><ele>87.0</ele><time>2026-04-18T16:03:24.664Z</time></trkpt><trkpt lat="9.7831743" lon="-75.495529"><ele>87.0</ele><time>2026-04-18T16:03:26.66Z</time></trkpt><trkpt lat="9.7832581" lon="-75.4954495"><ele>87.0</ele><time>2026-04-18T16:03:28.663Z</time></trkpt><trkpt lat="9.7833454" lon="-75.495377"><ele>87.0</ele><time>2026-04-18T16:03:30.662Z</time></trkpt><trkpt lat="9.7834295" lon="-75.4953016"><ele>87.0</ele><time>2026-04-18T16:03:32.665Z</time></trkpt><trkpt lat="9.7835133" lon="-75.4952221"><ele>87.75</ele><time>2026-04-18T16:03:34.661Z</time></trkpt><trkpt lat="9.7836023" lon="-75.4951417"><ele>88.5</ele><time>2026-04-18T16:03:36.667Z</time></trkpt><trkpt lat="9.7837008" lon="-75.4950621"><ele>89.25</ele><time>2026-04-18T16:03:38.66Z</time></trkpt><trkpt lat="9.7837912" lon="-75.4949774"><ele>90.0</ele><time>2026-04-18T16:03:40.659Z</time></trkpt><trkpt lat="9.7838879" lon="-75.4948929"><ele>90.0</ele><time>2026-04-18T16:03:42.661Z</time></trkpt><trkpt lat="9.7839323" lon="-75.4948474"><ele>90.0</ele><time>2026-04-18T16:03:43.661Z</time></trkpt><trkpt lat="9.7839845" lon="-75.4948017"><ele>90.0</ele><time>2026-04-18T16:03:44.658Z</time></trkpt><trkpt lat="9.7840395" lon="-75.4947562"><ele>90.0</ele><time>2026-04-18T16:03:45.662Z</time></trkpt><trkpt lat="9.7840911" lon="-75.4947101"><ele>90.0</ele><time>2026-04-18T16:03:46.659Z</time></trkpt><trkpt lat="9.7841436" lon="-75.4946649"><ele>90.0</ele><time>2026-04-18T16:03:47.657Z</time></trkpt><trkpt lat="9.7841911" lon="-75.4946154"><ele>90.0</ele><time>2026-04-18T16:03:48.657Z</time></trkpt><trkpt lat="9.7842468" lon="-75.4945677"><ele>89.33333333333333</ele><time>2026-04-18T16:03:49.657Z</time></trkpt><trkpt lat="9.7842975" lon="-75.4945219"><ele>88.66666666666667</ele><time>2026-04-18T16:03:50.655Z</time></trkpt><trkpt lat="9.784352" lon="-75.4944703"><ele>88.0</ele><time>2026-04-18T16:03:51.662Z</time></trkpt><trkpt lat="9.7844068" lon="-75.4944196"><ele>87.33333333333334</ele><time>2026-04-18T16:03:52.659Z</time></trkpt><trkpt lat="9.7844656" lon="-75.494367"><ele>86.66666666666667</ele><time>2026-04-18T16:03:53.654Z</time></trkpt><trkpt lat="9.7845237" lon="-75.4943094"><ele>86.0</ele><time>2026-04-18T16:03:54.655Z</time></trkpt><trkpt lat="9.7845855" lon="-75.4942579"><ele>86.0</ele><time>2026-04-18T16:03:55.657Z</time></trkpt><trkpt lat="9.7846534" lon="-75.4942012"><ele>86.0</ele><time>2026-04-18T16:03:56.657Z</time></trkpt><trkpt lat="9.7847183" lon="-75.4941463"><ele>86.0</ele><time>2026-04-18T16:03:57.661Z</time></trkpt><trkpt lat="9.7847803" lon="-75.4940956"><ele>86.0</ele><time>2026-04-18T16:03:58.659Z</time></trkpt><trkpt lat="9.7848452" lon="-75.4940368"><ele>86.0</ele><time>2026-04-18T16:03:59.658Z</time></trkpt><trkpt lat="9.7849112" lon="-75.493981"><ele>86.0</ele><time>2026-04-18T16:04:00.658Z</time></trkpt><trkpt lat="9.7849745" lon="-75.4939261"><ele>86.0</ele><time>2026-04-18T16:04:01.662Z</time></trkpt><trkpt lat="9.7850348" lon="-75.4938726"><ele>86.0</ele><time>2026-04-18T16:04:02.661Z</time></trkpt><trkpt lat="9.7850996" lon="-75.4938174"><ele>86.0</ele><time>2026-04-18T16:04:03.661Z</time></trkpt><trkpt lat="9.7851614" lon="-75.4937586"><ele>86.0</ele><time>2026-04-18T16:04:04.666Z</time></trkpt><trkpt lat="9.7852224" lon="-75.493705"><ele>86.0</ele><time>2026-04-18T16:04:05.666Z</time></trkpt><trkpt lat="9.7852857" lon="-75.4936534"><ele>86.0</ele><time>2026-04-18T16:04:06.663Z</time></trkpt><trkpt lat="9.7853511" lon="-75.4935999"><ele>86.33333333333334</ele><time>2026-04-18T16:04:07.665Z</time></trkpt><trkpt lat="9.7854164" lon="-75.4935455"><ele>86.66666666666667</ele><time>2026-04-18T16:04:08.665Z</time></trkpt><trkpt lat="9.7854758" lon="-75.4934868"><ele>87.0</ele><time>2026-04-18T16:04:09.659Z</time></trkpt><trkpt lat="9.7855376" lon="-75.4934307"><ele>87.33333333333333</ele><time>2026-04-18T16:04:10.663Z</time></trkpt><trkpt lat="9.7855976" lon="-75.4933753"><ele>87.66666666666666</ele><time>2026-04-18T16:04:11.661Z</time></trkpt><trkpt lat="9.7856573" lon="-75.4933205"><ele>88.0</ele><time>2026-04-18T16:04:12.661Z</time></trkpt><trkpt lat="9.7857174" lon="-75.4932714"><ele>88.0</ele><time>2026-04-18T16:04:13.66Z</time></trkpt><trkpt lat="9.7857722" lon="-75.4932164"><ele>88.0</ele><time>2026-04-18T16:04:14.663Z</time></trkpt><trkpt lat="9.7858301" lon="-75.4931597"><ele>88.0</ele><time>2026-04-18T16:04:15.659Z</time></trkpt><trkpt lat="9.7858863" lon="-75.4931096"><ele>88.0</ele><time>2026-04-18T16:04:16.663Z</time></trkpt><trkpt lat="9.7859398" lon="-75.49306"><ele>88.0</ele><time>2026-04-18T16:04:17.664Z</time></trkpt><trkpt lat="9.7859978" lon="-75.4930077"><ele>88.0</ele><time>2026-04-18T16:04:18.661Z</time></trkpt><trkpt lat="9.7860529" lon="-75.4929577"><ele>88.33333333333333</ele><time>2026-04-18T16:04:19.664Z</time></trkpt><trkpt lat="9.786109" lon="-75.4929029"><ele>88.66666666666666</ele><time>2026-04-18T16:04:20.655Z</time></trkpt><trkpt lat="9.786157" lon="-75.4928448"><ele>89.0</ele><time>2026-04-18T16:04:21.656Z</time></trkpt><trkpt lat="9.7862053" lon="-75.4927882"><ele>89.33333333333333</ele><time>2026-04-18T16:04:22.659Z</time></trkpt><trkpt lat="9.7862555" lon="-75.4927298"><ele>89.66666666666667</ele><time>2026-04-18T16:04:23.659Z</time></trkpt><trkpt lat="9.7862998" lon="-75.4926705"><ele>90.0</ele><time>2026-04-18T16:04:24.66Z</time></trkpt><trkpt lat="9.7863453" lon="-75.4926079"><ele>90.0</ele><time>2026-04-18T16:04:25.659Z</time></trkpt><trkpt lat="9.7863895" lon="-75.4925448"><ele>90.0</ele><time>2026-04-18T16:04:26.658Z</time></trkpt><trkpt lat="9.7864317" lon="-75.4924846"><ele>90.0</ele><time>2026-04-18T16:04:27.659Z</time></trkpt><trkpt lat="9.7864732" lon="-75.4924204"><ele>90.0</ele><time>2026-04-18T16:04:28.658Z</time></trkpt><trkpt lat="9.7865117" lon="-75.4923628"><ele>90.0</ele><time>2026-04-18T16:04:29.658Z</time></trkpt><trkpt lat="9.7865514" lon="-75.4923007"><ele>90.0</ele><time>2026-04-18T16:04:30.659Z</time></trkpt><trkpt lat="9.7865886" lon="-75.492238"><ele>90.0</ele><time>2026-04-18T16:04:31.662Z</time></trkpt><trkpt lat="9.7866246" lon="-75.4921751"><ele>90.0</ele><time>2026-04-18T16:04:32.662Z</time></trkpt><trkpt lat="9.7866597" lon="-75.492111"><ele>90.0</ele><time>2026-04-18T16:04:33.661Z</time></trkpt><trkpt lat="9.7866905" lon="-75.4920498"><ele>90.0</ele><time>2026-04-18T16:04:34.663Z</time></trkpt><trkpt lat="9.7867172" lon="-75.4919883"><ele>90.0</ele><time>2026-04-18T16:04:35.662Z</time></trkpt><trkpt lat="9.7867492" lon="-75.4919255"><ele>90.0</ele><time>2026-04-18T16:04:36.664Z</time></trkpt><trkpt lat="9.7867808" lon="-75.4918593"><ele>90.0</ele><time>2026-04-18T16:04:37.656Z</time></trkpt><trkpt lat="9.7868079" lon="-75.4917936"><ele>90.0</ele><time>2026-04-18T16:04:38.665Z</time></trkpt><trkpt lat="9.7868377" lon="-75.4917278"><ele>89.66666666666667</ele><time>2026-04-18T16:04:39.656Z</time></trkpt><trkpt lat="9.7868785" lon="-75.4916636"><ele>89.33333333333333</ele><time>2026-04-18T16:04:40.66Z</time></trkpt><trkpt lat="9.7869143" lon="-75.491596"><ele>89.0</ele><time>2026-04-18T16:04:41.659Z</time></trkpt><trkpt lat="9.7869482" lon="-75.4915287"><ele>88.66666666666666</ele><time>2026-04-18T16:04:42.663Z</time></trkpt><trkpt lat="9.7869803" lon="-75.4914593"><ele>88.33333333333333</ele><time>2026-04-18T16:04:43.659Z</time></trkpt><trkpt lat="9.7870143" lon="-75.4913881"><ele>88.0</ele><time>2026-04-18T16:04:44.665Z</time></trkpt><trkpt lat="9.7870429" lon="-75.4913144"><ele>88.0</ele><time>2026-04-18T16:04:45.659Z</time></trkpt><trkpt lat="9.7870788" lon="-75.4912444"><ele>88.0</ele><time>2026-04-18T16:04:46.661Z</time></trkpt><trkpt lat="9.7871175" lon="-75.4911741"><ele>88.0</ele><time>2026-04-18T16:04:47.672Z</time></trkpt><trkpt lat="9.7871518" lon="-75.4911059"><ele>88.0</ele><time>2026-04-18T16:04:48.683Z</time></trkpt><trkpt lat="9.7871886" lon="-75.4910378"><ele>88.0</ele><time>2026-04-18T16:04:49.662Z</time></trkpt><trkpt lat="9.7872241" lon="-75.4909693"><ele>88.0</ele><time>2026-04-18T16:04:50.663Z</time></trkpt><trkpt lat="9.7872573" lon="-75.4909019"><ele>88.0</ele><time>2026-04-18T16:04:51.659Z</time></trkpt><trkpt lat="9.7872916" lon="-75.4908334"><ele>88.0</ele><time>2026-04-18T16:04:52.659Z</time></trkpt><trkpt lat="9.787327" lon="-75.4907684"><ele>88.0</ele><time>2026-04-18T16:04:53.658Z</time></trkpt><trkpt lat="9.7873646" lon="-75.4906963"><ele>88.0</ele><time>2026-04-18T16:04:54.66Z</time></trkpt><trkpt lat="9.7874019" lon="-75.4906197"><ele>88.0</ele><time>2026-04-18T16:04:55.659Z</time></trkpt><trkpt lat="9.7874367" lon="-75.4905457"><ele>88.0</ele><time>2026-04-18T16:04:56.658Z</time></trkpt><trkpt lat="9.7874739" lon="-75.4904716"><ele>88.16666666666666</ele><time>2026-04-18T16:04:57.656Z</time></trkpt><trkpt lat="9.7875116" lon="-75.4903964"><ele>88.33333333333333</ele><time>2026-04-18T16:04:58.66Z</time></trkpt><trkpt lat="9.7875499" lon="-75.4903191"><ele>88.5</ele><time>2026-04-18T16:04:59.661Z</time></trkpt><trkpt lat="9.7875875" lon="-75.4902408"><ele>88.66666666666667</ele><time>2026-04-18T16:05:00.66Z</time></trkpt><trkpt lat="9.7876218" lon="-75.490161"><ele>88.83333333333334</ele><time>2026-04-18T16:05:01.661Z</time></trkpt><trkpt lat="9.7876587" lon="-75.4900764"><ele>89.0</ele><time>2026-04-18T16:05:02.668Z</time></trkpt><trkpt lat="9.7876994" lon="-75.4899889"><ele>88.4</ele><time>2026-04-18T16:05:03.66Z</time></trkpt><trkpt lat="9.7877402" lon="-75.4898984"><ele>87.80000000000001</ele><time>2026-04-18T16:05:04.663Z</time></trkpt><trkpt lat="9.7877769" lon="-75.489817"><ele>87.19999999999999</ele><time>2026-04-18T16:05:05.66Z</time></trkpt><trkpt lat="9.787815" lon="-75.4897363"><ele>86.6</ele><time>2026-04-18T16:05:06.659Z</time></trkpt><trkpt lat="9.7878621" lon="-75.4896439"><ele>86.0</ele><time>2026-04-18T16:05:07.663Z</time></trkpt><trkpt lat="9.7879067" lon="-75.4895557"><ele>85.6</ele><time>2026-04-18T16:05:08.658Z</time></trkpt><trkpt lat="9.7879493" lon="-75.4894686"><ele>85.19999999999999</ele><time>2026-04-18T16:05:09.666Z</time></trkpt><trkpt lat="9.7880005" lon="-75.4893774"><ele>84.80000000000001</ele><time>2026-04-18T16:05:10.674Z</time></trkpt><trkpt lat="9.7880425" lon="-75.4892849"><ele>84.4</ele><time>2026-04-18T16:05:11.659Z</time></trkpt><trkpt lat="9.7880883" lon="-75.4891894"><ele>84.0</ele><time>2026-04-18T16:05:12.663Z</time></trkpt><trkpt lat="9.7881296" lon="-75.4890982"><ele>84.0</ele><time>2026-04-18T16:05:13.659Z</time></trkpt><trkpt lat="9.788175" lon="-75.4890054"><ele>84.0</ele><time>2026-04-18T16:05:14.663Z</time></trkpt><trkpt lat="9.7882181" lon="-75.4889161"><ele>84.0</ele><time>2026-04-18T16:05:15.659Z</time></trkpt><trkpt lat="9.7882594" lon="-75.4888262"><ele>84.0</ele><time>2026-04-18T16:05:16.659Z</time></trkpt><trkpt lat="9.7883024" lon="-75.4887353"><ele>84.0</ele><time>2026-04-18T16:05:17.659Z</time></trkpt><trkpt lat="9.7883502" lon="-75.4886432"><ele>84.4</ele><time>2026-04-18T16:05:18.666Z</time></trkpt><trkpt lat="9.7883915" lon="-75.4885555"><ele>84.80000000000001</ele><time>2026-04-18T16:05:19.663Z</time></trkpt><trkpt lat="9.7884362" lon="-75.4884703"><ele>85.19999999999999</ele><time>2026-04-18T16:05:20.661Z</time></trkpt><trkpt lat="9.7884775" lon="-75.4883918"><ele>85.6</ele><time>2026-04-18T16:05:21.664Z</time></trkpt><trkpt lat="9.7885158" lon="-75.4883072"><ele>86.0</ele><time>2026-04-18T16:05:22.662Z</time></trkpt><trkpt lat="9.7885571" lon="-75.4882304"><ele>86.0</ele><time>2026-04-18T16:05:23.663Z</time></trkpt><trkpt lat="9.7885966" lon="-75.4881579"><ele>86.0</ele><time>2026-04-18T16:05:24.662Z</time></trkpt><trkpt lat="9.7886305" lon="-75.4880786"><ele>86.0</ele><time>2026-04-18T16:05:25.658Z</time></trkpt><trkpt lat="9.7886696" lon="-75.4880026"><ele>86.0</ele><time>2026-04-18T16:05:26.66Z</time></trkpt><trkpt lat="9.7887093" lon="-75.4879323"><ele>86.0</ele><time>2026-04-18T16:05:27.663Z</time></trkpt><trkpt lat="9.7887444" lon="-75.4878593"><ele>86.0</ele><time>2026-04-18T16:05:28.657Z</time></trkpt><trkpt lat="9.7887744" lon="-75.4877883"><ele>86.00000000000001</ele><time>2026-04-18T16:05:29.656Z</time></trkpt><trkpt lat="9.7888081" lon="-75.4877218"><ele>86.0</ele><time>2026-04-18T16:05:30.665Z</time></trkpt><trkpt lat="9.7888433" lon="-75.4876526"><ele>86.0</ele><time>2026-04-18T16:05:31.656Z</time></trkpt><trkpt lat="9.7888775" lon="-75.4875829"><ele>86.0</ele><time>2026-04-18T16:05:32.658Z</time></trkpt><trkpt lat="9.7889112" lon="-75.4875173"><ele>86.0</ele><time>2026-04-18T16:05:33.659Z</time></trkpt><trkpt lat="9.7889442" lon="-75.4874484"><ele>86.00000000000001</ele><time>2026-04-18T16:05:34.656Z</time></trkpt><trkpt lat="9.7889731" lon="-75.4873804"><ele>86.0</ele><time>2026-04-18T16:05:35.661Z</time></trkpt><trkpt lat="9.7890095" lon="-75.4873126"><ele>86.00000000000001</ele><time>2026-04-18T16:05:36.659Z</time></trkpt><trkpt lat="9.7890446" lon="-75.4872458"><ele>86.0</ele><time>2026-04-18T16:05:37.664Z</time></trkpt><trkpt lat="9.7890727" lon="-75.4871821"><ele>86.0</ele><time>2026-04-18T16:05:38.665Z</time></trkpt><trkpt lat="9.7891063" lon="-75.4871177"><ele>86.0</ele><time>2026-04-18T16:05:39.659Z</time></trkpt><trkpt lat="9.7891378" lon="-75.4870544"><ele>86.0</ele><time>2026-04-18T16:05:40.656Z</time></trkpt><trkpt lat="9.7891659" lon="-75.4869915"><ele>86.00000000000001</ele><time>2026-04-18T16:05:41.656Z</time></trkpt><trkpt lat="9.7891998" lon="-75.4869257"><ele>86.0</ele><time>2026-04-18T16:05:42.657Z</time></trkpt><trkpt lat="9.7892335" lon="-75.48686"><ele>85.42857142857143</ele><time>2026-04-18T16:05:43.653Z</time></trkpt><trkpt lat="9.7892675" lon="-75.4867983"><ele>84.85714285714286</ele><time>2026-04-18T16:05:44.656Z</time></trkpt><trkpt lat="9.7893011" lon="-75.4867328"><ele>84.28571428571428</ele><time>2026-04-18T16:05:45.661Z</time></trkpt><trkpt lat="9.7893322" lon="-75.4866675"><ele>83.71428571428572</ele><time>2026-04-18T16:05:46.659Z</time></trkpt><trkpt lat="9.7893637" lon="-75.4865996"><ele>83.14285714285714</ele><time>2026-04-18T16:05:47.659Z</time></trkpt><trkpt lat="9.7893974" lon="-75.4865353"><ele>82.57142857142857</ele><time>2026-04-18T16:05:48.663Z</time></trkpt><trkpt lat="9.7894292" lon="-75.4864731"><ele>82.0</ele><time>2026-04-18T16:05:49.663Z</time></trkpt><trkpt lat="9.7894644" lon="-75.486412"><ele>81.5</ele><time>2026-04-18T16:05:50.658Z</time></trkpt><trkpt lat="9.7895202" lon="-75.4862975"><ele>81.0</ele><time>2026-04-18T16:05:52.661Z</time></trkpt><trkpt lat="9.7895722" lon="-75.4861834"><ele>80.5</ele><time>2026-04-18T16:05:54.656Z</time></trkpt><trkpt lat="9.7896251" lon="-75.4860701"><ele>80.0</ele><time>2026-04-18T16:05:56.657Z</time></trkpt><trkpt lat="9.7896757" lon="-75.4859526"><ele>81.5</ele><time>2026-04-18T16:05:58.658Z</time></trkpt><trkpt lat="9.7897296" lon="-75.4858444"><ele>83.0</ele><time>2026-04-18T16:06:00.662Z</time></trkpt><trkpt lat="9.7897831" lon="-75.4857312"><ele>84.5</ele><time>2026-04-18T16:06:02.658Z</time></trkpt><trkpt lat="9.7898345" lon="-75.485624"><ele>86.0</ele><time>2026-04-18T16:06:04.661Z</time></trkpt><trkpt lat="9.789883" lon="-75.4855249"><ele>86.0</ele><time>2026-04-18T16:06:06.659Z</time></trkpt><trkpt lat="9.7899349" lon="-75.4854162"><ele>86.0</ele><time>2026-04-18T16:06:08.658Z</time></trkpt><trkpt lat="9.789985" lon="-75.4853099"><ele>86.0</ele><time>2026-04-18T16:06:10.663Z</time></trkpt><trkpt lat="9.7900415" lon="-75.4852177"><ele>86.0</ele><time>2026-04-18T16:06:12.656Z</time></trkpt><trkpt lat="9.7900967" lon="-75.4851168"><ele>86.0</ele><time>2026-04-18T16:06:14.661Z</time></trkpt><trkpt lat="9.7901494" lon="-75.485021"><ele>86.0</ele><time>2026-04-18T16:06:16.662Z</time></trkpt><trkpt lat="9.790203" lon="-75.4849164"><ele>86.0</ele><time>2026-04-18T16:06:18.669Z</time></trkpt><trkpt lat="9.7902661" lon="-75.4848046"><ele>86.0</ele><time>2026-04-18T16:06:20.656Z</time></trkpt><trkpt lat="9.7903354" lon="-75.4847077"><ele>86.33333333333334</ele><time>2026-04-18T16:06:22.664Z</time></trkpt><trkpt lat="9.7904086" lon="-75.4846065"><ele>86.66666666666667</ele><time>2026-04-18T16:06:24.662Z</time></trkpt><trkpt lat="9.7904513" lon="-75.4845532"><ele>87.0</ele><time>2026-04-18T16:06:25.662Z</time></trkpt><trkpt lat="9.7904953" lon="-75.4845067"><ele>87.33333333333333</ele><time>2026-04-18T16:06:26.658Z</time></trkpt><trkpt lat="9.7905373" lon="-75.4844519"><ele>87.66666666666666</ele><time>2026-04-18T16:06:27.658Z</time></trkpt><trkpt lat="9.7905844" lon="-75.4844052"><ele>88.0</ele><time>2026-04-18T16:06:28.659Z</time></trkpt><trkpt lat="9.7906344" lon="-75.4843575"><ele>88.83333333333333</ele><time>2026-04-18T16:06:29.663Z</time></trkpt><trkpt lat="9.7906869" lon="-75.4843083"><ele>89.66666666666666</ele><time>2026-04-18T16:06:30.66Z</time></trkpt><trkpt lat="9.7907421" lon="-75.4842604"><ele>90.5</ele><time>2026-04-18T16:06:31.659Z</time></trkpt><trkpt lat="9.7907994" lon="-75.4842097"><ele>91.33333333333333</ele><time>2026-04-18T16:06:32.66Z</time></trkpt><trkpt lat="9.7908551" lon="-75.4841548"><ele>92.16666666666667</ele><time>2026-04-18T16:06:33.661Z</time></trkpt><trkpt lat="9.7909183" lon="-75.4841066"><ele>93.0</ele><time>2026-04-18T16:06:34.659Z</time></trkpt><trkpt lat="9.7909802" lon="-75.4840601"><ele>93.33333333333333</ele><time>2026-04-18T16:06:35.655Z</time></trkpt><trkpt lat="9.7910448" lon="-75.4840089"><ele>93.66666666666667</ele><time>2026-04-18T16:06:36.658Z</time></trkpt><trkpt lat="9.7911097" lon="-75.4839552"><ele>94.0</ele><time>2026-04-18T16:06:37.656Z</time></trkpt><trkpt lat="9.7911763" lon="-75.4839013"><ele>94.33333333333334</ele><time>2026-04-18T16:06:38.661Z</time></trkpt><trkpt lat="9.7912436" lon="-75.4838508"><ele>94.66666666666667</ele><time>2026-04-18T16:06:39.659Z</time></trkpt><trkpt lat="9.7913163" lon="-75.4837969"><ele>95.0</ele><time>2026-04-18T16:06:40.659Z</time></trkpt><trkpt lat="9.7913886" lon="-75.4837332"><ele>93.6</ele><time>2026-04-18T16:06:41.668Z</time></trkpt><trkpt lat="9.7914688" lon="-75.483668"><ele>92.2</ele><time>2026-04-18T16:06:42.661Z</time></trkpt><trkpt lat="9.7915493" lon="-75.4836011"><ele>90.80000000000001</ele><time>2026-04-18T16:06:43.66Z</time></trkpt><trkpt lat="9.7916318" lon="-75.4835344"><ele>89.4</ele><time>2026-04-18T16:06:44.659Z</time></trkpt><trkpt lat="9.7917161" lon="-75.4834647"><ele>88.0</ele><time>2026-04-18T16:06:45.66Z</time></trkpt><trkpt lat="9.7917999" lon="-75.4833924"><ele>88.80000000000001</ele><time>2026-04-18T16:06:46.66Z</time></trkpt><trkpt lat="9.7918871" lon="-75.4833227"><ele>89.6</ele><time>2026-04-18T16:06:47.663Z</time></trkpt><trkpt lat="9.791971" lon="-75.483253"><ele>90.4</ele><time>2026-04-18T16:06:48.664Z</time></trkpt><trkpt lat="9.7920587" lon="-75.4831809"><ele>91.19999999999999</ele><time>2026-04-18T16:06:49.657Z</time></trkpt><trkpt lat="9.7921457" lon="-75.4831144"><ele>92.0</ele><time>2026-04-18T16:06:50.663Z</time></trkpt><trkpt lat="9.7922385" lon="-75.4830487"><ele>92.0</ele><time>2026-04-18T16:06:51.657Z</time></trkpt><trkpt lat="9.7923218" lon="-75.4829873"><ele>92.0</ele><time>2026-04-18T16:06:52.658Z</time></trkpt><trkpt lat="9.7924031" lon="-75.4829195"><ele>92.0</ele><time>2026-04-18T16:06:53.655Z</time></trkpt><trkpt lat="9.7924842" lon="-75.4828542"><ele>92.0</ele><time>2026-04-18T16:06:54.656Z</time></trkpt><trkpt lat="9.7925656" lon="-75.4827878"><ele>92.0</ele><time>2026-04-18T16:06:55.654Z</time></trkpt><trkpt lat="9.7926457" lon="-75.4827207"><ele>91.8</ele><time>2026-04-18T16:06:56.657Z</time></trkpt><trkpt lat="9.7927242" lon="-75.4826579"><ele>91.6</ele><time>2026-04-18T16:06:57.655Z</time></trkpt><trkpt lat="9.7928021" lon="-75.4825935"><ele>91.39999999999999</ele><time>2026-04-18T16:06:58.655Z</time></trkpt><trkpt lat="9.7928731" lon="-75.4825288"><ele>91.19999999999999</ele><time>2026-04-18T16:06:59.657Z</time></trkpt><trkpt lat="9.7929475" lon="-75.4824671"><ele>91.0</ele><time>2026-04-18T16:07:00.659Z</time></trkpt><trkpt lat="9.7930209" lon="-75.4824087"><ele>91.0</ele><time>2026-04-18T16:07:01.66Z</time></trkpt><trkpt lat="9.7931022" lon="-75.4823496"><ele>91.0</ele><time>2026-04-18T16:07:02.66Z</time></trkpt><trkpt lat="9.7931782" lon="-75.4822899"><ele>91.0</ele><time>2026-04-18T16:07:03.661Z</time></trkpt><trkpt lat="9.7932543" lon="-75.4822282"><ele>91.0</ele><time>2026-04-18T16:07:04.658Z</time></trkpt><trkpt lat="9.7933322" lon="-75.4821679"><ele>91.0</ele><time>2026-04-18T16:07:05.661Z</time></trkpt><trkpt lat="9.7934106" lon="-75.482105"><ele>91.0</ele><time>2026-04-18T16:07:06.656Z</time></trkpt><trkpt lat="9.7934876" lon="-75.4820411"><ele>91.0</ele><time>2026-04-18T16:07:07.662Z</time></trkpt><trkpt lat="9.7935686" lon="-75.4819756"><ele>91.0</ele><time>2026-04-18T16:07:08.658Z</time></trkpt><trkpt lat="9.7936438" lon="-75.4819118"><ele>91.0</ele><time>2026-04-18T16:07:09.661Z</time></trkpt><trkpt lat="9.7937219" lon="-75.48185"><ele>91.0</ele><time>2026-04-18T16:07:10.656Z</time></trkpt><trkpt lat="9.793798" lon="-75.4817909"><ele>91.0</ele><time>2026-04-18T16:07:11.656Z</time></trkpt><trkpt lat="9.7938777" lon="-75.4817287"><ele>91.0</ele><time>2026-04-18T16:07:12.659Z</time></trkpt><trkpt lat="9.7939514" lon="-75.4816676"><ele>91.0</ele><time>2026-04-18T16:07:13.657Z</time></trkpt><trkpt lat="9.7940299" lon="-75.4816056"><ele>91.0</ele><time>2026-04-18T16:07:14.656Z</time></trkpt><trkpt lat="9.7941064" lon="-75.4815442"><ele>91.0</ele><time>2026-04-18T16:07:15.662Z</time></trkpt><trkpt lat="9.7941837" lon="-75.4814838"><ele>91.0</ele><time>2026-04-18T16:07:16.663Z</time></trkpt><trkpt lat="9.7942582" lon="-75.4814266"><ele>91.0</ele><time>2026-04-18T16:07:17.659Z</time></trkpt><trkpt lat="9.7943371" lon="-75.4813651"><ele>91.0</ele><time>2026-04-18T16:07:18.661Z</time></trkpt><trkpt lat="9.7944128" lon="-75.481303"><ele>91.0</ele><time>2026-04-18T16:07:19.663Z</time></trkpt><trkpt lat="9.7944906" lon="-75.4812399"><ele>91.0</ele><time>2026-04-18T16:07:20.66Z</time></trkpt><trkpt lat="9.7945653" lon="-75.4811798"><ele>90.19999999999999</ele><time>2026-04-18T16:07:21.661Z</time></trkpt><trkpt lat="9.7946367" lon="-75.481126"><ele>89.39999999999999</ele><time>2026-04-18T16:07:22.658Z</time></trkpt><trkpt lat="9.794708" lon="-75.4810678"><ele>88.6</ele><time>2026-04-18T16:07:23.66Z</time></trkpt><trkpt lat="9.7947804" lon="-75.4810124"><ele>87.8</ele><time>2026-04-18T16:07:24.659Z</time></trkpt><trkpt lat="9.7948545" lon="-75.4809558"><ele>87.0</ele><time>2026-04-18T16:07:25.659Z</time></trkpt><trkpt lat="9.7949249" lon="-75.4808952"><ele>87.0</ele><time>2026-04-18T16:07:26.656Z</time></trkpt><trkpt lat="9.794996" lon="-75.4808377"><ele>87.0</ele><time>2026-04-18T16:07:27.654Z</time></trkpt><trkpt lat="9.7950682" lon="-75.480776"><ele>87.0</ele><time>2026-04-18T16:07:28.659Z</time></trkpt><trkpt lat="9.7951418" lon="-75.4807197"><ele>87.0</ele><time>2026-04-18T16:07:29.656Z</time></trkpt><trkpt lat="9.7952127" lon="-75.4806621"><ele>87.0</ele><time>2026-04-18T16:07:30.656Z</time></trkpt><trkpt lat="9.7952839" lon="-75.4806047"><ele>87.66666666666667</ele><time>2026-04-18T16:07:31.655Z</time></trkpt><trkpt lat="9.795354" lon="-75.4805458"><ele>88.33333333333333</ele><time>2026-04-18T16:07:32.655Z</time></trkpt><trkpt lat="9.7954217" lon="-75.4804863"><ele>89.0</ele><time>2026-04-18T16:07:33.661Z</time></trkpt><trkpt lat="9.7954946" lon="-75.4804315"><ele>89.66666666666666</ele><time>2026-04-18T16:07:34.659Z</time></trkpt><trkpt lat="9.7955599" lon="-75.4803739"><ele>90.33333333333333</ele><time>2026-04-18T16:07:35.658Z</time></trkpt><trkpt lat="9.7956266" lon="-75.4803187"><ele>91.0</ele><time>2026-04-18T16:07:36.658Z</time></trkpt><trkpt lat="9.7956915" lon="-75.4802658"><ele>91.4</ele><time>2026-04-18T16:07:37.656Z</time></trkpt><trkpt lat="9.7957617" lon="-75.4802077"><ele>91.8</ele><time>2026-04-18T16:07:38.659Z</time></trkpt><trkpt lat="9.7958309" lon="-75.4801506"><ele>92.2</ele><time>2026-04-18T16:07:39.657Z</time></trkpt><trkpt lat="9.7959022" lon="-75.4800892"><ele>92.60000000000001</ele><time>2026-04-18T16:07:40.659Z</time></trkpt><trkpt lat="9.7959735" lon="-75.4800331"><ele>93.0</ele><time>2026-04-18T16:07:41.659Z</time></trkpt><trkpt lat="9.7960488" lon="-75.4799743"><ele>92.2</ele><time>2026-04-18T16:07:42.656Z</time></trkpt><trkpt lat="9.7961203" lon="-75.4799148"><ele>91.4</ele><time>2026-04-18T16:07:43.66Z</time></trkpt><trkpt lat="9.7961932" lon="-75.4798575"><ele>90.60000000000001</ele><time>2026-04-18T16:07:44.657Z</time></trkpt><trkpt lat="9.7962649" lon="-75.4797992"><ele>89.80000000000001</ele><time>2026-04-18T16:07:45.654Z</time></trkpt><trkpt lat="9.796335" lon="-75.4797389"><ele>89.0</ele><time>2026-04-18T16:07:46.66Z</time></trkpt><trkpt lat="9.7964092" lon="-75.4796814"><ele>89.0</ele><time>2026-04-18T16:07:47.657Z</time></trkpt><trkpt lat="9.7964796" lon="-75.4796204"><ele>89.0</ele><time>2026-04-18T16:07:48.655Z</time></trkpt><trkpt lat="9.7965484" lon="-75.479563"><ele>89.0</ele><time>2026-04-18T16:07:49.658Z</time></trkpt><trkpt lat="9.7966198" lon="-75.4795059"><ele>89.0</ele><time>2026-04-18T16:07:50.656Z</time></trkpt><trkpt lat="9.7966886" lon="-75.4794463"><ele>89.0</ele><time>2026-04-18T16:07:51.656Z</time></trkpt><trkpt lat="9.796757" lon="-75.4793892"><ele>88.83333333333334</ele><time>2026-04-18T16:07:52.659Z</time></trkpt><trkpt lat="9.7968295" lon="-75.4793366"><ele>88.66666666666667</ele><time>2026-04-18T16:07:53.659Z</time></trkpt><trkpt lat="9.7968996" lon="-75.4792839"><ele>88.5</ele><time>2026-04-18T16:07:54.657Z</time></trkpt><trkpt lat="9.7969693" lon="-75.4792305"><ele>88.33333333333333</ele><time>2026-04-18T16:07:55.654Z</time></trkpt><trkpt lat="9.797038" lon="-75.4791769"><ele>88.16666666666666</ele><time>2026-04-18T16:07:56.66Z</time></trkpt><trkpt lat="9.7971058" lon="-75.479125"><ele>88.0</ele><time>2026-04-18T16:07:57.657Z</time></trkpt><trkpt lat="9.7971732" lon="-75.4790733"><ele>88.0</ele><time>2026-04-18T16:07:58.663Z</time></trkpt><trkpt lat="9.7972404" lon="-75.4790203"><ele>88.0</ele><time>2026-04-18T16:07:59.659Z</time></trkpt><trkpt lat="9.7973052" lon="-75.4789625"><ele>88.0</ele><time>2026-04-18T16:08:00.658Z</time></trkpt><trkpt lat="9.7973672" lon="-75.4789083"><ele>88.0</ele><time>2026-04-18T16:08:01.658Z</time></trkpt><trkpt lat="9.7974323" lon="-75.4788521"><ele>88.0</ele><time>2026-04-18T16:08:02.659Z</time></trkpt><trkpt lat="9.7975001" lon="-75.4787988"><ele>88.0</ele><time>2026-04-18T16:08:03.654Z</time></trkpt><trkpt lat="9.7975655" lon="-75.4787475"><ele>88.5</ele><time>2026-04-18T16:08:04.656Z</time></trkpt><trkpt lat="9.7976259" lon="-75.478696"><ele>89.0</ele><time>2026-04-18T16:08:05.653Z</time></trkpt><trkpt lat="9.79769" lon="-75.4786421"><ele>89.5</ele><time>2026-04-18T16:08:06.655Z</time></trkpt><trkpt lat="9.7977526" lon="-75.4785927"><ele>90.0</ele><time>2026-04-18T16:08:07.654Z</time></trkpt><trkpt lat="9.7978153" lon="-75.4785423"><ele>90.5</ele><time>2026-04-18T16:08:08.657Z</time></trkpt><trkpt lat="9.7978769" lon="-75.4784916"><ele>91.0</ele><time>2026-04-18T16:08:09.659Z</time></trkpt><trkpt lat="9.7979378" lon="-75.4784375"><ele>91.0</ele><time>2026-04-18T16:08:10.658Z</time></trkpt><trkpt lat="9.7979984" lon="-75.4783911"><ele>91.0</ele><time>2026-04-18T16:08:11.659Z</time></trkpt><trkpt lat="9.7980583" lon="-75.4783476"><ele>91.0</ele><time>2026-04-18T16:08:12.657Z</time></trkpt><trkpt lat="9.7981139" lon="-75.478303"><ele>91.0</ele><time>2026-04-18T16:08:13.66Z</time></trkpt><trkpt lat="9.7981705" lon="-75.4782576"><ele>91.0</ele><time>2026-04-18T16:08:14.656Z</time></trkpt><trkpt lat="9.7982268" lon="-75.4782143"><ele>91.0</ele><time>2026-04-18T16:08:15.658Z</time></trkpt><trkpt lat="9.7982787" lon="-75.4781759"><ele>91.0</ele><time>2026-04-18T16:08:16.656Z</time></trkpt><trkpt lat="9.7983315" lon="-75.4781337"><ele>91.0</ele><time>2026-04-18T16:08:17.657Z</time></trkpt><trkpt lat="9.798383" lon="-75.4780902"><ele>91.0</ele><time>2026-04-18T16:08:18.658Z</time></trkpt><trkpt lat="9.7984361" lon="-75.4780463"><ele>91.0</ele><time>2026-04-18T16:08:19.654Z</time></trkpt><trkpt lat="9.7984849" lon="-75.4779996"><ele>91.0</ele><time>2026-04-18T16:08:20.657Z</time></trkpt><trkpt lat="9.7985354" lon="-75.4779552"><ele>91.0</ele><time>2026-04-18T16:08:21.661Z</time></trkpt><trkpt lat="9.7985866" lon="-75.4779112"><ele>91.0</ele><time>2026-04-18T16:08:22.656Z</time></trkpt><trkpt lat="9.7986393" lon="-75.4778688"><ele>91.0</ele><time>2026-04-18T16:08:23.655Z</time></trkpt><trkpt lat="9.7986937" lon="-75.4778228"><ele>91.28571428571429</ele><time>2026-04-18T16:08:24.657Z</time></trkpt><trkpt lat="9.7987469" lon="-75.4777819"><ele>91.57142857142857</ele><time>2026-04-18T16:08:25.659Z</time></trkpt><trkpt lat="9.7988012" lon="-75.4777387"><ele>91.85714285714286</ele><time>2026-04-18T16:08:26.657Z</time></trkpt><trkpt lat="9.798854" lon="-75.477697"><ele>92.14285714285714</ele><time>2026-04-18T16:08:27.66Z</time></trkpt><trkpt lat="9.7989038" lon="-75.4776541"><ele>92.42857142857143</ele><time>2026-04-18T16:08:28.689Z</time></trkpt><trkpt lat="9.7989593" lon="-75.4776087"><ele>92.71428571428572</ele><time>2026-04-18T16:08:29.656Z</time></trkpt><trkpt lat="9.7990142" lon="-75.4775668"><ele>93.0</ele><time>2026-04-18T16:08:30.659Z</time></trkpt><trkpt lat="9.7990695" lon="-75.4775243"><ele>93.00000000000001</ele><time>2026-04-18T16:08:31.665Z</time></trkpt><trkpt lat="9.7991213" lon="-75.4774782"><ele>93.0</ele><time>2026-04-18T16:08:32.661Z</time></trkpt><trkpt lat="9.7991774" lon="-75.4774354"><ele>93.0</ele><time>2026-04-18T16:08:33.66Z</time></trkpt><trkpt lat="9.7992346" lon="-75.4773898"><ele>93.0</ele><time>2026-04-18T16:08:34.659Z</time></trkpt><trkpt lat="9.7992955" lon="-75.4773474"><ele>93.0</ele><time>2026-04-18T16:08:35.66Z</time></trkpt><trkpt lat="9.7993521" lon="-75.477303"><ele>93.00000000000001</ele><time>2026-04-18T16:08:36.659Z</time></trkpt><trkpt lat="9.7994124" lon="-75.4772581"><ele>93.0</ele><time>2026-04-18T16:08:37.658Z</time></trkpt><trkpt lat="9.7994694" lon="-75.4772103"><ele>92.83333333333333</ele><time>2026-04-18T16:08:38.662Z</time></trkpt><trkpt lat="9.799535" lon="-75.4771607"><ele>92.66666666666667</ele><time>2026-04-18T16:08:39.658Z</time></trkpt><trkpt lat="9.7995877" lon="-75.4771098"><ele>92.5</ele><time>2026-04-18T16:08:40.656Z</time></trkpt><trkpt lat="9.7996575" lon="-75.4770591"><ele>92.33333333333334</ele><time>2026-04-18T16:08:41.656Z</time></trkpt><trkpt lat="9.799721" lon="-75.4770118"><ele>92.16666666666667</ele><time>2026-04-18T16:08:42.663Z</time></trkpt><trkpt lat="9.7997851" lon="-75.4769612"><ele>92.0</ele><time>2026-04-18T16:08:43.656Z</time></trkpt><trkpt lat="9.7998459" lon="-75.4769084"><ele>92.0</ele><time>2026-04-18T16:08:44.665Z</time></trkpt><trkpt lat="9.7999117" lon="-75.4768549"><ele>92.0</ele><time>2026-04-18T16:08:45.664Z</time></trkpt><trkpt lat="9.7999792" lon="-75.4767997"><ele>92.0</ele><time>2026-04-18T16:08:46.668Z</time></trkpt><trkpt lat="9.8000458" lon="-75.4767457"><ele>92.0</ele><time>2026-04-18T16:08:47.67Z</time></trkpt><trkpt lat="9.8001153" lon="-75.4766925"><ele>92.0</ele><time>2026-04-18T16:08:48.66Z</time></trkpt><trkpt lat="9.8001841" lon="-75.4766392"><ele>92.0</ele><time>2026-04-18T16:08:49.659Z</time></trkpt><trkpt lat="9.800253" lon="-75.4765835"><ele>91.83333333333334</ele><time>2026-04-18T16:08:50.66Z</time></trkpt><trkpt lat="9.8003217" lon="-75.4765302"><ele>91.66666666666667</ele><time>2026-04-18T16:08:51.663Z</time></trkpt><trkpt lat="9.80039" lon="-75.4764748"><ele>91.5</ele><time>2026-04-18T16:08:52.662Z</time></trkpt><trkpt lat="9.8004607" lon="-75.4764219"><ele>91.33333333333333</ele><time>2026-04-18T16:08:53.659Z</time></trkpt><trkpt lat="9.80053" lon="-75.4763699"><ele>91.16666666666666</ele><time>2026-04-18T16:08:54.662Z</time></trkpt><trkpt lat="9.8005959" lon="-75.4763167"><ele>91.0</ele><time>2026-04-18T16:08:55.661Z</time></trkpt><trkpt lat="9.8006659" lon="-75.4762639"><ele>90.83333333333333</ele><time>2026-04-18T16:08:56.659Z</time></trkpt><trkpt lat="9.8007348" lon="-75.4762131"><ele>90.66666666666666</ele><time>2026-04-18T16:08:57.662Z</time></trkpt><trkpt lat="9.8008033" lon="-75.4761607"><ele>90.5</ele><time>2026-04-18T16:08:58.659Z</time></trkpt><trkpt lat="9.8008682" lon="-75.4761066"><ele>90.33333333333333</ele><time>2026-04-18T16:08:59.663Z</time></trkpt><trkpt lat="9.8009327" lon="-75.4760519"><ele>90.16666666666667</ele><time>2026-04-18T16:09:00.661Z</time></trkpt><trkpt lat="9.8010013" lon="-75.4760019"><ele>90.0</ele><time>2026-04-18T16:09:01.659Z</time></trkpt><trkpt lat="9.801069" lon="-75.4759474"><ele>90.0</ele><time>2026-04-18T16:09:02.661Z</time></trkpt><trkpt lat="9.8011373" lon="-75.4758911"><ele>90.0</ele><time>2026-04-18T16:09:03.657Z</time></trkpt><trkpt lat="9.801208" lon="-75.4758411"><ele>90.0</ele><time>2026-04-18T16:09:04.661Z</time></trkpt><trkpt lat="9.8012804" lon="-75.4757886"><ele>90.0</ele><time>2026-04-18T16:09:05.66Z</time></trkpt><trkpt lat="9.8013476" lon="-75.475735"><ele>90.0</ele><time>2026-04-18T16:09:06.659Z</time></trkpt><trkpt lat="9.8014177" lon="-75.4756826"><ele>90.0</ele><time>2026-04-18T16:09:07.664Z</time></trkpt><trkpt lat="9.8014883" lon="-75.4756283"><ele>90.0</ele><time>2026-04-18T16:09:08.664Z</time></trkpt><trkpt lat="9.8015597" lon="-75.4755777"><ele>90.0</ele><time>2026-04-18T16:09:09.664Z</time></trkpt><trkpt lat="9.8016287" lon="-75.475523"><ele>90.0</ele><time>2026-04-18T16:09:10.657Z</time></trkpt><trkpt lat="9.8017033" lon="-75.4754715"><ele>90.0</ele><time>2026-04-18T16:09:11.665Z</time></trkpt><trkpt lat="9.8017743" lon="-75.4754211"><ele>90.0</ele><time>2026-04-18T16:09:12.667Z</time></trkpt><trkpt lat="9.8018496" lon="-75.4753754"><ele>90.0</ele><time>2026-04-18T16:09:13.659Z</time></trkpt><trkpt lat="9.8019309" lon="-75.4753398"><ele>89.4</ele><time>2026-04-18T16:09:14.663Z</time></trkpt><trkpt lat="9.8020083" lon="-75.4752952"><ele>88.8</ele><time>2026-04-18T16:09:15.662Z</time></trkpt><trkpt lat="9.8020898" lon="-75.4752565"><ele>88.19999999999999</ele><time>2026-04-18T16:09:16.665Z</time></trkpt><trkpt lat="9.8021721" lon="-75.4752184"><ele>87.6</ele><time>2026-04-18T16:09:17.66Z</time></trkpt><trkpt lat="9.8022553" lon="-75.4751786"><ele>87.0</ele><time>2026-04-18T16:09:18.661Z</time></trkpt><trkpt lat="9.8023471" lon="-75.475141"><ele>87.0</ele><time>2026-04-18T16:09:19.659Z</time></trkpt><trkpt lat="9.8024381" lon="-75.4751017"><ele>87.0</ele><time>2026-04-18T16:09:20.664Z</time></trkpt><trkpt lat="9.8025302" lon="-75.4750659"><ele>87.0</ele><time>2026-04-18T16:09:21.658Z</time></trkpt><trkpt lat="9.8026217" lon="-75.4750298"><ele>87.0</ele><time>2026-04-18T16:09:22.657Z</time></trkpt><trkpt lat="9.8027151" lon="-75.474997"><ele>87.0</ele><time>2026-04-18T16:09:23.659Z</time></trkpt><trkpt lat="9.8028139" lon="-75.4749656"><ele>87.0</ele><time>2026-04-18T16:09:24.66Z</time></trkpt><trkpt lat="9.8029101" lon="-75.4749264"><ele>87.0</ele><time>2026-04-18T16:09:25.66Z</time></trkpt><trkpt lat="9.8030069" lon="-75.4748896"><ele>87.0</ele><time>2026-04-18T16:09:26.661Z</time></trkpt><trkpt lat="9.8031076" lon="-75.474853"><ele>87.0</ele><time>2026-04-18T16:09:27.663Z</time></trkpt><trkpt lat="9.8032064" lon="-75.474814"><ele>87.0</ele><time>2026-04-18T16:09:28.666Z</time></trkpt><trkpt lat="9.803313" lon="-75.474775"><ele>87.0</ele><time>2026-04-18T16:09:29.657Z</time></trkpt><trkpt lat="9.8034232" lon="-75.4747375"><ele>87.0</ele><time>2026-04-18T16:09:30.665Z</time></trkpt><trkpt lat="9.8035315" lon="-75.4746931"><ele>87.0</ele><time>2026-04-18T16:09:31.656Z</time></trkpt><trkpt lat="9.8036419" lon="-75.4746528"><ele>87.0</ele><time>2026-04-18T16:09:32.656Z</time></trkpt><trkpt lat="9.8037549" lon="-75.4746088"><ele>85.75</ele><time>2026-04-18T16:09:33.67Z</time></trkpt><trkpt lat="9.8038672" lon="-75.4745692"><ele>84.5</ele><time>2026-04-18T16:09:34.661Z</time></trkpt><trkpt lat="9.8039803" lon="-75.4745265"><ele>83.25</ele><time>2026-04-18T16:09:35.654Z</time></trkpt><trkpt lat="9.8040921" lon="-75.4744821"><ele>82.0</ele><time>2026-04-18T16:09:36.658Z</time></trkpt><trkpt lat="9.8042097" lon="-75.474435"><ele>82.0</ele><time>2026-04-18T16:09:37.66Z</time></trkpt><trkpt lat="9.8043183" lon="-75.4743892"><ele>82.0</ele><time>2026-04-18T16:09:38.671Z</time></trkpt><trkpt lat="9.8044257" lon="-75.4743494"><ele>82.0</ele><time>2026-04-18T16:09:39.661Z</time></trkpt><trkpt lat="9.8045372" lon="-75.474308"><ele>82.0</ele><time>2026-04-18T16:09:40.653Z</time></trkpt><trkpt lat="9.8046454" lon="-75.4742632"><ele>81.8</ele><time>2026-04-18T16:09:41.657Z</time></trkpt><trkpt lat="9.804745" lon="-75.4742209"><ele>81.6</ele><time>2026-04-18T16:09:42.661Z</time></trkpt><trkpt lat="9.8048433" lon="-75.4741827"><ele>81.39999999999999</ele><time>2026-04-18T16:09:43.658Z</time></trkpt><trkpt lat="9.8049426" lon="-75.4741492"><ele>81.19999999999999</ele><time>2026-04-18T16:09:44.658Z</time></trkpt><trkpt lat="9.8050419" lon="-75.4741122"><ele>81.0</ele><time>2026-04-18T16:09:45.656Z</time></trkpt><trkpt lat="9.8051423" lon="-75.4740781"><ele>81.4</ele><time>2026-04-18T16:09:46.663Z</time></trkpt><trkpt lat="9.805234" lon="-75.4740451"><ele>81.8</ele><time>2026-04-18T16:09:47.656Z</time></trkpt><trkpt lat="9.8053261" lon="-75.4740144"><ele>82.2</ele><time>2026-04-18T16:09:48.658Z</time></trkpt><trkpt lat="9.8054201" lon="-75.4739869"><ele>82.60000000000001</ele><time>2026-04-18T16:09:49.661Z</time></trkpt><trkpt lat="9.8055133" lon="-75.473967"><ele>83.0</ele><time>2026-04-18T16:09:50.661Z</time></trkpt><trkpt lat="9.8056029" lon="-75.4739471"><ele>83.0</ele><time>2026-04-18T16:09:51.658Z</time></trkpt><trkpt lat="9.8056972" lon="-75.473938"><ele>83.0</ele><time>2026-04-18T16:09:52.663Z</time></trkpt><trkpt lat="9.8057869" lon="-75.4739285"><ele>83.0</ele><time>2026-04-18T16:09:53.659Z</time></trkpt><trkpt lat="9.8058774" lon="-75.4739211"><ele>83.0</ele><time>2026-04-18T16:09:54.658Z</time></trkpt><trkpt lat="9.805964" lon="-75.4739159"><ele>83.0</ele><time>2026-04-18T16:09:55.654Z</time></trkpt><trkpt lat="9.8060552" lon="-75.4739136"><ele>83.16666666666667</ele><time>2026-04-18T16:09:56.657Z</time></trkpt><trkpt lat="9.8061384" lon="-75.4739139"><ele>83.33333333333334</ele><time>2026-04-18T16:09:57.658Z</time></trkpt><trkpt lat="9.8062193" lon="-75.4739204"><ele>83.5</ele><time>2026-04-18T16:09:58.658Z</time></trkpt><trkpt lat="9.8062991" lon="-75.4739292"><ele>83.66666666666667</ele><time>2026-04-18T16:09:59.658Z</time></trkpt><trkpt lat="9.8063806" lon="-75.4739455"><ele>83.83333333333333</ele><time>2026-04-18T16:10:00.66Z</time></trkpt><trkpt lat="9.8064607" lon="-75.4739619"><ele>84.0</ele><time>2026-04-18T16:10:01.661Z</time></trkpt><trkpt lat="9.8065424" lon="-75.4739864"><ele>84.0</ele><time>2026-04-18T16:10:02.661Z</time></trkpt><trkpt lat="9.8066239" lon="-75.4740043"><ele>84.0</ele><time>2026-04-18T16:10:03.659Z</time></trkpt><trkpt lat="9.8067041" lon="-75.474032"><ele>84.0</ele><time>2026-04-18T16:10:04.663Z</time></trkpt><trkpt lat="9.8067848" lon="-75.4740609"><ele>84.0</ele><time>2026-04-18T16:10:05.661Z</time></trkpt><trkpt lat="9.8068636" lon="-75.4740911"><ele>84.0</ele><time>2026-04-18T16:10:06.663Z</time></trkpt><trkpt lat="9.8069441" lon="-75.474124"><ele>84.0</ele><time>2026-04-18T16:10:07.664Z</time></trkpt><trkpt lat="9.8070264" lon="-75.4741613"><ele>83.6</ele><time>2026-04-18T16:10:08.662Z</time></trkpt><trkpt lat="9.8071068" lon="-75.4742018"><ele>83.2</ele><time>2026-04-18T16:10:09.659Z</time></trkpt><trkpt lat="9.8071927" lon="-75.4742404"><ele>82.8</ele><time>2026-04-18T16:10:10.661Z</time></trkpt><trkpt lat="9.8072806" lon="-75.4742802"><ele>82.39999999999999</ele><time>2026-04-18T16:10:11.658Z</time></trkpt><trkpt lat="9.8073694" lon="-75.474321"><ele>82.0</ele><time>2026-04-18T16:10:12.657Z</time></trkpt><trkpt lat="9.8074609" lon="-75.4743588"><ele>82.0</ele><time>2026-04-18T16:10:13.662Z</time></trkpt><trkpt lat="9.8075518" lon="-75.4744011"><ele>82.0</ele><time>2026-04-18T16:10:14.661Z</time></trkpt><trkpt lat="9.8076394" lon="-75.4744444"><ele>82.0</ele><time>2026-04-18T16:10:15.658Z</time></trkpt><trkpt lat="9.8077293" lon="-75.4744924"><ele>82.0</ele><time>2026-04-18T16:10:16.659Z</time></trkpt><trkpt lat="9.8078215" lon="-75.4745398"><ele>82.0</ele><time>2026-04-18T16:10:17.659Z</time></trkpt><trkpt lat="9.8079156" lon="-75.474581"><ele>81.19999999999999</ele><time>2026-04-18T16:10:18.659Z</time></trkpt><trkpt lat="9.8080066" lon="-75.4746212"><ele>80.39999999999999</ele><time>2026-04-18T16:10:19.659Z</time></trkpt><trkpt lat="9.8080986" lon="-75.4746656"><ele>79.6</ele><time>2026-04-18T16:10:20.656Z</time></trkpt><trkpt lat="9.8081932" lon="-75.4747094"><ele>78.8</ele><time>2026-04-18T16:10:21.659Z</time></trkpt><trkpt lat="9.8082918" lon="-75.4747568"><ele>78.0</ele><time>2026-04-18T16:10:22.661Z</time></trkpt><trkpt lat="9.8083881" lon="-75.4748012"><ele>78.0</ele><time>2026-04-18T16:10:23.662Z</time></trkpt><trkpt lat="9.8084795" lon="-75.4748493"><ele>78.0</ele><time>2026-04-18T16:10:24.66Z</time></trkpt><trkpt lat="9.8085716" lon="-75.4748913"><ele>78.0</ele><time>2026-04-18T16:10:25.656Z</time></trkpt><trkpt lat="9.808663" lon="-75.4749309"><ele>78.0</ele><time>2026-04-18T16:10:26.657Z</time></trkpt><trkpt lat="9.8087512" lon="-75.4749732"><ele>78.0</ele><time>2026-04-18T16:10:27.657Z</time></trkpt><trkpt lat="9.8088416" lon="-75.4750053"><ele>78.2</ele><time>2026-04-18T16:10:28.655Z</time></trkpt><trkpt lat="9.8089298" lon="-75.4750377"><ele>78.4</ele><time>2026-04-18T16:10:29.656Z</time></trkpt><trkpt lat="9.8090241" lon="-75.4750679"><ele>78.60000000000001</ele><time>2026-04-18T16:10:30.654Z</time></trkpt><trkpt lat="9.8091212" lon="-75.4750926"><ele>78.8</ele><time>2026-04-18T16:10:31.657Z</time></trkpt><trkpt lat="9.8092155" lon="-75.4751136"><ele>79.0</ele><time>2026-04-18T16:10:32.662Z</time></trkpt><trkpt lat="9.8093083" lon="-75.4751329"><ele>80.0</ele><time>2026-04-18T16:10:33.659Z</time></trkpt><trkpt lat="9.8094017" lon="-75.4751432"><ele>81.0</ele><time>2026-04-18T16:10:34.661Z</time></trkpt><trkpt lat="9.8094947" lon="-75.4751535"><ele>82.0</ele><time>2026-04-18T16:10:35.657Z</time></trkpt><trkpt lat="9.8095842" lon="-75.4751609"><ele>83.0</ele><time>2026-04-18T16:10:36.66Z</time></trkpt><trkpt lat="9.8096761" lon="-75.475163"><ele>84.0</ele><time>2026-04-18T16:10:37.66Z</time></trkpt><trkpt lat="9.8097705" lon="-75.4751646"><ele>84.0</ele><time>2026-04-18T16:10:38.654Z</time></trkpt><trkpt lat="9.8098614" lon="-75.4751558"><ele>84.0</ele><time>2026-04-18T16:10:39.663Z</time></trkpt><trkpt lat="9.8099506" lon="-75.4751408"><ele>84.0</ele><time>2026-04-18T16:10:40.661Z</time></trkpt><trkpt lat="9.8100434" lon="-75.4751243"><ele>84.0</ele><time>2026-04-18T16:10:41.657Z</time></trkpt><trkpt lat="9.8101267" lon="-75.4751042"><ele>84.0</ele><time>2026-04-18T16:10:42.659Z</time></trkpt><trkpt lat="9.8102149" lon="-75.4750807"><ele>84.33333333333333</ele><time>2026-04-18T16:10:43.657Z</time></trkpt><trkpt lat="9.8102983" lon="-75.4750547"><ele>84.66666666666667</ele><time>2026-04-18T16:10:44.66Z</time></trkpt><trkpt lat="9.8103762" lon="-75.4750265"><ele>85.0</ele><time>2026-04-18T16:10:45.661Z</time></trkpt><trkpt lat="9.8104556" lon="-75.4749979"><ele>85.33333333333334</ele><time>2026-04-18T16:10:46.657Z</time></trkpt><trkpt lat="9.810533" lon="-75.4749683"><ele>85.66666666666667</ele><time>2026-04-18T16:10:47.653Z</time></trkpt><trkpt lat="9.810608" lon="-75.4749289"><ele>86.0</ele><time>2026-04-18T16:10:48.657Z</time></trkpt><trkpt lat="9.8106806" lon="-75.4748945"><ele>86.0</ele><time>2026-04-18T16:10:49.657Z</time></trkpt><trkpt lat="9.8107516" lon="-75.4748637"><ele>86.0</ele><time>2026-04-18T16:10:50.656Z</time></trkpt><trkpt lat="9.8108245" lon="-75.4748326"><ele>86.0</ele><time>2026-04-18T16:10:51.657Z</time></trkpt><trkpt lat="9.810894" lon="-75.4747965"><ele>86.0</ele><time>2026-04-18T16:10:52.657Z</time></trkpt><trkpt lat="9.8109653" lon="-75.4747594"><ele>86.0</ele><time>2026-04-18T16:10:53.657Z</time></trkpt><trkpt lat="9.8110433" lon="-75.4747181"><ele>86.0</ele><time>2026-04-18T16:10:54.658Z</time></trkpt><trkpt lat="9.8111224" lon="-75.4746857"><ele>85.83333333333334</ele><time>2026-04-18T16:10:55.659Z</time></trkpt><trkpt lat="9.8112005" lon="-75.4746471"><ele>85.66666666666667</ele><time>2026-04-18T16:10:56.661Z</time></trkpt><trkpt lat="9.8112727" lon="-75.4746066"><ele>85.5</ele><time>2026-04-18T16:10:57.661Z</time></trkpt><trkpt lat="9.811348" lon="-75.4745739"><ele>85.33333333333333</ele><time>2026-04-18T16:10:58.662Z</time></trkpt><trkpt lat="9.8114235" lon="-75.4745418"><ele>85.16666666666666</ele><time>2026-04-18T16:10:59.663Z</time></trkpt><trkpt lat="9.8115055" lon="-75.4745007"><ele>85.0</ele><time>2026-04-18T16:11:00.66Z</time></trkpt><trkpt lat="9.8115853" lon="-75.4744639"><ele>84.83333333333333</ele><time>2026-04-18T16:11:01.656Z</time></trkpt><trkpt lat="9.8116595" lon="-75.4744262"><ele>84.66666666666666</ele><time>2026-04-18T16:11:02.658Z</time></trkpt><trkpt lat="9.8117347" lon="-75.4743912"><ele>84.5</ele><time>2026-04-18T16:11:03.659Z</time></trkpt><trkpt lat="9.8118085" lon="-75.4743555"><ele>84.33333333333333</ele><time>2026-04-18T16:11:04.659Z</time></trkpt><trkpt lat="9.8118867" lon="-75.4743187"><ele>84.16666666666667</ele><time>2026-04-18T16:11:05.66Z</time></trkpt><trkpt lat="9.8119634" lon="-75.4742824"><ele>84.0</ele><time>2026-04-18T16:11:06.657Z</time></trkpt><trkpt lat="9.8120401" lon="-75.4742439"><ele>84.66666666666667</ele><time>2026-04-18T16:11:07.661Z</time></trkpt><trkpt lat="9.8121232" lon="-75.4742043"><ele>85.33333333333333</ele><time>2026-04-18T16:11:08.662Z</time></trkpt><trkpt lat="9.8121949" lon="-75.4741641"><ele>86.0</ele><time>2026-04-18T16:11:09.663Z</time></trkpt><trkpt lat="9.8122673" lon="-75.4741243"><ele>86.66666666666666</ele><time>2026-04-18T16:11:10.658Z</time></trkpt><trkpt lat="9.8123475" lon="-75.4740859"><ele>87.33333333333333</ele><time>2026-04-18T16:11:11.656Z</time></trkpt><trkpt lat="9.8124245" lon="-75.4740539"><ele>88.0</ele><time>2026-04-18T16:11:12.663Z</time></trkpt><trkpt lat="9.8124979" lon="-75.4740207"><ele>88.0</ele><time>2026-04-18T16:11:13.666Z</time></trkpt><trkpt lat="9.8125745" lon="-75.4739827"><ele>88.0</ele><time>2026-04-18T16:11:14.662Z</time></trkpt><trkpt lat="9.8126498" lon="-75.4739483"><ele>88.0</ele><time>2026-04-18T16:11:15.656Z</time></trkpt><trkpt lat="9.8127246" lon="-75.4739148"><ele>88.0</ele><time>2026-04-18T16:11:16.657Z</time></trkpt><trkpt lat="9.8127968" lon="-75.47388"><ele>88.0</ele><time>2026-04-18T16:11:17.658Z</time></trkpt><trkpt lat="9.8128663" lon="-75.473846"><ele>88.0</ele><time>2026-04-18T16:11:18.66Z</time></trkpt><trkpt lat="9.8129347" lon="-75.4738144"><ele>87.42857142857143</ele><time>2026-04-18T16:11:19.66Z</time></trkpt><trkpt lat="9.8130067" lon="-75.4737784"><ele>86.85714285714286</ele><time>2026-04-18T16:11:20.657Z</time></trkpt><trkpt lat="9.813076" lon="-75.4737525"><ele>86.28571428571428</ele><time>2026-04-18T16:11:21.658Z</time></trkpt><trkpt lat="9.8131411" lon="-75.47372"><ele>85.71428571428572</ele><time>2026-04-18T16:11:22.654Z</time></trkpt><trkpt lat="9.8132069" lon="-75.4736896"><ele>85.14285714285714</ele><time>2026-04-18T16:11:23.653Z</time></trkpt><trkpt lat="9.8132678" lon="-75.473655"><ele>84.57142857142857</ele><time>2026-04-18T16:11:24.66Z</time></trkpt><trkpt lat="9.8133278" lon="-75.4736222"><ele>84.0</ele><time>2026-04-18T16:11:25.655Z</time></trkpt><trkpt lat="9.8133886" lon="-75.4735907"><ele>85.16666666666667</ele><time>2026-04-18T16:11:26.655Z</time></trkpt><trkpt lat="9.8134495" lon="-75.4735616"><ele>86.33333333333333</ele><time>2026-04-18T16:11:27.658Z</time></trkpt><trkpt lat="9.8135114" lon="-75.4735325"><ele>87.5</ele><time>2026-04-18T16:11:28.657Z</time></trkpt><trkpt lat="9.8136332" lon="-75.4734788"><ele>88.66666666666666</ele><time>2026-04-18T16:11:30.656Z</time></trkpt><trkpt lat="9.8136974" lon="-75.4734546"><ele>89.83333333333333</ele><time>2026-04-18T16:11:31.655Z</time></trkpt><trkpt lat="9.8137578" lon="-75.4734236"><ele>91.0</ele><time>2026-04-18T16:11:32.657Z</time></trkpt><trkpt lat="9.8138161" lon="-75.4733943"><ele>91.0</ele><time>2026-04-18T16:11:33.658Z</time></trkpt><trkpt lat="9.8138748" lon="-75.4733665"><ele>91.0</ele><time>2026-04-18T16:11:34.657Z</time></trkpt><trkpt lat="9.8139362" lon="-75.4733372"><ele>91.0</ele><time>2026-04-18T16:11:35.661Z</time></trkpt><trkpt lat="9.8140514" lon="-75.4732872"><ele>91.0</ele><time>2026-04-18T16:11:37.653Z</time></trkpt><trkpt lat="9.8141617" lon="-75.4732327"><ele>91.0</ele><time>2026-04-18T16:11:39.655Z</time></trkpt><trkpt lat="9.8142223" lon="-75.4732068"><ele>91.0</ele><time>2026-04-18T16:11:40.663Z</time></trkpt><trkpt lat="9.8142831" lon="-75.4731817"><ele>90.5</ele><time>2026-04-18T16:11:41.662Z</time></trkpt><trkpt lat="9.8143939" lon="-75.473124"><ele>90.0</ele><time>2026-04-18T16:11:43.661Z</time></trkpt><trkpt lat="9.8145064" lon="-75.473072"><ele>89.5</ele><time>2026-04-18T16:11:45.663Z</time></trkpt><trkpt lat="9.8145667" lon="-75.4730467"><ele>89.0</ele><time>2026-04-18T16:11:46.658Z</time></trkpt><trkpt lat="9.8146253" lon="-75.4730143"><ele>88.5</ele><time>2026-04-18T16:11:47.657Z</time></trkpt><trkpt lat="9.814686" lon="-75.472983"><ele>88.0</ele><time>2026-04-18T16:11:48.659Z</time></trkpt><trkpt lat="9.8147502" lon="-75.4729538"><ele>88.28571428571429</ele><time>2026-04-18T16:11:49.655Z</time></trkpt><trkpt lat="9.814813" lon="-75.4729239"><ele>88.57142857142857</ele><time>2026-04-18T16:11:50.657Z</time></trkpt><trkpt lat="9.8148797" lon="-75.4728875"><ele>88.85714285714286</ele><time>2026-04-18T16:11:51.654Z</time></trkpt><trkpt lat="9.8149468" lon="-75.4728601"><ele>89.14285714285714</ele><time>2026-04-18T16:11:52.654Z</time></trkpt><trkpt lat="9.8150126" lon="-75.4728288"><ele>89.42857142857143</ele><time>2026-04-18T16:11:53.662Z</time></trkpt><trkpt lat="9.8150785" lon="-75.4727983"><ele>89.71428571428571</ele><time>2026-04-18T16:11:54.664Z</time></trkpt><trkpt lat="9.8151442" lon="-75.472765"><ele>90.0</ele><time>2026-04-18T16:11:55.658Z</time></trkpt><trkpt lat="9.8152111" lon="-75.4727304"><ele>90.16666666666667</ele><time>2026-04-18T16:11:56.661Z</time></trkpt><trkpt lat="9.815278" lon="-75.4727013"><ele>90.33333333333333</ele><time>2026-04-18T16:11:57.66Z</time></trkpt><trkpt lat="9.8153478" lon="-75.4726729"><ele>90.5</ele><time>2026-04-18T16:11:58.662Z</time></trkpt><trkpt lat="9.8154181" lon="-75.4726438"><ele>90.66666666666666</ele><time>2026-04-18T16:11:59.664Z</time></trkpt><trkpt lat="9.8154859" lon="-75.4726098"><ele>90.83333333333333</ele><time>2026-04-18T16:12:00.662Z</time></trkpt><trkpt lat="9.8155556" lon="-75.4725771"><ele>91.0</ele><time>2026-04-18T16:12:01.662Z</time></trkpt><trkpt lat="9.8156312" lon="-75.4725394"><ele>91.0</ele><time>2026-04-18T16:12:02.663Z</time></trkpt><trkpt lat="9.8157013" lon="-75.4725044"><ele>91.0</ele><time>2026-04-18T16:12:03.662Z</time></trkpt><trkpt lat="9.815772" lon="-75.4724665"><ele>91.0</ele><time>2026-04-18T16:12:04.661Z</time></trkpt><trkpt lat="9.8158488" lon="-75.4724275"><ele>91.0</ele><time>2026-04-18T16:12:05.656Z</time></trkpt><trkpt lat="9.8159234" lon="-75.4723926"><ele>91.0</ele><time>2026-04-18T16:12:06.656Z</time></trkpt><trkpt lat="9.8159983" lon="-75.4723574"><ele>91.0</ele><time>2026-04-18T16:12:07.655Z</time></trkpt><trkpt lat="9.8160737" lon="-75.4723235"><ele>91.5</ele><time>2026-04-18T16:12:08.653Z</time></trkpt><trkpt lat="9.8161455" lon="-75.4722929"><ele>92.0</ele><time>2026-04-18T16:12:09.656Z</time></trkpt><trkpt lat="9.8162217" lon="-75.4722552"><ele>92.5</ele><time>2026-04-18T16:12:10.656Z</time></trkpt><trkpt lat="9.8162987" lon="-75.4722144"><ele>93.0</ele><time>2026-04-18T16:12:11.659Z</time></trkpt><trkpt lat="9.8163765" lon="-75.4721757"><ele>93.5</ele><time>2026-04-18T16:12:12.666Z</time></trkpt><trkpt lat="9.8164584" lon="-75.4721385"><ele>94.0</ele><time>2026-04-18T16:12:13.657Z</time></trkpt><trkpt lat="9.8165398" lon="-75.4720979"><ele>93.5</ele><time>2026-04-18T16:12:14.654Z</time></trkpt><trkpt lat="9.816621" lon="-75.4720586"><ele>93.0</ele><time>2026-04-18T16:12:15.655Z</time></trkpt><trkpt lat="9.8167006" lon="-75.472028"><ele>92.5</ele><time>2026-04-18T16:12:16.658Z</time></trkpt><trkpt lat="9.8167844" lon="-75.4719952"><ele>92.0</ele><time>2026-04-18T16:12:17.658Z</time></trkpt><trkpt lat="9.8168712" lon="-75.4719586"><ele>91.5</ele><time>2026-04-18T16:12:18.656Z</time></trkpt><trkpt lat="9.8169525" lon="-75.4719199"><ele>91.0</ele><time>2026-04-18T16:12:19.655Z</time></trkpt><trkpt lat="9.817035" lon="-75.4718804"><ele>91.0</ele><time>2026-04-18T16:12:20.659Z</time></trkpt><trkpt lat="9.817123" lon="-75.4718368"><ele>91.0</ele><time>2026-04-18T16:12:21.66Z</time></trkpt><trkpt lat="9.8172053" lon="-75.4717961"><ele>91.0</ele><time>2026-04-18T16:12:22.654Z</time></trkpt><trkpt lat="9.8172867" lon="-75.4717502"><ele>91.0</ele><time>2026-04-18T16:12:23.668Z</time></trkpt><trkpt lat="9.8173704" lon="-75.4717081"><ele>91.0</ele><time>2026-04-18T16:12:24.66Z</time></trkpt><trkpt lat="9.8174565" lon="-75.4716731"><ele>91.0</ele><time>2026-04-18T16:12:25.662Z</time></trkpt><trkpt lat="9.8175374" lon="-75.4716322"><ele>91.0</ele><time>2026-04-18T16:12:26.66Z</time></trkpt><trkpt lat="9.8176251" lon="-75.4715864"><ele>91.0</ele><time>2026-04-18T16:12:27.659Z</time></trkpt><trkpt lat="9.8177072" lon="-75.471547"><ele>91.0</ele><time>2026-04-18T16:12:28.664Z</time></trkpt><trkpt lat="9.8177971" lon="-75.4715042"><ele>91.0</ele><time>2026-04-18T16:12:29.657Z</time></trkpt><trkpt lat="9.8178821" lon="-75.4714592"><ele>90.8</ele><time>2026-04-18T16:12:30.656Z</time></trkpt><trkpt lat="9.8179674" lon="-75.471419"><ele>90.6</ele><time>2026-04-18T16:12:31.659Z</time></trkpt><trkpt lat="9.8180497" lon="-75.4713816"><ele>90.4</ele><time>2026-04-18T16:12:32.66Z</time></trkpt><trkpt lat="9.8181317" lon="-75.4713416"><ele>90.2</ele><time>2026-04-18T16:12:33.663Z</time></trkpt><trkpt lat="9.8182137" lon="-75.4713029"><ele>90.0</ele><time>2026-04-18T16:12:34.658Z</time></trkpt><trkpt lat="9.8182958" lon="-75.4712643"><ele>90.0</ele><time>2026-04-18T16:12:35.658Z</time></trkpt><trkpt lat="9.8183778" lon="-75.4712221"><ele>90.0</ele><time>2026-04-18T16:12:36.657Z</time></trkpt><trkpt lat="9.8184592" lon="-75.4711835"><ele>90.0</ele><time>2026-04-18T16:12:37.66Z</time></trkpt><trkpt lat="9.8185393" lon="-75.471145"><ele>90.0</ele><time>2026-04-18T16:12:38.658Z</time></trkpt><trkpt lat="9.818623" lon="-75.4711028"><ele>90.0</ele><time>2026-04-18T16:12:39.669Z</time></trkpt><trkpt lat="9.8187034" lon="-75.4710669"><ele>90.0</ele><time>2026-04-18T16:12:40.658Z</time></trkpt><trkpt lat="9.8187826" lon="-75.4710284"><ele>90.0</ele><time>2026-04-18T16:12:41.662Z</time></trkpt><trkpt lat="9.8188602" lon="-75.4709903"><ele>90.0</ele><time>2026-04-18T16:12:42.659Z</time></trkpt><trkpt lat="9.8189381" lon="-75.4709561"><ele>90.0</ele><time>2026-04-18T16:12:43.658Z</time></trkpt><trkpt lat="9.8190116" lon="-75.4709184"><ele>90.0</ele><time>2026-04-18T16:12:44.658Z</time></trkpt><trkpt lat="9.8190859" lon="-75.4708796"><ele>90.0</ele><time>2026-04-18T16:12:45.657Z</time></trkpt><trkpt lat="9.8191606" lon="-75.4708478"><ele>90.0</ele><time>2026-04-18T16:12:46.662Z</time></trkpt><trkpt lat="9.8192298" lon="-75.4708111"><ele>90.0</ele><time>2026-04-18T16:12:47.66Z</time></trkpt><trkpt lat="9.8193012" lon="-75.4707778"><ele>90.0</ele><time>2026-04-18T16:12:48.661Z</time></trkpt><trkpt lat="9.8193653" lon="-75.4707401"><ele>90.0</ele><time>2026-04-18T16:12:49.654Z</time></trkpt><trkpt lat="9.819436" lon="-75.4707063"><ele>90.0</ele><time>2026-04-18T16:12:50.657Z</time></trkpt><trkpt lat="9.8195074" lon="-75.4706698"><ele>90.0</ele><time>2026-04-18T16:12:51.661Z</time></trkpt><trkpt lat="9.8195775" lon="-75.4706403"><ele>90.42857142857143</ele><time>2026-04-18T16:12:52.657Z</time></trkpt><trkpt lat="9.8196487" lon="-75.4706063"><ele>90.85714285714286</ele><time>2026-04-18T16:12:53.659Z</time></trkpt><trkpt lat="9.8197128" lon="-75.4705758"><ele>91.28571428571429</ele><time>2026-04-18T16:12:54.659Z</time></trkpt><trkpt lat="9.8197781" lon="-75.4705438"><ele>91.71428571428572</ele><time>2026-04-18T16:12:55.655Z</time></trkpt><trkpt lat="9.8198387" lon="-75.4705089"><ele>92.14285714285714</ele><time>2026-04-18T16:12:56.656Z</time></trkpt><trkpt lat="9.8199036" lon="-75.470478"><ele>92.57142857142858</ele><time>2026-04-18T16:12:57.655Z</time></trkpt><trkpt lat="9.8199625" lon="-75.4704433"><ele>93.0</ele><time>2026-04-18T16:12:58.658Z</time></trkpt><trkpt lat="9.8200262" lon="-75.4704075"><ele>93.28571428571429</ele><time>2026-04-18T16:12:59.655Z</time></trkpt><trkpt lat="9.8200857" lon="-75.4703656"><ele>93.57142857142857</ele><time>2026-04-18T16:13:00.662Z</time></trkpt><trkpt lat="9.8201396" lon="-75.4703233"><ele>93.85714285714286</ele><time>2026-04-18T16:13:01.66Z</time></trkpt><trkpt lat="9.8202016" lon="-75.4702782"><ele>94.14285714285714</ele><time>2026-04-18T16:13:02.658Z</time></trkpt><trkpt lat="9.8202574" lon="-75.470231"><ele>94.42857142857143</ele><time>2026-04-18T16:13:03.662Z</time></trkpt><trkpt lat="9.8203159" lon="-75.4701832"><ele>94.71428571428572</ele><time>2026-04-18T16:13:04.658Z</time></trkpt><trkpt lat="9.8203727" lon="-75.4701338"><ele>95.0</ele><time>2026-04-18T16:13:05.656Z</time></trkpt><trkpt lat="9.8204247" lon="-75.4700814"><ele>95.0</ele><time>2026-04-18T16:13:06.66Z</time></trkpt><trkpt lat="9.820482" lon="-75.4700281"><ele>95.0</ele><time>2026-04-18T16:13:07.658Z</time></trkpt><trkpt lat="9.8205334" lon="-75.4699673"><ele>95.0</ele><time>2026-04-18T16:13:08.659Z</time></trkpt><trkpt lat="9.820586" lon="-75.4699017"><ele>95.0</ele><time>2026-04-18T16:13:09.659Z</time></trkpt><trkpt lat="9.8206344" lon="-75.4698433"><ele>95.0</ele><time>2026-04-18T16:13:10.66Z</time></trkpt><trkpt lat="9.8206844" lon="-75.4697805"><ele>95.0</ele><time>2026-04-18T16:13:11.658Z</time></trkpt><trkpt lat="9.8207245" lon="-75.4697208"><ele>95.0</ele><time>2026-04-18T16:13:12.66Z</time></trkpt><trkpt lat="9.8207654" lon="-75.4696506"><ele>95.0</ele><time>2026-04-18T16:13:13.659Z</time></trkpt><trkpt lat="9.8208052" lon="-75.4695806"><ele>95.0</ele><time>2026-04-18T16:13:14.657Z</time></trkpt><trkpt lat="9.8208372" lon="-75.4695083"><ele>95.0</ele><time>2026-04-18T16:13:15.661Z</time></trkpt><trkpt lat="9.8208698" lon="-75.4694327"><ele>95.0</ele><time>2026-04-18T16:13:16.662Z</time></trkpt><trkpt lat="9.8209043" lon="-75.4693534"><ele>95.0</ele><time>2026-04-18T16:13:17.659Z</time></trkpt><trkpt lat="9.8209298" lon="-75.469279"><ele>94.66666666666667</ele><time>2026-04-18T16:13:18.657Z</time></trkpt><trkpt lat="9.8209567" lon="-75.4692053"><ele>94.33333333333334</ele><time>2026-04-18T16:13:19.659Z</time></trkpt><trkpt lat="9.8209798" lon="-75.4691288"><ele>94.0</ele><time>2026-04-18T16:13:20.663Z</time></trkpt><trkpt lat="9.8209985" lon="-75.4690488"><ele>93.66666666666667</ele><time>2026-04-18T16:13:21.657Z</time></trkpt><trkpt lat="9.8210151" lon="-75.4689699"><ele>93.33333333333333</ele><time>2026-04-18T16:13:22.661Z</time></trkpt><trkpt lat="9.8210254" lon="-75.4688873"><ele>93.0</ele><time>2026-04-18T16:13:23.659Z</time></trkpt><trkpt lat="9.8210339" lon="-75.4688034"><ele>91.5</ele><time>2026-04-18T16:13:24.662Z</time></trkpt><trkpt lat="9.8210452" lon="-75.4687162"><ele>90.0</ele><time>2026-04-18T16:13:25.66Z</time></trkpt><trkpt lat="9.8210562" lon="-75.4686264"><ele>88.5</ele><time>2026-04-18T16:13:26.659Z</time></trkpt><trkpt lat="9.8210507" lon="-75.4685433"><ele>87.0</ele><time>2026-04-18T16:13:27.661Z</time></trkpt><trkpt lat="9.821049" lon="-75.4684636"><ele>85.5</ele><time>2026-04-18T16:13:28.655Z</time></trkpt><trkpt lat="9.8210444" lon="-75.4683721"><ele>84.0</ele><time>2026-04-18T16:13:29.661Z</time></trkpt><trkpt lat="9.8210321" lon="-75.468282"><ele>84.0</ele><time>2026-04-18T16:13:30.657Z</time></trkpt><trkpt lat="9.8210163" lon="-75.468194"><ele>84.0</ele><time>2026-04-18T16:13:31.658Z</time></trkpt><trkpt lat="9.8210023" lon="-75.4681026"><ele>84.0</ele><time>2026-04-18T16:13:32.657Z</time></trkpt><trkpt lat="9.8209831" lon="-75.4680185"><ele>84.0</ele><time>2026-04-18T16:13:33.657Z</time></trkpt><trkpt lat="9.8209538" lon="-75.46793"><ele>84.0</ele><time>2026-04-18T16:13:34.667Z</time></trkpt><trkpt lat="9.8209251" lon="-75.4678417"><ele>84.0</ele><time>2026-04-18T16:13:35.659Z</time></trkpt><trkpt lat="9.8208851" lon="-75.4677529"><ele>85.2</ele><time>2026-04-18T16:13:36.662Z</time></trkpt><trkpt lat="9.820846" lon="-75.4676624"><ele>86.4</ele><time>2026-04-18T16:13:37.658Z</time></trkpt><trkpt lat="9.8208044" lon="-75.4675733"><ele>87.6</ele><time>2026-04-18T16:13:38.658Z</time></trkpt><trkpt lat="9.8207539" lon="-75.4674867"><ele>88.8</ele><time>2026-04-18T16:13:39.66Z</time></trkpt><trkpt lat="9.8207033" lon="-75.4673983"><ele>90.0</ele><time>2026-04-18T16:13:40.658Z</time></trkpt><trkpt lat="9.8206485" lon="-75.4673168"><ele>90.0</ele><time>2026-04-18T16:13:41.656Z</time></trkpt><trkpt lat="9.8205855" lon="-75.4672364"><ele>90.0</ele><time>2026-04-18T16:13:42.66Z</time></trkpt><trkpt lat="9.8205216" lon="-75.4671611"><ele>90.0</ele><time>2026-04-18T16:13:43.659Z</time></trkpt><trkpt lat="9.8204561" lon="-75.4670893"><ele>90.0</ele><time>2026-04-18T16:13:44.656Z</time></trkpt><trkpt lat="9.8203888" lon="-75.4670192"><ele>90.0</ele><time>2026-04-18T16:13:45.656Z</time></trkpt><trkpt lat="9.8203207" lon="-75.4669584"><ele>90.0</ele><time>2026-04-18T16:13:46.658Z</time></trkpt><trkpt lat="9.8202463" lon="-75.466892"><ele>90.0</ele><time>2026-04-18T16:13:47.656Z</time></trkpt><trkpt lat="9.8201651" lon="-75.4668273"><ele>90.0</ele><time>2026-04-18T16:13:48.654Z</time></trkpt><trkpt lat="9.8200857" lon="-75.4667622"><ele>90.0</ele><time>2026-04-18T16:13:49.657Z</time></trkpt><trkpt lat="9.8200024" lon="-75.4667001"><ele>90.0</ele><time>2026-04-18T16:13:50.654Z</time></trkpt><trkpt lat="9.8199214" lon="-75.4666397"><ele>90.0</ele><time>2026-04-18T16:13:51.662Z</time></trkpt><trkpt lat="9.819843" lon="-75.4665916"><ele>90.0</ele><time>2026-04-18T16:13:52.663Z</time></trkpt><trkpt lat="9.8197595" lon="-75.4665363"><ele>90.0</ele><time>2026-04-18T16:13:53.658Z</time></trkpt><trkpt lat="9.8196694" lon="-75.4664829"><ele>90.0</ele><time>2026-04-18T16:13:54.656Z</time></trkpt><trkpt lat="9.8195811" lon="-75.4664268"><ele>90.0</ele><time>2026-04-18T16:13:55.654Z</time></trkpt><trkpt lat="9.8194997" lon="-75.4663735"><ele>90.0</ele><time>2026-04-18T16:13:56.661Z</time></trkpt><trkpt lat="9.8194173" lon="-75.4663203"><ele>90.0</ele><time>2026-04-18T16:13:57.654Z</time></trkpt><trkpt lat="9.8193325" lon="-75.4662656"><ele>90.0</ele><time>2026-04-18T16:13:58.659Z</time></trkpt><trkpt lat="9.8192444" lon="-75.4662117"><ele>90.0</ele><time>2026-04-18T16:13:59.658Z</time></trkpt><trkpt lat="9.8191598" lon="-75.4661574"><ele>90.0</ele><time>2026-04-18T16:14:00.658Z</time></trkpt><trkpt lat="9.8190756" lon="-75.4660982"><ele>88.2</ele><time>2026-04-18T16:14:01.655Z</time></trkpt><trkpt lat="9.8189908" lon="-75.4660394"><ele>86.4</ele><time>2026-04-18T16:14:02.655Z</time></trkpt><trkpt lat="9.8189118" lon="-75.4659796"><ele>84.6</ele><time>2026-04-18T16:14:03.654Z</time></trkpt><trkpt lat="9.8188341" lon="-75.4659138"><ele>82.8</ele><time>2026-04-18T16:14:04.653Z</time></trkpt><trkpt lat="9.8187571" lon="-75.4658434"><ele>81.0</ele><time>2026-04-18T16:14:05.653Z</time></trkpt><trkpt lat="9.8186883" lon="-75.4657678"><ele>81.0</ele><time>2026-04-18T16:14:06.656Z</time></trkpt><trkpt lat="9.8186265" lon="-75.4656914"><ele>81.0</ele><time>2026-04-18T16:14:07.657Z</time></trkpt><trkpt lat="9.818561" lon="-75.4656109"><ele>81.0</ele><time>2026-04-18T16:14:08.653Z</time></trkpt><trkpt lat="9.8185012" lon="-75.46553"><ele>81.0</ele><time>2026-04-18T16:14:09.658Z</time></trkpt><trkpt lat="9.8184422" lon="-75.4654435"><ele>81.0</ele><time>2026-04-18T16:14:10.655Z</time></trkpt><trkpt lat="9.8183948" lon="-75.4653557"><ele>80.6</ele><time>2026-04-18T16:14:11.659Z</time></trkpt><trkpt lat="9.8183442" lon="-75.465267"><ele>80.19999999999999</ele><time>2026-04-18T16:14:12.657Z</time></trkpt><trkpt lat="9.8183007" lon="-75.4651773"><ele>79.80000000000001</ele><time>2026-04-18T16:14:13.657Z</time></trkpt><trkpt lat="9.8182577" lon="-75.4650919"><ele>79.4</ele><time>2026-04-18T16:14:14.66Z</time></trkpt><trkpt lat="9.8182265" lon="-75.4649965"><ele>79.0</ele><time>2026-04-18T16:14:15.654Z</time></trkpt><trkpt lat="9.8182022" lon="-75.4649006"><ele>79.0</ele><time>2026-04-18T16:14:16.656Z</time></trkpt><trkpt lat="9.8181835" lon="-75.4648043"><ele>79.0</ele><time>2026-04-18T16:14:17.661Z</time></trkpt><trkpt lat="9.8181614" lon="-75.4647064"><ele>79.0</ele><time>2026-04-18T16:14:18.653Z</time></trkpt><trkpt lat="9.8181459" lon="-75.4646081"><ele>79.0</ele><time>2026-04-18T16:14:19.657Z</time></trkpt><trkpt lat="9.8181371" lon="-75.4645095"><ele>79.0</ele><time>2026-04-18T16:14:20.658Z</time></trkpt><trkpt lat="9.8181191" lon="-75.4644145"><ele>79.2</ele><time>2026-04-18T16:14:21.652Z</time></trkpt><trkpt lat="9.8181073" lon="-75.4643232"><ele>79.4</ele><time>2026-04-18T16:14:22.653Z</time></trkpt><trkpt lat="9.8180934" lon="-75.4642292"><ele>79.6</ele><time>2026-04-18T16:14:23.654Z</time></trkpt><trkpt lat="9.8180822" lon="-75.4641385"><ele>79.8</ele><time>2026-04-18T16:14:24.654Z</time></trkpt><trkpt lat="9.8180706" lon="-75.4640481"><ele>80.0</ele><time>2026-04-18T16:14:25.653Z</time></trkpt><trkpt lat="9.8180582" lon="-75.4639576"><ele>80.0</ele><time>2026-04-18T16:14:26.654Z</time></trkpt><trkpt lat="9.8180501" lon="-75.4638689"><ele>80.0</ele><time>2026-04-18T16:14:27.653Z</time></trkpt><trkpt lat="9.8180381" lon="-75.46378"><ele>80.0</ele><time>2026-04-18T16:14:28.655Z</time></trkpt><trkpt lat="9.8180301" lon="-75.4636918"><ele>80.0</ele><time>2026-04-18T16:14:29.656Z</time></trkpt><trkpt lat="9.8180217" lon="-75.4636059"><ele>80.0</ele><time>2026-04-18T16:14:30.658Z</time></trkpt><trkpt lat="9.8180123" lon="-75.4635224"><ele>80.0</ele><time>2026-04-18T16:14:31.657Z</time></trkpt><trkpt lat="9.8180017" lon="-75.4634404"><ele>80.16666666666667</ele><time>2026-04-18T16:14:32.656Z</time></trkpt><trkpt lat="9.8179876" lon="-75.4633605"><ele>80.33333333333334</ele><time>2026-04-18T16:14:33.656Z</time></trkpt><trkpt lat="9.817979" lon="-75.4632818"><ele>80.5</ele><time>2026-04-18T16:14:34.658Z</time></trkpt><trkpt lat="9.8179699" lon="-75.4632033"><ele>80.66666666666667</ele><time>2026-04-18T16:14:35.657Z</time></trkpt><trkpt lat="9.8179577" lon="-75.4631251"><ele>80.83333333333333</ele><time>2026-04-18T16:14:36.657Z</time></trkpt><trkpt lat="9.817951" lon="-75.4630478"><ele>81.0</ele><time>2026-04-18T16:14:37.659Z</time></trkpt><trkpt lat="9.8179433" lon="-75.4629743"><ele>80.16666666666667</ele><time>2026-04-18T16:14:38.657Z</time></trkpt><trkpt lat="9.8179378" lon="-75.4628954"><ele>79.33333333333333</ele><time>2026-04-18T16:14:39.656Z</time></trkpt><trkpt lat="9.8179348" lon="-75.4628164"><ele>78.5</ele><time>2026-04-18T16:14:40.656Z</time></trkpt><trkpt lat="9.8179245" lon="-75.4627396"><ele>77.66666666666666</ele><time>2026-04-18T16:14:41.654Z</time></trkpt><trkpt lat="9.8179167" lon="-75.4626595"><ele>76.83333333333333</ele><time>2026-04-18T16:14:42.655Z</time></trkpt><trkpt lat="9.8179086" lon="-75.4625841"><ele>76.0</ele><time>2026-04-18T16:14:43.654Z</time></trkpt><trkpt lat="9.8179008" lon="-75.4625099"><ele>76.0</ele><time>2026-04-18T16:14:44.653Z</time></trkpt><trkpt lat="9.8178894" lon="-75.4624314"><ele>76.0</ele><time>2026-04-18T16:14:45.657Z</time></trkpt><trkpt lat="9.8178834" lon="-75.4623538"><ele>76.0</ele><time>2026-04-18T16:14:46.656Z</time></trkpt><trkpt lat="9.8178732" lon="-75.4622808"><ele>76.0</ele><time>2026-04-18T16:14:47.654Z</time></trkpt><trkpt lat="9.8178585" lon="-75.4622059"><ele>76.0</ele><time>2026-04-18T16:14:48.657Z</time></trkpt><trkpt lat="9.8178513" lon="-75.4621303"><ele>76.0</ele><time>2026-04-18T16:14:49.655Z</time></trkpt><trkpt lat="9.8178426" lon="-75.4620531"><ele>77.16666666666666</ele><time>2026-04-18T16:14:50.661Z</time></trkpt><trkpt lat="9.8178354" lon="-75.4619721"><ele>78.33333333333333</ele><time>2026-04-18T16:14:51.664Z</time></trkpt><trkpt lat="9.8178259" lon="-75.4618919"><ele>79.5</ele><time>2026-04-18T16:14:52.661Z</time></trkpt><trkpt lat="9.8178191" lon="-75.4618128"><ele>80.66666666666667</ele><time>2026-04-18T16:14:53.658Z</time></trkpt><trkpt lat="9.8178135" lon="-75.4617334"><ele>81.83333333333334</ele><time>2026-04-18T16:14:54.657Z</time></trkpt><trkpt lat="9.8178153" lon="-75.4616552"><ele>83.0</ele><time>2026-04-18T16:14:55.655Z</time></trkpt><trkpt lat="9.8178142" lon="-75.4615782"><ele>83.0</ele><time>2026-04-18T16:14:56.656Z</time></trkpt><trkpt lat="9.8178081" lon="-75.4615029"><ele>83.0</ele><time>2026-04-18T16:14:57.666Z</time></trkpt><trkpt lat="9.817806" lon="-75.4614255"><ele>83.0</ele><time>2026-04-18T16:14:58.66Z</time></trkpt><trkpt lat="9.8178082" lon="-75.4613512"><ele>83.0</ele><time>2026-04-18T16:14:59.656Z</time></trkpt><trkpt lat="9.8178105" lon="-75.4612739"><ele>83.0</ele><time>2026-04-18T16:15:00.658Z</time></trkpt><trkpt lat="9.8178178" lon="-75.4611969"><ele>83.0</ele><time>2026-04-18T16:15:01.658Z</time></trkpt><trkpt lat="9.8178275" lon="-75.461123"><ele>83.42857142857143</ele><time>2026-04-18T16:15:02.657Z</time></trkpt><trkpt lat="9.8178378" lon="-75.461052"><ele>83.85714285714286</ele><time>2026-04-18T16:15:03.66Z</time></trkpt><trkpt lat="9.8178516" lon="-75.4609823"><ele>84.28571428571429</ele><time>2026-04-18T16:15:04.662Z</time></trkpt><trkpt lat="9.8178684" lon="-75.4609099"><ele>84.71428571428572</ele><time>2026-04-18T16:15:05.657Z</time></trkpt><trkpt lat="9.8178859" lon="-75.4608382"><ele>85.14285714285714</ele><time>2026-04-18T16:15:06.659Z</time></trkpt><trkpt lat="9.8179088" lon="-75.4607637"><ele>85.57142857142858</ele><time>2026-04-18T16:15:07.664Z</time></trkpt><trkpt lat="9.8179428" lon="-75.4606839"><ele>86.0</ele><time>2026-04-18T16:15:08.658Z</time></trkpt><trkpt lat="9.8179731" lon="-75.4606102"><ele>86.0</ele><time>2026-04-18T16:15:09.661Z</time></trkpt><trkpt lat="9.8180042" lon="-75.460539"><ele>86.0</ele><time>2026-04-18T16:15:10.659Z</time></trkpt><trkpt lat="9.8180349" lon="-75.4604739"><ele>86.0</ele><time>2026-04-18T16:15:11.666Z</time></trkpt><trkpt lat="9.8180717" lon="-75.4604059"><ele>86.0</ele><time>2026-04-18T16:15:12.663Z</time></trkpt><trkpt lat="9.8181128" lon="-75.4603418"><ele>86.0</ele><time>2026-04-18T16:15:13.661Z</time></trkpt><trkpt lat="9.8181561" lon="-75.4602779"><ele>86.0</ele><time>2026-04-18T16:15:14.659Z</time></trkpt><trkpt lat="9.8181929" lon="-75.4602131"><ele>86.0</ele><time>2026-04-18T16:15:15.656Z</time></trkpt><trkpt lat="9.8182363" lon="-75.4601525"><ele>86.0</ele><time>2026-04-18T16:15:16.66Z</time></trkpt><trkpt lat="9.8182866" lon="-75.4600924"><ele>86.0</ele><time>2026-04-18T16:15:17.662Z</time></trkpt><trkpt lat="9.8183341" lon="-75.4600285"><ele>86.0</ele><time>2026-04-18T16:15:18.659Z</time></trkpt><trkpt lat="9.8183823" lon="-75.4599683"><ele>86.0</ele><time>2026-04-18T16:15:19.662Z</time></trkpt><trkpt lat="9.8184379" lon="-75.4599038"><ele>86.0</ele><time>2026-04-18T16:15:20.663Z</time></trkpt><trkpt lat="9.8184899" lon="-75.4598421"><ele>85.83333333333334</ele><time>2026-04-18T16:15:21.659Z</time></trkpt><trkpt lat="9.818546" lon="-75.4597794"><ele>85.66666666666667</ele><time>2026-04-18T16:15:22.659Z</time></trkpt><trkpt lat="9.8186014" lon="-75.4597123"><ele>85.5</ele><time>2026-04-18T16:15:23.659Z</time></trkpt><trkpt lat="9.8186556" lon="-75.4596449"><ele>85.33333333333333</ele><time>2026-04-18T16:15:24.665Z</time></trkpt><trkpt lat="9.8187092" lon="-75.4595843"><ele>85.16666666666666</ele><time>2026-04-18T16:15:25.661Z</time></trkpt><trkpt lat="9.8187726" lon="-75.459519"><ele>85.0</ele><time>2026-04-18T16:15:26.661Z</time></trkpt><trkpt lat="9.8188347" lon="-75.4594462"><ele>85.0</ele><time>2026-04-18T16:15:27.655Z</time></trkpt><trkpt lat="9.8188916" lon="-75.4593825"><ele>85.0</ele><time>2026-04-18T16:15:28.666Z</time></trkpt><trkpt lat="9.8189425" lon="-75.4593147"><ele>85.0</ele><time>2026-04-18T16:15:29.657Z</time></trkpt><trkpt lat="9.8190017" lon="-75.4592471"><ele>85.0</ele><time>2026-04-18T16:15:30.659Z</time></trkpt><trkpt lat="9.8190604" lon="-75.4591807"><ele>85.0</ele><time>2026-04-18T16:15:31.661Z</time></trkpt><trkpt lat="9.8191194" lon="-75.45911"><ele>85.0</ele><time>2026-04-18T16:15:32.661Z</time></trkpt><trkpt lat="9.8191825" lon="-75.4590388"><ele>85.0</ele><time>2026-04-18T16:15:33.659Z</time></trkpt><trkpt lat="9.8192423" lon="-75.4589727"><ele>85.0</ele><time>2026-04-18T16:15:34.659Z</time></trkpt><trkpt lat="9.8193015" lon="-75.4589065"><ele>85.0</ele><time>2026-04-18T16:15:35.661Z</time></trkpt><trkpt lat="9.8193627" lon="-75.4588365"><ele>85.0</ele><time>2026-04-18T16:15:36.659Z</time></trkpt><trkpt lat="9.8194254" lon="-75.4587667"><ele>85.0</ele><time>2026-04-18T16:15:37.658Z</time></trkpt><trkpt lat="9.8194895" lon="-75.4586981"><ele>84.83333333333333</ele><time>2026-04-18T16:15:38.658Z</time></trkpt><trkpt lat="9.8195479" lon="-75.4586313"><ele>84.66666666666666</ele><time>2026-04-18T16:15:39.667Z</time></trkpt><trkpt lat="9.8196034" lon="-75.458563"><ele>84.5</ele><time>2026-04-18T16:15:40.666Z</time></trkpt><trkpt lat="9.819662" lon="-75.4584998"><ele>84.33333333333333</ele><time>2026-04-18T16:15:41.658Z</time></trkpt><trkpt lat="9.8197231" lon="-75.4584314"><ele>84.16666666666667</ele><time>2026-04-18T16:15:42.663Z</time></trkpt><trkpt lat="9.8197833" lon="-75.4583625"><ele>84.0</ele><time>2026-04-18T16:15:43.662Z</time></trkpt><trkpt lat="9.8198472" lon="-75.4582909"><ele>84.0</ele><time>2026-04-18T16:15:44.658Z</time></trkpt><trkpt lat="9.8199111" lon="-75.4582163"><ele>84.0</ele><time>2026-04-18T16:15:45.66Z</time></trkpt><trkpt lat="9.8199773" lon="-75.4581387"><ele>84.0</ele><time>2026-04-18T16:15:46.658Z</time></trkpt><trkpt lat="9.8200446" lon="-75.4580566"><ele>84.0</ele><time>2026-04-18T16:15:47.658Z</time></trkpt><trkpt lat="9.8201106" lon="-75.4579766"><ele>84.0</ele><time>2026-04-18T16:15:48.663Z</time></trkpt><trkpt lat="9.8201796" lon="-75.457904"><ele>83.4</ele><time>2026-04-18T16:15:49.658Z</time></trkpt><trkpt lat="9.8202459" lon="-75.4578276"><ele>82.80000000000001</ele><time>2026-04-18T16:15:50.661Z</time></trkpt><trkpt lat="9.8203171" lon="-75.4577533"><ele>82.19999999999999</ele><time>2026-04-18T16:15:51.66Z</time></trkpt><trkpt lat="9.8203859" lon="-75.4576751"><ele>81.6</ele><time>2026-04-18T16:15:52.658Z</time></trkpt><trkpt lat="9.8204488" lon="-75.4575961"><ele>81.0</ele><time>2026-04-18T16:15:53.66Z</time></trkpt><trkpt lat="9.8205127" lon="-75.4575165"><ele>81.0</ele><time>2026-04-18T16:15:54.659Z</time></trkpt><trkpt lat="9.8205792" lon="-75.4574358"><ele>81.0</ele><time>2026-04-18T16:15:55.657Z</time></trkpt><trkpt lat="9.8206427" lon="-75.4573507"><ele>81.0</ele><time>2026-04-18T16:15:56.663Z</time></trkpt><trkpt lat="9.8207028" lon="-75.4572611"><ele>81.0</ele><time>2026-04-18T16:15:57.658Z</time></trkpt><trkpt lat="9.8207588" lon="-75.457172"><ele>81.0</ele><time>2026-04-18T16:15:58.661Z</time></trkpt><trkpt lat="9.820809" lon="-75.4570772"><ele>81.19999999999999</ele><time>2026-04-18T16:15:59.661Z</time></trkpt><trkpt lat="9.8208579" lon="-75.4569841"><ele>81.39999999999999</ele><time>2026-04-18T16:16:00.661Z</time></trkpt><trkpt lat="9.8208972" lon="-75.4568864"><ele>81.6</ele><time>2026-04-18T16:16:01.659Z</time></trkpt><trkpt lat="9.820931" lon="-75.4567857"><ele>81.8</ele><time>2026-04-18T16:16:02.66Z</time></trkpt><trkpt lat="9.8209593" lon="-75.456681"><ele>82.0</ele><time>2026-04-18T16:16:03.658Z</time></trkpt><trkpt lat="9.8209873" lon="-75.4565792"><ele>81.8</ele><time>2026-04-18T16:16:04.659Z</time></trkpt><trkpt lat="9.8210101" lon="-75.4564767"><ele>81.6</ele><time>2026-04-18T16:16:05.661Z</time></trkpt><trkpt lat="9.8210236" lon="-75.4563711"><ele>81.39999999999999</ele><time>2026-04-18T16:16:06.662Z</time></trkpt><trkpt lat="9.8210307" lon="-75.4562667"><ele>81.19999999999999</ele><time>2026-04-18T16:16:07.659Z</time></trkpt><trkpt lat="9.821036" lon="-75.4561647"><ele>81.0</ele><time>2026-04-18T16:16:08.662Z</time></trkpt><trkpt lat="9.8210311" lon="-75.4560586"><ele>81.0</ele><time>2026-04-18T16:16:09.655Z</time></trkpt><trkpt lat="9.8210238" lon="-75.4559533"><ele>81.0</ele><time>2026-04-18T16:16:10.658Z</time></trkpt><trkpt lat="9.8210113" lon="-75.4558489"><ele>81.0</ele><time>2026-04-18T16:16:11.66Z</time></trkpt><trkpt lat="9.8209967" lon="-75.4557476"><ele>81.0</ele><time>2026-04-18T16:16:12.656Z</time></trkpt><trkpt lat="9.8209831" lon="-75.4556501"><ele>81.0</ele><time>2026-04-18T16:16:13.656Z</time></trkpt><trkpt lat="9.8209609" lon="-75.4555494"><ele>80.39999999999999</ele><time>2026-04-18T16:16:14.658Z</time></trkpt><trkpt lat="9.8209342" lon="-75.4554512"><ele>79.8</ele><time>2026-04-18T16:16:15.66Z</time></trkpt><trkpt lat="9.8209101" lon="-75.4553519"><ele>79.19999999999999</ele><time>2026-04-18T16:16:16.66Z</time></trkpt><trkpt lat="9.8208816" lon="-75.4552549"><ele>78.6</ele><time>2026-04-18T16:16:17.662Z</time></trkpt><trkpt lat="9.8208571" lon="-75.4551553"><ele>78.0</ele><time>2026-04-18T16:16:18.658Z</time></trkpt><trkpt lat="9.8208316" lon="-75.4550541"><ele>78.0</ele><time>2026-04-18T16:16:19.66Z</time></trkpt><trkpt lat="9.8208057" lon="-75.4549521"><ele>78.0</ele><time>2026-04-18T16:16:20.662Z</time></trkpt><trkpt lat="9.8207793" lon="-75.4548563"><ele>78.0</ele><time>2026-04-18T16:16:21.658Z</time></trkpt><trkpt lat="9.8207508" lon="-75.4547607"><ele>78.0</ele><time>2026-04-18T16:16:22.658Z</time></trkpt><trkpt lat="9.8207278" lon="-75.4546647"><ele>78.0</ele><time>2026-04-18T16:16:23.665Z</time></trkpt><trkpt lat="9.8206978" lon="-75.4545692"><ele>77.2</ele><time>2026-04-18T16:16:24.662Z</time></trkpt><trkpt lat="9.8206706" lon="-75.4544769"><ele>76.4</ele><time>2026-04-18T16:16:25.663Z</time></trkpt><trkpt lat="9.820643" lon="-75.4543838"><ele>75.60000000000001</ele><time>2026-04-18T16:16:26.656Z</time></trkpt><trkpt lat="9.8206153" lon="-75.4542868"><ele>74.8</ele><time>2026-04-18T16:16:27.656Z</time></trkpt><trkpt lat="9.8205858" lon="-75.4541892"><ele>74.0</ele><time>2026-04-18T16:16:28.657Z</time></trkpt><trkpt lat="9.8205552" lon="-75.4540906"><ele>74.0</ele><time>2026-04-18T16:16:29.664Z</time></trkpt><trkpt lat="9.8205215" lon="-75.4539922"><ele>74.0</ele><time>2026-04-18T16:16:30.657Z</time></trkpt><trkpt lat="9.8204892" lon="-75.4538866"><ele>74.0</ele><time>2026-04-18T16:16:31.662Z</time></trkpt><trkpt lat="9.8204565" lon="-75.45378"><ele>74.0</ele><time>2026-04-18T16:16:32.654Z</time></trkpt><trkpt lat="9.8204237" lon="-75.4536717"><ele>74.0</ele><time>2026-04-18T16:16:33.659Z</time></trkpt><trkpt lat="9.8203933" lon="-75.4535606"><ele>74.0</ele><time>2026-04-18T16:16:34.665Z</time></trkpt><trkpt lat="9.820365" lon="-75.4534513"><ele>74.0</ele><time>2026-04-18T16:16:35.659Z</time></trkpt><trkpt lat="9.8203348" lon="-75.4533426"><ele>74.0</ele><time>2026-04-18T16:16:36.658Z</time></trkpt><trkpt lat="9.8203042" lon="-75.4532394"><ele>74.0</ele><time>2026-04-18T16:16:37.661Z</time></trkpt><trkpt lat="9.8202738" lon="-75.4531335"><ele>74.0</ele><time>2026-04-18T16:16:38.667Z</time></trkpt><trkpt lat="9.8202441" lon="-75.4530243"><ele>73.4</ele><time>2026-04-18T16:16:39.66Z</time></trkpt><trkpt lat="9.8202148" lon="-75.4529178"><ele>72.80000000000001</ele><time>2026-04-18T16:16:40.666Z</time></trkpt><trkpt lat="9.8201851" lon="-75.4528106"><ele>72.19999999999999</ele><time>2026-04-18T16:16:41.659Z</time></trkpt><trkpt lat="9.8201578" lon="-75.4527037"><ele>71.6</ele><time>2026-04-18T16:16:42.66Z</time></trkpt><trkpt lat="9.8201295" lon="-75.4526017"><ele>71.0</ele><time>2026-04-18T16:16:43.661Z</time></trkpt><trkpt lat="9.8201008" lon="-75.4524973"><ele>71.0</ele><time>2026-04-18T16:16:44.658Z</time></trkpt><trkpt lat="9.8200711" lon="-75.4523916"><ele>71.0</ele><time>2026-04-18T16:16:45.657Z</time></trkpt><trkpt lat="9.8200423" lon="-75.4522896"><ele>71.0</ele><time>2026-04-18T16:16:46.66Z</time></trkpt><trkpt lat="9.8200133" lon="-75.4521885"><ele>71.0</ele><time>2026-04-18T16:16:47.663Z</time></trkpt><trkpt lat="9.8199875" lon="-75.4520888"><ele>71.0</ele><time>2026-04-18T16:16:48.658Z</time></trkpt><trkpt lat="9.819967" lon="-75.4519893"><ele>70.8</ele><time>2026-04-18T16:16:49.658Z</time></trkpt><trkpt lat="9.8199366" lon="-75.4518914"><ele>70.6</ele><time>2026-04-18T16:16:50.657Z</time></trkpt><trkpt lat="9.819905" lon="-75.4517979"><ele>70.4</ele><time>2026-04-18T16:16:51.659Z</time></trkpt><trkpt lat="9.81988" lon="-75.4517057"><ele>70.2</ele><time>2026-04-18T16:16:52.662Z</time></trkpt><trkpt lat="9.8198523" lon="-75.4516167"><ele>70.0</ele><time>2026-04-18T16:16:53.659Z</time></trkpt><trkpt lat="9.8198302" lon="-75.4515297"><ele>70.0</ele><time>2026-04-18T16:16:54.656Z</time></trkpt><trkpt lat="9.819806" lon="-75.4514444"><ele>70.0</ele><time>2026-04-18T16:16:55.659Z</time></trkpt><trkpt lat="9.8197853" lon="-75.4513639"><ele>70.0</ele><time>2026-04-18T16:16:56.661Z</time></trkpt><trkpt lat="9.8197675" lon="-75.4512806"><ele>70.0</ele><time>2026-04-18T16:16:57.661Z</time></trkpt><trkpt lat="9.8197532" lon="-75.4512038"><ele>70.0</ele><time>2026-04-18T16:16:58.659Z</time></trkpt><trkpt lat="9.8197407" lon="-75.4511283"><ele>70.0</ele><time>2026-04-18T16:16:59.655Z</time></trkpt><trkpt lat="9.8197323" lon="-75.4510542"><ele>70.85714285714286</ele><time>2026-04-18T16:17:00.659Z</time></trkpt><trkpt lat="9.8197287" lon="-75.4509863"><ele>71.71428571428572</ele><time>2026-04-18T16:17:01.655Z</time></trkpt><trkpt lat="9.8197251" lon="-75.4509154"><ele>72.57142857142857</ele><time>2026-04-18T16:17:02.661Z</time></trkpt><trkpt lat="9.8197221" lon="-75.4508402"><ele>73.42857142857143</ele><time>2026-04-18T16:17:03.661Z</time></trkpt><trkpt lat="9.8197285" lon="-75.4507652"><ele>74.28571428571429</ele><time>2026-04-18T16:17:04.661Z</time></trkpt><trkpt lat="9.8197301" lon="-75.4506994"><ele>75.14285714285714</ele><time>2026-04-18T16:17:05.658Z</time></trkpt><trkpt lat="9.8197307" lon="-75.4506315"><ele>76.0</ele><time>2026-04-18T16:17:06.658Z</time></trkpt><trkpt lat="9.8197433" lon="-75.4505069"><ele>77.6</ele><time>2026-04-18T16:17:08.664Z</time></trkpt><trkpt lat="9.8197688" lon="-75.4503896"><ele>79.19999999999999</ele><time>2026-04-18T16:17:10.661Z</time></trkpt><trkpt lat="9.8197931" lon="-75.4502805"><ele>80.80000000000001</ele><time>2026-04-18T16:17:12.658Z</time></trkpt><trkpt lat="9.8198206" lon="-75.4501652"><ele>82.4</ele><time>2026-04-18T16:17:14.658Z</time></trkpt><trkpt lat="9.8198441" lon="-75.450105"><ele>84.0</ele><time>2026-04-18T16:17:15.661Z</time></trkpt><trkpt lat="9.8198884" lon="-75.4499971"><ele>84.0</ele><time>2026-04-18T16:17:17.657Z</time></trkpt><trkpt lat="9.8199355" lon="-75.4498868"><ele>84.0</ele><time>2026-04-18T16:17:19.659Z</time></trkpt><trkpt lat="9.8199645" lon="-75.44983"><ele>84.0</ele><time>2026-04-18T16:17:20.659Z</time></trkpt><trkpt lat="9.8200239" lon="-75.4497246"><ele>84.0</ele><time>2026-04-18T16:17:22.655Z</time></trkpt><trkpt lat="9.8200573" lon="-75.4496648"><ele>84.0</ele><time>2026-04-18T16:17:23.653Z</time></trkpt><trkpt lat="9.8201135" lon="-75.4495557"><ele>84.0</ele><time>2026-04-18T16:17:25.655Z</time></trkpt><trkpt lat="9.8201429" lon="-75.4494986"><ele>84.0</ele><time>2026-04-18T16:17:26.656Z</time></trkpt><trkpt lat="9.820208" lon="-75.449396"><ele>84.0</ele><time>2026-04-18T16:17:28.657Z</time></trkpt><trkpt lat="9.8202408" lon="-75.4493412"><ele>84.0</ele><time>2026-04-18T16:17:29.666Z</time></trkpt><trkpt lat="9.8203106" lon="-75.449238"><ele>84.0</ele><time>2026-04-18T16:17:31.657Z</time></trkpt><trkpt lat="9.8203475" lon="-75.4491782"><ele>84.0</ele><time>2026-04-18T16:17:32.663Z</time></trkpt><trkpt lat="9.820383" lon="-75.449123"><ele>83.71428571428571</ele><time>2026-04-18T16:17:33.654Z</time></trkpt><trkpt lat="9.8204181" lon="-75.4490676"><ele>83.42857142857143</ele><time>2026-04-18T16:17:34.661Z</time></trkpt><trkpt lat="9.820455" lon="-75.4490072"><ele>83.14285714285714</ele><time>2026-04-18T16:17:35.655Z</time></trkpt><trkpt lat="9.8204899" lon="-75.4489475"><ele>82.85714285714286</ele><time>2026-04-18T16:17:36.657Z</time></trkpt><trkpt lat="9.8205232" lon="-75.4488889"><ele>82.57142857142857</ele><time>2026-04-18T16:17:37.659Z</time></trkpt><trkpt lat="9.8205617" lon="-75.4488307"><ele>82.28571428571428</ele><time>2026-04-18T16:17:38.654Z</time></trkpt><trkpt lat="9.8205985" lon="-75.4487697"><ele>82.0</ele><time>2026-04-18T16:17:39.655Z</time></trkpt><trkpt lat="9.820635" lon="-75.44871"><ele>82.57142857142857</ele><time>2026-04-18T16:17:40.657Z</time></trkpt><trkpt lat="9.8206718" lon="-75.4486509"><ele>83.14285714285714</ele><time>2026-04-18T16:17:41.655Z</time></trkpt><trkpt lat="9.8207103" lon="-75.4485885"><ele>83.71428571428572</ele><time>2026-04-18T16:17:42.662Z</time></trkpt><trkpt lat="9.8207557" lon="-75.4485282"><ele>84.28571428571428</ele><time>2026-04-18T16:17:43.657Z</time></trkpt><trkpt lat="9.8207949" lon="-75.4484665"><ele>84.85714285714286</ele><time>2026-04-18T16:17:44.658Z</time></trkpt><trkpt lat="9.820837" lon="-75.4484038"><ele>85.42857142857143</ele><time>2026-04-18T16:17:45.657Z</time></trkpt><trkpt lat="9.8208761" lon="-75.4483453"><ele>86.0</ele><time>2026-04-18T16:17:46.657Z</time></trkpt><trkpt lat="9.8209196" lon="-75.4482792"><ele>86.0</ele><time>2026-04-18T16:17:47.654Z</time></trkpt><trkpt lat="9.8209579" lon="-75.4482154"><ele>86.0</ele><time>2026-04-18T16:17:48.658Z</time></trkpt><trkpt lat="9.820995" lon="-75.4481527"><ele>86.0</ele><time>2026-04-18T16:17:49.659Z</time></trkpt><trkpt lat="9.821034" lon="-75.4480879"><ele>86.0</ele><time>2026-04-18T16:17:50.656Z</time></trkpt><trkpt lat="9.8210718" lon="-75.4480214"><ele>86.0</ele><time>2026-04-18T16:17:51.653Z</time></trkpt><trkpt lat="9.8211135" lon="-75.4479544"><ele>86.0</ele><time>2026-04-18T16:17:52.655Z</time></trkpt><trkpt lat="9.821154" lon="-75.4478894"><ele>86.00000000000001</ele><time>2026-04-18T16:17:53.653Z</time></trkpt><trkpt lat="9.8211944" lon="-75.4478259"><ele>86.0</ele><time>2026-04-18T16:17:54.655Z</time></trkpt><trkpt lat="9.8212345" lon="-75.4477664"><ele>86.0</ele><time>2026-04-18T16:17:55.655Z</time></trkpt><trkpt lat="9.8212717" lon="-75.4477072"><ele>86.0</ele><time>2026-04-18T16:17:56.653Z</time></trkpt><trkpt lat="9.8213118" lon="-75.4476451"><ele>86.0</ele><time>2026-04-18T16:17:57.659Z</time></trkpt><trkpt lat="9.8213448" lon="-75.4475822"><ele>86.00000000000001</ele><time>2026-04-18T16:17:58.657Z</time></trkpt><trkpt lat="9.8213835" lon="-75.447522"><ele>86.0</ele><time>2026-04-18T16:17:59.656Z</time></trkpt><trkpt lat="9.8214255" lon="-75.4474587"><ele>86.0</ele><time>2026-04-18T16:18:00.656Z</time></trkpt><trkpt lat="9.8214679" lon="-75.4473905"><ele>86.0</ele><time>2026-04-18T16:18:01.654Z</time></trkpt><trkpt lat="9.8215078" lon="-75.4473208"><ele>86.0</ele><time>2026-04-18T16:18:02.659Z</time></trkpt><trkpt lat="9.8215448" lon="-75.4472468"><ele>86.0</ele><time>2026-04-18T16:18:03.661Z</time></trkpt><trkpt lat="9.8215793" lon="-75.4471725"><ele>86.0</ele><time>2026-04-18T16:18:04.658Z</time></trkpt><trkpt lat="9.821614" lon="-75.4471011"><ele>86.0</ele><time>2026-04-18T16:18:05.659Z</time></trkpt><trkpt lat="9.8216443" lon="-75.4470224"><ele>85.83333333333334</ele><time>2026-04-18T16:18:06.659Z</time></trkpt><trkpt lat="9.8216737" lon="-75.4469399"><ele>85.66666666666667</ele><time>2026-04-18T16:18:07.661Z</time></trkpt><trkpt lat="9.8216986" lon="-75.4468595"><ele>85.5</ele><time>2026-04-18T16:18:08.667Z</time></trkpt><trkpt lat="9.8217203" lon="-75.4467772"><ele>85.33333333333333</ele><time>2026-04-18T16:18:09.653Z</time></trkpt><trkpt lat="9.8217418" lon="-75.4466915"><ele>85.16666666666666</ele><time>2026-04-18T16:18:10.653Z</time></trkpt><trkpt lat="9.8217554" lon="-75.4466022"><ele>85.0</ele><time>2026-04-18T16:18:11.659Z</time></trkpt><trkpt lat="9.8217654" lon="-75.4465099"><ele>85.0</ele><time>2026-04-18T16:18:12.659Z</time></trkpt><trkpt lat="9.8217727" lon="-75.4464157"><ele>85.0</ele><time>2026-04-18T16:18:13.654Z</time></trkpt><trkpt lat="9.8217735" lon="-75.446321"><ele>85.0</ele><time>2026-04-18T16:18:14.658Z</time></trkpt><trkpt lat="9.8217735" lon="-75.4462248"><ele>85.0</ele><time>2026-04-18T16:18:15.654Z</time></trkpt><trkpt lat="9.8217701" lon="-75.4461251"><ele>85.0</ele><time>2026-04-18T16:18:16.657Z</time></trkpt><trkpt lat="9.8217655" lon="-75.4460257"><ele>84.8</ele><time>2026-04-18T16:18:17.656Z</time></trkpt><trkpt lat="9.8217555" lon="-75.4459254"><ele>84.6</ele><time>2026-04-18T16:18:18.656Z</time></trkpt><trkpt lat="9.8217467" lon="-75.4458298"><ele>84.4</ele><time>2026-04-18T16:18:19.657Z</time></trkpt><trkpt lat="9.8217374" lon="-75.4457289"><ele>84.2</ele><time>2026-04-18T16:18:20.659Z</time></trkpt><trkpt lat="9.8217254" lon="-75.4456308"><ele>84.0</ele><time>2026-04-18T16:18:21.653Z</time></trkpt><trkpt lat="9.8217101" lon="-75.4455255"><ele>82.60000000000001</ele><time>2026-04-18T16:18:22.657Z</time></trkpt><trkpt lat="9.8217027" lon="-75.4454205"><ele>81.2</ele><time>2026-04-18T16:18:23.657Z</time></trkpt><trkpt lat="9.821694" lon="-75.4453175"><ele>79.80000000000001</ele><time>2026-04-18T16:18:24.656Z</time></trkpt><trkpt lat="9.8216789" lon="-75.4452078"><ele>78.4</ele><time>2026-04-18T16:18:25.655Z</time></trkpt><trkpt lat="9.8216729" lon="-75.4450981"><ele>77.0</ele><time>2026-04-18T16:18:26.655Z</time></trkpt><trkpt lat="9.8216587" lon="-75.4449917"><ele>77.0</ele><time>2026-04-18T16:18:27.653Z</time></trkpt><trkpt lat="9.8216481" lon="-75.4448848"><ele>77.0</ele><time>2026-04-18T16:18:28.656Z</time></trkpt><trkpt lat="9.8216369" lon="-75.4447764"><ele>77.0</ele><time>2026-04-18T16:18:29.657Z</time></trkpt><trkpt lat="9.8216256" lon="-75.4446697"><ele>77.0</ele><time>2026-04-18T16:18:30.657Z</time></trkpt><trkpt lat="9.8216181" lon="-75.4445593"><ele>77.0</ele><time>2026-04-18T16:18:31.658Z</time></trkpt><trkpt lat="9.8216072" lon="-75.4444536"><ele>76.8</ele><time>2026-04-18T16:18:32.655Z</time></trkpt><trkpt lat="9.8215955" lon="-75.4443419"><ele>76.6</ele><time>2026-04-18T16:18:33.655Z</time></trkpt><trkpt lat="9.8215835" lon="-75.4442256"><ele>76.39999999999999</ele><time>2026-04-18T16:18:34.654Z</time></trkpt><trkpt lat="9.8215689" lon="-75.444116"><ele>76.2</ele><time>2026-04-18T16:18:35.658Z</time></trkpt><trkpt lat="9.8215529" lon="-75.4440061"><ele>76.0</ele><time>2026-04-18T16:18:36.663Z</time></trkpt><trkpt lat="9.8215432" lon="-75.4438939"><ele>75.75</ele><time>2026-04-18T16:18:37.659Z</time></trkpt><trkpt lat="9.8215325" lon="-75.4437805"><ele>75.5</ele><time>2026-04-18T16:18:38.658Z</time></trkpt><trkpt lat="9.8215205" lon="-75.4436643"><ele>75.25</ele><time>2026-04-18T16:18:39.656Z</time></trkpt><trkpt lat="9.8215091" lon="-75.4435469"><ele>75.0</ele><time>2026-04-18T16:18:40.658Z</time></trkpt><trkpt lat="9.8214928" lon="-75.4434277"><ele>75.0</ele><time>2026-04-18T16:18:41.656Z</time></trkpt><trkpt lat="9.8214825" lon="-75.4433088"><ele>75.0</ele><time>2026-04-18T16:18:42.655Z</time></trkpt><trkpt lat="9.821472" lon="-75.443194"><ele>75.0</ele><time>2026-04-18T16:18:43.659Z</time></trkpt><trkpt lat="9.8214604" lon="-75.4430796"><ele>75.0</ele><time>2026-04-18T16:18:44.659Z</time></trkpt><trkpt lat="9.8214474" lon="-75.4429639"><ele>74.8</ele><time>2026-04-18T16:18:45.657Z</time></trkpt><trkpt lat="9.8214375" lon="-75.442856"><ele>74.6</ele><time>2026-04-18T16:18:46.658Z</time></trkpt><trkpt lat="9.821425" lon="-75.4427458"><ele>74.4</ele><time>2026-04-18T16:18:47.656Z</time></trkpt><trkpt lat="9.8214151" lon="-75.4426311"><ele>74.2</ele><time>2026-04-18T16:18:48.654Z</time></trkpt><trkpt lat="9.8214061" lon="-75.4425209"><ele>74.0</ele><time>2026-04-18T16:18:49.655Z</time></trkpt><trkpt lat="9.82139" lon="-75.4424089"><ele>74.0</ele><time>2026-04-18T16:18:50.654Z</time></trkpt><trkpt lat="9.8213823" lon="-75.4423008"><ele>74.0</ele><time>2026-04-18T16:18:51.657Z</time></trkpt><trkpt lat="9.8213709" lon="-75.4421974"><ele>74.0</ele><time>2026-04-18T16:18:52.658Z</time></trkpt><trkpt lat="9.8213588" lon="-75.4420915"><ele>74.0</ele><time>2026-04-18T16:18:53.657Z</time></trkpt><trkpt lat="9.8213512" lon="-75.4419883"><ele>74.0</ele><time>2026-04-18T16:18:54.656Z</time></trkpt><trkpt lat="9.8213426" lon="-75.4418901"><ele>73.60000000000001</ele><time>2026-04-18T16:18:55.656Z</time></trkpt><trkpt lat="9.8213362" lon="-75.441793"><ele>73.2</ele><time>2026-04-18T16:18:56.655Z</time></trkpt><trkpt lat="9.8213257" lon="-75.4416987"><ele>72.80000000000001</ele><time>2026-04-18T16:18:57.655Z</time></trkpt><trkpt lat="9.8213119" lon="-75.4416077"><ele>72.4</ele><time>2026-04-18T16:18:58.651Z</time></trkpt><trkpt lat="9.8213035" lon="-75.4415146"><ele>72.0</ele><time>2026-04-18T16:18:59.653Z</time></trkpt><trkpt lat="9.821298" lon="-75.4414225"><ele>72.0</ele><time>2026-04-18T16:19:00.653Z</time></trkpt><trkpt lat="9.821287" lon="-75.4413297"><ele>72.0</ele><time>2026-04-18T16:19:01.653Z</time></trkpt><trkpt lat="9.8212776" lon="-75.4412407"><ele>72.0</ele><time>2026-04-18T16:19:02.659Z</time></trkpt><trkpt lat="9.8212717" lon="-75.4411471"><ele>72.0</ele><time>2026-04-18T16:19:03.653Z</time></trkpt><trkpt lat="9.8212598" lon="-75.4410565"><ele>72.0</ele><time>2026-04-18T16:19:04.657Z</time></trkpt><trkpt lat="9.8212455" lon="-75.440964"><ele>72.4</ele><time>2026-04-18T16:19:05.656Z</time></trkpt><trkpt lat="9.8212386" lon="-75.4408716"><ele>72.80000000000001</ele><time>2026-04-18T16:19:06.656Z</time></trkpt><trkpt lat="9.821227" lon="-75.4407821"><ele>73.2</ele><time>2026-04-18T16:19:07.664Z</time></trkpt><trkpt lat="9.8212189" lon="-75.440688"><ele>73.60000000000001</ele><time>2026-04-18T16:19:08.661Z</time></trkpt><trkpt lat="9.8212079" lon="-75.4405954"><ele>74.0</ele><time>2026-04-18T16:19:09.657Z</time></trkpt><trkpt lat="9.8211962" lon="-75.4405058"><ele>73.8</ele><time>2026-04-18T16:19:10.658Z</time></trkpt><trkpt lat="9.8211853" lon="-75.4404162"><ele>73.60000000000001</ele><time>2026-04-18T16:19:11.655Z</time></trkpt><trkpt lat="9.8211745" lon="-75.4403248"><ele>73.4</ele><time>2026-04-18T16:19:12.662Z</time></trkpt><trkpt lat="9.8211657" lon="-75.440236"><ele>73.2</ele><time>2026-04-18T16:19:13.657Z</time></trkpt><trkpt lat="9.8211575" lon="-75.440142"><ele>73.0</ele><time>2026-04-18T16:19:14.655Z</time></trkpt><trkpt lat="9.8211507" lon="-75.4400492"><ele>73.0</ele><time>2026-04-18T16:19:15.656Z</time></trkpt><trkpt lat="9.8211406" lon="-75.4399531"><ele>73.0</ele><time>2026-04-18T16:19:16.654Z</time></trkpt><trkpt lat="9.8211288" lon="-75.4398606"><ele>73.0</ele><time>2026-04-18T16:19:17.655Z</time></trkpt><trkpt lat="9.8211171" lon="-75.439764"><ele>73.0</ele><time>2026-04-18T16:19:18.661Z</time></trkpt><trkpt lat="9.821106" lon="-75.4396691"><ele>73.0</ele><time>2026-04-18T16:19:19.657Z</time></trkpt><trkpt lat="9.8210964" lon="-75.4395734"><ele>73.2</ele><time>2026-04-18T16:19:20.655Z</time></trkpt><trkpt lat="9.8210852" lon="-75.4394753"><ele>73.4</ele><time>2026-04-18T16:19:21.658Z</time></trkpt><trkpt lat="9.8210735" lon="-75.4393774"><ele>73.60000000000001</ele><time>2026-04-18T16:19:22.652Z</time></trkpt><trkpt lat="9.8210628" lon="-75.4392822"><ele>73.8</ele><time>2026-04-18T16:19:23.655Z</time></trkpt><trkpt lat="9.8210533" lon="-75.4391892"><ele>74.0</ele><time>2026-04-18T16:19:24.655Z</time></trkpt><trkpt lat="9.8210436" lon="-75.4390939"><ele>74.0</ele><time>2026-04-18T16:19:25.654Z</time></trkpt><trkpt lat="9.8210328" lon="-75.4389982"><ele>74.0</ele><time>2026-04-18T16:19:26.66Z</time></trkpt><trkpt lat="9.8210221" lon="-75.4389045"><ele>74.0</ele><time>2026-04-18T16:19:27.662Z</time></trkpt><trkpt lat="9.8210118" lon="-75.4388103"><ele>74.0</ele><time>2026-04-18T16:19:28.657Z</time></trkpt><trkpt lat="9.8210031" lon="-75.4387154"><ele>74.0</ele><time>2026-04-18T16:19:29.657Z</time></trkpt><trkpt lat="9.8209951" lon="-75.438624"><ele>74.60000000000001</ele><time>2026-04-18T16:19:30.659Z</time></trkpt><trkpt lat="9.8209854" lon="-75.4385303"><ele>75.2</ele><time>2026-04-18T16:19:31.659Z</time></trkpt><trkpt lat="9.8209771" lon="-75.4384339"><ele>75.80000000000001</ele><time>2026-04-18T16:19:32.657Z</time></trkpt><trkpt lat="9.8209679" lon="-75.4383381"><ele>76.4</ele><time>2026-04-18T16:19:33.658Z</time></trkpt><trkpt lat="9.8209548" lon="-75.4382436"><ele>77.0</ele><time>2026-04-18T16:19:34.654Z</time></trkpt><trkpt lat="9.8209414" lon="-75.4381523"><ele>77.0</ele><time>2026-04-18T16:19:35.652Z</time></trkpt><trkpt lat="9.8209284" lon="-75.438063"><ele>77.0</ele><time>2026-04-18T16:19:36.655Z</time></trkpt><trkpt lat="9.8209187" lon="-75.4379699"><ele>77.0</ele><time>2026-04-18T16:19:37.655Z</time></trkpt><trkpt lat="9.8209095" lon="-75.4378808"><ele>77.0</ele><time>2026-04-18T16:19:38.656Z</time></trkpt><trkpt lat="9.8209032" lon="-75.4377878"><ele>77.0</ele><time>2026-04-18T16:19:39.656Z</time></trkpt><trkpt lat="9.8208969" lon="-75.4376933"><ele>77.0</ele><time>2026-04-18T16:19:40.652Z</time></trkpt><trkpt lat="9.8208854" lon="-75.4376001"><ele>77.0</ele><time>2026-04-18T16:19:41.655Z</time></trkpt><trkpt lat="9.8208795" lon="-75.4375069"><ele>77.0</ele><time>2026-04-18T16:19:42.658Z</time></trkpt><trkpt lat="9.8208704" lon="-75.4374191"><ele>77.0</ele><time>2026-04-18T16:19:43.656Z</time></trkpt><trkpt lat="9.8208605" lon="-75.437333"><ele>77.0</ele><time>2026-04-18T16:19:44.659Z</time></trkpt><trkpt lat="9.8208515" lon="-75.4372438"><ele>77.0</ele><time>2026-04-18T16:19:45.656Z</time></trkpt><trkpt lat="9.8208428" lon="-75.4371564"><ele>77.16666666666667</ele><time>2026-04-18T16:19:46.656Z</time></trkpt><trkpt lat="9.82083" lon="-75.4370699"><ele>77.33333333333334</ele><time>2026-04-18T16:19:47.662Z</time></trkpt><trkpt lat="9.8208227" lon="-75.4369802"><ele>77.5</ele><time>2026-04-18T16:19:48.657Z</time></trkpt><trkpt lat="9.8208118" lon="-75.4368897"><ele>77.66666666666667</ele><time>2026-04-18T16:19:49.656Z</time></trkpt><trkpt lat="9.8208004" lon="-75.4367985"><ele>77.83333333333333</ele><time>2026-04-18T16:19:50.655Z</time></trkpt><trkpt lat="9.8207899" lon="-75.4367092"><ele>78.0</ele><time>2026-04-18T16:19:51.656Z</time></trkpt><trkpt lat="9.8207802" lon="-75.4366217"><ele>78.0</ele><time>2026-04-18T16:19:52.654Z</time></trkpt><trkpt lat="9.8207731" lon="-75.4365328"><ele>78.0</ele><time>2026-04-18T16:19:53.655Z</time></trkpt><trkpt lat="9.8207656" lon="-75.4364467"><ele>78.0</ele><time>2026-04-18T16:19:54.654Z</time></trkpt><trkpt lat="9.82076" lon="-75.4363586"><ele>78.0</ele><time>2026-04-18T16:19:55.657Z</time></trkpt><trkpt lat="9.8207542" lon="-75.4362756"><ele>78.0</ele><time>2026-04-18T16:19:56.658Z</time></trkpt><trkpt lat="9.8207537" lon="-75.4361919"><ele>78.0</ele><time>2026-04-18T16:19:57.655Z</time></trkpt><trkpt lat="9.8207487" lon="-75.4361111"><ele>78.66666666666667</ele><time>2026-04-18T16:19:58.659Z</time></trkpt><trkpt lat="9.8207471" lon="-75.4360326"><ele>79.33333333333333</ele><time>2026-04-18T16:19:59.662Z</time></trkpt><trkpt lat="9.8207491" lon="-75.43595"><ele>80.0</ele><time>2026-04-18T16:20:00.656Z</time></trkpt><trkpt lat="9.8207505" lon="-75.4358664"><ele>80.66666666666666</ele><time>2026-04-18T16:20:01.656Z</time></trkpt><trkpt lat="9.8207538" lon="-75.4357848"><ele>81.33333333333333</ele><time>2026-04-18T16:20:02.657Z</time></trkpt><trkpt lat="9.820758" lon="-75.4357042"><ele>82.0</ele><time>2026-04-18T16:20:03.657Z</time></trkpt><trkpt lat="9.8207606" lon="-75.4356283"><ele>82.0</ele><time>2026-04-18T16:20:04.656Z</time></trkpt><trkpt lat="9.8207703" lon="-75.4355479"><ele>82.0</ele><time>2026-04-18T16:20:05.658Z</time></trkpt><trkpt lat="9.8207812" lon="-75.4354686"><ele>82.0</ele><time>2026-04-18T16:20:06.663Z</time></trkpt><trkpt lat="9.8207945" lon="-75.4353905"><ele>82.0</ele><time>2026-04-18T16:20:07.663Z</time></trkpt><trkpt lat="9.820811" lon="-75.4353114"><ele>82.0</ele><time>2026-04-18T16:20:08.664Z</time></trkpt><trkpt lat="9.8208306" lon="-75.4352285"><ele>82.0</ele><time>2026-04-18T16:20:09.658Z</time></trkpt><trkpt lat="9.8208466" lon="-75.4351482"><ele>81.66666666666666</ele><time>2026-04-18T16:20:10.658Z</time></trkpt><trkpt lat="9.8208651" lon="-75.435067"><ele>81.33333333333333</ele><time>2026-04-18T16:20:11.657Z</time></trkpt><trkpt lat="9.8208867" lon="-75.4349875"><ele>81.0</ele><time>2026-04-18T16:20:12.657Z</time></trkpt><trkpt lat="9.8209106" lon="-75.4349061"><ele>80.66666666666667</ele><time>2026-04-18T16:20:13.659Z</time></trkpt><trkpt lat="9.8209343" lon="-75.4348258"><ele>80.33333333333334</ele><time>2026-04-18T16:20:14.657Z</time></trkpt><trkpt lat="9.8209621" lon="-75.4347446"><ele>80.0</ele><time>2026-04-18T16:20:15.658Z</time></trkpt><trkpt lat="9.8209941" lon="-75.4346631"><ele>80.0</ele><time>2026-04-18T16:20:16.657Z</time></trkpt><trkpt lat="9.8210258" lon="-75.4345859"><ele>80.0</ele><time>2026-04-18T16:20:17.662Z</time></trkpt><trkpt lat="9.8210612" lon="-75.4345068"><ele>80.0</ele><time>2026-04-18T16:20:18.651Z</time></trkpt><trkpt lat="9.8210957" lon="-75.4344317"><ele>80.0</ele><time>2026-04-18T16:20:19.658Z</time></trkpt><trkpt lat="9.8211308" lon="-75.4343535"><ele>80.0</ele><time>2026-04-18T16:20:20.658Z</time></trkpt><trkpt lat="9.8211754" lon="-75.4342777"><ele>80.0</ele><time>2026-04-18T16:20:21.658Z</time></trkpt><trkpt lat="9.82122" lon="-75.4342026"><ele>80.0</ele><time>2026-04-18T16:20:22.656Z</time></trkpt><trkpt lat="9.8212661" lon="-75.4341285"><ele>80.0</ele><time>2026-04-18T16:20:23.656Z</time></trkpt><trkpt lat="9.8213131" lon="-75.434058"><ele>80.0</ele><time>2026-04-18T16:20:24.659Z</time></trkpt><trkpt lat="9.8213601" lon="-75.4339852"><ele>80.0</ele><time>2026-04-18T16:20:25.655Z</time></trkpt><trkpt lat="9.8214113" lon="-75.4339096"><ele>80.0</ele><time>2026-04-18T16:20:26.654Z</time></trkpt><trkpt lat="9.8214654" lon="-75.4338406"><ele>80.0</ele><time>2026-04-18T16:20:27.654Z</time></trkpt><trkpt lat="9.8215222" lon="-75.4337682"><ele>80.0</ele><time>2026-04-18T16:20:28.654Z</time></trkpt><trkpt lat="9.8215778" lon="-75.4337006"><ele>80.0</ele><time>2026-04-18T16:20:29.655Z</time></trkpt><trkpt lat="9.8216344" lon="-75.4336328"><ele>80.0</ele><time>2026-04-18T16:20:30.655Z</time></trkpt><trkpt lat="9.8216967" lon="-75.4335678"><ele>80.0</ele><time>2026-04-18T16:20:31.656Z</time></trkpt><trkpt lat="9.8217594" lon="-75.4334998"><ele>80.0</ele><time>2026-04-18T16:20:32.654Z</time></trkpt><trkpt lat="9.8218269" lon="-75.4334307"><ele>79.8</ele><time>2026-04-18T16:20:33.654Z</time></trkpt><trkpt lat="9.8219022" lon="-75.4333636"><ele>79.6</ele><time>2026-04-18T16:20:34.655Z</time></trkpt><trkpt lat="9.8219747" lon="-75.4332973"><ele>79.4</ele><time>2026-04-18T16:20:35.653Z</time></trkpt><trkpt lat="9.8220516" lon="-75.4332344"><ele>79.2</ele><time>2026-04-18T16:20:36.655Z</time></trkpt><trkpt lat="9.822129" lon="-75.4331756"><ele>79.0</ele><time>2026-04-18T16:20:37.658Z</time></trkpt><trkpt lat="9.822205" lon="-75.4331144"><ele>79.0</ele><time>2026-04-18T16:20:38.654Z</time></trkpt><trkpt lat="9.8222867" lon="-75.4330486"><ele>79.0</ele><time>2026-04-18T16:20:39.654Z</time></trkpt><trkpt lat="9.8223673" lon="-75.4329814"><ele>79.0</ele><time>2026-04-18T16:20:40.652Z</time></trkpt><trkpt lat="9.8224493" lon="-75.4329145"><ele>79.0</ele><time>2026-04-18T16:20:41.654Z</time></trkpt><trkpt lat="9.8225263" lon="-75.4328414"><ele>79.0</ele><time>2026-04-18T16:20:42.653Z</time></trkpt><trkpt lat="9.8226105" lon="-75.4327692"><ele>78.4</ele><time>2026-04-18T16:20:43.65Z</time></trkpt><trkpt lat="9.8226948" lon="-75.4327019"><ele>77.80000000000001</ele><time>2026-04-18T16:20:44.657Z</time></trkpt><trkpt lat="9.8227792" lon="-75.4326345"><ele>77.19999999999999</ele><time>2026-04-18T16:20:45.659Z</time></trkpt><trkpt lat="9.8228624" lon="-75.4325712"><ele>76.6</ele><time>2026-04-18T16:20:46.655Z</time></trkpt><trkpt lat="9.8229416" lon="-75.4325016"><ele>76.0</ele><time>2026-04-18T16:20:47.655Z</time></trkpt><trkpt lat="9.8230223" lon="-75.4324373"><ele>76.0</ele><time>2026-04-18T16:20:48.66Z</time></trkpt><trkpt lat="9.8231003" lon="-75.4323688"><ele>76.0</ele><time>2026-04-18T16:20:49.656Z</time></trkpt><trkpt lat="9.82318" lon="-75.4323031"><ele>76.0</ele><time>2026-04-18T16:20:50.655Z</time></trkpt><trkpt lat="9.8232621" lon="-75.4322439"><ele>76.0</ele><time>2026-04-18T16:20:51.655Z</time></trkpt><trkpt lat="9.8233441" lon="-75.4321817"><ele>76.0</ele><time>2026-04-18T16:20:52.653Z</time></trkpt><trkpt lat="9.8234218" lon="-75.4321215"><ele>75.6</ele><time>2026-04-18T16:20:53.654Z</time></trkpt><trkpt lat="9.8234985" lon="-75.4320553"><ele>75.19999999999999</ele><time>2026-04-18T16:20:54.653Z</time></trkpt><trkpt lat="9.8235846" lon="-75.4319927"><ele>74.80000000000001</ele><time>2026-04-18T16:20:55.659Z</time></trkpt><trkpt lat="9.823663" lon="-75.4319295"><ele>74.4</ele><time>2026-04-18T16:20:56.657Z</time></trkpt><trkpt lat="9.8237449" lon="-75.4318682"><ele>74.0</ele><time>2026-04-18T16:20:57.658Z</time></trkpt><trkpt lat="9.8238266" lon="-75.4318083"><ele>74.0</ele><time>2026-04-18T16:20:58.656Z</time></trkpt><trkpt lat="9.8239052" lon="-75.4317431"><ele>74.0</ele><time>2026-04-18T16:20:59.656Z</time></trkpt><trkpt lat="9.8239894" lon="-75.4316846"><ele>74.0</ele><time>2026-04-18T16:21:00.656Z</time></trkpt><trkpt lat="9.8240674" lon="-75.4316216"><ele>74.0</ele><time>2026-04-18T16:21:01.659Z</time></trkpt><trkpt lat="9.8241437" lon="-75.431564"><ele>74.0</ele><time>2026-04-18T16:21:02.658Z</time></trkpt><trkpt lat="9.824224" lon="-75.4315025"><ele>74.0</ele><time>2026-04-18T16:21:03.657Z</time></trkpt><trkpt lat="9.8243002" lon="-75.4314382"><ele>74.0</ele><time>2026-04-18T16:21:04.655Z</time></trkpt><trkpt lat="9.8243772" lon="-75.4313721"><ele>74.0</ele><time>2026-04-18T16:21:05.655Z</time></trkpt><trkpt lat="9.8244552" lon="-75.4313125"><ele>74.0</ele><time>2026-04-18T16:21:06.655Z</time></trkpt><trkpt lat="9.8245327" lon="-75.4312533"><ele>74.0</ele><time>2026-04-18T16:21:07.655Z</time></trkpt><trkpt lat="9.8246058" lon="-75.4311927"><ele>74.8</ele><time>2026-04-18T16:21:08.662Z</time></trkpt><trkpt lat="9.8246823" lon="-75.431133"><ele>75.60000000000001</ele><time>2026-04-18T16:21:09.661Z</time></trkpt><trkpt lat="9.824756" lon="-75.4310712"><ele>76.4</ele><time>2026-04-18T16:21:10.66Z</time></trkpt><trkpt lat="9.8248296" lon="-75.4310125"><ele>77.2</ele><time>2026-04-18T16:21:11.656Z</time></trkpt><trkpt lat="9.8249017" lon="-75.4309529"><ele>78.0</ele><time>2026-04-18T16:21:12.657Z</time></trkpt><trkpt lat="9.8249704" lon="-75.4308946"><ele>78.0</ele><time>2026-04-18T16:21:13.656Z</time></trkpt><trkpt lat="9.8250415" lon="-75.430838"><ele>78.0</ele><time>2026-04-18T16:21:14.656Z</time></trkpt><trkpt lat="9.8251163" lon="-75.4307834"><ele>78.0</ele><time>2026-04-18T16:21:15.658Z</time></trkpt><trkpt lat="9.8251922" lon="-75.4307246"><ele>78.0</ele><time>2026-04-18T16:21:16.658Z</time></trkpt><trkpt lat="9.8252645" lon="-75.4306681"><ele>78.0</ele><time>2026-04-18T16:21:17.662Z</time></trkpt><trkpt lat="9.8253364" lon="-75.4306071"><ele>78.0</ele><time>2026-04-18T16:21:18.657Z</time></trkpt><trkpt lat="9.8254083" lon="-75.4305477"><ele>78.0</ele><time>2026-04-18T16:21:19.658Z</time></trkpt><trkpt lat="9.8254806" lon="-75.4304899"><ele>78.0</ele><time>2026-04-18T16:21:20.654Z</time></trkpt><trkpt lat="9.8255527" lon="-75.430431"><ele>78.0</ele><time>2026-04-18T16:21:21.655Z</time></trkpt><trkpt lat="9.8256252" lon="-75.4303774"><ele>78.0</ele><time>2026-04-18T16:21:22.652Z</time></trkpt><trkpt lat="9.8256948" lon="-75.4303228"><ele>78.0</ele><time>2026-04-18T16:21:23.652Z</time></trkpt><trkpt lat="9.8257618" lon="-75.4302682"><ele>78.0</ele><time>2026-04-18T16:21:24.654Z</time></trkpt><trkpt lat="9.8258314" lon="-75.4302113"><ele>78.0</ele><time>2026-04-18T16:21:25.655Z</time></trkpt><trkpt lat="9.8258961" lon="-75.4301546"><ele>78.0</ele><time>2026-04-18T16:21:26.651Z</time></trkpt><trkpt lat="9.8259599" lon="-75.430099"><ele>78.0</ele><time>2026-04-18T16:21:27.654Z</time></trkpt><trkpt lat="9.8260321" lon="-75.4300434"><ele>78.0</ele><time>2026-04-18T16:21:28.653Z</time></trkpt><trkpt lat="9.8261029" lon="-75.4299905"><ele>78.0</ele><time>2026-04-18T16:21:29.655Z</time></trkpt><trkpt lat="9.8261659" lon="-75.4299358"><ele>78.0</ele><time>2026-04-18T16:21:30.655Z</time></trkpt><trkpt lat="9.8262313" lon="-75.4298842"><ele>78.0</ele><time>2026-04-18T16:21:31.655Z</time></trkpt><trkpt lat="9.8262979" lon="-75.42983"><ele>78.0</ele><time>2026-04-18T16:21:32.656Z</time></trkpt><trkpt lat="9.8263679" lon="-75.4297742"><ele>78.0</ele><time>2026-04-18T16:21:33.654Z</time></trkpt><trkpt lat="9.8264385" lon="-75.429717"><ele>78.0</ele><time>2026-04-18T16:21:34.661Z</time></trkpt><trkpt lat="9.8265095" lon="-75.4296628"><ele>78.0</ele><time>2026-04-18T16:21:35.655Z</time></trkpt><trkpt lat="9.8265786" lon="-75.4296099"><ele>78.0</ele><time>2026-04-18T16:21:36.657Z</time></trkpt><trkpt lat="9.8266494" lon="-75.4295548"><ele>78.0</ele><time>2026-04-18T16:21:37.654Z</time></trkpt><trkpt lat="9.826718" lon="-75.4295043"><ele>78.0</ele><time>2026-04-18T16:21:38.656Z</time></trkpt><trkpt lat="9.8267832" lon="-75.4294571"><ele>78.0</ele><time>2026-04-18T16:21:39.654Z</time></trkpt><trkpt lat="9.8268495" lon="-75.4294036"><ele>78.0</ele><time>2026-04-18T16:21:40.659Z</time></trkpt><trkpt lat="9.826914" lon="-75.4293485"><ele>78.0</ele><time>2026-04-18T16:21:41.656Z</time></trkpt><trkpt lat="9.8269777" lon="-75.4292978"><ele>78.0</ele><time>2026-04-18T16:21:42.653Z</time></trkpt><trkpt lat="9.8270419" lon="-75.4292408"><ele>78.0</ele><time>2026-04-18T16:21:43.654Z</time></trkpt><trkpt lat="9.8271101" lon="-75.4291874"><ele>78.0</ele><time>2026-04-18T16:21:44.655Z</time></trkpt><trkpt lat="9.8271786" lon="-75.4291408"><ele>78.0</ele><time>2026-04-18T16:21:45.656Z</time></trkpt><trkpt lat="9.8272434" lon="-75.429089"><ele>78.0</ele><time>2026-04-18T16:21:46.657Z</time></trkpt><trkpt lat="9.8273078" lon="-75.4290425"><ele>78.0</ele><time>2026-04-18T16:21:47.655Z</time></trkpt><trkpt lat="9.8273722" lon="-75.4289911"><ele>78.0</ele><time>2026-04-18T16:21:48.656Z</time></trkpt><trkpt lat="9.8274366" lon="-75.4289428"><ele>78.0</ele><time>2026-04-18T16:21:49.663Z</time></trkpt><trkpt lat="9.8274978" lon="-75.4288961"><ele>78.0</ele><time>2026-04-18T16:21:50.663Z</time></trkpt><trkpt lat="9.8275605" lon="-75.4288464"><ele>78.0</ele><time>2026-04-18T16:21:51.673Z</time></trkpt><trkpt lat="9.8276274" lon="-75.4287978"><ele>78.0</ele><time>2026-04-18T16:21:52.669Z</time></trkpt><trkpt lat="9.8276924" lon="-75.428745"><ele>77.5</ele><time>2026-04-18T16:21:53.655Z</time></trkpt><trkpt lat="9.8277522" lon="-75.4286988"><ele>77.0</ele><time>2026-04-18T16:21:54.653Z</time></trkpt><trkpt lat="9.8278158" lon="-75.4286444"><ele>76.5</ele><time>2026-04-18T16:21:55.657Z</time></trkpt><trkpt lat="9.8278746" lon="-75.4285918"><ele>76.0</ele><time>2026-04-18T16:21:56.654Z</time></trkpt><trkpt lat="9.8279346" lon="-75.4285416"><ele>75.5</ele><time>2026-04-18T16:21:57.653Z</time></trkpt><trkpt lat="9.8280017" lon="-75.4284929"><ele>75.0</ele><time>2026-04-18T16:21:58.657Z</time></trkpt><trkpt lat="9.8280649" lon="-75.4284418"><ele>75.0</ele><time>2026-04-18T16:21:59.654Z</time></trkpt><trkpt lat="9.8281284" lon="-75.4283899"><ele>75.0</ele><time>2026-04-18T16:22:00.652Z</time></trkpt><trkpt lat="9.8281907" lon="-75.4283358"><ele>75.0</ele><time>2026-04-18T16:22:01.653Z</time></trkpt><trkpt lat="9.8282536" lon="-75.4282831"><ele>75.0</ele><time>2026-04-18T16:22:02.653Z</time></trkpt><trkpt lat="9.8283173" lon="-75.4282295"><ele>75.0</ele><time>2026-04-18T16:22:03.651Z</time></trkpt><trkpt lat="9.8283845" lon="-75.42818"><ele>75.0</ele><time>2026-04-18T16:22:04.655Z</time></trkpt><trkpt lat="9.8284525" lon="-75.4281208"><ele>75.4</ele><time>2026-04-18T16:22:05.654Z</time></trkpt><trkpt lat="9.8285248" lon="-75.4280674"><ele>75.8</ele><time>2026-04-18T16:22:06.653Z</time></trkpt><trkpt lat="9.8285918" lon="-75.4280085"><ele>76.2</ele><time>2026-04-18T16:22:07.656Z</time></trkpt><trkpt lat="9.8286606" lon="-75.4279484"><ele>76.6</ele><time>2026-04-18T16:22:08.653Z</time></trkpt><trkpt lat="9.8287356" lon="-75.4278886"><ele>77.0</ele><time>2026-04-18T16:22:09.654Z</time></trkpt><trkpt lat="9.8288074" lon="-75.4278257"><ele>75.6</ele><time>2026-04-18T16:22:10.656Z</time></trkpt><trkpt lat="9.8288859" lon="-75.4277618"><ele>74.2</ele><time>2026-04-18T16:22:11.657Z</time></trkpt><trkpt lat="9.8289637" lon="-75.4276992"><ele>72.8</ele><time>2026-04-18T16:22:12.655Z</time></trkpt><trkpt lat="9.8290405" lon="-75.4276388"><ele>71.4</ele><time>2026-04-18T16:22:13.654Z</time></trkpt><trkpt lat="9.8291217" lon="-75.4275756"><ele>70.0</ele><time>2026-04-18T16:22:14.656Z</time></trkpt><trkpt lat="9.8291997" lon="-75.4275113"><ele>70.0</ele><time>2026-04-18T16:22:15.656Z</time></trkpt><trkpt lat="9.8292698" lon="-75.4274489"><ele>70.0</ele><time>2026-04-18T16:22:16.655Z</time></trkpt><trkpt lat="9.8293465" lon="-75.4273865"><ele>70.0</ele><time>2026-04-18T16:22:17.657Z</time></trkpt><trkpt lat="9.8294239" lon="-75.427326"><ele>70.0</ele><time>2026-04-18T16:22:18.656Z</time></trkpt><trkpt lat="9.8294973" lon="-75.4272663"><ele>70.0</ele><time>2026-04-18T16:22:19.658Z</time></trkpt><trkpt lat="9.8295701" lon="-75.4272067"><ele>69.8</ele><time>2026-04-18T16:22:20.657Z</time></trkpt><trkpt lat="9.8296422" lon="-75.4271491"><ele>69.6</ele><time>2026-04-18T16:22:21.656Z</time></trkpt><trkpt lat="9.829717" lon="-75.427093"><ele>69.4</ele><time>2026-04-18T16:22:22.658Z</time></trkpt><trkpt lat="9.8297846" lon="-75.427037"><ele>69.2</ele><time>2026-04-18T16:22:23.655Z</time></trkpt><trkpt lat="9.8298559" lon="-75.4269796"><ele>69.0</ele><time>2026-04-18T16:22:24.654Z</time></trkpt><trkpt lat="9.8299295" lon="-75.4269174"><ele>69.0</ele><time>2026-04-18T16:22:25.653Z</time></trkpt><trkpt lat="9.8300015" lon="-75.4268558"><ele>69.0</ele><time>2026-04-18T16:22:26.654Z</time></trkpt><trkpt lat="9.8300752" lon="-75.4267973"><ele>69.0</ele><time>2026-04-18T16:22:27.651Z</time></trkpt><trkpt lat="9.8301512" lon="-75.4267351"><ele>69.0</ele><time>2026-04-18T16:22:28.651Z</time></trkpt><trkpt lat="9.8302308" lon="-75.426675"><ele>69.0</ele><time>2026-04-18T16:22:29.653Z</time></trkpt><trkpt lat="9.8303063" lon="-75.426612"><ele>68.2</ele><time>2026-04-18T16:22:30.653Z</time></trkpt><trkpt lat="9.8303837" lon="-75.4265492"><ele>67.4</ele><time>2026-04-18T16:22:31.651Z</time></trkpt><trkpt lat="9.8304634" lon="-75.4264928"><ele>66.6</ele><time>2026-04-18T16:22:32.652Z</time></trkpt><trkpt lat="9.8305379" lon="-75.4264304"><ele>65.8</ele><time>2026-04-18T16:22:33.655Z</time></trkpt><trkpt lat="9.8306134" lon="-75.4263686"><ele>65.0</ele><time>2026-04-18T16:22:34.652Z</time></trkpt><trkpt lat="9.8306855" lon="-75.4263152"><ele>65.0</ele><time>2026-04-18T16:22:35.656Z</time></trkpt><trkpt lat="9.8307563" lon="-75.4262583"><ele>65.0</ele><time>2026-04-18T16:22:36.655Z</time></trkpt><trkpt lat="9.8308251" lon="-75.4261977"><ele>65.0</ele><time>2026-04-18T16:22:37.663Z</time></trkpt><trkpt lat="9.8309001" lon="-75.4261351"><ele>65.0</ele><time>2026-04-18T16:22:38.661Z</time></trkpt><trkpt lat="9.8309802" lon="-75.4260702"><ele>65.0</ele><time>2026-04-18T16:22:39.658Z</time></trkpt><trkpt lat="9.8310571" lon="-75.4260075"><ele>64.2</ele><time>2026-04-18T16:22:40.655Z</time></trkpt><trkpt lat="9.8311378" lon="-75.425942"><ele>63.4</ele><time>2026-04-18T16:22:41.656Z</time></trkpt><trkpt lat="9.8312174" lon="-75.4258763"><ele>62.599999999999994</ele><time>2026-04-18T16:22:42.655Z</time></trkpt><trkpt lat="9.8313013" lon="-75.4258107"><ele>61.8</ele><time>2026-04-18T16:22:43.656Z</time></trkpt><trkpt lat="9.8313862" lon="-75.4257457"><ele>61.0</ele><time>2026-04-18T16:22:44.656Z</time></trkpt><trkpt lat="9.8314711" lon="-75.4256749"><ele>61.0</ele><time>2026-04-18T16:22:45.657Z</time></trkpt><trkpt lat="9.8315545" lon="-75.4256083"><ele>60.99999999999999</ele><time>2026-04-18T16:22:46.657Z</time></trkpt><trkpt lat="9.8316337" lon="-75.4255446"><ele>60.99999999999999</ele><time>2026-04-18T16:22:47.654Z</time></trkpt><trkpt lat="9.8317155" lon="-75.4254802"><ele>61.0</ele><time>2026-04-18T16:22:48.657Z</time></trkpt><trkpt lat="9.8318002" lon="-75.4254112"><ele>61.0</ele><time>2026-04-18T16:22:49.656Z</time></trkpt><trkpt lat="9.831879" lon="-75.4253425"><ele>61.0</ele><time>2026-04-18T16:22:50.656Z</time></trkpt><trkpt lat="9.8319575" lon="-75.4252745"><ele>60.99999999999999</ele><time>2026-04-18T16:22:51.656Z</time></trkpt><trkpt lat="9.8320404" lon="-75.4252111"><ele>60.99999999999999</ele><time>2026-04-18T16:22:52.656Z</time></trkpt><trkpt lat="9.8321267" lon="-75.4251442"><ele>61.0</ele><time>2026-04-18T16:22:53.656Z</time></trkpt><trkpt lat="9.8322144" lon="-75.425085"><ele>61.0</ele><time>2026-04-18T16:22:54.657Z</time></trkpt><trkpt lat="9.8323009" lon="-75.4250212"><ele>61.0</ele><time>2026-04-18T16:22:55.656Z</time></trkpt><trkpt lat="9.8323846" lon="-75.4249559"><ele>60.99999999999999</ele><time>2026-04-18T16:22:56.656Z</time></trkpt><trkpt lat="9.8324689" lon="-75.424887"><ele>60.99999999999999</ele><time>2026-04-18T16:22:57.655Z</time></trkpt><trkpt lat="9.8325506" lon="-75.424821"><ele>61.0</ele><time>2026-04-18T16:22:58.656Z</time></trkpt><trkpt lat="9.8326391" lon="-75.4247531"><ele>61.0</ele><time>2026-04-18T16:22:59.651Z</time></trkpt><trkpt lat="9.8327244" lon="-75.4246827"><ele>60.5</ele><time>2026-04-18T16:23:00.654Z</time></trkpt><trkpt lat="9.8328151" lon="-75.4246138"><ele>60.0</ele><time>2026-04-18T16:23:01.656Z</time></trkpt><trkpt lat="9.8329041" lon="-75.424544"><ele>59.5</ele><time>2026-04-18T16:23:02.653Z</time></trkpt><trkpt lat="9.8329956" lon="-75.4244712"><ele>59.0</ele><time>2026-04-18T16:23:03.651Z</time></trkpt><trkpt lat="9.8330857" lon="-75.4243975"><ele>59.0</ele><time>2026-04-18T16:23:04.654Z</time></trkpt><trkpt lat="9.8331813" lon="-75.4243252"><ele>59.0</ele><time>2026-04-18T16:23:05.649Z</time></trkpt><trkpt lat="9.8332738" lon="-75.4242547"><ele>59.0</ele><time>2026-04-18T16:23:06.654Z</time></trkpt><trkpt lat="9.8333686" lon="-75.4241803"><ele>59.0</ele><time>2026-04-18T16:23:07.663Z</time></trkpt><trkpt lat="9.8334625" lon="-75.4241051"><ele>58.0</ele><time>2026-04-18T16:23:08.661Z</time></trkpt><trkpt lat="9.8335571" lon="-75.4240278"><ele>57.0</ele><time>2026-04-18T16:23:09.657Z</time></trkpt><trkpt lat="9.8336462" lon="-75.4239555"><ele>56.0</ele><time>2026-04-18T16:23:10.656Z</time></trkpt><trkpt lat="9.8337414" lon="-75.4238796"><ele>55.0</ele><time>2026-04-18T16:23:11.655Z</time></trkpt><trkpt lat="9.8338385" lon="-75.4238046"><ele>55.0</ele><time>2026-04-18T16:23:12.654Z</time></trkpt><trkpt lat="9.833939" lon="-75.4237272"><ele>55.0</ele><time>2026-04-18T16:23:13.654Z</time></trkpt><trkpt lat="9.8340364" lon="-75.4236506"><ele>55.0</ele><time>2026-04-18T16:23:14.655Z</time></trkpt><trkpt lat="9.8341304" lon="-75.4235766"><ele>55.0</ele><time>2026-04-18T16:23:15.654Z</time></trkpt><trkpt lat="9.8342244" lon="-75.4234971"><ele>54.0</ele><time>2026-04-18T16:23:16.655Z</time></trkpt><trkpt lat="9.8343157" lon="-75.4234183"><ele>53.0</ele><time>2026-04-18T16:23:17.657Z</time></trkpt><trkpt lat="9.8344113" lon="-75.4233435"><ele>52.0</ele><time>2026-04-18T16:23:18.655Z</time></trkpt><trkpt lat="9.8345051" lon="-75.4232695"><ele>51.0</ele><time>2026-04-18T16:23:19.656Z</time></trkpt><trkpt lat="9.8345984" lon="-75.4231969"><ele>51.0</ele><time>2026-04-18T16:23:20.654Z</time></trkpt><trkpt lat="9.8346904" lon="-75.4231233"><ele>51.0</ele><time>2026-04-18T16:23:21.655Z</time></trkpt><trkpt lat="9.8347824" lon="-75.423052"><ele>51.0</ele><time>2026-04-18T16:23:22.654Z</time></trkpt><trkpt lat="9.8348724" lon="-75.4229808"><ele>51.0</ele><time>2026-04-18T16:23:23.653Z</time></trkpt><trkpt lat="9.8349612" lon="-75.422909"><ele>51.0</ele><time>2026-04-18T16:23:24.655Z</time></trkpt><trkpt lat="9.8350464" lon="-75.4228409"><ele>51.0</ele><time>2026-04-18T16:23:25.655Z</time></trkpt><trkpt lat="9.8351311" lon="-75.4227661"><ele>51.0</ele><time>2026-04-18T16:23:26.652Z</time></trkpt><trkpt lat="9.83522" lon="-75.4226956"><ele>51.0</ele><time>2026-04-18T16:23:27.656Z</time></trkpt><trkpt lat="9.8353049" lon="-75.4226296"><ele>51.0</ele><time>2026-04-18T16:23:28.656Z</time></trkpt><trkpt lat="9.8353882" lon="-75.4225673"><ele>52.4</ele><time>2026-04-18T16:23:29.65Z</time></trkpt><trkpt lat="9.8354673" lon="-75.4225025"><ele>53.8</ele><time>2026-04-18T16:23:30.656Z</time></trkpt><trkpt lat="9.8355456" lon="-75.4224388"><ele>55.199999999999996</ele><time>2026-04-18T16:23:31.656Z</time></trkpt><trkpt lat="9.8356199" lon="-75.4223747"><ele>56.599999999999994</ele><time>2026-04-18T16:23:32.655Z</time></trkpt><trkpt lat="9.8356941" lon="-75.4223108"><ele>58.0</ele><time>2026-04-18T16:23:33.66Z</time></trkpt><trkpt lat="9.8357656" lon="-75.422252"><ele>57.99999999999999</ele><time>2026-04-18T16:23:34.655Z</time></trkpt><trkpt lat="9.8358387" lon="-75.4221921"><ele>58.0</ele><time>2026-04-18T16:23:35.659Z</time></trkpt><trkpt lat="9.8359117" lon="-75.4221369"><ele>58.0</ele><time>2026-04-18T16:23:36.657Z</time></trkpt><trkpt lat="9.8359788" lon="-75.422084"><ele>58.0</ele><time>2026-04-18T16:23:37.655Z</time></trkpt><trkpt lat="9.8360475" lon="-75.4220302"><ele>57.99999999999999</ele><time>2026-04-18T16:23:38.659Z</time></trkpt><trkpt lat="9.8361157" lon="-75.4219802"><ele>58.0</ele><time>2026-04-18T16:23:39.655Z</time></trkpt><trkpt lat="9.8361759" lon="-75.4219258"><ele>58.28571428571429</ele><time>2026-04-18T16:23:40.654Z</time></trkpt><trkpt lat="9.836236" lon="-75.421875"><ele>58.57142857142857</ele><time>2026-04-18T16:23:41.656Z</time></trkpt><trkpt lat="9.8362981" lon="-75.4218298"><ele>58.85714285714286</ele><time>2026-04-18T16:23:42.658Z</time></trkpt><trkpt lat="9.8363536" lon="-75.4217803"><ele>59.142857142857146</ele><time>2026-04-18T16:23:43.654Z</time></trkpt><trkpt lat="9.8364114" lon="-75.4217373"><ele>59.42857142857143</ele><time>2026-04-18T16:23:44.651Z</time></trkpt><trkpt lat="9.8364655" lon="-75.421694"><ele>59.714285714285715</ele><time>2026-04-18T16:23:45.652Z</time></trkpt><trkpt lat="9.8365221" lon="-75.4216474"><ele>60.0</ele><time>2026-04-18T16:23:46.655Z</time></trkpt><trkpt lat="9.8365751" lon="-75.4216031"><ele>60.0</ele><time>2026-04-18T16:23:47.655Z</time></trkpt><trkpt lat="9.8366344" lon="-75.4215631"><ele>60.0</ele><time>2026-04-18T16:23:48.655Z</time></trkpt><trkpt lat="9.8366881" lon="-75.4215282"><ele>60.0</ele><time>2026-04-18T16:23:49.66Z</time></trkpt><trkpt lat="9.8367385" lon="-75.4214815"><ele>60.0</ele><time>2026-04-18T16:23:50.651Z</time></trkpt><trkpt lat="9.8368349" lon="-75.4213947"><ele>60.0</ele><time>2026-04-18T16:23:52.653Z</time></trkpt><trkpt lat="9.8369373" lon="-75.4213182"><ele>59.4</ele><time>2026-04-18T16:23:54.651Z</time></trkpt><trkpt lat="9.8369904" lon="-75.4212807"><ele>58.8</ele><time>2026-04-18T16:23:55.656Z</time></trkpt><trkpt lat="9.8370902" lon="-75.4212"><ele>58.2</ele><time>2026-04-18T16:23:57.654Z</time></trkpt><trkpt lat="9.8371887" lon="-75.4211185"><ele>57.6</ele><time>2026-04-18T16:23:59.651Z</time></trkpt><trkpt lat="9.8372416" lon="-75.4210781"><ele>57.0</ele><time>2026-04-18T16:24:00.654Z</time></trkpt><trkpt lat="9.837296" lon="-75.4210391"><ele>57.0</ele><time>2026-04-18T16:24:01.654Z</time></trkpt><trkpt lat="9.8373439" lon="-75.4209949"><ele>56.99999999999999</ele><time>2026-04-18T16:24:02.65Z</time></trkpt><trkpt lat="9.8373981" lon="-75.4209516"><ele>57.0</ele><time>2026-04-18T16:24:03.65Z</time></trkpt><trkpt lat="9.8374545" lon="-75.4209098"><ele>57.0</ele><time>2026-04-18T16:24:04.656Z</time></trkpt><trkpt lat="9.8375082" lon="-75.4208663"><ele>56.99999999999999</ele><time>2026-04-18T16:24:05.653Z</time></trkpt><trkpt lat="9.8375647" lon="-75.4208219"><ele>57.0</ele><time>2026-04-18T16:24:06.655Z</time></trkpt><trkpt lat="9.8376186" lon="-75.4207751"><ele>57.0</ele><time>2026-04-18T16:24:07.655Z</time></trkpt><trkpt lat="9.8376767" lon="-75.4207302"><ele>56.666666666666664</ele><time>2026-04-18T16:24:08.652Z</time></trkpt><trkpt lat="9.8377312" lon="-75.4206805"><ele>56.33333333333333</ele><time>2026-04-18T16:24:09.655Z</time></trkpt><trkpt lat="9.8377913" lon="-75.4206361"><ele>56.0</ele><time>2026-04-18T16:24:10.652Z</time></trkpt><trkpt lat="9.8378517" lon="-75.4205872"><ele>55.666666666666664</ele><time>2026-04-18T16:24:11.655Z</time></trkpt><trkpt lat="9.8379139" lon="-75.4205412"><ele>55.33333333333333</ele><time>2026-04-18T16:24:12.654Z</time></trkpt><trkpt lat="9.8379744" lon="-75.4204946"><ele>55.0</ele><time>2026-04-18T16:24:13.655Z</time></trkpt><trkpt lat="9.838033" lon="-75.4204489"><ele>54.99999999999999</ele><time>2026-04-18T16:24:14.656Z</time></trkpt><trkpt lat="9.8380966" lon="-75.4204058"><ele>55.0</ele><time>2026-04-18T16:24:15.656Z</time></trkpt><trkpt lat="9.8381589" lon="-75.420352"><ele>55.0</ele><time>2026-04-18T16:24:16.657Z</time></trkpt><trkpt lat="9.8382213" lon="-75.4203007"><ele>55.0</ele><time>2026-04-18T16:24:17.656Z</time></trkpt><trkpt lat="9.838287" lon="-75.4202442"><ele>54.99999999999999</ele><time>2026-04-18T16:24:18.655Z</time></trkpt><trkpt lat="9.838351" lon="-75.4201898"><ele>55.0</ele><time>2026-04-18T16:24:19.659Z</time></trkpt><trkpt lat="9.8384176" lon="-75.4201364"><ele>54.6</ele><time>2026-04-18T16:24:20.658Z</time></trkpt><trkpt lat="9.8384877" lon="-75.4200761"><ele>54.2</ele><time>2026-04-18T16:24:21.653Z</time></trkpt><trkpt lat="9.8385658" lon="-75.4200208"><ele>53.8</ele><time>2026-04-18T16:24:22.655Z</time></trkpt><trkpt lat="9.8386403" lon="-75.4199616"><ele>53.4</ele><time>2026-04-18T16:24:23.654Z</time></trkpt><trkpt lat="9.8387121" lon="-75.4198994"><ele>53.0</ele><time>2026-04-18T16:24:24.652Z</time></trkpt><trkpt lat="9.8387849" lon="-75.4198356"><ele>53.0</ele><time>2026-04-18T16:24:25.653Z</time></trkpt><trkpt lat="9.8388598" lon="-75.4197743"><ele>53.0</ele><time>2026-04-18T16:24:26.653Z</time></trkpt><trkpt lat="9.8389354" lon="-75.4197098"><ele>53.0</ele><time>2026-04-18T16:24:27.654Z</time></trkpt><trkpt lat="9.8390143" lon="-75.4196469"><ele>53.0</ele><time>2026-04-18T16:24:28.651Z</time></trkpt><trkpt lat="9.8390942" lon="-75.4195771"><ele>53.0</ele><time>2026-04-18T16:24:29.65Z</time></trkpt><trkpt lat="9.8391765" lon="-75.4195108"><ele>51.75</ele><time>2026-04-18T16:24:30.652Z</time></trkpt><trkpt lat="9.8392653" lon="-75.4194438"><ele>50.5</ele><time>2026-04-18T16:24:31.655Z</time></trkpt><trkpt lat="9.8393537" lon="-75.419372"><ele>49.25</ele><time>2026-04-18T16:24:32.653Z</time></trkpt><trkpt lat="9.8394403" lon="-75.4192946"><ele>48.0</ele><time>2026-04-18T16:24:33.652Z</time></trkpt><trkpt lat="9.8395345" lon="-75.4192168"><ele>48.0</ele><time>2026-04-18T16:24:34.656Z</time></trkpt><trkpt lat="9.8396295" lon="-75.4191378"><ele>48.0</ele><time>2026-04-18T16:24:35.657Z</time></trkpt><trkpt lat="9.8397235" lon="-75.419063"><ele>48.0</ele><time>2026-04-18T16:24:36.654Z</time></trkpt><trkpt lat="9.8398211" lon="-75.4189875"><ele>48.0</ele><time>2026-04-18T16:24:37.657Z</time></trkpt><trkpt lat="9.8399183" lon="-75.41891"><ele>48.0</ele><time>2026-04-18T16:24:38.656Z</time></trkpt><trkpt lat="9.8400205" lon="-75.4188296"><ele>48.0</ele><time>2026-04-18T16:24:39.654Z</time></trkpt><trkpt lat="9.8401234" lon="-75.4187532"><ele>48.0</ele><time>2026-04-18T16:24:40.66Z</time></trkpt><trkpt lat="9.8402176" lon="-75.4186748"><ele>48.0</ele><time>2026-04-18T16:24:41.656Z</time></trkpt><trkpt lat="9.8403122" lon="-75.4186043"><ele>46.75</ele><time>2026-04-18T16:24:42.653Z</time></trkpt><trkpt lat="9.840406" lon="-75.4185246"><ele>45.5</ele><time>2026-04-18T16:24:43.658Z</time></trkpt><trkpt lat="9.8404992" lon="-75.4184491"><ele>44.25</ele><time>2026-04-18T16:24:44.664Z</time></trkpt><trkpt lat="9.8405906" lon="-75.4183703"><ele>43.0</ele><time>2026-04-18T16:24:45.655Z</time></trkpt><trkpt lat="9.840691" lon="-75.4182966"><ele>43.0</ele><time>2026-04-18T16:24:46.654Z</time></trkpt><trkpt lat="9.8407868" lon="-75.4182195"><ele>43.0</ele><time>2026-04-18T16:24:47.656Z</time></trkpt><trkpt lat="9.840884" lon="-75.4181446"><ele>43.0</ele><time>2026-04-18T16:24:48.655Z</time></trkpt><trkpt lat="9.8409804" lon="-75.4180673"><ele>43.0</ele><time>2026-04-18T16:24:49.657Z</time></trkpt><trkpt lat="9.8410776" lon="-75.4179875"><ele>42.75</ele><time>2026-04-18T16:24:50.654Z</time></trkpt><trkpt lat="9.8411745" lon="-75.417909"><ele>42.5</ele><time>2026-04-18T16:24:51.658Z</time></trkpt><trkpt lat="9.8412715" lon="-75.4178303"><ele>42.25</ele><time>2026-04-18T16:24:52.658Z</time></trkpt><trkpt lat="9.841368" lon="-75.4177552"><ele>42.0</ele><time>2026-04-18T16:24:53.655Z</time></trkpt><trkpt lat="9.8414599" lon="-75.4176853"><ele>42.0</ele><time>2026-04-18T16:24:54.651Z</time></trkpt><trkpt lat="9.8415603" lon="-75.417614"><ele>42.0</ele><time>2026-04-18T16:24:55.654Z</time></trkpt><trkpt lat="9.8416568" lon="-75.4175331"><ele>42.0</ele><time>2026-04-18T16:24:56.652Z</time></trkpt><trkpt lat="9.8417479" lon="-75.4174606"><ele>42.0</ele><time>2026-04-18T16:24:57.657Z</time></trkpt><trkpt lat="9.8418475" lon="-75.4173868"><ele>41.8</ele><time>2026-04-18T16:24:58.655Z</time></trkpt><trkpt lat="9.8419384" lon="-75.4173104"><ele>41.6</ele><time>2026-04-18T16:24:59.656Z</time></trkpt><trkpt lat="9.8420252" lon="-75.4172419"><ele>41.4</ele><time>2026-04-18T16:25:00.651Z</time></trkpt><trkpt lat="9.8421133" lon="-75.4171704"><ele>41.199999999999996</ele><time>2026-04-18T16:25:01.656Z</time></trkpt><trkpt lat="9.8421918" lon="-75.4171027"><ele>41.0</ele><time>2026-04-18T16:25:02.654Z</time></trkpt><trkpt lat="9.8422778" lon="-75.4170327"><ele>41.0</ele><time>2026-04-18T16:25:03.653Z</time></trkpt><trkpt lat="9.8423586" lon="-75.4169649"><ele>41.0</ele><time>2026-04-18T16:25:04.653Z</time></trkpt><trkpt lat="9.8424441" lon="-75.4168961"><ele>41.0</ele><time>2026-04-18T16:25:05.653Z</time></trkpt><trkpt lat="9.8425267" lon="-75.4168251"><ele>41.0</ele><time>2026-04-18T16:25:06.654Z</time></trkpt><trkpt lat="9.8426073" lon="-75.4167588"><ele>41.0</ele><time>2026-04-18T16:25:07.654Z</time></trkpt><trkpt lat="9.8426862" lon="-75.4166955"><ele>41.0</ele><time>2026-04-18T16:25:08.656Z</time></trkpt><trkpt lat="9.8427622" lon="-75.4166339"><ele>41.0</ele><time>2026-04-18T16:25:09.654Z</time></trkpt><trkpt lat="9.8428419" lon="-75.4165705"><ele>41.0</ele><time>2026-04-18T16:25:10.655Z</time></trkpt><trkpt lat="9.8429181" lon="-75.4165133"><ele>41.0</ele><time>2026-04-18T16:25:11.655Z</time></trkpt><trkpt lat="9.8429937" lon="-75.4164565"><ele>41.0</ele><time>2026-04-18T16:25:12.656Z</time></trkpt><trkpt lat="9.8430629" lon="-75.4164048"><ele>41.0</ele><time>2026-04-18T16:25:13.659Z</time></trkpt><trkpt lat="9.8431308" lon="-75.4163453"><ele>41.0</ele><time>2026-04-18T16:25:14.659Z</time></trkpt><trkpt lat="9.8431948" lon="-75.4162908"><ele>41.0</ele><time>2026-04-18T16:25:15.656Z</time></trkpt><trkpt lat="9.8432612" lon="-75.4162381"><ele>41.0</ele><time>2026-04-18T16:25:16.657Z</time></trkpt><trkpt lat="9.843326" lon="-75.4161894"><ele>41.0</ele><time>2026-04-18T16:25:17.656Z</time></trkpt><trkpt lat="9.8433869" lon="-75.4161381"><ele>41.0</ele><time>2026-04-18T16:25:18.653Z</time></trkpt><trkpt lat="9.843449" lon="-75.4160879"><ele>42.0</ele><time>2026-04-18T16:25:19.653Z</time></trkpt><trkpt lat="9.843508" lon="-75.4160391"><ele>43.0</ele><time>2026-04-18T16:25:20.654Z</time></trkpt><trkpt lat="9.8435705" lon="-75.4159903"><ele>44.0</ele><time>2026-04-18T16:25:21.658Z</time></trkpt><trkpt lat="9.8436271" lon="-75.4159427"><ele>45.0</ele><time>2026-04-18T16:25:22.654Z</time></trkpt><trkpt lat="9.8436863" lon="-75.415891"><ele>46.0</ele><time>2026-04-18T16:25:23.654Z</time></trkpt><trkpt lat="9.8437434" lon="-75.4158434"><ele>47.0</ele><time>2026-04-18T16:25:24.651Z</time></trkpt><trkpt lat="9.8438" lon="-75.4157998"><ele>47.0</ele><time>2026-04-18T16:25:25.654Z</time></trkpt><trkpt lat="9.8438565" lon="-75.4157526"><ele>47.0</ele><time>2026-04-18T16:25:26.655Z</time></trkpt><trkpt lat="9.8439116" lon="-75.4157074"><ele>47.0</ele><time>2026-04-18T16:25:27.658Z</time></trkpt><trkpt lat="9.8439679" lon="-75.415664"><ele>47.0</ele><time>2026-04-18T16:25:28.654Z</time></trkpt><trkpt lat="9.8440252" lon="-75.4156224"><ele>47.0</ele><time>2026-04-18T16:25:29.654Z</time></trkpt><trkpt lat="9.8440798" lon="-75.4155852"><ele>47.0</ele><time>2026-04-18T16:25:30.655Z</time></trkpt><trkpt lat="9.8441419" lon="-75.4155468"><ele>47.0</ele><time>2026-04-18T16:25:31.654Z</time></trkpt><trkpt lat="9.8441958" lon="-75.4155097"><ele>47.714285714285715</ele><time>2026-04-18T16:25:32.651Z</time></trkpt><trkpt lat="9.8442477" lon="-75.4154693"><ele>48.42857142857143</ele><time>2026-04-18T16:25:33.654Z</time></trkpt><trkpt lat="9.8443018" lon="-75.415433"><ele>49.14285714285714</ele><time>2026-04-18T16:25:34.652Z</time></trkpt><trkpt lat="9.844361" lon="-75.4154018"><ele>49.85714285714286</ele><time>2026-04-18T16:25:35.652Z</time></trkpt><trkpt lat="9.8444222" lon="-75.4153674"><ele>50.57142857142858</ele><time>2026-04-18T16:25:36.655Z</time></trkpt><trkpt lat="9.8444863" lon="-75.4153397"><ele>51.285714285714285</ele><time>2026-04-18T16:25:37.656Z</time></trkpt><trkpt lat="9.8445481" lon="-75.4153065"><ele>52.0</ele><time>2026-04-18T16:25:38.659Z</time></trkpt><trkpt lat="9.8446146" lon="-75.4152771"><ele>52.0</ele><time>2026-04-18T16:25:39.653Z</time></trkpt><trkpt lat="9.8446769" lon="-75.4152505"><ele>52.0</ele><time>2026-04-18T16:25:40.655Z</time></trkpt><trkpt lat="9.8447433" lon="-75.4152249"><ele>52.0</ele><time>2026-04-18T16:25:41.655Z</time></trkpt><trkpt lat="9.8448088" lon="-75.4152018"><ele>52.0</ele><time>2026-04-18T16:25:42.656Z</time></trkpt><trkpt lat="9.8448735" lon="-75.4151781"><ele>52.0</ele><time>2026-04-18T16:25:43.657Z</time></trkpt><trkpt lat="9.8449377" lon="-75.4151566"><ele>52.0</ele><time>2026-04-18T16:25:44.657Z</time></trkpt><trkpt lat="9.8450089" lon="-75.4151388"><ele>52.0</ele><time>2026-04-18T16:25:45.655Z</time></trkpt><trkpt lat="9.8450757" lon="-75.4151191"><ele>52.57142857142857</ele><time>2026-04-18T16:25:46.655Z</time></trkpt><trkpt lat="9.8451452" lon="-75.4150952"><ele>53.142857142857146</ele><time>2026-04-18T16:25:47.655Z</time></trkpt><trkpt lat="9.845218" lon="-75.4150723"><ele>53.714285714285715</ele><time>2026-04-18T16:25:48.656Z</time></trkpt><trkpt lat="9.8452871" lon="-75.4150518"><ele>54.285714285714285</ele><time>2026-04-18T16:25:49.656Z</time></trkpt><trkpt lat="9.8453568" lon="-75.4150327"><ele>54.85714285714286</ele><time>2026-04-18T16:25:50.654Z</time></trkpt><trkpt lat="9.8454285" lon="-75.4150149"><ele>55.42857142857143</ele><time>2026-04-18T16:25:51.654Z</time></trkpt><trkpt lat="9.8454995" lon="-75.4149961"><ele>56.0</ele><time>2026-04-18T16:25:52.653Z</time></trkpt><trkpt lat="9.8455691" lon="-75.414975"><ele>56.0</ele><time>2026-04-18T16:25:53.653Z</time></trkpt><trkpt lat="9.8456387" lon="-75.4149549"><ele>56.0</ele><time>2026-04-18T16:25:54.654Z</time></trkpt><trkpt lat="9.8457074" lon="-75.4149377"><ele>56.0</ele><time>2026-04-18T16:25:55.654Z</time></trkpt><trkpt lat="9.8457761" lon="-75.4149163"><ele>56.0</ele><time>2026-04-18T16:25:56.651Z</time></trkpt><trkpt lat="9.8458424" lon="-75.4148985"><ele>56.0</ele><time>2026-04-18T16:25:57.654Z</time></trkpt><trkpt lat="9.8459144" lon="-75.4148788"><ele>56.0</ele><time>2026-04-18T16:25:58.652Z</time></trkpt><trkpt lat="9.8459818" lon="-75.4148549"><ele>56.0</ele><time>2026-04-18T16:25:59.655Z</time></trkpt><trkpt lat="9.8460499" lon="-75.414834"><ele>55.285714285714285</ele><time>2026-04-18T16:26:00.653Z</time></trkpt><trkpt lat="9.8461199" lon="-75.4148161"><ele>54.57142857142857</ele><time>2026-04-18T16:26:01.655Z</time></trkpt><trkpt lat="9.8461903" lon="-75.4147954"><ele>53.85714285714286</ele><time>2026-04-18T16:26:02.653Z</time></trkpt><trkpt lat="9.8462581" lon="-75.4147788"><ele>53.14285714285714</ele><time>2026-04-18T16:26:03.65Z</time></trkpt><trkpt lat="9.8463247" lon="-75.4147585"><ele>52.42857142857143</ele><time>2026-04-18T16:26:04.654Z</time></trkpt><trkpt lat="9.8463912" lon="-75.4147411"><ele>51.714285714285715</ele><time>2026-04-18T16:26:05.656Z</time></trkpt><trkpt lat="9.8464579" lon="-75.414723"><ele>51.0</ele><time>2026-04-18T16:26:06.656Z</time></trkpt><trkpt lat="9.8465275" lon="-75.4147062"><ele>51.0</ele><time>2026-04-18T16:26:07.657Z</time></trkpt><trkpt lat="9.846595" lon="-75.4146881"><ele>51.0</ele><time>2026-04-18T16:26:08.656Z</time></trkpt><trkpt lat="9.8466589" lon="-75.414665"><ele>51.0</ele><time>2026-04-18T16:26:09.655Z</time></trkpt><trkpt lat="9.8467259" lon="-75.4146423"><ele>51.0</ele><time>2026-04-18T16:26:10.654Z</time></trkpt><trkpt lat="9.8467913" lon="-75.4146279"><ele>51.0</ele><time>2026-04-18T16:26:11.655Z</time></trkpt><trkpt lat="9.8468561" lon="-75.414608"><ele>51.0</ele><time>2026-04-18T16:26:12.655Z</time></trkpt><trkpt lat="9.8469219" lon="-75.4145906"><ele>51.0</ele><time>2026-04-18T16:26:13.654Z</time></trkpt><trkpt lat="9.8469873" lon="-75.4145692"><ele>51.85714285714286</ele><time>2026-04-18T16:26:14.654Z</time></trkpt><trkpt lat="9.8470554" lon="-75.4145486"><ele>52.714285714285715</ele><time>2026-04-18T16:26:15.654Z</time></trkpt><trkpt lat="9.8471216" lon="-75.4145275"><ele>53.57142857142857</ele><time>2026-04-18T16:26:16.655Z</time></trkpt><trkpt lat="9.8471857" lon="-75.4145075"><ele>54.42857142857143</ele><time>2026-04-18T16:26:17.655Z</time></trkpt><trkpt lat="9.8472523" lon="-75.4144913"><ele>55.28571428571428</ele><time>2026-04-18T16:26:18.655Z</time></trkpt><trkpt lat="9.8473188" lon="-75.4144712"><ele>56.14285714285714</ele><time>2026-04-18T16:26:19.656Z</time></trkpt><trkpt lat="9.8473848" lon="-75.4144508"><ele>57.0</ele><time>2026-04-18T16:26:20.655Z</time></trkpt><trkpt lat="9.8474517" lon="-75.4144318"><ele>57.0</ele><time>2026-04-18T16:26:21.655Z</time></trkpt><trkpt lat="9.8475134" lon="-75.4144159"><ele>56.99999999999999</ele><time>2026-04-18T16:26:22.654Z</time></trkpt><trkpt lat="9.8475814" lon="-75.4143954"><ele>57.0</ele><time>2026-04-18T16:26:23.657Z</time></trkpt><trkpt lat="9.8476474" lon="-75.4143779"><ele>57.0</ele><time>2026-04-18T16:26:24.655Z</time></trkpt><trkpt lat="9.847716" lon="-75.4143639"><ele>56.99999999999999</ele><time>2026-04-18T16:26:25.655Z</time></trkpt><trkpt lat="9.8477831" lon="-75.4143444"><ele>57.0</ele><time>2026-04-18T16:26:26.655Z</time></trkpt><trkpt lat="9.8478527" lon="-75.4143249"><ele>57.0</ele><time>2026-04-18T16:26:27.654Z</time></trkpt><trkpt lat="9.8479205" lon="-75.4143049"><ele>57.0</ele><time>2026-04-18T16:26:28.653Z</time></trkpt><trkpt lat="9.8479895" lon="-75.4142875"><ele>56.99999999999999</ele><time>2026-04-18T16:26:29.656Z</time></trkpt><trkpt lat="9.8480603" lon="-75.4142652"><ele>57.0</ele><time>2026-04-18T16:26:30.652Z</time></trkpt><trkpt lat="9.8481291" lon="-75.4142443"><ele>57.0</ele><time>2026-04-18T16:26:31.654Z</time></trkpt><trkpt lat="9.8482" lon="-75.4142246"><ele>56.99999999999999</ele><time>2026-04-18T16:26:32.657Z</time></trkpt><trkpt lat="9.8482688" lon="-75.4142113"><ele>57.0</ele><time>2026-04-18T16:26:33.655Z</time></trkpt><trkpt lat="9.8483373" lon="-75.4141892"><ele>57.0</ele><time>2026-04-18T16:26:34.66Z</time></trkpt><trkpt lat="9.8484096" lon="-75.4141676"><ele>56.333333333333336</ele><time>2026-04-18T16:26:35.655Z</time></trkpt><trkpt lat="9.8484868" lon="-75.4141481"><ele>55.66666666666667</ele><time>2026-04-18T16:26:36.654Z</time></trkpt><trkpt lat="9.8485618" lon="-75.4141259"><ele>55.0</ele><time>2026-04-18T16:26:37.655Z</time></trkpt><trkpt lat="9.8486402" lon="-75.4141036"><ele>54.333333333333336</ele><time>2026-04-18T16:26:38.654Z</time></trkpt><trkpt lat="9.8487196" lon="-75.4140839"><ele>53.66666666666667</ele><time>2026-04-18T16:26:39.655Z</time></trkpt><trkpt lat="9.8487982" lon="-75.4140583"><ele>53.0</ele><time>2026-04-18T16:26:40.656Z</time></trkpt><trkpt lat="9.8488781" lon="-75.4140415"><ele>53.00000000000001</ele><time>2026-04-18T16:26:41.654Z</time></trkpt><trkpt lat="9.8489571" lon="-75.4140186"><ele>53.0</ele><time>2026-04-18T16:26:42.654Z</time></trkpt><trkpt lat="9.8490373" lon="-75.414001"><ele>53.0</ele><time>2026-04-18T16:26:43.652Z</time></trkpt><trkpt lat="9.8491176" lon="-75.4139761"><ele>53.0</ele><time>2026-04-18T16:26:44.654Z</time></trkpt><trkpt lat="9.8491995" lon="-75.413955"><ele>53.00000000000001</ele><time>2026-04-18T16:26:45.654Z</time></trkpt><trkpt lat="9.8492808" lon="-75.4139296"><ele>53.0</ele><time>2026-04-18T16:26:46.654Z</time></trkpt><trkpt lat="9.8493578" lon="-75.4139129"><ele>53.00000000000001</ele><time>2026-04-18T16:26:47.652Z</time></trkpt><trkpt lat="9.849435" lon="-75.4138931"><ele>53.0</ele><time>2026-04-18T16:26:48.654Z</time></trkpt><trkpt lat="9.849512" lon="-75.4138726"><ele>53.0</ele><time>2026-04-18T16:26:49.658Z</time></trkpt><trkpt lat="9.8495903" lon="-75.4138539"><ele>53.0</ele><time>2026-04-18T16:26:50.659Z</time></trkpt><trkpt lat="9.8496678" lon="-75.4138211"><ele>53.00000000000001</ele><time>2026-04-18T16:26:51.657Z</time></trkpt><trkpt lat="9.8497475" lon="-75.4137984"><ele>53.0</ele><time>2026-04-18T16:26:52.655Z</time></trkpt><trkpt lat="9.8498256" lon="-75.4137712"><ele>52.833333333333336</ele><time>2026-04-18T16:26:53.655Z</time></trkpt><trkpt lat="9.8499046" lon="-75.4137486"><ele>52.66666666666667</ele><time>2026-04-18T16:26:54.655Z</time></trkpt><trkpt lat="9.8499822" lon="-75.4137276"><ele>52.5</ele><time>2026-04-18T16:26:55.654Z</time></trkpt><trkpt lat="9.8500623" lon="-75.4137013"><ele>52.33333333333333</ele><time>2026-04-18T16:26:56.658Z</time></trkpt><trkpt lat="9.8501432" lon="-75.4136799"><ele>52.166666666666664</ele><time>2026-04-18T16:26:57.656Z</time></trkpt><trkpt lat="9.8502294" lon="-75.413659"><ele>52.0</ele><time>2026-04-18T16:26:58.653Z</time></trkpt><trkpt lat="9.8503108" lon="-75.4136414"><ele>51.99999999999999</ele><time>2026-04-18T16:26:59.655Z</time></trkpt><trkpt lat="9.8503902" lon="-75.4136181"><ele>52.0</ele><time>2026-04-18T16:27:00.655Z</time></trkpt><trkpt lat="9.8504722" lon="-75.4135976"><ele>52.0</ele><time>2026-04-18T16:27:01.655Z</time></trkpt><trkpt lat="9.8505505" lon="-75.4135725"><ele>52.0</ele><time>2026-04-18T16:27:02.658Z</time></trkpt><trkpt lat="9.8506331" lon="-75.4135478"><ele>51.99999999999999</ele><time>2026-04-18T16:27:03.658Z</time></trkpt><trkpt lat="9.8507166" lon="-75.413521"><ele>52.0</ele><time>2026-04-18T16:27:04.654Z</time></trkpt><trkpt lat="9.8508008" lon="-75.4134945"><ele>51.99999999999999</ele><time>2026-04-18T16:27:05.656Z</time></trkpt><trkpt lat="9.850886" lon="-75.4134702"><ele>52.0</ele><time>2026-04-18T16:27:06.655Z</time></trkpt><trkpt lat="9.8509695" lon="-75.413444"><ele>52.0</ele><time>2026-04-18T16:27:07.656Z</time></trkpt><trkpt lat="9.851055" lon="-75.4134205"><ele>52.0</ele><time>2026-04-18T16:27:08.656Z</time></trkpt><trkpt lat="9.8511449" lon="-75.4133973"><ele>51.99999999999999</ele><time>2026-04-18T16:27:09.654Z</time></trkpt><trkpt lat="9.8512278" lon="-75.4133699"><ele>52.0</ele><time>2026-04-18T16:27:10.654Z</time></trkpt><trkpt lat="9.8513179" lon="-75.4133505"><ele>51.400000000000006</ele><time>2026-04-18T16:27:11.655Z</time></trkpt><trkpt lat="9.8514049" lon="-75.4133277"><ele>50.800000000000004</ele><time>2026-04-18T16:27:12.655Z</time></trkpt><trkpt lat="9.8514967" lon="-75.4133011"><ele>50.2</ele><time>2026-04-18T16:27:13.656Z</time></trkpt><trkpt lat="9.8515848" lon="-75.4132766"><ele>49.6</ele><time>2026-04-18T16:27:14.654Z</time></trkpt><trkpt lat="9.8516775" lon="-75.4132503"><ele>49.0</ele><time>2026-04-18T16:27:15.654Z</time></trkpt><trkpt lat="9.8517733" lon="-75.413224"><ele>48.6</ele><time>2026-04-18T16:27:16.653Z</time></trkpt><trkpt lat="9.8518661" lon="-75.4131944"><ele>48.2</ele><time>2026-04-18T16:27:17.653Z</time></trkpt><trkpt lat="9.8519624" lon="-75.4131627"><ele>47.800000000000004</ele><time>2026-04-18T16:27:18.655Z</time></trkpt><trkpt lat="9.852061" lon="-75.4131323"><ele>47.400000000000006</ele><time>2026-04-18T16:27:19.655Z</time></trkpt><trkpt lat="9.8521581" lon="-75.4130993"><ele>47.0</ele><time>2026-04-18T16:27:20.653Z</time></trkpt><trkpt lat="9.8522594" lon="-75.413063"><ele>47.0</ele><time>2026-04-18T16:27:21.654Z</time></trkpt><trkpt lat="9.85236" lon="-75.4130238"><ele>47.0</ele><time>2026-04-18T16:27:22.654Z</time></trkpt><trkpt lat="9.8524548" lon="-75.4129777"><ele>47.0</ele><time>2026-04-18T16:27:23.655Z</time></trkpt><trkpt lat="9.8525442" lon="-75.4129286"><ele>47.0</ele><time>2026-04-18T16:27:24.655Z</time></trkpt><trkpt lat="9.8526321" lon="-75.4128734"><ele>47.0</ele><time>2026-04-18T16:27:25.656Z</time></trkpt><trkpt lat="9.8527165" lon="-75.4128131"><ele>46.6</ele><time>2026-04-18T16:27:26.656Z</time></trkpt><trkpt lat="9.852802" lon="-75.4127484"><ele>46.2</ele><time>2026-04-18T16:27:27.654Z</time></trkpt><trkpt lat="9.8528803" lon="-75.4126796"><ele>45.8</ele><time>2026-04-18T16:27:28.654Z</time></trkpt><trkpt lat="9.8529539" lon="-75.41261"><ele>45.4</ele><time>2026-04-18T16:27:29.656Z</time></trkpt><trkpt lat="9.8530256" lon="-75.4125371"><ele>45.0</ele><time>2026-04-18T16:27:30.656Z</time></trkpt><trkpt lat="9.8530956" lon="-75.4124598"><ele>45.0</ele><time>2026-04-18T16:27:31.658Z</time></trkpt><trkpt lat="9.8531559" lon="-75.4123813"><ele>45.0</ele><time>2026-04-18T16:27:32.655Z</time></trkpt><trkpt lat="9.8532082" lon="-75.4122997"><ele>45.0</ele><time>2026-04-18T16:27:33.654Z</time></trkpt><trkpt lat="9.8532605" lon="-75.412217"><ele>45.0</ele><time>2026-04-18T16:27:34.653Z</time></trkpt><trkpt lat="9.8533111" lon="-75.4121312"><ele>45.0</ele><time>2026-04-18T16:27:35.661Z</time></trkpt><trkpt lat="9.8533552" lon="-75.412046"><ele>45.0</ele><time>2026-04-18T16:27:36.652Z</time></trkpt><trkpt lat="9.8533968" lon="-75.4119543"><ele>45.0</ele><time>2026-04-18T16:27:37.654Z</time></trkpt><trkpt lat="9.8534374" lon="-75.4118607"><ele>45.0</ele><time>2026-04-18T16:27:38.654Z</time></trkpt><trkpt lat="9.8534781" lon="-75.4117729"><ele>45.0</ele><time>2026-04-18T16:27:39.654Z</time></trkpt><trkpt lat="9.8535167" lon="-75.4116883"><ele>45.0</ele><time>2026-04-18T16:27:40.656Z</time></trkpt><trkpt lat="9.8535523" lon="-75.411604"><ele>45.2</ele><time>2026-04-18T16:27:41.654Z</time></trkpt><trkpt lat="9.8535911" lon="-75.4115175"><ele>45.4</ele><time>2026-04-18T16:27:42.653Z</time></trkpt><trkpt lat="9.8536279" lon="-75.4114307"><ele>45.599999999999994</ele><time>2026-04-18T16:27:43.654Z</time></trkpt><trkpt lat="9.8536629" lon="-75.4113481"><ele>45.8</ele><time>2026-04-18T16:27:44.654Z</time></trkpt><trkpt lat="9.8536978" lon="-75.4112679"><ele>46.0</ele><time>2026-04-18T16:27:45.654Z</time></trkpt><trkpt lat="9.8537312" lon="-75.4111847"><ele>46.0</ele><time>2026-04-18T16:27:46.654Z</time></trkpt><trkpt lat="9.8537635" lon="-75.4111073"><ele>46.0</ele><time>2026-04-18T16:27:47.655Z</time></trkpt><trkpt lat="9.8537945" lon="-75.4110213"><ele>46.0</ele><time>2026-04-18T16:27:48.658Z</time></trkpt><trkpt lat="9.8538267" lon="-75.4109341"><ele>46.0</ele><time>2026-04-18T16:27:49.658Z</time></trkpt><trkpt lat="9.8538607" lon="-75.410846"><ele>46.0</ele><time>2026-04-18T16:27:50.658Z</time></trkpt><trkpt lat="9.8538973" lon="-75.4107576"><ele>46.0</ele><time>2026-04-18T16:27:51.657Z</time></trkpt><trkpt lat="9.853941" lon="-75.4106687"><ele>46.0</ele><time>2026-04-18T16:27:52.655Z</time></trkpt><trkpt lat="9.8539745" lon="-75.4105764"><ele>46.0</ele><time>2026-04-18T16:27:53.653Z</time></trkpt><trkpt lat="9.8540143" lon="-75.4104901"><ele>46.0</ele><time>2026-04-18T16:27:54.655Z</time></trkpt><trkpt lat="9.8540498" lon="-75.410402"><ele>46.0</ele><time>2026-04-18T16:27:55.652Z</time></trkpt><trkpt lat="9.8540856" lon="-75.4103142"><ele>46.4</ele><time>2026-04-18T16:27:56.653Z</time></trkpt><trkpt lat="9.8541226" lon="-75.4102219"><ele>46.8</ele><time>2026-04-18T16:27:57.656Z</time></trkpt><trkpt lat="9.8541616" lon="-75.4101287"><ele>47.199999999999996</ele><time>2026-04-18T16:27:58.654Z</time></trkpt><trkpt lat="9.8542001" lon="-75.410031"><ele>47.599999999999994</ele><time>2026-04-18T16:27:59.652Z</time></trkpt><trkpt lat="9.854242" lon="-75.4099328"><ele>48.0</ele><time>2026-04-18T16:28:00.653Z</time></trkpt><trkpt lat="9.8542819" lon="-75.4098358"><ele>47.599999999999994</ele><time>2026-04-18T16:28:01.654Z</time></trkpt><trkpt lat="9.8543285" lon="-75.4097398"><ele>47.199999999999996</ele><time>2026-04-18T16:28:02.655Z</time></trkpt><trkpt lat="9.8543741" lon="-75.4096382"><ele>46.8</ele><time>2026-04-18T16:28:03.654Z</time></trkpt><trkpt lat="9.8544151" lon="-75.409541"><ele>46.4</ele><time>2026-04-18T16:28:04.651Z</time></trkpt><trkpt lat="9.8544536" lon="-75.4094425"><ele>46.0</ele><time>2026-04-18T16:28:05.656Z</time></trkpt><trkpt lat="9.8544872" lon="-75.4093445"><ele>43.75</ele><time>2026-04-18T16:28:06.653Z</time></trkpt><trkpt lat="9.8545326" lon="-75.4092404"><ele>41.5</ele><time>2026-04-18T16:28:07.653Z</time></trkpt><trkpt lat="9.8545759" lon="-75.4091338"><ele>39.25</ele><time>2026-04-18T16:28:08.651Z</time></trkpt><trkpt lat="9.8546157" lon="-75.409029"><ele>37.0</ele><time>2026-04-18T16:28:09.653Z</time></trkpt><trkpt lat="9.8546623" lon="-75.4089212"><ele>36.6</ele><time>2026-04-18T16:28:10.657Z</time></trkpt><trkpt lat="9.8547057" lon="-75.408814"><ele>36.2</ele><time>2026-04-18T16:28:11.651Z</time></trkpt><trkpt lat="9.8547549" lon="-75.4087192"><ele>35.8</ele><time>2026-04-18T16:28:12.651Z</time></trkpt><trkpt lat="9.8547959" lon="-75.4086128"><ele>35.4</ele><time>2026-04-18T16:28:13.654Z</time></trkpt><trkpt lat="9.8548419" lon="-75.408505"><ele>35.0</ele><time>2026-04-18T16:28:14.654Z</time></trkpt><trkpt lat="9.8548864" lon="-75.4083988"><ele>35.0</ele><time>2026-04-18T16:28:15.655Z</time></trkpt><trkpt lat="9.8549418" lon="-75.4082912"><ele>35.0</ele><time>2026-04-18T16:28:16.652Z</time></trkpt><trkpt lat="9.8549957" lon="-75.4081856"><ele>35.0</ele><time>2026-04-18T16:28:17.655Z</time></trkpt><trkpt lat="9.8550387" lon="-75.408086"><ele>35.0</ele><time>2026-04-18T16:28:18.651Z</time></trkpt><trkpt lat="9.8550833" lon="-75.4079735"><ele>33.5</ele><time>2026-04-18T16:28:19.655Z</time></trkpt><trkpt lat="9.8551337" lon="-75.4078599"><ele>32.0</ele><time>2026-04-18T16:28:20.657Z</time></trkpt><trkpt lat="9.8551853" lon="-75.407746"><ele>30.5</ele><time>2026-04-18T16:28:21.652Z</time></trkpt><trkpt lat="9.8552295" lon="-75.407631"><ele>29.0</ele><time>2026-04-18T16:28:22.654Z</time></trkpt><trkpt lat="9.8552731" lon="-75.4075233"><ele>29.0</ele><time>2026-04-18T16:28:23.658Z</time></trkpt><trkpt lat="9.8553191" lon="-75.407412"><ele>29.0</ele><time>2026-04-18T16:28:24.656Z</time></trkpt><trkpt lat="9.8553683" lon="-75.4073047"><ele>29.0</ele><time>2026-04-18T16:28:25.653Z</time></trkpt><trkpt lat="9.8554154" lon="-75.407197"><ele>29.0</ele><time>2026-04-18T16:28:26.654Z</time></trkpt><trkpt lat="9.8554564" lon="-75.4070942"><ele>29.6</ele><time>2026-04-18T16:28:27.652Z</time></trkpt><trkpt lat="9.8554969" lon="-75.4069903"><ele>30.2</ele><time>2026-04-18T16:28:28.652Z</time></trkpt><trkpt lat="9.8555409" lon="-75.4068943"><ele>30.800000000000004</ele><time>2026-04-18T16:28:29.655Z</time></trkpt><trkpt lat="9.8555867" lon="-75.4067909"><ele>31.400000000000002</ele><time>2026-04-18T16:28:30.655Z</time></trkpt><trkpt lat="9.855626" lon="-75.4066915"><ele>32.0</ele><time>2026-04-18T16:28:31.656Z</time></trkpt><trkpt lat="9.8556673" lon="-75.4065926"><ele>32.0</ele><time>2026-04-18T16:28:32.654Z</time></trkpt><trkpt lat="9.8557105" lon="-75.4064969"><ele>32.0</ele><time>2026-04-18T16:28:33.656Z</time></trkpt><trkpt lat="9.8557489" lon="-75.406402"><ele>32.0</ele><time>2026-04-18T16:28:34.662Z</time></trkpt><trkpt lat="9.8557894" lon="-75.4063108"><ele>32.0</ele><time>2026-04-18T16:28:35.658Z</time></trkpt><trkpt lat="9.8558321" lon="-75.4062195"><ele>32.0</ele><time>2026-04-18T16:28:36.655Z</time></trkpt><trkpt lat="9.8558726" lon="-75.4061262"><ele>32.0</ele><time>2026-04-18T16:28:37.659Z</time></trkpt><trkpt lat="9.8559121" lon="-75.4060355"><ele>32.0</ele><time>2026-04-18T16:28:38.655Z</time></trkpt><trkpt lat="9.855959" lon="-75.4059448"><ele>32.0</ele><time>2026-04-18T16:28:39.655Z</time></trkpt><trkpt lat="9.8559967" lon="-75.4058543"><ele>32.0</ele><time>2026-04-18T16:28:40.661Z</time></trkpt><trkpt lat="9.8560287" lon="-75.4057616"><ele>32.0</ele><time>2026-04-18T16:28:41.651Z</time></trkpt><trkpt lat="9.8560656" lon="-75.4056705"><ele>32.0</ele><time>2026-04-18T16:28:42.655Z</time></trkpt><trkpt lat="9.8561044" lon="-75.4055832"><ele>32.0</ele><time>2026-04-18T16:28:43.652Z</time></trkpt><trkpt lat="9.8561424" lon="-75.4054941"><ele>32.0</ele><time>2026-04-18T16:28:44.653Z</time></trkpt><trkpt lat="9.8561762" lon="-75.4054026"><ele>32.0</ele><time>2026-04-18T16:28:45.654Z</time></trkpt><trkpt lat="9.8562109" lon="-75.4053122"><ele>32.0</ele><time>2026-04-18T16:28:46.653Z</time></trkpt><trkpt lat="9.8562488" lon="-75.4052187"><ele>32.4</ele><time>2026-04-18T16:28:47.654Z</time></trkpt><trkpt lat="9.8562892" lon="-75.4051267"><ele>32.800000000000004</ele><time>2026-04-18T16:28:48.657Z</time></trkpt><trkpt lat="9.8563234" lon="-75.4050399"><ele>33.2</ele><time>2026-04-18T16:28:49.659Z</time></trkpt><trkpt lat="9.8563564" lon="-75.404947"><ele>33.6</ele><time>2026-04-18T16:28:50.658Z</time></trkpt><trkpt lat="9.8563917" lon="-75.4048582"><ele>34.0</ele><time>2026-04-18T16:28:51.653Z</time></trkpt><trkpt lat="9.8564305" lon="-75.4047734"><ele>34.0</ele><time>2026-04-18T16:28:52.655Z</time></trkpt><trkpt lat="9.8564661" lon="-75.4046851"><ele>34.0</ele><time>2026-04-18T16:28:53.658Z</time></trkpt><trkpt lat="9.8565025" lon="-75.4045994"><ele>34.0</ele><time>2026-04-18T16:28:54.659Z</time></trkpt><trkpt lat="9.8565387" lon="-75.4045119"><ele>34.0</ele><time>2026-04-18T16:28:55.654Z</time></trkpt><trkpt lat="9.8565773" lon="-75.4044267"><ele>34.0</ele><time>2026-04-18T16:28:56.653Z</time></trkpt><trkpt lat="9.8566143" lon="-75.4043419"><ele>33.833333333333336</ele><time>2026-04-18T16:28:57.657Z</time></trkpt><trkpt lat="9.8566472" lon="-75.4042578"><ele>33.66666666666667</ele><time>2026-04-18T16:28:58.653Z</time></trkpt><trkpt lat="9.8566863" lon="-75.4041782"><ele>33.5</ele><time>2026-04-18T16:28:59.657Z</time></trkpt><trkpt lat="9.8567182" lon="-75.4040961"><ele>33.333333333333336</ele><time>2026-04-18T16:29:00.655Z</time></trkpt><trkpt lat="9.8567516" lon="-75.4040189"><ele>33.166666666666664</ele><time>2026-04-18T16:29:01.654Z</time></trkpt><trkpt lat="9.8567884" lon="-75.4039399"><ele>33.0</ele><time>2026-04-18T16:29:02.659Z</time></trkpt><trkpt lat="9.8568259" lon="-75.4038609"><ele>32.833333333333336</ele><time>2026-04-18T16:29:03.654Z</time></trkpt><trkpt lat="9.8568637" lon="-75.4037793"><ele>32.666666666666664</ele><time>2026-04-18T16:29:04.658Z</time></trkpt><trkpt lat="9.8569028" lon="-75.4036988"><ele>32.5</ele><time>2026-04-18T16:29:05.658Z</time></trkpt><trkpt lat="9.8569451" lon="-75.4036214"><ele>32.33333333333333</ele><time>2026-04-18T16:29:06.656Z</time></trkpt><trkpt lat="9.8569861" lon="-75.4035445"><ele>32.166666666666664</ele><time>2026-04-18T16:29:07.656Z</time></trkpt><trkpt lat="9.8570318" lon="-75.4034701"><ele>32.0</ele><time>2026-04-18T16:29:08.658Z</time></trkpt><trkpt lat="9.8570795" lon="-75.4033998"><ele>31.999999999999996</ele><time>2026-04-18T16:29:09.659Z</time></trkpt><trkpt lat="9.8571265" lon="-75.4033308"><ele>32.0</ele><time>2026-04-18T16:29:10.651Z</time></trkpt><trkpt lat="9.8571768" lon="-75.4032624"><ele>32.0</ele><time>2026-04-18T16:29:11.655Z</time></trkpt><trkpt lat="9.8572292" lon="-75.4031944"><ele>32.0</ele><time>2026-04-18T16:29:12.653Z</time></trkpt><trkpt lat="9.8572777" lon="-75.4031324"><ele>31.999999999999996</ele><time>2026-04-18T16:29:13.659Z</time></trkpt><trkpt lat="9.8573399" lon="-75.4030725"><ele>32.0</ele><time>2026-04-18T16:29:14.653Z</time></trkpt><trkpt lat="9.8573921" lon="-75.4030148"><ele>32.83333333333333</ele><time>2026-04-18T16:29:15.654Z</time></trkpt><trkpt lat="9.8574557" lon="-75.4029595"><ele>33.666666666666664</ele><time>2026-04-18T16:29:16.653Z</time></trkpt><trkpt lat="9.8575179" lon="-75.4029017"><ele>34.5</ele><time>2026-04-18T16:29:17.653Z</time></trkpt><trkpt lat="9.8575808" lon="-75.4028492"><ele>35.333333333333336</ele><time>2026-04-18T16:29:18.652Z</time></trkpt><trkpt lat="9.8576461" lon="-75.4027978"><ele>36.16666666666667</ele><time>2026-04-18T16:29:19.657Z</time></trkpt><trkpt lat="9.8577097" lon="-75.4027558"><ele>37.0</ele><time>2026-04-18T16:29:20.654Z</time></trkpt><trkpt lat="9.8577829" lon="-75.402709"><ele>37.333333333333336</ele><time>2026-04-18T16:29:21.651Z</time></trkpt><trkpt lat="9.8578489" lon="-75.4026586"><ele>37.66666666666667</ele><time>2026-04-18T16:29:22.656Z</time></trkpt><trkpt lat="9.8579162" lon="-75.402612"><ele>38.0</ele><time>2026-04-18T16:29:23.656Z</time></trkpt><trkpt lat="9.8579866" lon="-75.402568"><ele>38.333333333333336</ele><time>2026-04-18T16:29:24.658Z</time></trkpt><trkpt lat="9.8580572" lon="-75.4025231"><ele>38.666666666666664</ele><time>2026-04-18T16:29:25.653Z</time></trkpt><trkpt lat="9.8581256" lon="-75.4024741"><ele>39.0</ele><time>2026-04-18T16:29:26.655Z</time></trkpt><trkpt lat="9.858193" lon="-75.4024306"><ele>39.0</ele><time>2026-04-18T16:29:27.659Z</time></trkpt><trkpt lat="9.8582585" lon="-75.4023875"><ele>39.0</ele><time>2026-04-18T16:29:28.66Z</time></trkpt><trkpt lat="9.8583273" lon="-75.402341"><ele>39.0</ele><time>2026-04-18T16:29:29.658Z</time></trkpt><trkpt lat="9.8583964" lon="-75.4022975"><ele>39.0</ele><time>2026-04-18T16:29:30.656Z</time></trkpt><trkpt lat="9.858466" lon="-75.4022549"><ele>39.0</ele><time>2026-04-18T16:29:31.655Z</time></trkpt><trkpt lat="9.8585345" lon="-75.402212"><ele>39.0</ele><time>2026-04-18T16:29:32.658Z</time></trkpt><trkpt lat="9.8586032" lon="-75.4021655"><ele>39.166666666666664</ele><time>2026-04-18T16:29:33.654Z</time></trkpt><trkpt lat="9.858675" lon="-75.4021296"><ele>39.333333333333336</ele><time>2026-04-18T16:29:34.655Z</time></trkpt><trkpt lat="9.8587438" lon="-75.4020902"><ele>39.5</ele><time>2026-04-18T16:29:35.652Z</time></trkpt><trkpt lat="9.8588064" lon="-75.402045"><ele>39.66666666666667</ele><time>2026-04-18T16:29:36.654Z</time></trkpt><trkpt lat="9.8588712" lon="-75.4020089"><ele>39.833333333333336</ele><time>2026-04-18T16:29:37.656Z</time></trkpt><trkpt lat="9.8589356" lon="-75.4019688"><ele>40.0</ele><time>2026-04-18T16:29:38.654Z</time></trkpt><trkpt lat="9.8589912" lon="-75.4019239"><ele>40.0</ele><time>2026-04-18T16:29:39.655Z</time></trkpt><trkpt lat="9.85906" lon="-75.4018822"><ele>40.0</ele><time>2026-04-18T16:29:40.655Z</time></trkpt><trkpt lat="9.8591251" lon="-75.4018403"><ele>40.0</ele><time>2026-04-18T16:29:41.653Z</time></trkpt><trkpt lat="9.8591907" lon="-75.4017987"><ele>40.0</ele><time>2026-04-18T16:29:42.655Z</time></trkpt><trkpt lat="9.8592598" lon="-75.4017549"><ele>40.0</ele><time>2026-04-18T16:29:43.654Z</time></trkpt><trkpt lat="9.8593254" lon="-75.4017125"><ele>40.0</ele><time>2026-04-18T16:29:44.656Z</time></trkpt><trkpt lat="9.8593905" lon="-75.4016685"><ele>39.16666666666667</ele><time>2026-04-18T16:29:45.658Z</time></trkpt><trkpt lat="9.8594642" lon="-75.4016268"><ele>38.333333333333336</ele><time>2026-04-18T16:29:46.655Z</time></trkpt><trkpt lat="9.8595354" lon="-75.4015868"><ele>37.5</ele><time>2026-04-18T16:29:47.653Z</time></trkpt><trkpt lat="9.859604" lon="-75.4015443"><ele>36.666666666666664</ele><time>2026-04-18T16:29:48.654Z</time></trkpt><trkpt lat="9.8596719" lon="-75.4015015"><ele>35.83333333333333</ele><time>2026-04-18T16:29:49.653Z</time></trkpt><trkpt lat="9.8597349" lon="-75.401461"><ele>35.0</ele><time>2026-04-18T16:29:50.652Z</time></trkpt><trkpt lat="9.8598037" lon="-75.4014262"><ele>35.0</ele><time>2026-04-18T16:29:51.654Z</time></trkpt><trkpt lat="9.8598756" lon="-75.4013861"><ele>35.0</ele><time>2026-04-18T16:29:52.654Z</time></trkpt><trkpt lat="9.8599488" lon="-75.4013444"><ele>35.0</ele><time>2026-04-18T16:29:53.652Z</time></trkpt><trkpt lat="9.8600245" lon="-75.4012956"><ele>35.0</ele><time>2026-04-18T16:29:54.652Z</time></trkpt><trkpt lat="9.8601066" lon="-75.4012424"><ele>35.0</ele><time>2026-04-18T16:29:55.652Z</time></trkpt><trkpt lat="9.8601791" lon="-75.4011919"><ele>35.0</ele><time>2026-04-18T16:29:56.655Z</time></trkpt><trkpt lat="9.8602629" lon="-75.4011396"><ele>34.6</ele><time>2026-04-18T16:29:57.655Z</time></trkpt><trkpt lat="9.8603463" lon="-75.4010848"><ele>34.2</ele><time>2026-04-18T16:29:58.659Z</time></trkpt><trkpt lat="9.8604335" lon="-75.4010358"><ele>33.8</ele><time>2026-04-18T16:29:59.655Z</time></trkpt><trkpt lat="9.8605161" lon="-75.4009858"><ele>33.4</ele><time>2026-04-18T16:30:00.654Z</time></trkpt><trkpt lat="9.8605995" lon="-75.4009326"><ele>33.0</ele><time>2026-04-18T16:30:01.659Z</time></trkpt><trkpt lat="9.8606851" lon="-75.4008845"><ele>33.0</ele><time>2026-04-18T16:30:02.656Z</time></trkpt><trkpt lat="9.8607688" lon="-75.4008336"><ele>33.0</ele><time>2026-04-18T16:30:03.654Z</time></trkpt><trkpt lat="9.8608486" lon="-75.4007784"><ele>33.0</ele><time>2026-04-18T16:30:04.654Z</time></trkpt><trkpt lat="9.860931" lon="-75.4007191"><ele>33.0</ele><time>2026-04-18T16:30:05.656Z</time></trkpt><trkpt lat="9.8610139" lon="-75.4006652"><ele>33.0</ele><time>2026-04-18T16:30:06.653Z</time></trkpt><trkpt lat="9.8610949" lon="-75.4006101"><ele>32.8</ele><time>2026-04-18T16:30:07.658Z</time></trkpt><trkpt lat="9.8611783" lon="-75.4005501"><ele>32.599999999999994</ele><time>2026-04-18T16:30:08.657Z</time></trkpt><trkpt lat="9.8612637" lon="-75.4004931"><ele>32.400000000000006</ele><time>2026-04-18T16:30:09.655Z</time></trkpt><trkpt lat="9.8613469" lon="-75.4004395"><ele>32.2</ele><time>2026-04-18T16:30:10.656Z</time></trkpt><trkpt lat="9.8614316" lon="-75.4003868"><ele>32.0</ele><time>2026-04-18T16:30:11.653Z</time></trkpt><trkpt lat="9.8615159" lon="-75.4003314"><ele>32.0</ele><time>2026-04-18T16:30:12.653Z</time></trkpt><trkpt lat="9.8616033" lon="-75.4002762"><ele>32.0</ele><time>2026-04-18T16:30:13.654Z</time></trkpt><trkpt lat="9.861691" lon="-75.40022"><ele>32.0</ele><time>2026-04-18T16:30:14.655Z</time></trkpt><trkpt lat="9.8617728" lon="-75.4001686"><ele>32.0</ele><time>2026-04-18T16:30:15.654Z</time></trkpt><trkpt lat="9.8618557" lon="-75.4001238"><ele>32.0</ele><time>2026-04-18T16:30:16.654Z</time></trkpt><trkpt lat="9.8619398" lon="-75.4000733"><ele>32.6</ele><time>2026-04-18T16:30:17.655Z</time></trkpt><trkpt lat="9.8620251" lon="-75.4000151"><ele>33.2</ele><time>2026-04-18T16:30:18.649Z</time></trkpt><trkpt lat="9.8621083" lon="-75.3999567"><ele>33.8</ele><time>2026-04-18T16:30:19.657Z</time></trkpt><trkpt lat="9.862192" lon="-75.3999007"><ele>34.4</ele><time>2026-04-18T16:30:20.661Z</time></trkpt><trkpt lat="9.8622748" lon="-75.3998514"><ele>35.0</ele><time>2026-04-18T16:30:21.657Z</time></trkpt><trkpt lat="9.8623586" lon="-75.3997981"><ele>35.0</ele><time>2026-04-18T16:30:22.66Z</time></trkpt><trkpt lat="9.8624463" lon="-75.3997439"><ele>35.0</ele><time>2026-04-18T16:30:23.662Z</time></trkpt><trkpt lat="9.8625333" lon="-75.3996905"><ele>35.0</ele><time>2026-04-18T16:30:24.658Z</time></trkpt><trkpt lat="9.8626146" lon="-75.3996329"><ele>35.0</ele><time>2026-04-18T16:30:25.65Z</time></trkpt><trkpt lat="9.8627004" lon="-75.399578"><ele>35.0</ele><time>2026-04-18T16:30:26.651Z</time></trkpt><trkpt lat="9.8627852" lon="-75.3995271"><ele>34.2</ele><time>2026-04-18T16:30:27.656Z</time></trkpt><trkpt lat="9.8628678" lon="-75.3994716"><ele>33.4</ele><time>2026-04-18T16:30:28.654Z</time></trkpt><trkpt lat="9.8629495" lon="-75.3994213"><ele>32.6</ele><time>2026-04-18T16:30:29.653Z</time></trkpt><trkpt lat="9.8630318" lon="-75.3993696"><ele>31.8</ele><time>2026-04-18T16:30:30.653Z</time></trkpt><trkpt lat="9.8631124" lon="-75.3993141"><ele>31.0</ele><time>2026-04-18T16:30:31.653Z</time></trkpt><trkpt lat="9.8631961" lon="-75.3992628"><ele>31.0</ele><time>2026-04-18T16:30:32.654Z</time></trkpt><trkpt lat="9.8632746" lon="-75.3992081"><ele>31.0</ele><time>2026-04-18T16:30:33.654Z</time></trkpt><trkpt lat="9.8633522" lon="-75.3991585"><ele>31.0</ele><time>2026-04-18T16:30:34.654Z</time></trkpt><trkpt lat="9.8634325" lon="-75.3991099"><ele>31.0</ele><time>2026-04-18T16:30:35.657Z</time></trkpt><trkpt lat="9.8635142" lon="-75.3990612"><ele>31.0</ele><time>2026-04-18T16:30:36.659Z</time></trkpt><trkpt lat="9.8635929" lon="-75.3990082"><ele>30.8</ele><time>2026-04-18T16:30:37.656Z</time></trkpt><trkpt lat="9.8636744" lon="-75.398959"><ele>30.6</ele><time>2026-04-18T16:30:38.654Z</time></trkpt><trkpt lat="9.8637526" lon="-75.3989063"><ele>30.4</ele><time>2026-04-18T16:30:39.655Z</time></trkpt><trkpt lat="9.8638328" lon="-75.3988576"><ele>30.2</ele><time>2026-04-18T16:30:40.655Z</time></trkpt><trkpt lat="9.8639119" lon="-75.3988031"><ele>30.0</ele><time>2026-04-18T16:30:41.654Z</time></trkpt><trkpt lat="9.8639911" lon="-75.398751"><ele>30.2</ele><time>2026-04-18T16:30:42.652Z</time></trkpt><trkpt lat="9.8640686" lon="-75.3986983"><ele>30.4</ele><time>2026-04-18T16:30:43.653Z</time></trkpt><trkpt lat="9.8641517" lon="-75.3986493"><ele>30.6</ele><time>2026-04-18T16:30:44.653Z</time></trkpt><trkpt lat="9.8642278" lon="-75.3985979"><ele>30.8</ele><time>2026-04-18T16:30:45.655Z</time></trkpt><trkpt lat="9.8643071" lon="-75.3985454"><ele>31.0</ele><time>2026-04-18T16:30:46.652Z</time></trkpt><trkpt lat="9.8643816" lon="-75.3984963"><ele>31.0</ele><time>2026-04-18T16:30:47.656Z</time></trkpt><trkpt lat="9.8644601" lon="-75.3984469"><ele>31.0</ele><time>2026-04-18T16:30:48.655Z</time></trkpt><trkpt lat="9.864537" lon="-75.3983983"><ele>31.0</ele><time>2026-04-18T16:30:49.656Z</time></trkpt><trkpt lat="9.8646179" lon="-75.3983466"><ele>31.0</ele><time>2026-04-18T16:30:50.656Z</time></trkpt><trkpt lat="9.8646942" lon="-75.3982968"><ele>31.0</ele><time>2026-04-18T16:30:51.655Z</time></trkpt><trkpt lat="9.8647701" lon="-75.3982503"><ele>31.0</ele><time>2026-04-18T16:30:52.655Z</time></trkpt><trkpt lat="9.8648462" lon="-75.398201"><ele>31.0</ele><time>2026-04-18T16:30:53.654Z</time></trkpt><trkpt lat="9.8649237" lon="-75.3981494"><ele>31.0</ele><time>2026-04-18T16:30:54.655Z</time></trkpt><trkpt lat="9.8649983" lon="-75.3980986"><ele>31.0</ele><time>2026-04-18T16:30:55.655Z</time></trkpt><trkpt lat="9.8650735" lon="-75.3980475"><ele>31.0</ele><time>2026-04-18T16:30:56.653Z</time></trkpt><trkpt lat="9.8651531" lon="-75.3980012"><ele>30.833333333333336</ele><time>2026-04-18T16:30:57.656Z</time></trkpt><trkpt lat="9.8652297" lon="-75.3979497"><ele>30.666666666666668</ele><time>2026-04-18T16:30:58.652Z</time></trkpt><trkpt lat="9.8653049" lon="-75.3979"><ele>30.5</ele><time>2026-04-18T16:30:59.652Z</time></trkpt><trkpt lat="9.86538" lon="-75.3978494"><ele>30.333333333333336</ele><time>2026-04-18T16:31:00.653Z</time></trkpt><trkpt lat="9.8654551" lon="-75.3978001"><ele>30.166666666666668</ele><time>2026-04-18T16:31:01.653Z</time></trkpt><trkpt lat="9.86553" lon="-75.3977526"><ele>30.0</ele><time>2026-04-18T16:31:02.652Z</time></trkpt><trkpt lat="9.8656076" lon="-75.3977064"><ele>30.0</ele><time>2026-04-18T16:31:03.653Z</time></trkpt><trkpt lat="9.8656801" lon="-75.3976566"><ele>30.0</ele><time>2026-04-18T16:31:04.653Z</time></trkpt><trkpt lat="9.865755" lon="-75.3976103"><ele>30.0</ele><time>2026-04-18T16:31:05.655Z</time></trkpt><trkpt lat="9.8658303" lon="-75.397561"><ele>30.0</ele><time>2026-04-18T16:31:06.653Z</time></trkpt><trkpt lat="9.8659063" lon="-75.3975125"><ele>30.0</ele><time>2026-04-18T16:31:07.653Z</time></trkpt><trkpt lat="9.8659848" lon="-75.3974655"><ele>30.0</ele><time>2026-04-18T16:31:08.657Z</time></trkpt><trkpt lat="9.8660657" lon="-75.3974161"><ele>29.6</ele><time>2026-04-18T16:31:09.654Z</time></trkpt><trkpt lat="9.8661431" lon="-75.3973668"><ele>29.2</ele><time>2026-04-18T16:31:10.65Z</time></trkpt><trkpt lat="9.8662225" lon="-75.3973175"><ele>28.799999999999997</ele><time>2026-04-18T16:31:11.653Z</time></trkpt><trkpt lat="9.8663005" lon="-75.3972696"><ele>28.4</ele><time>2026-04-18T16:31:12.654Z</time></trkpt><trkpt lat="9.8663755" lon="-75.397218"><ele>28.0</ele><time>2026-04-18T16:31:13.661Z</time></trkpt><trkpt lat="9.8664542" lon="-75.3971689"><ele>28.799999999999997</ele><time>2026-04-18T16:31:14.654Z</time></trkpt><trkpt lat="9.866528" lon="-75.3971186"><ele>29.599999999999998</ele><time>2026-04-18T16:31:15.652Z</time></trkpt><trkpt lat="9.8666045" lon="-75.3970658"><ele>30.400000000000002</ele><time>2026-04-18T16:31:16.652Z</time></trkpt><trkpt lat="9.8666804" lon="-75.3970155"><ele>31.200000000000003</ele><time>2026-04-18T16:31:17.654Z</time></trkpt><trkpt lat="9.8667531" lon="-75.3969623"><ele>32.0</ele><time>2026-04-18T16:31:18.653Z</time></trkpt><trkpt lat="9.8668279" lon="-75.3969113"><ele>31.999999999999996</ele><time>2026-04-18T16:31:19.654Z</time></trkpt><trkpt lat="9.8668994" lon="-75.3968624"><ele>32.0</ele><time>2026-04-18T16:31:20.654Z</time></trkpt><trkpt lat="9.8669723" lon="-75.3968148"><ele>32.0</ele><time>2026-04-18T16:31:21.653Z</time></trkpt><trkpt lat="9.8670441" lon="-75.3967666"><ele>32.0</ele><time>2026-04-18T16:31:22.654Z</time></trkpt><trkpt lat="9.8671208" lon="-75.396717"><ele>31.999999999999996</ele><time>2026-04-18T16:31:23.653Z</time></trkpt><trkpt lat="9.8671965" lon="-75.3966724"><ele>32.0</ele><time>2026-04-18T16:31:24.655Z</time></trkpt><trkpt lat="9.8672706" lon="-75.3966285"><ele>32.0</ele><time>2026-04-18T16:31:25.653Z</time></trkpt><trkpt lat="9.8673525" lon="-75.396579"><ele>32.0</ele><time>2026-04-18T16:31:26.654Z</time></trkpt><trkpt lat="9.8674296" lon="-75.3965315"><ele>32.0</ele><time>2026-04-18T16:31:27.655Z</time></trkpt><trkpt lat="9.8675028" lon="-75.3964829"><ele>32.0</ele><time>2026-04-18T16:31:28.662Z</time></trkpt><trkpt lat="9.8675747" lon="-75.3964319"><ele>32.0</ele><time>2026-04-18T16:31:29.66Z</time></trkpt><trkpt lat="9.8676503" lon="-75.3963805"><ele>31.833333333333332</ele><time>2026-04-18T16:31:30.655Z</time></trkpt><trkpt lat="9.8677236" lon="-75.3963323"><ele>31.666666666666664</ele><time>2026-04-18T16:31:31.656Z</time></trkpt><trkpt lat="9.8677981" lon="-75.396282"><ele>31.5</ele><time>2026-04-18T16:31:32.654Z</time></trkpt><trkpt lat="9.8678712" lon="-75.396233"><ele>31.333333333333336</ele><time>2026-04-18T16:31:33.654Z</time></trkpt><trkpt lat="9.8679458" lon="-75.3961829"><ele>31.166666666666668</ele><time>2026-04-18T16:31:34.653Z</time></trkpt><trkpt lat="9.8680168" lon="-75.3961346"><ele>31.0</ele><time>2026-04-18T16:31:35.651Z</time></trkpt><trkpt lat="9.8680911" lon="-75.3960851"><ele>31.000000000000004</ele><time>2026-04-18T16:31:36.652Z</time></trkpt><trkpt lat="9.8681657" lon="-75.3960374"><ele>31.0</ele><time>2026-04-18T16:31:37.653Z</time></trkpt><trkpt lat="9.868241" lon="-75.3959947"><ele>31.0</ele><time>2026-04-18T16:31:38.651Z</time></trkpt><trkpt lat="9.8683174" lon="-75.3959483"><ele>31.0</ele><time>2026-04-18T16:31:39.653Z</time></trkpt><trkpt lat="9.8683945" lon="-75.3958956"><ele>31.000000000000004</ele><time>2026-04-18T16:31:40.652Z</time></trkpt><trkpt lat="9.8684691" lon="-75.3958451"><ele>31.0</ele><time>2026-04-18T16:31:41.652Z</time></trkpt><trkpt lat="9.8685414" lon="-75.3957949"><ele>30.833333333333336</ele><time>2026-04-18T16:31:42.651Z</time></trkpt><trkpt lat="9.8686149" lon="-75.3957469"><ele>30.666666666666668</ele><time>2026-04-18T16:31:43.657Z</time></trkpt><trkpt lat="9.8686923" lon="-75.3956992"><ele>30.5</ele><time>2026-04-18T16:31:44.658Z</time></trkpt><trkpt lat="9.8687685" lon="-75.395653"><ele>30.333333333333336</ele><time>2026-04-18T16:31:45.654Z</time></trkpt><trkpt lat="9.8688423" lon="-75.3955983"><ele>30.166666666666668</ele><time>2026-04-18T16:31:46.655Z</time></trkpt><trkpt lat="9.8689133" lon="-75.3955513"><ele>30.0</ele><time>2026-04-18T16:31:47.656Z</time></trkpt><trkpt lat="9.8689887" lon="-75.3955014"><ele>30.0</ele><time>2026-04-18T16:31:48.654Z</time></trkpt><trkpt lat="9.8690617" lon="-75.3954499"><ele>30.0</ele><time>2026-04-18T16:31:49.656Z</time></trkpt><trkpt lat="9.8691317" lon="-75.3954048"><ele>30.0</ele><time>2026-04-18T16:31:50.655Z</time></trkpt><trkpt lat="9.8692049" lon="-75.395354"><ele>30.0</ele><time>2026-04-18T16:31:51.651Z</time></trkpt><trkpt lat="9.8692783" lon="-75.3953054"><ele>30.0</ele><time>2026-04-18T16:31:52.653Z</time></trkpt><trkpt lat="9.8693503" lon="-75.3952604"><ele>30.0</ele><time>2026-04-18T16:31:53.651Z</time></trkpt><trkpt lat="9.8694181" lon="-75.395211"><ele>30.333333333333332</ele><time>2026-04-18T16:31:54.65Z</time></trkpt><trkpt lat="9.8694884" lon="-75.3951691"><ele>30.666666666666664</ele><time>2026-04-18T16:31:55.651Z</time></trkpt><trkpt lat="9.869558" lon="-75.3951254"><ele>31.0</ele><time>2026-04-18T16:31:56.652Z</time></trkpt><trkpt lat="9.8696299" lon="-75.3950742"><ele>31.333333333333332</ele><time>2026-04-18T16:31:57.652Z</time></trkpt><trkpt lat="9.8697039" lon="-75.3950242"><ele>31.666666666666664</ele><time>2026-04-18T16:31:58.652Z</time></trkpt><trkpt lat="9.8697764" lon="-75.3949739"><ele>32.0</ele><time>2026-04-18T16:31:59.658Z</time></trkpt><trkpt lat="9.8698431" lon="-75.3949298"><ele>31.999999999999996</ele><time>2026-04-18T16:32:00.65Z</time></trkpt><trkpt lat="9.8699159" lon="-75.3948829"><ele>32.0</ele><time>2026-04-18T16:32:01.656Z</time></trkpt><trkpt lat="9.8699889" lon="-75.3948375"><ele>32.0</ele><time>2026-04-18T16:32:02.661Z</time></trkpt><trkpt lat="9.870066" lon="-75.3947915"><ele>32.0</ele><time>2026-04-18T16:32:03.653Z</time></trkpt><trkpt lat="9.8701381" lon="-75.3947504"><ele>31.999999999999996</ele><time>2026-04-18T16:32:04.655Z</time></trkpt><trkpt lat="9.8702139" lon="-75.394709"><ele>32.0</ele><time>2026-04-18T16:32:05.654Z</time></trkpt><trkpt lat="9.8702855" lon="-75.3946622"><ele>32.166666666666664</ele><time>2026-04-18T16:32:06.652Z</time></trkpt><trkpt lat="9.8703574" lon="-75.3946203"><ele>32.33333333333333</ele><time>2026-04-18T16:32:07.658Z</time></trkpt><trkpt lat="9.8704285" lon="-75.3945752"><ele>32.5</ele><time>2026-04-18T16:32:08.653Z</time></trkpt><trkpt lat="9.870499" lon="-75.394529"><ele>32.666666666666664</ele><time>2026-04-18T16:32:09.652Z</time></trkpt><trkpt lat="9.8705705" lon="-75.39448"><ele>32.833333333333336</ele><time>2026-04-18T16:32:10.652Z</time></trkpt><trkpt lat="9.8706359" lon="-75.3944329"><ele>33.0</ele><time>2026-04-18T16:32:11.653Z</time></trkpt><trkpt lat="9.8707081" lon="-75.3943853"><ele>33.0</ele><time>2026-04-18T16:32:12.655Z</time></trkpt><trkpt lat="9.8707798" lon="-75.3943373"><ele>33.0</ele><time>2026-04-18T16:32:13.653Z</time></trkpt><trkpt lat="9.8708494" lon="-75.3942923"><ele>33.0</ele><time>2026-04-18T16:32:14.651Z</time></trkpt><trkpt lat="9.8709249" lon="-75.3942471"><ele>33.0</ele><time>2026-04-18T16:32:15.653Z</time></trkpt><trkpt lat="9.8709917" lon="-75.3942025"><ele>33.0</ele><time>2026-04-18T16:32:16.657Z</time></trkpt><trkpt lat="9.8710625" lon="-75.3941524"><ele>33.0</ele><time>2026-04-18T16:32:17.656Z</time></trkpt><trkpt lat="9.871135" lon="-75.3941101"><ele>32.833333333333336</ele><time>2026-04-18T16:32:18.656Z</time></trkpt><trkpt lat="9.8712063" lon="-75.3940654"><ele>32.666666666666664</ele><time>2026-04-18T16:32:19.661Z</time></trkpt><trkpt lat="9.8712753" lon="-75.3940177"><ele>32.5</ele><time>2026-04-18T16:32:20.655Z</time></trkpt><trkpt lat="9.8713458" lon="-75.3939721"><ele>32.33333333333333</ele><time>2026-04-18T16:32:21.651Z</time></trkpt><trkpt lat="9.8714141" lon="-75.3939286"><ele>32.166666666666664</ele><time>2026-04-18T16:32:22.66Z</time></trkpt><trkpt lat="9.8714805" lon="-75.3938848"><ele>32.0</ele><time>2026-04-18T16:32:23.652Z</time></trkpt><trkpt lat="9.87155" lon="-75.3938426"><ele>32.285714285714285</ele><time>2026-04-18T16:32:24.654Z</time></trkpt><trkpt lat="9.8716133" lon="-75.393803"><ele>32.57142857142857</ele><time>2026-04-18T16:32:25.652Z</time></trkpt><trkpt lat="9.8716783" lon="-75.39376"><ele>32.857142857142854</ele><time>2026-04-18T16:32:26.65Z</time></trkpt><trkpt lat="9.8717398" lon="-75.3937199"><ele>33.14285714285714</ele><time>2026-04-18T16:32:27.653Z</time></trkpt><trkpt lat="9.8718013" lon="-75.3936796"><ele>33.42857142857143</ele><time>2026-04-18T16:32:28.653Z</time></trkpt><trkpt lat="9.8718568" lon="-75.3936383"><ele>33.71428571428571</ele><time>2026-04-18T16:32:29.654Z</time></trkpt><trkpt lat="9.871912" lon="-75.3935991"><ele>34.0</ele><time>2026-04-18T16:32:30.654Z</time></trkpt><trkpt lat="9.871965" lon="-75.3935592"><ele>34.0</ele><time>2026-04-18T16:32:31.653Z</time></trkpt><trkpt lat="9.8720641" lon="-75.393487"><ele>34.0</ele><time>2026-04-18T16:32:33.65Z</time></trkpt><trkpt lat="9.8721628" lon="-75.3934136"><ele>34.0</ele><time>2026-04-18T16:32:35.654Z</time></trkpt><trkpt lat="9.8722179" lon="-75.3933799"><ele>34.0</ele><time>2026-04-18T16:32:36.656Z</time></trkpt><trkpt lat="9.8722712" lon="-75.3933438"><ele>34.0</ele><time>2026-04-18T16:32:37.655Z</time></trkpt><trkpt lat="9.8723728" lon="-75.3932798"><ele>34.0</ele><time>2026-04-18T16:32:39.654Z</time></trkpt><trkpt lat="9.8724652" lon="-75.3932187"><ele>34.0</ele><time>2026-04-18T16:32:41.653Z</time></trkpt><trkpt lat="9.8725625" lon="-75.3931608"><ele>34.0</ele><time>2026-04-18T16:32:43.658Z</time></trkpt><trkpt lat="9.8726206" lon="-75.393131"><ele>34.0</ele><time>2026-04-18T16:32:44.655Z</time></trkpt><trkpt lat="9.8726812" lon="-75.3930963"><ele>34.0</ele><time>2026-04-18T16:32:45.65Z</time></trkpt><trkpt lat="9.8727442" lon="-75.3930639"><ele>34.0</ele><time>2026-04-18T16:32:46.653Z</time></trkpt><trkpt lat="9.8728117" lon="-75.3930298"><ele>33.5</ele><time>2026-04-18T16:32:47.652Z</time></trkpt><trkpt lat="9.8728775" lon="-75.3929929"><ele>33.0</ele><time>2026-04-18T16:32:48.651Z</time></trkpt><trkpt lat="9.8729454" lon="-75.3929587"><ele>32.5</ele><time>2026-04-18T16:32:49.653Z</time></trkpt><trkpt lat="9.8730091" lon="-75.3929218"><ele>32.0</ele><time>2026-04-18T16:32:50.653Z</time></trkpt><trkpt lat="9.8730776" lon="-75.392876"><ele>31.500000000000004</ele><time>2026-04-18T16:32:51.653Z</time></trkpt><trkpt lat="9.8731452" lon="-75.3928312"><ele>31.0</ele><time>2026-04-18T16:32:52.654Z</time></trkpt><trkpt lat="9.8732134" lon="-75.3927847"><ele>31.000000000000004</ele><time>2026-04-18T16:32:53.654Z</time></trkpt><trkpt lat="9.8732803" lon="-75.3927376"><ele>31.0</ele><time>2026-04-18T16:32:54.655Z</time></trkpt><trkpt lat="9.873351" lon="-75.3926916"><ele>31.0</ele><time>2026-04-18T16:32:55.654Z</time></trkpt><trkpt lat="9.8734252" lon="-75.3926425"><ele>31.0</ele><time>2026-04-18T16:32:56.653Z</time></trkpt><trkpt lat="9.8734963" lon="-75.3925984"><ele>31.000000000000004</ele><time>2026-04-18T16:32:57.656Z</time></trkpt><trkpt lat="9.8735639" lon="-75.3925531"><ele>31.0</ele><time>2026-04-18T16:32:58.652Z</time></trkpt><trkpt lat="9.8736362" lon="-75.3925101"><ele>30.666666666666668</ele><time>2026-04-18T16:32:59.654Z</time></trkpt><trkpt lat="9.8737046" lon="-75.3924672"><ele>30.333333333333336</ele><time>2026-04-18T16:33:00.654Z</time></trkpt><trkpt lat="9.8737724" lon="-75.392423"><ele>30.0</ele><time>2026-04-18T16:33:01.65Z</time></trkpt><trkpt lat="9.8738361" lon="-75.392384"><ele>29.666666666666664</ele><time>2026-04-18T16:33:02.655Z</time></trkpt><trkpt lat="9.8738973" lon="-75.3923399"><ele>29.333333333333332</ele><time>2026-04-18T16:33:03.655Z</time></trkpt><trkpt lat="9.8739586" lon="-75.3922961"><ele>29.0</ele><time>2026-04-18T16:33:04.653Z</time></trkpt><trkpt lat="9.87402" lon="-75.3922576"><ele>28.999999999999996</ele><time>2026-04-18T16:33:05.654Z</time></trkpt><trkpt lat="9.8740798" lon="-75.3922221"><ele>29.0</ele><time>2026-04-18T16:33:06.653Z</time></trkpt><trkpt lat="9.8741372" lon="-75.3921876"><ele>29.0</ele><time>2026-04-18T16:33:07.654Z</time></trkpt><trkpt lat="9.8742499" lon="-75.3921284"><ele>29.0</ele><time>2026-04-18T16:33:09.652Z</time></trkpt><trkpt lat="9.8743075" lon="-75.3920946"><ele>28.999999999999996</ele><time>2026-04-18T16:33:10.651Z</time></trkpt><trkpt lat="9.8743639" lon="-75.3920617"><ele>29.0</ele><time>2026-04-18T16:33:11.65Z</time></trkpt><trkpt lat="9.8744188" lon="-75.3920249"><ele>30.0</ele><time>2026-04-18T16:33:12.655Z</time></trkpt><trkpt lat="9.8744759" lon="-75.3919901"><ele>31.0</ele><time>2026-04-18T16:33:13.658Z</time></trkpt><trkpt lat="9.8745824" lon="-75.3919226"><ele>32.0</ele><time>2026-04-18T16:33:15.654Z</time></trkpt><trkpt lat="9.8746381" lon="-75.3918851"><ele>33.0</ele><time>2026-04-18T16:33:16.656Z</time></trkpt><trkpt lat="9.8746934" lon="-75.3918501"><ele>34.0</ele><time>2026-04-18T16:33:17.652Z</time></trkpt><trkpt lat="9.8748033" lon="-75.3917794"><ele>33.99999999999999</ele><time>2026-04-18T16:33:19.655Z</time></trkpt><trkpt lat="9.8748611" lon="-75.3917432"><ele>34.0</ele><time>2026-04-18T16:33:20.654Z</time></trkpt><trkpt lat="9.8749173" lon="-75.3917029"><ele>34.0</ele><time>2026-04-18T16:33:21.651Z</time></trkpt><trkpt lat="9.8749744" lon="-75.3916674"><ele>34.0</ele><time>2026-04-18T16:33:22.655Z</time></trkpt><trkpt lat="9.8750319" lon="-75.3916318"><ele>34.0</ele><time>2026-04-18T16:33:23.651Z</time></trkpt><trkpt lat="9.8750856" lon="-75.3915973"><ele>33.99999999999999</ele><time>2026-04-18T16:33:24.653Z</time></trkpt><trkpt lat="9.8751392" lon="-75.3915627"><ele>34.0</ele><time>2026-04-18T16:33:25.653Z</time></trkpt><trkpt lat="9.8751896" lon="-75.391524"><ele>34.0</ele><time>2026-04-18T16:33:26.662Z</time></trkpt><trkpt lat="9.8752992" lon="-75.3914568"><ele>34.0</ele><time>2026-04-18T16:33:28.652Z</time></trkpt><trkpt lat="9.8753551" lon="-75.3914179"><ele>34.0</ele><time>2026-04-18T16:33:29.655Z</time></trkpt><trkpt lat="9.8754144" lon="-75.39138"><ele>34.0</ele><time>2026-04-18T16:33:30.652Z</time></trkpt><trkpt lat="9.875473" lon="-75.3913395"><ele>34.0</ele><time>2026-04-18T16:33:31.652Z</time></trkpt><trkpt lat="9.8755332" lon="-75.3913028"><ele>34.0</ele><time>2026-04-18T16:33:32.653Z</time></trkpt><trkpt lat="9.8755989" lon="-75.3912643"><ele>33.99999999999999</ele><time>2026-04-18T16:33:33.652Z</time></trkpt><trkpt lat="9.8756565" lon="-75.3912273"><ele>34.0</ele><time>2026-04-18T16:33:34.652Z</time></trkpt><trkpt lat="9.8757214" lon="-75.3911883"><ele>34.0</ele><time>2026-04-18T16:33:35.651Z</time></trkpt><trkpt lat="9.8757839" lon="-75.3911496"><ele>34.0</ele><time>2026-04-18T16:33:36.648Z</time></trkpt><trkpt lat="9.8758467" lon="-75.3911063"><ele>34.0</ele><time>2026-04-18T16:33:37.655Z</time></trkpt><trkpt lat="9.8759086" lon="-75.391069"><ele>33.99999999999999</ele><time>2026-04-18T16:33:38.653Z</time></trkpt><trkpt lat="9.8759735" lon="-75.3910242"><ele>34.0</ele><time>2026-04-18T16:33:39.654Z</time></trkpt><trkpt lat="9.8760375" lon="-75.3909847"><ele>33.0</ele><time>2026-04-18T16:33:40.651Z</time></trkpt><trkpt lat="9.8761003" lon="-75.3909444"><ele>32.0</ele><time>2026-04-18T16:33:41.655Z</time></trkpt><trkpt lat="9.8761679" lon="-75.3908984"><ele>31.0</ele><time>2026-04-18T16:33:42.655Z</time></trkpt><trkpt lat="9.8762324" lon="-75.3908569"><ele>30.0</ele><time>2026-04-18T16:33:43.654Z</time></trkpt><trkpt lat="9.8762966" lon="-75.3908125"><ele>29.000000000000004</ele><time>2026-04-18T16:33:44.656Z</time></trkpt><trkpt lat="9.8763666" lon="-75.3907719"><ele>28.0</ele><time>2026-04-18T16:33:45.657Z</time></trkpt><trkpt lat="9.8764334" lon="-75.3907298"><ele>28.000000000000004</ele><time>2026-04-18T16:33:46.654Z</time></trkpt><trkpt lat="9.8765" lon="-75.3906854"><ele>28.0</ele><time>2026-04-18T16:33:47.653Z</time></trkpt><trkpt lat="9.8765686" lon="-75.3906408"><ele>28.0</ele><time>2026-04-18T16:33:48.653Z</time></trkpt><trkpt lat="9.8766402" lon="-75.3905942"><ele>28.0</ele><time>2026-04-18T16:33:49.654Z</time></trkpt><trkpt lat="9.8767158" lon="-75.3905518"><ele>28.000000000000004</ele><time>2026-04-18T16:33:50.654Z</time></trkpt><trkpt lat="9.8767874" lon="-75.3905003"><ele>28.0</ele><time>2026-04-18T16:33:51.652Z</time></trkpt><trkpt lat="9.8768603" lon="-75.3904485"><ele>29.0</ele><time>2026-04-18T16:33:52.652Z</time></trkpt><trkpt lat="9.876939" lon="-75.3904025"><ele>29.999999999999996</ele><time>2026-04-18T16:33:53.654Z</time></trkpt><trkpt lat="9.8770169" lon="-75.3903549"><ele>30.999999999999996</ele><time>2026-04-18T16:33:54.654Z</time></trkpt><trkpt lat="9.8770955" lon="-75.390302"><ele>32.0</ele><time>2026-04-18T16:33:55.657Z</time></trkpt><trkpt lat="9.8771739" lon="-75.3902466"><ele>33.0</ele><time>2026-04-18T16:33:56.652Z</time></trkpt><trkpt lat="9.8772536" lon="-75.390196"><ele>33.0</ele><time>2026-04-18T16:33:57.653Z</time></trkpt><trkpt lat="9.8773319" lon="-75.3901425"><ele>33.0</ele><time>2026-04-18T16:33:58.661Z</time></trkpt><trkpt lat="9.8774117" lon="-75.3900932"><ele>33.0</ele><time>2026-04-18T16:33:59.654Z</time></trkpt><trkpt lat="9.8774872" lon="-75.3900392"><ele>33.0</ele><time>2026-04-18T16:34:00.652Z</time></trkpt><trkpt lat="9.8775693" lon="-75.3899885"><ele>33.0</ele><time>2026-04-18T16:34:01.653Z</time></trkpt><trkpt lat="9.8776553" lon="-75.3899384"><ele>32.8</ele><time>2026-04-18T16:34:02.654Z</time></trkpt><trkpt lat="9.8777369" lon="-75.3898843"><ele>32.599999999999994</ele><time>2026-04-18T16:34:03.652Z</time></trkpt><trkpt lat="9.877818" lon="-75.389835"><ele>32.400000000000006</ele><time>2026-04-18T16:34:04.653Z</time></trkpt><trkpt lat="9.8779005" lon="-75.3897815"><ele>32.2</ele><time>2026-04-18T16:34:05.657Z</time></trkpt><trkpt lat="9.8779802" lon="-75.389728"><ele>32.0</ele><time>2026-04-18T16:34:06.653Z</time></trkpt><trkpt lat="9.8780603" lon="-75.3896814"><ele>31.8</ele><time>2026-04-18T16:34:07.653Z</time></trkpt><trkpt lat="9.8781409" lon="-75.3896337"><ele>31.6</ele><time>2026-04-18T16:34:08.653Z</time></trkpt><trkpt lat="9.8782247" lon="-75.3895878"><ele>31.400000000000002</ele><time>2026-04-18T16:34:09.651Z</time></trkpt><trkpt lat="9.8783085" lon="-75.3895474"><ele>31.200000000000003</ele><time>2026-04-18T16:34:10.658Z</time></trkpt><trkpt lat="9.8783922" lon="-75.3895073"><ele>31.0</ele><time>2026-04-18T16:34:11.654Z</time></trkpt><trkpt lat="9.8784805" lon="-75.3894711"><ele>30.6</ele><time>2026-04-18T16:34:12.649Z</time></trkpt><trkpt lat="9.8785706" lon="-75.389434"><ele>30.200000000000003</ele><time>2026-04-18T16:34:13.652Z</time></trkpt><trkpt lat="9.8786607" lon="-75.3893967"><ele>29.799999999999997</ele><time>2026-04-18T16:34:14.651Z</time></trkpt><trkpt lat="9.878745" lon="-75.3893611"><ele>29.4</ele><time>2026-04-18T16:34:15.654Z</time></trkpt><trkpt lat="9.8788303" lon="-75.3893264"><ele>29.0</ele><time>2026-04-18T16:34:16.653Z</time></trkpt><trkpt lat="9.8789181" lon="-75.3892939"><ele>29.0</ele><time>2026-04-18T16:34:17.654Z</time></trkpt><trkpt lat="9.8790037" lon="-75.3892574"><ele>29.0</ele><time>2026-04-18T16:34:18.656Z</time></trkpt><trkpt lat="9.8790879" lon="-75.3892207"><ele>29.0</ele><time>2026-04-18T16:34:19.655Z</time></trkpt><trkpt lat="9.8791734" lon="-75.3891877"><ele>29.0</ele><time>2026-04-18T16:34:20.655Z</time></trkpt><trkpt lat="9.8792604" lon="-75.3891572"><ele>29.0</ele><time>2026-04-18T16:34:21.657Z</time></trkpt><trkpt lat="9.8793443" lon="-75.3891246"><ele>29.166666666666664</ele><time>2026-04-18T16:34:22.651Z</time></trkpt><trkpt lat="9.8794261" lon="-75.3890941"><ele>29.333333333333332</ele><time>2026-04-18T16:34:23.652Z</time></trkpt><trkpt lat="9.8795074" lon="-75.389064"><ele>29.5</ele><time>2026-04-18T16:34:24.655Z</time></trkpt><trkpt lat="9.8795829" lon="-75.3890348"><ele>29.666666666666664</ele><time>2026-04-18T16:34:25.655Z</time></trkpt><trkpt lat="9.8796599" lon="-75.3890056"><ele>29.833333333333332</ele><time>2026-04-18T16:34:26.658Z</time></trkpt><trkpt lat="9.8797304" lon="-75.3889778"><ele>30.0</ele><time>2026-04-18T16:34:27.648Z</time></trkpt><trkpt lat="9.8798019" lon="-75.3889519"><ele>30.0</ele><time>2026-04-18T16:34:28.655Z</time></trkpt><trkpt lat="9.8798713" lon="-75.3889259"><ele>30.0</ele><time>2026-04-18T16:34:29.658Z</time></trkpt><trkpt lat="9.8799416" lon="-75.388901"><ele>30.0</ele><time>2026-04-18T16:34:30.655Z</time></trkpt><trkpt lat="9.8800084" lon="-75.3888737"><ele>30.0</ele><time>2026-04-18T16:34:31.654Z</time></trkpt><trkpt lat="9.8800733" lon="-75.3888483"><ele>30.0</ele><time>2026-04-18T16:34:32.655Z</time></trkpt><trkpt lat="9.8801392" lon="-75.3888262"><ele>30.0</ele><time>2026-04-18T16:34:33.651Z</time></trkpt><trkpt lat="9.8802073" lon="-75.3888007"><ele>30.0</ele><time>2026-04-18T16:34:34.652Z</time></trkpt><trkpt lat="9.8802703" lon="-75.3887801"><ele>30.666666666666668</ele><time>2026-04-18T16:34:35.653Z</time></trkpt><trkpt lat="9.880331" lon="-75.3887564"><ele>31.333333333333336</ele><time>2026-04-18T16:34:36.651Z</time></trkpt><trkpt lat="9.8804511" lon="-75.3887091"><ele>32.0</ele><time>2026-04-18T16:34:38.655Z</time></trkpt><trkpt lat="9.8805123" lon="-75.3886851"><ele>32.66666666666667</ele><time>2026-04-18T16:34:39.653Z</time></trkpt><trkpt lat="9.8805764" lon="-75.3886646"><ele>33.333333333333336</ele><time>2026-04-18T16:34:40.654Z</time></trkpt><trkpt lat="9.8806417" lon="-75.3886415"><ele>34.0</ele><time>2026-04-18T16:34:41.656Z</time></trkpt><trkpt lat="9.8807053" lon="-75.3886182"><ele>33.99999999999999</ele><time>2026-04-18T16:34:42.651Z</time></trkpt><trkpt lat="9.8807737" lon="-75.3885949"><ele>34.0</ele><time>2026-04-18T16:34:43.661Z</time></trkpt><trkpt lat="9.8808411" lon="-75.3885692"><ele>34.0</ele><time>2026-04-18T16:34:44.657Z</time></trkpt><trkpt lat="9.8809029" lon="-75.3885491"><ele>34.0</ele><time>2026-04-18T16:34:45.654Z</time></trkpt><trkpt lat="9.8809708" lon="-75.3885251"><ele>34.0</ele><time>2026-04-18T16:34:46.655Z</time></trkpt><trkpt lat="9.8810372" lon="-75.3884997"><ele>33.99999999999999</ele><time>2026-04-18T16:34:47.655Z</time></trkpt><trkpt lat="9.8810982" lon="-75.3884743"><ele>34.0</ele><time>2026-04-18T16:34:48.653Z</time></trkpt><trkpt lat="9.8811641" lon="-75.3884471"><ele>33.333333333333336</ele><time>2026-04-18T16:34:49.654Z</time></trkpt><trkpt lat="9.881234" lon="-75.388423"><ele>32.66666666666667</ele><time>2026-04-18T16:34:50.654Z</time></trkpt><trkpt lat="9.8813015" lon="-75.3883929"><ele>32.0</ele><time>2026-04-18T16:34:51.654Z</time></trkpt><trkpt lat="9.8813692" lon="-75.3883665"><ele>31.333333333333336</ele><time>2026-04-18T16:34:52.656Z</time></trkpt><trkpt lat="9.8814432" lon="-75.3883383"><ele>30.666666666666668</ele><time>2026-04-18T16:34:53.654Z</time></trkpt><trkpt lat="9.8815172" lon="-75.3883075"><ele>30.0</ele><time>2026-04-18T16:34:54.654Z</time></trkpt><trkpt lat="9.8815885" lon="-75.3882781"><ele>30.0</ele><time>2026-04-18T16:34:55.654Z</time></trkpt><trkpt lat="9.8816601" lon="-75.3882479"><ele>30.0</ele><time>2026-04-18T16:34:56.654Z</time></trkpt><trkpt lat="9.8817336" lon="-75.3882215"><ele>30.0</ele><time>2026-04-18T16:34:57.654Z</time></trkpt><trkpt lat="9.8818093" lon="-75.3881887"><ele>30.0</ele><time>2026-04-18T16:34:58.652Z</time></trkpt><trkpt lat="9.8818834" lon="-75.3881625"><ele>30.0</ele><time>2026-04-18T16:34:59.655Z</time></trkpt><trkpt lat="9.8819611" lon="-75.3881331"><ele>30.0</ele><time>2026-04-18T16:35:00.655Z</time></trkpt><trkpt lat="9.8820402" lon="-75.3881034"><ele>29.666666666666668</ele><time>2026-04-18T16:35:01.654Z</time></trkpt><trkpt lat="9.8821207" lon="-75.3880748"><ele>29.333333333333336</ele><time>2026-04-18T16:35:02.652Z</time></trkpt><trkpt lat="9.8822017" lon="-75.3880461"><ele>29.0</ele><time>2026-04-18T16:35:03.655Z</time></trkpt><trkpt lat="9.8822867" lon="-75.3880171"><ele>28.666666666666668</ele><time>2026-04-18T16:35:04.654Z</time></trkpt><trkpt lat="9.8823732" lon="-75.387988"><ele>28.333333333333336</ele><time>2026-04-18T16:35:05.654Z</time></trkpt><trkpt lat="9.882461" lon="-75.3879583"><ele>28.0</ele><time>2026-04-18T16:35:06.655Z</time></trkpt><trkpt lat="9.8825509" lon="-75.3879269"><ele>27.0</ele><time>2026-04-18T16:35:07.655Z</time></trkpt><trkpt lat="9.8826422" lon="-75.3878925"><ele>25.999999999999996</ele><time>2026-04-18T16:35:08.654Z</time></trkpt><trkpt lat="9.8827375" lon="-75.3878562"><ele>25.0</ele><time>2026-04-18T16:35:09.651Z</time></trkpt><trkpt lat="9.882835" lon="-75.3878206"><ele>24.0</ele><time>2026-04-18T16:35:10.651Z</time></trkpt><trkpt lat="9.8829314" lon="-75.3877767"><ele>23.0</ele><time>2026-04-18T16:35:11.656Z</time></trkpt><trkpt lat="9.8830315" lon="-75.3877454"><ele>23.0</ele><time>2026-04-18T16:35:12.654Z</time></trkpt><trkpt lat="9.8831298" lon="-75.3877027"><ele>23.0</ele><time>2026-04-18T16:35:13.654Z</time></trkpt><trkpt lat="9.8832282" lon="-75.3876639"><ele>23.0</ele><time>2026-04-18T16:35:14.653Z</time></trkpt><trkpt lat="9.8833273" lon="-75.3876314"><ele>23.0</ele><time>2026-04-18T16:35:15.659Z</time></trkpt><trkpt lat="9.8834274" lon="-75.3875949"><ele>23.0</ele><time>2026-04-18T16:35:16.655Z</time></trkpt><trkpt lat="9.8835293" lon="-75.387557"><ele>23.4</ele><time>2026-04-18T16:35:17.656Z</time></trkpt><trkpt lat="9.8836301" lon="-75.3875247"><ele>23.799999999999997</ele><time>2026-04-18T16:35:18.658Z</time></trkpt><trkpt lat="9.8837292" lon="-75.3874866"><ele>24.2</ele><time>2026-04-18T16:35:19.659Z</time></trkpt><trkpt lat="9.883832" lon="-75.3874461"><ele>24.6</ele><time>2026-04-18T16:35:20.653Z</time></trkpt><trkpt lat="9.8839288" lon="-75.3874081"><ele>25.0</ele><time>2026-04-18T16:35:21.654Z</time></trkpt><trkpt lat="9.884027" lon="-75.3873764"><ele>25.0</ele><time>2026-04-18T16:35:22.654Z</time></trkpt><trkpt lat="9.8841225" lon="-75.3873414"><ele>25.0</ele><time>2026-04-18T16:35:23.654Z</time></trkpt><trkpt lat="9.8842151" lon="-75.3873044"><ele>25.0</ele><time>2026-04-18T16:35:24.653Z</time></trkpt><trkpt lat="9.8843068" lon="-75.3872699"><ele>25.0</ele><time>2026-04-18T16:35:25.654Z</time></trkpt><trkpt lat="9.8843989" lon="-75.3872387"><ele>25.0</ele><time>2026-04-18T16:35:26.656Z</time></trkpt><trkpt lat="9.8844865" lon="-75.387207"><ele>26.666666666666668</ele><time>2026-04-18T16:35:27.649Z</time></trkpt><trkpt lat="9.884573" lon="-75.3871747"><ele>28.333333333333336</ele><time>2026-04-18T16:35:28.653Z</time></trkpt><trkpt lat="9.8846582" lon="-75.3871417"><ele>30.0</ele><time>2026-04-18T16:35:29.655Z</time></trkpt><trkpt lat="9.8847401" lon="-75.3871099"><ele>31.666666666666664</ele><time>2026-04-18T16:35:30.656Z</time></trkpt><trkpt lat="9.8848202" lon="-75.3870789"><ele>33.33333333333333</ele><time>2026-04-18T16:35:31.651Z</time></trkpt><trkpt lat="9.8849041" lon="-75.3870482"><ele>35.0</ele><time>2026-04-18T16:35:32.653Z</time></trkpt><trkpt lat="9.8849783" lon="-75.3870137"><ele>35.0</ele><time>2026-04-18T16:35:33.654Z</time></trkpt><trkpt lat="9.8850544" lon="-75.3869812"><ele>35.0</ele><time>2026-04-18T16:35:34.654Z</time></trkpt><trkpt lat="9.8851275" lon="-75.3869489"><ele>35.0</ele><time>2026-04-18T16:35:35.652Z</time></trkpt><trkpt lat="9.8852022" lon="-75.3869201"><ele>35.0</ele><time>2026-04-18T16:35:36.654Z</time></trkpt><trkpt lat="9.8852765" lon="-75.3868927"><ele>35.0</ele><time>2026-04-18T16:35:37.656Z</time></trkpt><trkpt lat="9.8853515" lon="-75.3868619"><ele>35.0</ele><time>2026-04-18T16:35:38.657Z</time></trkpt><trkpt lat="9.8854257" lon="-75.3868314"><ele>34.83333333333333</ele><time>2026-04-18T16:35:39.654Z</time></trkpt><trkpt lat="9.8854978" lon="-75.3868056"><ele>34.666666666666664</ele><time>2026-04-18T16:35:40.652Z</time></trkpt><trkpt lat="9.8855726" lon="-75.3867757"><ele>34.5</ele><time>2026-04-18T16:35:41.652Z</time></trkpt><trkpt lat="9.8856497" lon="-75.3867465"><ele>34.333333333333336</ele><time>2026-04-18T16:35:42.655Z</time></trkpt><trkpt lat="9.885725" lon="-75.3867233"><ele>34.16666666666667</ele><time>2026-04-18T16:35:43.655Z</time></trkpt><trkpt lat="9.8858022" lon="-75.386691"><ele>34.0</ele><time>2026-04-18T16:35:44.651Z</time></trkpt><trkpt lat="9.8858782" lon="-75.3866596"><ele>33.16666666666667</ele><time>2026-04-18T16:35:45.652Z</time></trkpt><trkpt lat="9.8859583" lon="-75.3866339"><ele>32.333333333333336</ele><time>2026-04-18T16:35:46.653Z</time></trkpt><trkpt lat="9.8860406" lon="-75.3866071"><ele>31.5</ele><time>2026-04-18T16:35:47.652Z</time></trkpt><trkpt lat="9.8861222" lon="-75.3865748"><ele>30.666666666666664</ele><time>2026-04-18T16:35:48.653Z</time></trkpt><trkpt lat="9.886204" lon="-75.3865401"><ele>29.833333333333332</ele><time>2026-04-18T16:35:49.653Z</time></trkpt><trkpt lat="9.8862861" lon="-75.3865094"><ele>29.0</ele><time>2026-04-18T16:35:50.65Z</time></trkpt><trkpt lat="9.8863685" lon="-75.3864781"><ele>29.0</ele><time>2026-04-18T16:35:51.653Z</time></trkpt><trkpt lat="9.8864546" lon="-75.3864499"><ele>29.0</ele><time>2026-04-18T16:35:52.654Z</time></trkpt><trkpt lat="9.8865418" lon="-75.3864229"><ele>29.0</ele><time>2026-04-18T16:35:53.655Z</time></trkpt><trkpt lat="9.8866292" lon="-75.3863907"><ele>29.0</ele><time>2026-04-18T16:35:54.654Z</time></trkpt><trkpt lat="9.8867138" lon="-75.3863555"><ele>29.0</ele><time>2026-04-18T16:35:55.653Z</time></trkpt><trkpt lat="9.8868013" lon="-75.3863206"><ele>28.2</ele><time>2026-04-18T16:35:56.657Z</time></trkpt><trkpt lat="9.8868919" lon="-75.3862847"><ele>27.4</ele><time>2026-04-18T16:35:57.649Z</time></trkpt><trkpt lat="9.8869829" lon="-75.3862478"><ele>26.6</ele><time>2026-04-18T16:35:58.652Z</time></trkpt><trkpt lat="9.8870745" lon="-75.3862109"><ele>25.8</ele><time>2026-04-18T16:35:59.649Z</time></trkpt><trkpt lat="9.8871644" lon="-75.3861752"><ele>25.0</ele><time>2026-04-18T16:36:00.652Z</time></trkpt><trkpt lat="9.8872586" lon="-75.3861369"><ele>25.0</ele><time>2026-04-18T16:36:01.656Z</time></trkpt><trkpt lat="9.8873495" lon="-75.3861014"><ele>25.0</ele><time>2026-04-18T16:36:02.656Z</time></trkpt><trkpt lat="9.8874481" lon="-75.3860683"><ele>25.0</ele><time>2026-04-18T16:36:03.651Z</time></trkpt><trkpt lat="9.8875448" lon="-75.3860354"><ele>25.0</ele><time>2026-04-18T16:36:04.655Z</time></trkpt><trkpt lat="9.8876398" lon="-75.3860019"><ele>25.0</ele><time>2026-04-18T16:36:05.65Z</time></trkpt><trkpt lat="9.8877357" lon="-75.3859685"><ele>24.8</ele><time>2026-04-18T16:36:06.653Z</time></trkpt><trkpt lat="9.8878341" lon="-75.3859351"><ele>24.6</ele><time>2026-04-18T16:36:07.657Z</time></trkpt><trkpt lat="9.887928" lon="-75.385898"><ele>24.4</ele><time>2026-04-18T16:36:08.653Z</time></trkpt><trkpt lat="9.8880214" lon="-75.385861"><ele>24.2</ele><time>2026-04-18T16:36:09.655Z</time></trkpt><trkpt lat="9.8881161" lon="-75.3858237"><ele>24.0</ele><time>2026-04-18T16:36:10.659Z</time></trkpt><trkpt lat="9.8882095" lon="-75.3857892"><ele>24.0</ele><time>2026-04-18T16:36:11.654Z</time></trkpt><trkpt lat="9.8883025" lon="-75.3857546"><ele>24.0</ele><time>2026-04-18T16:36:12.652Z</time></trkpt><trkpt lat="9.8883954" lon="-75.3857227"><ele>24.0</ele><time>2026-04-18T16:36:13.653Z</time></trkpt><trkpt lat="9.8884878" lon="-75.3856886"><ele>24.0</ele><time>2026-04-18T16:36:14.656Z</time></trkpt><trkpt lat="9.8885794" lon="-75.3856545"><ele>24.0</ele><time>2026-04-18T16:36:15.653Z</time></trkpt><trkpt lat="9.8886691" lon="-75.3856201"><ele>24.0</ele><time>2026-04-18T16:36:16.652Z</time></trkpt><trkpt lat="9.8887586" lon="-75.3855856"><ele>24.0</ele><time>2026-04-18T16:36:17.659Z</time></trkpt><trkpt lat="9.8888505" lon="-75.3855517"><ele>24.0</ele><time>2026-04-18T16:36:18.654Z</time></trkpt><trkpt lat="9.8889404" lon="-75.3855169"><ele>24.0</ele><time>2026-04-18T16:36:19.653Z</time></trkpt><trkpt lat="9.8890328" lon="-75.3854841"><ele>24.0</ele><time>2026-04-18T16:36:20.657Z</time></trkpt><trkpt lat="9.889131" lon="-75.3854581"><ele>24.0</ele><time>2026-04-18T16:36:21.656Z</time></trkpt><trkpt lat="9.889223" lon="-75.3854269"><ele>24.0</ele><time>2026-04-18T16:36:22.65Z</time></trkpt><trkpt lat="9.8893139" lon="-75.3853944"><ele>24.0</ele><time>2026-04-18T16:36:23.659Z</time></trkpt><trkpt lat="9.8894043" lon="-75.3853613"><ele>24.0</ele><time>2026-04-18T16:36:24.657Z</time></trkpt><trkpt lat="9.8894959" lon="-75.3853397"><ele>24.0</ele><time>2026-04-18T16:36:25.653Z</time></trkpt><trkpt lat="9.8895865" lon="-75.3853074"><ele>24.2</ele><time>2026-04-18T16:36:26.653Z</time></trkpt><trkpt lat="9.8896767" lon="-75.3852735"><ele>24.4</ele><time>2026-04-18T16:36:27.653Z</time></trkpt><trkpt lat="9.889766" lon="-75.3852407"><ele>24.6</ele><time>2026-04-18T16:36:28.655Z</time></trkpt><trkpt lat="9.8898568" lon="-75.3852069"><ele>24.8</ele><time>2026-04-18T16:36:29.653Z</time></trkpt><trkpt lat="9.8899489" lon="-75.3851721"><ele>25.0</ele><time>2026-04-18T16:36:30.654Z</time></trkpt><trkpt lat="9.8900387" lon="-75.3851358"><ele>24.4</ele><time>2026-04-18T16:36:31.659Z</time></trkpt><trkpt lat="9.8901301" lon="-75.3850999"><ele>23.8</ele><time>2026-04-18T16:36:32.655Z</time></trkpt><trkpt lat="9.8902246" lon="-75.3850609"><ele>23.200000000000003</ele><time>2026-04-18T16:36:33.651Z</time></trkpt><trkpt lat="9.8903143" lon="-75.3850284"><ele>22.6</ele><time>2026-04-18T16:36:34.656Z</time></trkpt><trkpt lat="9.8904054" lon="-75.3849882"><ele>22.0</ele><time>2026-04-18T16:36:35.651Z</time></trkpt><trkpt lat="9.8904983" lon="-75.3849644"><ele>22.0</ele><time>2026-04-18T16:36:36.651Z</time></trkpt><trkpt lat="9.8905878" lon="-75.3849294"><ele>22.0</ele><time>2026-04-18T16:36:37.653Z</time></trkpt><trkpt lat="9.8906786" lon="-75.3848936"><ele>22.0</ele><time>2026-04-18T16:36:38.651Z</time></trkpt><trkpt lat="9.890774" lon="-75.3848575"><ele>22.0</ele><time>2026-04-18T16:36:39.655Z</time></trkpt><trkpt lat="9.8908676" lon="-75.3848206"><ele>22.0</ele><time>2026-04-18T16:36:40.654Z</time></trkpt><trkpt lat="9.8909605" lon="-75.3847904"><ele>21.8</ele><time>2026-04-18T16:36:41.651Z</time></trkpt><trkpt lat="9.8910506" lon="-75.3847565"><ele>21.6</ele><time>2026-04-18T16:36:42.654Z</time></trkpt><trkpt lat="9.8911402" lon="-75.3847216"><ele>21.400000000000002</ele><time>2026-04-18T16:36:43.651Z</time></trkpt><trkpt lat="9.8912323" lon="-75.3846881"><ele>21.200000000000003</ele><time>2026-04-18T16:36:44.653Z</time></trkpt><trkpt lat="9.8913218" lon="-75.3846544"><ele>21.0</ele><time>2026-04-18T16:36:45.653Z</time></trkpt><trkpt lat="9.8914045" lon="-75.3846156"><ele>20.8</ele><time>2026-04-18T16:36:46.652Z</time></trkpt><trkpt lat="9.8914925" lon="-75.3845836"><ele>20.6</ele><time>2026-04-18T16:36:47.653Z</time></trkpt><trkpt lat="9.8915815" lon="-75.3845468"><ele>20.4</ele><time>2026-04-18T16:36:48.653Z</time></trkpt><trkpt lat="9.8916704" lon="-75.3845145"><ele>20.2</ele><time>2026-04-18T16:36:49.652Z</time></trkpt><trkpt lat="9.8917579" lon="-75.3844805"><ele>20.0</ele><time>2026-04-18T16:36:50.653Z</time></trkpt><trkpt lat="9.8918483" lon="-75.3844496"><ele>20.0</ele><time>2026-04-18T16:36:51.655Z</time></trkpt><trkpt lat="9.8919373" lon="-75.3844137"><ele>20.0</ele><time>2026-04-18T16:36:52.652Z</time></trkpt><trkpt lat="9.8920254" lon="-75.3843814"><ele>20.0</ele><time>2026-04-18T16:36:53.652Z</time></trkpt><trkpt lat="9.8921139" lon="-75.3843496"><ele>20.0</ele><time>2026-04-18T16:36:54.659Z</time></trkpt><trkpt lat="9.8922032" lon="-75.3843171"><ele>20.0</ele><time>2026-04-18T16:36:55.653Z</time></trkpt><trkpt lat="9.8922923" lon="-75.3842827"><ele>20.0</ele><time>2026-04-18T16:36:56.653Z</time></trkpt><trkpt lat="9.8923827" lon="-75.3842499"><ele>20.0</ele><time>2026-04-18T16:36:57.656Z</time></trkpt><trkpt lat="9.8924705" lon="-75.3842171"><ele>20.0</ele><time>2026-04-18T16:36:58.65Z</time></trkpt><trkpt lat="9.8925579" lon="-75.3841832"><ele>20.0</ele><time>2026-04-18T16:36:59.651Z</time></trkpt><trkpt lat="9.8926468" lon="-75.3841492"><ele>20.0</ele><time>2026-04-18T16:37:00.657Z</time></trkpt><trkpt lat="9.8927381" lon="-75.3841174"><ele>20.2</ele><time>2026-04-18T16:37:01.656Z</time></trkpt><trkpt lat="9.8928265" lon="-75.3840852"><ele>20.4</ele><time>2026-04-18T16:37:02.652Z</time></trkpt><trkpt lat="9.8929131" lon="-75.3840541"><ele>20.6</ele><time>2026-04-18T16:37:03.65Z</time></trkpt><trkpt lat="9.8930004" lon="-75.3840203"><ele>20.8</ele><time>2026-04-18T16:37:04.651Z</time></trkpt><trkpt lat="9.8930867" lon="-75.3839883"><ele>21.0</ele><time>2026-04-18T16:37:05.65Z</time></trkpt><trkpt lat="9.8931726" lon="-75.3839544"><ele>21.0</ele><time>2026-04-18T16:37:06.655Z</time></trkpt><trkpt lat="9.8932534" lon="-75.3839173"><ele>21.0</ele><time>2026-04-18T16:37:07.657Z</time></trkpt><trkpt lat="9.8933396" lon="-75.3838854"><ele>21.0</ele><time>2026-04-18T16:37:08.651Z</time></trkpt><trkpt lat="9.8934258" lon="-75.3838543"><ele>21.0</ele><time>2026-04-18T16:37:09.652Z</time></trkpt><trkpt lat="9.8935098" lon="-75.3838166"><ele>21.0</ele><time>2026-04-18T16:37:10.654Z</time></trkpt><trkpt lat="9.8935948" lon="-75.3837787"><ele>21.8</ele><time>2026-04-18T16:37:11.655Z</time></trkpt><trkpt lat="9.8936763" lon="-75.3837404"><ele>22.6</ele><time>2026-04-18T16:37:12.653Z</time></trkpt><trkpt lat="9.8937594" lon="-75.3836948"><ele>23.4</ele><time>2026-04-18T16:37:13.651Z</time></trkpt><trkpt lat="9.8938395" lon="-75.3836486"><ele>24.2</ele><time>2026-04-18T16:37:14.652Z</time></trkpt><trkpt lat="9.8939166" lon="-75.3836013"><ele>25.0</ele><time>2026-04-18T16:37:15.656Z</time></trkpt><trkpt lat="9.8939908" lon="-75.3835522"><ele>25.000000000000004</ele><time>2026-04-18T16:37:16.653Z</time></trkpt><trkpt lat="9.8940615" lon="-75.3834981"><ele>25.0</ele><time>2026-04-18T16:37:17.649Z</time></trkpt><trkpt lat="9.8941309" lon="-75.3834446"><ele>25.0</ele><time>2026-04-18T16:37:18.652Z</time></trkpt><trkpt lat="9.8942005" lon="-75.3833892"><ele>25.0</ele><time>2026-04-18T16:37:19.653Z</time></trkpt><trkpt lat="9.894277" lon="-75.3833322"><ele>25.000000000000004</ele><time>2026-04-18T16:37:20.649Z</time></trkpt><trkpt lat="9.894341" lon="-75.3832689"><ele>25.0</ele><time>2026-04-18T16:37:21.652Z</time></trkpt><trkpt lat="9.8944058" lon="-75.3832082"><ele>25.000000000000004</ele><time>2026-04-18T16:37:22.652Z</time></trkpt><trkpt lat="9.8944707" lon="-75.3831443"><ele>25.0</ele><time>2026-04-18T16:37:23.652Z</time></trkpt><trkpt lat="9.8945325" lon="-75.383082"><ele>25.0</ele><time>2026-04-18T16:37:24.654Z</time></trkpt><trkpt lat="9.8945956" lon="-75.3830163"><ele>25.0</ele><time>2026-04-18T16:37:25.656Z</time></trkpt><trkpt lat="9.8946628" lon="-75.3829562"><ele>25.000000000000004</ele><time>2026-04-18T16:37:26.652Z</time></trkpt><trkpt lat="9.8947271" lon="-75.3828926"><ele>25.0</ele><time>2026-04-18T16:37:27.65Z</time></trkpt><trkpt lat="9.8947939" lon="-75.3828328"><ele>25.0</ele><time>2026-04-18T16:37:28.651Z</time></trkpt><trkpt lat="9.8948603" lon="-75.3827728"><ele>25.0</ele><time>2026-04-18T16:37:29.654Z</time></trkpt><trkpt lat="9.8949333" lon="-75.3827217"><ele>25.0</ele><time>2026-04-18T16:37:30.652Z</time></trkpt><trkpt lat="9.8950051" lon="-75.3826588"><ele>25.0</ele><time>2026-04-18T16:37:31.653Z</time></trkpt><trkpt lat="9.8950731" lon="-75.3825961"><ele>25.0</ele><time>2026-04-18T16:37:32.656Z</time></trkpt><trkpt lat="9.8951407" lon="-75.3825334"><ele>24.2</ele><time>2026-04-18T16:37:33.652Z</time></trkpt><trkpt lat="9.8952115" lon="-75.3824673"><ele>23.4</ele><time>2026-04-18T16:37:34.651Z</time></trkpt><trkpt lat="9.8952782" lon="-75.3823997"><ele>22.6</ele><time>2026-04-18T16:37:35.65Z</time></trkpt><trkpt lat="9.8953479" lon="-75.3823377"><ele>21.8</ele><time>2026-04-18T16:37:36.652Z</time></trkpt><trkpt lat="9.8954221" lon="-75.3822735"><ele>21.0</ele><time>2026-04-18T16:37:37.652Z</time></trkpt><trkpt lat="9.8954897" lon="-75.3822119"><ele>21.333333333333332</ele><time>2026-04-18T16:37:38.651Z</time></trkpt><trkpt lat="9.8955545" lon="-75.3821501"><ele>21.666666666666668</ele><time>2026-04-18T16:37:39.655Z</time></trkpt><trkpt lat="9.8956218" lon="-75.3820924"><ele>22.0</ele><time>2026-04-18T16:37:40.651Z</time></trkpt><trkpt lat="9.8956865" lon="-75.3820381"><ele>22.333333333333336</ele><time>2026-04-18T16:37:41.65Z</time></trkpt><trkpt lat="9.8957548" lon="-75.381977"><ele>22.666666666666668</ele><time>2026-04-18T16:37:42.653Z</time></trkpt><trkpt lat="9.8958203" lon="-75.3819165"><ele>23.0</ele><time>2026-04-18T16:37:43.652Z</time></trkpt><trkpt lat="9.8958892" lon="-75.3818559"><ele>22.833333333333336</ele><time>2026-04-18T16:37:44.65Z</time></trkpt><trkpt lat="9.8959582" lon="-75.3817969"><ele>22.666666666666668</ele><time>2026-04-18T16:37:45.65Z</time></trkpt><trkpt lat="9.8960259" lon="-75.3817391"><ele>22.5</ele><time>2026-04-18T16:37:46.652Z</time></trkpt><trkpt lat="9.8960914" lon="-75.3816794"><ele>22.333333333333332</ele><time>2026-04-18T16:37:47.654Z</time></trkpt><trkpt lat="9.8961564" lon="-75.3816212"><ele>22.166666666666664</ele><time>2026-04-18T16:37:48.652Z</time></trkpt><trkpt lat="9.8962187" lon="-75.3815635"><ele>22.0</ele><time>2026-04-18T16:37:49.651Z</time></trkpt><trkpt lat="9.8962847" lon="-75.3815095"><ele>22.0</ele><time>2026-04-18T16:37:50.654Z</time></trkpt><trkpt lat="9.8963506" lon="-75.3814507"><ele>22.0</ele><time>2026-04-18T16:37:51.654Z</time></trkpt><trkpt lat="9.8964165" lon="-75.3813932"><ele>22.0</ele><time>2026-04-18T16:37:52.656Z</time></trkpt><trkpt lat="9.8964856" lon="-75.3813417"><ele>22.0</ele><time>2026-04-18T16:37:53.655Z</time></trkpt><trkpt lat="9.8965562" lon="-75.3812874"><ele>22.0</ele><time>2026-04-18T16:37:54.65Z</time></trkpt><trkpt lat="9.8966203" lon="-75.3812307"><ele>22.0</ele><time>2026-04-18T16:37:55.65Z</time></trkpt><trkpt lat="9.8966845" lon="-75.3811733"><ele>22.333333333333332</ele><time>2026-04-18T16:37:56.652Z</time></trkpt><trkpt lat="9.8967486" lon="-75.3811166"><ele>22.666666666666664</ele><time>2026-04-18T16:37:57.654Z</time></trkpt><trkpt lat="9.8968155" lon="-75.3810584"><ele>23.0</ele><time>2026-04-18T16:37:58.646Z</time></trkpt><trkpt lat="9.8968821" lon="-75.3809996"><ele>23.333333333333332</ele><time>2026-04-18T16:37:59.649Z</time></trkpt><trkpt lat="9.8969427" lon="-75.3809421"><ele>23.666666666666668</ele><time>2026-04-18T16:38:00.649Z</time></trkpt><trkpt lat="9.8970049" lon="-75.3808845"><ele>24.0</ele><time>2026-04-18T16:38:01.648Z</time></trkpt><trkpt lat="9.897071" lon="-75.3808287"><ele>23.333333333333332</ele><time>2026-04-18T16:38:02.648Z</time></trkpt><trkpt lat="9.8971356" lon="-75.3807672"><ele>22.666666666666668</ele><time>2026-04-18T16:38:03.65Z</time></trkpt><trkpt lat="9.8971945" lon="-75.3807099"><ele>22.0</ele><time>2026-04-18T16:38:04.652Z</time></trkpt><trkpt lat="9.8972578" lon="-75.3806491"><ele>21.333333333333336</ele><time>2026-04-18T16:38:05.649Z</time></trkpt><trkpt lat="9.8973211" lon="-75.380586"><ele>20.666666666666668</ele><time>2026-04-18T16:38:06.654Z</time></trkpt><trkpt lat="9.8973827" lon="-75.3805353"><ele>20.0</ele><time>2026-04-18T16:38:07.653Z</time></trkpt><trkpt lat="9.897446" lon="-75.3804725"><ele>20.0</ele><time>2026-04-18T16:38:08.651Z</time></trkpt><trkpt lat="9.897507" lon="-75.3804131"><ele>20.0</ele><time>2026-04-18T16:38:09.653Z</time></trkpt><trkpt lat="9.8975659" lon="-75.3803588"><ele>20.0</ele><time>2026-04-18T16:38:10.653Z</time></trkpt><trkpt lat="9.8976316" lon="-75.3803037"><ele>20.0</ele><time>2026-04-18T16:38:11.651Z</time></trkpt><trkpt lat="9.897692" lon="-75.3802507"><ele>20.0</ele><time>2026-04-18T16:38:12.652Z</time></trkpt><trkpt lat="9.8977468" lon="-75.3801953"><ele>20.0</ele><time>2026-04-18T16:38:13.653Z</time></trkpt><trkpt lat="9.897811" lon="-75.3801471"><ele>19.833333333333336</ele><time>2026-04-18T16:38:14.652Z</time></trkpt><trkpt lat="9.897869" lon="-75.3800991"><ele>19.666666666666668</ele><time>2026-04-18T16:38:15.654Z</time></trkpt><trkpt lat="9.8979246" lon="-75.380044"><ele>19.5</ele><time>2026-04-18T16:38:16.651Z</time></trkpt><trkpt lat="9.8979832" lon="-75.3799899"><ele>19.333333333333332</ele><time>2026-04-18T16:38:17.652Z</time></trkpt><trkpt lat="9.8980407" lon="-75.3799387"><ele>19.166666666666664</ele><time>2026-04-18T16:38:18.651Z</time></trkpt><trkpt lat="9.8981004" lon="-75.3798852"><ele>19.0</ele><time>2026-04-18T16:38:19.652Z</time></trkpt><trkpt lat="9.8981561" lon="-75.379834"><ele>19.0</ele><time>2026-04-18T16:38:20.648Z</time></trkpt><trkpt lat="9.8982163" lon="-75.3797814"><ele>19.0</ele><time>2026-04-18T16:38:21.65Z</time></trkpt><trkpt lat="9.8982744" lon="-75.3797271"><ele>19.0</ele><time>2026-04-18T16:38:22.653Z</time></trkpt><trkpt lat="9.8983311" lon="-75.3796753"><ele>19.0</ele><time>2026-04-18T16:38:23.655Z</time></trkpt><trkpt lat="9.8983938" lon="-75.3796192"><ele>19.0</ele><time>2026-04-18T16:38:24.655Z</time></trkpt><trkpt lat="9.898456" lon="-75.379562"><ele>19.0</ele><time>2026-04-18T16:38:25.652Z</time></trkpt><trkpt lat="9.89851" lon="-75.3795088"><ele>19.2</ele><time>2026-04-18T16:38:26.65Z</time></trkpt><trkpt lat="9.8985752" lon="-75.3794493"><ele>19.4</ele><time>2026-04-18T16:38:27.649Z</time></trkpt><trkpt lat="9.8986439" lon="-75.3793881"><ele>19.6</ele><time>2026-04-18T16:38:28.653Z</time></trkpt><trkpt lat="9.898713" lon="-75.3793255"><ele>19.8</ele><time>2026-04-18T16:38:29.648Z</time></trkpt><trkpt lat="9.8987869" lon="-75.3792588"><ele>20.0</ele><time>2026-04-18T16:38:30.646Z</time></trkpt><trkpt lat="9.8988617" lon="-75.3791931"><ele>20.0</ele><time>2026-04-18T16:38:31.648Z</time></trkpt><trkpt lat="9.89894" lon="-75.3791245"><ele>20.0</ele><time>2026-04-18T16:38:32.65Z</time></trkpt><trkpt lat="9.8990213" lon="-75.3790528"><ele>20.0</ele><time>2026-04-18T16:38:33.652Z</time></trkpt><trkpt lat="9.8991017" lon="-75.3789833"><ele>20.0</ele><time>2026-04-18T16:38:34.65Z</time></trkpt><trkpt lat="9.899178" lon="-75.3789155"><ele>20.0</ele><time>2026-04-18T16:38:35.649Z</time></trkpt><trkpt lat="9.8992538" lon="-75.3788376"><ele>20.2</ele><time>2026-04-18T16:38:36.653Z</time></trkpt><trkpt lat="9.899333" lon="-75.378765"><ele>20.4</ele><time>2026-04-18T16:38:37.654Z</time></trkpt><trkpt lat="9.8994119" lon="-75.378694"><ele>20.6</ele><time>2026-04-18T16:38:38.653Z</time></trkpt><trkpt lat="9.899492" lon="-75.378621"><ele>20.8</ele><time>2026-04-18T16:38:39.657Z</time></trkpt><trkpt lat="9.8995677" lon="-75.3785499"><ele>21.0</ele><time>2026-04-18T16:38:40.658Z</time></trkpt><trkpt lat="9.8996516" lon="-75.378479"><ele>21.0</ele><time>2026-04-18T16:38:41.651Z</time></trkpt><trkpt lat="9.8997328" lon="-75.3784048"><ele>21.0</ele><time>2026-04-18T16:38:42.651Z</time></trkpt><trkpt lat="9.8998108" lon="-75.3783309"><ele>21.0</ele><time>2026-04-18T16:38:43.655Z</time></trkpt><trkpt lat="9.89989" lon="-75.3782574"><ele>21.0</ele><time>2026-04-18T16:38:44.649Z</time></trkpt><trkpt lat="9.8999688" lon="-75.3781822"><ele>21.0</ele><time>2026-04-18T16:38:45.654Z</time></trkpt><trkpt lat="9.9000433" lon="-75.3781082"><ele>20.400000000000002</ele><time>2026-04-18T16:38:46.653Z</time></trkpt><trkpt lat="9.9001174" lon="-75.3780347"><ele>19.8</ele><time>2026-04-18T16:38:47.657Z</time></trkpt><trkpt lat="9.9001912" lon="-75.3779638"><ele>19.200000000000003</ele><time>2026-04-18T16:38:48.653Z</time></trkpt><trkpt lat="9.9002658" lon="-75.377898"><ele>18.6</ele><time>2026-04-18T16:38:49.653Z</time></trkpt><trkpt lat="9.9003424" lon="-75.3778313"><ele>18.0</ele><time>2026-04-18T16:38:50.651Z</time></trkpt><trkpt lat="9.9004139" lon="-75.377766"><ele>18.0</ele><time>2026-04-18T16:38:51.65Z</time></trkpt><trkpt lat="9.9004843" lon="-75.3777029"><ele>18.0</ele><time>2026-04-18T16:38:52.651Z</time></trkpt><trkpt lat="9.9005555" lon="-75.3776383"><ele>18.0</ele><time>2026-04-18T16:38:53.649Z</time></trkpt><trkpt lat="9.9006248" lon="-75.3775786"><ele>18.0</ele><time>2026-04-18T16:38:54.654Z</time></trkpt><trkpt lat="9.9007056" lon="-75.3775236"><ele>18.0</ele><time>2026-04-18T16:38:55.654Z</time></trkpt><trkpt lat="9.9007776" lon="-75.377458"><ele>18.0</ele><time>2026-04-18T16:38:56.654Z</time></trkpt><trkpt lat="9.9008466" lon="-75.3773931"><ele>18.0</ele><time>2026-04-18T16:38:57.654Z</time></trkpt><trkpt lat="9.9009197" lon="-75.3773292"><ele>18.0</ele><time>2026-04-18T16:38:58.646Z</time></trkpt><trkpt lat="9.9009917" lon="-75.3772637"><ele>18.0</ele><time>2026-04-18T16:38:59.65Z</time></trkpt><trkpt lat="9.9010607" lon="-75.377201"><ele>18.0</ele><time>2026-04-18T16:39:00.651Z</time></trkpt><trkpt lat="9.901132" lon="-75.3771376"><ele>19.0</ele><time>2026-04-18T16:39:01.653Z</time></trkpt><trkpt lat="9.9012016" lon="-75.3770743"><ele>20.0</ele><time>2026-04-18T16:39:02.659Z</time></trkpt><trkpt lat="9.9012744" lon="-75.3770096"><ele>21.0</ele><time>2026-04-18T16:39:03.651Z</time></trkpt><trkpt lat="9.9013457" lon="-75.376947"><ele>22.0</ele><time>2026-04-18T16:39:04.657Z</time></trkpt><trkpt lat="9.901424" lon="-75.3768855"><ele>23.0</ele><time>2026-04-18T16:39:05.652Z</time></trkpt><trkpt lat="9.9014884" lon="-75.376824"><ele>23.0</ele><time>2026-04-18T16:39:06.654Z</time></trkpt><trkpt lat="9.9015591" lon="-75.376758"><ele>23.0</ele><time>2026-04-18T16:39:07.651Z</time></trkpt><trkpt lat="9.9016281" lon="-75.3766961"><ele>23.0</ele><time>2026-04-18T16:39:08.659Z</time></trkpt><trkpt lat="9.9016914" lon="-75.3766346"><ele>23.0</ele><time>2026-04-18T16:39:09.649Z</time></trkpt><trkpt lat="9.9017569" lon="-75.3765771"><ele>23.0</ele><time>2026-04-18T16:39:10.649Z</time></trkpt><trkpt lat="9.9018278" lon="-75.3765206"><ele>23.166666666666668</ele><time>2026-04-18T16:39:11.651Z</time></trkpt><trkpt lat="9.9018933" lon="-75.3764621"><ele>23.333333333333336</ele><time>2026-04-18T16:39:12.648Z</time></trkpt><trkpt lat="9.9019557" lon="-75.3764023"><ele>23.5</ele><time>2026-04-18T16:39:13.654Z</time></trkpt><trkpt lat="9.9020204" lon="-75.3763429"><ele>23.666666666666668</ele><time>2026-04-18T16:39:14.648Z</time></trkpt><trkpt lat="9.9020851" lon="-75.3762811"><ele>23.833333333333332</ele><time>2026-04-18T16:39:15.647Z</time></trkpt><trkpt lat="9.9021511" lon="-75.3762211"><ele>24.0</ele><time>2026-04-18T16:39:16.659Z</time></trkpt><trkpt lat="9.9022176" lon="-75.3761644"><ele>24.0</ele><time>2026-04-18T16:39:17.653Z</time></trkpt><trkpt lat="9.9022836" lon="-75.376104"><ele>24.0</ele><time>2026-04-18T16:39:18.649Z</time></trkpt><trkpt lat="9.9023504" lon="-75.3760443"><ele>24.0</ele><time>2026-04-18T16:39:19.651Z</time></trkpt><trkpt lat="9.9024154" lon="-75.3759859"><ele>24.0</ele><time>2026-04-18T16:39:20.647Z</time></trkpt><trkpt lat="9.9024804" lon="-75.3759269"><ele>24.0</ele><time>2026-04-18T16:39:21.649Z</time></trkpt><trkpt lat="9.9025444" lon="-75.375868"><ele>24.0</ele><time>2026-04-18T16:39:22.648Z</time></trkpt><trkpt lat="9.9026076" lon="-75.3758122"><ele>24.0</ele><time>2026-04-18T16:39:23.65Z</time></trkpt><trkpt lat="9.9026717" lon="-75.3757539"><ele>24.0</ele><time>2026-04-18T16:39:24.648Z</time></trkpt><trkpt lat="9.902736" lon="-75.3756981"><ele>24.0</ele><time>2026-04-18T16:39:25.647Z</time></trkpt><trkpt lat="9.9028" lon="-75.3756356"><ele>24.0</ele><time>2026-04-18T16:39:26.653Z</time></trkpt><trkpt lat="9.9028634" lon="-75.3755765"><ele>24.0</ele><time>2026-04-18T16:39:27.652Z</time></trkpt><trkpt lat="9.902926" lon="-75.3755201"><ele>24.0</ele><time>2026-04-18T16:39:28.649Z</time></trkpt><trkpt lat="9.9029859" lon="-75.3754648"><ele>24.0</ele><time>2026-04-18T16:39:29.647Z</time></trkpt><trkpt lat="9.9030455" lon="-75.3754089"><ele>24.0</ele><time>2026-04-18T16:39:30.647Z</time></trkpt><trkpt lat="9.9031074" lon="-75.3753552"><ele>24.0</ele><time>2026-04-18T16:39:31.649Z</time></trkpt><trkpt lat="9.9031684" lon="-75.3752993"><ele>24.0</ele><time>2026-04-18T16:39:32.649Z</time></trkpt><trkpt lat="9.9032278" lon="-75.3752386"><ele>24.0</ele><time>2026-04-18T16:39:33.649Z</time></trkpt><trkpt lat="9.9032873" lon="-75.3751759"><ele>24.0</ele><time>2026-04-18T16:39:34.651Z</time></trkpt><trkpt lat="9.9033458" lon="-75.3751103"><ele>24.0</ele><time>2026-04-18T16:39:35.65Z</time></trkpt><trkpt lat="9.9034018" lon="-75.3750441"><ele>24.0</ele><time>2026-04-18T16:39:36.651Z</time></trkpt><trkpt lat="9.9034571" lon="-75.3749787"><ele>24.0</ele><time>2026-04-18T16:39:37.649Z</time></trkpt><trkpt lat="9.9035088" lon="-75.374909"><ele>24.0</ele><time>2026-04-18T16:39:38.651Z</time></trkpt><trkpt lat="9.9035575" lon="-75.374844"><ele>24.0</ele><time>2026-04-18T16:39:39.651Z</time></trkpt><trkpt lat="9.9036024" lon="-75.374772"><ele>24.0</ele><time>2026-04-18T16:39:40.646Z</time></trkpt><trkpt lat="9.9036454" lon="-75.3747033"><ele>24.0</ele><time>2026-04-18T16:39:41.647Z</time></trkpt><trkpt lat="9.903688" lon="-75.3746256"><ele>24.0</ele><time>2026-04-18T16:39:42.65Z</time></trkpt><trkpt lat="9.9037224" lon="-75.3745398"><ele>24.0</ele><time>2026-04-18T16:39:43.653Z</time></trkpt><trkpt lat="9.9037585" lon="-75.3744556"><ele>24.0</ele><time>2026-04-18T16:39:44.65Z</time></trkpt><trkpt lat="9.903792" lon="-75.3743773"><ele>24.0</ele><time>2026-04-18T16:39:45.652Z</time></trkpt><trkpt lat="9.9038219" lon="-75.3742965"><ele>24.0</ele><time>2026-04-18T16:39:46.648Z</time></trkpt><trkpt lat="9.90385" lon="-75.3742174"><ele>24.0</ele><time>2026-04-18T16:39:47.653Z</time></trkpt><trkpt lat="9.9038751" lon="-75.3741391"><ele>24.0</ele><time>2026-04-18T16:39:48.664Z</time></trkpt><trkpt lat="9.9039035" lon="-75.37406"><ele>24.0</ele><time>2026-04-18T16:39:49.653Z</time></trkpt><trkpt lat="9.903929" lon="-75.37398"><ele>24.0</ele><time>2026-04-18T16:39:50.654Z</time></trkpt><trkpt lat="9.9039565" lon="-75.373899"><ele>24.0</ele><time>2026-04-18T16:39:51.65Z</time></trkpt><trkpt lat="9.9039861" lon="-75.3738179"><ele>24.0</ele><time>2026-04-18T16:39:52.658Z</time></trkpt><trkpt lat="9.9040098" lon="-75.373739"><ele>24.0</ele><time>2026-04-18T16:39:53.653Z</time></trkpt><trkpt lat="9.9040336" lon="-75.3736617"><ele>24.0</ele><time>2026-04-18T16:39:54.65Z</time></trkpt><trkpt lat="9.9040567" lon="-75.373581"><ele>24.0</ele><time>2026-04-18T16:39:55.649Z</time></trkpt><trkpt lat="9.9040841" lon="-75.3735027"><ele>24.0</ele><time>2026-04-18T16:39:56.65Z</time></trkpt><trkpt lat="9.9041113" lon="-75.3734212"><ele>24.0</ele><time>2026-04-18T16:39:57.649Z</time></trkpt><trkpt lat="9.9041406" lon="-75.3733394"><ele>24.0</ele><time>2026-04-18T16:39:58.653Z</time></trkpt><trkpt lat="9.9041631" lon="-75.3732583"><ele>24.0</ele><time>2026-04-18T16:39:59.649Z</time></trkpt><trkpt lat="9.9041881" lon="-75.3731776"><ele>24.0</ele><time>2026-04-18T16:40:00.65Z</time></trkpt><trkpt lat="9.9042109" lon="-75.3730946"><ele>24.0</ele><time>2026-04-18T16:40:01.65Z</time></trkpt><trkpt lat="9.9042357" lon="-75.3730135"><ele>24.0</ele><time>2026-04-18T16:40:02.652Z</time></trkpt><trkpt lat="9.9042648" lon="-75.3729328"><ele>24.0</ele><time>2026-04-18T16:40:03.648Z</time></trkpt><trkpt lat="9.904295" lon="-75.3728495"><ele>24.0</ele><time>2026-04-18T16:40:04.645Z</time></trkpt><trkpt lat="9.9043213" lon="-75.3727683"><ele>23.333333333333332</ele><time>2026-04-18T16:40:05.649Z</time></trkpt><trkpt lat="9.9043492" lon="-75.372686"><ele>22.666666666666668</ele><time>2026-04-18T16:40:06.65Z</time></trkpt><trkpt lat="9.9043753" lon="-75.372604"><ele>22.0</ele><time>2026-04-18T16:40:07.656Z</time></trkpt><trkpt lat="9.9043978" lon="-75.3725229"><ele>21.333333333333336</ele><time>2026-04-18T16:40:08.648Z</time></trkpt><trkpt lat="9.9044232" lon="-75.372441"><ele>20.666666666666668</ele><time>2026-04-18T16:40:09.651Z</time></trkpt><trkpt lat="9.9044499" lon="-75.3723584"><ele>20.0</ele><time>2026-04-18T16:40:10.652Z</time></trkpt><trkpt lat="9.9044793" lon="-75.3722798"><ele>20.0</ele><time>2026-04-18T16:40:11.648Z</time></trkpt><trkpt lat="9.9045048" lon="-75.3721953"><ele>20.0</ele><time>2026-04-18T16:40:12.649Z</time></trkpt><trkpt lat="9.9045319" lon="-75.3721093"><ele>20.0</ele><time>2026-04-18T16:40:13.649Z</time></trkpt><trkpt lat="9.9045635" lon="-75.3720242"><ele>20.0</ele><time>2026-04-18T16:40:14.647Z</time></trkpt><trkpt lat="9.9045899" lon="-75.3719386"><ele>20.0</ele><time>2026-04-18T16:40:15.655Z</time></trkpt><trkpt lat="9.9046176" lon="-75.3718547"><ele>20.0</ele><time>2026-04-18T16:40:16.651Z</time></trkpt><trkpt lat="9.9046453" lon="-75.3717723"><ele>20.0</ele><time>2026-04-18T16:40:17.653Z</time></trkpt><trkpt lat="9.9046723" lon="-75.3716892"><ele>20.0</ele><time>2026-04-18T16:40:18.649Z</time></trkpt><trkpt lat="9.9046981" lon="-75.3716075"><ele>20.0</ele><time>2026-04-18T16:40:19.651Z</time></trkpt><trkpt lat="9.9047256" lon="-75.371525"><ele>20.0</ele><time>2026-04-18T16:40:20.648Z</time></trkpt><trkpt lat="9.9047504" lon="-75.3714434"><ele>20.0</ele><time>2026-04-18T16:40:21.651Z</time></trkpt><trkpt lat="9.904779" lon="-75.3713645"><ele>20.0</ele><time>2026-04-18T16:40:22.652Z</time></trkpt><trkpt lat="9.9048024" lon="-75.3712872"><ele>20.0</ele><time>2026-04-18T16:40:23.65Z</time></trkpt><trkpt lat="9.9048276" lon="-75.3712085"><ele>20.0</ele><time>2026-04-18T16:40:24.649Z</time></trkpt><trkpt lat="9.9048581" lon="-75.3711337"><ele>20.0</ele><time>2026-04-18T16:40:25.649Z</time></trkpt><trkpt lat="9.9048857" lon="-75.3710571"><ele>20.0</ele><time>2026-04-18T16:40:26.65Z</time></trkpt><trkpt lat="9.9049165" lon="-75.3709793"><ele>20.0</ele><time>2026-04-18T16:40:27.65Z</time></trkpt><trkpt lat="9.9049478" lon="-75.3709032"><ele>20.0</ele><time>2026-04-18T16:40:28.661Z</time></trkpt><trkpt lat="9.9049847" lon="-75.3708294"><ele>20.0</ele><time>2026-04-18T16:40:29.65Z</time></trkpt><trkpt lat="9.9050185" lon="-75.3707581"><ele>20.0</ele><time>2026-04-18T16:40:30.663Z</time></trkpt><trkpt lat="9.9050568" lon="-75.3706876"><ele>20.0</ele><time>2026-04-18T16:40:31.665Z</time></trkpt><trkpt lat="9.9050966" lon="-75.3706155"><ele>20.0</ele><time>2026-04-18T16:40:32.652Z</time></trkpt><trkpt lat="9.9051387" lon="-75.3705411"><ele>20.0</ele><time>2026-04-18T16:40:33.65Z</time></trkpt><trkpt lat="9.9051824" lon="-75.3704722"><ele>20.0</ele><time>2026-04-18T16:40:34.651Z</time></trkpt><trkpt lat="9.9052258" lon="-75.3704007"><ele>19.666666666666668</ele><time>2026-04-18T16:40:35.65Z</time></trkpt><trkpt lat="9.9052753" lon="-75.3703383"><ele>19.333333333333336</ele><time>2026-04-18T16:40:36.657Z</time></trkpt><trkpt lat="9.9053226" lon="-75.3702684"><ele>19.0</ele><time>2026-04-18T16:40:37.651Z</time></trkpt><trkpt lat="9.9053699" lon="-75.3702034"><ele>18.666666666666668</ele><time>2026-04-18T16:40:38.651Z</time></trkpt><trkpt lat="9.905418" lon="-75.3701402"><ele>18.333333333333332</ele><time>2026-04-18T16:40:39.652Z</time></trkpt><trkpt lat="9.9054714" lon="-75.3700775"><ele>18.0</ele><time>2026-04-18T16:40:40.658Z</time></trkpt><trkpt lat="9.9055259" lon="-75.3700168"><ele>18.0</ele><time>2026-04-18T16:40:41.651Z</time></trkpt><trkpt lat="9.9055824" lon="-75.3699538"><ele>18.0</ele><time>2026-04-18T16:40:42.651Z</time></trkpt><trkpt lat="9.905638" lon="-75.3698925"><ele>18.0</ele><time>2026-04-18T16:40:43.652Z</time></trkpt><trkpt lat="9.9056966" lon="-75.3698299"><ele>18.0</ele><time>2026-04-18T16:40:44.652Z</time></trkpt><trkpt lat="9.9057534" lon="-75.3697681"><ele>18.0</ele><time>2026-04-18T16:40:45.657Z</time></trkpt><trkpt lat="9.905812" lon="-75.3697102"><ele>18.0</ele><time>2026-04-18T16:40:46.653Z</time></trkpt><trkpt lat="9.9058724" lon="-75.369651"><ele>18.666666666666668</ele><time>2026-04-18T16:40:47.651Z</time></trkpt><trkpt lat="9.9059297" lon="-75.3695922"><ele>19.333333333333332</ele><time>2026-04-18T16:40:48.65Z</time></trkpt><trkpt lat="9.9059863" lon="-75.3695311"><ele>20.0</ele><time>2026-04-18T16:40:49.65Z</time></trkpt><trkpt lat="9.9060423" lon="-75.3694708"><ele>20.666666666666664</ele><time>2026-04-18T16:40:50.65Z</time></trkpt><trkpt lat="9.9061017" lon="-75.3694081"><ele>21.333333333333332</ele><time>2026-04-18T16:40:51.65Z</time></trkpt><trkpt lat="9.9061599" lon="-75.3693473"><ele>22.0</ele><time>2026-04-18T16:40:52.65Z</time></trkpt><trkpt lat="9.9062146" lon="-75.3692866"><ele>22.0</ele><time>2026-04-18T16:40:53.649Z</time></trkpt><trkpt lat="9.9062727" lon="-75.3692268"><ele>22.0</ele><time>2026-04-18T16:40:54.653Z</time></trkpt><trkpt lat="9.9063299" lon="-75.3691679"><ele>22.0</ele><time>2026-04-18T16:40:55.65Z</time></trkpt><trkpt lat="9.906388" lon="-75.369108"><ele>22.0</ele><time>2026-04-18T16:40:56.652Z</time></trkpt><trkpt lat="9.9064444" lon="-75.3690502"><ele>22.0</ele><time>2026-04-18T16:40:57.652Z</time></trkpt><trkpt lat="9.9065036" lon="-75.3689925"><ele>22.0</ele><time>2026-04-18T16:40:58.652Z</time></trkpt><trkpt lat="9.9065592" lon="-75.3689258"><ele>22.0</ele><time>2026-04-18T16:40:59.656Z</time></trkpt><trkpt lat="9.9066168" lon="-75.3688664"><ele>22.0</ele><time>2026-04-18T16:41:00.652Z</time></trkpt><trkpt lat="9.9066757" lon="-75.3688064"><ele>22.0</ele><time>2026-04-18T16:41:01.656Z</time></trkpt><trkpt lat="9.9067337" lon="-75.3687472"><ele>22.0</ele><time>2026-04-18T16:41:02.651Z</time></trkpt><trkpt lat="9.9067942" lon="-75.3686866"><ele>22.0</ele><time>2026-04-18T16:41:03.652Z</time></trkpt><trkpt lat="9.906851" lon="-75.3686298"><ele>22.0</ele><time>2026-04-18T16:41:04.658Z</time></trkpt><trkpt lat="9.9069073" lon="-75.368571"><ele>21.833333333333332</ele><time>2026-04-18T16:41:05.65Z</time></trkpt><trkpt lat="9.9069652" lon="-75.368512"><ele>21.666666666666664</ele><time>2026-04-18T16:41:06.649Z</time></trkpt><trkpt lat="9.9070214" lon="-75.3684552"><ele>21.5</ele><time>2026-04-18T16:41:07.649Z</time></trkpt><trkpt lat="9.9070783" lon="-75.3683965"><ele>21.333333333333332</ele><time>2026-04-18T16:41:08.654Z</time></trkpt><trkpt lat="9.9071317" lon="-75.3683401"><ele>21.166666666666668</ele><time>2026-04-18T16:41:09.65Z</time></trkpt><trkpt lat="9.9071878" lon="-75.3682816"><ele>21.0</ele><time>2026-04-18T16:41:10.651Z</time></trkpt><trkpt lat="9.9072441" lon="-75.3682213"><ele>21.0</ele><time>2026-04-18T16:41:11.648Z</time></trkpt><trkpt lat="9.9073013" lon="-75.3681652"><ele>21.0</ele><time>2026-04-18T16:41:12.649Z</time></trkpt><trkpt lat="9.9073572" lon="-75.3681092"><ele>21.0</ele><time>2026-04-18T16:41:13.652Z</time></trkpt><trkpt lat="9.9074141" lon="-75.3680514"><ele>21.0</ele><time>2026-04-18T16:41:14.652Z</time></trkpt><trkpt lat="9.9074716" lon="-75.3679925"><ele>21.0</ele><time>2026-04-18T16:41:15.652Z</time></trkpt><trkpt lat="9.9075288" lon="-75.3679325"><ele>21.0</ele><time>2026-04-18T16:41:16.652Z</time></trkpt><trkpt lat="9.9075887" lon="-75.3678754"><ele>21.5</ele><time>2026-04-18T16:41:17.652Z</time></trkpt><trkpt lat="9.907645" lon="-75.3678156"><ele>22.0</ele><time>2026-04-18T16:41:18.655Z</time></trkpt><trkpt lat="9.9077035" lon="-75.3677549"><ele>22.5</ele><time>2026-04-18T16:41:19.653Z</time></trkpt><trkpt lat="9.9077631" lon="-75.3676982"><ele>23.0</ele><time>2026-04-18T16:41:20.656Z</time></trkpt><trkpt lat="9.9078296" lon="-75.3676417"><ele>23.5</ele><time>2026-04-18T16:41:21.651Z</time></trkpt><trkpt lat="9.9078866" lon="-75.3675831"><ele>24.0</ele><time>2026-04-18T16:41:22.646Z</time></trkpt><trkpt lat="9.9079433" lon="-75.3675252"><ele>24.0</ele><time>2026-04-18T16:41:23.649Z</time></trkpt><trkpt lat="9.9080002" lon="-75.3674672"><ele>24.0</ele><time>2026-04-18T16:41:24.649Z</time></trkpt><trkpt lat="9.9080573" lon="-75.367411"><ele>24.0</ele><time>2026-04-18T16:41:25.648Z</time></trkpt><trkpt lat="9.9081165" lon="-75.3673571"><ele>24.0</ele><time>2026-04-18T16:41:26.655Z</time></trkpt><trkpt lat="9.908175" lon="-75.3672993"><ele>24.0</ele><time>2026-04-18T16:41:27.645Z</time></trkpt><trkpt lat="9.9082347" lon="-75.367242"><ele>24.0</ele><time>2026-04-18T16:41:28.647Z</time></trkpt><trkpt lat="9.9082915" lon="-75.3671729"><ele>24.0</ele><time>2026-04-18T16:41:29.648Z</time></trkpt><trkpt lat="9.9083494" lon="-75.3671128"><ele>24.0</ele><time>2026-04-18T16:41:30.649Z</time></trkpt><trkpt lat="9.9084051" lon="-75.3670537"><ele>24.0</ele><time>2026-04-18T16:41:31.651Z</time></trkpt><trkpt lat="9.9084635" lon="-75.3669999"><ele>24.0</ele><time>2026-04-18T16:41:32.647Z</time></trkpt><trkpt lat="9.9085186" lon="-75.3669411"><ele>24.0</ele><time>2026-04-18T16:41:33.647Z</time></trkpt><trkpt lat="9.908575" lon="-75.3668805"><ele>24.0</ele><time>2026-04-18T16:41:34.648Z</time></trkpt><trkpt lat="9.9086303" lon="-75.3668214"><ele>23.833333333333332</ele><time>2026-04-18T16:41:35.649Z</time></trkpt><trkpt lat="9.9086841" lon="-75.3667613"><ele>23.666666666666668</ele><time>2026-04-18T16:41:36.649Z</time></trkpt><trkpt lat="9.90874" lon="-75.3667026"><ele>23.5</ele><time>2026-04-18T16:41:37.649Z</time></trkpt><trkpt lat="9.9087975" lon="-75.3666441"><ele>23.333333333333336</ele><time>2026-04-18T16:41:38.647Z</time></trkpt><trkpt lat="9.9088523" lon="-75.3665842"><ele>23.166666666666668</ele><time>2026-04-18T16:41:39.653Z</time></trkpt><trkpt lat="9.9089077" lon="-75.3665246"><ele>23.0</ele><time>2026-04-18T16:41:40.652Z</time></trkpt><trkpt lat="9.9089655" lon="-75.3664652"><ele>23.0</ele><time>2026-04-18T16:41:41.649Z</time></trkpt><trkpt lat="9.9090225" lon="-75.3664047"><ele>23.0</ele><time>2026-04-18T16:41:42.654Z</time></trkpt><trkpt lat="9.9090776" lon="-75.366344"><ele>23.0</ele><time>2026-04-18T16:41:43.646Z</time></trkpt><trkpt lat="9.9091319" lon="-75.3662837"><ele>23.0</ele><time>2026-04-18T16:41:44.652Z</time></trkpt><trkpt lat="9.9091845" lon="-75.3662273"><ele>23.0</ele><time>2026-04-18T16:41:45.651Z</time></trkpt><trkpt lat="9.909243" lon="-75.3661702"><ele>23.0</ele><time>2026-04-18T16:41:46.647Z</time></trkpt><trkpt lat="9.9092955" lon="-75.3661117"><ele>23.0</ele><time>2026-04-18T16:41:47.649Z</time></trkpt><trkpt lat="9.9093509" lon="-75.3660503"><ele>23.0</ele><time>2026-04-18T16:41:48.647Z</time></trkpt><trkpt lat="9.9094058" lon="-75.3659852"><ele>23.0</ele><time>2026-04-18T16:41:49.65Z</time></trkpt><trkpt lat="9.9071878" lon="-75.3682816"><ele>23.0</ele><time>2026-04-18T16:41:10.651Z</time></trkpt><trkpt lat="9.9072441" lon="-75.3682213"><ele>23.0</ele><time>2026-04-18T16:41:11.648Z</time></trkpt><trkpt lat="9.9073013" lon="-75.3681652"><ele>23.0</ele><time>2026-04-18T16:41:12.649Z</time></trkpt><trkpt lat="9.9073572" lon="-75.3681092"><ele>23.0</ele><time>2026-04-18T16:41:13.652Z</time></trkpt><trkpt lat="9.9074141" lon="-75.3680514"><ele>23.0</ele><time>2026-04-18T16:41:14.652Z</time></trkpt><trkpt lat="9.9074716" lon="-75.3679925"><ele>23.0</ele><time>2026-04-18T16:41:15.652Z</time></trkpt><trkpt lat="9.9075288" lon="-75.3679325"><ele>23.166666666666668</ele><time>2026-04-18T16:41:16.652Z</time></trkpt><trkpt lat="9.9075887" lon="-75.3678754"><ele>23.333333333333336</ele><time>2026-04-18T16:41:17.652Z</time></trkpt><trkpt lat="9.907645" lon="-75.3678156"><ele>23.5</ele><time>2026-04-18T16:41:18.655Z</time></trkpt><trkpt lat="9.9077035" lon="-75.3677549"><ele>23.666666666666668</ele><time>2026-04-18T16:41:19.653Z</time></trkpt><trkpt lat="9.9077631" lon="-75.3676982"><ele>23.833333333333332</ele><time>2026-04-18T16:41:20.656Z</time></trkpt><trkpt lat="9.9078296" lon="-75.3676417"><ele>24.0</ele><time>2026-04-18T16:41:21.651Z</time></trkpt><trkpt lat="9.9078866" lon="-75.3675831"><ele>24.0</ele><time>2026-04-18T16:41:22.646Z</time></trkpt><trkpt lat="9.9079433" lon="-75.3675252"><ele>24.0</ele><time>2026-04-18T16:41:23.649Z</time></trkpt><trkpt lat="9.9080002" lon="-75.3674672"><ele>24.0</ele><time>2026-04-18T16:41:24.649Z</time></trkpt><trkpt lat="9.9080573" lon="-75.367411"><ele>24.0</ele><time>2026-04-18T16:41:25.648Z</time></trkpt><trkpt lat="9.9081165" lon="-75.3673571"><ele>24.0</ele><time>2026-04-18T16:41:26.655Z</time></trkpt><trkpt lat="9.908175" lon="-75.3672993"><ele>24.0</ele><time>2026-04-18T16:41:27.645Z</time></trkpt><trkpt lat="9.9082347" lon="-75.367242"><ele>24.0</ele><time>2026-04-18T16:41:28.647Z</time></trkpt><trkpt lat="9.9082915" lon="-75.3671729"><ele>24.0</ele><time>2026-04-18T16:41:29.648Z</time></trkpt><trkpt lat="9.9083494" lon="-75.3671128"><ele>24.0</ele><time>2026-04-18T16:41:30.649Z</time></trkpt><trkpt lat="9.9084051" lon="-75.3670537"><ele>24.0</ele><time>2026-04-18T16:41:31.651Z</time></trkpt><trkpt lat="9.9084635" lon="-75.3669999"><ele>24.0</ele><time>2026-04-18T16:41:32.647Z</time></trkpt><trkpt lat="9.9085186" lon="-75.3669411"><ele>24.0</ele><time>2026-04-18T16:41:33.647Z</time></trkpt><trkpt lat="9.908575" lon="-75.3668805"><ele>23.833333333333332</ele><time>2026-04-18T16:41:34.648Z</time></trkpt><trkpt lat="9.9086303" lon="-75.3668214"><ele>23.666666666666668</ele><time>2026-04-18T16:41:35.649Z</time></trkpt><trkpt lat="9.9086841" lon="-75.3667613"><ele>23.5</ele><time>2026-04-18T16:41:36.649Z</time></trkpt><trkpt lat="9.90874" lon="-75.3667026"><ele>23.333333333333336</ele><time>2026-04-18T16:41:37.649Z</time></trkpt><trkpt lat="9.9087975" lon="-75.3666441"><ele>23.166666666666668</ele><time>2026-04-18T16:41:38.647Z</time></trkpt><trkpt lat="9.9088523" lon="-75.3665842"><ele>23.0</ele><time>2026-04-18T16:41:39.653Z</time></trkpt><trkpt lat="9.9089077" lon="-75.3665246"><ele>23.0</ele><time>2026-04-18T16:41:40.652Z</time></trkpt><trkpt lat="9.9089655" lon="-75.3664652"><ele>23.0</ele><time>2026-04-18T16:41:41.649Z</time></trkpt><trkpt lat="9.9090225" lon="-75.3664047"><ele>23.0</ele><time>2026-04-18T16:41:42.654Z</time></trkpt><trkpt lat="9.9090776" lon="-75.366344"><ele>23.0</ele><time>2026-04-18T16:41:43.646Z</time></trkpt><trkpt lat="9.9091319" lon="-75.3662837"><ele>23.0</ele><time>2026-04-18T16:41:44.652Z</time></trkpt><trkpt lat="9.9091845" lon="-75.3662273"><ele>23.0</ele><time>2026-04-18T16:41:45.651Z</time></trkpt><trkpt lat="9.909243" lon="-75.3661702"><ele>23.0</ele><time>2026-04-18T16:41:46.647Z</time></trkpt><trkpt lat="9.9092955" lon="-75.3661117"><ele>23.0</ele><time>2026-04-18T16:41:47.649Z</time></trkpt><trkpt lat="9.9093509" lon="-75.3660503"><ele>23.0</ele><time>2026-04-18T16:41:48.647Z</time></trkpt><trkpt lat="9.9094058" lon="-75.3659852"><ele>23.0</ele><time>2026-04-18T16:41:49.65Z</time></trkpt><trkpt lat="9.9094557" lon="-75.3659223"><ele>23.0</ele><time>2026-04-18T16:41:50.646Z</time></trkpt><trkpt lat="9.9095092" lon="-75.3658602"><ele>23.0</ele><time>2026-04-18T16:41:51.649Z</time></trkpt><trkpt lat="9.9095638" lon="-75.3657912"><ele>23.0</ele><time>2026-04-18T16:41:52.648Z</time></trkpt><trkpt lat="9.9096152" lon="-75.3657222"><ele>23.0</ele><time>2026-04-18T16:41:53.654Z</time></trkpt><trkpt lat="9.9096624" lon="-75.3656519"><ele>23.0</ele><time>2026-04-18T16:41:54.655Z</time></trkpt><trkpt lat="9.9097086" lon="-75.3655808"><ele>23.0</ele><time>2026-04-18T16:41:55.658Z</time></trkpt><trkpt lat="9.9097572" lon="-75.3655068"><ele>23.0</ele><time>2026-04-18T16:41:56.651Z</time></trkpt><trkpt lat="9.9098036" lon="-75.3654312"><ele>23.0</ele><time>2026-04-18T16:41:57.648Z</time></trkpt><trkpt lat="9.9098476" lon="-75.365358"><ele>22.833333333333336</ele><time>2026-04-18T16:41:58.651Z</time></trkpt><trkpt lat="9.9098876" lon="-75.3652822"><ele>22.666666666666668</ele><time>2026-04-18T16:41:59.647Z</time></trkpt><trkpt lat="9.9099262" lon="-75.3652047"><ele>22.5</ele><time>2026-04-18T16:42:00.648Z</time></trkpt><trkpt lat="9.909963" lon="-75.365126"><ele>22.333333333333332</ele><time>2026-04-18T16:42:01.65Z</time></trkpt><trkpt lat="9.9099989" lon="-75.3650446"><ele>22.166666666666664</ele><time>2026-04-18T16:42:02.659Z</time></trkpt><trkpt lat="9.910033" lon="-75.3649668"><ele>22.0</ele><time>2026-04-18T16:42:03.651Z</time></trkpt><trkpt lat="9.9100664" lon="-75.3648837"><ele>22.0</ele><time>2026-04-18T16:42:04.65Z</time></trkpt><trkpt lat="9.9100978" lon="-75.364801"><ele>22.0</ele><time>2026-04-18T16:42:05.648Z</time></trkpt><trkpt lat="9.9101268" lon="-75.3647186"><ele>22.0</ele><time>2026-04-18T16:42:06.65Z</time></trkpt><trkpt lat="9.910152" lon="-75.3646339"><ele>22.0</ele><time>2026-04-18T16:42:07.653Z</time></trkpt><trkpt lat="9.9101782" lon="-75.3645472"><ele>22.0</ele><time>2026-04-18T16:42:08.652Z</time></trkpt><trkpt lat="9.9101997" lon="-75.3644633"><ele>22.0</ele><time>2026-04-18T16:42:09.657Z</time></trkpt><trkpt lat="9.9102154" lon="-75.3643762"><ele>21.5</ele><time>2026-04-18T16:42:10.651Z</time></trkpt><trkpt lat="9.9102327" lon="-75.3642883"><ele>21.0</ele><time>2026-04-18T16:42:11.653Z</time></trkpt><trkpt lat="9.9102478" lon="-75.3642052"><ele>20.5</ele><time>2026-04-18T16:42:12.655Z</time></trkpt><trkpt lat="9.9102637" lon="-75.3641162"><ele>20.0</ele><time>2026-04-18T16:42:13.647Z</time></trkpt><trkpt lat="9.9102748" lon="-75.3640279"><ele>19.5</ele><time>2026-04-18T16:42:14.653Z</time></trkpt><trkpt lat="9.9102864" lon="-75.3639404"><ele>19.0</ele><time>2026-04-18T16:42:15.65Z</time></trkpt><trkpt lat="9.9102941" lon="-75.3638469"><ele>19.0</ele><time>2026-04-18T16:42:16.652Z</time></trkpt><trkpt lat="9.9102984" lon="-75.3637573"><ele>19.0</ele><time>2026-04-18T16:42:17.652Z</time></trkpt><trkpt lat="9.910307" lon="-75.3636664"><ele>19.0</ele><time>2026-04-18T16:42:18.651Z</time></trkpt><trkpt lat="9.9103135" lon="-75.3635785"><ele>19.0</ele><time>2026-04-18T16:42:19.65Z</time></trkpt><trkpt lat="9.9103195" lon="-75.3634872"><ele>19.0</ele><time>2026-04-18T16:42:20.649Z</time></trkpt><trkpt lat="9.9103244" lon="-75.3634006"><ele>19.0</ele><time>2026-04-18T16:42:21.649Z</time></trkpt><trkpt lat="9.9103293" lon="-75.3633129"><ele>19.0</ele><time>2026-04-18T16:42:22.648Z</time></trkpt><trkpt lat="9.9103387" lon="-75.3632321"><ele>19.0</ele><time>2026-04-18T16:42:23.65Z</time></trkpt><trkpt lat="9.9103455" lon="-75.3631457"><ele>19.0</ele><time>2026-04-18T16:42:24.652Z</time></trkpt><trkpt lat="9.9103454" lon="-75.363058"><ele>19.0</ele><time>2026-04-18T16:42:25.652Z</time></trkpt><trkpt lat="9.9103458" lon="-75.3629721"><ele>19.0</ele><time>2026-04-18T16:42:26.648Z</time></trkpt><trkpt lat="9.9103452" lon="-75.3628832"><ele>19.0</ele><time>2026-04-18T16:42:27.654Z</time></trkpt><trkpt lat="9.9103459" lon="-75.3627942"><ele>19.166666666666664</ele><time>2026-04-18T16:42:28.652Z</time></trkpt><trkpt lat="9.9103504" lon="-75.3627064"><ele>19.333333333333332</ele><time>2026-04-18T16:42:29.649Z</time></trkpt><trkpt lat="9.9103522" lon="-75.3626191"><ele>19.5</ele><time>2026-04-18T16:42:30.65Z</time></trkpt><trkpt lat="9.9103532" lon="-75.3625344"><ele>19.666666666666668</ele><time>2026-04-18T16:42:31.651Z</time></trkpt><trkpt lat="9.9103572" lon="-75.3624498"><ele>19.833333333333336</ele><time>2026-04-18T16:42:32.651Z</time></trkpt><trkpt lat="9.9103619" lon="-75.3623646"><ele>20.0</ele><time>2026-04-18T16:42:33.653Z</time></trkpt><trkpt lat="9.9103658" lon="-75.3622794"><ele>20.166666666666668</ele><time>2026-04-18T16:42:34.65Z</time></trkpt><trkpt lat="9.9103691" lon="-75.3621957"><ele>20.333333333333336</ele><time>2026-04-18T16:42:35.651Z</time></trkpt><trkpt lat="9.9103735" lon="-75.3621092"><ele>20.5</ele><time>2026-04-18T16:42:36.646Z</time></trkpt><trkpt lat="9.9103826" lon="-75.3620245"><ele>20.666666666666668</ele><time>2026-04-18T16:42:37.647Z</time></trkpt><trkpt lat="9.910385" lon="-75.3619359"><ele>20.833333333333332</ele><time>2026-04-18T16:42:38.65Z</time></trkpt><trkpt lat="9.9103891" lon="-75.3618518"><ele>21.0</ele><time>2026-04-18T16:42:39.653Z</time></trkpt><trkpt lat="9.9103914" lon="-75.3617668"><ele>21.0</ele><time>2026-04-18T16:42:40.653Z</time></trkpt><trkpt lat="9.910399" lon="-75.361685"><ele>21.0</ele><time>2026-04-18T16:42:41.651Z</time></trkpt><trkpt lat="9.9104065" lon="-75.3616002"><ele>21.0</ele><time>2026-04-18T16:42:42.648Z</time></trkpt><trkpt lat="9.9104097" lon="-75.3615155"><ele>21.0</ele><time>2026-04-18T16:42:43.648Z</time></trkpt><trkpt lat="9.910414" lon="-75.3614299"><ele>21.0</ele><time>2026-04-18T16:42:44.653Z</time></trkpt><trkpt lat="9.9104209" lon="-75.3613458"><ele>21.0</ele><time>2026-04-18T16:42:45.648Z</time></trkpt><trkpt lat="9.9104283" lon="-75.3612652"><ele>21.0</ele><time>2026-04-18T16:42:46.651Z</time></trkpt><trkpt lat="9.9104343" lon="-75.3611833"><ele>21.0</ele><time>2026-04-18T16:42:47.651Z</time></trkpt><trkpt lat="9.9104409" lon="-75.3611004"><ele>21.0</ele><time>2026-04-18T16:42:48.65Z</time></trkpt><trkpt lat="9.9104492" lon="-75.3610179"><ele>21.0</ele><time>2026-04-18T16:42:49.648Z</time></trkpt><trkpt lat="9.9104582" lon="-75.3609366"><ele>21.0</ele><time>2026-04-18T16:42:50.649Z</time></trkpt><trkpt lat="9.9104683" lon="-75.3608575"><ele>21.0</ele><time>2026-04-18T16:42:51.648Z</time></trkpt><trkpt lat="9.9104767" lon="-75.3607766"><ele>21.0</ele><time>2026-04-18T16:42:52.651Z</time></trkpt><trkpt lat="9.9104821" lon="-75.3606987"><ele>21.0</ele><time>2026-04-18T16:42:53.649Z</time></trkpt><trkpt lat="9.9104883" lon="-75.3606184"><ele>21.0</ele><time>2026-04-18T16:42:54.65Z</time></trkpt><trkpt lat="9.9104958" lon="-75.3605382"><ele>21.0</ele><time>2026-04-18T16:42:55.647Z</time></trkpt><trkpt lat="9.9105032" lon="-75.3604599"><ele>21.0</ele><time>2026-04-18T16:42:56.648Z</time></trkpt><trkpt lat="9.9105107" lon="-75.360381"><ele>21.0</ele><time>2026-04-18T16:42:57.65Z</time></trkpt><trkpt lat="9.910516" lon="-75.3603058"><ele>21.166666666666668</ele><time>2026-04-18T16:42:58.65Z</time></trkpt><trkpt lat="9.9105205" lon="-75.3602236"><ele>21.333333333333332</ele><time>2026-04-18T16:42:59.648Z</time></trkpt><trkpt lat="9.9105274" lon="-75.3601454"><ele>21.5</ele><time>2026-04-18T16:43:00.648Z</time></trkpt><trkpt lat="9.9105329" lon="-75.360066"><ele>21.666666666666664</ele><time>2026-04-18T16:43:01.653Z</time></trkpt><trkpt lat="9.9105399" lon="-75.3599886"><ele>21.833333333333332</ele><time>2026-04-18T16:43:02.653Z</time></trkpt><trkpt lat="9.9105475" lon="-75.3599091"><ele>22.0</ele><time>2026-04-18T16:43:03.652Z</time></trkpt><trkpt lat="9.9105534" lon="-75.3598245"><ele>22.0</ele><time>2026-04-18T16:43:04.654Z</time></trkpt><trkpt lat="9.9105578" lon="-75.3597397"><ele>22.0</ele><time>2026-04-18T16:43:05.655Z</time></trkpt><trkpt lat="9.9105648" lon="-75.3596628"><ele>22.0</ele><time>2026-04-18T16:43:06.655Z</time></trkpt><trkpt lat="9.9105736" lon="-75.359587"><ele>22.0</ele><time>2026-04-18T16:43:07.654Z</time></trkpt><trkpt lat="9.9105828" lon="-75.3595081"><ele>22.0</ele><time>2026-04-18T16:43:08.651Z</time></trkpt><trkpt lat="9.9105915" lon="-75.3594329"><ele>22.0</ele><time>2026-04-18T16:43:09.649Z</time></trkpt><trkpt lat="9.9105941" lon="-75.3593517"><ele>22.333333333333332</ele><time>2026-04-18T16:43:10.656Z</time></trkpt><trkpt lat="9.9106047" lon="-75.3592823"><ele>22.666666666666664</ele><time>2026-04-18T16:43:11.65Z</time></trkpt><trkpt lat="9.9106114" lon="-75.3592045"><ele>23.0</ele><time>2026-04-18T16:43:12.648Z</time></trkpt><trkpt lat="9.910619" lon="-75.3591253"><ele>23.333333333333332</ele><time>2026-04-18T16:43:13.649Z</time></trkpt><trkpt lat="9.9106305" lon="-75.3590464"><ele>23.666666666666668</ele><time>2026-04-18T16:43:14.655Z</time></trkpt><trkpt lat="9.9106392" lon="-75.358967"><ele>24.0</ele><time>2026-04-18T16:43:15.658Z</time></trkpt><trkpt lat="9.9106475" lon="-75.358889"><ele>24.0</ele><time>2026-04-18T16:43:16.652Z</time></trkpt><trkpt lat="9.9106579" lon="-75.3588098"><ele>24.0</ele><time>2026-04-18T16:43:17.653Z</time></trkpt><trkpt lat="9.9106687" lon="-75.3587325"><ele>24.0</ele><time>2026-04-18T16:43:18.654Z</time></trkpt><trkpt lat="9.9106731" lon="-75.3586576"><ele>24.0</ele><time>2026-04-18T16:43:19.652Z</time></trkpt><trkpt lat="9.9106782" lon="-75.3585811"><ele>24.0</ele><time>2026-04-18T16:43:20.66Z</time></trkpt><trkpt lat="9.9106836" lon="-75.3585005"><ele>24.0</ele><time>2026-04-18T16:43:21.649Z</time></trkpt><trkpt lat="9.9106895" lon="-75.3584212"><ele>24.0</ele><time>2026-04-18T16:43:22.652Z</time></trkpt><trkpt lat="9.910696" lon="-75.3583395"><ele>24.0</ele><time>2026-04-18T16:43:23.654Z</time></trkpt><trkpt lat="9.910699" lon="-75.3582569"><ele>24.0</ele><time>2026-04-18T16:43:24.652Z</time></trkpt><trkpt lat="9.9107035" lon="-75.3581743"><ele>24.0</ele><time>2026-04-18T16:43:25.651Z</time></trkpt><trkpt lat="9.9107119" lon="-75.3580957"><ele>24.0</ele><time>2026-04-18T16:43:26.649Z</time></trkpt><trkpt lat="9.9107201" lon="-75.3580124"><ele>24.0</ele><time>2026-04-18T16:43:27.65Z</time></trkpt><trkpt lat="9.9107264" lon="-75.3579291"><ele>23.833333333333332</ele><time>2026-04-18T16:43:28.651Z</time></trkpt><trkpt lat="9.9107332" lon="-75.3578476"><ele>23.666666666666668</ele><time>2026-04-18T16:43:29.655Z</time></trkpt><trkpt lat="9.9107413" lon="-75.3577662"><ele>23.5</ele><time>2026-04-18T16:43:30.646Z</time></trkpt><trkpt lat="9.9107485" lon="-75.3576843"><ele>23.333333333333336</ele><time>2026-04-18T16:43:31.648Z</time></trkpt><trkpt lat="9.9107564" lon="-75.3575984"><ele>23.166666666666668</ele><time>2026-04-18T16:43:32.653Z</time></trkpt><trkpt lat="9.9107664" lon="-75.3575116"><ele>23.0</ele><time>2026-04-18T16:43:33.653Z</time></trkpt><trkpt lat="9.910771" lon="-75.3574237"><ele>23.0</ele><time>2026-04-18T16:43:34.65Z</time></trkpt><trkpt lat="9.9107767" lon="-75.3573359"><ele>23.0</ele><time>2026-04-18T16:43:35.662Z</time></trkpt><trkpt lat="9.9107795" lon="-75.3572483"><ele>23.0</ele><time>2026-04-18T16:43:36.655Z</time></trkpt><trkpt lat="9.910784" lon="-75.3571614"><ele>23.0</ele><time>2026-04-18T16:43:37.659Z</time></trkpt><trkpt lat="9.9107892" lon="-75.357073"><ele>23.0</ele><time>2026-04-18T16:43:38.653Z</time></trkpt><trkpt lat="9.910796" lon="-75.3569858"><ele>23.0</ele><time>2026-04-18T16:43:39.655Z</time></trkpt><trkpt lat="9.9108074" lon="-75.3568978"><ele>23.0</ele><time>2026-04-18T16:43:40.656Z</time></trkpt><trkpt lat="9.9108125" lon="-75.3568126"><ele>23.0</ele><time>2026-04-18T16:43:41.651Z</time></trkpt><trkpt lat="9.9108204" lon="-75.3567256"><ele>23.0</ele><time>2026-04-18T16:43:42.653Z</time></trkpt><trkpt lat="9.9108297" lon="-75.3566415"><ele>23.0</ele><time>2026-04-18T16:43:43.655Z</time></trkpt><trkpt lat="9.9108362" lon="-75.3565518"><ele>23.0</ele><time>2026-04-18T16:43:44.652Z</time></trkpt><trkpt lat="9.9108423" lon="-75.3564658"><ele>23.0</ele><time>2026-04-18T16:43:45.649Z</time></trkpt><trkpt lat="9.9108476" lon="-75.3563754"><ele>23.0</ele><time>2026-04-18T16:43:46.649Z</time></trkpt><trkpt lat="9.9108574" lon="-75.3562876"><ele>23.0</ele><time>2026-04-18T16:43:47.65Z</time></trkpt><trkpt lat="9.9108654" lon="-75.3561996"><ele>23.0</ele><time>2026-04-18T16:43:48.65Z</time></trkpt><trkpt lat="9.9108745" lon="-75.3561088"><ele>23.0</ele><time>2026-04-18T16:43:49.649Z</time></trkpt><trkpt lat="9.9108815" lon="-75.356022"><ele>23.0</ele><time>2026-04-18T16:43:50.651Z</time></trkpt><trkpt lat="9.9108854" lon="-75.3559376"><ele>23.0</ele><time>2026-04-18T16:43:51.653Z</time></trkpt><trkpt lat="9.9108912" lon="-75.3558524"><ele>23.0</ele><time>2026-04-18T16:43:52.654Z</time></trkpt><trkpt lat="9.9109032" lon="-75.3557711"><ele>23.0</ele><time>2026-04-18T16:43:53.65Z</time></trkpt><trkpt lat="9.9109144" lon="-75.3556858"><ele>23.0</ele><time>2026-04-18T16:43:54.655Z</time></trkpt><trkpt lat="9.910923" lon="-75.3556"><ele>23.0</ele><time>2026-04-18T16:43:55.654Z</time></trkpt><trkpt lat="9.910932" lon="-75.3555134"><ele>23.0</ele><time>2026-04-18T16:43:56.654Z</time></trkpt><trkpt lat="9.9109386" lon="-75.3554287"><ele>23.0</ele><time>2026-04-18T16:43:57.651Z</time></trkpt><trkpt lat="9.9109437" lon="-75.3553407"><ele>22.833333333333336</ele><time>2026-04-18T16:43:58.651Z</time></trkpt><trkpt lat="9.9109539" lon="-75.3552572"><ele>22.666666666666668</ele><time>2026-04-18T16:43:59.652Z</time></trkpt><trkpt lat="9.9109636" lon="-75.3551709"><ele>22.5</ele><time>2026-04-18T16:44:00.651Z</time></trkpt><trkpt lat="9.9109718" lon="-75.355086"><ele>22.333333333333332</ele><time>2026-04-18T16:44:01.649Z</time></trkpt><trkpt lat="9.9109827" lon="-75.3549991"><ele>22.166666666666664</ele><time>2026-04-18T16:44:02.651Z</time></trkpt><trkpt lat="9.9109916" lon="-75.3549145"><ele>22.0</ele><time>2026-04-18T16:44:03.65Z</time></trkpt><trkpt lat="9.9109989" lon="-75.3548285"><ele>22.0</ele><time>2026-04-18T16:44:04.655Z</time></trkpt><trkpt lat="9.9110103" lon="-75.3547467"><ele>22.0</ele><time>2026-04-18T16:44:05.647Z</time></trkpt><trkpt lat="9.9110165" lon="-75.3546643"><ele>22.0</ele><time>2026-04-18T16:44:06.648Z</time></trkpt><trkpt lat="9.9110234" lon="-75.3545847"><ele>22.0</ele><time>2026-04-18T16:44:07.649Z</time></trkpt><trkpt lat="9.9110298" lon="-75.3545078"><ele>22.0</ele><time>2026-04-18T16:44:08.648Z</time></trkpt><trkpt lat="9.9110376" lon="-75.3544292"><ele>22.0</ele><time>2026-04-18T16:44:09.649Z</time></trkpt><trkpt lat="9.9110442" lon="-75.3543494"><ele>22.166666666666664</ele><time>2026-04-18T16:44:10.651Z</time></trkpt><trkpt lat="9.9110483" lon="-75.3542683"><ele>22.333333333333332</ele><time>2026-04-18T16:44:11.649Z</time></trkpt><trkpt lat="9.9110539" lon="-75.3541899"><ele>22.5</ele><time>2026-04-18T16:44:12.651Z</time></trkpt><trkpt lat="9.9110608" lon="-75.3541106"><ele>22.666666666666668</ele><time>2026-04-18T16:44:13.648Z</time></trkpt><trkpt lat="9.9110651" lon="-75.3540318"><ele>22.833333333333336</ele><time>2026-04-18T16:44:14.647Z</time></trkpt><trkpt lat="9.9110731" lon="-75.3539493"><ele>23.0</ele><time>2026-04-18T16:44:15.652Z</time></trkpt><trkpt lat="9.911079" lon="-75.3538661"><ele>22.666666666666668</ele><time>2026-04-18T16:44:16.651Z</time></trkpt><trkpt lat="9.9110887" lon="-75.3537869"><ele>22.333333333333336</ele><time>2026-04-18T16:44:17.65Z</time></trkpt><trkpt lat="9.9110984" lon="-75.3537062"><ele>22.0</ele><time>2026-04-18T16:44:18.651Z</time></trkpt><trkpt lat="9.9111033" lon="-75.353624"><ele>21.666666666666668</ele><time>2026-04-18T16:44:19.646Z</time></trkpt><trkpt lat="9.9111098" lon="-75.3535473"><ele>21.333333333333332</ele><time>2026-04-18T16:44:20.651Z</time></trkpt><trkpt lat="9.9111117" lon="-75.3534643"><ele>21.0</ele><time>2026-04-18T16:44:21.648Z</time></trkpt><trkpt lat="9.911115" lon="-75.3533875"><ele>21.0</ele><time>2026-04-18T16:44:22.648Z</time></trkpt><trkpt lat="9.9111208" lon="-75.3533102"><ele>21.0</ele><time>2026-04-18T16:44:23.648Z</time></trkpt><trkpt lat="9.9111294" lon="-75.3532347"><ele>21.0</ele><time>2026-04-18T16:44:24.65Z</time></trkpt><trkpt lat="9.9111352" lon="-75.3531553"><ele>21.0</ele><time>2026-04-18T16:44:25.651Z</time></trkpt><trkpt lat="9.9111412" lon="-75.3530769"><ele>21.0</ele><time>2026-04-18T16:44:26.649Z</time></trkpt><trkpt lat="9.9111475" lon="-75.3529942"><ele>21.0</ele><time>2026-04-18T16:44:27.649Z</time></trkpt><trkpt lat="9.9111542" lon="-75.352913"><ele>21.166666666666668</ele><time>2026-04-18T16:44:28.657Z</time></trkpt><trkpt lat="9.9111634" lon="-75.3528324"><ele>21.333333333333332</ele><time>2026-04-18T16:44:29.652Z</time></trkpt><trkpt lat="9.9111702" lon="-75.3527542"><ele>21.5</ele><time>2026-04-18T16:44:30.651Z</time></trkpt><trkpt lat="9.9111747" lon="-75.3526711"><ele>21.666666666666664</ele><time>2026-04-18T16:44:31.654Z</time></trkpt><trkpt lat="9.9111798" lon="-75.3525929"><ele>21.833333333333332</ele><time>2026-04-18T16:44:32.655Z</time></trkpt><trkpt lat="9.9111864" lon="-75.3525142"><ele>22.0</ele><time>2026-04-18T16:44:33.652Z</time></trkpt><trkpt lat="9.9111954" lon="-75.3524345"><ele>22.0</ele><time>2026-04-18T16:44:34.654Z</time></trkpt><trkpt lat="9.9112036" lon="-75.3523543"><ele>22.0</ele><time>2026-04-18T16:44:35.652Z</time></trkpt><trkpt lat="9.9112072" lon="-75.3522746"><ele>22.0</ele><time>2026-04-18T16:44:36.653Z</time></trkpt><trkpt lat="9.9112137" lon="-75.3521939"><ele>22.0</ele><time>2026-04-18T16:44:37.647Z</time></trkpt><trkpt lat="9.911222" lon="-75.3521134"><ele>22.0</ele><time>2026-04-18T16:44:38.646Z</time></trkpt><trkpt lat="9.91123" lon="-75.3520325"><ele>22.0</ele><time>2026-04-18T16:44:39.651Z</time></trkpt><trkpt lat="9.9112342" lon="-75.35195"><ele>22.333333333333332</ele><time>2026-04-18T16:44:40.649Z</time></trkpt><trkpt lat="9.9112402" lon="-75.3518706"><ele>22.666666666666664</ele><time>2026-04-18T16:44:41.648Z</time></trkpt><trkpt lat="9.9112443" lon="-75.3517875"><ele>23.0</ele><time>2026-04-18T16:44:42.65Z</time></trkpt><trkpt lat="9.9112531" lon="-75.3517051"><ele>23.333333333333332</ele><time>2026-04-18T16:44:43.647Z</time></trkpt><trkpt lat="9.9112611" lon="-75.3516241"><ele>23.666666666666668</ele><time>2026-04-18T16:44:44.655Z</time></trkpt><trkpt lat="9.9112698" lon="-75.3515414"><ele>24.0</ele><time>2026-04-18T16:44:45.651Z</time></trkpt><trkpt lat="9.9112777" lon="-75.3514609"><ele>24.0</ele><time>2026-04-18T16:44:46.654Z</time></trkpt><trkpt lat="9.9112849" lon="-75.3513811"><ele>24.0</ele><time>2026-04-18T16:44:47.651Z</time></trkpt><trkpt lat="9.9112921" lon="-75.3513012"><ele>24.0</ele><time>2026-04-18T16:44:48.652Z</time></trkpt><trkpt lat="9.9112987" lon="-75.3512206"><ele>24.0</ele><time>2026-04-18T16:44:49.65Z</time></trkpt><trkpt lat="9.9113055" lon="-75.3511413"><ele>24.0</ele><time>2026-04-18T16:44:50.65Z</time></trkpt><trkpt lat="9.9113117" lon="-75.3510628"><ele>24.0</ele><time>2026-04-18T16:44:51.655Z</time></trkpt><trkpt lat="9.9113154" lon="-75.3509836"><ele>24.0</ele><time>2026-04-18T16:44:52.653Z</time></trkpt><trkpt lat="9.9113226" lon="-75.3509048"><ele>24.0</ele><time>2026-04-18T16:44:53.654Z</time></trkpt><trkpt lat="9.9113286" lon="-75.350823"><ele>24.0</ele><time>2026-04-18T16:44:54.649Z</time></trkpt><trkpt lat="9.9113338" lon="-75.3507428"><ele>24.0</ele><time>2026-04-18T16:44:55.646Z</time></trkpt><trkpt lat="9.9113419" lon="-75.3506648"><ele>24.0</ele><time>2026-04-18T16:44:56.652Z</time></trkpt><trkpt lat="9.9113478" lon="-75.3505845"><ele>24.0</ele><time>2026-04-18T16:44:57.652Z</time></trkpt><trkpt lat="9.9113547" lon="-75.350507"><ele>23.833333333333332</ele><time>2026-04-18T16:44:58.654Z</time></trkpt><trkpt lat="9.9113612" lon="-75.350425"><ele>23.666666666666668</ele><time>2026-04-18T16:44:59.652Z</time></trkpt><trkpt lat="9.9113649" lon="-75.3503457"><ele>23.5</ele><time>2026-04-18T16:45:00.653Z</time></trkpt><trkpt lat="9.9113708" lon="-75.3502654"><ele>23.333333333333336</ele><time>2026-04-18T16:45:01.651Z</time></trkpt><trkpt lat="9.911376" lon="-75.3501849"><ele>23.166666666666668</ele><time>2026-04-18T16:45:02.653Z</time></trkpt><trkpt lat="9.9113822" lon="-75.3501025"><ele>23.0</ele><time>2026-04-18T16:45:03.651Z</time></trkpt><trkpt lat="9.9113889" lon="-75.3500198"><ele>23.0</ele><time>2026-04-18T16:45:04.659Z</time></trkpt><trkpt lat="9.9113968" lon="-75.349938"><ele>23.0</ele><time>2026-04-18T16:45:05.649Z</time></trkpt><trkpt lat="9.9114045" lon="-75.3498546"><ele>23.0</ele><time>2026-04-18T16:45:06.651Z</time></trkpt><trkpt lat="9.9114119" lon="-75.3497749"><ele>23.0</ele><time>2026-04-18T16:45:07.647Z</time></trkpt><trkpt lat="9.9114195" lon="-75.3496951"><ele>23.0</ele><time>2026-04-18T16:45:08.646Z</time></trkpt><trkpt lat="9.9114261" lon="-75.3496158"><ele>23.0</ele><time>2026-04-18T16:45:09.652Z</time></trkpt><trkpt lat="9.9114343" lon="-75.3495358"><ele>22.666666666666668</ele><time>2026-04-18T16:45:10.646Z</time></trkpt><trkpt lat="9.9114419" lon="-75.349454"><ele>22.333333333333336</ele><time>2026-04-18T16:45:11.649Z</time></trkpt><trkpt lat="9.9114498" lon="-75.3493694"><ele>22.0</ele><time>2026-04-18T16:45:12.651Z</time></trkpt><trkpt lat="9.9114619" lon="-75.3492864"><ele>21.666666666666668</ele><time>2026-04-18T16:45:13.655Z</time></trkpt><trkpt lat="9.9114683" lon="-75.3492041"><ele>21.333333333333332</ele><time>2026-04-18T16:45:14.654Z</time></trkpt><trkpt lat="9.9114775" lon="-75.3491209"><ele>21.0</ele><time>2026-04-18T16:45:15.659Z</time></trkpt><trkpt lat="9.911485" lon="-75.3490427"><ele>21.0</ele><time>2026-04-18T16:45:16.651Z</time></trkpt><trkpt lat="9.9114947" lon="-75.3489602"><ele>21.0</ele><time>2026-04-18T16:45:17.656Z</time></trkpt><trkpt lat="9.9114998" lon="-75.3488791"><ele>21.0</ele><time>2026-04-18T16:45:18.652Z</time></trkpt><trkpt lat="9.9115033" lon="-75.3487943"><ele>21.0</ele><time>2026-04-18T16:45:19.648Z</time></trkpt><trkpt lat="9.9115072" lon="-75.3487102"><ele>21.0</ele><time>2026-04-18T16:45:20.649Z</time></trkpt><trkpt lat="9.9115131" lon="-75.3486269"><ele>21.0</ele><time>2026-04-18T16:45:21.647Z</time></trkpt><trkpt lat="9.9115111" lon="-75.3485409"><ele>21.166666666666668</ele><time>2026-04-18T16:45:22.647Z</time></trkpt><trkpt lat="9.911517" lon="-75.3484567"><ele>21.333333333333332</ele><time>2026-04-18T16:45:23.648Z</time></trkpt><trkpt lat="9.9115244" lon="-75.3483726"><ele>21.5</ele><time>2026-04-18T16:45:24.65Z</time></trkpt><trkpt lat="9.9115339" lon="-75.3482872"><ele>21.666666666666664</ele><time>2026-04-18T16:45:25.651Z</time></trkpt><trkpt lat="9.9115415" lon="-75.3482019"><ele>21.833333333333332</ele><time>2026-04-18T16:45:26.648Z</time></trkpt><trkpt lat="9.9115478" lon="-75.3481174"><ele>22.0</ele><time>2026-04-18T16:45:27.654Z</time></trkpt><trkpt lat="9.9115544" lon="-75.3480327"><ele>22.0</ele><time>2026-04-18T16:45:28.656Z</time></trkpt><trkpt lat="9.9115627" lon="-75.3479496"><ele>22.0</ele><time>2026-04-18T16:45:29.66Z</time></trkpt><trkpt lat="9.9115706" lon="-75.3478654"><ele>22.0</ele><time>2026-04-18T16:45:30.647Z</time></trkpt><trkpt lat="9.9115785" lon="-75.3477807"><ele>22.0</ele><time>2026-04-18T16:45:31.652Z</time></trkpt><trkpt lat="9.9115862" lon="-75.3476957"><ele>22.0</ele><time>2026-04-18T16:45:32.651Z</time></trkpt><trkpt lat="9.9115926" lon="-75.3476109"><ele>22.0</ele><time>2026-04-18T16:45:33.655Z</time></trkpt><trkpt lat="9.9115983" lon="-75.3475261"><ele>22.0</ele><time>2026-04-18T16:45:34.647Z</time></trkpt><trkpt lat="9.9116053" lon="-75.347443"><ele>22.0</ele><time>2026-04-18T16:45:35.647Z</time></trkpt><trkpt lat="9.9116132" lon="-75.3473592"><ele>22.0</ele><time>2026-04-18T16:45:36.654Z</time></trkpt><trkpt lat="9.911621" lon="-75.3472765"><ele>22.0</ele><time>2026-04-18T16:45:37.65Z</time></trkpt><trkpt lat="9.9116294" lon="-75.3471945"><ele>22.0</ele><time>2026-04-18T16:45:38.652Z</time></trkpt><trkpt lat="9.9116337" lon="-75.3471098"><ele>22.0</ele><time>2026-04-18T16:45:39.65Z</time></trkpt><trkpt lat="9.9116421" lon="-75.3470265"><ele>21.5</ele><time>2026-04-18T16:45:40.652Z</time></trkpt><trkpt lat="9.9116495" lon="-75.3469437"><ele>21.0</ele><time>2026-04-18T16:45:41.65Z</time></trkpt><trkpt lat="9.911656" lon="-75.3468589"><ele>20.5</ele><time>2026-04-18T16:45:42.649Z</time></trkpt><trkpt lat="9.9116603" lon="-75.3467766"><ele>20.0</ele><time>2026-04-18T16:45:43.656Z</time></trkpt><trkpt lat="9.9116671" lon="-75.3466948"><ele>19.5</ele><time>2026-04-18T16:45:44.648Z</time></trkpt><trkpt lat="9.9116742" lon="-75.3466145"><ele>19.0</ele><time>2026-04-18T16:45:45.648Z</time></trkpt><trkpt lat="9.9116823" lon="-75.3465318"><ele>19.0</ele><time>2026-04-18T16:45:46.648Z</time></trkpt><trkpt lat="9.9116935" lon="-75.3464482"><ele>19.0</ele><time>2026-04-18T16:45:47.648Z</time></trkpt><trkpt lat="9.9116991" lon="-75.3463662"><ele>19.0</ele><time>2026-04-18T16:45:48.647Z</time></trkpt><trkpt lat="9.9117084" lon="-75.3462828"><ele>19.0</ele><time>2026-04-18T16:45:49.649Z</time></trkpt><trkpt lat="9.9117142" lon="-75.3461989"><ele>19.0</ele><time>2026-04-18T16:45:50.652Z</time></trkpt><trkpt lat="9.9117212" lon="-75.3461174"><ele>19.0</ele><time>2026-04-18T16:45:51.648Z</time></trkpt><trkpt lat="9.9117277" lon="-75.3460358"><ele>19.0</ele><time>2026-04-18T16:45:52.648Z</time></trkpt><trkpt lat="9.9117349" lon="-75.3459487"><ele>19.0</ele><time>2026-04-18T16:45:53.65Z</time></trkpt><trkpt lat="9.9117436" lon="-75.3458643"><ele>19.0</ele><time>2026-04-18T16:45:54.651Z</time></trkpt><trkpt lat="9.9117518" lon="-75.34578"><ele>19.0</ele><time>2026-04-18T16:45:55.649Z</time></trkpt><trkpt lat="9.9117609" lon="-75.3456956"><ele>19.0</ele><time>2026-04-18T16:45:56.652Z</time></trkpt><trkpt lat="9.9117692" lon="-75.3456099"><ele>19.0</ele><time>2026-04-18T16:45:57.656Z</time></trkpt><trkpt lat="9.9117771" lon="-75.3455261"><ele>19.333333333333332</ele><time>2026-04-18T16:45:58.651Z</time></trkpt><trkpt lat="9.911786" lon="-75.3454445"><ele>19.666666666666664</ele><time>2026-04-18T16:45:59.649Z</time></trkpt><trkpt lat="9.9117947" lon="-75.3453622"><ele>20.0</ele><time>2026-04-18T16:46:00.648Z</time></trkpt><trkpt lat="9.9118015" lon="-75.3452803"><ele>20.333333333333332</ele><time>2026-04-18T16:46:01.65Z</time></trkpt><trkpt lat="9.9118085" lon="-75.3451967"><ele>20.666666666666668</ele><time>2026-04-18T16:46:02.65Z</time></trkpt><trkpt lat="9.9118165" lon="-75.3451145"><ele>21.0</ele><time>2026-04-18T16:46:03.648Z</time></trkpt><trkpt lat="9.9118226" lon="-75.3450324"><ele>21.0</ele><time>2026-04-18T16:46:04.648Z</time></trkpt><trkpt lat="9.9118276" lon="-75.3449504"><ele>21.0</ele><time>2026-04-18T16:46:05.65Z</time></trkpt><trkpt lat="9.9118345" lon="-75.3448672"><ele>21.0</ele><time>2026-04-18T16:46:06.649Z</time></trkpt><trkpt lat="9.9118421" lon="-75.3447833"><ele>21.0</ele><time>2026-04-18T16:46:07.648Z</time></trkpt><trkpt lat="9.91185" lon="-75.3447017"><ele>21.0</ele><time>2026-04-18T16:46:08.652Z</time></trkpt><trkpt lat="9.9118547" lon="-75.3446179"><ele>21.0</ele><time>2026-04-18T16:46:09.648Z</time></trkpt><trkpt lat="9.9118637" lon="-75.3445358"><ele>20.666666666666668</ele><time>2026-04-18T16:46:10.646Z</time></trkpt><trkpt lat="9.9118724" lon="-75.3444525"><ele>20.333333333333332</ele><time>2026-04-18T16:46:11.652Z</time></trkpt><trkpt lat="9.9118774" lon="-75.3443689"><ele>20.0</ele><time>2026-04-18T16:46:12.655Z</time></trkpt><trkpt lat="9.9118843" lon="-75.3442891"><ele>19.666666666666664</ele><time>2026-04-18T16:46:13.651Z</time></trkpt><trkpt lat="9.911892" lon="-75.3442071"><ele>19.333333333333332</ele><time>2026-04-18T16:46:14.65Z</time></trkpt><trkpt lat="9.9119013" lon="-75.3441267"><ele>19.0</ele><time>2026-04-18T16:46:15.649Z</time></trkpt><trkpt lat="9.9119096" lon="-75.3440443"><ele>19.0</ele><time>2026-04-18T16:46:16.649Z</time></trkpt><trkpt lat="9.9119145" lon="-75.3439616"><ele>19.0</ele><time>2026-04-18T16:46:17.649Z</time></trkpt><trkpt lat="9.9119217" lon="-75.3438807"><ele>19.0</ele><time>2026-04-18T16:46:18.65Z</time></trkpt><trkpt lat="9.9119282" lon="-75.3437969"><ele>19.0</ele><time>2026-04-18T16:46:19.652Z</time></trkpt><trkpt lat="9.9119336" lon="-75.3437127"><ele>19.0</ele><time>2026-04-18T16:46:20.646Z</time></trkpt><trkpt lat="9.9119422" lon="-75.3436277"><ele>19.0</ele><time>2026-04-18T16:46:21.647Z</time></trkpt><trkpt lat="9.9119465" lon="-75.3435435"><ele>18.666666666666664</ele><time>2026-04-18T16:46:22.65Z</time></trkpt><trkpt lat="9.9119582" lon="-75.3434594"><ele>18.333333333333332</ele><time>2026-04-18T16:46:23.648Z</time></trkpt><trkpt lat="9.9119667" lon="-75.3433746"><ele>18.0</ele><time>2026-04-18T16:46:24.648Z</time></trkpt><trkpt lat="9.9119747" lon="-75.3432922"><ele>17.666666666666668</ele><time>2026-04-18T16:46:25.652Z</time></trkpt><trkpt lat="9.9119815" lon="-75.343209"><ele>17.333333333333336</ele><time>2026-04-18T16:46:26.649Z</time></trkpt><trkpt lat="9.9119901" lon="-75.3431257"><ele>17.0</ele><time>2026-04-18T16:46:27.65Z</time></trkpt><trkpt lat="9.9119973" lon="-75.3430465"><ele>17.0</ele><time>2026-04-18T16:46:28.655Z</time></trkpt><trkpt lat="9.9120047" lon="-75.3429657"><ele>17.0</ele><time>2026-04-18T16:46:29.655Z</time></trkpt><trkpt lat="9.9120102" lon="-75.3428829"><ele>17.0</ele><time>2026-04-18T16:46:30.653Z</time></trkpt><trkpt lat="9.9120173" lon="-75.3427999"><ele>17.0</ele><time>2026-04-18T16:46:31.648Z</time></trkpt><trkpt lat="9.9120236" lon="-75.342717"><ele>17.0</ele><time>2026-04-18T16:46:32.65Z</time></trkpt><trkpt lat="9.9120294" lon="-75.342635"><ele>17.0</ele><time>2026-04-18T16:46:33.65Z</time></trkpt><trkpt lat="9.9120355" lon="-75.3425526"><ele>17.0</ele><time>2026-04-18T16:46:34.654Z</time></trkpt><trkpt lat="9.9120434" lon="-75.3424701"><ele>17.0</ele><time>2026-04-18T16:46:35.649Z</time></trkpt><trkpt lat="9.9120478" lon="-75.3423898"><ele>17.0</ele><time>2026-04-18T16:46:36.651Z</time></trkpt><trkpt lat="9.9120539" lon="-75.3423071"><ele>17.0</ele><time>2026-04-18T16:46:37.647Z</time></trkpt><trkpt lat="9.9120599" lon="-75.3422247"><ele>17.0</ele><time>2026-04-18T16:46:38.653Z</time></trkpt><trkpt lat="9.9120704" lon="-75.3421472"><ele>17.0</ele><time>2026-04-18T16:46:39.65Z</time></trkpt><trkpt lat="9.9120802" lon="-75.342068"><ele>17.166666666666668</ele><time>2026-04-18T16:46:40.652Z</time></trkpt><trkpt lat="9.9120857" lon="-75.3419867"><ele>17.333333333333336</ele><time>2026-04-18T16:46:41.649Z</time></trkpt><trkpt lat="9.9120913" lon="-75.3419034"><ele>17.5</ele><time>2026-04-18T16:46:42.649Z</time></trkpt><trkpt lat="9.9120981" lon="-75.3418188"><ele>17.666666666666668</ele><time>2026-04-18T16:46:43.652Z</time></trkpt><trkpt lat="9.912106" lon="-75.3417341"><ele>17.833333333333332</ele><time>2026-04-18T16:46:44.657Z</time></trkpt><trkpt lat="9.9121152" lon="-75.3416488"><ele>18.0</ele><time>2026-04-18T16:46:45.649Z</time></trkpt><trkpt lat="9.9121214" lon="-75.3415655"><ele>18.0</ele><time>2026-04-18T16:46:46.652Z</time></trkpt><trkpt lat="9.9121274" lon="-75.341481"><ele>18.0</ele><time>2026-04-18T16:46:47.651Z</time></trkpt><trkpt lat="9.912133" lon="-75.3413984"><ele>18.0</ele><time>2026-04-18T16:46:48.648Z</time></trkpt><trkpt lat="9.9121386" lon="-75.3413146"><ele>18.0</ele><time>2026-04-18T16:46:49.657Z</time></trkpt><trkpt lat="9.9121444" lon="-75.3412296"><ele>18.0</ele><time>2026-04-18T16:46:50.65Z</time></trkpt><trkpt lat="9.912149" lon="-75.3411432"><ele>18.0</ele><time>2026-04-18T16:46:51.651Z</time></trkpt><trkpt lat="9.9121533" lon="-75.3410595"><ele>17.5</ele><time>2026-04-18T16:46:52.65Z</time></trkpt><trkpt lat="9.9121628" lon="-75.3409744"><ele>17.0</ele><time>2026-04-18T16:46:53.649Z</time></trkpt><trkpt lat="9.9121677" lon="-75.3408863"><ele>16.5</ele><time>2026-04-18T16:46:54.647Z</time></trkpt><trkpt lat="9.9121736" lon="-75.3408006"><ele>16.0</ele><time>2026-04-18T16:46:55.649Z</time></trkpt><trkpt lat="9.9121836" lon="-75.3407154"><ele>15.5</ele><time>2026-04-18T16:46:56.658Z</time></trkpt><trkpt lat="9.9121924" lon="-75.3406279"><ele>15.0</ele><time>2026-04-18T16:46:57.65Z</time></trkpt><trkpt lat="9.9122004" lon="-75.3405439"><ele>15.0</ele><time>2026-04-18T16:46:58.649Z</time></trkpt><trkpt lat="9.912207" lon="-75.3404609"><ele>15.0</ele><time>2026-04-18T16:46:59.651Z</time></trkpt><trkpt lat="9.9122142" lon="-75.3403767"><ele>15.0</ele><time>2026-04-18T16:47:00.649Z</time></trkpt><trkpt lat="9.9122199" lon="-75.3402933"><ele>15.0</ele><time>2026-04-18T16:47:01.648Z</time></trkpt><trkpt lat="9.9122269" lon="-75.3402098"><ele>15.0</ele><time>2026-04-18T16:47:02.651Z</time></trkpt><trkpt lat="9.9122338" lon="-75.3401257"><ele>15.0</ele><time>2026-04-18T16:47:03.65Z</time></trkpt><trkpt lat="9.9122432" lon="-75.3400429"><ele>15.0</ele><time>2026-04-18T16:47:04.653Z</time></trkpt><trkpt lat="9.9122563" lon="-75.3399618"><ele>15.0</ele><time>2026-04-18T16:47:05.648Z</time></trkpt><trkpt lat="9.9122668" lon="-75.3398788"><ele>15.0</ele><time>2026-04-18T16:47:06.65Z</time></trkpt><trkpt lat="9.9122813" lon="-75.3397959"><ele>15.0</ele><time>2026-04-18T16:47:07.649Z</time></trkpt><trkpt lat="9.9122986" lon="-75.339713"><ele>15.0</ele><time>2026-04-18T16:47:08.646Z</time></trkpt><trkpt lat="9.9123167" lon="-75.3396323"><ele>15.0</ele><time>2026-04-18T16:47:09.646Z</time></trkpt><trkpt lat="9.9123368" lon="-75.339558"><ele>15.333333333333334</ele><time>2026-04-18T16:47:10.646Z</time></trkpt><trkpt lat="9.9123597" lon="-75.3394791"><ele>15.666666666666668</ele><time>2026-04-18T16:47:11.649Z</time></trkpt><trkpt lat="9.9123908" lon="-75.3394051"><ele>16.0</ele><time>2026-04-18T16:47:12.659Z</time></trkpt><trkpt lat="9.9124243" lon="-75.3393249"><ele>16.333333333333336</ele><time>2026-04-18T16:47:13.65Z</time></trkpt><trkpt lat="9.9124643" lon="-75.3392449"><ele>16.666666666666668</ele><time>2026-04-18T16:47:14.645Z</time></trkpt><trkpt lat="9.912503" lon="-75.3391656"><ele>17.0</ele><time>2026-04-18T16:47:15.648Z</time></trkpt><trkpt lat="9.9125376" lon="-75.3390813"><ele>17.166666666666668</ele><time>2026-04-18T16:47:16.648Z</time></trkpt><trkpt lat="9.9125869" lon="-75.3390038"><ele>17.333333333333336</ele><time>2026-04-18T16:47:17.646Z</time></trkpt><trkpt lat="9.912631" lon="-75.33893"><ele>17.5</ele><time>2026-04-18T16:47:18.651Z</time></trkpt><trkpt lat="9.9126752" lon="-75.338853"><ele>17.666666666666668</ele><time>2026-04-18T16:47:19.647Z</time></trkpt><trkpt lat="9.9127314" lon="-75.3387826"><ele>17.833333333333332</ele><time>2026-04-18T16:47:20.648Z</time></trkpt><trkpt lat="9.9127873" lon="-75.3387131"><ele>18.0</ele><time>2026-04-18T16:47:21.649Z</time></trkpt><trkpt lat="9.912841" lon="-75.3386468"><ele>18.0</ele><time>2026-04-18T16:47:22.647Z</time></trkpt><trkpt lat="9.9129002" lon="-75.3385827"><ele>18.0</ele><time>2026-04-18T16:47:23.646Z</time></trkpt><trkpt lat="9.912957" lon="-75.3385172"><ele>18.0</ele><time>2026-04-18T16:47:24.652Z</time></trkpt><trkpt lat="9.9130122" lon="-75.3384463"><ele>18.0</ele><time>2026-04-18T16:47:25.647Z</time></trkpt><trkpt lat="9.9130688" lon="-75.338381"><ele>18.0</ele><time>2026-04-18T16:47:26.651Z</time></trkpt><trkpt lat="9.9131283" lon="-75.3383131"><ele>18.0</ele><time>2026-04-18T16:47:27.65Z</time></trkpt><trkpt lat="9.9131809" lon="-75.3382381"><ele>18.0</ele><time>2026-04-18T16:47:28.648Z</time></trkpt><trkpt lat="9.913242" lon="-75.3381725"><ele>18.0</ele><time>2026-04-18T16:47:29.652Z</time></trkpt><trkpt lat="9.9132992" lon="-75.3381052"><ele>18.0</ele><time>2026-04-18T16:47:30.646Z</time></trkpt><trkpt lat="9.9133584" lon="-75.3380358"><ele>18.0</ele><time>2026-04-18T16:47:31.648Z</time></trkpt><trkpt lat="9.9134165" lon="-75.3379684"><ele>18.0</ele><time>2026-04-18T16:47:32.651Z</time></trkpt><trkpt lat="9.9134742" lon="-75.3378992"><ele>18.0</ele><time>2026-04-18T16:47:33.649Z</time></trkpt><trkpt lat="9.9135355" lon="-75.3378247"><ele>18.0</ele><time>2026-04-18T16:47:34.648Z</time></trkpt><trkpt lat="9.9135947" lon="-75.3377549"><ele>18.0</ele><time>2026-04-18T16:47:35.649Z</time></trkpt><trkpt lat="9.9136557" lon="-75.3376845"><ele>18.0</ele><time>2026-04-18T16:47:36.662Z</time></trkpt><trkpt lat="9.9137148" lon="-75.3376154"><ele>18.0</ele><time>2026-04-18T16:47:37.655Z</time></trkpt><trkpt lat="9.9137723" lon="-75.3375469"><ele>18.0</ele><time>2026-04-18T16:47:38.648Z</time></trkpt><trkpt lat="9.9138324" lon="-75.3374777"><ele>18.0</ele><time>2026-04-18T16:47:39.651Z</time></trkpt><trkpt lat="9.9138929" lon="-75.3374078"><ele>18.0</ele><time>2026-04-18T16:47:40.648Z</time></trkpt><trkpt lat="9.9139535" lon="-75.337338"><ele>18.0</ele><time>2026-04-18T16:47:41.647Z</time></trkpt><trkpt lat="9.914013" lon="-75.337266"><ele>18.0</ele><time>2026-04-18T16:47:42.647Z</time></trkpt><trkpt lat="9.9140735" lon="-75.3371944"><ele>18.0</ele><time>2026-04-18T16:47:43.651Z</time></trkpt><trkpt lat="9.914134" lon="-75.337126"><ele>18.0</ele><time>2026-04-18T16:47:44.65Z</time></trkpt><trkpt lat="9.9141951" lon="-75.3370599"><ele>18.0</ele><time>2026-04-18T16:47:45.65Z</time></trkpt><trkpt lat="9.9142501" lon="-75.337"><ele>18.0</ele><time>2026-04-18T16:47:46.657Z</time></trkpt><trkpt lat="9.9143065" lon="-75.3369268"><ele>18.0</ele><time>2026-04-18T16:47:47.658Z</time></trkpt><trkpt lat="9.9143637" lon="-75.3368616"><ele>18.0</ele><time>2026-04-18T16:47:48.656Z</time></trkpt><trkpt lat="9.9144192" lon="-75.3367996"><ele>18.0</ele><time>2026-04-18T16:47:49.651Z</time></trkpt><trkpt lat="9.9144802" lon="-75.3367347"><ele>18.166666666666668</ele><time>2026-04-18T16:47:50.651Z</time></trkpt><trkpt lat="9.9145371" lon="-75.3366684"><ele>18.333333333333332</ele><time>2026-04-18T16:47:51.648Z</time></trkpt><trkpt lat="9.9145946" lon="-75.3366045"><ele>18.5</ele><time>2026-04-18T16:47:52.65Z</time></trkpt><trkpt lat="9.9146589" lon="-75.3365381"><ele>18.666666666666664</ele><time>2026-04-18T16:47:53.649Z</time></trkpt><trkpt lat="9.9147165" lon="-75.3364702"><ele>18.833333333333332</ele><time>2026-04-18T16:47:54.657Z</time></trkpt><trkpt lat="9.9147766" lon="-75.3364015"><ele>19.0</ele><time>2026-04-18T16:47:55.656Z</time></trkpt><trkpt lat="9.9148359" lon="-75.3363347"><ele>19.0</ele><time>2026-04-18T16:47:56.656Z</time></trkpt><trkpt lat="9.9148987" lon="-75.3362667"><ele>19.0</ele><time>2026-04-18T16:47:57.654Z</time></trkpt><trkpt lat="9.9149601" lon="-75.3361961"><ele>19.0</ele><time>2026-04-18T16:47:58.656Z</time></trkpt><trkpt lat="9.9150188" lon="-75.3361249"><ele>19.0</ele><time>2026-04-18T16:47:59.65Z</time></trkpt><trkpt lat="9.9150788" lon="-75.3360522"><ele>19.0</ele><time>2026-04-18T16:48:00.651Z</time></trkpt><trkpt lat="9.915139" lon="-75.3359799"><ele>19.2</ele><time>2026-04-18T16:48:01.647Z</time></trkpt><trkpt lat="9.915199" lon="-75.3359086"><ele>19.4</ele><time>2026-04-18T16:48:02.65Z</time></trkpt><trkpt lat="9.9152579" lon="-75.335837"><ele>19.6</ele><time>2026-04-18T16:48:03.646Z</time></trkpt><trkpt lat="9.9153178" lon="-75.3357654"><ele>19.8</ele><time>2026-04-18T16:48:04.648Z</time></trkpt><trkpt lat="9.9153836" lon="-75.3356911"><ele>20.0</ele><time>2026-04-18T16:48:05.645Z</time></trkpt><trkpt lat="9.9154434" lon="-75.3356197"><ele>19.6</ele><time>2026-04-18T16:48:06.65Z</time></trkpt><trkpt lat="9.9155061" lon="-75.3355432"><ele>19.2</ele><time>2026-04-18T16:48:07.646Z</time></trkpt><trkpt lat="9.9155605" lon="-75.3354745"><ele>18.8</ele><time>2026-04-18T16:48:08.645Z</time></trkpt><trkpt lat="9.9156221" lon="-75.3354037"><ele>18.4</ele><time>2026-04-18T16:48:09.654Z</time></trkpt><trkpt lat="9.9156845" lon="-75.3353325"><ele>18.0</ele><time>2026-04-18T16:48:10.654Z</time></trkpt><trkpt lat="9.9157431" lon="-75.3352551"><ele>18.0</ele><time>2026-04-18T16:48:11.649Z</time></trkpt><trkpt lat="9.9158097" lon="-75.3351911"><ele>18.0</ele><time>2026-04-18T16:48:12.649Z</time></trkpt><trkpt lat="9.9158726" lon="-75.3351204"><ele>18.0</ele><time>2026-04-18T16:48:13.651Z</time></trkpt><trkpt lat="9.9159332" lon="-75.3350472"><ele>18.0</ele><time>2026-04-18T16:48:14.651Z</time></trkpt><trkpt lat="9.9159909" lon="-75.3349771"><ele>18.0</ele><time>2026-04-18T16:48:15.656Z</time></trkpt><trkpt lat="9.9160488" lon="-75.3349094"><ele>17.833333333333332</ele><time>2026-04-18T16:48:16.654Z</time></trkpt><trkpt lat="9.9161066" lon="-75.3348397"><ele>17.666666666666668</ele><time>2026-04-18T16:48:17.65Z</time></trkpt><trkpt lat="9.9161708" lon="-75.334778"><ele>17.5</ele><time>2026-04-18T16:48:18.65Z</time></trkpt><trkpt lat="9.9162309" lon="-75.3347075"><ele>17.333333333333336</ele><time>2026-04-18T16:48:19.661Z</time></trkpt><trkpt lat="9.916289" lon="-75.3346406"><ele>17.166666666666668</ele><time>2026-04-18T16:48:20.646Z</time></trkpt><trkpt lat="9.9163486" lon="-75.334574"><ele>17.0</ele><time>2026-04-18T16:48:21.649Z</time></trkpt><trkpt lat="9.9164088" lon="-75.3345058"><ele>17.4</ele><time>2026-04-18T16:48:22.649Z</time></trkpt><trkpt lat="9.916469" lon="-75.3344344"><ele>17.799999999999997</ele><time>2026-04-18T16:48:23.647Z</time></trkpt><trkpt lat="9.9165299" lon="-75.3343616"><ele>18.2</ele><time>2026-04-18T16:48:24.647Z</time></trkpt><trkpt lat="9.9165915" lon="-75.3342888"><ele>18.599999999999998</ele><time>2026-04-18T16:48:25.647Z</time></trkpt><trkpt lat="9.9166493" lon="-75.3342227"><ele>19.0</ele><time>2026-04-18T16:48:26.646Z</time></trkpt><trkpt lat="9.9167099" lon="-75.3341534"><ele>18.599999999999998</ele><time>2026-04-18T16:48:27.645Z</time></trkpt><trkpt lat="9.9167718" lon="-75.3340884"><ele>18.2</ele><time>2026-04-18T16:48:28.646Z</time></trkpt><trkpt lat="9.9168352" lon="-75.3340172"><ele>17.799999999999997</ele><time>2026-04-18T16:48:29.656Z</time></trkpt><trkpt lat="9.9168944" lon="-75.3339486"><ele>17.4</ele><time>2026-04-18T16:48:30.65Z</time></trkpt><trkpt lat="9.9169515" lon="-75.3338782"><ele>17.0</ele><time>2026-04-18T16:48:31.646Z</time></trkpt><trkpt lat="9.9170143" lon="-75.3338099"><ele>17.0</ele><time>2026-04-18T16:48:32.65Z</time></trkpt><trkpt lat="9.917072" lon="-75.3337405"><ele>17.0</ele><time>2026-04-18T16:48:33.648Z</time></trkpt><trkpt lat="9.9171323" lon="-75.3336711"><ele>17.0</ele><time>2026-04-18T16:48:34.649Z</time></trkpt><trkpt lat="9.9171906" lon="-75.333603"><ele>17.0</ele><time>2026-04-18T16:48:35.649Z</time></trkpt><trkpt lat="9.9172509" lon="-75.3335349"><ele>17.0</ele><time>2026-04-18T16:48:36.645Z</time></trkpt><trkpt lat="9.9173116" lon="-75.3334672"><ele>17.0</ele><time>2026-04-18T16:48:37.648Z</time></trkpt><trkpt lat="9.9173684" lon="-75.3333998"><ele>17.0</ele><time>2026-04-18T16:48:38.657Z</time></trkpt><trkpt lat="9.9174275" lon="-75.3333305"><ele>17.0</ele><time>2026-04-18T16:48:39.65Z</time></trkpt><trkpt lat="9.9174836" lon="-75.3332609"><ele>17.0</ele><time>2026-04-18T16:48:40.647Z</time></trkpt><trkpt lat="9.9175361" lon="-75.3331942"><ele>17.0</ele><time>2026-04-18T16:48:41.651Z</time></trkpt><trkpt lat="9.9175947" lon="-75.3331264"><ele>17.0</ele><time>2026-04-18T16:48:42.65Z</time></trkpt><trkpt lat="9.9176519" lon="-75.3330605"><ele>17.333333333333336</ele><time>2026-04-18T16:48:43.662Z</time></trkpt><trkpt lat="9.9177081" lon="-75.3329935"><ele>17.666666666666668</ele><time>2026-04-18T16:48:44.656Z</time></trkpt><trkpt lat="9.9177678" lon="-75.3329257"><ele>18.0</ele><time>2026-04-18T16:48:45.648Z</time></trkpt><trkpt lat="9.9178237" lon="-75.3328595"><ele>18.333333333333332</ele><time>2026-04-18T16:48:46.649Z</time></trkpt><trkpt lat="9.9178849" lon="-75.3327935"><ele>18.666666666666664</ele><time>2026-04-18T16:48:47.648Z</time></trkpt><trkpt lat="9.9179457" lon="-75.3327295"><ele>19.0</ele><time>2026-04-18T16:48:48.648Z</time></trkpt><trkpt lat="9.9180027" lon="-75.3326651"><ele>19.0</ele><time>2026-04-18T16:48:49.647Z</time></trkpt><trkpt lat="9.9180597" lon="-75.3325979"><ele>19.0</ele><time>2026-04-18T16:48:50.649Z</time></trkpt><trkpt lat="9.9181164" lon="-75.332534"><ele>19.0</ele><time>2026-04-18T16:48:51.647Z</time></trkpt><trkpt lat="9.9181716" lon="-75.3324625"><ele>19.0</ele><time>2026-04-18T16:48:52.648Z</time></trkpt><trkpt lat="9.9182286" lon="-75.3323931"><ele>19.0</ele><time>2026-04-18T16:48:53.646Z</time></trkpt><trkpt lat="9.9182834" lon="-75.3323258"><ele>19.0</ele><time>2026-04-18T16:48:54.648Z</time></trkpt><trkpt lat="9.9183393" lon="-75.332256"><ele>19.166666666666664</ele><time>2026-04-18T16:48:55.646Z</time></trkpt><trkpt lat="9.9183967" lon="-75.3321885"><ele>19.333333333333332</ele><time>2026-04-18T16:48:56.649Z</time></trkpt><trkpt lat="9.9184533" lon="-75.3321234"><ele>19.5</ele><time>2026-04-18T16:48:57.649Z</time></trkpt><trkpt lat="9.9185103" lon="-75.3320562"><ele>19.666666666666668</ele><time>2026-04-18T16:48:58.651Z</time></trkpt><trkpt lat="9.9185629" lon="-75.331991"><ele>19.833333333333336</ele><time>2026-04-18T16:48:59.649Z</time></trkpt><trkpt lat="9.918621" lon="-75.3319254"><ele>20.0</ele><time>2026-04-18T16:49:00.647Z</time></trkpt><trkpt lat="9.9186752" lon="-75.3318552"><ele>19.5</ele><time>2026-04-18T16:49:01.65Z</time></trkpt><trkpt lat="9.9187314" lon="-75.3317876"><ele>19.0</ele><time>2026-04-18T16:49:02.651Z</time></trkpt><trkpt lat="9.9187889" lon="-75.3317209"><ele>18.5</ele><time>2026-04-18T16:49:03.65Z</time></trkpt><trkpt lat="9.9188451" lon="-75.3316492"><ele>18.0</ele><time>2026-04-18T16:49:04.65Z</time></trkpt><trkpt lat="9.9189075" lon="-75.3315894"><ele>17.5</ele><time>2026-04-18T16:49:05.651Z</time></trkpt><trkpt lat="9.9189635" lon="-75.3315254"><ele>17.0</ele><time>2026-04-18T16:49:06.652Z</time></trkpt><trkpt lat="9.9190196" lon="-75.3314583"><ele>17.0</ele><time>2026-04-18T16:49:07.645Z</time></trkpt><trkpt lat="9.9190747" lon="-75.3313917"><ele>17.0</ele><time>2026-04-18T16:49:08.651Z</time></trkpt><trkpt lat="9.9191318" lon="-75.3313245"><ele>17.0</ele><time>2026-04-18T16:49:09.651Z</time></trkpt><trkpt lat="9.9191895" lon="-75.3312585"><ele>17.0</ele><time>2026-04-18T16:49:10.648Z</time></trkpt><trkpt lat="9.9192494" lon="-75.331192"><ele>17.0</ele><time>2026-04-18T16:49:11.648Z</time></trkpt><trkpt lat="9.9193093" lon="-75.3311256"><ele>17.0</ele><time>2026-04-18T16:49:12.656Z</time></trkpt><trkpt lat="9.9193625" lon="-75.3310545"><ele>16.833333333333336</ele><time>2026-04-18T16:49:13.654Z</time></trkpt><trkpt lat="9.9194184" lon="-75.3309868"><ele>16.666666666666668</ele><time>2026-04-18T16:49:14.648Z</time></trkpt><trkpt lat="9.9194782" lon="-75.3309191"><ele>16.5</ele><time>2026-04-18T16:49:15.65Z</time></trkpt><trkpt lat="9.9195349" lon="-75.3308517"><ele>16.333333333333332</ele><time>2026-04-18T16:49:16.653Z</time></trkpt><trkpt lat="9.9195928" lon="-75.330785"><ele>16.166666666666664</ele><time>2026-04-18T16:49:17.647Z</time></trkpt><trkpt lat="9.9196525" lon="-75.3307178"><ele>16.0</ele><time>2026-04-18T16:49:18.654Z</time></trkpt><trkpt lat="9.9197107" lon="-75.3306491"><ele>15.999999999999998</ele><time>2026-04-18T16:49:19.656Z</time></trkpt><trkpt lat="9.9197679" lon="-75.3305857"><ele>16.0</ele><time>2026-04-18T16:49:20.655Z</time></trkpt><trkpt lat="9.9198281" lon="-75.3305173"><ele>16.0</ele><time>2026-04-18T16:49:21.655Z</time></trkpt><trkpt lat="9.9198873" lon="-75.3304525"><ele>16.0</ele><time>2026-04-18T16:49:22.654Z</time></trkpt><trkpt lat="9.9199462" lon="-75.330383"><ele>15.999999999999998</ele><time>2026-04-18T16:49:23.647Z</time></trkpt><trkpt lat="9.920003" lon="-75.3303144"><ele>16.0</ele><time>2026-04-18T16:49:24.646Z</time></trkpt><trkpt lat="9.9200621" lon="-75.3302441"><ele>16.2</ele><time>2026-04-18T16:49:25.649Z</time></trkpt><trkpt lat="9.9201189" lon="-75.3301757"><ele>16.400000000000002</ele><time>2026-04-18T16:49:26.648Z</time></trkpt><trkpt lat="9.9201829" lon="-75.3301082"><ele>16.6</ele><time>2026-04-18T16:49:27.649Z</time></trkpt><trkpt lat="9.9202413" lon="-75.3300381"><ele>16.8</ele><time>2026-04-18T16:49:28.649Z</time></trkpt><trkpt lat="9.9203016" lon="-75.3299729"><ele>17.0</ele><time>2026-04-18T16:49:29.647Z</time></trkpt><trkpt lat="9.9203635" lon="-75.3299027"><ele>17.0</ele><time>2026-04-18T16:49:30.649Z</time></trkpt><trkpt lat="9.920423" lon="-75.3298312"><ele>17.0</ele><time>2026-04-18T16:49:31.649Z</time></trkpt><trkpt lat="9.9204817" lon="-75.3297632"><ele>17.0</ele><time>2026-04-18T16:49:32.647Z</time></trkpt><trkpt lat="9.9205446" lon="-75.329695"><ele>17.0</ele><time>2026-04-18T16:49:33.649Z</time></trkpt><trkpt lat="9.9206032" lon="-75.3296252"><ele>17.0</ele><time>2026-04-18T16:49:34.649Z</time></trkpt><trkpt lat="9.9206647" lon="-75.329553"><ele>16.6</ele><time>2026-04-18T16:49:35.654Z</time></trkpt><trkpt lat="9.9207294" lon="-75.3294844"><ele>16.2</ele><time>2026-04-18T16:49:36.654Z</time></trkpt><trkpt lat="9.9207883" lon="-75.3294154"><ele>15.8</ele><time>2026-04-18T16:49:37.652Z</time></trkpt><trkpt lat="9.9208464" lon="-75.3293476"><ele>15.4</ele><time>2026-04-18T16:49:38.649Z</time></trkpt><trkpt lat="9.9209077" lon="-75.3292795"><ele>15.0</ele><time>2026-04-18T16:49:39.647Z</time></trkpt><trkpt lat="9.9209643" lon="-75.3292101"><ele>15.0</ele><time>2026-04-18T16:49:40.648Z</time></trkpt><trkpt lat="9.9210224" lon="-75.3291388"><ele>15.0</ele><time>2026-04-18T16:49:41.648Z</time></trkpt><trkpt lat="9.9210824" lon="-75.3290675"><ele>15.0</ele><time>2026-04-18T16:49:42.651Z</time></trkpt><trkpt lat="9.9211412" lon="-75.3289982"><ele>15.0</ele><time>2026-04-18T16:49:43.651Z</time></trkpt><trkpt lat="9.9212061" lon="-75.3289256"><ele>15.0</ele><time>2026-04-18T16:49:44.649Z</time></trkpt><trkpt lat="9.9212704" lon="-75.3288544"><ele>15.2</ele><time>2026-04-18T16:49:45.648Z</time></trkpt><trkpt lat="9.9213288" lon="-75.3287841"><ele>15.4</ele><time>2026-04-18T16:49:46.65Z</time></trkpt><trkpt lat="9.9213908" lon="-75.3287109"><ele>15.600000000000001</ele><time>2026-04-18T16:49:47.649Z</time></trkpt><trkpt lat="9.9214533" lon="-75.3286385"><ele>15.8</ele><time>2026-04-18T16:49:48.651Z</time></trkpt><trkpt lat="9.9215138" lon="-75.3285661"><ele>16.0</ele><time>2026-04-18T16:49:49.649Z</time></trkpt><trkpt lat="9.9215787" lon="-75.3284891"><ele>16.0</ele><time>2026-04-18T16:49:50.647Z</time></trkpt><trkpt lat="9.9216421" lon="-75.3284146"><ele>16.0</ele><time>2026-04-18T16:49:51.649Z</time></trkpt><trkpt lat="9.9217039" lon="-75.3283417"><ele>16.0</ele><time>2026-04-18T16:49:52.654Z</time></trkpt><trkpt lat="9.9217714" lon="-75.3282678"><ele>16.0</ele><time>2026-04-18T16:49:53.652Z</time></trkpt><trkpt lat="9.9218308" lon="-75.3281972"><ele>16.0</ele><time>2026-04-18T16:49:54.652Z</time></trkpt><trkpt lat="9.9218923" lon="-75.3281251"><ele>16.2</ele><time>2026-04-18T16:49:55.65Z</time></trkpt><trkpt lat="9.9219552" lon="-75.3280525"><ele>16.400000000000002</ele><time>2026-04-18T16:49:56.656Z</time></trkpt><trkpt lat="9.9220188" lon="-75.327979"><ele>16.6</ele><time>2026-04-18T16:49:57.65Z</time></trkpt><trkpt lat="9.9220823" lon="-75.3279013"><ele>16.8</ele><time>2026-04-18T16:49:58.649Z</time></trkpt><trkpt lat="9.9221432" lon="-75.3278283"><ele>17.0</ele><time>2026-04-18T16:49:59.646Z</time></trkpt><trkpt lat="9.9222037" lon="-75.3277515"><ele>17.0</ele><time>2026-04-18T16:50:00.65Z</time></trkpt><trkpt lat="9.9222674" lon="-75.3276788"><ele>17.0</ele><time>2026-04-18T16:50:01.647Z</time></trkpt><trkpt lat="9.9223296" lon="-75.3276045"><ele>17.0</ele><time>2026-04-18T16:50:02.648Z</time></trkpt><trkpt lat="9.9223932" lon="-75.327531"><ele>17.0</ele><time>2026-04-18T16:50:03.648Z</time></trkpt><trkpt lat="9.9224568" lon="-75.3274569"><ele>17.0</ele><time>2026-04-18T16:50:04.65Z</time></trkpt><trkpt lat="9.9225182" lon="-75.3273792"><ele>17.0</ele><time>2026-04-18T16:50:05.649Z</time></trkpt><trkpt lat="9.9225891" lon="-75.3273007"><ele>17.0</ele><time>2026-04-18T16:50:06.655Z</time></trkpt><trkpt lat="9.9226537" lon="-75.3272288"><ele>17.0</ele><time>2026-04-18T16:50:07.648Z</time></trkpt><trkpt lat="9.9227129" lon="-75.3271588"><ele>17.0</ele><time>2026-04-18T16:50:08.65Z</time></trkpt><trkpt lat="9.9227745" lon="-75.3270836"><ele>17.0</ele><time>2026-04-18T16:50:09.65Z</time></trkpt><trkpt lat="9.9228388" lon="-75.327009"><ele>16.6</ele><time>2026-04-18T16:50:10.649Z</time></trkpt><trkpt lat="9.9229014" lon="-75.3269367"><ele>16.2</ele><time>2026-04-18T16:50:11.65Z</time></trkpt><trkpt lat="9.922964" lon="-75.3268599"><ele>15.8</ele><time>2026-04-18T16:50:12.648Z</time></trkpt><trkpt lat="9.9230271" lon="-75.3267862"><ele>15.4</ele><time>2026-04-18T16:50:13.65Z</time></trkpt><trkpt lat="9.923088" lon="-75.3267057"><ele>15.0</ele><time>2026-04-18T16:50:14.648Z</time></trkpt><trkpt lat="9.9231446" lon="-75.3266378"><ele>15.0</ele><time>2026-04-18T16:50:15.648Z</time></trkpt><trkpt lat="9.9232078" lon="-75.3265651"><ele>15.0</ele><time>2026-04-18T16:50:16.651Z</time></trkpt><trkpt lat="9.9232687" lon="-75.3264995"><ele>15.0</ele><time>2026-04-18T16:50:17.652Z</time></trkpt><trkpt lat="9.923327" lon="-75.3264284"><ele>15.0</ele><time>2026-04-18T16:50:18.651Z</time></trkpt><trkpt lat="9.9233867" lon="-75.3263593"><ele>15.0</ele><time>2026-04-18T16:50:19.649Z</time></trkpt><trkpt lat="9.9234492" lon="-75.3262869"><ele>15.166666666666666</ele><time>2026-04-18T16:50:20.654Z</time></trkpt><trkpt lat="9.9235101" lon="-75.3262129"><ele>15.333333333333332</ele><time>2026-04-18T16:50:21.656Z</time></trkpt><trkpt lat="9.9235696" lon="-75.3261435"><ele>15.5</ele><time>2026-04-18T16:50:22.649Z</time></trkpt><trkpt lat="9.9236267" lon="-75.3260749"><ele>15.666666666666666</ele><time>2026-04-18T16:50:23.648Z</time></trkpt><trkpt lat="9.9236842" lon="-75.3260063"><ele>15.833333333333332</ele><time>2026-04-18T16:50:24.652Z</time></trkpt><trkpt lat="9.9237411" lon="-75.3259426"><ele>16.0</ele><time>2026-04-18T16:50:25.648Z</time></trkpt><trkpt lat="9.9237963" lon="-75.3258778"><ele>15.999999999999998</ele><time>2026-04-18T16:50:26.649Z</time></trkpt><trkpt lat="9.9238498" lon="-75.3258126"><ele>16.0</ele><time>2026-04-18T16:50:27.647Z</time></trkpt><trkpt lat="9.9239027" lon="-75.3257486"><ele>16.0</ele><time>2026-04-18T16:50:28.648Z</time></trkpt><trkpt lat="9.9239643" lon="-75.3256789"><ele>16.0</ele><time>2026-04-18T16:50:29.648Z</time></trkpt><trkpt lat="9.9240218" lon="-75.3256136"><ele>15.999999999999998</ele><time>2026-04-18T16:50:30.647Z</time></trkpt><trkpt lat="9.9240807" lon="-75.3255431"><ele>16.0</ele><time>2026-04-18T16:50:31.648Z</time></trkpt><trkpt lat="9.9241391" lon="-75.3254754"><ele>16.166666666666664</ele><time>2026-04-18T16:50:32.646Z</time></trkpt><trkpt lat="9.9241967" lon="-75.3254088"><ele>16.333333333333332</ele><time>2026-04-18T16:50:33.645Z</time></trkpt><trkpt lat="9.9242531" lon="-75.3253404"><ele>16.5</ele><time>2026-04-18T16:50:34.648Z</time></trkpt><trkpt lat="9.9243096" lon="-75.3252718"><ele>16.666666666666668</ele><time>2026-04-18T16:50:35.648Z</time></trkpt><trkpt lat="9.9243658" lon="-75.3252055"><ele>16.833333333333336</ele><time>2026-04-18T16:50:36.649Z</time></trkpt><trkpt lat="9.9244202" lon="-75.3251407"><ele>17.0</ele><time>2026-04-18T16:50:37.652Z</time></trkpt><trkpt lat="9.9244797" lon="-75.325075"><ele>16.666666666666668</ele><time>2026-04-18T16:50:38.647Z</time></trkpt><trkpt lat="9.9245348" lon="-75.3250135"><ele>16.333333333333336</ele><time>2026-04-18T16:50:39.648Z</time></trkpt><trkpt lat="9.9245864" lon="-75.3249518"><ele>16.0</ele><time>2026-04-18T16:50:40.648Z</time></trkpt><trkpt lat="9.924641" lon="-75.324892"><ele>15.666666666666668</ele><time>2026-04-18T16:50:41.646Z</time></trkpt><trkpt lat="9.9246905" lon="-75.324823"><ele>15.333333333333334</ele><time>2026-04-18T16:50:42.651Z</time></trkpt><trkpt lat="9.924743" lon="-75.3247604"><ele>15.0</ele><time>2026-04-18T16:50:43.65Z</time></trkpt><trkpt lat="9.9247988" lon="-75.3246973"><ele>15.0</ele><time>2026-04-18T16:50:44.65Z</time></trkpt><trkpt lat="9.9248546" lon="-75.3246329"><ele>15.0</ele><time>2026-04-18T16:50:45.649Z</time></trkpt><trkpt lat="9.9249094" lon="-75.3245697"><ele>15.0</ele><time>2026-04-18T16:50:46.647Z</time></trkpt><trkpt lat="9.9249631" lon="-75.324505"><ele>15.0</ele><time>2026-04-18T16:50:47.65Z</time></trkpt><trkpt lat="9.9250236" lon="-75.3244408"><ele>15.0</ele><time>2026-04-18T16:50:48.649Z</time></trkpt><trkpt lat="9.9250779" lon="-75.3243769"><ele>15.0</ele><time>2026-04-18T16:50:49.649Z</time></trkpt><trkpt lat="9.9251288" lon="-75.3243124"><ele>14.666666666666666</ele><time>2026-04-18T16:50:50.651Z</time></trkpt><trkpt lat="9.9251826" lon="-75.3242487"><ele>14.333333333333332</ele><time>2026-04-18T16:50:51.647Z</time></trkpt><trkpt lat="9.9252333" lon="-75.3241879"><ele>14.0</ele><time>2026-04-18T16:50:52.648Z</time></trkpt><trkpt lat="9.9252873" lon="-75.3241249"><ele>13.666666666666666</ele><time>2026-04-18T16:50:53.65Z</time></trkpt><trkpt lat="9.9253409" lon="-75.3240643"><ele>13.333333333333332</ele><time>2026-04-18T16:50:54.649Z</time></trkpt><trkpt lat="9.9253989" lon="-75.3239994"><ele>13.0</ele><time>2026-04-18T16:50:55.654Z</time></trkpt><trkpt lat="9.9254536" lon="-75.3239353"><ele>13.333333333333332</ele><time>2026-04-18T16:50:56.65Z</time></trkpt><trkpt lat="9.9255117" lon="-75.3238666"><ele>13.666666666666666</ele><time>2026-04-18T16:50:57.65Z</time></trkpt><trkpt lat="9.9255714" lon="-75.323797"><ele>14.0</ele><time>2026-04-18T16:50:58.646Z</time></trkpt><trkpt lat="9.9256291" lon="-75.3237285"><ele>14.333333333333332</ele><time>2026-04-18T16:50:59.649Z</time></trkpt><trkpt lat="9.9256891" lon="-75.3236548"><ele>14.666666666666666</ele><time>2026-04-18T16:51:00.651Z</time></trkpt><trkpt lat="9.9257458" lon="-75.3235888"><ele>15.0</ele><time>2026-04-18T16:51:01.649Z</time></trkpt><trkpt lat="9.925803" lon="-75.3235248"><ele>15.0</ele><time>2026-04-18T16:51:02.646Z</time></trkpt><trkpt lat="9.9258586" lon="-75.3234599"><ele>15.0</ele><time>2026-04-18T16:51:03.647Z</time></trkpt><trkpt lat="9.9259152" lon="-75.323396"><ele>15.0</ele><time>2026-04-18T16:51:04.647Z</time></trkpt><trkpt lat="9.9259716" lon="-75.3233294"><ele>15.0</ele><time>2026-04-18T16:51:05.648Z</time></trkpt><trkpt lat="9.9260305" lon="-75.3232643"><ele>15.0</ele><time>2026-04-18T16:51:06.652Z</time></trkpt><trkpt lat="9.9260877" lon="-75.3231984"><ele>15.0</ele><time>2026-04-18T16:51:07.646Z</time></trkpt><trkpt lat="9.9261441" lon="-75.3231315"><ele>14.833333333333334</ele><time>2026-04-18T16:51:08.647Z</time></trkpt><trkpt lat="9.9261968" lon="-75.3230638"><ele>14.666666666666668</ele><time>2026-04-18T16:51:09.65Z</time></trkpt><trkpt lat="9.926253" lon="-75.322995"><ele>14.5</ele><time>2026-04-18T16:51:10.649Z</time></trkpt><trkpt lat="9.9263059" lon="-75.3229296"><ele>14.333333333333334</ele><time>2026-04-18T16:51:11.655Z</time></trkpt><trkpt lat="9.9263617" lon="-75.3228642"><ele>14.166666666666668</ele><time>2026-04-18T16:51:12.645Z</time></trkpt><trkpt lat="9.9264203" lon="-75.3228036"><ele>14.0</ele><time>2026-04-18T16:51:13.647Z</time></trkpt><trkpt lat="9.926476" lon="-75.3227392"><ele>14.000000000000002</ele><time>2026-04-18T16:51:14.649Z</time></trkpt><trkpt lat="9.9265336" lon="-75.3226755"><ele>14.0</ele><time>2026-04-18T16:51:15.647Z</time></trkpt><trkpt lat="9.9265903" lon="-75.322608"><ele>14.0</ele><time>2026-04-18T16:51:16.648Z</time></trkpt><trkpt lat="9.9266488" lon="-75.3225427"><ele>14.0</ele><time>2026-04-18T16:51:17.644Z</time></trkpt><trkpt lat="9.9267068" lon="-75.3224746"><ele>14.000000000000002</ele><time>2026-04-18T16:51:18.646Z</time></trkpt><trkpt lat="9.9267663" lon="-75.3224103"><ele>14.0</ele><time>2026-04-18T16:51:19.649Z</time></trkpt><trkpt lat="9.9268236" lon="-75.3223419"><ele>13.833333333333334</ele><time>2026-04-18T16:51:20.65Z</time></trkpt><trkpt lat="9.9268827" lon="-75.3222723"><ele>13.666666666666668</ele><time>2026-04-18T16:51:21.65Z</time></trkpt><trkpt lat="9.9269341" lon="-75.3221996"><ele>13.5</ele><time>2026-04-18T16:51:22.645Z</time></trkpt><trkpt lat="9.9269889" lon="-75.3221368"><ele>13.333333333333332</ele><time>2026-04-18T16:51:23.645Z</time></trkpt><trkpt lat="9.9270429" lon="-75.3220741"><ele>13.166666666666666</ele><time>2026-04-18T16:51:24.646Z</time></trkpt><trkpt lat="9.9270968" lon="-75.3220118"><ele>13.0</ele><time>2026-04-18T16:51:25.646Z</time></trkpt><trkpt lat="9.9271512" lon="-75.3219462"><ele>12.999999999999998</ele><time>2026-04-18T16:51:26.647Z</time></trkpt><trkpt lat="9.9272089" lon="-75.3218799"><ele>13.0</ele><time>2026-04-18T16:51:27.642Z</time></trkpt><trkpt lat="9.9272685" lon="-75.321814"><ele>13.0</ele><time>2026-04-18T16:51:28.647Z</time></trkpt><trkpt lat="9.9273282" lon="-75.3217453"><ele>13.0</ele><time>2026-04-18T16:51:29.648Z</time></trkpt><trkpt lat="9.9273911" lon="-75.3216791"><ele>12.999999999999998</ele><time>2026-04-18T16:51:30.648Z</time></trkpt><trkpt lat="9.9274488" lon="-75.3216107"><ele>13.0</ele><time>2026-04-18T16:51:31.646Z</time></trkpt><trkpt lat="9.927506" lon="-75.3215496"><ele>13.0</ele><time>2026-04-18T16:51:32.645Z</time></trkpt><trkpt lat="9.9275694" lon="-75.3214782"><ele>13.0</ele><time>2026-04-18T16:51:33.648Z</time></trkpt><trkpt lat="9.9276282" lon="-75.3214108"><ele>13.0</ele><time>2026-04-18T16:51:34.649Z</time></trkpt><trkpt lat="9.9276866" lon="-75.3213427"><ele>13.0</ele><time>2026-04-18T16:51:35.647Z</time></trkpt><trkpt lat="9.9277375" lon="-75.3212654"><ele>13.0</ele><time>2026-04-18T16:51:36.646Z</time></trkpt><trkpt lat="9.9277942" lon="-75.3211998"><ele>12.999999999999998</ele><time>2026-04-18T16:51:37.647Z</time></trkpt><trkpt lat="9.9278478" lon="-75.3211354"><ele>13.0</ele><time>2026-04-18T16:51:38.648Z</time></trkpt><trkpt lat="9.9278987" lon="-75.3210737"><ele>13.0</ele><time>2026-04-18T16:51:39.649Z</time></trkpt><trkpt lat="9.9279558" lon="-75.321006"><ele>13.0</ele><time>2026-04-18T16:51:40.651Z</time></trkpt><trkpt lat="9.9280122" lon="-75.3209412"><ele>12.999999999999998</ele><time>2026-04-18T16:51:41.65Z</time></trkpt><trkpt lat="9.9280672" lon="-75.3208686"><ele>13.0</ele><time>2026-04-18T16:51:42.649Z</time></trkpt><trkpt lat="9.9281238" lon="-75.3208025"><ele>12.999999999999998</ele><time>2026-04-18T16:51:43.646Z</time></trkpt><trkpt lat="9.9281802" lon="-75.320735"><ele>13.0</ele><time>2026-04-18T16:51:44.651Z</time></trkpt><trkpt lat="9.928239" lon="-75.3206683"><ele>13.0</ele><time>2026-04-18T16:51:45.652Z</time></trkpt><trkpt lat="9.9282938" lon="-75.320602"><ele>13.0</ele><time>2026-04-18T16:51:46.65Z</time></trkpt><trkpt lat="9.9283508" lon="-75.320536"><ele>12.999999999999998</ele><time>2026-04-18T16:51:47.651Z</time></trkpt><trkpt lat="9.9284088" lon="-75.3204696"><ele>13.0</ele><time>2026-04-18T16:51:48.651Z</time></trkpt><trkpt lat="9.9284644" lon="-75.3204037"><ele>13.166666666666666</ele><time>2026-04-18T16:51:49.652Z</time></trkpt><trkpt lat="9.9285222" lon="-75.3203381"><ele>13.333333333333332</ele><time>2026-04-18T16:51:50.65Z</time></trkpt><trkpt lat="9.9285809" lon="-75.3202716"><ele>13.5</ele><time>2026-04-18T16:51:51.651Z</time></trkpt><trkpt lat="9.9286364" lon="-75.3202065"><ele>13.666666666666668</ele><time>2026-04-18T16:51:52.651Z</time></trkpt><trkpt lat="9.9286927" lon="-75.3201377"><ele>13.833333333333334</ele><time>2026-04-18T16:51:53.647Z</time></trkpt><trkpt lat="9.9287483" lon="-75.3200721"><ele>14.0</ele><time>2026-04-18T16:51:54.649Z</time></trkpt><trkpt lat="9.9288042" lon="-75.3200099"><ele>14.000000000000002</ele><time>2026-04-18T16:51:55.648Z</time></trkpt><trkpt lat="9.9288574" lon="-75.3199401"><ele>14.0</ele><time>2026-04-18T16:51:56.65Z</time></trkpt><trkpt lat="9.9289103" lon="-75.3198728"><ele>14.0</ele><time>2026-04-18T16:51:57.649Z</time></trkpt><trkpt lat="9.9289697" lon="-75.3198068"><ele>14.0</ele><time>2026-04-18T16:51:58.648Z</time></trkpt><trkpt lat="9.9290268" lon="-75.3197418"><ele>14.000000000000002</ele><time>2026-04-18T16:51:59.649Z</time></trkpt><trkpt lat="9.9290845" lon="-75.3196751"><ele>14.0</ele><time>2026-04-18T16:52:00.65Z</time></trkpt><trkpt lat="9.929141" lon="-75.3196092"><ele>13.833333333333334</ele><time>2026-04-18T16:52:01.652Z</time></trkpt><trkpt lat="9.9291993" lon="-75.3195423"><ele>13.666666666666668</ele><time>2026-04-18T16:52:02.649Z</time></trkpt><trkpt lat="9.9292582" lon="-75.3194773"><ele>13.5</ele><time>2026-04-18T16:52:03.648Z</time></trkpt><trkpt lat="9.9293141" lon="-75.3194121"><ele>13.333333333333332</ele><time>2026-04-18T16:52:04.652Z</time></trkpt><trkpt lat="9.9293708" lon="-75.3193472"><ele>13.166666666666666</ele><time>2026-04-18T16:52:05.646Z</time></trkpt><trkpt lat="9.9294277" lon="-75.3192838"><ele>13.0</ele><time>2026-04-18T16:52:06.649Z</time></trkpt><trkpt lat="9.9294896" lon="-75.3192178"><ele>12.999999999999998</ele><time>2026-04-18T16:52:07.649Z</time></trkpt><trkpt lat="9.9295448" lon="-75.3191519"><ele>13.0</ele><time>2026-04-18T16:52:08.649Z</time></trkpt><trkpt lat="9.9295988" lon="-75.3190869"><ele>13.0</ele><time>2026-04-18T16:52:09.65Z</time></trkpt><trkpt lat="9.9296571" lon="-75.3190191"><ele>13.0</ele><time>2026-04-18T16:52:10.654Z</time></trkpt><trkpt lat="9.9297188" lon="-75.3189588"><ele>12.999999999999998</ele><time>2026-04-18T16:52:11.648Z</time></trkpt><trkpt lat="9.9297751" lon="-75.3188923"><ele>13.0</ele><time>2026-04-18T16:52:12.651Z</time></trkpt><trkpt lat="9.929834" lon="-75.3188252"><ele>12.999999999999998</ele><time>2026-04-18T16:52:13.647Z</time></trkpt><trkpt lat="9.9298908" lon="-75.3187613"><ele>13.0</ele><time>2026-04-18T16:52:14.648Z</time></trkpt><trkpt lat="9.9299453" lon="-75.3186939"><ele>13.0</ele><time>2026-04-18T16:52:15.648Z</time></trkpt><trkpt lat="9.9300039" lon="-75.3186267"><ele>13.0</ele><time>2026-04-18T16:52:16.648Z</time></trkpt><trkpt lat="9.9300562" lon="-75.3185626"><ele>12.999999999999998</ele><time>2026-04-18T16:52:17.647Z</time></trkpt><trkpt lat="9.930111" lon="-75.3185008"><ele>13.0</ele><time>2026-04-18T16:52:18.648Z</time></trkpt><trkpt lat="9.9301672" lon="-75.3184376"><ele>12.833333333333332</ele><time>2026-04-18T16:52:19.647Z</time></trkpt><trkpt lat="9.9302251" lon="-75.3183775"><ele>12.666666666666666</ele><time>2026-04-18T16:52:20.645Z</time></trkpt><trkpt lat="9.9302792" lon="-75.3183123"><ele>12.5</ele><time>2026-04-18T16:52:21.65Z</time></trkpt><trkpt lat="9.9303376" lon="-75.318251"><ele>12.333333333333332</ele><time>2026-04-18T16:52:22.651Z</time></trkpt><trkpt lat="9.930392" lon="-75.318187"><ele>12.166666666666666</ele><time>2026-04-18T16:52:23.645Z</time></trkpt><trkpt lat="9.9304412" lon="-75.3181205"><ele>12.0</ele><time>2026-04-18T16:52:24.65Z</time></trkpt><trkpt lat="9.930499" lon="-75.3180552"><ele>12.0</ele><time>2026-04-18T16:52:25.647Z</time></trkpt><trkpt lat="9.9305525" lon="-75.3179926"><ele>12.0</ele><time>2026-04-18T16:52:26.645Z</time></trkpt><trkpt lat="9.9306099" lon="-75.3179305"><ele>12.0</ele><time>2026-04-18T16:52:27.647Z</time></trkpt><trkpt lat="9.930671" lon="-75.3178648"><ele>12.0</ele><time>2026-04-18T16:52:28.647Z</time></trkpt><trkpt lat="9.9307255" lon="-75.3178004"><ele>12.0</ele><time>2026-04-18T16:52:29.646Z</time></trkpt><trkpt lat="9.9307819" lon="-75.3177379"><ele>12.0</ele><time>2026-04-18T16:52:30.646Z</time></trkpt><trkpt lat="9.9308385" lon="-75.3176714"><ele>11.833333333333334</ele><time>2026-04-18T16:52:31.653Z</time></trkpt><trkpt lat="9.9308931" lon="-75.3176003"><ele>11.666666666666666</ele><time>2026-04-18T16:52:32.648Z</time></trkpt><trkpt lat="9.9309499" lon="-75.3175321"><ele>11.5</ele><time>2026-04-18T16:52:33.649Z</time></trkpt><trkpt lat="9.9310023" lon="-75.317465"><ele>11.333333333333332</ele><time>2026-04-18T16:52:34.648Z</time></trkpt><trkpt lat="9.9310583" lon="-75.3173994"><ele>11.166666666666666</ele><time>2026-04-18T16:52:35.648Z</time></trkpt><trkpt lat="9.9311174" lon="-75.3173335"><ele>11.0</ele><time>2026-04-18T16:52:36.646Z</time></trkpt><trkpt lat="9.9311735" lon="-75.3172668"><ele>11.5</ele><time>2026-04-18T16:52:37.648Z</time></trkpt><trkpt lat="9.9312315" lon="-75.3171989"><ele>12.0</ele><time>2026-04-18T16:52:38.646Z</time></trkpt><trkpt lat="9.9312922" lon="-75.3171291"><ele>12.5</ele><time>2026-04-18T16:52:39.645Z</time></trkpt><trkpt lat="9.9313497" lon="-75.3170623"><ele>13.0</ele><time>2026-04-18T16:52:40.644Z</time></trkpt><trkpt lat="9.931404" lon="-75.3169979"><ele>13.500000000000002</ele><time>2026-04-18T16:52:41.644Z</time></trkpt><trkpt lat="9.9314624" lon="-75.3169312"><ele>14.0</ele><time>2026-04-18T16:52:42.644Z</time></trkpt><trkpt lat="9.9315217" lon="-75.3168638"><ele>14.000000000000002</ele><time>2026-04-18T16:52:43.645Z</time></trkpt><trkpt lat="9.9315794" lon="-75.3167967"><ele>14.0</ele><time>2026-04-18T16:52:44.648Z</time></trkpt><trkpt lat="9.9316405" lon="-75.3167306"><ele>14.0</ele><time>2026-04-18T16:52:45.648Z</time></trkpt><trkpt lat="9.9317015" lon="-75.3166665"><ele>14.0</ele><time>2026-04-18T16:52:46.649Z</time></trkpt><trkpt lat="9.9317598" lon="-75.316603"><ele>14.000000000000002</ele><time>2026-04-18T16:52:47.651Z</time></trkpt><trkpt lat="9.9318148" lon="-75.3165337"><ele>14.0</ele><time>2026-04-18T16:52:48.648Z</time></trkpt><trkpt lat="9.9318679" lon="-75.3164655"><ele>13.833333333333334</ele><time>2026-04-18T16:52:49.647Z</time></trkpt><trkpt lat="9.9319275" lon="-75.3163996"><ele>13.666666666666668</ele><time>2026-04-18T16:52:50.649Z</time></trkpt><trkpt lat="9.931981" lon="-75.3163338"><ele>13.5</ele><time>2026-04-18T16:52:51.648Z</time></trkpt><trkpt lat="9.9320381" lon="-75.3162676"><ele>13.333333333333332</ele><time>2026-04-18T16:52:52.646Z</time></trkpt><trkpt lat="9.9320941" lon="-75.3162054"><ele>13.166666666666666</ele><time>2026-04-18T16:52:53.647Z</time></trkpt><trkpt lat="9.9321503" lon="-75.3161426"><ele>13.0</ele><time>2026-04-18T16:52:54.655Z</time></trkpt><trkpt lat="9.9322054" lon="-75.3160763"><ele>12.999999999999998</ele><time>2026-04-18T16:52:55.647Z</time></trkpt><trkpt lat="9.9322616" lon="-75.3160103"><ele>13.0</ele><time>2026-04-18T16:52:56.646Z</time></trkpt><trkpt lat="9.93232" lon="-75.3159348"><ele>13.0</ele><time>2026-04-18T16:52:57.651Z</time></trkpt><trkpt lat="9.9323771" lon="-75.3158685"><ele>13.0</ele><time>2026-04-18T16:52:58.648Z</time></trkpt><trkpt lat="9.932434" lon="-75.3157988"><ele>12.999999999999998</ele><time>2026-04-18T16:52:59.648Z</time></trkpt><trkpt lat="9.932498" lon="-75.3157368"><ele>13.0</ele><time>2026-04-18T16:53:00.646Z</time></trkpt><trkpt lat="9.9325559" lon="-75.3156678"><ele>12.999999999999998</ele><time>2026-04-18T16:53:01.647Z</time></trkpt><trkpt lat="9.9326159" lon="-75.3155982"><ele>13.0</ele><time>2026-04-18T16:53:02.654Z</time></trkpt><trkpt lat="9.9326787" lon="-75.3155352"><ele>13.0</ele><time>2026-04-18T16:53:03.645Z</time></trkpt><trkpt lat="9.9327386" lon="-75.3154666"><ele>13.0</ele><time>2026-04-18T16:53:04.643Z</time></trkpt><trkpt lat="9.9327969" lon="-75.3153978"><ele>12.999999999999998</ele><time>2026-04-18T16:53:05.65Z</time></trkpt><trkpt lat="9.932851" lon="-75.3153304"><ele>13.0</ele><time>2026-04-18T16:53:06.648Z</time></trkpt><trkpt lat="9.9329077" lon="-75.3152642"><ele>12.999999999999998</ele><time>2026-04-18T16:53:07.648Z</time></trkpt><trkpt lat="9.932967" lon="-75.315196"><ele>13.0</ele><time>2026-04-18T16:53:08.652Z</time></trkpt><trkpt lat="9.9330268" lon="-75.3151278"><ele>13.0</ele><time>2026-04-18T16:53:09.654Z</time></trkpt><trkpt lat="9.9330858" lon="-75.3150584"><ele>13.0</ele><time>2026-04-18T16:53:10.648Z</time></trkpt><trkpt lat="9.9331429" lon="-75.3149873"><ele>12.999999999999998</ele><time>2026-04-18T16:53:11.653Z</time></trkpt><trkpt lat="9.9331961" lon="-75.3149202"><ele>13.0</ele><time>2026-04-18T16:53:12.646Z</time></trkpt><trkpt lat="9.9332525" lon="-75.3148498"><ele>13.0</ele><time>2026-04-18T16:53:13.657Z</time></trkpt><trkpt lat="9.9333125" lon="-75.3147803"><ele>13.0</ele><time>2026-04-18T16:53:14.648Z</time></trkpt><trkpt lat="9.9333685" lon="-75.314709"><ele>13.0</ele><time>2026-04-18T16:53:15.65Z</time></trkpt><trkpt lat="9.9334289" lon="-75.3146383"><ele>13.0</ele><time>2026-04-18T16:53:16.646Z</time></trkpt><trkpt lat="9.9334916" lon="-75.3145704"><ele>13.0</ele><time>2026-04-18T16:53:17.646Z</time></trkpt><trkpt lat="9.9335511" lon="-75.3145025"><ele>12.833333333333332</ele><time>2026-04-18T16:53:18.649Z</time></trkpt><trkpt lat="9.9336069" lon="-75.3144328"><ele>12.666666666666666</ele><time>2026-04-18T16:53:19.647Z</time></trkpt><trkpt lat="9.9336652" lon="-75.3143647"><ele>12.5</ele><time>2026-04-18T16:53:20.647Z</time></trkpt><trkpt lat="9.9337215" lon="-75.3142979"><ele>12.333333333333332</ele><time>2026-04-18T16:53:21.648Z</time></trkpt><trkpt lat="9.9337793" lon="-75.3142315"><ele>12.166666666666666</ele><time>2026-04-18T16:53:22.649Z</time></trkpt><trkpt lat="9.9338367" lon="-75.3141681"><ele>12.0</ele><time>2026-04-18T16:53:23.647Z</time></trkpt><trkpt lat="9.9338962" lon="-75.3141004"><ele>12.0</ele><time>2026-04-18T16:53:24.648Z</time></trkpt><trkpt lat="9.9339545" lon="-75.3140322"><ele>12.0</ele><time>2026-04-18T16:53:25.653Z</time></trkpt><trkpt lat="9.9340134" lon="-75.3139649"><ele>12.0</ele><time>2026-04-18T16:53:26.648Z</time></trkpt><trkpt lat="9.9340694" lon="-75.3138982"><ele>12.0</ele><time>2026-04-18T16:53:27.648Z</time></trkpt><trkpt lat="9.9341244" lon="-75.3138312"><ele>12.0</ele><time>2026-04-18T16:53:28.646Z</time></trkpt><trkpt lat="9.9341854" lon="-75.3137653"><ele>12.0</ele><time>2026-04-18T16:53:29.647Z</time></trkpt><trkpt lat="9.9342437" lon="-75.313703"><ele>12.5</ele><time>2026-04-18T16:53:30.648Z</time></trkpt><trkpt lat="9.934302" lon="-75.3136363"><ele>13.0</ele><time>2026-04-18T16:53:31.646Z</time></trkpt><trkpt lat="9.9343595" lon="-75.3135708"><ele>13.5</ele><time>2026-04-18T16:53:32.654Z</time></trkpt><trkpt lat="9.9344171" lon="-75.3135079"><ele>14.0</ele><time>2026-04-18T16:53:33.647Z</time></trkpt><trkpt lat="9.9344747" lon="-75.3134412"><ele>14.5</ele><time>2026-04-18T16:53:34.646Z</time></trkpt><trkpt lat="9.9345342" lon="-75.313373"><ele>15.0</ele><time>2026-04-18T16:53:35.647Z</time></trkpt><trkpt lat="9.9345883" lon="-75.313303"><ele>15.0</ele><time>2026-04-18T16:53:36.648Z</time></trkpt><trkpt lat="9.9346414" lon="-75.3132406"><ele>15.0</ele><time>2026-04-18T16:53:37.653Z</time></trkpt><trkpt lat="9.9346974" lon="-75.3131781"><ele>15.0</ele><time>2026-04-18T16:53:38.65Z</time></trkpt><trkpt lat="9.9347547" lon="-75.3131149"><ele>15.0</ele><time>2026-04-18T16:53:39.648Z</time></trkpt><trkpt lat="9.9348097" lon="-75.3130513"><ele>15.0</ele><time>2026-04-18T16:53:40.648Z</time></trkpt><trkpt lat="9.9348625" lon="-75.3129877"><ele>15.0</ele><time>2026-04-18T16:53:41.646Z</time></trkpt><trkpt lat="9.9349142" lon="-75.312926"><ele>15.166666666666666</ele><time>2026-04-18T16:53:42.649Z</time></trkpt><trkpt lat="9.9349676" lon="-75.3128624"><ele>15.333333333333332</ele><time>2026-04-18T16:53:43.646Z</time></trkpt><trkpt lat="9.9350233" lon="-75.3127979"><ele>15.5</ele><time>2026-04-18T16:53:44.647Z</time></trkpt><trkpt lat="9.9350808" lon="-75.3127327"><ele>15.666666666666666</ele><time>2026-04-18T16:53:45.645Z</time></trkpt><trkpt lat="9.9351254" lon="-75.312659"><ele>15.833333333333332</ele><time>2026-04-18T16:53:46.647Z</time></trkpt><trkpt lat="9.9351828" lon="-75.3125992"><ele>16.0</ele><time>2026-04-18T16:53:47.656Z</time></trkpt><trkpt lat="9.9352409" lon="-75.3125362"><ele>15.999999999999998</ele><time>2026-04-18T16:53:48.658Z</time></trkpt><trkpt lat="9.9352974" lon="-75.3124736"><ele>16.0</ele><time>2026-04-18T16:53:49.649Z</time></trkpt><trkpt lat="9.9353524" lon="-75.3124074"><ele>16.0</ele><time>2026-04-18T16:53:50.649Z</time></trkpt><trkpt lat="9.935408" lon="-75.3123414"><ele>16.0</ele><time>2026-04-18T16:53:51.65Z</time></trkpt><trkpt lat="9.9354617" lon="-75.3122761"><ele>15.999999999999998</ele><time>2026-04-18T16:53:52.654Z</time></trkpt><trkpt lat="9.9355188" lon="-75.3122078"><ele>16.0</ele><time>2026-04-18T16:53:53.654Z</time></trkpt><trkpt lat="9.9355719" lon="-75.3121434"><ele>16.166666666666664</ele><time>2026-04-18T16:53:54.658Z</time></trkpt><trkpt lat="9.9356291" lon="-75.3120804"><ele>16.333333333333332</ele><time>2026-04-18T16:53:55.647Z</time></trkpt><trkpt lat="9.9356816" lon="-75.312019"><ele>16.5</ele><time>2026-04-18T16:53:56.65Z</time></trkpt><trkpt lat="9.935737" lon="-75.3119556"><ele>16.666666666666668</ele><time>2026-04-18T16:53:57.653Z</time></trkpt><trkpt lat="9.9357939" lon="-75.3118979"><ele>16.833333333333336</ele><time>2026-04-18T16:53:58.646Z</time></trkpt><trkpt lat="9.9358505" lon="-75.3118345"><ele>17.0</ele><time>2026-04-18T16:53:59.648Z</time></trkpt><trkpt lat="9.9359025" lon="-75.3117709"><ele>17.0</ele><time>2026-04-18T16:54:00.646Z</time></trkpt><trkpt lat="9.9359565" lon="-75.3117087"><ele>17.0</ele><time>2026-04-18T16:54:01.647Z</time></trkpt><trkpt lat="9.9360107" lon="-75.3116478"><ele>17.0</ele><time>2026-04-18T16:54:02.648Z</time></trkpt><trkpt lat="9.9360688" lon="-75.3115836"><ele>17.0</ele><time>2026-04-18T16:54:03.645Z</time></trkpt><trkpt lat="9.9361232" lon="-75.3115234"><ele>17.0</ele><time>2026-04-18T16:54:04.646Z</time></trkpt><trkpt lat="9.9361713" lon="-75.3114574"><ele>17.0</ele><time>2026-04-18T16:54:05.644Z</time></trkpt><trkpt lat="9.9362239" lon="-75.3113934"><ele>17.333333333333336</ele><time>2026-04-18T16:54:06.646Z</time></trkpt><trkpt lat="9.9362759" lon="-75.3113303"><ele>17.666666666666668</ele><time>2026-04-18T16:54:07.653Z</time></trkpt><trkpt lat="9.9363335" lon="-75.3112661"><ele>18.0</ele><time>2026-04-18T16:54:08.649Z</time></trkpt><trkpt lat="9.9363844" lon="-75.3112005"><ele>18.333333333333332</ele><time>2026-04-18T16:54:09.649Z</time></trkpt><trkpt lat="9.9364418" lon="-75.3111399"><ele>18.666666666666664</ele><time>2026-04-18T16:54:10.65Z</time></trkpt><trkpt lat="9.9364961" lon="-75.311078"><ele>19.0</ele><time>2026-04-18T16:54:11.65Z</time></trkpt><trkpt lat="9.9365515" lon="-75.3110131"><ele>19.0</ele><time>2026-04-18T16:54:12.651Z</time></trkpt><trkpt lat="9.9366051" lon="-75.3109471"><ele>19.0</ele><time>2026-04-18T16:54:13.649Z</time></trkpt><trkpt lat="9.9366575" lon="-75.3108831"><ele>19.0</ele><time>2026-04-18T16:54:14.648Z</time></trkpt><trkpt lat="9.9367135" lon="-75.3108203"><ele>19.0</ele><time>2026-04-18T16:54:15.651Z</time></trkpt><trkpt lat="9.9367696" lon="-75.3107546"><ele>19.0</ele><time>2026-04-18T16:54:16.65Z</time></trkpt><trkpt lat="9.9368265" lon="-75.3106927"><ele>19.0</ele><time>2026-04-18T16:54:17.649Z</time></trkpt><trkpt lat="9.9368845" lon="-75.3106256"><ele>18.666666666666664</ele><time>2026-04-18T16:54:18.646Z</time></trkpt><trkpt lat="9.9369402" lon="-75.3105585"><ele>18.333333333333332</ele><time>2026-04-18T16:54:19.646Z</time></trkpt><trkpt lat="9.9369974" lon="-75.3104954"><ele>18.0</ele><time>2026-04-18T16:54:20.648Z</time></trkpt><trkpt lat="9.9370539" lon="-75.3104287"><ele>17.666666666666668</ele><time>2026-04-18T16:54:21.65Z</time></trkpt><trkpt lat="9.9371067" lon="-75.3103624"><ele>17.333333333333336</ele><time>2026-04-18T16:54:22.653Z</time></trkpt><trkpt lat="9.937161" lon="-75.3102962"><ele>17.0</ele><time>2026-04-18T16:54:23.652Z</time></trkpt><trkpt lat="9.9372186" lon="-75.3102303"><ele>17.0</ele><time>2026-04-18T16:54:24.651Z</time></trkpt><trkpt lat="9.9372788" lon="-75.3101612"><ele>17.0</ele><time>2026-04-18T16:54:25.651Z</time></trkpt><trkpt lat="9.9373327" lon="-75.3100951"><ele>17.0</ele><time>2026-04-18T16:54:26.649Z</time></trkpt><trkpt lat="9.9373907" lon="-75.3100276"><ele>17.0</ele><time>2026-04-18T16:54:27.646Z</time></trkpt><trkpt lat="9.937451" lon="-75.3099612"><ele>17.0</ele><time>2026-04-18T16:54:28.648Z</time></trkpt><trkpt lat="9.9375073" lon="-75.3098918"><ele>17.0</ele><time>2026-04-18T16:54:29.649Z</time></trkpt><trkpt lat="9.9375673" lon="-75.3098312"><ele>17.166666666666668</ele><time>2026-04-18T16:54:30.65Z</time></trkpt><trkpt lat="9.937621" lon="-75.3097633"><ele>17.333333333333336</ele><time>2026-04-18T16:54:31.644Z</time></trkpt><trkpt lat="9.9376763" lon="-75.3096971"><ele>17.5</ele><time>2026-04-18T16:54:32.646Z</time></trkpt><trkpt lat="9.9377288" lon="-75.3096281"><ele>17.666666666666668</ele><time>2026-04-18T16:54:33.644Z</time></trkpt><trkpt lat="9.937784" lon="-75.3095581"><ele>17.833333333333332</ele><time>2026-04-18T16:54:34.646Z</time></trkpt><trkpt lat="9.9378461" lon="-75.3094966"><ele>18.0</ele><time>2026-04-18T16:54:35.65Z</time></trkpt><trkpt lat="9.9379044" lon="-75.309431"><ele>18.0</ele><time>2026-04-18T16:54:36.65Z</time></trkpt><trkpt lat="9.9379616" lon="-75.3093672"><ele>18.0</ele><time>2026-04-18T16:54:37.649Z</time></trkpt><trkpt lat="9.9380221" lon="-75.3092999"><ele>18.0</ele><time>2026-04-18T16:54:38.652Z</time></trkpt><trkpt lat="9.9380777" lon="-75.3092342"><ele>18.0</ele><time>2026-04-18T16:54:39.65Z</time></trkpt><trkpt lat="9.9381357" lon="-75.309167"><ele>18.0</ele><time>2026-04-18T16:54:40.646Z</time></trkpt><trkpt lat="9.9381892" lon="-75.3090965"><ele>18.0</ele><time>2026-04-18T16:54:41.646Z</time></trkpt><trkpt lat="9.9382458" lon="-75.3090289"><ele>18.0</ele><time>2026-04-18T16:54:42.65Z</time></trkpt><trkpt lat="9.9383061" lon="-75.3089643"><ele>18.0</ele><time>2026-04-18T16:54:43.648Z</time></trkpt><trkpt lat="9.9383598" lon="-75.3088983"><ele>18.0</ele><time>2026-04-18T16:54:44.648Z</time></trkpt><trkpt lat="9.9384196" lon="-75.3088317"><ele>18.0</ele><time>2026-04-18T16:54:45.651Z</time></trkpt><trkpt lat="9.9384759" lon="-75.3087633"><ele>18.0</ele><time>2026-04-18T16:54:46.647Z</time></trkpt><trkpt lat="9.9385333" lon="-75.308696"><ele>18.0</ele><time>2026-04-18T16:54:47.645Z</time></trkpt><trkpt lat="9.938587" lon="-75.3086318"><ele>18.166666666666668</ele><time>2026-04-18T16:54:48.648Z</time></trkpt><trkpt lat="9.9386433" lon="-75.3085684"><ele>18.333333333333332</ele><time>2026-04-18T16:54:49.644Z</time></trkpt><trkpt lat="9.9387017" lon="-75.3085038"><ele>18.5</ele><time>2026-04-18T16:54:50.647Z</time></trkpt><trkpt lat="9.9387535" lon="-75.3084367"><ele>18.666666666666664</ele><time>2026-04-18T16:54:51.651Z</time></trkpt><trkpt lat="9.9388093" lon="-75.3083698"><ele>18.833333333333332</ele><time>2026-04-18T16:54:52.646Z</time></trkpt><trkpt lat="9.9388675" lon="-75.3083035"><ele>19.0</ele><time>2026-04-18T16:54:53.645Z</time></trkpt><trkpt lat="9.9389244" lon="-75.3082423"><ele>19.0</ele><time>2026-04-18T16:54:54.65Z</time></trkpt><trkpt lat="9.9389804" lon="-75.3081847"><ele>19.0</ele><time>2026-04-18T16:54:55.645Z</time></trkpt><trkpt lat="9.9390344" lon="-75.3081204"><ele>19.0</ele><time>2026-04-18T16:54:56.645Z</time></trkpt><trkpt lat="9.9390899" lon="-75.3080556"><ele>19.0</ele><time>2026-04-18T16:54:57.647Z</time></trkpt><trkpt lat="9.9391486" lon="-75.3079877"><ele>19.0</ele><time>2026-04-18T16:54:58.649Z</time></trkpt><trkpt lat="9.9392058" lon="-75.3079206"><ele>19.0</ele><time>2026-04-18T16:54:59.652Z</time></trkpt><trkpt lat="9.9392643" lon="-75.3078584"><ele>18.833333333333332</ele><time>2026-04-18T16:55:00.647Z</time></trkpt><trkpt lat="9.9393203" lon="-75.3077938"><ele>18.666666666666664</ele><time>2026-04-18T16:55:01.644Z</time></trkpt><trkpt lat="9.9393719" lon="-75.3077293"><ele>18.5</ele><time>2026-04-18T16:55:02.644Z</time></trkpt><trkpt lat="9.9394253" lon="-75.3076681"><ele>18.333333333333332</ele><time>2026-04-18T16:55:03.644Z</time></trkpt><trkpt lat="9.9394806" lon="-75.3076016"><ele>18.166666666666668</ele><time>2026-04-18T16:55:04.644Z</time></trkpt><trkpt lat="9.939536" lon="-75.3075395"><ele>18.0</ele><time>2026-04-18T16:55:05.649Z</time></trkpt><trkpt lat="9.9395893" lon="-75.3074747"><ele>18.0</ele><time>2026-04-18T16:55:06.645Z</time></trkpt><trkpt lat="9.9396424" lon="-75.3074131"><ele>18.0</ele><time>2026-04-18T16:55:07.65Z</time></trkpt><trkpt lat="9.9396927" lon="-75.3073456"><ele>18.0</ele><time>2026-04-18T16:55:08.647Z</time></trkpt><trkpt lat="9.9397434" lon="-75.3072859"><ele>18.0</ele><time>2026-04-18T16:55:09.648Z</time></trkpt><trkpt lat="9.9397969" lon="-75.3072278"><ele>18.0</ele><time>2026-04-18T16:55:10.652Z</time></trkpt><trkpt lat="9.9398475" lon="-75.3071685"><ele>18.0</ele><time>2026-04-18T16:55:11.648Z</time></trkpt><trkpt lat="9.9399" lon="-75.3071047"><ele>18.28571428571429</ele><time>2026-04-18T16:55:12.647Z</time></trkpt><trkpt lat="9.9399529" lon="-75.3070474"><ele>18.571428571428573</ele><time>2026-04-18T16:55:13.646Z</time></trkpt><trkpt lat="9.9400008" lon="-75.3069908"><ele>18.857142857142858</ele><time>2026-04-18T16:55:14.653Z</time></trkpt><trkpt lat="9.940049" lon="-75.3069356"><ele>19.142857142857146</ele><time>2026-04-18T16:55:15.65Z</time></trkpt><trkpt lat="9.9400942" lon="-75.3068806"><ele>19.42857142857143</ele><time>2026-04-18T16:55:16.649Z</time></trkpt><trkpt lat="9.9401404" lon="-75.3068263"><ele>19.714285714285715</ele><time>2026-04-18T16:55:17.647Z</time></trkpt><trkpt lat="9.9401881" lon="-75.30677"><ele>20.0</ele><time>2026-04-18T16:55:18.649Z</time></trkpt><trkpt lat="9.9402371" lon="-75.3067142"><ele>20.0</ele><time>2026-04-18T16:55:19.648Z</time></trkpt><trkpt lat="9.9402843" lon="-75.3066549"><ele>20.0</ele><time>2026-04-18T16:55:20.647Z</time></trkpt><trkpt lat="9.9403326" lon="-75.3066007"><ele>20.0</ele><time>2026-04-18T16:55:21.65Z</time></trkpt><trkpt lat="9.9403744" lon="-75.3065408"><ele>20.0</ele><time>2026-04-18T16:55:22.648Z</time></trkpt><trkpt lat="9.9404261" lon="-75.3064811"><ele>20.0</ele><time>2026-04-18T16:55:23.662Z</time></trkpt><trkpt lat="9.9404766" lon="-75.3064197"><ele>20.0</ele><time>2026-04-18T16:55:24.648Z</time></trkpt><trkpt lat="9.9405301" lon="-75.3063573"><ele>20.333333333333336</ele><time>2026-04-18T16:55:25.649Z</time></trkpt><trkpt lat="9.940583" lon="-75.3062984"><ele>20.666666666666668</ele><time>2026-04-18T16:55:26.648Z</time></trkpt><trkpt lat="9.9406384" lon="-75.3062388"><ele>21.0</ele><time>2026-04-18T16:55:27.648Z</time></trkpt><trkpt lat="9.9406927" lon="-75.3061782"><ele>21.333333333333332</ele><time>2026-04-18T16:55:28.649Z</time></trkpt><trkpt lat="9.9407489" lon="-75.3061194"><ele>21.666666666666664</ele><time>2026-04-18T16:55:29.651Z</time></trkpt><trkpt lat="9.9408034" lon="-75.306058"><ele>22.0</ele><time>2026-04-18T16:55:30.652Z</time></trkpt><trkpt lat="9.9408557" lon="-75.3059969"><ele>21.833333333333332</ele><time>2026-04-18T16:55:31.649Z</time></trkpt><trkpt lat="9.9409054" lon="-75.3059386"><ele>21.666666666666664</ele><time>2026-04-18T16:55:32.652Z</time></trkpt><trkpt lat="9.9409531" lon="-75.3058805"><ele>21.5</ele><time>2026-04-18T16:55:33.655Z</time></trkpt><trkpt lat="9.9410031" lon="-75.3058215"><ele>21.333333333333332</ele><time>2026-04-18T16:55:34.648Z</time></trkpt><trkpt lat="9.9410513" lon="-75.3057641"><ele>21.166666666666668</ele><time>2026-04-18T16:55:35.65Z</time></trkpt><trkpt lat="9.941101" lon="-75.3057063"><ele>21.0</ele><time>2026-04-18T16:55:36.65Z</time></trkpt><trkpt lat="9.9411545" lon="-75.3056475"><ele>21.0</ele><time>2026-04-18T16:55:37.649Z</time></trkpt><trkpt lat="9.9412059" lon="-75.3055864"><ele>21.0</ele><time>2026-04-18T16:55:38.649Z</time></trkpt><trkpt lat="9.9412588" lon="-75.3055272"><ele>21.0</ele><time>2026-04-18T16:55:39.648Z</time></trkpt><trkpt lat="9.9413115" lon="-75.3054626"><ele>21.0</ele><time>2026-04-18T16:55:40.649Z</time></trkpt><trkpt lat="9.9413639" lon="-75.3054033"><ele>21.0</ele><time>2026-04-18T16:55:41.649Z</time></trkpt><trkpt lat="9.9414151" lon="-75.3053407"><ele>21.0</ele><time>2026-04-18T16:55:42.647Z</time></trkpt><trkpt lat="9.9414664" lon="-75.3052832"><ele>21.0</ele><time>2026-04-18T16:55:43.649Z</time></trkpt><trkpt lat="9.9415185" lon="-75.3052248"><ele>21.0</ele><time>2026-04-18T16:55:44.654Z</time></trkpt><trkpt lat="9.941574" lon="-75.3051631"><ele>21.0</ele><time>2026-04-18T16:55:45.649Z</time></trkpt><trkpt lat="9.9416265" lon="-75.3051017"><ele>21.0</ele><time>2026-04-18T16:55:46.65Z</time></trkpt><trkpt lat="9.9416776" lon="-75.3050414"><ele>21.0</ele><time>2026-04-18T16:55:47.65Z</time></trkpt><trkpt lat="9.9417257" lon="-75.3049764"><ele>21.0</ele><time>2026-04-18T16:55:48.65Z</time></trkpt><trkpt lat="9.9417775" lon="-75.3049123"><ele>21.0</ele><time>2026-04-18T16:55:49.652Z</time></trkpt><trkpt lat="9.9418299" lon="-75.3048481"><ele>21.0</ele><time>2026-04-18T16:55:50.646Z</time></trkpt><trkpt lat="9.9418888" lon="-75.3047814"><ele>21.0</ele><time>2026-04-18T16:55:51.647Z</time></trkpt><trkpt lat="9.9419418" lon="-75.3047187"><ele>21.0</ele><time>2026-04-18T16:55:52.652Z</time></trkpt><trkpt lat="9.9419933" lon="-75.3046502"><ele>21.0</ele><time>2026-04-18T16:55:53.656Z</time></trkpt><trkpt lat="9.9420478" lon="-75.3045845"><ele>21.0</ele><time>2026-04-18T16:55:54.649Z</time></trkpt><trkpt lat="9.9421008" lon="-75.3045223"><ele>21.0</ele><time>2026-04-18T16:55:55.65Z</time></trkpt><trkpt lat="9.942152" lon="-75.3044607"><ele>21.0</ele><time>2026-04-18T16:55:56.654Z</time></trkpt><trkpt lat="9.9422031" lon="-75.3043942"><ele>21.0</ele><time>2026-04-18T16:55:57.648Z</time></trkpt><trkpt lat="9.9422565" lon="-75.3043296"><ele>21.0</ele><time>2026-04-18T16:55:58.648Z</time></trkpt><trkpt lat="9.9423048" lon="-75.3042667"><ele>21.0</ele><time>2026-04-18T16:55:59.646Z</time></trkpt><trkpt lat="9.9423614" lon="-75.3042066"><ele>21.0</ele><time>2026-04-18T16:56:00.647Z</time></trkpt><trkpt lat="9.9424158" lon="-75.304149"><ele>21.0</ele><time>2026-04-18T16:56:01.648Z</time></trkpt><trkpt lat="9.9424659" lon="-75.3040876"><ele>21.0</ele><time>2026-04-18T16:56:02.65Z</time></trkpt><trkpt lat="9.94252" lon="-75.3040233"><ele>21.0</ele><time>2026-04-18T16:56:03.653Z</time></trkpt><trkpt lat="9.9425782" lon="-75.3039561"><ele>21.0</ele><time>2026-04-18T16:56:04.648Z</time></trkpt><trkpt lat="9.9426307" lon="-75.3038919"><ele>21.0</ele><time>2026-04-18T16:56:05.653Z</time></trkpt><trkpt lat="9.9426851" lon="-75.3038276"><ele>21.0</ele><time>2026-04-18T16:56:06.652Z</time></trkpt><trkpt lat="9.942739" lon="-75.3037646"><ele>21.0</ele><time>2026-04-18T16:56:07.65Z</time></trkpt><trkpt lat="9.9427918" lon="-75.3037058"><ele>21.0</ele><time>2026-04-18T16:56:08.649Z</time></trkpt><trkpt lat="9.9428458" lon="-75.3036376"><ele>21.0</ele><time>2026-04-18T16:56:09.652Z</time></trkpt><trkpt lat="9.942902" lon="-75.3035711"><ele>21.0</ele><time>2026-04-18T16:56:10.651Z</time></trkpt><trkpt lat="9.9429567" lon="-75.3035054"><ele>21.0</ele><time>2026-04-18T16:56:11.653Z</time></trkpt><trkpt lat="9.943014" lon="-75.303444"><ele>21.0</ele><time>2026-04-18T16:56:12.648Z</time></trkpt><trkpt lat="9.943073" lon="-75.3033787"><ele>21.0</ele><time>2026-04-18T16:56:13.648Z</time></trkpt><trkpt lat="9.9431272" lon="-75.3033129"><ele>21.0</ele><time>2026-04-18T16:56:14.651Z</time></trkpt><trkpt lat="9.9431802" lon="-75.3032468"><ele>21.0</ele><time>2026-04-18T16:56:15.648Z</time></trkpt><trkpt lat="9.9432362" lon="-75.3031798"><ele>21.0</ele><time>2026-04-18T16:56:16.657Z</time></trkpt><trkpt lat="9.9432873" lon="-75.3031162"><ele>21.0</ele><time>2026-04-18T16:56:17.648Z</time></trkpt><trkpt lat="9.9433401" lon="-75.303053"><ele>21.0</ele><time>2026-04-18T16:56:18.653Z</time></trkpt><trkpt lat="9.943393" lon="-75.3029898"><ele>21.5</ele><time>2026-04-18T16:56:19.652Z</time></trkpt><trkpt lat="9.9434532" lon="-75.3029248"><ele>22.0</ele><time>2026-04-18T16:56:20.654Z</time></trkpt><trkpt lat="9.9435105" lon="-75.3028573"><ele>22.5</ele><time>2026-04-18T16:56:21.65Z</time></trkpt><trkpt lat="9.9435669" lon="-75.3027879"><ele>23.0</ele><time>2026-04-18T16:56:22.648Z</time></trkpt><trkpt lat="9.9436226" lon="-75.302725"><ele>23.5</ele><time>2026-04-18T16:56:23.654Z</time></trkpt><trkpt lat="9.9436752" lon="-75.3026619"><ele>24.0</ele><time>2026-04-18T16:56:24.654Z</time></trkpt><trkpt lat="9.9437319" lon="-75.3025973"><ele>24.0</ele><time>2026-04-18T16:56:25.653Z</time></trkpt><trkpt lat="9.9437874" lon="-75.3025314"><ele>24.0</ele><time>2026-04-18T16:56:26.651Z</time></trkpt><trkpt lat="9.9438456" lon="-75.3024704"><ele>24.0</ele><time>2026-04-18T16:56:27.648Z</time></trkpt><trkpt lat="9.9439026" lon="-75.302405"><ele>24.0</ele><time>2026-04-18T16:56:28.647Z</time></trkpt><trkpt lat="9.9439599" lon="-75.302339"><ele>24.0</ele><time>2026-04-18T16:56:29.65Z</time></trkpt><trkpt lat="9.944012" lon="-75.3022779"><ele>24.0</ele><time>2026-04-18T16:56:30.648Z</time></trkpt><trkpt lat="9.9440673" lon="-75.3022107"><ele>23.666666666666668</ele><time>2026-04-18T16:56:31.648Z</time></trkpt><trkpt lat="9.9441192" lon="-75.3021391"><ele>23.333333333333332</ele><time>2026-04-18T16:56:32.648Z</time></trkpt><trkpt lat="9.9441743" lon="-75.3020727"><ele>23.0</ele><time>2026-04-18T16:56:33.647Z</time></trkpt><trkpt lat="9.9442277" lon="-75.3020094"><ele>22.666666666666664</ele><time>2026-04-18T16:56:34.647Z</time></trkpt><trkpt lat="9.9442838" lon="-75.3019431"><ele>22.333333333333332</ele><time>2026-04-18T16:56:35.65Z</time></trkpt><trkpt lat="9.9443433" lon="-75.3018822"><ele>22.0</ele><time>2026-04-18T16:56:36.651Z</time></trkpt><trkpt lat="9.9443985" lon="-75.3018136"><ele>21.833333333333332</ele><time>2026-04-18T16:56:37.647Z</time></trkpt><trkpt lat="9.9444508" lon="-75.3017473"><ele>21.666666666666664</ele><time>2026-04-18T16:56:38.648Z</time></trkpt><trkpt lat="9.9445061" lon="-75.3016812"><ele>21.5</ele><time>2026-04-18T16:56:39.648Z</time></trkpt><trkpt lat="9.9445621" lon="-75.3016176"><ele>21.333333333333332</ele><time>2026-04-18T16:56:40.649Z</time></trkpt><trkpt lat="9.9446185" lon="-75.3015518"><ele>21.166666666666668</ele><time>2026-04-18T16:56:41.65Z</time></trkpt><trkpt lat="9.9446758" lon="-75.3014909"><ele>21.0</ele><time>2026-04-18T16:56:42.647Z</time></trkpt><trkpt lat="9.9447271" lon="-75.3014268"><ele>21.166666666666668</ele><time>2026-04-18T16:56:43.648Z</time></trkpt><trkpt lat="9.9447827" lon="-75.3013603"><ele>21.333333333333332</ele><time>2026-04-18T16:56:44.647Z</time></trkpt><trkpt lat="9.9448382" lon="-75.3012956"><ele>21.5</ele><time>2026-04-18T16:56:45.647Z</time></trkpt><trkpt lat="9.9448954" lon="-75.3012339"><ele>21.666666666666664</ele><time>2026-04-18T16:56:46.653Z</time></trkpt><trkpt lat="9.9449535" lon="-75.3011697"><ele>21.833333333333332</ele><time>2026-04-18T16:56:47.652Z</time></trkpt><trkpt lat="9.9450066" lon="-75.3011062"><ele>22.0</ele><time>2026-04-18T16:56:48.647Z</time></trkpt><trkpt lat="9.9450643" lon="-75.301044"><ele>22.0</ele><time>2026-04-18T16:56:49.65Z</time></trkpt><trkpt lat="9.9451157" lon="-75.3009774"><ele>22.0</ele><time>2026-04-18T16:56:50.65Z</time></trkpt><trkpt lat="9.9451686" lon="-75.300914"><ele>22.0</ele><time>2026-04-18T16:56:51.65Z</time></trkpt><trkpt lat="9.9452227" lon="-75.3008464"><ele>22.0</ele><time>2026-04-18T16:56:52.648Z</time></trkpt><trkpt lat="9.9452883" lon="-75.3007783"><ele>22.0</ele><time>2026-04-18T16:56:53.647Z</time></trkpt><trkpt lat="9.9453435" lon="-75.3007137"><ele>22.0</ele><time>2026-04-18T16:56:54.647Z</time></trkpt><trkpt lat="9.9453975" lon="-75.3006526"><ele>22.0</ele><time>2026-04-18T16:56:55.648Z</time></trkpt><trkpt lat="9.9454539" lon="-75.3005901"><ele>22.0</ele><time>2026-04-18T16:56:56.647Z</time></trkpt><trkpt lat="9.9455092" lon="-75.3005283"><ele>22.0</ele><time>2026-04-18T16:56:57.644Z</time></trkpt><trkpt lat="9.9455629" lon="-75.3004645"><ele>22.0</ele><time>2026-04-18T16:56:58.648Z</time></trkpt><trkpt lat="9.945617" lon="-75.300402"><ele>22.0</ele><time>2026-04-18T16:56:59.646Z</time></trkpt><trkpt lat="9.9456701" lon="-75.3003398"><ele>22.0</ele><time>2026-04-18T16:57:00.647Z</time></trkpt><trkpt lat="9.9457273" lon="-75.3002754"><ele>22.166666666666664</ele><time>2026-04-18T16:57:01.647Z</time></trkpt><trkpt lat="9.9457829" lon="-75.3002134"><ele>22.333333333333332</ele><time>2026-04-18T16:57:02.647Z</time></trkpt><trkpt lat="9.9458354" lon="-75.3001532"><ele>22.5</ele><time>2026-04-18T16:57:03.648Z</time></trkpt><trkpt lat="9.9458875" lon="-75.3000877"><ele>22.666666666666668</ele><time>2026-04-18T16:57:04.643Z</time></trkpt><trkpt lat="9.9459416" lon="-75.3000255"><ele>22.833333333333336</ele><time>2026-04-18T16:57:05.649Z</time></trkpt><trkpt lat="9.9459966" lon="-75.2999635"><ele>23.0</ele><time>2026-04-18T16:57:06.648Z</time></trkpt><trkpt lat="9.9460503" lon="-75.2999042"><ele>23.0</ele><time>2026-04-18T16:57:07.65Z</time></trkpt><trkpt lat="9.9461052" lon="-75.299842"><ele>23.0</ele><time>2026-04-18T16:57:08.649Z</time></trkpt><trkpt lat="9.9461589" lon="-75.2997808"><ele>23.0</ele><time>2026-04-18T16:57:09.647Z</time></trkpt><trkpt lat="9.9462148" lon="-75.2997182"><ele>23.0</ele><time>2026-04-18T16:57:10.644Z</time></trkpt><trkpt lat="9.9462676" lon="-75.299658"><ele>23.0</ele><time>2026-04-18T16:57:11.646Z</time></trkpt><trkpt lat="9.9463236" lon="-75.299595"><ele>23.0</ele><time>2026-04-18T16:57:12.66Z</time></trkpt><trkpt lat="9.9463808" lon="-75.2995297"><ele>22.5</ele><time>2026-04-18T16:57:13.653Z</time></trkpt><trkpt lat="9.946435" lon="-75.2994686"><ele>22.0</ele><time>2026-04-18T16:57:14.649Z</time></trkpt><trkpt lat="9.946486" lon="-75.299408"><ele>21.5</ele><time>2026-04-18T16:57:15.652Z</time></trkpt><trkpt lat="9.9465392" lon="-75.2993441"><ele>21.0</ele><time>2026-04-18T16:57:16.652Z</time></trkpt><trkpt lat="9.9465948" lon="-75.2992771"><ele>20.5</ele><time>2026-04-18T16:57:17.648Z</time></trkpt><trkpt lat="9.9466496" lon="-75.2992181"><ele>20.0</ele><time>2026-04-18T16:57:18.651Z</time></trkpt><trkpt lat="9.9467019" lon="-75.2991572"><ele>20.0</ele><time>2026-04-18T16:57:19.648Z</time></trkpt><trkpt lat="9.9467535" lon="-75.2990967"><ele>20.0</ele><time>2026-04-18T16:57:20.643Z</time></trkpt><trkpt lat="9.9468107" lon="-75.299031"><ele>20.0</ele><time>2026-04-18T16:57:21.648Z</time></trkpt><trkpt lat="9.9468627" lon="-75.2989696"><ele>20.0</ele><time>2026-04-18T16:57:22.647Z</time></trkpt><trkpt lat="9.9469148" lon="-75.2989069"><ele>20.0</ele><time>2026-04-18T16:57:23.647Z</time></trkpt><trkpt lat="9.9469691" lon="-75.2988423"><ele>20.0</ele><time>2026-04-18T16:57:24.647Z</time></trkpt><trkpt lat="9.9470249" lon="-75.2987776"><ele>20.166666666666668</ele><time>2026-04-18T16:57:25.649Z</time></trkpt><trkpt lat="9.9470824" lon="-75.2987147"><ele>20.333333333333336</ele><time>2026-04-18T16:57:26.647Z</time></trkpt><trkpt lat="9.9471386" lon="-75.2986496"><ele>20.5</ele><time>2026-04-18T16:57:27.647Z</time></trkpt><trkpt lat="9.9471964" lon="-75.2985859"><ele>20.666666666666668</ele><time>2026-04-18T16:57:28.649Z</time></trkpt><trkpt lat="9.9472562" lon="-75.298523"><ele>20.833333333333332</ele><time>2026-04-18T16:57:29.647Z</time></trkpt><trkpt lat="9.9473126" lon="-75.2984547"><ele>21.0</ele><time>2026-04-18T16:57:30.646Z</time></trkpt><trkpt lat="9.9473691" lon="-75.2983884"><ele>21.0</ele><time>2026-04-18T16:57:31.65Z</time></trkpt><trkpt lat="9.9474221" lon="-75.2983231"><ele>21.0</ele><time>2026-04-18T16:57:32.648Z</time></trkpt><trkpt lat="9.9474789" lon="-75.2982573"><ele>21.0</ele><time>2026-04-18T16:57:33.646Z</time></trkpt><trkpt lat="9.9475378" lon="-75.2981896"><ele>21.0</ele><time>2026-04-18T16:57:34.647Z</time></trkpt><trkpt lat="9.9475943" lon="-75.2981207"><ele>21.0</ele><time>2026-04-18T16:57:35.645Z</time></trkpt><trkpt lat="9.9476521" lon="-75.2980423"><ele>21.0</ele><time>2026-04-18T16:57:36.648Z</time></trkpt><trkpt lat="9.9477081" lon="-75.2979769"><ele>21.0</ele><time>2026-04-18T16:57:37.647Z</time></trkpt><trkpt lat="9.9477656" lon="-75.2979078"><ele>21.0</ele><time>2026-04-18T16:57:38.646Z</time></trkpt><trkpt lat="9.9478265" lon="-75.2978364"><ele>21.0</ele><time>2026-04-18T16:57:39.645Z</time></trkpt><trkpt lat="9.9478821" lon="-75.2977605"><ele>21.0</ele><time>2026-04-18T16:57:40.645Z</time></trkpt><trkpt lat="9.9479349" lon="-75.2976853"><ele>21.0</ele><time>2026-04-18T16:57:41.648Z</time></trkpt><trkpt lat="9.9479945" lon="-75.2976168"><ele>21.0</ele><time>2026-04-18T16:57:42.647Z</time></trkpt><trkpt lat="9.948055" lon="-75.2975471"><ele>21.0</ele><time>2026-04-18T16:57:43.649Z</time></trkpt><trkpt lat="9.9481163" lon="-75.2974756"><ele>21.0</ele><time>2026-04-18T16:57:44.649Z</time></trkpt><trkpt lat="9.9481772" lon="-75.297407"><ele>21.0</ele><time>2026-04-18T16:57:45.649Z</time></trkpt><trkpt lat="9.948239" lon="-75.2973366"><ele>21.0</ele><time>2026-04-18T16:57:46.648Z</time></trkpt><trkpt lat="9.9482997" lon="-75.2972678"><ele>21.166666666666668</ele><time>2026-04-18T16:57:47.65Z</time></trkpt><trkpt lat="9.948362" lon="-75.2971955"><ele>21.333333333333332</ele><time>2026-04-18T16:57:48.648Z</time></trkpt><trkpt lat="9.9484171" lon="-75.2971285"><ele>21.5</ele><time>2026-04-18T16:57:49.649Z</time></trkpt><trkpt lat="9.9484768" lon="-75.2970611"><ele>21.666666666666664</ele><time>2026-04-18T16:57:50.65Z</time></trkpt><trkpt lat="9.9485375" lon="-75.296993"><ele>21.833333333333332</ele><time>2026-04-18T16:57:51.648Z</time></trkpt><trkpt lat="9.9485954" lon="-75.2969245"><ele>22.0</ele><time>2026-04-18T16:57:52.648Z</time></trkpt><trkpt lat="9.9486556" lon="-75.2968563"><ele>21.6</ele><time>2026-04-18T16:57:53.65Z</time></trkpt><trkpt lat="9.9487138" lon="-75.2967872"><ele>21.200000000000003</ele><time>2026-04-18T16:57:54.648Z</time></trkpt><trkpt lat="9.948774" lon="-75.2967149"><ele>20.8</ele><time>2026-04-18T16:57:55.649Z</time></trkpt><trkpt lat="9.9488324" lon="-75.2966456"><ele>20.4</ele><time>2026-04-18T16:57:56.648Z</time></trkpt><trkpt lat="9.9489052" lon="-75.2965769"><ele>20.0</ele><time>2026-04-18T16:57:57.648Z</time></trkpt><trkpt lat="9.9489599" lon="-75.29651"><ele>20.0</ele><time>2026-04-18T16:57:58.646Z</time></trkpt><trkpt lat="9.9490177" lon="-75.2964418"><ele>20.0</ele><time>2026-04-18T16:57:59.649Z</time></trkpt><trkpt lat="9.9490771" lon="-75.296373"><ele>20.0</ele><time>2026-04-18T16:58:00.648Z</time></trkpt><trkpt lat="9.9491358" lon="-75.2963046"><ele>20.0</ele><time>2026-04-18T16:58:01.647Z</time></trkpt><trkpt lat="9.9491928" lon="-75.2962343"><ele>20.0</ele><time>2026-04-18T16:58:02.65Z</time></trkpt><trkpt lat="9.9492465" lon="-75.2961678"><ele>20.0</ele><time>2026-04-18T16:58:03.65Z</time></trkpt><trkpt lat="9.9492988" lon="-75.2961039"><ele>19.833333333333336</ele><time>2026-04-18T16:58:04.646Z</time></trkpt><trkpt lat="9.9493463" lon="-75.2960413"><ele>19.666666666666668</ele><time>2026-04-18T16:58:05.644Z</time></trkpt><trkpt lat="9.9493978" lon="-75.2959773"><ele>19.5</ele><time>2026-04-18T16:58:06.646Z</time></trkpt><trkpt lat="9.9494458" lon="-75.2959168"><ele>19.333333333333332</ele><time>2026-04-18T16:58:07.648Z</time></trkpt><trkpt lat="9.9494975" lon="-75.2958583"><ele>19.166666666666664</ele><time>2026-04-18T16:58:08.649Z</time></trkpt><trkpt lat="9.9495463" lon="-75.2958014"><ele>19.0</ele><time>2026-04-18T16:58:09.647Z</time></trkpt><trkpt lat="9.9495923" lon="-75.2957436"><ele>19.0</ele><time>2026-04-18T16:58:10.648Z</time></trkpt><trkpt lat="9.9496418" lon="-75.2956876"><ele>19.0</ele><time>2026-04-18T16:58:11.649Z</time></trkpt><trkpt lat="9.9496892" lon="-75.2956315"><ele>19.0</ele><time>2026-04-18T16:58:12.648Z</time></trkpt><trkpt lat="9.9497366" lon="-75.2955741"><ele>19.0</ele><time>2026-04-18T16:58:13.649Z</time></trkpt><trkpt lat="9.949784" lon="-75.2955184"><ele>19.0</ele><time>2026-04-18T16:58:14.648Z</time></trkpt><trkpt lat="9.9498297" lon="-75.2954632"><ele>19.0</ele><time>2026-04-18T16:58:15.648Z</time></trkpt><trkpt lat="9.9498743" lon="-75.2954096"><ele>19.0</ele><time>2026-04-18T16:58:16.647Z</time></trkpt><trkpt lat="9.949925" lon="-75.2953542"><ele>19.166666666666664</ele><time>2026-04-18T16:58:17.647Z</time></trkpt><trkpt lat="9.9499676" lon="-75.295303"><ele>19.333333333333332</ele><time>2026-04-18T16:58:18.646Z</time></trkpt><trkpt lat="9.9500106" lon="-75.295254"><ele>19.5</ele><time>2026-04-18T16:58:19.653Z</time></trkpt><trkpt lat="9.9500905" lon="-75.2951533"><ele>19.666666666666668</ele><time>2026-04-18T16:58:21.647Z</time></trkpt><trkpt lat="9.9501331" lon="-75.2951007"><ele>19.833333333333336</ele><time>2026-04-18T16:58:22.648Z</time></trkpt><trkpt lat="9.9501737" lon="-75.2950517"><ele>20.0</ele><time>2026-04-18T16:58:23.648Z</time></trkpt><trkpt lat="9.9502148" lon="-75.2950006"><ele>19.6</ele><time>2026-04-18T16:58:24.649Z</time></trkpt><trkpt lat="9.9502579" lon="-75.2949537"><ele>19.2</ele><time>2026-04-18T16:58:25.651Z</time></trkpt><trkpt lat="9.9503398" lon="-75.294868"><ele>18.8</ele><time>2026-04-18T16:58:27.647Z</time></trkpt><trkpt lat="9.9504158" lon="-75.2947808"><ele>18.4</ele><time>2026-04-18T16:58:29.648Z</time></trkpt><trkpt lat="9.9504864" lon="-75.2946916"><ele>18.0</ele><time>2026-04-18T16:58:31.648Z</time></trkpt><trkpt lat="9.9505592" lon="-75.2946084"><ele>18.0</ele><time>2026-04-18T16:58:33.647Z</time></trkpt><trkpt lat="9.9506377" lon="-75.2945306"><ele>18.0</ele><time>2026-04-18T16:58:35.647Z</time></trkpt><trkpt lat="9.9507158" lon="-75.294438"><ele>18.0</ele><time>2026-04-18T16:58:37.648Z</time></trkpt><trkpt lat="9.9507558" lon="-75.2943882"><ele>18.0</ele><time>2026-04-18T16:58:38.646Z</time></trkpt><trkpt lat="9.950795" lon="-75.2943328"><ele>18.0</ele><time>2026-04-18T16:58:39.651Z</time></trkpt><trkpt lat="9.9508743" lon="-75.2942451"><ele>17.8</ele><time>2026-04-18T16:58:41.648Z</time></trkpt><trkpt lat="9.950949" lon="-75.2941615"><ele>17.6</ele><time>2026-04-18T16:58:43.646Z</time></trkpt><trkpt lat="9.9510183" lon="-75.2940776"><ele>17.4</ele><time>2026-04-18T16:58:45.647Z</time></trkpt><trkpt lat="9.9510923" lon="-75.2939995"><ele>17.2</ele><time>2026-04-18T16:58:47.647Z</time></trkpt><trkpt lat="9.9511604" lon="-75.2939266"><ele>17.0</ele><time>2026-04-18T16:58:49.646Z</time></trkpt><trkpt lat="9.9512224" lon="-75.2938486"><ele>17.0</ele><time>2026-04-18T16:58:51.646Z</time></trkpt><trkpt lat="9.9512866" lon="-75.2937614"><ele>17.0</ele><time>2026-04-18T16:58:53.645Z</time></trkpt><trkpt lat="9.9513563" lon="-75.2936753"><ele>17.0</ele><time>2026-04-18T16:58:55.65Z</time></trkpt><trkpt lat="9.9514316" lon="-75.2935852"><ele>17.0</ele><time>2026-04-18T16:58:57.651Z</time></trkpt><trkpt lat="9.9515073" lon="-75.2934984"><ele>17.0</ele><time>2026-04-18T16:58:59.649Z</time></trkpt><trkpt lat="9.9515796" lon="-75.2934153"><ele>17.0</ele><time>2026-04-18T16:59:01.645Z</time></trkpt><trkpt lat="9.951655" lon="-75.2933285"><ele>17.0</ele><time>2026-04-18T16:59:03.647Z</time></trkpt><trkpt lat="9.9517329" lon="-75.2932374"><ele>17.0</ele><time>2026-04-18T16:59:05.648Z</time></trkpt><trkpt lat="9.9518103" lon="-75.2931375"><ele>17.0</ele><time>2026-04-18T16:59:07.648Z</time></trkpt><trkpt lat="9.9518951" lon="-75.2930442"><ele>17.166666666666668</ele><time>2026-04-18T16:59:09.645Z</time></trkpt><trkpt lat="9.9519368" lon="-75.2929958"><ele>17.333333333333336</ele><time>2026-04-18T16:59:10.646Z</time></trkpt><trkpt lat="9.9520113" lon="-75.2929087"><ele>17.5</ele><time>2026-04-18T16:59:12.646Z</time></trkpt><trkpt lat="9.9521036" lon="-75.2928133"><ele>17.666666666666668</ele><time>2026-04-18T16:59:14.645Z</time></trkpt><trkpt lat="9.952143" lon="-75.2927619"><ele>17.833333333333332</ele><time>2026-04-18T16:59:15.649Z</time></trkpt><trkpt lat="9.952188" lon="-75.2927134"><ele>18.0</ele><time>2026-04-18T16:59:16.649Z</time></trkpt><trkpt lat="9.9522735" lon="-75.2926161"><ele>18.0</ele><time>2026-04-18T16:59:18.647Z</time></trkpt><trkpt lat="9.9523159" lon="-75.2925671"><ele>18.0</ele><time>2026-04-18T16:59:19.647Z</time></trkpt><trkpt lat="9.9523577" lon="-75.2925152"><ele>18.0</ele><time>2026-04-18T16:59:20.649Z</time></trkpt><trkpt lat="9.9524015" lon="-75.292464"><ele>18.0</ele><time>2026-04-18T16:59:21.649Z</time></trkpt><trkpt lat="9.9524889" lon="-75.292359"><ele>18.0</ele><time>2026-04-18T16:59:23.648Z</time></trkpt><trkpt lat="9.9525267" lon="-75.2923033"><ele>18.0</ele><time>2026-04-18T16:59:24.646Z</time></trkpt><trkpt lat="9.95257" lon="-75.2922531"><ele>18.28571428571429</ele><time>2026-04-18T16:59:25.645Z</time></trkpt><trkpt lat="9.9526131" lon="-75.2921974"><ele>18.571428571428573</ele><time>2026-04-18T16:59:26.647Z</time></trkpt><trkpt lat="9.9526615" lon="-75.2921448"><ele>18.857142857142858</ele><time>2026-04-18T16:59:27.644Z</time></trkpt><trkpt lat="9.9527094" lon="-75.2920902"><ele>19.142857142857146</ele><time>2026-04-18T16:59:28.646Z</time></trkpt><trkpt lat="9.9527592" lon="-75.2920335"><ele>19.42857142857143</ele><time>2026-04-18T16:59:29.646Z</time></trkpt><trkpt lat="9.9528031" lon="-75.2919809"><ele>19.714285714285715</ele><time>2026-04-18T16:59:30.647Z</time></trkpt><trkpt lat="9.9528478" lon="-75.2919292"><ele>20.0</ele><time>2026-04-18T16:59:31.651Z</time></trkpt><trkpt lat="9.9528926" lon="-75.2918761"><ele>20.0</ele><time>2026-04-18T16:59:32.65Z</time></trkpt><trkpt lat="9.9529403" lon="-75.2918186"><ele>20.0</ele><time>2026-04-18T16:59:33.65Z</time></trkpt><trkpt lat="9.9529877" lon="-75.2917639"><ele>20.0</ele><time>2026-04-18T16:59:34.649Z</time></trkpt><trkpt lat="9.9530381" lon="-75.2917081"><ele>20.0</ele><time>2026-04-18T16:59:35.648Z</time></trkpt><trkpt lat="9.9530887" lon="-75.2916482"><ele>20.0</ele><time>2026-04-18T16:59:36.649Z</time></trkpt><trkpt lat="9.9531419" lon="-75.2915911"><ele>20.0</ele><time>2026-04-18T16:59:37.647Z</time></trkpt><trkpt lat="9.9531944" lon="-75.2915317"><ele>20.0</ele><time>2026-04-18T16:59:38.647Z</time></trkpt><trkpt lat="9.9532406" lon="-75.2914766"><ele>20.0</ele><time>2026-04-18T16:59:39.647Z</time></trkpt><trkpt lat="9.9532869" lon="-75.2914153"><ele>20.0</ele><time>2026-04-18T16:59:40.647Z</time></trkpt><trkpt lat="9.9533395" lon="-75.2913549"><ele>20.0</ele><time>2026-04-18T16:59:41.645Z</time></trkpt><trkpt lat="9.9533901" lon="-75.291296"><ele>20.0</ele><time>2026-04-18T16:59:42.646Z</time></trkpt><trkpt lat="9.9534445" lon="-75.2912338"><ele>20.0</ele><time>2026-04-18T16:59:43.646Z</time></trkpt><trkpt lat="9.9534917" lon="-75.2911776"><ele>20.0</ele><time>2026-04-18T16:59:44.648Z</time></trkpt><trkpt lat="9.9535439" lon="-75.2911178"><ele>20.0</ele><time>2026-04-18T16:59:45.648Z</time></trkpt><trkpt lat="9.953594" lon="-75.2910571"><ele>20.0</ele><time>2026-04-18T16:59:46.647Z</time></trkpt><trkpt lat="9.9536458" lon="-75.2909963"><ele>20.0</ele><time>2026-04-18T16:59:47.65Z</time></trkpt><trkpt lat="9.9536964" lon="-75.2909349"><ele>20.0</ele><time>2026-04-18T16:59:48.647Z</time></trkpt><trkpt lat="9.9537474" lon="-75.2908734"><ele>20.0</ele><time>2026-04-18T16:59:49.647Z</time></trkpt><trkpt lat="9.9537986" lon="-75.2908113"><ele>20.0</ele><time>2026-04-18T16:59:50.654Z</time></trkpt><trkpt lat="9.9538517" lon="-75.2907492"><ele>20.0</ele><time>2026-04-18T16:59:51.646Z</time></trkpt><trkpt lat="9.9539058" lon="-75.290687"><ele>20.0</ele><time>2026-04-18T16:59:52.648Z</time></trkpt><trkpt lat="9.9539587" lon="-75.2906257"><ele>20.0</ele><time>2026-04-18T16:59:53.645Z</time></trkpt><trkpt lat="9.9540087" lon="-75.2905666"><ele>20.0</ele><time>2026-04-18T16:59:54.647Z</time></trkpt><trkpt lat="9.954059" lon="-75.2905038"><ele>20.0</ele><time>2026-04-18T16:59:55.647Z</time></trkpt><trkpt lat="9.9541033" lon="-75.2904454"><ele>20.166666666666668</ele><time>2026-04-18T16:59:56.646Z</time></trkpt><trkpt lat="9.954151" lon="-75.2903814"><ele>20.333333333333336</ele><time>2026-04-18T16:59:57.646Z</time></trkpt><trkpt lat="9.9542016" lon="-75.2903209"><ele>20.5</ele><time>2026-04-18T16:59:58.649Z</time></trkpt><trkpt lat="9.9542525" lon="-75.2902593"><ele>20.666666666666668</ele><time>2026-04-18T16:59:59.647Z</time></trkpt><trkpt lat="9.9543035" lon="-75.2902"><ele>20.833333333333332</ele><time>2026-04-18T17:00:00.648Z</time></trkpt><trkpt lat="9.9543658" lon="-75.2901463"><ele>21.0</ele><time>2026-04-18T17:00:01.647Z</time></trkpt><trkpt lat="9.9544143" lon="-75.2900876"><ele>20.833333333333332</ele><time>2026-04-18T17:00:02.654Z</time></trkpt><trkpt lat="9.9544719" lon="-75.2900303"><ele>20.666666666666668</ele><time>2026-04-18T17:00:03.648Z</time></trkpt><trkpt lat="9.9545219" lon="-75.2899767"><ele>20.5</ele><time>2026-04-18T17:00:04.647Z</time></trkpt><trkpt lat="9.9545732" lon="-75.2899225"><ele>20.333333333333336</ele><time>2026-04-18T17:00:05.647Z</time></trkpt><trkpt lat="9.954624" lon="-75.2898626"><ele>20.166666666666668</ele><time>2026-04-18T17:00:06.647Z</time></trkpt><trkpt lat="9.9546737" lon="-75.2898029"><ele>20.0</ele><time>2026-04-18T17:00:07.647Z</time></trkpt><trkpt lat="9.9547255" lon="-75.2897428"><ele>20.0</ele><time>2026-04-18T17:00:08.646Z</time></trkpt><trkpt lat="9.9547767" lon="-75.2896801"><ele>20.0</ele><time>2026-04-18T17:00:09.647Z</time></trkpt><trkpt lat="9.9548286" lon="-75.2896193"><ele>20.0</ele><time>2026-04-18T17:00:10.648Z</time></trkpt><trkpt lat="9.9548787" lon="-75.2895577"><ele>20.0</ele><time>2026-04-18T17:00:11.649Z</time></trkpt><trkpt lat="9.9549299" lon="-75.2894966"><ele>20.0</ele><time>2026-04-18T17:00:12.645Z</time></trkpt><trkpt lat="9.9549767" lon="-75.289434"><ele>20.0</ele><time>2026-04-18T17:00:13.648Z</time></trkpt><trkpt lat="9.9550356" lon="-75.2893774"><ele>19.666666666666668</ele><time>2026-04-18T17:00:14.647Z</time></trkpt><trkpt lat="9.955087" lon="-75.2893161"><ele>19.333333333333336</ele><time>2026-04-18T17:00:15.646Z</time></trkpt><trkpt lat="9.9551365" lon="-75.2892531"><ele>19.0</ele><time>2026-04-18T17:00:16.646Z</time></trkpt><trkpt lat="9.9551866" lon="-75.2891909"><ele>18.666666666666668</ele><time>2026-04-18T17:00:17.646Z</time></trkpt><trkpt lat="9.9552379" lon="-75.2891314"><ele>18.333333333333332</ele><time>2026-04-18T17:00:18.646Z</time></trkpt><trkpt lat="9.9552878" lon="-75.2890724"><ele>18.0</ele><time>2026-04-18T17:00:19.648Z</time></trkpt><trkpt lat="9.9553396" lon="-75.2890122"><ele>18.0</ele><time>2026-04-18T17:00:20.651Z</time></trkpt><trkpt lat="9.9553913" lon="-75.2889486"><ele>18.0</ele><time>2026-04-18T17:00:21.647Z</time></trkpt><trkpt lat="9.9554472" lon="-75.2888879"><ele>18.0</ele><time>2026-04-18T17:00:22.649Z</time></trkpt><trkpt lat="9.9554997" lon="-75.2888257"><ele>18.0</ele><time>2026-04-18T17:00:23.648Z</time></trkpt><trkpt lat="9.9555528" lon="-75.2887642"><ele>18.0</ele><time>2026-04-18T17:00:24.65Z</time></trkpt><trkpt lat="9.9556043" lon="-75.2887023"><ele>18.0</ele><time>2026-04-18T17:00:25.646Z</time></trkpt><trkpt lat="9.9556597" lon="-75.2886406"><ele>18.333333333333332</ele><time>2026-04-18T17:00:26.649Z</time></trkpt><trkpt lat="9.9557066" lon="-75.2885789"><ele>18.666666666666668</ele><time>2026-04-18T17:00:27.648Z</time></trkpt><trkpt lat="9.9557547" lon="-75.288508"><ele>19.0</ele><time>2026-04-18T17:00:28.649Z</time></trkpt><trkpt lat="9.9558104" lon="-75.2884414"><ele>19.333333333333336</ele><time>2026-04-18T17:00:29.646Z</time></trkpt><trkpt lat="9.9558683" lon="-75.2883794"><ele>19.666666666666668</ele><time>2026-04-18T17:00:30.647Z</time></trkpt><trkpt lat="9.9559242" lon="-75.2883174"><ele>20.0</ele><time>2026-04-18T17:00:31.646Z</time></trkpt><trkpt lat="9.955982" lon="-75.2882511"><ele>20.0</ele><time>2026-04-18T17:00:32.642Z</time></trkpt><trkpt lat="9.9560401" lon="-75.2881863"><ele>20.0</ele><time>2026-04-18T17:00:33.647Z</time></trkpt><trkpt lat="9.9561036" lon="-75.288122"><ele>20.0</ele><time>2026-04-18T17:00:34.646Z</time></trkpt><trkpt lat="9.9561612" lon="-75.2880562"><ele>20.0</ele><time>2026-04-18T17:00:35.642Z</time></trkpt><trkpt lat="9.9562183" lon="-75.2879871"><ele>20.0</ele><time>2026-04-18T17:00:36.65Z</time></trkpt><trkpt lat="9.9562749" lon="-75.2879195"><ele>20.0</ele><time>2026-04-18T17:00:37.66Z</time></trkpt><trkpt lat="9.9563323" lon="-75.2878551"><ele>20.166666666666668</ele><time>2026-04-18T17:00:38.647Z</time></trkpt><trkpt lat="9.9563894" lon="-75.287789"><ele>20.333333333333336</ele><time>2026-04-18T17:00:39.649Z</time></trkpt><trkpt lat="9.9564491" lon="-75.2877205"><ele>20.5</ele><time>2026-04-18T17:00:40.648Z</time></trkpt><trkpt lat="9.9565045" lon="-75.2876556"><ele>20.666666666666668</ele><time>2026-04-18T17:00:41.652Z</time></trkpt><trkpt lat="9.9565598" lon="-75.2875883"><ele>20.833333333333332</ele><time>2026-04-18T17:00:42.644Z</time></trkpt><trkpt lat="9.9566156" lon="-75.2875212"><ele>21.0</ele><time>2026-04-18T17:00:43.647Z</time></trkpt><trkpt lat="9.9566695" lon="-75.2874552"><ele>21.5</ele><time>2026-04-18T17:00:44.65Z</time></trkpt><trkpt lat="9.9567255" lon="-75.2873904"><ele>22.0</ele><time>2026-04-18T17:00:45.652Z</time></trkpt><trkpt lat="9.9567863" lon="-75.2873216"><ele>22.5</ele><time>2026-04-18T17:00:46.646Z</time></trkpt><trkpt lat="9.9568447" lon="-75.2872564"><ele>23.0</ele><time>2026-04-18T17:00:47.647Z</time></trkpt><trkpt lat="9.9568984" lon="-75.2871909"><ele>23.5</ele><time>2026-04-18T17:00:48.644Z</time></trkpt><trkpt lat="9.9569505" lon="-75.2871229"><ele>24.0</ele><time>2026-04-18T17:00:49.643Z</time></trkpt><trkpt lat="9.9570017" lon="-75.2870673"><ele>24.0</ele><time>2026-04-18T17:00:50.648Z</time></trkpt><trkpt lat="9.9570528" lon="-75.2870071"><ele>24.0</ele><time>2026-04-18T17:00:51.646Z</time></trkpt><trkpt lat="9.9571053" lon="-75.2869474"><ele>24.0</ele><time>2026-04-18T17:00:52.648Z</time></trkpt><trkpt lat="9.957157" lon="-75.2868868"><ele>24.0</ele><time>2026-04-18T17:00:53.647Z</time></trkpt><trkpt lat="9.9572086" lon="-75.286825"><ele>24.0</ele><time>2026-04-18T17:00:54.647Z</time></trkpt><trkpt lat="9.9572623" lon="-75.2867632"><ele>24.0</ele><time>2026-04-18T17:00:55.645Z</time></trkpt><trkpt lat="9.9573138" lon="-75.2867029"><ele>24.0</ele><time>2026-04-18T17:00:56.648Z</time></trkpt><trkpt lat="9.9573672" lon="-75.2866427"><ele>24.0</ele><time>2026-04-18T17:00:57.649Z</time></trkpt><trkpt lat="9.9574182" lon="-75.2865841"><ele>24.0</ele><time>2026-04-18T17:00:58.652Z</time></trkpt><trkpt lat="9.9574749" lon="-75.2865221"><ele>24.0</ele><time>2026-04-18T17:00:59.649Z</time></trkpt><trkpt lat="9.9575306" lon="-75.2864581"><ele>24.0</ele><time>2026-04-18T17:01:00.648Z</time></trkpt><trkpt lat="9.9575809" lon="-75.2863944"><ele>24.0</ele><time>2026-04-18T17:01:01.642Z</time></trkpt><trkpt lat="9.9576361" lon="-75.2863307"><ele>24.0</ele><time>2026-04-18T17:01:02.645Z</time></trkpt><trkpt lat="9.9576851" lon="-75.2862695"><ele>24.0</ele><time>2026-04-18T17:01:03.646Z</time></trkpt><trkpt lat="9.9577396" lon="-75.2862082"><ele>24.0</ele><time>2026-04-18T17:01:04.646Z</time></trkpt><trkpt lat="9.9577951" lon="-75.2861443"><ele>24.0</ele><time>2026-04-18T17:01:05.646Z</time></trkpt><trkpt lat="9.957848" lon="-75.2860842"><ele>24.0</ele><time>2026-04-18T17:01:06.646Z</time></trkpt><trkpt lat="9.9579037" lon="-75.2860183"><ele>24.0</ele><time>2026-04-18T17:01:07.646Z</time></trkpt><trkpt lat="9.9579592" lon="-75.2859544"><ele>24.0</ele><time>2026-04-18T17:01:08.645Z</time></trkpt><trkpt lat="9.9580136" lon="-75.2858908"><ele>24.0</ele><time>2026-04-18T17:01:09.646Z</time></trkpt><trkpt lat="9.9580665" lon="-75.2858255"><ele>24.0</ele><time>2026-04-18T17:01:10.646Z</time></trkpt><trkpt lat="9.9581202" lon="-75.2857612"><ele>24.0</ele><time>2026-04-18T17:01:11.651Z</time></trkpt><trkpt lat="9.9581742" lon="-75.2856982"><ele>24.0</ele><time>2026-04-18T17:01:12.649Z</time></trkpt><trkpt lat="9.9582302" lon="-75.2856356"><ele>24.0</ele><time>2026-04-18T17:01:13.648Z</time></trkpt><trkpt lat="9.9582871" lon="-75.285571"><ele>23.833333333333332</ele><time>2026-04-18T17:01:14.647Z</time></trkpt><trkpt lat="9.9583369" lon="-75.2855113"><ele>23.666666666666668</ele><time>2026-04-18T17:01:15.646Z</time></trkpt><trkpt lat="9.9583927" lon="-75.2854495"><ele>23.5</ele><time>2026-04-18T17:01:16.649Z</time></trkpt><trkpt lat="9.9584482" lon="-75.2853847"><ele>23.333333333333336</ele><time>2026-04-18T17:01:17.646Z</time></trkpt><trkpt lat="9.9585073" lon="-75.2853186"><ele>23.166666666666668</ele><time>2026-04-18T17:01:18.649Z</time></trkpt><trkpt lat="9.958563" lon="-75.2852523"><ele>23.0</ele><time>2026-04-18T17:01:19.652Z</time></trkpt><trkpt lat="9.958615" lon="-75.2851847"><ele>23.0</ele><time>2026-04-18T17:01:20.647Z</time></trkpt><trkpt lat="9.9586744" lon="-75.2851218"><ele>23.0</ele><time>2026-04-18T17:01:21.646Z</time></trkpt><trkpt lat="9.9587355" lon="-75.2850552"><ele>23.0</ele><time>2026-04-18T17:01:22.645Z</time></trkpt><trkpt lat="9.9587918" lon="-75.2849913"><ele>23.0</ele><time>2026-04-18T17:01:23.646Z</time></trkpt><trkpt lat="9.9588511" lon="-75.2849312"><ele>23.0</ele><time>2026-04-18T17:01:24.646Z</time></trkpt><trkpt lat="9.9589031" lon="-75.2848748"><ele>23.0</ele><time>2026-04-18T17:01:25.645Z</time></trkpt><trkpt lat="9.9589613" lon="-75.2848172"><ele>22.666666666666668</ele><time>2026-04-18T17:01:26.647Z</time></trkpt><trkpt lat="9.9590238" lon="-75.2847588"><ele>22.333333333333336</ele><time>2026-04-18T17:01:27.648Z</time></trkpt><trkpt lat="9.9590861" lon="-75.2847002"><ele>22.0</ele><time>2026-04-18T17:01:28.647Z</time></trkpt><trkpt lat="9.9591504" lon="-75.2846474"><ele>21.666666666666668</ele><time>2026-04-18T17:01:29.647Z</time></trkpt><trkpt lat="9.9592129" lon="-75.2845958"><ele>21.333333333333332</ele><time>2026-04-18T17:01:30.647Z</time></trkpt><trkpt lat="9.9592787" lon="-75.2845513"><ele>21.0</ele><time>2026-04-18T17:01:31.648Z</time></trkpt><trkpt lat="9.9593451" lon="-75.2845012"><ele>21.0</ele><time>2026-04-18T17:01:32.646Z</time></trkpt><trkpt lat="9.959411" lon="-75.2844527"><ele>21.0</ele><time>2026-04-18T17:01:33.647Z</time></trkpt><trkpt lat="9.9594781" lon="-75.2844078"><ele>21.0</ele><time>2026-04-18T17:01:34.646Z</time></trkpt><trkpt lat="9.9595473" lon="-75.2843616"><ele>21.0</ele><time>2026-04-18T17:01:35.644Z</time></trkpt><trkpt lat="9.9596209" lon="-75.2843181"><ele>21.0</ele><time>2026-04-18T17:01:36.644Z</time></trkpt><trkpt lat="9.959686" lon="-75.2842671"><ele>21.0</ele><time>2026-04-18T17:01:37.646Z</time></trkpt><trkpt lat="9.9597574" lon="-75.2842259"><ele>21.0</ele><time>2026-04-18T17:01:38.646Z</time></trkpt><trkpt lat="9.9598288" lon="-75.2841877"><ele>21.0</ele><time>2026-04-18T17:01:39.649Z</time></trkpt><trkpt lat="9.9598988" lon="-75.2841521"><ele>21.0</ele><time>2026-04-18T17:01:40.65Z</time></trkpt><trkpt lat="9.9599786" lon="-75.2841249"><ele>21.0</ele><time>2026-04-18T17:01:41.649Z</time></trkpt><trkpt lat="9.9600479" lon="-75.2840979"><ele>21.0</ele><time>2026-04-18T17:01:42.649Z</time></trkpt><trkpt lat="9.9601265" lon="-75.2840651"><ele>21.0</ele><time>2026-04-18T17:01:43.646Z</time></trkpt><trkpt lat="9.9602017" lon="-75.2840336"><ele>21.166666666666668</ele><time>2026-04-18T17:01:44.645Z</time></trkpt><trkpt lat="9.9602818" lon="-75.2840017"><ele>21.333333333333332</ele><time>2026-04-18T17:01:45.646Z</time></trkpt><trkpt lat="9.9603578" lon="-75.2839734"><ele>21.5</ele><time>2026-04-18T17:01:46.647Z</time></trkpt><trkpt lat="9.9604369" lon="-75.2839479"><ele>21.666666666666664</ele><time>2026-04-18T17:01:47.648Z</time></trkpt><trkpt lat="9.9605164" lon="-75.2839168"><ele>21.833333333333332</ele><time>2026-04-18T17:01:48.647Z</time></trkpt><trkpt lat="9.9605974" lon="-75.2838881"><ele>22.0</ele><time>2026-04-18T17:01:49.646Z</time></trkpt><trkpt lat="9.9606799" lon="-75.2838595"><ele>22.166666666666664</ele><time>2026-04-18T17:01:50.652Z</time></trkpt><trkpt lat="9.9607616" lon="-75.2838299"><ele>22.333333333333332</ele><time>2026-04-18T17:01:51.647Z</time></trkpt><trkpt lat="9.9608421" lon="-75.2838006"><ele>22.5</ele><time>2026-04-18T17:01:52.652Z</time></trkpt><trkpt lat="9.9609257" lon="-75.2837706"><ele>22.666666666666668</ele><time>2026-04-18T17:01:53.647Z</time></trkpt><trkpt lat="9.9610058" lon="-75.2837424"><ele>22.833333333333336</ele><time>2026-04-18T17:01:54.647Z</time></trkpt><trkpt lat="9.9610858" lon="-75.2837152"><ele>23.0</ele><time>2026-04-18T17:01:55.648Z</time></trkpt><trkpt lat="9.9611646" lon="-75.2836899"><ele>23.0</ele><time>2026-04-18T17:01:56.647Z</time></trkpt><trkpt lat="9.9612434" lon="-75.2836568"><ele>23.0</ele><time>2026-04-18T17:01:57.648Z</time></trkpt><trkpt lat="9.9613329" lon="-75.2836335"><ele>23.0</ele><time>2026-04-18T17:01:58.647Z</time></trkpt><trkpt lat="9.9614134" lon="-75.2836047"><ele>23.0</ele><time>2026-04-18T17:01:59.648Z</time></trkpt><trkpt lat="9.9614923" lon="-75.283578"><ele>23.0</ele><time>2026-04-18T17:02:00.647Z</time></trkpt><trkpt lat="9.96157" lon="-75.2835506"><ele>23.0</ele><time>2026-04-18T17:02:01.648Z</time></trkpt><trkpt lat="9.9616501" lon="-75.2835219"><ele>23.5</ele><time>2026-04-18T17:02:02.652Z</time></trkpt><trkpt lat="9.9617304" lon="-75.2834956"><ele>24.0</ele><time>2026-04-18T17:02:03.648Z</time></trkpt><trkpt lat="9.9618087" lon="-75.2834681"><ele>24.5</ele><time>2026-04-18T17:02:04.647Z</time></trkpt><trkpt lat="9.9618853" lon="-75.2834434"><ele>25.0</ele><time>2026-04-18T17:02:05.647Z</time></trkpt><trkpt lat="9.9619609" lon="-75.2834187"><ele>25.499999999999996</ele><time>2026-04-18T17:02:06.647Z</time></trkpt><trkpt lat="9.9620358" lon="-75.2833933"><ele>26.0</ele><time>2026-04-18T17:02:07.645Z</time></trkpt><trkpt lat="9.9621094" lon="-75.2833677"><ele>25.999999999999996</ele><time>2026-04-18T17:02:08.651Z</time></trkpt><trkpt lat="9.9621843" lon="-75.2833473"><ele>26.0</ele><time>2026-04-18T17:02:09.647Z</time></trkpt><trkpt lat="9.9622554" lon="-75.2833281"><ele>26.0</ele><time>2026-04-18T17:02:10.646Z</time></trkpt><trkpt lat="9.9623175" lon="-75.2833072"><ele>26.0</ele><time>2026-04-18T17:02:11.652Z</time></trkpt><trkpt lat="9.9624222" lon="-75.2832704"><ele>25.999999999999996</ele><time>2026-04-18T17:02:13.644Z</time></trkpt><trkpt lat="9.962517" lon="-75.2832309"><ele>26.0</ele><time>2026-04-18T17:02:15.647Z</time></trkpt><trkpt lat="9.9626251" lon="-75.2831838"><ele>26.166666666666664</ele><time>2026-04-18T17:02:17.647Z</time></trkpt><trkpt lat="9.9627429" lon="-75.2831338"><ele>26.333333333333332</ele><time>2026-04-18T17:02:19.655Z</time></trkpt><trkpt lat="9.9628103" lon="-75.2831163"><ele>26.5</ele><time>2026-04-18T17:02:20.646Z</time></trkpt><trkpt lat="9.9628781" lon="-75.2830912"><ele>26.666666666666664</ele><time>2026-04-18T17:02:21.65Z</time></trkpt><trkpt lat="9.9629471" lon="-75.2830655"><ele>26.833333333333332</ele><time>2026-04-18T17:02:22.651Z</time></trkpt><trkpt lat="9.9630147" lon="-75.2830379"><ele>27.0</ele><time>2026-04-18T17:02:23.648Z</time></trkpt><trkpt lat="9.9630832" lon="-75.2830123"><ele>27.0</ele><time>2026-04-18T17:02:24.647Z</time></trkpt><trkpt lat="9.9631518" lon="-75.2829839"><ele>27.0</ele><time>2026-04-18T17:02:25.646Z</time></trkpt><trkpt lat="9.9632183" lon="-75.2829546"><ele>27.0</ele><time>2026-04-18T17:02:26.646Z</time></trkpt><trkpt lat="9.9632885" lon="-75.2829265"><ele>27.0</ele><time>2026-04-18T17:02:27.648Z</time></trkpt><trkpt lat="9.9633564" lon="-75.282896"><ele>27.0</ele><time>2026-04-18T17:02:28.648Z</time></trkpt><trkpt lat="9.9634254" lon="-75.2828615"><ele>27.0</ele><time>2026-04-18T17:02:29.643Z</time></trkpt><trkpt lat="9.9634932" lon="-75.2828267"><ele>27.0</ele><time>2026-04-18T17:02:30.647Z</time></trkpt><trkpt lat="9.9635604" lon="-75.282788"><ele>26.833333333333332</ele><time>2026-04-18T17:02:31.648Z</time></trkpt><trkpt lat="9.9636274" lon="-75.2827476"><ele>26.666666666666664</ele><time>2026-04-18T17:02:32.643Z</time></trkpt><trkpt lat="9.9636939" lon="-75.2827076"><ele>26.5</ele><time>2026-04-18T17:02:33.646Z</time></trkpt><trkpt lat="9.9637551" lon="-75.2826668"><ele>26.333333333333332</ele><time>2026-04-18T17:02:34.645Z</time></trkpt><trkpt lat="9.9638157" lon="-75.282625"><ele>26.166666666666664</ele><time>2026-04-18T17:02:35.646Z</time></trkpt><trkpt lat="9.9638815" lon="-75.2825919"><ele>26.0</ele><time>2026-04-18T17:02:36.644Z</time></trkpt><trkpt lat="9.9639486" lon="-75.2825436"><ele>26.0</ele><time>2026-04-18T17:02:37.644Z</time></trkpt><trkpt lat="9.9640094" lon="-75.282498"><ele>26.0</ele><time>2026-04-18T17:02:38.647Z</time></trkpt><trkpt lat="9.9640688" lon="-75.2824531"><ele>26.0</ele><time>2026-04-18T17:02:39.648Z</time></trkpt><trkpt lat="9.9641326" lon="-75.2824034"><ele>26.0</ele><time>2026-04-18T17:02:40.648Z</time></trkpt><trkpt lat="9.9641949" lon="-75.282357"><ele>26.0</ele><time>2026-04-18T17:02:41.647Z</time></trkpt><trkpt lat="9.9642471" lon="-75.2823133"><ele>26.0</ele><time>2026-04-18T17:02:42.646Z</time></trkpt><trkpt lat="9.9643026" lon="-75.2822679"><ele>26.0</ele><time>2026-04-18T17:02:43.647Z</time></trkpt><trkpt lat="9.9643559" lon="-75.2822203"><ele>26.166666666666664</ele><time>2026-04-18T17:02:44.649Z</time></trkpt><trkpt lat="9.9644196" lon="-75.2821676"><ele>26.333333333333332</ele><time>2026-04-18T17:02:45.647Z</time></trkpt><trkpt lat="9.9644806" lon="-75.2821161"><ele>26.5</ele><time>2026-04-18T17:02:46.649Z</time></trkpt><trkpt lat="9.9645432" lon="-75.282067"><ele>26.666666666666664</ele><time>2026-04-18T17:02:47.651Z</time></trkpt><trkpt lat="9.9646014" lon="-75.2820242"><ele>26.833333333333332</ele><time>2026-04-18T17:02:48.648Z</time></trkpt><trkpt lat="9.9646597" lon="-75.2819797"><ele>27.0</ele><time>2026-04-18T17:02:49.649Z</time></trkpt><trkpt lat="9.9647154" lon="-75.2819366"><ele>27.0</ele><time>2026-04-18T17:02:50.648Z</time></trkpt><trkpt lat="9.9647734" lon="-75.2818883"><ele>27.0</ele><time>2026-04-18T17:02:51.647Z</time></trkpt><trkpt lat="9.9648268" lon="-75.2818446"><ele>27.0</ele><time>2026-04-18T17:02:52.647Z</time></trkpt><trkpt lat="9.9648803" lon="-75.2817997"><ele>27.0</ele><time>2026-04-18T17:02:53.644Z</time></trkpt><trkpt lat="9.9649346" lon="-75.2817534"><ele>27.0</ele><time>2026-04-18T17:02:54.643Z</time></trkpt><trkpt lat="9.964984" lon="-75.2816996"><ele>27.0</ele><time>2026-04-18T17:02:55.646Z</time></trkpt><trkpt lat="9.9650487" lon="-75.2816532"><ele>27.0</ele><time>2026-04-18T17:02:56.644Z</time></trkpt><trkpt lat="9.9651028" lon="-75.2816074"><ele>27.0</ele><time>2026-04-18T17:02:57.644Z</time></trkpt><trkpt lat="9.9651556" lon="-75.2815631"><ele>27.0</ele><time>2026-04-18T17:02:58.644Z</time></trkpt><trkpt lat="9.9652099" lon="-75.2815182"><ele>27.0</ele><time>2026-04-18T17:02:59.643Z</time></trkpt><trkpt lat="9.9652629" lon="-75.2814751"><ele>27.0</ele><time>2026-04-18T17:03:00.644Z</time></trkpt><trkpt lat="9.9653127" lon="-75.2814359"><ele>27.0</ele><time>2026-04-18T17:03:01.643Z</time></trkpt><trkpt lat="9.9653687" lon="-75.2813932"><ele>27.0</ele><time>2026-04-18T17:03:02.645Z</time></trkpt><trkpt lat="9.9654222" lon="-75.2813497"><ele>27.0</ele><time>2026-04-18T17:03:03.651Z</time></trkpt><trkpt lat="9.9654756" lon="-75.2813027"><ele>27.0</ele><time>2026-04-18T17:03:04.645Z</time></trkpt><trkpt lat="9.9655293" lon="-75.2812583"><ele>27.0</ele><time>2026-04-18T17:03:05.642Z</time></trkpt><trkpt lat="9.9655876" lon="-75.2812127"><ele>27.0</ele><time>2026-04-18T17:03:06.643Z</time></trkpt><trkpt lat="9.965645" lon="-75.2811675"><ele>27.0</ele><time>2026-04-18T17:03:07.644Z</time></trkpt><trkpt lat="9.9657026" lon="-75.281122"><ele>27.0</ele><time>2026-04-18T17:03:08.648Z</time></trkpt><trkpt lat="9.9657702" lon="-75.2810734"><ele>27.0</ele><time>2026-04-18T17:03:09.644Z</time></trkpt><trkpt lat="9.965826" lon="-75.2810289"><ele>27.0</ele><time>2026-04-18T17:03:10.648Z</time></trkpt><trkpt lat="9.9658819" lon="-75.280982"><ele>26.714285714285715</ele><time>2026-04-18T17:03:11.645Z</time></trkpt><trkpt lat="9.965939" lon="-75.2809362"><ele>26.428571428571427</ele><time>2026-04-18T17:03:12.645Z</time></trkpt><trkpt lat="9.9659942" lon="-75.2808881"><ele>26.142857142857146</ele><time>2026-04-18T17:03:13.644Z</time></trkpt><trkpt lat="9.966048" lon="-75.2808415"><ele>25.857142857142858</ele><time>2026-04-18T17:03:14.644Z</time></trkpt><trkpt lat="9.9661079" lon="-75.2808012"><ele>25.571428571428573</ele><time>2026-04-18T17:03:15.643Z</time></trkpt><trkpt lat="9.9661639" lon="-75.2807609"><ele>25.28571428571429</ele><time>2026-04-18T17:03:16.647Z</time></trkpt><trkpt lat="9.9662141" lon="-75.2807205"><ele>25.0</ele><time>2026-04-18T17:03:17.646Z</time></trkpt><trkpt lat="9.9662657" lon="-75.2806787"><ele>25.000000000000004</ele><time>2026-04-18T17:03:18.647Z</time></trkpt><trkpt lat="9.9663186" lon="-75.2806328"><ele>25.0</ele><time>2026-04-18T17:03:19.644Z</time></trkpt><trkpt lat="9.9663741" lon="-75.2805867"><ele>25.0</ele><time>2026-04-18T17:03:20.645Z</time></trkpt><trkpt lat="9.9664333" lon="-75.2805355"><ele>25.0</ele><time>2026-04-18T17:03:21.645Z</time></trkpt><trkpt lat="9.9664885" lon="-75.2804808"><ele>25.000000000000004</ele><time>2026-04-18T17:03:22.646Z</time></trkpt><trkpt lat="9.9665474" lon="-75.2804303"><ele>25.0</ele><time>2026-04-18T17:03:23.645Z</time></trkpt><trkpt lat="9.9666149" lon="-75.2803793"><ele>25.333333333333336</ele><time>2026-04-18T17:03:24.642Z</time></trkpt><trkpt lat="9.9666758" lon="-75.2803301"><ele>25.666666666666668</ele><time>2026-04-18T17:03:25.649Z</time></trkpt><trkpt lat="9.9667351" lon="-75.2802804"><ele>26.0</ele><time>2026-04-18T17:03:26.645Z</time></trkpt><trkpt lat="9.966794" lon="-75.2802305"><ele>26.333333333333336</ele><time>2026-04-18T17:03:27.645Z</time></trkpt><trkpt lat="9.9668553" lon="-75.2801804"><ele>26.666666666666668</ele><time>2026-04-18T17:03:28.644Z</time></trkpt><trkpt lat="9.9669168" lon="-75.2801334"><ele>27.0</ele><time>2026-04-18T17:03:29.644Z</time></trkpt><trkpt lat="9.9669792" lon="-75.2800817"><ele>27.0</ele><time>2026-04-18T17:03:30.645Z</time></trkpt><trkpt lat="9.9670377" lon="-75.2800287"><ele>27.0</ele><time>2026-04-18T17:03:31.644Z</time></trkpt><trkpt lat="9.9671005" lon="-75.2799759"><ele>27.0</ele><time>2026-04-18T17:03:32.644Z</time></trkpt><trkpt lat="9.9671641" lon="-75.2799253"><ele>27.0</ele><time>2026-04-18T17:03:33.647Z</time></trkpt><trkpt lat="9.9672273" lon="-75.2798729"><ele>27.0</ele><time>2026-04-18T17:03:34.644Z</time></trkpt><trkpt lat="9.9672908" lon="-75.2798174"><ele>27.0</ele><time>2026-04-18T17:03:35.644Z</time></trkpt><trkpt lat="9.9673539" lon="-75.2797695"><ele>26.833333333333332</ele><time>2026-04-18T17:03:36.642Z</time></trkpt><trkpt lat="9.9674148" lon="-75.2797107"><ele>26.666666666666664</ele><time>2026-04-18T17:03:37.644Z</time></trkpt><trkpt lat="9.9674796" lon="-75.2796611"><ele>26.5</ele><time>2026-04-18T17:03:38.651Z</time></trkpt><trkpt lat="9.9675425" lon="-75.2796105"><ele>26.333333333333332</ele><time>2026-04-18T17:03:39.646Z</time></trkpt><trkpt lat="9.9676064" lon="-75.2795594"><ele>26.166666666666664</ele><time>2026-04-18T17:03:40.643Z</time></trkpt><trkpt lat="9.9676713" lon="-75.2795063"><ele>26.0</ele><time>2026-04-18T17:03:41.642Z</time></trkpt><trkpt lat="9.9677387" lon="-75.2794559"><ele>25.999999999999996</ele><time>2026-04-18T17:03:42.646Z</time></trkpt><trkpt lat="9.9678059" lon="-75.2794014"><ele>26.0</ele><time>2026-04-18T17:03:43.643Z</time></trkpt><trkpt lat="9.9678708" lon="-75.2793472"><ele>26.0</ele><time>2026-04-18T17:03:44.647Z</time></trkpt><trkpt lat="9.9679379" lon="-75.2792927"><ele>26.0</ele><time>2026-04-18T17:03:45.646Z</time></trkpt><trkpt lat="9.968002" lon="-75.2792386"><ele>25.999999999999996</ele><time>2026-04-18T17:03:46.644Z</time></trkpt><trkpt lat="9.9680694" lon="-75.2791821"><ele>26.0</ele><time>2026-04-18T17:03:47.644Z</time></trkpt><trkpt lat="9.9681376" lon="-75.2791295"><ele>25.999999999999996</ele><time>2026-04-18T17:03:48.647Z</time></trkpt><trkpt lat="9.9682062" lon="-75.2790746"><ele>26.0</ele><time>2026-04-18T17:03:49.65Z</time></trkpt><trkpt lat="9.9682749" lon="-75.2790212"><ele>26.0</ele><time>2026-04-18T17:03:50.655Z</time></trkpt><trkpt lat="9.9683427" lon="-75.2789663"><ele>26.0</ele><time>2026-04-18T17:03:51.648Z</time></trkpt><trkpt lat="9.9684152" lon="-75.2789166"><ele>25.999999999999996</ele><time>2026-04-18T17:03:52.648Z</time></trkpt><trkpt lat="9.9684849" lon="-75.2788599"><ele>26.0</ele><time>2026-04-18T17:03:53.646Z</time></trkpt><trkpt lat="9.9685531" lon="-75.2788052"><ele>26.333333333333332</ele><time>2026-04-18T17:03:54.646Z</time></trkpt><trkpt lat="9.9686193" lon="-75.2787502"><ele>26.666666666666664</ele><time>2026-04-18T17:03:55.644Z</time></trkpt><trkpt lat="9.9686855" lon="-75.2786958"><ele>27.0</ele><time>2026-04-18T17:03:56.649Z</time></trkpt><trkpt lat="9.9687526" lon="-75.2786405"><ele>27.333333333333336</ele><time>2026-04-18T17:03:57.646Z</time></trkpt><trkpt lat="9.9688153" lon="-75.2785886"><ele>27.666666666666668</ele><time>2026-04-18T17:03:58.643Z</time></trkpt><trkpt lat="9.9688838" lon="-75.2785348"><ele>28.0</ele><time>2026-04-18T17:03:59.644Z</time></trkpt><trkpt lat="9.9689517" lon="-75.2784816"><ele>28.000000000000004</ele><time>2026-04-18T17:04:00.646Z</time></trkpt><trkpt lat="9.9690161" lon="-75.2784248"><ele>28.0</ele><time>2026-04-18T17:04:01.645Z</time></trkpt><trkpt lat="9.9690828" lon="-75.2783705"><ele>28.0</ele><time>2026-04-18T17:04:02.647Z</time></trkpt><trkpt lat="9.9691469" lon="-75.2783217"><ele>28.0</ele><time>2026-04-18T17:04:03.648Z</time></trkpt><trkpt lat="9.9692083" lon="-75.2782695"><ele>28.000000000000004</ele><time>2026-04-18T17:04:04.645Z</time></trkpt><trkpt lat="9.9692726" lon="-75.2782168"><ele>28.0</ele><time>2026-04-18T17:04:05.648Z</time></trkpt><trkpt lat="9.9693324" lon="-75.2781699"><ele>27.833333333333336</ele><time>2026-04-18T17:04:06.647Z</time></trkpt><trkpt lat="9.969391" lon="-75.2781224"><ele>27.666666666666668</ele><time>2026-04-18T17:04:07.65Z</time></trkpt><trkpt lat="9.9694536" lon="-75.2780767"><ele>27.5</ele><time>2026-04-18T17:04:08.65Z</time></trkpt><trkpt lat="9.9695103" lon="-75.2780254"><ele>27.333333333333336</ele><time>2026-04-18T17:04:09.647Z</time></trkpt><trkpt lat="9.9695677" lon="-75.2779773"><ele>27.166666666666668</ele><time>2026-04-18T17:04:10.651Z</time></trkpt><trkpt lat="9.9696262" lon="-75.2779305"><ele>27.0</ele><time>2026-04-18T17:04:11.646Z</time></trkpt><trkpt lat="9.9696849" lon="-75.277879"><ele>26.833333333333332</ele><time>2026-04-18T17:04:12.65Z</time></trkpt><trkpt lat="9.9697493" lon="-75.2778289"><ele>26.666666666666664</ele><time>2026-04-18T17:04:13.646Z</time></trkpt><trkpt lat="9.9698098" lon="-75.2777787"><ele>26.5</ele><time>2026-04-18T17:04:14.645Z</time></trkpt><trkpt lat="9.9698716" lon="-75.2777271"><ele>26.333333333333332</ele><time>2026-04-18T17:04:15.649Z</time></trkpt><trkpt lat="9.9699339" lon="-75.2776759"><ele>26.166666666666664</ele><time>2026-04-18T17:04:16.647Z</time></trkpt><trkpt lat="9.9699976" lon="-75.2776283"><ele>26.0</ele><time>2026-04-18T17:04:17.652Z</time></trkpt><trkpt lat="9.9700598" lon="-75.2775785"><ele>25.666666666666664</ele><time>2026-04-18T17:04:18.649Z</time></trkpt><trkpt lat="9.9701198" lon="-75.2775278"><ele>25.333333333333332</ele><time>2026-04-18T17:04:19.648Z</time></trkpt><trkpt lat="9.9701801" lon="-75.2774766"><ele>25.0</ele><time>2026-04-18T17:04:20.65Z</time></trkpt><trkpt lat="9.9702413" lon="-75.277426"><ele>24.666666666666664</ele><time>2026-04-18T17:04:21.647Z</time></trkpt><trkpt lat="9.9703006" lon="-75.2773795"><ele>24.333333333333332</ele><time>2026-04-18T17:04:22.649Z</time></trkpt><trkpt lat="9.9703637" lon="-75.2773311"><ele>24.0</ele><time>2026-04-18T17:04:23.648Z</time></trkpt><trkpt lat="9.9704244" lon="-75.2772804"><ele>24.142857142857142</ele><time>2026-04-18T17:04:24.647Z</time></trkpt><trkpt lat="9.9704854" lon="-75.2772319"><ele>24.285714285714285</ele><time>2026-04-18T17:04:25.65Z</time></trkpt><trkpt lat="9.9705447" lon="-75.2771857"><ele>24.42857142857143</ele><time>2026-04-18T17:04:26.65Z</time></trkpt><trkpt lat="9.9706044" lon="-75.2771389"><ele>24.57142857142857</ele><time>2026-04-18T17:04:27.645Z</time></trkpt><trkpt lat="9.970662" lon="-75.2770911"><ele>24.714285714285715</ele><time>2026-04-18T17:04:28.65Z</time></trkpt><trkpt lat="9.9707195" lon="-75.2770433"><ele>24.857142857142858</ele><time>2026-04-18T17:04:29.651Z</time></trkpt><trkpt lat="9.9707758" lon="-75.2769974"><ele>25.0</ele><time>2026-04-18T17:04:30.648Z</time></trkpt><trkpt lat="9.970832" lon="-75.2769487"><ele>24.833333333333336</ele><time>2026-04-18T17:04:31.646Z</time></trkpt><trkpt lat="9.9708869" lon="-75.2769003"><ele>24.666666666666668</ele><time>2026-04-18T17:04:32.647Z</time></trkpt><trkpt lat="9.9709462" lon="-75.2768498"><ele>24.5</ele><time>2026-04-18T17:04:33.649Z</time></trkpt><trkpt lat="9.9710052" lon="-75.2767996"><ele>24.333333333333336</ele><time>2026-04-18T17:04:34.648Z</time></trkpt><trkpt lat="9.9710653" lon="-75.2767509"><ele>24.166666666666668</ele><time>2026-04-18T17:04:35.647Z</time></trkpt><trkpt lat="9.9711267" lon="-75.2767009"><ele>24.0</ele><time>2026-04-18T17:04:36.65Z</time></trkpt><trkpt lat="9.9711866" lon="-75.2766502"><ele>24.0</ele><time>2026-04-18T17:04:37.646Z</time></trkpt><trkpt lat="9.9712596" lon="-75.2765951"><ele>24.0</ele><time>2026-04-18T17:04:38.649Z</time></trkpt><trkpt lat="9.971321" lon="-75.2765464"><ele>24.0</ele><time>2026-04-18T17:04:39.648Z</time></trkpt><trkpt lat="9.9713814" lon="-75.2764965"><ele>24.0</ele><time>2026-04-18T17:04:40.648Z</time></trkpt><trkpt lat="9.9714421" lon="-75.276446"><ele>24.0</ele><time>2026-04-18T17:04:41.648Z</time></trkpt><trkpt lat="9.9715021" lon="-75.2763933"><ele>24.0</ele><time>2026-04-18T17:04:42.647Z</time></trkpt><trkpt lat="9.9715595" lon="-75.2763417"><ele>24.166666666666668</ele><time>2026-04-18T17:04:43.648Z</time></trkpt><trkpt lat="9.9716247" lon="-75.2762905"><ele>24.333333333333336</ele><time>2026-04-18T17:04:44.645Z</time></trkpt><trkpt lat="9.9716874" lon="-75.2762386"><ele>24.5</ele><time>2026-04-18T17:04:45.65Z</time></trkpt><trkpt lat="9.9717528" lon="-75.2761859"><ele>24.666666666666668</ele><time>2026-04-18T17:04:46.647Z</time></trkpt><trkpt lat="9.9718166" lon="-75.2761423"><ele>24.833333333333336</ele><time>2026-04-18T17:04:47.644Z</time></trkpt><trkpt lat="9.9718811" lon="-75.2760939"><ele>25.0</ele><time>2026-04-18T17:04:48.648Z</time></trkpt><trkpt lat="9.9719409" lon="-75.2760473"><ele>25.000000000000004</ele><time>2026-04-18T17:04:49.648Z</time></trkpt><trkpt lat="9.972002" lon="-75.2759929"><ele>25.0</ele><time>2026-04-18T17:04:50.645Z</time></trkpt><trkpt lat="9.972061" lon="-75.2759488"><ele>25.0</ele><time>2026-04-18T17:04:51.647Z</time></trkpt><trkpt lat="9.9721268" lon="-75.2758932"><ele>25.0</ele><time>2026-04-18T17:04:52.645Z</time></trkpt><trkpt lat="9.972194" lon="-75.275838"><ele>25.000000000000004</ele><time>2026-04-18T17:04:53.643Z</time></trkpt><trkpt lat="9.9722574" lon="-75.2757812"><ele>25.0</ele><time>2026-04-18T17:04:54.65Z</time></trkpt><trkpt lat="9.9723257" lon="-75.2757259"><ele>25.000000000000004</ele><time>2026-04-18T17:04:55.646Z</time></trkpt><trkpt lat="9.9723944" lon="-75.2756707"><ele>25.0</ele><time>2026-04-18T17:04:56.647Z</time></trkpt><trkpt lat="9.9724616" lon="-75.2756143"><ele>25.0</ele><time>2026-04-18T17:04:57.65Z</time></trkpt><trkpt lat="9.9725283" lon="-75.2755579"><ele>25.0</ele><time>2026-04-18T17:04:58.646Z</time></trkpt><trkpt lat="9.972598" lon="-75.2755029"><ele>25.000000000000004</ele><time>2026-04-18T17:04:59.645Z</time></trkpt><trkpt lat="9.9726654" lon="-75.2754486"><ele>25.0</ele><time>2026-04-18T17:05:00.646Z</time></trkpt><trkpt lat="9.9727335" lon="-75.2753914"><ele>25.166666666666668</ele><time>2026-04-18T17:05:01.647Z</time></trkpt><trkpt lat="9.9728025" lon="-75.2753359"><ele>25.333333333333336</ele><time>2026-04-18T17:05:02.648Z</time></trkpt><trkpt lat="9.9728711" lon="-75.2752785"><ele>25.5</ele><time>2026-04-18T17:05:03.646Z</time></trkpt><trkpt lat="9.9729415" lon="-75.2752225"><ele>25.666666666666664</ele><time>2026-04-18T17:05:04.649Z</time></trkpt><trkpt lat="9.9730095" lon="-75.2751694"><ele>25.833333333333332</ele><time>2026-04-18T17:05:05.647Z</time></trkpt><trkpt lat="9.9730769" lon="-75.2751124"><ele>26.0</ele><time>2026-04-18T17:05:06.643Z</time></trkpt><trkpt lat="9.9731508" lon="-75.2750564"><ele>26.0</ele><time>2026-04-18T17:05:07.64Z</time></trkpt><trkpt lat="9.9732256" lon="-75.2749974"><ele>26.0</ele><time>2026-04-18T17:05:08.642Z</time></trkpt><trkpt lat="9.9732987" lon="-75.2749381"><ele>26.0</ele><time>2026-04-18T17:05:09.647Z</time></trkpt><trkpt lat="9.9733678" lon="-75.2748803"><ele>26.0</ele><time>2026-04-18T17:05:10.642Z</time></trkpt><trkpt lat="9.9734375" lon="-75.2748213"><ele>26.0</ele><time>2026-04-18T17:05:11.646Z</time></trkpt><trkpt lat="9.973508" lon="-75.2747614"><ele>26.0</ele><time>2026-04-18T17:05:12.648Z</time></trkpt><trkpt lat="9.9735787" lon="-75.2747028"><ele>26.0</ele><time>2026-04-18T17:05:13.645Z</time></trkpt><trkpt lat="9.9736485" lon="-75.2746478"><ele>26.0</ele><time>2026-04-18T17:05:14.646Z</time></trkpt><trkpt lat="9.9737217" lon="-75.2745887"><ele>26.0</ele><time>2026-04-18T17:05:15.646Z</time></trkpt><trkpt lat="9.9737944" lon="-75.2745311"><ele>26.0</ele><time>2026-04-18T17:05:16.645Z</time></trkpt><trkpt lat="9.9738711" lon="-75.2744691"><ele>26.0</ele><time>2026-04-18T17:05:17.651Z</time></trkpt><trkpt lat="9.9739432" lon="-75.2744086"><ele>26.0</ele><time>2026-04-18T17:05:18.645Z</time></trkpt><trkpt lat="9.9740167" lon="-75.274351"><ele>26.0</ele><time>2026-04-18T17:05:19.65Z</time></trkpt><trkpt lat="9.9740891" lon="-75.2742898"><ele>26.0</ele><time>2026-04-18T17:05:20.654Z</time></trkpt><trkpt lat="9.9741625" lon="-75.2742277"><ele>26.0</ele><time>2026-04-18T17:05:21.647Z</time></trkpt><trkpt lat="9.9742376" lon="-75.274165"><ele>25.8</ele><time>2026-04-18T17:05:22.647Z</time></trkpt><trkpt lat="9.9743143" lon="-75.2741041"><ele>25.6</ele><time>2026-04-18T17:05:23.644Z</time></trkpt><trkpt lat="9.9743927" lon="-75.2740451"><ele>25.4</ele><time>2026-04-18T17:05:24.647Z</time></trkpt><trkpt lat="9.9744682" lon="-75.2739841"><ele>25.2</ele><time>2026-04-18T17:05:25.646Z</time></trkpt><trkpt lat="9.9745448" lon="-75.2739233"><ele>25.0</ele><time>2026-04-18T17:05:26.645Z</time></trkpt><trkpt lat="9.9746205" lon="-75.2738625"><ele>25.4</ele><time>2026-04-18T17:05:27.644Z</time></trkpt><trkpt lat="9.9746939" lon="-75.2738015"><ele>25.8</ele><time>2026-04-18T17:05:28.644Z</time></trkpt><trkpt lat="9.9747657" lon="-75.2737413"><ele>26.200000000000003</ele><time>2026-04-18T17:05:29.645Z</time></trkpt><trkpt lat="9.9748406" lon="-75.2736834"><ele>26.6</ele><time>2026-04-18T17:05:30.645Z</time></trkpt><trkpt lat="9.9749138" lon="-75.2736261"><ele>27.0</ele><time>2026-04-18T17:05:31.647Z</time></trkpt><trkpt lat="9.9749868" lon="-75.2735674"><ele>26.8</ele><time>2026-04-18T17:05:32.647Z</time></trkpt><trkpt lat="9.9750602" lon="-75.2735073"><ele>26.6</ele><time>2026-04-18T17:05:33.648Z</time></trkpt><trkpt lat="9.9751308" lon="-75.2734487"><ele>26.400000000000002</ele><time>2026-04-18T17:05:34.648Z</time></trkpt><trkpt lat="9.9752052" lon="-75.2733953"><ele>26.200000000000003</ele><time>2026-04-18T17:05:35.646Z</time></trkpt><trkpt lat="9.9752767" lon="-75.2733346"><ele>26.0</ele><time>2026-04-18T17:05:36.647Z</time></trkpt><trkpt lat="9.9753501" lon="-75.2732772"><ele>26.0</ele><time>2026-04-18T17:05:37.65Z</time></trkpt><trkpt lat="9.9754229" lon="-75.2732198"><ele>26.0</ele><time>2026-04-18T17:05:38.645Z</time></trkpt><trkpt lat="9.9754918" lon="-75.2731639"><ele>26.0</ele><time>2026-04-18T17:05:39.647Z</time></trkpt><trkpt lat="9.9755608" lon="-75.2731061"><ele>26.0</ele><time>2026-04-18T17:05:40.644Z</time></trkpt><trkpt lat="9.9756296" lon="-75.2730474"><ele>26.0</ele><time>2026-04-18T17:05:41.645Z</time></trkpt><trkpt lat="9.9757038" lon="-75.2729854"><ele>26.4</ele><time>2026-04-18T17:05:42.649Z</time></trkpt><trkpt lat="9.9757758" lon="-75.2729278"><ele>26.8</ele><time>2026-04-18T17:05:43.646Z</time></trkpt><trkpt lat="9.9758475" lon="-75.2728703"><ele>27.199999999999996</ele><time>2026-04-18T17:05:44.648Z</time></trkpt><trkpt lat="9.9759171" lon="-75.272814"><ele>27.599999999999998</ele><time>2026-04-18T17:05:45.649Z</time></trkpt><trkpt lat="9.9759912" lon="-75.2727552"><ele>28.0</ele><time>2026-04-18T17:05:46.645Z</time></trkpt><trkpt lat="9.9760635" lon="-75.2726948"><ele>28.2</ele><time>2026-04-18T17:05:47.646Z</time></trkpt><trkpt lat="9.9761372" lon="-75.2726362"><ele>28.4</ele><time>2026-04-18T17:05:48.644Z</time></trkpt><trkpt lat="9.9762066" lon="-75.2725731"><ele>28.599999999999998</ele><time>2026-04-18T17:05:49.648Z</time></trkpt><trkpt lat="9.9762815" lon="-75.2725121"><ele>28.799999999999997</ele><time>2026-04-18T17:05:50.647Z</time></trkpt><trkpt lat="9.9763579" lon="-75.272452"><ele>29.0</ele><time>2026-04-18T17:05:51.65Z</time></trkpt><trkpt lat="9.9764323" lon="-75.2723925"><ele>29.0</ele><time>2026-04-18T17:05:52.65Z</time></trkpt><trkpt lat="9.9765116" lon="-75.2723329"><ele>29.0</ele><time>2026-04-18T17:05:53.65Z</time></trkpt><trkpt lat="9.9765856" lon="-75.2722729"><ele>29.0</ele><time>2026-04-18T17:05:54.645Z</time></trkpt><trkpt lat="9.9766594" lon="-75.2722129"><ele>29.0</ele><time>2026-04-18T17:05:55.645Z</time></trkpt><trkpt lat="9.9767333" lon="-75.2721539"><ele>29.0</ele><time>2026-04-18T17:05:56.65Z</time></trkpt><trkpt lat="9.9768013" lon="-75.2720833"><ele>28.0</ele><time>2026-04-18T17:05:57.651Z</time></trkpt><trkpt lat="9.9768729" lon="-75.2720271"><ele>27.0</ele><time>2026-04-18T17:05:58.643Z</time></trkpt><trkpt lat="9.976948" lon="-75.2719721"><ele>26.0</ele><time>2026-04-18T17:05:59.643Z</time></trkpt><trkpt lat="9.977024" lon="-75.2719233"><ele>25.0</ele><time>2026-04-18T17:06:00.642Z</time></trkpt><trkpt lat="9.9770997" lon="-75.271865"><ele>24.0</ele><time>2026-04-18T17:06:01.646Z</time></trkpt><trkpt lat="9.9771742" lon="-75.2718097"><ele>24.0</ele><time>2026-04-18T17:06:02.643Z</time></trkpt><trkpt lat="9.9772465" lon="-75.2717501"><ele>24.0</ele><time>2026-04-18T17:06:03.643Z</time></trkpt><trkpt lat="9.9773185" lon="-75.2716919"><ele>24.0</ele><time>2026-04-18T17:06:04.643Z</time></trkpt><trkpt lat="9.9773811" lon="-75.2716258"><ele>24.0</ele><time>2026-04-18T17:06:05.649Z</time></trkpt><trkpt lat="9.9774536" lon="-75.2715665"><ele>24.0</ele><time>2026-04-18T17:06:06.648Z</time></trkpt><trkpt lat="9.9775261" lon="-75.2715071"><ele>24.2</ele><time>2026-04-18T17:06:07.648Z</time></trkpt><trkpt lat="9.9775995" lon="-75.2714483"><ele>24.4</ele><time>2026-04-18T17:06:08.649Z</time></trkpt><trkpt lat="9.9776717" lon="-75.2713899"><ele>24.6</ele><time>2026-04-18T17:06:09.647Z</time></trkpt><trkpt lat="9.9777433" lon="-75.2713326"><ele>24.8</ele><time>2026-04-18T17:06:10.646Z</time></trkpt><trkpt lat="9.9778154" lon="-75.2712741"><ele>25.0</ele><time>2026-04-18T17:06:11.645Z</time></trkpt><trkpt lat="9.9778878" lon="-75.2712165"><ele>25.333333333333336</ele><time>2026-04-18T17:06:12.646Z</time></trkpt><trkpt lat="9.977959" lon="-75.2711603"><ele>25.666666666666668</ele><time>2026-04-18T17:06:13.647Z</time></trkpt><trkpt lat="9.9780304" lon="-75.2711053"><ele>26.0</ele><time>2026-04-18T17:06:14.648Z</time></trkpt><trkpt lat="9.9781021" lon="-75.2710537"><ele>26.333333333333336</ele><time>2026-04-18T17:06:15.647Z</time></trkpt><trkpt lat="9.9781727" lon="-75.271001"><ele>26.666666666666668</ele><time>2026-04-18T17:06:16.645Z</time></trkpt><trkpt lat="9.9782392" lon="-75.2709432"><ele>27.0</ele><time>2026-04-18T17:06:17.645Z</time></trkpt><trkpt lat="9.9783105" lon="-75.2708821"><ele>26.833333333333332</ele><time>2026-04-18T17:06:18.644Z</time></trkpt><trkpt lat="9.9783805" lon="-75.2708257"><ele>26.666666666666664</ele><time>2026-04-18T17:06:19.646Z</time></trkpt><trkpt lat="9.9784481" lon="-75.2707721"><ele>26.5</ele><time>2026-04-18T17:06:20.645Z</time></trkpt><trkpt lat="9.9785168" lon="-75.2707174"><ele>26.333333333333332</ele><time>2026-04-18T17:06:21.646Z</time></trkpt><trkpt lat="9.9785874" lon="-75.2706625"><ele>26.166666666666664</ele><time>2026-04-18T17:06:22.651Z</time></trkpt><trkpt lat="9.9786556" lon="-75.2706067"><ele>26.0</ele><time>2026-04-18T17:06:23.645Z</time></trkpt><trkpt lat="9.9787273" lon="-75.2705474"><ele>26.499999999999996</ele><time>2026-04-18T17:06:24.644Z</time></trkpt><trkpt lat="9.9787975" lon="-75.2704877"><ele>27.0</ele><time>2026-04-18T17:06:25.642Z</time></trkpt><trkpt lat="9.9788669" lon="-75.2704297"><ele>27.5</ele><time>2026-04-18T17:06:26.644Z</time></trkpt><trkpt lat="9.9789371" lon="-75.2703743"><ele>28.0</ele><time>2026-04-18T17:06:27.645Z</time></trkpt><trkpt lat="9.979009" lon="-75.2703176"><ele>28.499999999999996</ele><time>2026-04-18T17:06:28.645Z</time></trkpt><trkpt lat="9.9790764" lon="-75.2702603"><ele>29.0</ele><time>2026-04-18T17:06:29.646Z</time></trkpt><trkpt lat="9.9791476" lon="-75.2702064"><ele>29.0</ele><time>2026-04-18T17:06:30.646Z</time></trkpt><trkpt lat="9.979218" lon="-75.2701477"><ele>29.0</ele><time>2026-04-18T17:06:31.642Z</time></trkpt><trkpt lat="9.9792891" lon="-75.2700904"><ele>29.0</ele><time>2026-04-18T17:06:32.641Z</time></trkpt><trkpt lat="9.9793558" lon="-75.2700225"><ele>29.0</ele><time>2026-04-18T17:06:33.644Z</time></trkpt><trkpt lat="9.9794264" lon="-75.2699621"><ele>29.0</ele><time>2026-04-18T17:06:34.645Z</time></trkpt><trkpt lat="9.9794987" lon="-75.2699072"><ele>29.0</ele><time>2026-04-18T17:06:35.645Z</time></trkpt><trkpt lat="9.9795684" lon="-75.2698495"><ele>29.0</ele><time>2026-04-18T17:06:36.642Z</time></trkpt><trkpt lat="9.9796457" lon="-75.269792"><ele>29.0</ele><time>2026-04-18T17:06:37.641Z</time></trkpt><trkpt lat="9.9797162" lon="-75.2697354"><ele>29.0</ele><time>2026-04-18T17:06:38.643Z</time></trkpt><trkpt lat="9.9797856" lon="-75.2696794"><ele>29.0</ele><time>2026-04-18T17:06:39.644Z</time></trkpt><trkpt lat="9.9798593" lon="-75.269626"><ele>29.166666666666664</ele><time>2026-04-18T17:06:40.642Z</time></trkpt><trkpt lat="9.9799293" lon="-75.269571"><ele>29.333333333333332</ele><time>2026-04-18T17:06:41.643Z</time></trkpt><trkpt lat="9.9799982" lon="-75.2695153"><ele>29.5</ele><time>2026-04-18T17:06:42.642Z</time></trkpt><trkpt lat="9.980066" lon="-75.2694586"><ele>29.666666666666664</ele><time>2026-04-18T17:06:43.643Z</time></trkpt><trkpt lat="9.9801347" lon="-75.2694024"><ele>29.833333333333332</ele><time>2026-04-18T17:06:44.644Z</time></trkpt><trkpt lat="9.9802057" lon="-75.2693459"><ele>30.0</ele><time>2026-04-18T17:06:45.647Z</time></trkpt><trkpt lat="9.9802759" lon="-75.2692906"><ele>30.0</ele><time>2026-04-18T17:06:46.646Z</time></trkpt><trkpt lat="9.9803474" lon="-75.269235"><ele>30.0</ele><time>2026-04-18T17:06:47.647Z</time></trkpt><trkpt lat="9.9804167" lon="-75.2691787"><ele>30.0</ele><time>2026-04-18T17:06:48.645Z</time></trkpt><trkpt lat="9.9804886" lon="-75.2691258"><ele>30.0</ele><time>2026-04-18T17:06:49.641Z</time></trkpt><trkpt lat="9.9805618" lon="-75.2690699"><ele>30.0</ele><time>2026-04-18T17:06:50.647Z</time></trkpt><trkpt lat="9.9806345" lon="-75.2690132"><ele>30.0</ele><time>2026-04-18T17:06:51.642Z</time></trkpt><trkpt lat="9.9807069" lon="-75.2689529"><ele>30.0</ele><time>2026-04-18T17:06:52.646Z</time></trkpt><trkpt lat="9.9807768" lon="-75.2688988"><ele>30.0</ele><time>2026-04-18T17:06:53.65Z</time></trkpt><trkpt lat="9.9808461" lon="-75.2688476"><ele>30.0</ele><time>2026-04-18T17:06:54.645Z</time></trkpt><trkpt lat="9.9809242" lon="-75.268792"><ele>30.0</ele><time>2026-04-18T17:06:55.644Z</time></trkpt><trkpt lat="9.9809983" lon="-75.2687395"><ele>30.0</ele><time>2026-04-18T17:06:56.643Z</time></trkpt><trkpt lat="9.9810722" lon="-75.2686882"><ele>30.0</ele><time>2026-04-18T17:06:57.646Z</time></trkpt><trkpt lat="9.9811463" lon="-75.2686388"><ele>30.0</ele><time>2026-04-18T17:06:58.645Z</time></trkpt><trkpt lat="9.98122" lon="-75.2685884"><ele>30.0</ele><time>2026-04-18T17:06:59.649Z</time></trkpt><trkpt lat="9.9812959" lon="-75.2685432"><ele>30.0</ele><time>2026-04-18T17:07:00.642Z</time></trkpt><trkpt lat="9.9813722" lon="-75.268497"><ele>30.0</ele><time>2026-04-18T17:07:01.646Z</time></trkpt><trkpt lat="9.9814504" lon="-75.2684528"><ele>30.0</ele><time>2026-04-18T17:07:02.644Z</time></trkpt><trkpt lat="9.981529" lon="-75.2684094"><ele>30.0</ele><time>2026-04-18T17:07:03.647Z</time></trkpt><trkpt lat="9.9816129" lon="-75.2683645"><ele>30.0</ele><time>2026-04-18T17:07:04.647Z</time></trkpt><trkpt lat="9.9816947" lon="-75.2683204"><ele>30.0</ele><time>2026-04-18T17:07:05.644Z</time></trkpt><trkpt lat="9.9817797" lon="-75.2682789"><ele>30.0</ele><time>2026-04-18T17:07:06.641Z</time></trkpt><trkpt lat="9.9818671" lon="-75.2682409"><ele>29.8</ele><time>2026-04-18T17:07:07.642Z</time></trkpt><trkpt lat="9.9819529" lon="-75.2682056"><ele>29.6</ele><time>2026-04-18T17:07:08.643Z</time></trkpt><trkpt lat="9.9820419" lon="-75.2681693"><ele>29.4</ele><time>2026-04-18T17:07:09.644Z</time></trkpt><trkpt lat="9.9821302" lon="-75.2681375"><ele>29.2</ele><time>2026-04-18T17:07:10.643Z</time></trkpt><trkpt lat="9.9822212" lon="-75.2681058"><ele>29.0</ele><time>2026-04-18T17:07:11.645Z</time></trkpt><trkpt lat="9.9823072" lon="-75.2680759"><ele>28.799999999999997</ele><time>2026-04-18T17:07:12.644Z</time></trkpt><trkpt lat="9.9823972" lon="-75.2680459"><ele>28.599999999999998</ele><time>2026-04-18T17:07:13.644Z</time></trkpt><trkpt lat="9.9824896" lon="-75.2680171"><ele>28.4</ele><time>2026-04-18T17:07:14.645Z</time></trkpt><trkpt lat="9.9825834" lon="-75.2679899"><ele>28.2</ele><time>2026-04-18T17:07:15.646Z</time></trkpt><trkpt lat="9.9826734" lon="-75.2679684"><ele>28.0</ele><time>2026-04-18T17:07:16.646Z</time></trkpt><trkpt lat="9.9827662" lon="-75.2679444"><ele>28.0</ele><time>2026-04-18T17:07:17.645Z</time></trkpt><trkpt lat="9.982861" lon="-75.2679214"><ele>27.999999999999996</ele><time>2026-04-18T17:07:18.645Z</time></trkpt><trkpt lat="9.9829527" lon="-75.2679014"><ele>27.999999999999996</ele><time>2026-04-18T17:07:19.646Z</time></trkpt><trkpt lat="9.9830455" lon="-75.2678801"><ele>28.0</ele><time>2026-04-18T17:07:20.648Z</time></trkpt><trkpt lat="9.9831399" lon="-75.2678595"><ele>28.0</ele><time>2026-04-18T17:07:21.65Z</time></trkpt><trkpt lat="9.9832356" lon="-75.2678408"><ele>28.0</ele><time>2026-04-18T17:07:22.645Z</time></trkpt><trkpt lat="9.9833331" lon="-75.2678219"><ele>27.999999999999996</ele><time>2026-04-18T17:07:23.642Z</time></trkpt><trkpt lat="9.9834345" lon="-75.2677994"><ele>27.999999999999996</ele><time>2026-04-18T17:07:24.645Z</time></trkpt><trkpt lat="9.9835288" lon="-75.2677842"><ele>28.0</ele><time>2026-04-18T17:07:25.65Z</time></trkpt><trkpt lat="9.983622" lon="-75.2677596"><ele>28.0</ele><time>2026-04-18T17:07:26.653Z</time></trkpt><trkpt lat="9.9837181" lon="-75.2677365"><ele>27.799999999999997</ele><time>2026-04-18T17:07:27.646Z</time></trkpt><trkpt lat="9.9838132" lon="-75.2677153"><ele>27.599999999999998</ele><time>2026-04-18T17:07:28.644Z</time></trkpt><trkpt lat="9.9839112" lon="-75.2676969"><ele>27.400000000000002</ele><time>2026-04-18T17:07:29.653Z</time></trkpt><trkpt lat="9.9840079" lon="-75.2676777"><ele>27.200000000000003</ele><time>2026-04-18T17:07:30.649Z</time></trkpt><trkpt lat="9.9841078" lon="-75.2676791"><ele>27.0</ele><time>2026-04-18T17:07:31.644Z</time></trkpt><trkpt lat="9.9842018" lon="-75.2676612"><ele>27.400000000000002</ele><time>2026-04-18T17:07:32.646Z</time></trkpt><trkpt lat="9.984294" lon="-75.2676436"><ele>27.800000000000004</ele><time>2026-04-18T17:07:33.647Z</time></trkpt><trkpt lat="9.9843829" lon="-75.2676263"><ele>28.2</ele><time>2026-04-18T17:07:34.642Z</time></trkpt><trkpt lat="9.9844744" lon="-75.2676058"><ele>28.6</ele><time>2026-04-18T17:07:35.645Z</time></trkpt><trkpt lat="9.9845661" lon="-75.2675854"><ele>29.0</ele><time>2026-04-18T17:07:36.649Z</time></trkpt><trkpt lat="9.9846577" lon="-75.2675671"><ele>28.999999999999996</ele><time>2026-04-18T17:07:37.648Z</time></trkpt><trkpt lat="9.984752" lon="-75.2675601"><ele>29.0</ele><time>2026-04-18T17:07:38.645Z</time></trkpt><trkpt lat="9.9848382" lon="-75.2675428"><ele>29.0</ele><time>2026-04-18T17:07:39.645Z</time></trkpt><trkpt lat="9.9849259" lon="-75.2675252"><ele>29.0</ele><time>2026-04-18T17:07:40.648Z</time></trkpt><trkpt lat="9.9850096" lon="-75.2675069"><ele>28.999999999999996</ele><time>2026-04-18T17:07:41.648Z</time></trkpt><trkpt lat="9.985093" lon="-75.267489"><ele>29.0</ele><time>2026-04-18T17:07:42.645Z</time></trkpt><trkpt lat="9.9851763" lon="-75.26747"><ele>29.166666666666664</ele><time>2026-04-18T17:07:43.644Z</time></trkpt><trkpt lat="9.9852601" lon="-75.2674539"><ele>29.333333333333332</ele><time>2026-04-18T17:07:44.644Z</time></trkpt><trkpt lat="9.985344" lon="-75.2674358"><ele>29.5</ele><time>2026-04-18T17:07:45.644Z</time></trkpt><trkpt lat="9.9854267" lon="-75.2674175"><ele>29.666666666666664</ele><time>2026-04-18T17:07:46.645Z</time></trkpt><trkpt lat="9.9855135" lon="-75.2674014"><ele>29.833333333333332</ele><time>2026-04-18T17:07:47.647Z</time></trkpt><trkpt lat="9.9855984" lon="-75.2673826"><ele>30.0</ele><time>2026-04-18T17:07:48.642Z</time></trkpt><trkpt lat="9.9856824" lon="-75.2673671"><ele>30.0</ele><time>2026-04-18T17:07:49.647Z</time></trkpt><trkpt lat="9.9857662" lon="-75.2673463"><ele>30.0</ele><time>2026-04-18T17:07:50.644Z</time></trkpt><trkpt lat="9.9858498" lon="-75.2673269"><ele>30.0</ele><time>2026-04-18T17:07:51.644Z</time></trkpt><trkpt lat="9.9859354" lon="-75.2673098"><ele>30.0</ele><time>2026-04-18T17:07:52.645Z</time></trkpt><trkpt lat="9.9860197" lon="-75.2672928"><ele>30.0</ele><time>2026-04-18T17:07:53.645Z</time></trkpt><trkpt lat="9.9861051" lon="-75.2672752"><ele>30.0</ele><time>2026-04-18T17:07:54.645Z</time></trkpt><trkpt lat="9.9861887" lon="-75.2672585"><ele>29.4</ele><time>2026-04-18T17:07:55.645Z</time></trkpt><trkpt lat="9.9862744" lon="-75.267232"><ele>28.8</ele><time>2026-04-18T17:07:56.644Z</time></trkpt><trkpt lat="9.9863669" lon="-75.2672103"><ele>28.200000000000003</ele><time>2026-04-18T17:07:57.643Z</time></trkpt><trkpt lat="9.9864529" lon="-75.2671923"><ele>27.6</ele><time>2026-04-18T17:07:58.641Z</time></trkpt><trkpt lat="9.986541" lon="-75.267175"><ele>27.0</ele><time>2026-04-18T17:07:59.642Z</time></trkpt><trkpt lat="9.9866284" lon="-75.2671566"><ele>26.400000000000002</ele><time>2026-04-18T17:08:00.64Z</time></trkpt><trkpt lat="9.9867233" lon="-75.2671384"><ele>25.800000000000004</ele><time>2026-04-18T17:08:01.645Z</time></trkpt><trkpt lat="9.9868208" lon="-75.2671197"><ele>25.2</ele><time>2026-04-18T17:08:02.655Z</time></trkpt><trkpt lat="9.986914" lon="-75.2671013"><ele>24.6</ele><time>2026-04-18T17:08:03.649Z</time></trkpt><trkpt lat="9.9870068" lon="-75.2670841"><ele>24.0</ele><time>2026-04-18T17:08:04.645Z</time></trkpt><trkpt lat="9.9870992" lon="-75.2670608"><ele>24.0</ele><time>2026-04-18T17:08:05.646Z</time></trkpt><trkpt lat="9.9871943" lon="-75.2670359"><ele>24.0</ele><time>2026-04-18T17:08:06.647Z</time></trkpt><trkpt lat="9.987303" lon="-75.2670262"><ele>24.0</ele><time>2026-04-18T17:08:07.651Z</time></trkpt><trkpt lat="9.9874021" lon="-75.2670093"><ele>24.0</ele><time>2026-04-18T17:08:08.643Z</time></trkpt><trkpt lat="9.9875042" lon="-75.2669879"><ele>24.0</ele><time>2026-04-18T17:08:09.644Z</time></trkpt><trkpt lat="9.9876045" lon="-75.2669656"><ele>24.4</ele><time>2026-04-18T17:08:10.653Z</time></trkpt><trkpt lat="9.9877046" lon="-75.2669398"><ele>24.799999999999997</ele><time>2026-04-18T17:08:11.648Z</time></trkpt><trkpt lat="9.9878022" lon="-75.2669207"><ele>25.200000000000003</ele><time>2026-04-18T17:08:12.648Z</time></trkpt><trkpt lat="9.9879024" lon="-75.2668988"><ele>25.6</ele><time>2026-04-18T17:08:13.643Z</time></trkpt><trkpt lat="9.9879912" lon="-75.2668828"><ele>26.0</ele><time>2026-04-18T17:08:14.644Z</time></trkpt><trkpt lat="9.9880896" lon="-75.2668623"><ele>26.0</ele><time>2026-04-18T17:08:15.649Z</time></trkpt><trkpt lat="9.9881878" lon="-75.2668451"><ele>26.0</ele><time>2026-04-18T17:08:16.644Z</time></trkpt><trkpt lat="9.9882807" lon="-75.2668197"><ele>26.0</ele><time>2026-04-18T17:08:17.644Z</time></trkpt><trkpt lat="9.9883771" lon="-75.2668031"><ele>26.0</ele><time>2026-04-18T17:08:18.648Z</time></trkpt><trkpt lat="9.9884784" lon="-75.2667801"><ele>26.0</ele><time>2026-04-18T17:08:19.643Z</time></trkpt><trkpt lat="9.9885738" lon="-75.2667581"><ele>26.0</ele><time>2026-04-18T17:08:20.642Z</time></trkpt><trkpt lat="9.9886685" lon="-75.266736"><ele>26.0</ele><time>2026-04-18T17:08:21.642Z</time></trkpt><trkpt lat="9.988766" lon="-75.2667164"><ele>26.0</ele><time>2026-04-18T17:08:22.647Z</time></trkpt><trkpt lat="9.9888649" lon="-75.2666948"><ele>26.0</ele><time>2026-04-18T17:08:23.646Z</time></trkpt><trkpt lat="9.9889605" lon="-75.2666735"><ele>26.0</ele><time>2026-04-18T17:08:24.647Z</time></trkpt><trkpt lat="9.989055" lon="-75.2666514"><ele>26.0</ele><time>2026-04-18T17:08:25.647Z</time></trkpt><trkpt lat="9.989151" lon="-75.2666316"><ele>26.0</ele><time>2026-04-18T17:08:26.647Z</time></trkpt><trkpt lat="9.9892453" lon="-75.2666103"><ele>26.0</ele><time>2026-04-18T17:08:27.644Z</time></trkpt><trkpt lat="9.9893391" lon="-75.2665911"><ele>26.0</ele><time>2026-04-18T17:08:28.645Z</time></trkpt><trkpt lat="9.9894338" lon="-75.2665736"><ele>26.0</ele><time>2026-04-18T17:08:29.643Z</time></trkpt><trkpt lat="9.9895248" lon="-75.2665441"><ele>25.6</ele><time>2026-04-18T17:08:30.642Z</time></trkpt><trkpt lat="9.9896226" lon="-75.2665263"><ele>25.200000000000003</ele><time>2026-04-18T17:08:31.649Z</time></trkpt><trkpt lat="9.9897094" lon="-75.2665058"><ele>24.799999999999997</ele><time>2026-04-18T17:08:32.643Z</time></trkpt><trkpt lat="9.9898018" lon="-75.2664884"><ele>24.4</ele><time>2026-04-18T17:08:33.645Z</time></trkpt><trkpt lat="9.9898958" lon="-75.2664636"><ele>24.0</ele><time>2026-04-18T17:08:34.652Z</time></trkpt><trkpt lat="9.989989" lon="-75.2664457"><ele>25.2</ele><time>2026-04-18T17:08:35.644Z</time></trkpt><trkpt lat="9.9900813" lon="-75.2664284"><ele>26.4</ele><time>2026-04-18T17:08:36.644Z</time></trkpt><trkpt lat="9.9901738" lon="-75.2664109"><ele>27.6</ele><time>2026-04-18T17:08:37.646Z</time></trkpt><trkpt lat="9.9902675" lon="-75.2663897"><ele>28.8</ele><time>2026-04-18T17:08:38.642Z</time></trkpt><trkpt lat="9.9903588" lon="-75.2663678"><ele>30.0</ele><time>2026-04-18T17:08:39.646Z</time></trkpt><trkpt lat="9.9904491" lon="-75.2663497"><ele>30.0</ele><time>2026-04-18T17:08:40.645Z</time></trkpt><trkpt lat="9.9905401" lon="-75.2663314"><ele>30.0</ele><time>2026-04-18T17:08:41.646Z</time></trkpt><trkpt lat="9.9906296" lon="-75.2663118"><ele>30.0</ele><time>2026-04-18T17:08:42.647Z</time></trkpt><trkpt lat="9.9907212" lon="-75.2662891"><ele>30.0</ele><time>2026-04-18T17:08:43.646Z</time></trkpt><trkpt lat="9.9908139" lon="-75.2662691"><ele>30.0</ele><time>2026-04-18T17:08:44.646Z</time></trkpt><trkpt lat="9.9909073" lon="-75.2662504"><ele>29.0</ele><time>2026-04-18T17:08:45.645Z</time></trkpt><trkpt lat="9.9910038" lon="-75.2662306"><ele>28.0</ele><time>2026-04-18T17:08:46.646Z</time></trkpt><trkpt lat="9.9910987" lon="-75.2662124"><ele>27.0</ele><time>2026-04-18T17:08:47.65Z</time></trkpt><trkpt lat="9.9911931" lon="-75.2661936"><ele>26.0</ele><time>2026-04-18T17:08:48.648Z</time></trkpt><trkpt lat="9.9912861" lon="-75.2661752"><ele>25.0</ele><time>2026-04-18T17:08:49.647Z</time></trkpt><trkpt lat="9.9913778" lon="-75.2661568"><ele>25.0</ele><time>2026-04-18T17:08:50.645Z</time></trkpt><trkpt lat="9.9914679" lon="-75.2661371"><ele>25.0</ele><time>2026-04-18T17:08:51.644Z</time></trkpt><trkpt lat="9.9915608" lon="-75.2661192"><ele>25.0</ele><time>2026-04-18T17:08:52.651Z</time></trkpt><trkpt lat="9.9916514" lon="-75.2661003"><ele>25.0</ele><time>2026-04-18T17:08:53.648Z</time></trkpt><trkpt lat="9.9917422" lon="-75.2660809"><ele>25.0</ele><time>2026-04-18T17:08:54.643Z</time></trkpt><trkpt lat="9.991833" lon="-75.2660616"><ele>24.6</ele><time>2026-04-18T17:08:55.645Z</time></trkpt><trkpt lat="9.9919218" lon="-75.2660435"><ele>24.2</ele><time>2026-04-18T17:08:56.645Z</time></trkpt><trkpt lat="9.9920137" lon="-75.2660294"><ele>23.799999999999997</ele><time>2026-04-18T17:08:57.648Z</time></trkpt><trkpt lat="9.9921203" lon="-75.2660095"><ele>23.4</ele><time>2026-04-18T17:08:58.645Z</time></trkpt><trkpt lat="9.9922139" lon="-75.2659896"><ele>23.0</ele><time>2026-04-18T17:08:59.645Z</time></trkpt><trkpt lat="9.9923045" lon="-75.2659679"><ele>23.0</ele><time>2026-04-18T17:09:00.647Z</time></trkpt><trkpt lat="9.9923967" lon="-75.2659477"><ele>23.0</ele><time>2026-04-18T17:09:01.647Z</time></trkpt><trkpt lat="9.992488" lon="-75.265929"><ele>23.0</ele><time>2026-04-18T17:09:02.643Z</time></trkpt><trkpt lat="9.992579" lon="-75.2659077"><ele>23.0</ele><time>2026-04-18T17:09:03.647Z</time></trkpt><trkpt lat="9.9926688" lon="-75.2658861"><ele>23.0</ele><time>2026-04-18T17:09:04.648Z</time></trkpt><trkpt lat="9.9927622" lon="-75.2658668"><ele>23.4</ele><time>2026-04-18T17:09:05.647Z</time></trkpt><trkpt lat="9.992854" lon="-75.2658466"><ele>23.799999999999997</ele><time>2026-04-18T17:09:06.646Z</time></trkpt><trkpt lat="9.9929471" lon="-75.2658275"><ele>24.2</ele><time>2026-04-18T17:09:07.645Z</time></trkpt><trkpt lat="9.9930373" lon="-75.26581"><ele>24.6</ele><time>2026-04-18T17:09:08.642Z</time></trkpt><trkpt lat="9.9931297" lon="-75.2657909"><ele>25.0</ele><time>2026-04-18T17:09:09.644Z</time></trkpt><trkpt lat="9.9932242" lon="-75.2657681"><ele>25.0</ele><time>2026-04-18T17:09:10.647Z</time></trkpt><trkpt lat="9.9933169" lon="-75.2657501"><ele>25.0</ele><time>2026-04-18T17:09:11.648Z</time></trkpt><trkpt lat="9.9934112" lon="-75.2657283"><ele>25.0</ele><time>2026-04-18T17:09:12.646Z</time></trkpt><trkpt lat="9.9935033" lon="-75.2657086"><ele>25.0</ele><time>2026-04-18T17:09:13.646Z</time></trkpt><trkpt lat="9.9935971" lon="-75.2656927"><ele>25.0</ele><time>2026-04-18T17:09:14.644Z</time></trkpt><trkpt lat="9.9936937" lon="-75.2656687"><ele>25.4</ele><time>2026-04-18T17:09:15.646Z</time></trkpt><trkpt lat="9.993785" lon="-75.2656488"><ele>25.8</ele><time>2026-04-18T17:09:16.652Z</time></trkpt><trkpt lat="9.9938773" lon="-75.2656303"><ele>26.200000000000003</ele><time>2026-04-18T17:09:17.649Z</time></trkpt><trkpt lat="9.9939714" lon="-75.26561"><ele>26.6</ele><time>2026-04-18T17:09:18.647Z</time></trkpt><trkpt lat="9.9940642" lon="-75.2655881"><ele>27.0</ele><time>2026-04-18T17:09:19.645Z</time></trkpt><trkpt lat="9.9941586" lon="-75.265568"><ele>26.400000000000002</ele><time>2026-04-18T17:09:20.649Z</time></trkpt><trkpt lat="9.9942527" lon="-75.2655468"><ele>25.800000000000004</ele><time>2026-04-18T17:09:21.646Z</time></trkpt><trkpt lat="9.9943464" lon="-75.2655233"><ele>25.2</ele><time>2026-04-18T17:09:22.645Z</time></trkpt><trkpt lat="9.9944415" lon="-75.2655024"><ele>24.6</ele><time>2026-04-18T17:09:23.645Z</time></trkpt><trkpt lat="9.9945383" lon="-75.2654835"><ele>24.0</ele><time>2026-04-18T17:09:24.644Z</time></trkpt><trkpt lat="9.9946341" lon="-75.2654648"><ele>24.0</ele><time>2026-04-18T17:09:25.643Z</time></trkpt><trkpt lat="9.9947293" lon="-75.2654437"><ele>24.0</ele><time>2026-04-18T17:09:26.645Z</time></trkpt><trkpt lat="9.9948221" lon="-75.2654245"><ele>24.0</ele><time>2026-04-18T17:09:27.651Z</time></trkpt><trkpt lat="9.9949253" lon="-75.2654072"><ele>24.0</ele><time>2026-04-18T17:09:28.645Z</time></trkpt><trkpt lat="9.9950205" lon="-75.2653838"><ele>24.0</ele><time>2026-04-18T17:09:29.645Z</time></trkpt><trkpt lat="9.9951171" lon="-75.2653644"><ele>23.6</ele><time>2026-04-18T17:09:30.645Z</time></trkpt><trkpt lat="9.995211" lon="-75.2653445"><ele>23.2</ele><time>2026-04-18T17:09:31.645Z</time></trkpt><trkpt lat="9.9953024" lon="-75.2653188"><ele>22.8</ele><time>2026-04-18T17:09:32.646Z</time></trkpt><trkpt lat="9.9953957" lon="-75.2652984"><ele>22.400000000000002</ele><time>2026-04-18T17:09:33.645Z</time></trkpt><trkpt lat="9.9954893" lon="-75.265279"><ele>22.0</ele><time>2026-04-18T17:09:34.646Z</time></trkpt><trkpt lat="9.9955808" lon="-75.2652599"><ele>22.0</ele><time>2026-04-18T17:09:35.644Z</time></trkpt><trkpt lat="9.9956717" lon="-75.2652412"><ele>22.0</ele><time>2026-04-18T17:09:36.647Z</time></trkpt><trkpt lat="9.9957649" lon="-75.2652273"><ele>22.0</ele><time>2026-04-18T17:09:37.643Z</time></trkpt><trkpt lat="9.9958564" lon="-75.2652089"><ele>22.0</ele><time>2026-04-18T17:09:38.641Z</time></trkpt><trkpt lat="9.995944" lon="-75.2651892"><ele>22.0</ele><time>2026-04-18T17:09:39.645Z</time></trkpt><trkpt lat="9.9960324" lon="-75.2651707"><ele>21.666666666666664</ele><time>2026-04-18T17:09:40.644Z</time></trkpt><trkpt lat="9.9961234" lon="-75.265156"><ele>21.333333333333332</ele><time>2026-04-18T17:09:41.645Z</time></trkpt><trkpt lat="9.9962128" lon="-75.2651402"><ele>21.0</ele><time>2026-04-18T17:09:42.647Z</time></trkpt><trkpt lat="9.9962987" lon="-75.2651205"><ele>20.666666666666668</ele><time>2026-04-18T17:09:43.643Z</time></trkpt><trkpt lat="9.99639" lon="-75.2651055"><ele>20.333333333333336</ele><time>2026-04-18T17:09:44.642Z</time></trkpt><trkpt lat="9.9964705" lon="-75.2650846"><ele>20.0</ele><time>2026-04-18T17:09:45.644Z</time></trkpt><trkpt lat="9.9965507" lon="-75.2650669"><ele>20.0</ele><time>2026-04-18T17:09:46.644Z</time></trkpt><trkpt lat="9.9966314" lon="-75.265051"><ele>20.0</ele><time>2026-04-18T17:09:47.643Z</time></trkpt><trkpt lat="9.9967122" lon="-75.2650309"><ele>20.0</ele><time>2026-04-18T17:09:48.645Z</time></trkpt><trkpt lat="9.9967934" lon="-75.2650105"><ele>20.0</ele><time>2026-04-18T17:09:49.649Z</time></trkpt><trkpt lat="9.9968769" lon="-75.2649901"><ele>20.0</ele><time>2026-04-18T17:09:50.645Z</time></trkpt><trkpt lat="9.9969647" lon="-75.2649776"><ele>20.0</ele><time>2026-04-18T17:09:51.644Z</time></trkpt><trkpt lat="9.9970497" lon="-75.2649612"><ele>20.0</ele><time>2026-04-18T17:09:52.643Z</time></trkpt><trkpt lat="9.9971359" lon="-75.2649485"><ele>20.0</ele><time>2026-04-18T17:09:53.646Z</time></trkpt><trkpt lat="9.997226" lon="-75.2649303"><ele>20.0</ele><time>2026-04-18T17:09:54.655Z</time></trkpt><trkpt lat="9.9973162" lon="-75.2649111"><ele>20.0</ele><time>2026-04-18T17:09:55.643Z</time></trkpt><trkpt lat="9.9974093" lon="-75.2648945"><ele>20.0</ele><time>2026-04-18T17:09:56.644Z</time></trkpt><trkpt lat="9.9975026" lon="-75.264874"><ele>20.2</ele><time>2026-04-18T17:09:57.644Z</time></trkpt><trkpt lat="9.9975966" lon="-75.2648536"><ele>20.4</ele><time>2026-04-18T17:09:58.643Z</time></trkpt><trkpt lat="9.9976926" lon="-75.2648366"><ele>20.6</ele><time>2026-04-18T17:09:59.643Z</time></trkpt><trkpt lat="9.9977912" lon="-75.2648176"><ele>20.8</ele><time>2026-04-18T17:10:00.643Z</time></trkpt><trkpt lat="9.9978878" lon="-75.2647984"><ele>21.0</ele><time>2026-04-18T17:10:01.642Z</time></trkpt><trkpt lat="9.9979796" lon="-75.264777"><ele>21.0</ele><time>2026-04-18T17:10:02.645Z</time></trkpt><trkpt lat="9.9980803" lon="-75.2647545"><ele>21.0</ele><time>2026-04-18T17:10:03.644Z</time></trkpt><trkpt lat="9.9981771" lon="-75.264734"><ele>21.0</ele><time>2026-04-18T17:10:04.643Z</time></trkpt><trkpt lat="9.998272" lon="-75.2647134"><ele>21.0</ele><time>2026-04-18T17:10:05.644Z</time></trkpt><trkpt lat="9.9983651" lon="-75.2646966"><ele>21.0</ele><time>2026-04-18T17:10:06.642Z</time></trkpt><trkpt lat="9.9984581" lon="-75.2646765"><ele>21.0</ele><time>2026-04-18T17:10:07.645Z</time></trkpt><trkpt lat="9.998551" lon="-75.2646608"><ele>21.0</ele><time>2026-04-18T17:10:08.639Z</time></trkpt><trkpt lat="9.998638" lon="-75.2646432"><ele>21.0</ele><time>2026-04-18T17:10:09.641Z</time></trkpt><trkpt lat="9.9987232" lon="-75.264622"><ele>21.0</ele><time>2026-04-18T17:10:10.647Z</time></trkpt><trkpt lat="9.9988176" lon="-75.264603"><ele>21.0</ele><time>2026-04-18T17:10:11.643Z</time></trkpt><trkpt lat="9.9989023" lon="-75.2645832"><ele>21.0</ele><time>2026-04-18T17:10:12.644Z</time></trkpt><trkpt lat="9.998987" lon="-75.2645657"><ele>21.0</ele><time>2026-04-18T17:10:13.644Z</time></trkpt><trkpt lat="9.9990722" lon="-75.2645429"><ele>21.0</ele><time>2026-04-18T17:10:14.643Z</time></trkpt><trkpt lat="9.9991615" lon="-75.264523"><ele>21.0</ele><time>2026-04-18T17:10:15.642Z</time></trkpt><trkpt lat="9.9992492" lon="-75.2645053"><ele>21.0</ele><time>2026-04-18T17:10:16.642Z</time></trkpt><trkpt lat="9.9993371" lon="-75.2644858"><ele>21.0</ele><time>2026-04-18T17:10:17.642Z</time></trkpt><trkpt lat="9.9994231" lon="-75.2644671"><ele>20.833333333333332</ele><time>2026-04-18T17:10:18.641Z</time></trkpt><trkpt lat="9.9995101" lon="-75.2644517"><ele>20.666666666666668</ele><time>2026-04-18T17:10:19.645Z</time></trkpt><trkpt lat="9.9995989" lon="-75.2644342"><ele>20.5</ele><time>2026-04-18T17:10:20.644Z</time></trkpt><trkpt lat="9.9996862" lon="-75.2644188"><ele>20.333333333333336</ele><time>2026-04-18T17:10:21.649Z</time></trkpt><trkpt lat="9.999772" lon="-75.2643988"><ele>20.166666666666668</ele><time>2026-04-18T17:10:22.644Z</time></trkpt><trkpt lat="9.9998562" lon="-75.2643811"><ele>20.0</ele><time>2026-04-18T17:10:23.645Z</time></trkpt><trkpt lat="9.9999445" lon="-75.2643755"><ele>20.0</ele><time>2026-04-18T17:10:24.643Z</time></trkpt><trkpt lat="10.0000281" lon="-75.2643479"><ele>20.0</ele><time>2026-04-18T17:10:25.646Z</time></trkpt><trkpt lat="10.0001117" lon="-75.2643333"><ele>20.0</ele><time>2026-04-18T17:10:26.644Z</time></trkpt><trkpt lat="10.0001965" lon="-75.2643169"><ele>20.0</ele><time>2026-04-18T17:10:27.65Z</time></trkpt><trkpt lat="10.00028" lon="-75.2642969"><ele>20.0</ele><time>2026-04-18T17:10:28.646Z</time></trkpt><trkpt lat="10.0003674" lon="-75.2642803"><ele>20.0</ele><time>2026-04-18T17:10:29.645Z</time></trkpt><trkpt lat="10.0004513" lon="-75.264262"><ele>20.0</ele><time>2026-04-18T17:10:30.643Z</time></trkpt><trkpt lat="10.0005333" lon="-75.2642462"><ele>20.0</ele><time>2026-04-18T17:10:31.643Z</time></trkpt><trkpt lat="10.0006149" lon="-75.2642288"><ele>20.0</ele><time>2026-04-18T17:10:32.649Z</time></trkpt><trkpt lat="10.0006976" lon="-75.264213"><ele>20.0</ele><time>2026-04-18T17:10:33.642Z</time></trkpt><trkpt lat="10.0007787" lon="-75.2641968"><ele>20.0</ele><time>2026-04-18T17:10:34.64Z</time></trkpt><trkpt lat="10.0008639" lon="-75.2641776"><ele>20.0</ele><time>2026-04-18T17:10:35.644Z</time></trkpt><trkpt lat="10.000948" lon="-75.2641562"><ele>20.333333333333336</ele><time>2026-04-18T17:10:36.647Z</time></trkpt><trkpt lat="10.00103" lon="-75.2641363"><ele>20.666666666666668</ele><time>2026-04-18T17:10:37.645Z</time></trkpt><trkpt lat="10.0011174" lon="-75.2641187"><ele>21.0</ele><time>2026-04-18T17:10:38.653Z</time></trkpt><trkpt lat="10.0012038" lon="-75.2641002"><ele>21.333333333333332</ele><time>2026-04-18T17:10:39.644Z</time></trkpt><trkpt lat="10.0012925" lon="-75.2640776"><ele>21.666666666666664</ele><time>2026-04-18T17:10:40.642Z</time></trkpt><trkpt lat="10.0013792" lon="-75.2640665"><ele>22.0</ele><time>2026-04-18T17:10:41.641Z</time></trkpt><trkpt lat="10.0014647" lon="-75.2640501"><ele>22.0</ele><time>2026-04-18T17:10:42.644Z</time></trkpt><trkpt lat="10.0015503" lon="-75.2640358"><ele>22.0</ele><time>2026-04-18T17:10:43.641Z</time></trkpt><trkpt lat="10.0016305" lon="-75.2640208"><ele>22.0</ele><time>2026-04-18T17:10:44.639Z</time></trkpt><trkpt lat="10.0017133" lon="-75.264006"><ele>22.0</ele><time>2026-04-18T17:10:45.641Z</time></trkpt><trkpt lat="10.0017951" lon="-75.2639911"><ele>22.0</ele><time>2026-04-18T17:10:46.644Z</time></trkpt><trkpt lat="10.0018799" lon="-75.2639766"><ele>22.0</ele><time>2026-04-18T17:10:47.642Z</time></trkpt><trkpt lat="10.001965" lon="-75.263959"><ele>22.166666666666664</ele><time>2026-04-18T17:10:48.644Z</time></trkpt><trkpt lat="10.0020483" lon="-75.2639386"><ele>22.333333333333332</ele><time>2026-04-18T17:10:49.643Z</time></trkpt><trkpt lat="10.002131" lon="-75.263924"><ele>22.5</ele><time>2026-04-18T17:10:50.641Z</time></trkpt><trkpt lat="10.002215" lon="-75.2639079"><ele>22.666666666666668</ele><time>2026-04-18T17:10:51.643Z</time></trkpt><trkpt lat="10.0023005" lon="-75.2638915"><ele>22.833333333333336</ele><time>2026-04-18T17:10:52.641Z</time></trkpt><trkpt lat="10.0023852" lon="-75.263873"><ele>23.0</ele><time>2026-04-18T17:10:53.644Z</time></trkpt><trkpt lat="10.0024668" lon="-75.2638547"><ele>23.0</ele><time>2026-04-18T17:10:54.651Z</time></trkpt><trkpt lat="10.0025479" lon="-75.2638376"><ele>23.0</ele><time>2026-04-18T17:10:55.643Z</time></trkpt><trkpt lat="10.0026315" lon="-75.2638245"><ele>23.0</ele><time>2026-04-18T17:10:56.643Z</time></trkpt><trkpt lat="10.0027145" lon="-75.2638093"><ele>23.0</ele><time>2026-04-18T17:10:57.643Z</time></trkpt><trkpt lat="10.0027979" lon="-75.2637915"><ele>23.0</ele><time>2026-04-18T17:10:58.642Z</time></trkpt><trkpt lat="10.002879" lon="-75.2637736"><ele>23.0</ele><time>2026-04-18T17:10:59.642Z</time></trkpt><trkpt lat="10.0029621" lon="-75.2637579"><ele>23.0</ele><time>2026-04-18T17:11:00.643Z</time></trkpt><trkpt lat="10.0030443" lon="-75.2637418"><ele>23.0</ele><time>2026-04-18T17:11:01.643Z</time></trkpt><trkpt lat="10.0031241" lon="-75.2637228"><ele>23.0</ele><time>2026-04-18T17:11:02.645Z</time></trkpt><trkpt lat="10.0032036" lon="-75.2637081"><ele>23.0</ele><time>2026-04-18T17:11:03.644Z</time></trkpt><trkpt lat="10.003284" lon="-75.2636931"><ele>23.0</ele><time>2026-04-18T17:11:04.643Z</time></trkpt><trkpt lat="10.0033637" lon="-75.2636776"><ele>23.0</ele><time>2026-04-18T17:11:05.645Z</time></trkpt><trkpt lat="10.0034447" lon="-75.2636619"><ele>22.833333333333336</ele><time>2026-04-18T17:11:06.643Z</time></trkpt><trkpt lat="10.0035246" lon="-75.2636419"><ele>22.666666666666668</ele><time>2026-04-18T17:11:07.642Z</time></trkpt><trkpt lat="10.0036051" lon="-75.2636281"><ele>22.5</ele><time>2026-04-18T17:11:08.643Z</time></trkpt><trkpt lat="10.0036875" lon="-75.263612"><ele>22.333333333333332</ele><time>2026-04-18T17:11:09.642Z</time></trkpt><trkpt lat="10.003771" lon="-75.263598"><ele>22.166666666666664</ele><time>2026-04-18T17:11:10.642Z</time></trkpt><trkpt lat="10.0038543" lon="-75.2635792"><ele>22.0</ele><time>2026-04-18T17:11:11.641Z</time></trkpt><trkpt lat="10.0039334" lon="-75.2635542"><ele>22.0</ele><time>2026-04-18T17:11:12.642Z</time></trkpt><trkpt lat="10.0040149" lon="-75.2635386"><ele>22.0</ele><time>2026-04-18T17:11:13.641Z</time></trkpt><trkpt lat="10.0040984" lon="-75.2635189"><ele>22.0</ele><time>2026-04-18T17:11:14.644Z</time></trkpt><trkpt lat="10.0041815" lon="-75.2635033"><ele>22.0</ele><time>2026-04-18T17:11:15.643Z</time></trkpt><trkpt lat="10.0042651" lon="-75.2634848"><ele>22.0</ele><time>2026-04-18T17:11:16.646Z</time></trkpt><trkpt lat="10.0043505" lon="-75.2634678"><ele>22.0</ele><time>2026-04-18T17:11:17.645Z</time></trkpt><trkpt lat="10.004432" lon="-75.2634504"><ele>22.333333333333332</ele><time>2026-04-18T17:11:18.652Z</time></trkpt><trkpt lat="10.0045101" lon="-75.2634358"><ele>22.666666666666664</ele><time>2026-04-18T17:11:19.643Z</time></trkpt><trkpt lat="10.0045894" lon="-75.2634182"><ele>23.0</ele><time>2026-04-18T17:11:20.646Z</time></trkpt><trkpt lat="10.0046669" lon="-75.2634005"><ele>23.333333333333332</ele><time>2026-04-18T17:11:21.645Z</time></trkpt><trkpt lat="10.0047472" lon="-75.2633871"><ele>23.666666666666668</ele><time>2026-04-18T17:11:22.645Z</time></trkpt><trkpt lat="10.0048289" lon="-75.2633674"><ele>24.0</ele><time>2026-04-18T17:11:23.65Z</time></trkpt><trkpt lat="10.0049075" lon="-75.2633492"><ele>24.0</ele><time>2026-04-18T17:11:24.646Z</time></trkpt><trkpt lat="10.0049888" lon="-75.2633374"><ele>24.0</ele><time>2026-04-18T17:11:25.642Z</time></trkpt><trkpt lat="10.0050737" lon="-75.2633311"><ele>24.0</ele><time>2026-04-18T17:11:26.649Z</time></trkpt><trkpt lat="10.0051582" lon="-75.2633207"><ele>24.0</ele><time>2026-04-18T17:11:27.644Z</time></trkpt><trkpt lat="10.0052401" lon="-75.2633036"><ele>24.0</ele><time>2026-04-18T17:11:28.649Z</time></trkpt><trkpt lat="10.0053215" lon="-75.263288"><ele>24.0</ele><time>2026-04-18T17:11:29.644Z</time></trkpt><trkpt lat="10.0053984" lon="-75.2632714"><ele>24.0</ele><time>2026-04-18T17:11:30.646Z</time></trkpt><trkpt lat="10.0054771" lon="-75.263255"><ele>24.0</ele><time>2026-04-18T17:11:31.652Z</time></trkpt><trkpt lat="10.0055546" lon="-75.2632369"><ele>24.0</ele><time>2026-04-18T17:11:32.649Z</time></trkpt><trkpt lat="10.0056319" lon="-75.2632216"><ele>24.0</ele><time>2026-04-18T17:11:33.648Z</time></trkpt><trkpt lat="10.0057114" lon="-75.263204"><ele>24.0</ele><time>2026-04-18T17:11:34.648Z</time></trkpt><trkpt lat="10.005789" lon="-75.2631844"><ele>24.0</ele><time>2026-04-18T17:11:35.648Z</time></trkpt><trkpt lat="10.005868" lon="-75.2631671"><ele>24.0</ele><time>2026-04-18T17:11:36.646Z</time></trkpt><trkpt lat="10.0059469" lon="-75.2631505"><ele>24.0</ele><time>2026-04-18T17:11:37.644Z</time></trkpt><trkpt lat="10.0060252" lon="-75.2631321"><ele>24.0</ele><time>2026-04-18T17:11:38.644Z</time></trkpt><trkpt lat="10.0061018" lon="-75.263113"><ele>24.0</ele><time>2026-04-18T17:11:39.642Z</time></trkpt><trkpt lat="10.0061838" lon="-75.263098"><ele>24.0</ele><time>2026-04-18T17:11:40.644Z</time></trkpt><trkpt lat="10.0062626" lon="-75.2630799"><ele>24.0</ele><time>2026-04-18T17:11:41.644Z</time></trkpt><trkpt lat="10.0063424" lon="-75.2630621"><ele>24.0</ele><time>2026-04-18T17:11:42.643Z</time></trkpt><trkpt lat="10.0064235" lon="-75.2630443"><ele>24.0</ele><time>2026-04-18T17:11:43.646Z</time></trkpt><trkpt lat="10.0065032" lon="-75.2630246"><ele>24.0</ele><time>2026-04-18T17:11:44.644Z</time></trkpt><trkpt lat="10.0065843" lon="-75.2630088"><ele>24.0</ele><time>2026-04-18T17:11:45.65Z</time></trkpt><trkpt lat="10.0066678" lon="-75.2629913"><ele>24.0</ele><time>2026-04-18T17:11:46.646Z</time></trkpt><trkpt lat="10.0067569" lon="-75.2629758"><ele>24.0</ele><time>2026-04-18T17:11:47.644Z</time></trkpt><trkpt lat="10.0068412" lon="-75.2629561"><ele>24.166666666666668</ele><time>2026-04-18T17:11:48.646Z</time></trkpt><trkpt lat="10.0069219" lon="-75.2629348"><ele>24.333333333333336</ele><time>2026-04-18T17:11:49.648Z</time></trkpt><trkpt lat="10.0070064" lon="-75.2629104"><ele>24.5</ele><time>2026-04-18T17:11:50.645Z</time></trkpt><trkpt lat="10.0070918" lon="-75.2628928"><ele>24.666666666666668</ele><time>2026-04-18T17:11:51.648Z</time></trkpt><trkpt lat="10.0071774" lon="-75.2628791"><ele>24.833333333333336</ele><time>2026-04-18T17:11:52.651Z</time></trkpt><trkpt lat="10.0072619" lon="-75.2628641"><ele>25.0</ele><time>2026-04-18T17:11:53.643Z</time></trkpt><trkpt lat="10.0073457" lon="-75.2628454"><ele>25.000000000000004</ele><time>2026-04-18T17:11:54.645Z</time></trkpt><trkpt lat="10.0074268" lon="-75.2628268"><ele>25.0</ele><time>2026-04-18T17:11:55.644Z</time></trkpt><trkpt lat="10.0075116" lon="-75.2628082"><ele>25.0</ele><time>2026-04-18T17:11:56.644Z</time></trkpt><trkpt lat="10.0075938" lon="-75.2627887"><ele>25.0</ele><time>2026-04-18T17:11:57.648Z</time></trkpt><trkpt lat="10.0076793" lon="-75.2627759"><ele>25.000000000000004</ele><time>2026-04-18T17:11:58.648Z</time></trkpt><trkpt lat="10.0077591" lon="-75.2627604"><ele>25.0</ele><time>2026-04-18T17:11:59.644Z</time></trkpt><trkpt lat="10.0078439" lon="-75.262745"><ele>24.666666666666668</ele><time>2026-04-18T17:12:00.643Z</time></trkpt><trkpt lat="10.0079243" lon="-75.2627262"><ele>24.333333333333336</ele><time>2026-04-18T17:12:01.644Z</time></trkpt><trkpt lat="10.0080109" lon="-75.2627035"><ele>24.0</ele><time>2026-04-18T17:12:02.643Z</time></trkpt><trkpt lat="10.0080939" lon="-75.2626796"><ele>23.666666666666668</ele><time>2026-04-18T17:12:03.642Z</time></trkpt><trkpt lat="10.0081775" lon="-75.2626636"><ele>23.333333333333336</ele><time>2026-04-18T17:12:04.642Z</time></trkpt><trkpt lat="10.0082608" lon="-75.2626454"><ele>23.0</ele><time>2026-04-18T17:12:05.641Z</time></trkpt><trkpt lat="10.008346" lon="-75.2626265"><ele>22.599999999999998</ele><time>2026-04-18T17:12:06.642Z</time></trkpt><trkpt lat="10.0084321" lon="-75.2626066"><ele>22.2</ele><time>2026-04-18T17:12:07.643Z</time></trkpt><trkpt lat="10.0085184" lon="-75.2625873"><ele>21.8</ele><time>2026-04-18T17:12:08.641Z</time></trkpt><trkpt lat="10.0086269" lon="-75.2625611"><ele>21.4</ele><time>2026-04-18T17:12:09.64Z</time></trkpt><trkpt lat="10.0087204" lon="-75.2625446"><ele>21.0</ele><time>2026-04-18T17:12:10.641Z</time></trkpt><trkpt lat="10.0088121" lon="-75.2625242"><ele>21.0</ele><time>2026-04-18T17:12:11.64Z</time></trkpt><trkpt lat="10.0089037" lon="-75.2625035"><ele>21.0</ele><time>2026-04-18T17:12:12.641Z</time></trkpt><trkpt lat="10.0089948" lon="-75.2624859"><ele>21.0</ele><time>2026-04-18T17:12:13.643Z</time></trkpt><trkpt lat="10.0090853" lon="-75.2624681"><ele>21.0</ele><time>2026-04-18T17:12:14.641Z</time></trkpt><trkpt lat="10.0091744" lon="-75.2624511"><ele>21.0</ele><time>2026-04-18T17:12:15.641Z</time></trkpt><trkpt lat="10.0092624" lon="-75.2624357"><ele>21.666666666666668</ele><time>2026-04-18T17:12:16.641Z</time></trkpt><trkpt lat="10.0093476" lon="-75.2624234"><ele>22.333333333333336</ele><time>2026-04-18T17:12:17.644Z</time></trkpt><trkpt lat="10.0094363" lon="-75.2624082"><ele>23.0</ele><time>2026-04-18T17:12:18.643Z</time></trkpt><trkpt lat="10.0095196" lon="-75.2623891"><ele>23.666666666666668</ele><time>2026-04-18T17:12:19.643Z</time></trkpt><trkpt lat="10.0096007" lon="-75.2623675"><ele>24.333333333333336</ele><time>2026-04-18T17:12:20.645Z</time></trkpt><trkpt lat="10.0096857" lon="-75.2623521"><ele>25.0</ele><time>2026-04-18T17:12:21.647Z</time></trkpt><trkpt lat="10.0097695" lon="-75.2623385"><ele>25.000000000000004</ele><time>2026-04-18T17:12:22.651Z</time></trkpt><trkpt lat="10.0098565" lon="-75.2623229"><ele>25.0</ele><time>2026-04-18T17:12:23.641Z</time></trkpt><trkpt lat="10.0099396" lon="-75.2623066"><ele>25.0</ele><time>2026-04-18T17:12:24.641Z</time></trkpt><trkpt lat="10.010023" lon="-75.2622898"><ele>25.0</ele><time>2026-04-18T17:12:25.648Z</time></trkpt><trkpt lat="10.0101056" lon="-75.2622715"><ele>25.000000000000004</ele><time>2026-04-18T17:12:26.647Z</time></trkpt><trkpt lat="10.0101838" lon="-75.2622546"><ele>25.0</ele><time>2026-04-18T17:12:27.648Z</time></trkpt><trkpt lat="10.0102626" lon="-75.2622366"><ele>24.666666666666668</ele><time>2026-04-18T17:12:28.65Z</time></trkpt><trkpt lat="10.0103417" lon="-75.2622163"><ele>24.333333333333336</ele><time>2026-04-18T17:12:29.654Z</time></trkpt><trkpt lat="10.0104227" lon="-75.2622013"><ele>24.0</ele><time>2026-04-18T17:12:30.653Z</time></trkpt><trkpt lat="10.0105023" lon="-75.2621847"><ele>23.666666666666668</ele><time>2026-04-18T17:12:31.645Z</time></trkpt><trkpt lat="10.0105842" lon="-75.2621645"><ele>23.333333333333336</ele><time>2026-04-18T17:12:32.64Z</time></trkpt><trkpt lat="10.0106625" lon="-75.2621451"><ele>23.0</ele><time>2026-04-18T17:12:33.644Z</time></trkpt><trkpt lat="10.0107401" lon="-75.2621265"><ele>23.0</ele><time>2026-04-18T17:12:34.644Z</time></trkpt><trkpt lat="10.0108156" lon="-75.2621091"><ele>23.0</ele><time>2026-04-18T17:12:35.644Z</time></trkpt><trkpt lat="10.0108922" lon="-75.262091"><ele>23.0</ele><time>2026-04-18T17:12:36.643Z</time></trkpt><trkpt lat="10.0109691" lon="-75.2620719"><ele>23.0</ele><time>2026-04-18T17:12:37.642Z</time></trkpt><trkpt lat="10.0110463" lon="-75.2620559"><ele>23.0</ele><time>2026-04-18T17:12:38.646Z</time></trkpt><trkpt lat="10.0111233" lon="-75.2620406"><ele>23.0</ele><time>2026-04-18T17:12:39.639Z</time></trkpt><trkpt lat="10.011208" lon="-75.2620206"><ele>23.142857142857142</ele><time>2026-04-18T17:12:40.641Z</time></trkpt><trkpt lat="10.0112794" lon="-75.2620061"><ele>23.285714285714285</ele><time>2026-04-18T17:12:41.641Z</time></trkpt><trkpt lat="10.0113504" lon="-75.2619919"><ele>23.428571428571427</ele><time>2026-04-18T17:12:42.642Z</time></trkpt><trkpt lat="10.0114221" lon="-75.2619765"><ele>23.57142857142857</ele><time>2026-04-18T17:12:43.642Z</time></trkpt><trkpt lat="10.0114934" lon="-75.2619622"><ele>23.714285714285715</ele><time>2026-04-18T17:12:44.647Z</time></trkpt><trkpt lat="10.0115648" lon="-75.2619475"><ele>23.857142857142854</ele><time>2026-04-18T17:12:45.641Z</time></trkpt><trkpt lat="10.0116395" lon="-75.2619278"><ele>24.0</ele><time>2026-04-18T17:12:46.641Z</time></trkpt><trkpt lat="10.0117122" lon="-75.26191"><ele>23.71428571428571</ele><time>2026-04-18T17:12:47.642Z</time></trkpt><trkpt lat="10.0117848" lon="-75.2618946"><ele>23.428571428571427</ele><time>2026-04-18T17:12:48.641Z</time></trkpt><trkpt lat="10.0118554" lon="-75.2618794"><ele>23.142857142857142</ele><time>2026-04-18T17:12:49.644Z</time></trkpt><trkpt lat="10.01193" lon="-75.2618645"><ele>22.857142857142854</ele><time>2026-04-18T17:12:50.642Z</time></trkpt><trkpt lat="10.0120106" lon="-75.2618524"><ele>22.57142857142857</ele><time>2026-04-18T17:12:51.64Z</time></trkpt><trkpt lat="10.0120816" lon="-75.2618378"><ele>22.285714285714285</ele><time>2026-04-18T17:12:52.642Z</time></trkpt><trkpt lat="10.0121522" lon="-75.261823"><ele>22.0</ele><time>2026-04-18T17:12:53.64Z</time></trkpt><trkpt lat="10.0122252" lon="-75.2618042"><ele>22.0</ele><time>2026-04-18T17:12:54.641Z</time></trkpt><trkpt lat="10.0122992" lon="-75.2617874"><ele>22.0</ele><time>2026-04-18T17:12:55.64Z</time></trkpt><trkpt lat="10.0123784" lon="-75.2617716"><ele>22.0</ele><time>2026-04-18T17:12:56.643Z</time></trkpt><trkpt lat="10.0124602" lon="-75.2617538"><ele>22.0</ele><time>2026-04-18T17:12:57.641Z</time></trkpt><trkpt lat="10.0125424" lon="-75.261732"><ele>22.0</ele><time>2026-04-18T17:12:58.643Z</time></trkpt><trkpt lat="10.0126261" lon="-75.2617057"><ele>22.0</ele><time>2026-04-18T17:12:59.642Z</time></trkpt><trkpt lat="10.0127131" lon="-75.2616849"><ele>21.400000000000002</ele><time>2026-04-18T17:13:00.641Z</time></trkpt><trkpt lat="10.0128076" lon="-75.2616651"><ele>20.8</ele><time>2026-04-18T17:13:01.639Z</time></trkpt><trkpt lat="10.0128978" lon="-75.2616417"><ele>20.2</ele><time>2026-04-18T17:13:02.641Z</time></trkpt><trkpt lat="10.0129904" lon="-75.2616218"><ele>19.6</ele><time>2026-04-18T17:13:03.644Z</time></trkpt><trkpt lat="10.0130753" lon="-75.2616037"><ele>19.0</ele><time>2026-04-18T17:13:04.641Z</time></trkpt><trkpt lat="10.0131627" lon="-75.2615881"><ele>19.0</ele><time>2026-04-18T17:13:05.641Z</time></trkpt><trkpt lat="10.0132499" lon="-75.261569"><ele>19.0</ele><time>2026-04-18T17:13:06.639Z</time></trkpt><trkpt lat="10.0133327" lon="-75.2615545"><ele>19.0</ele><time>2026-04-18T17:13:07.641Z</time></trkpt><trkpt lat="10.0134115" lon="-75.2615356"><ele>19.0</ele><time>2026-04-18T17:13:08.642Z</time></trkpt><trkpt lat="10.0134902" lon="-75.261518"><ele>19.0</ele><time>2026-04-18T17:13:09.639Z</time></trkpt><trkpt lat="10.0135683" lon="-75.2615012"><ele>19.0</ele><time>2026-04-18T17:13:10.642Z</time></trkpt><trkpt lat="10.0136437" lon="-75.2614844"><ele>19.0</ele><time>2026-04-18T17:13:11.643Z</time></trkpt><trkpt lat="10.0137161" lon="-75.2614683"><ele>19.0</ele><time>2026-04-18T17:13:12.643Z</time></trkpt><trkpt lat="10.0137894" lon="-75.2614534"><ele>19.0</ele><time>2026-04-18T17:13:13.642Z</time></trkpt><trkpt lat="10.0138631" lon="-75.2614395"><ele>19.0</ele><time>2026-04-18T17:13:14.645Z</time></trkpt><trkpt lat="10.0139377" lon="-75.2614228"><ele>19.0</ele><time>2026-04-18T17:13:15.643Z</time></trkpt><trkpt lat="10.0140108" lon="-75.2614132"><ele>19.0</ele><time>2026-04-18T17:13:16.643Z</time></trkpt><trkpt lat="10.0140833" lon="-75.2613994"><ele>19.0</ele><time>2026-04-18T17:13:17.645Z</time></trkpt><trkpt lat="10.0141548" lon="-75.2613818"><ele>19.0</ele><time>2026-04-18T17:13:18.641Z</time></trkpt><trkpt lat="10.0142279" lon="-75.261365"><ele>19.0</ele><time>2026-04-18T17:13:19.64Z</time></trkpt><trkpt lat="10.0143006" lon="-75.2613477"><ele>19.0</ele><time>2026-04-18T17:13:20.641Z</time></trkpt><trkpt lat="10.0143757" lon="-75.2613325"><ele>19.0</ele><time>2026-04-18T17:13:21.642Z</time></trkpt><trkpt lat="10.0144514" lon="-75.2613159"><ele>19.0</ele><time>2026-04-18T17:13:22.641Z</time></trkpt><trkpt lat="10.0145241" lon="-75.2613036"><ele>19.0</ele><time>2026-04-18T17:13:23.642Z</time></trkpt><trkpt lat="10.0146013" lon="-75.2612937"><ele>19.0</ele><time>2026-04-18T17:13:24.64Z</time></trkpt><trkpt lat="10.0146811" lon="-75.2612764"><ele>19.0</ele><time>2026-04-18T17:13:25.644Z</time></trkpt><trkpt lat="10.0147571" lon="-75.2612673"><ele>19.0</ele><time>2026-04-18T17:13:26.643Z</time></trkpt><trkpt lat="10.0148363" lon="-75.2612497"><ele>19.0</ele><time>2026-04-18T17:13:27.642Z</time></trkpt><trkpt lat="10.0149156" lon="-75.2612352"><ele>19.0</ele><time>2026-04-18T17:13:28.641Z</time></trkpt><trkpt lat="10.0149971" lon="-75.2612189"><ele>19.0</ele><time>2026-04-18T17:13:29.641Z</time></trkpt><trkpt lat="10.0150754" lon="-75.2612071"><ele>18.833333333333332</ele><time>2026-04-18T17:13:30.641Z</time></trkpt><trkpt lat="10.0151543" lon="-75.2611868"><ele>18.666666666666664</ele><time>2026-04-18T17:13:31.642Z</time></trkpt><trkpt lat="10.0152324" lon="-75.2611699"><ele>18.5</ele><time>2026-04-18T17:13:32.641Z</time></trkpt><trkpt lat="10.0153129" lon="-75.261159"><ele>18.333333333333332</ele><time>2026-04-18T17:13:33.641Z</time></trkpt><trkpt lat="10.0153924" lon="-75.2611403"><ele>18.166666666666668</ele><time>2026-04-18T17:13:34.641Z</time></trkpt><trkpt lat="10.0154768" lon="-75.2611227"><ele>18.0</ele><time>2026-04-18T17:13:35.642Z</time></trkpt><trkpt lat="10.0155621" lon="-75.2611015"><ele>18.0</ele><time>2026-04-18T17:13:36.642Z</time></trkpt><trkpt lat="10.0156483" lon="-75.2610902"><ele>18.0</ele><time>2026-04-18T17:13:37.641Z</time></trkpt><trkpt lat="10.0157351" lon="-75.2610734"><ele>18.0</ele><time>2026-04-18T17:13:38.645Z</time></trkpt><trkpt lat="10.0158215" lon="-75.2610566"><ele>18.0</ele><time>2026-04-18T17:13:39.645Z</time></trkpt><trkpt lat="10.0159068" lon="-75.2610386"><ele>18.0</ele><time>2026-04-18T17:13:40.646Z</time></trkpt><trkpt lat="10.0159943" lon="-75.2610202"><ele>18.0</ele><time>2026-04-18T17:13:41.642Z</time></trkpt><trkpt lat="10.0160793" lon="-75.2610047"><ele>18.0</ele><time>2026-04-18T17:13:42.642Z</time></trkpt><trkpt lat="10.0161699" lon="-75.2609871"><ele>18.0</ele><time>2026-04-18T17:13:43.645Z</time></trkpt><trkpt lat="10.0162596" lon="-75.2609682"><ele>18.0</ele><time>2026-04-18T17:13:44.642Z</time></trkpt><trkpt lat="10.0163484" lon="-75.2609498"><ele>18.0</ele><time>2026-04-18T17:13:45.643Z</time></trkpt><trkpt lat="10.0164419" lon="-75.2609326"><ele>18.0</ele><time>2026-04-18T17:13:46.64Z</time></trkpt><trkpt lat="10.0165344" lon="-75.2609124"><ele>18.0</ele><time>2026-04-18T17:13:47.642Z</time></trkpt><trkpt lat="10.0166269" lon="-75.2608901"><ele>18.0</ele><time>2026-04-18T17:13:48.643Z</time></trkpt><trkpt lat="10.0167185" lon="-75.2608709"><ele>18.0</ele><time>2026-04-18T17:13:49.643Z</time></trkpt><trkpt lat="10.0168074" lon="-75.2608561"><ele>18.0</ele><time>2026-04-18T17:13:50.641Z</time></trkpt><trkpt lat="10.0168982" lon="-75.2608377"><ele>18.0</ele><time>2026-04-18T17:13:51.643Z</time></trkpt><trkpt lat="10.0169856" lon="-75.2608188"><ele>18.4</ele><time>2026-04-18T17:13:52.643Z</time></trkpt><trkpt lat="10.0170744" lon="-75.2608009"><ele>18.8</ele><time>2026-04-18T17:13:53.64Z</time></trkpt><trkpt lat="10.0171595" lon="-75.2607826"><ele>19.2</ele><time>2026-04-18T17:13:54.64Z</time></trkpt><trkpt lat="10.0172505" lon="-75.2607647"><ele>19.6</ele><time>2026-04-18T17:13:55.644Z</time></trkpt><trkpt lat="10.0173379" lon="-75.2607461"><ele>20.0</ele><time>2026-04-18T17:13:56.641Z</time></trkpt><trkpt lat="10.0174305" lon="-75.2607254"><ele>20.0</ele><time>2026-04-18T17:13:57.64Z</time></trkpt><trkpt lat="10.0175201" lon="-75.2607055"><ele>20.0</ele><time>2026-04-18T17:13:58.641Z</time></trkpt><trkpt lat="10.0176103" lon="-75.2606883"><ele>20.0</ele><time>2026-04-18T17:13:59.645Z</time></trkpt><trkpt lat="10.0176992" lon="-75.2606614"><ele>20.0</ele><time>2026-04-18T17:14:00.644Z</time></trkpt><trkpt lat="10.0177863" lon="-75.2606437"><ele>20.0</ele><time>2026-04-18T17:14:01.64Z</time></trkpt><trkpt lat="10.0178756" lon="-75.2606233"><ele>20.0</ele><time>2026-04-18T17:14:02.642Z</time></trkpt><trkpt lat="10.0179657" lon="-75.2606095"><ele>20.0</ele><time>2026-04-18T17:14:03.642Z</time></trkpt><trkpt lat="10.0180571" lon="-75.2605917"><ele>20.0</ele><time>2026-04-18T17:14:04.642Z</time></trkpt><trkpt lat="10.0181412" lon="-75.2605764"><ele>20.0</ele><time>2026-04-18T17:14:05.646Z</time></trkpt><trkpt lat="10.0182277" lon="-75.2605597"><ele>20.0</ele><time>2026-04-18T17:14:06.647Z</time></trkpt><trkpt lat="10.0183146" lon="-75.2605453"><ele>20.0</ele><time>2026-04-18T17:14:07.644Z</time></trkpt><trkpt lat="10.0184142" lon="-75.26052"><ele>19.833333333333336</ele><time>2026-04-18T17:14:08.643Z</time></trkpt><trkpt lat="10.0185017" lon="-75.2605043"><ele>19.666666666666668</ele><time>2026-04-18T17:14:09.647Z</time></trkpt><trkpt lat="10.0185881" lon="-75.2604913"><ele>19.5</ele><time>2026-04-18T17:14:10.642Z</time></trkpt><trkpt lat="10.0186754" lon="-75.2604776"><ele>19.333333333333332</ele><time>2026-04-18T17:14:11.649Z</time></trkpt><trkpt lat="10.018761" lon="-75.2604647"><ele>19.166666666666664</ele><time>2026-04-18T17:14:12.644Z</time></trkpt><trkpt lat="10.0188479" lon="-75.2604556"><ele>19.0</ele><time>2026-04-18T17:14:13.645Z</time></trkpt><trkpt lat="10.0189368" lon="-75.2604456"><ele>19.0</ele><time>2026-04-18T17:14:14.648Z</time></trkpt><trkpt lat="10.0190238" lon="-75.2604345"><ele>19.0</ele><time>2026-04-18T17:14:15.643Z</time></trkpt><trkpt lat="10.0191126" lon="-75.2604246"><ele>19.0</ele><time>2026-04-18T17:14:16.648Z</time></trkpt><trkpt lat="10.0192003" lon="-75.2604171"><ele>19.0</ele><time>2026-04-18T17:14:17.645Z</time></trkpt><trkpt lat="10.0192887" lon="-75.2604103"><ele>19.0</ele><time>2026-04-18T17:14:18.644Z</time></trkpt><trkpt lat="10.0193775" lon="-75.260404"><ele>19.0</ele><time>2026-04-18T17:14:19.641Z</time></trkpt><trkpt lat="10.0194687" lon="-75.2604038"><ele>19.2</ele><time>2026-04-18T17:14:20.644Z</time></trkpt><trkpt lat="10.0195593" lon="-75.2604033"><ele>19.4</ele><time>2026-04-18T17:14:21.644Z</time></trkpt><trkpt lat="10.0196491" lon="-75.2604031"><ele>19.6</ele><time>2026-04-18T17:14:22.644Z</time></trkpt><trkpt lat="10.0197389" lon="-75.2604037"><ele>19.8</ele><time>2026-04-18T17:14:23.645Z</time></trkpt><trkpt lat="10.0198299" lon="-75.260403"><ele>20.0</ele><time>2026-04-18T17:14:24.643Z</time></trkpt><trkpt lat="10.0199238" lon="-75.2604012"><ele>20.0</ele><time>2026-04-18T17:14:25.642Z</time></trkpt><trkpt lat="10.0200156" lon="-75.2603979"><ele>20.0</ele><time>2026-04-18T17:14:26.644Z</time></trkpt><trkpt lat="10.020108" lon="-75.2604004"><ele>20.0</ele><time>2026-04-18T17:14:27.647Z</time></trkpt><trkpt lat="10.0202022" lon="-75.2603985"><ele>20.0</ele><time>2026-04-18T17:14:28.651Z</time></trkpt><trkpt lat="10.0202934" lon="-75.2604004"><ele>20.0</ele><time>2026-04-18T17:14:29.644Z</time></trkpt><trkpt lat="10.0203852" lon="-75.2604022"><ele>20.0</ele><time>2026-04-18T17:14:30.644Z</time></trkpt><trkpt lat="10.0204801" lon="-75.260402"><ele>20.0</ele><time>2026-04-18T17:14:31.643Z</time></trkpt><trkpt lat="10.0205719" lon="-75.2604023"><ele>20.0</ele><time>2026-04-18T17:14:32.644Z</time></trkpt><trkpt lat="10.0206655" lon="-75.2604052"><ele>20.0</ele><time>2026-04-18T17:14:33.644Z</time></trkpt><trkpt lat="10.0207647" lon="-75.2604061"><ele>20.0</ele><time>2026-04-18T17:14:34.647Z</time></trkpt><trkpt lat="10.0208651" lon="-75.260403"><ele>19.8</ele><time>2026-04-18T17:14:35.644Z</time></trkpt><trkpt lat="10.0209616" lon="-75.2604033"><ele>19.6</ele><time>2026-04-18T17:14:36.642Z</time></trkpt><trkpt lat="10.0210545" lon="-75.2604034"><ele>19.4</ele><time>2026-04-18T17:14:37.64Z</time></trkpt><trkpt lat="10.0211473" lon="-75.2604064"><ele>19.2</ele><time>2026-04-18T17:14:38.642Z</time></trkpt><trkpt lat="10.0212387" lon="-75.2604038"><ele>19.0</ele><time>2026-04-18T17:14:39.642Z</time></trkpt><trkpt lat="10.0213331" lon="-75.260402"><ele>19.0</ele><time>2026-04-18T17:14:40.639Z</time></trkpt><trkpt lat="10.0214237" lon="-75.2604061"><ele>19.0</ele><time>2026-04-18T17:14:41.643Z</time></trkpt><trkpt lat="10.0215143" lon="-75.2604083"><ele>19.0</ele><time>2026-04-18T17:14:42.647Z</time></trkpt><trkpt lat="10.0216065" lon="-75.260407"><ele>19.0</ele><time>2026-04-18T17:14:43.645Z</time></trkpt><trkpt lat="10.0217034" lon="-75.2604115"><ele>19.0</ele><time>2026-04-18T17:14:44.643Z</time></trkpt><trkpt lat="10.0217956" lon="-75.260411"><ele>19.4</ele><time>2026-04-18T17:14:45.644Z</time></trkpt><trkpt lat="10.0218894" lon="-75.2604086"><ele>19.799999999999997</ele><time>2026-04-18T17:14:46.644Z</time></trkpt><trkpt lat="10.0219841" lon="-75.2604074"><ele>20.200000000000003</ele><time>2026-04-18T17:14:47.644Z</time></trkpt><trkpt lat="10.0220828" lon="-75.2604039"><ele>20.6</ele><time>2026-04-18T17:14:48.649Z</time></trkpt><trkpt lat="10.0221797" lon="-75.2604041"><ele>21.0</ele><time>2026-04-18T17:14:49.646Z</time></trkpt><trkpt lat="10.0222778" lon="-75.2604088"><ele>21.0</ele><time>2026-04-18T17:14:50.643Z</time></trkpt><trkpt lat="10.0223738" lon="-75.260411"><ele>21.0</ele><time>2026-04-18T17:14:51.644Z</time></trkpt><trkpt lat="10.0224696" lon="-75.2604086"><ele>21.0</ele><time>2026-04-18T17:14:52.643Z</time></trkpt><trkpt lat="10.0225607" lon="-75.2604085"><ele>21.0</ele><time>2026-04-18T17:14:53.647Z</time></trkpt><trkpt lat="10.0226507" lon="-75.2604091"><ele>21.0</ele><time>2026-04-18T17:14:54.643Z</time></trkpt><trkpt lat="10.0227409" lon="-75.2604079"><ele>20.400000000000002</ele><time>2026-04-18T17:14:55.643Z</time></trkpt><trkpt lat="10.0228325" lon="-75.2604077"><ele>19.8</ele><time>2026-04-18T17:14:56.641Z</time></trkpt><trkpt lat="10.0229273" lon="-75.2604094"><ele>19.200000000000003</ele><time>2026-04-18T17:14:57.643Z</time></trkpt><trkpt lat="10.0230199" lon="-75.260412"><ele>18.6</ele><time>2026-04-18T17:14:58.643Z</time></trkpt><trkpt lat="10.0231146" lon="-75.2604127"><ele>18.0</ele><time>2026-04-18T17:14:59.642Z</time></trkpt><trkpt lat="10.0232102" lon="-75.2604123"><ele>18.0</ele><time>2026-04-18T17:15:00.64Z</time></trkpt><trkpt lat="10.0233095" lon="-75.2604136"><ele>18.0</ele><time>2026-04-18T17:15:01.642Z</time></trkpt><trkpt lat="10.0234065" lon="-75.2604104"><ele>18.0</ele><time>2026-04-18T17:15:02.645Z</time></trkpt><trkpt lat="10.023503" lon="-75.2604126"><ele>18.0</ele><time>2026-04-18T17:15:03.647Z</time></trkpt><trkpt lat="10.0236028" lon="-75.260414"><ele>18.0</ele><time>2026-04-18T17:15:04.642Z</time></trkpt><trkpt lat="10.0237027" lon="-75.260414"><ele>18.2</ele><time>2026-04-18T17:15:05.64Z</time></trkpt><trkpt lat="10.0238032" lon="-75.2604099"><ele>18.4</ele><time>2026-04-18T17:15:06.641Z</time></trkpt><trkpt lat="10.0239006" lon="-75.2604089"><ele>18.599999999999998</ele><time>2026-04-18T17:15:07.645Z</time></trkpt><trkpt lat="10.0240004" lon="-75.2604085"><ele>18.8</ele><time>2026-04-18T17:15:08.649Z</time></trkpt><trkpt lat="10.0241017" lon="-75.2604084"><ele>19.0</ele><time>2026-04-18T17:15:09.645Z</time></trkpt><trkpt lat="10.0242099" lon="-75.2604011"><ele>19.2</ele><time>2026-04-18T17:15:10.639Z</time></trkpt><trkpt lat="10.0243117" lon="-75.2604015"><ele>19.4</ele><time>2026-04-18T17:15:11.639Z</time></trkpt><trkpt lat="10.024414" lon="-75.2604022"><ele>19.6</ele><time>2026-04-18T17:15:12.641Z</time></trkpt><trkpt lat="10.0245115" lon="-75.2603985"><ele>19.8</ele><time>2026-04-18T17:15:13.646Z</time></trkpt><trkpt lat="10.0246151" lon="-75.2603998"><ele>20.0</ele><time>2026-04-18T17:15:14.643Z</time></trkpt><trkpt lat="10.0247151" lon="-75.2604037"><ele>20.0</ele><time>2026-04-18T17:15:15.645Z</time></trkpt><trkpt lat="10.0248161" lon="-75.2604052"><ele>20.0</ele><time>2026-04-18T17:15:16.649Z</time></trkpt><trkpt lat="10.0249151" lon="-75.2604063"><ele>20.0</ele><time>2026-04-18T17:15:17.647Z</time></trkpt><trkpt lat="10.0250074" lon="-75.2604047"><ele>20.0</ele><time>2026-04-18T17:15:18.645Z</time></trkpt><trkpt lat="10.0251014" lon="-75.2604058"><ele>20.0</ele><time>2026-04-18T17:15:19.647Z</time></trkpt><trkpt lat="10.025193" lon="-75.2604068"><ele>20.0</ele><time>2026-04-18T17:15:20.649Z</time></trkpt><trkpt lat="10.0252863" lon="-75.2604073"><ele>20.0</ele><time>2026-04-18T17:15:21.643Z</time></trkpt><trkpt lat="10.0253764" lon="-75.2604057"><ele>20.0</ele><time>2026-04-18T17:15:22.645Z</time></trkpt><trkpt lat="10.0254709" lon="-75.2604055"><ele>20.0</ele><time>2026-04-18T17:15:23.647Z</time></trkpt><trkpt lat="10.025564" lon="-75.2604049"><ele>20.0</ele><time>2026-04-18T17:15:24.645Z</time></trkpt><trkpt lat="10.0256601" lon="-75.2604055"><ele>20.0</ele><time>2026-04-18T17:15:25.643Z</time></trkpt><trkpt lat="10.0257582" lon="-75.2604038"><ele>20.0</ele><time>2026-04-18T17:15:26.648Z</time></trkpt><trkpt lat="10.0258606" lon="-75.2604045"><ele>20.0</ele><time>2026-04-18T17:15:27.645Z</time></trkpt><trkpt lat="10.02596" lon="-75.260397"><ele>20.0</ele><time>2026-04-18T17:15:28.643Z</time></trkpt><trkpt lat="10.0260534" lon="-75.2603992"><ele>20.0</ele><time>2026-04-18T17:15:29.642Z</time></trkpt><trkpt lat="10.0261454" lon="-75.260397"><ele>20.0</ele><time>2026-04-18T17:15:30.642Z</time></trkpt><trkpt lat="10.0262409" lon="-75.2604005"><ele>20.0</ele><time>2026-04-18T17:15:31.648Z</time></trkpt><trkpt lat="10.0263348" lon="-75.2604012"><ele>20.0</ele><time>2026-04-18T17:15:32.645Z</time></trkpt><trkpt lat="10.0264232" lon="-75.2603989"><ele>20.0</ele><time>2026-04-18T17:15:33.643Z</time></trkpt><trkpt lat="10.0265163" lon="-75.2603998"><ele>20.0</ele><time>2026-04-18T17:15:34.639Z</time></trkpt><trkpt lat="10.0266092" lon="-75.2603986"><ele>20.0</ele><time>2026-04-18T17:15:35.643Z</time></trkpt><trkpt lat="10.0267026" lon="-75.260399"><ele>20.0</ele><time>2026-04-18T17:15:36.643Z</time></trkpt><trkpt lat="10.0267936" lon="-75.2603971"><ele>20.0</ele><time>2026-04-18T17:15:37.646Z</time></trkpt><trkpt lat="10.0268852" lon="-75.2604016"><ele>20.0</ele><time>2026-04-18T17:15:38.646Z</time></trkpt><trkpt lat="10.0269765" lon="-75.2604019"><ele>20.0</ele><time>2026-04-18T17:15:39.647Z</time></trkpt><trkpt lat="10.0270757" lon="-75.2604082"><ele>20.0</ele><time>2026-04-18T17:15:40.645Z</time></trkpt><trkpt lat="10.0271709" lon="-75.2604064"><ele>20.0</ele><time>2026-04-18T17:15:41.643Z</time></trkpt><trkpt lat="10.0272624" lon="-75.2604046"><ele>20.0</ele><time>2026-04-18T17:15:42.644Z</time></trkpt><trkpt lat="10.0273566" lon="-75.2604046"><ele>20.0</ele><time>2026-04-18T17:15:43.646Z</time></trkpt><trkpt lat="10.027442" lon="-75.2604007"><ele>20.0</ele><time>2026-04-18T17:15:44.643Z</time></trkpt><trkpt lat="10.0275262" lon="-75.2604021"><ele>19.666666666666668</ele><time>2026-04-18T17:15:45.645Z</time></trkpt><trkpt lat="10.0276096" lon="-75.2603977"><ele>19.333333333333336</ele><time>2026-04-18T17:15:46.642Z</time></trkpt><trkpt lat="10.0276938" lon="-75.2604013"><ele>19.0</ele><time>2026-04-18T17:15:47.645Z</time></trkpt><trkpt lat="10.0277767" lon="-75.2604031"><ele>18.666666666666668</ele><time>2026-04-18T17:15:48.641Z</time></trkpt><trkpt lat="10.027859" lon="-75.2604048"><ele>18.333333333333332</ele><time>2026-04-18T17:15:49.645Z</time></trkpt><trkpt lat="10.0279427" lon="-75.2604071"><ele>18.0</ele><time>2026-04-18T17:15:50.644Z</time></trkpt><trkpt lat="10.0280245" lon="-75.2604076"><ele>18.0</ele><time>2026-04-18T17:15:51.652Z</time></trkpt><trkpt lat="10.0281043" lon="-75.2604098"><ele>18.0</ele><time>2026-04-18T17:15:52.644Z</time></trkpt><trkpt lat="10.0281867" lon="-75.2604113"><ele>18.0</ele><time>2026-04-18T17:15:53.644Z</time></trkpt><trkpt lat="10.0282689" lon="-75.2604093"><ele>18.0</ele><time>2026-04-18T17:15:54.656Z</time></trkpt><trkpt lat="10.0283527" lon="-75.2604086"><ele>18.0</ele><time>2026-04-18T17:15:55.644Z</time></trkpt><trkpt lat="10.028438" lon="-75.2604074"><ele>18.0</ele><time>2026-04-18T17:15:56.644Z</time></trkpt><trkpt lat="10.0285221" lon="-75.260406"><ele>18.0</ele><time>2026-04-18T17:15:57.648Z</time></trkpt><trkpt lat="10.0286085" lon="-75.260405"><ele>18.0</ele><time>2026-04-18T17:15:58.644Z</time></trkpt><trkpt lat="10.0286919" lon="-75.2604046"><ele>18.0</ele><time>2026-04-18T17:15:59.643Z</time></trkpt><trkpt lat="10.0287791" lon="-75.2604049"><ele>18.0</ele><time>2026-04-18T17:16:00.647Z</time></trkpt><trkpt lat="10.0288737" lon="-75.2604038"><ele>18.0</ele><time>2026-04-18T17:16:01.65Z</time></trkpt><trkpt lat="10.0289596" lon="-75.260405"><ele>18.0</ele><time>2026-04-18T17:16:02.651Z</time></trkpt><trkpt lat="10.0290433" lon="-75.2604062"><ele>18.0</ele><time>2026-04-18T17:16:03.654Z</time></trkpt><trkpt lat="10.0291298" lon="-75.260405"><ele>18.0</ele><time>2026-04-18T17:16:04.643Z</time></trkpt><trkpt lat="10.0292172" lon="-75.2604084"><ele>18.0</ele><time>2026-04-18T17:16:05.643Z</time></trkpt><trkpt lat="10.029303" lon="-75.2604075"><ele>18.0</ele><time>2026-04-18T17:16:06.642Z</time></trkpt><trkpt lat="10.029393" lon="-75.2604108"><ele>18.0</ele><time>2026-04-18T17:16:07.645Z</time></trkpt><trkpt lat="10.0294781" lon="-75.2604104"><ele>18.0</ele><time>2026-04-18T17:16:08.642Z</time></trkpt><trkpt lat="10.0295646" lon="-75.2604113"><ele>18.166666666666668</ele><time>2026-04-18T17:16:09.644Z</time></trkpt><trkpt lat="10.0296533" lon="-75.2604051"><ele>18.333333333333332</ele><time>2026-04-18T17:16:10.653Z</time></trkpt><trkpt lat="10.0297375" lon="-75.2604025"><ele>18.5</ele><time>2026-04-18T17:16:11.641Z</time></trkpt><trkpt lat="10.029824" lon="-75.2604013"><ele>18.666666666666664</ele><time>2026-04-18T17:16:12.639Z</time></trkpt><trkpt lat="10.0299096" lon="-75.2604"><ele>18.833333333333332</ele><time>2026-04-18T17:16:13.642Z</time></trkpt><trkpt lat="10.0299972" lon="-75.2603984"><ele>19.0</ele><time>2026-04-18T17:16:14.641Z</time></trkpt><trkpt lat="10.0300874" lon="-75.2603998"><ele>19.166666666666664</ele><time>2026-04-18T17:16:15.642Z</time></trkpt><trkpt lat="10.0301706" lon="-75.2603978"><ele>19.333333333333332</ele><time>2026-04-18T17:16:16.641Z</time></trkpt><trkpt lat="10.03025" lon="-75.2603948"><ele>19.5</ele><time>2026-04-18T17:16:17.64Z</time></trkpt><trkpt lat="10.0303352" lon="-75.2603966"><ele>19.666666666666668</ele><time>2026-04-18T17:16:18.652Z</time></trkpt><trkpt lat="10.0304193" lon="-75.260396"><ele>19.833333333333336</ele><time>2026-04-18T17:16:19.645Z</time></trkpt><trkpt lat="10.0305056" lon="-75.2604004"><ele>20.0</ele><time>2026-04-18T17:16:20.645Z</time></trkpt><trkpt lat="10.0305952" lon="-75.260403"><ele>20.0</ele><time>2026-04-18T17:16:21.645Z</time></trkpt><trkpt lat="10.0306809" lon="-75.2604028"><ele>20.0</ele><time>2026-04-18T17:16:22.644Z</time></trkpt><trkpt lat="10.0307677" lon="-75.2604018"><ele>20.0</ele><time>2026-04-18T17:16:23.647Z</time></trkpt><trkpt lat="10.0308508" lon="-75.2604022"><ele>20.0</ele><time>2026-04-18T17:16:24.651Z</time></trkpt><trkpt lat="10.0309339" lon="-75.2604008"><ele>20.0</ele><time>2026-04-18T17:16:25.649Z</time></trkpt><trkpt lat="10.0310205" lon="-75.2604"><ele>20.0</ele><time>2026-04-18T17:16:26.652Z</time></trkpt><trkpt lat="10.0311092" lon="-75.2604001"><ele>19.6</ele><time>2026-04-18T17:16:27.648Z</time></trkpt><trkpt lat="10.0311971" lon="-75.2604018"><ele>19.2</ele><time>2026-04-18T17:16:28.65Z</time></trkpt><trkpt lat="10.031288" lon="-75.2604016"><ele>18.8</ele><time>2026-04-18T17:16:29.648Z</time></trkpt><trkpt lat="10.0313815" lon="-75.260399"><ele>18.4</ele><time>2026-04-18T17:16:30.657Z</time></trkpt><trkpt lat="10.0314744" lon="-75.2603992"><ele>18.0</ele><time>2026-04-18T17:16:31.644Z</time></trkpt><trkpt lat="10.0315677" lon="-75.2604008"><ele>17.8</ele><time>2026-04-18T17:16:32.645Z</time></trkpt><trkpt lat="10.0316616" lon="-75.2604022"><ele>17.6</ele><time>2026-04-18T17:16:33.643Z</time></trkpt><trkpt lat="10.0317528" lon="-75.2604015"><ele>17.4</ele><time>2026-04-18T17:16:34.642Z</time></trkpt><trkpt lat="10.0318494" lon="-75.2603981"><ele>17.2</ele><time>2026-04-18T17:16:35.647Z</time></trkpt><trkpt lat="10.0319402" lon="-75.260394"><ele>17.0</ele><time>2026-04-18T17:16:36.644Z</time></trkpt><trkpt lat="10.0320343" lon="-75.2603957"><ele>17.0</ele><time>2026-04-18T17:16:37.645Z</time></trkpt><trkpt lat="10.0321297" lon="-75.2603937"><ele>17.0</ele><time>2026-04-18T17:16:38.649Z</time></trkpt><trkpt lat="10.0322165" lon="-75.2603936"><ele>17.0</ele><time>2026-04-18T17:16:39.645Z</time></trkpt><trkpt lat="10.0323086" lon="-75.2603943"><ele>17.0</ele><time>2026-04-18T17:16:40.643Z</time></trkpt><trkpt lat="10.0323979" lon="-75.2603954"><ele>17.0</ele><time>2026-04-18T17:16:41.644Z</time></trkpt><trkpt lat="10.0324865" lon="-75.2603953"><ele>17.833333333333336</ele><time>2026-04-18T17:16:42.644Z</time></trkpt><trkpt lat="10.0325722" lon="-75.2603968"><ele>18.666666666666668</ele><time>2026-04-18T17:16:43.643Z</time></trkpt><trkpt lat="10.0326581" lon="-75.2603979"><ele>19.5</ele><time>2026-04-18T17:16:44.645Z</time></trkpt><trkpt lat="10.0327421" lon="-75.260399"><ele>20.333333333333332</ele><time>2026-04-18T17:16:45.645Z</time></trkpt><trkpt lat="10.0328243" lon="-75.2603965"><ele>21.166666666666664</ele><time>2026-04-18T17:16:46.647Z</time></trkpt><trkpt lat="10.0329045" lon="-75.2603957"><ele>22.0</ele><time>2026-04-18T17:16:47.644Z</time></trkpt><trkpt lat="10.0329838" lon="-75.2603963"><ele>22.0</ele><time>2026-04-18T17:16:48.649Z</time></trkpt><trkpt lat="10.0330646" lon="-75.2603945"><ele>22.0</ele><time>2026-04-18T17:16:49.649Z</time></trkpt><trkpt lat="10.0331457" lon="-75.2603922"><ele>22.0</ele><time>2026-04-18T17:16:50.644Z</time></trkpt><trkpt lat="10.0332232" lon="-75.2603931"><ele>22.0</ele><time>2026-04-18T17:16:51.644Z</time></trkpt><trkpt lat="10.0333025" lon="-75.2603975"><ele>22.0</ele><time>2026-04-18T17:16:52.64Z</time></trkpt><trkpt lat="10.0333832" lon="-75.2603998"><ele>22.0</ele><time>2026-04-18T17:16:53.642Z</time></trkpt><trkpt lat="10.0334652" lon="-75.2603967"><ele>22.0</ele><time>2026-04-18T17:16:54.642Z</time></trkpt><trkpt lat="10.0335468" lon="-75.2603993"><ele>22.0</ele><time>2026-04-18T17:16:55.639Z</time></trkpt><trkpt lat="10.0336237" lon="-75.2603932"><ele>22.0</ele><time>2026-04-18T17:16:56.645Z</time></trkpt><trkpt lat="10.0337051" lon="-75.2603922"><ele>22.0</ele><time>2026-04-18T17:16:57.641Z</time></trkpt><trkpt lat="10.0337864" lon="-75.2603895"><ele>22.0</ele><time>2026-04-18T17:16:58.641Z</time></trkpt><trkpt lat="10.0338638" lon="-75.2603886"><ele>22.0</ele><time>2026-04-18T17:16:59.643Z</time></trkpt><trkpt lat="10.0339396" lon="-75.2603883"><ele>22.0</ele><time>2026-04-18T17:17:00.641Z</time></trkpt><trkpt lat="10.0340201" lon="-75.2603898"><ele>22.0</ele><time>2026-04-18T17:17:01.642Z</time></trkpt><trkpt lat="10.0340984" lon="-75.2603885"><ele>22.0</ele><time>2026-04-18T17:17:02.64Z</time></trkpt><trkpt lat="10.0341789" lon="-75.2603915"><ele>22.0</ele><time>2026-04-18T17:17:03.641Z</time></trkpt><trkpt lat="10.0342611" lon="-75.2603908"><ele>22.0</ele><time>2026-04-18T17:17:04.647Z</time></trkpt><trkpt lat="10.0343413" lon="-75.2603893"><ele>22.0</ele><time>2026-04-18T17:17:05.642Z</time></trkpt><trkpt lat="10.0344221" lon="-75.2603855"><ele>22.166666666666664</ele><time>2026-04-18T17:17:06.642Z</time></trkpt><trkpt lat="10.0345054" lon="-75.2603821"><ele>22.333333333333332</ele><time>2026-04-18T17:17:07.648Z</time></trkpt><trkpt lat="10.0345834" lon="-75.2603802"><ele>22.5</ele><time>2026-04-18T17:17:08.644Z</time></trkpt><trkpt lat="10.034664" lon="-75.2603781"><ele>22.666666666666668</ele><time>2026-04-18T17:17:09.643Z</time></trkpt><trkpt lat="10.0347428" lon="-75.2603755"><ele>22.833333333333336</ele><time>2026-04-18T17:17:10.641Z</time></trkpt><trkpt lat="10.0348205" lon="-75.2603732"><ele>23.0</ele><time>2026-04-18T17:17:11.639Z</time></trkpt><trkpt lat="10.0348987" lon="-75.2603725"><ele>23.166666666666668</ele><time>2026-04-18T17:17:12.642Z</time></trkpt><trkpt lat="10.034982" lon="-75.260375"><ele>23.333333333333336</ele><time>2026-04-18T17:17:13.639Z</time></trkpt><trkpt lat="10.0350691" lon="-75.2603795"><ele>23.5</ele><time>2026-04-18T17:17:14.639Z</time></trkpt><trkpt lat="10.0351496" lon="-75.2603802"><ele>23.666666666666668</ele><time>2026-04-18T17:17:15.639Z</time></trkpt><trkpt lat="10.0352298" lon="-75.2603788"><ele>23.833333333333332</ele><time>2026-04-18T17:17:16.641Z</time></trkpt><trkpt lat="10.0353124" lon="-75.2603773"><ele>24.0</ele><time>2026-04-18T17:17:17.639Z</time></trkpt><trkpt lat="10.0353927" lon="-75.2603747"><ele>24.0</ele><time>2026-04-18T17:17:18.643Z</time></trkpt><trkpt lat="10.0354775" lon="-75.2603738"><ele>24.0</ele><time>2026-04-18T17:17:19.643Z</time></trkpt><trkpt lat="10.0355595" lon="-75.260375"><ele>24.0</ele><time>2026-04-18T17:17:20.639Z</time></trkpt><trkpt lat="10.0356419" lon="-75.2603716"><ele>24.0</ele><time>2026-04-18T17:17:21.64Z</time></trkpt><trkpt lat="10.035726" lon="-75.2603767"><ele>24.0</ele><time>2026-04-18T17:17:22.646Z</time></trkpt><trkpt lat="10.0358127" lon="-75.2603797"><ele>24.0</ele><time>2026-04-18T17:17:23.645Z</time></trkpt><trkpt lat="10.0358977" lon="-75.2603779"><ele>23.833333333333332</ele><time>2026-04-18T17:17:24.641Z</time></trkpt><trkpt lat="10.0359819" lon="-75.2603775"><ele>23.666666666666668</ele><time>2026-04-18T17:17:25.639Z</time></trkpt><trkpt lat="10.0360697" lon="-75.2603797"><ele>23.5</ele><time>2026-04-18T17:17:26.645Z</time></trkpt><trkpt lat="10.0361547" lon="-75.2603833"><ele>23.333333333333336</ele><time>2026-04-18T17:17:27.642Z</time></trkpt><trkpt lat="10.0362467" lon="-75.2603846"><ele>23.166666666666668</ele><time>2026-04-18T17:17:28.641Z</time></trkpt><trkpt lat="10.0363329" lon="-75.2603826"><ele>23.0</ele><time>2026-04-18T17:17:29.641Z</time></trkpt><trkpt lat="10.0364248" lon="-75.2603819"><ele>23.0</ele><time>2026-04-18T17:17:30.64Z</time></trkpt><trkpt lat="10.0365113" lon="-75.2603777"><ele>23.0</ele><time>2026-04-18T17:17:31.643Z</time></trkpt><trkpt lat="10.0366" lon="-75.2603809"><ele>23.0</ele><time>2026-04-18T17:17:32.641Z</time></trkpt><trkpt lat="10.0366898" lon="-75.2603786"><ele>23.0</ele><time>2026-04-18T17:17:33.64Z</time></trkpt><trkpt lat="10.0367815" lon="-75.2603783"><ele>23.0</ele><time>2026-04-18T17:17:34.642Z</time></trkpt><trkpt lat="10.0368745" lon="-75.2603791"><ele>23.0</ele><time>2026-04-18T17:17:35.64Z</time></trkpt><trkpt lat="10.0369691" lon="-75.2603778"><ele>23.0</ele><time>2026-04-18T17:17:36.641Z</time></trkpt><trkpt lat="10.0370653" lon="-75.260374"><ele>23.0</ele><time>2026-04-18T17:17:37.64Z</time></trkpt><trkpt lat="10.0371551" lon="-75.2603744"><ele>23.0</ele><time>2026-04-18T17:17:38.641Z</time></trkpt><trkpt lat="10.0372454" lon="-75.2603716"><ele>23.0</ele><time>2026-04-18T17:17:39.642Z</time></trkpt><trkpt lat="10.0373388" lon="-75.2603718"><ele>23.0</ele><time>2026-04-18T17:17:40.645Z</time></trkpt><trkpt lat="10.0374258" lon="-75.2603723"><ele>23.0</ele><time>2026-04-18T17:17:41.639Z</time></trkpt><trkpt lat="10.0375093" lon="-75.2603744"><ele>23.0</ele><time>2026-04-18T17:17:42.641Z</time></trkpt><trkpt lat="10.0375961" lon="-75.2603737"><ele>23.0</ele><time>2026-04-18T17:17:43.639Z</time></trkpt><trkpt lat="10.0376811" lon="-75.2603731"><ele>23.0</ele><time>2026-04-18T17:17:44.646Z</time></trkpt><trkpt lat="10.037764" lon="-75.2603772"><ele>23.0</ele><time>2026-04-18T17:17:45.64Z</time></trkpt><trkpt lat="10.0378477" lon="-75.2603741"><ele>23.0</ele><time>2026-04-18T17:17:46.642Z</time></trkpt><trkpt lat="10.0379383" lon="-75.2603758"><ele>23.0</ele><time>2026-04-18T17:17:47.641Z</time></trkpt><trkpt lat="10.038025" lon="-75.260371"><ele>23.0</ele><time>2026-04-18T17:17:48.639Z</time></trkpt><trkpt lat="10.0381141" lon="-75.26037"><ele>23.0</ele><time>2026-04-18T17:17:49.641Z</time></trkpt><trkpt lat="10.0382035" lon="-75.2603715"><ele>23.0</ele><time>2026-04-18T17:17:50.644Z</time></trkpt><trkpt lat="10.0382967" lon="-75.2603682"><ele>23.0</ele><time>2026-04-18T17:17:51.642Z</time></trkpt><trkpt lat="10.0383931" lon="-75.2603728"><ele>23.0</ele><time>2026-04-18T17:17:52.641Z</time></trkpt><trkpt lat="10.0384903" lon="-75.2603713"><ele>23.0</ele><time>2026-04-18T17:17:53.639Z</time></trkpt><trkpt lat="10.0385954" lon="-75.2603729"><ele>23.0</ele><time>2026-04-18T17:17:54.64Z</time></trkpt><trkpt lat="10.0386992" lon="-75.2603735"><ele>23.0</ele><time>2026-04-18T17:17:55.64Z</time></trkpt><trkpt lat="10.0387989" lon="-75.2603706"><ele>23.0</ele><time>2026-04-18T17:17:56.64Z</time></trkpt><trkpt lat="10.0388995" lon="-75.2603707"><ele>23.0</ele><time>2026-04-18T17:17:57.639Z</time></trkpt><trkpt lat="10.0389955" lon="-75.2603742"><ele>23.0</ele><time>2026-04-18T17:17:58.642Z</time></trkpt><trkpt lat="10.0390967" lon="-75.2603761"><ele>23.0</ele><time>2026-04-18T17:17:59.642Z</time></trkpt><trkpt lat="10.0391906" lon="-75.2603755"><ele>23.0</ele><time>2026-04-18T17:18:00.641Z</time></trkpt><trkpt lat="10.0392873" lon="-75.2603725"><ele>23.0</ele><time>2026-04-18T17:18:01.641Z</time></trkpt><trkpt lat="10.0393862" lon="-75.260373"><ele>22.4</ele><time>2026-04-18T17:18:02.64Z</time></trkpt><trkpt lat="10.0394965" lon="-75.2603666"><ele>21.799999999999997</ele><time>2026-04-18T17:18:03.638Z</time></trkpt><trkpt lat="10.039591" lon="-75.2603676"><ele>21.2</ele><time>2026-04-18T17:18:04.638Z</time></trkpt><trkpt lat="10.0396876" lon="-75.2603717"><ele>20.6</ele><time>2026-04-18T17:18:05.64Z</time></trkpt><trkpt lat="10.0397843" lon="-75.2603721"><ele>20.0</ele><time>2026-04-18T17:18:06.645Z</time></trkpt><trkpt lat="10.0398777" lon="-75.2603739"><ele>20.6</ele><time>2026-04-18T17:18:07.645Z</time></trkpt><trkpt lat="10.0399728" lon="-75.260375"><ele>21.2</ele><time>2026-04-18T17:18:08.643Z</time></trkpt><trkpt lat="10.0400679" lon="-75.2603728"><ele>21.799999999999997</ele><time>2026-04-18T17:18:09.64Z</time></trkpt><trkpt lat="10.0401616" lon="-75.2603726"><ele>22.4</ele><time>2026-04-18T17:18:10.654Z</time></trkpt><trkpt lat="10.0402597" lon="-75.260366"><ele>23.0</ele><time>2026-04-18T17:18:11.654Z</time></trkpt><trkpt lat="10.040355" lon="-75.2603653"><ele>23.0</ele><time>2026-04-18T17:18:12.641Z</time></trkpt><trkpt lat="10.0404544" lon="-75.2603628"><ele>23.0</ele><time>2026-04-18T17:18:13.637Z</time></trkpt><trkpt lat="10.0405515" lon="-75.2603635"><ele>23.0</ele><time>2026-04-18T17:18:14.641Z</time></trkpt><trkpt lat="10.0406464" lon="-75.2603664"><ele>23.0</ele><time>2026-04-18T17:18:15.64Z</time></trkpt><trkpt lat="10.0407419" lon="-75.2603622"><ele>23.0</ele><time>2026-04-18T17:18:16.642Z</time></trkpt><trkpt lat="10.040834" lon="-75.2603616"><ele>23.333333333333336</ele><time>2026-04-18T17:18:17.641Z</time></trkpt><trkpt lat="10.0409245" lon="-75.2603598"><ele>23.666666666666668</ele><time>2026-04-18T17:18:18.643Z</time></trkpt><trkpt lat="10.0410114" lon="-75.2603583"><ele>24.0</ele><time>2026-04-18T17:18:19.643Z</time></trkpt><trkpt lat="10.0410952" lon="-75.2603596"><ele>24.333333333333336</ele><time>2026-04-18T17:18:20.642Z</time></trkpt><trkpt lat="10.0411806" lon="-75.2603561"><ele>24.666666666666668</ele><time>2026-04-18T17:18:21.643Z</time></trkpt><trkpt lat="10.0412749" lon="-75.2603497"><ele>25.0</ele><time>2026-04-18T17:18:22.639Z</time></trkpt><trkpt lat="10.0413599" lon="-75.2603496"><ele>25.000000000000004</ele><time>2026-04-18T17:18:23.639Z</time></trkpt><trkpt lat="10.0414447" lon="-75.2603491"><ele>25.0</ele><time>2026-04-18T17:18:24.648Z</time></trkpt><trkpt lat="10.0415258" lon="-75.260349"><ele>25.0</ele><time>2026-04-18T17:18:25.643Z</time></trkpt><trkpt lat="10.0416076" lon="-75.2603472"><ele>25.0</ele><time>2026-04-18T17:18:26.645Z</time></trkpt><trkpt lat="10.0416949" lon="-75.2603426"><ele>25.000000000000004</ele><time>2026-04-18T17:18:27.639Z</time></trkpt><trkpt lat="10.0417807" lon="-75.2603382"><ele>25.0</ele><time>2026-04-18T17:18:28.643Z</time></trkpt><trkpt lat="10.0418644" lon="-75.2603334"><ele>24.333333333333336</ele><time>2026-04-18T17:18:29.641Z</time></trkpt><trkpt lat="10.0419433" lon="-75.2603213"><ele>23.666666666666668</ele><time>2026-04-18T17:18:30.644Z</time></trkpt><trkpt lat="10.0420245" lon="-75.2603108"><ele>23.0</ele><time>2026-04-18T17:18:31.641Z</time></trkpt><trkpt lat="10.0421028" lon="-75.2603021"><ele>22.333333333333336</ele><time>2026-04-18T17:18:32.641Z</time></trkpt><trkpt lat="10.042178" lon="-75.2602925"><ele>21.666666666666668</ele><time>2026-04-18T17:18:33.641Z</time></trkpt><trkpt lat="10.0422539" lon="-75.2602833"><ele>21.0</ele><time>2026-04-18T17:18:34.64Z</time></trkpt><trkpt lat="10.0423288" lon="-75.2602738"><ele>21.0</ele><time>2026-04-18T17:18:35.64Z</time></trkpt><trkpt lat="10.0424038" lon="-75.260265"><ele>21.0</ele><time>2026-04-18T17:18:36.642Z</time></trkpt><trkpt lat="10.0424799" lon="-75.260252"><ele>21.0</ele><time>2026-04-18T17:18:37.638Z</time></trkpt><trkpt lat="10.0425564" lon="-75.2602394"><ele>21.0</ele><time>2026-04-18T17:18:38.638Z</time></trkpt><trkpt lat="10.0426351" lon="-75.2602224"><ele>21.0</ele><time>2026-04-18T17:18:39.64Z</time></trkpt><trkpt lat="10.0427121" lon="-75.2602034"><ele>21.0</ele><time>2026-04-18T17:18:40.643Z</time></trkpt><trkpt lat="10.0427883" lon="-75.2601817"><ele>21.166666666666668</ele><time>2026-04-18T17:18:41.64Z</time></trkpt><trkpt lat="10.0428664" lon="-75.2601606"><ele>21.333333333333332</ele><time>2026-04-18T17:18:42.644Z</time></trkpt><trkpt lat="10.0429437" lon="-75.2601364"><ele>21.5</ele><time>2026-04-18T17:18:43.639Z</time></trkpt><trkpt lat="10.0430215" lon="-75.2601139"><ele>21.666666666666664</ele><time>2026-04-18T17:18:44.639Z</time></trkpt><trkpt lat="10.0430972" lon="-75.2600892"><ele>21.833333333333332</ele><time>2026-04-18T17:18:45.639Z</time></trkpt><trkpt lat="10.0431731" lon="-75.2600658"><ele>22.0</ele><time>2026-04-18T17:18:46.639Z</time></trkpt><trkpt lat="10.0432532" lon="-75.2600329"><ele>21.666666666666664</ele><time>2026-04-18T17:18:47.642Z</time></trkpt><trkpt lat="10.0433316" lon="-75.2600011"><ele>21.333333333333332</ele><time>2026-04-18T17:18:48.642Z</time></trkpt><trkpt lat="10.0434092" lon="-75.2599682"><ele>21.0</ele><time>2026-04-18T17:18:49.641Z</time></trkpt><trkpt lat="10.043485" lon="-75.2599368"><ele>20.666666666666668</ele><time>2026-04-18T17:18:50.642Z</time></trkpt><trkpt lat="10.0435599" lon="-75.2599025"><ele>20.333333333333336</ele><time>2026-04-18T17:18:51.647Z</time></trkpt><trkpt lat="10.0436318" lon="-75.2598703"><ele>20.0</ele><time>2026-04-18T17:18:52.64Z</time></trkpt><trkpt lat="10.0437043" lon="-75.2598359"><ele>20.0</ele><time>2026-04-18T17:18:53.641Z</time></trkpt><trkpt lat="10.0437752" lon="-75.2598"><ele>20.0</ele><time>2026-04-18T17:18:54.642Z</time></trkpt><trkpt lat="10.0438507" lon="-75.2597629"><ele>20.0</ele><time>2026-04-18T17:18:55.639Z</time></trkpt><trkpt lat="10.0439243" lon="-75.2597237"><ele>20.0</ele><time>2026-04-18T17:18:56.639Z</time></trkpt><trkpt lat="10.0440007" lon="-75.2596826"><ele>20.0</ele><time>2026-04-18T17:18:57.641Z</time></trkpt><trkpt lat="10.0440747" lon="-75.2596397"><ele>20.0</ele><time>2026-04-18T17:18:58.639Z</time></trkpt><trkpt lat="10.0441474" lon="-75.2595951"><ele>19.666666666666668</ele><time>2026-04-18T17:18:59.641Z</time></trkpt><trkpt lat="10.0442175" lon="-75.259553"><ele>19.333333333333336</ele><time>2026-04-18T17:19:00.64Z</time></trkpt><trkpt lat="10.0442888" lon="-75.2595053"><ele>19.0</ele><time>2026-04-18T17:19:01.639Z</time></trkpt><trkpt lat="10.0443587" lon="-75.2594621"><ele>18.666666666666668</ele><time>2026-04-18T17:19:02.643Z</time></trkpt><trkpt lat="10.0444239" lon="-75.2594202"><ele>18.333333333333332</ele><time>2026-04-18T17:19:03.645Z</time></trkpt><trkpt lat="10.0444883" lon="-75.2593767"><ele>18.0</ele><time>2026-04-18T17:19:04.644Z</time></trkpt><trkpt lat="10.0445488" lon="-75.2593323"><ele>18.0</ele><time>2026-04-18T17:19:05.642Z</time></trkpt><trkpt lat="10.0446102" lon="-75.2592902"><ele>18.0</ele><time>2026-04-18T17:19:06.646Z</time></trkpt><trkpt lat="10.0446786" lon="-75.259246"><ele>18.0</ele><time>2026-04-18T17:19:07.65Z</time></trkpt><trkpt lat="10.044749" lon="-75.2591993"><ele>18.0</ele><time>2026-04-18T17:19:08.648Z</time></trkpt><trkpt lat="10.0448204" lon="-75.2591565"><ele>18.0</ele><time>2026-04-18T17:19:09.643Z</time></trkpt><trkpt lat="10.044893" lon="-75.2591096"><ele>18.0</ele><time>2026-04-18T17:19:10.642Z</time></trkpt><trkpt lat="10.0449664" lon="-75.2590577"><ele>18.166666666666668</ele><time>2026-04-18T17:19:11.638Z</time></trkpt><trkpt lat="10.0450439" lon="-75.2590104"><ele>18.333333333333332</ele><time>2026-04-18T17:19:12.639Z</time></trkpt><trkpt lat="10.0451134" lon="-75.2589633"><ele>18.5</ele><time>2026-04-18T17:19:13.642Z</time></trkpt><trkpt lat="10.0451801" lon="-75.2589195"><ele>18.666666666666664</ele><time>2026-04-18T17:19:14.64Z</time></trkpt><trkpt lat="10.0452479" lon="-75.2588763"><ele>18.833333333333332</ele><time>2026-04-18T17:19:15.64Z</time></trkpt><trkpt lat="10.0453167" lon="-75.2588371"><ele>19.0</ele><time>2026-04-18T17:19:16.646Z</time></trkpt><trkpt lat="10.0453834" lon="-75.2587944"><ele>19.166666666666664</ele><time>2026-04-18T17:19:17.642Z</time></trkpt><trkpt lat="10.0454511" lon="-75.2587515"><ele>19.333333333333332</ele><time>2026-04-18T17:19:18.641Z</time></trkpt><trkpt lat="10.0455172" lon="-75.2587048"><ele>19.5</ele><time>2026-04-18T17:19:19.641Z</time></trkpt><trkpt lat="10.0455854" lon="-75.2586587"><ele>19.666666666666668</ele><time>2026-04-18T17:19:20.644Z</time></trkpt><trkpt lat="10.045656" lon="-75.258612"><ele>19.833333333333336</ele><time>2026-04-18T17:19:21.648Z</time></trkpt><trkpt lat="10.0457248" lon="-75.2585655"><ele>20.0</ele><time>2026-04-18T17:19:22.655Z</time></trkpt><trkpt lat="10.0457966" lon="-75.2585193"><ele>20.0</ele><time>2026-04-18T17:19:23.65Z</time></trkpt><trkpt lat="10.0458654" lon="-75.2584694"><ele>20.0</ele><time>2026-04-18T17:19:24.641Z</time></trkpt><trkpt lat="10.0459349" lon="-75.258425"><ele>20.0</ele><time>2026-04-18T17:19:25.641Z</time></trkpt><trkpt lat="10.0460088" lon="-75.2583785"><ele>20.0</ele><time>2026-04-18T17:19:26.639Z</time></trkpt><trkpt lat="10.0460786" lon="-75.258334"><ele>20.0</ele><time>2026-04-18T17:19:27.641Z</time></trkpt><trkpt lat="10.0461458" lon="-75.2582879"><ele>20.0</ele><time>2026-04-18T17:19:28.638Z</time></trkpt><trkpt lat="10.0462182" lon="-75.2582401"><ele>20.0</ele><time>2026-04-18T17:19:29.64Z</time></trkpt><trkpt lat="10.0462831" lon="-75.2581959"><ele>20.0</ele><time>2026-04-18T17:19:30.646Z</time></trkpt><trkpt lat="10.0463585" lon="-75.258149"><ele>20.0</ele><time>2026-04-18T17:19:31.65Z</time></trkpt><trkpt lat="10.0464244" lon="-75.2581001"><ele>20.0</ele><time>2026-04-18T17:19:32.648Z</time></trkpt><trkpt lat="10.0464932" lon="-75.258053"><ele>20.0</ele><time>2026-04-18T17:19:33.639Z</time></trkpt><trkpt lat="10.0465632" lon="-75.2580086"><ele>20.0</ele><time>2026-04-18T17:19:34.639Z</time></trkpt><trkpt lat="10.0466325" lon="-75.2579672"><ele>20.5</ele><time>2026-04-18T17:19:35.64Z</time></trkpt><trkpt lat="10.046697" lon="-75.2579235"><ele>21.0</ele><time>2026-04-18T17:19:36.64Z</time></trkpt><trkpt lat="10.0467584" lon="-75.2578803"><ele>21.5</ele><time>2026-04-18T17:19:37.64Z</time></trkpt><trkpt lat="10.0468286" lon="-75.2578389"><ele>22.0</ele><time>2026-04-18T17:19:38.646Z</time></trkpt><trkpt lat="10.0468995" lon="-75.2577947"><ele>22.5</ele><time>2026-04-18T17:19:39.65Z</time></trkpt><trkpt lat="10.0469682" lon="-75.2577466"><ele>23.0</ele><time>2026-04-18T17:19:40.64Z</time></trkpt><trkpt lat="10.0470359" lon="-75.2577016"><ele>23.0</ele><time>2026-04-18T17:19:41.644Z</time></trkpt><trkpt lat="10.0471106" lon="-75.2576535"><ele>23.0</ele><time>2026-04-18T17:19:42.643Z</time></trkpt><trkpt lat="10.0471877" lon="-75.2576047"><ele>23.0</ele><time>2026-04-18T17:19:43.644Z</time></trkpt><trkpt lat="10.0472607" lon="-75.2575551"><ele>23.0</ele><time>2026-04-18T17:19:44.652Z</time></trkpt><trkpt lat="10.0473361" lon="-75.2575081"><ele>23.0</ele><time>2026-04-18T17:19:45.655Z</time></trkpt><trkpt lat="10.0474087" lon="-75.2574589"><ele>23.0</ele><time>2026-04-18T17:19:46.653Z</time></trkpt><trkpt lat="10.0474822" lon="-75.2574076"><ele>23.0</ele><time>2026-04-18T17:19:47.664Z</time></trkpt><trkpt lat="10.0475579" lon="-75.257353"><ele>23.0</ele><time>2026-04-18T17:19:48.649Z</time></trkpt><trkpt lat="10.0476391" lon="-75.2572956"><ele>23.0</ele><time>2026-04-18T17:19:49.642Z</time></trkpt><trkpt lat="10.0477211" lon="-75.2572365"><ele>23.0</ele><time>2026-04-18T17:19:50.641Z</time></trkpt><trkpt lat="10.047806" lon="-75.2571819"><ele>23.0</ele><time>2026-04-18T17:19:51.646Z</time></trkpt><trkpt lat="10.0478827" lon="-75.2571303"><ele>23.0</ele><time>2026-04-18T17:19:52.642Z</time></trkpt><trkpt lat="10.0479592" lon="-75.2570788"><ele>23.0</ele><time>2026-04-18T17:19:53.644Z</time></trkpt><trkpt lat="10.0480362" lon="-75.2570278"><ele>23.0</ele><time>2026-04-18T17:19:54.644Z</time></trkpt><trkpt lat="10.0481148" lon="-75.2569755"><ele>23.0</ele><time>2026-04-18T17:19:55.642Z</time></trkpt><trkpt lat="10.0481919" lon="-75.2569236"><ele>23.0</ele><time>2026-04-18T17:19:56.643Z</time></trkpt><trkpt lat="10.0482705" lon="-75.2568707"><ele>22.799999999999997</ele><time>2026-04-18T17:19:57.642Z</time></trkpt><trkpt lat="10.0483498" lon="-75.2568205"><ele>22.6</ele><time>2026-04-18T17:19:58.643Z</time></trkpt><trkpt lat="10.0484289" lon="-75.2567643"><ele>22.4</ele><time>2026-04-18T17:19:59.643Z</time></trkpt><trkpt lat="10.0485091" lon="-75.2567114"><ele>22.200000000000003</ele><time>2026-04-18T17:20:00.643Z</time></trkpt><trkpt lat="10.048588" lon="-75.2566669"><ele>22.0</ele><time>2026-04-18T17:20:01.644Z</time></trkpt><trkpt lat="10.0486656" lon="-75.2566134"><ele>22.0</ele><time>2026-04-18T17:20:02.642Z</time></trkpt><trkpt lat="10.0487443" lon="-75.2565618"><ele>22.0</ele><time>2026-04-18T17:20:03.644Z</time></trkpt><trkpt lat="10.0488232" lon="-75.2565113"><ele>22.0</ele><time>2026-04-18T17:20:04.644Z</time></trkpt><trkpt lat="10.0489004" lon="-75.2564587"><ele>22.0</ele><time>2026-04-18T17:20:05.644Z</time></trkpt><trkpt lat="10.0489761" lon="-75.2564026"><ele>22.0</ele><time>2026-04-18T17:20:06.644Z</time></trkpt><trkpt lat="10.0490489" lon="-75.2563547"><ele>21.8</ele><time>2026-04-18T17:20:07.643Z</time></trkpt><trkpt lat="10.0491239" lon="-75.2563056"><ele>21.6</ele><time>2026-04-18T17:20:08.644Z</time></trkpt><trkpt lat="10.0491971" lon="-75.2562496"><ele>21.400000000000002</ele><time>2026-04-18T17:20:09.643Z</time></trkpt><trkpt lat="10.0492743" lon="-75.2561929"><ele>21.200000000000003</ele><time>2026-04-18T17:20:10.643Z</time></trkpt><trkpt lat="10.0493516" lon="-75.2561414"><ele>21.0</ele><time>2026-04-18T17:20:11.643Z</time></trkpt><trkpt lat="10.04943" lon="-75.256087"><ele>21.0</ele><time>2026-04-18T17:20:12.641Z</time></trkpt><trkpt lat="10.0495117" lon="-75.2560331"><ele>21.0</ele><time>2026-04-18T17:20:13.642Z</time></trkpt><trkpt lat="10.0495962" lon="-75.2559809"><ele>21.0</ele><time>2026-04-18T17:20:14.643Z</time></trkpt><trkpt lat="10.0496748" lon="-75.2559282"><ele>21.0</ele><time>2026-04-18T17:20:15.642Z</time></trkpt><trkpt lat="10.049756" lon="-75.2558766"><ele>21.0</ele><time>2026-04-18T17:20:16.641Z</time></trkpt><trkpt lat="10.0498361" lon="-75.2558275"><ele>21.0</ele><time>2026-04-18T17:20:17.644Z</time></trkpt><trkpt lat="10.0499195" lon="-75.2557734"><ele>21.0</ele><time>2026-04-18T17:20:18.642Z</time></trkpt><trkpt lat="10.0499997" lon="-75.2557175"><ele>21.0</ele><time>2026-04-18T17:20:19.642Z</time></trkpt><trkpt lat="10.0500789" lon="-75.2556645"><ele>21.0</ele><time>2026-04-18T17:20:20.644Z</time></trkpt><trkpt lat="10.0501523" lon="-75.2556073"><ele>21.0</ele><time>2026-04-18T17:20:21.641Z</time></trkpt><trkpt lat="10.0502322" lon="-75.2555507"><ele>21.200000000000003</ele><time>2026-04-18T17:20:22.65Z</time></trkpt><trkpt lat="10.0503105" lon="-75.2554944"><ele>21.400000000000002</ele><time>2026-04-18T17:20:23.643Z</time></trkpt><trkpt lat="10.0503918" lon="-75.2554418"><ele>21.6</ele><time>2026-04-18T17:20:24.642Z</time></trkpt><trkpt lat="10.0504736" lon="-75.2553871"><ele>21.8</ele><time>2026-04-18T17:20:25.645Z</time></trkpt><trkpt lat="10.0505539" lon="-75.2553328"><ele>22.0</ele><time>2026-04-18T17:20:26.643Z</time></trkpt><trkpt lat="10.0506389" lon="-75.2552819"><ele>22.0</ele><time>2026-04-18T17:20:27.649Z</time></trkpt><trkpt lat="10.0507193" lon="-75.2552232"><ele>22.0</ele><time>2026-04-18T17:20:28.643Z</time></trkpt><trkpt lat="10.0508067" lon="-75.255177"><ele>22.0</ele><time>2026-04-18T17:20:29.643Z</time></trkpt><trkpt lat="10.0508829" lon="-75.2551242"><ele>22.0</ele><time>2026-04-18T17:20:30.643Z</time></trkpt><trkpt lat="10.0509662" lon="-75.2550702"><ele>22.0</ele><time>2026-04-18T17:20:31.649Z</time></trkpt><trkpt lat="10.0510537" lon="-75.2550163"><ele>21.8</ele><time>2026-04-18T17:20:32.647Z</time></trkpt><trkpt lat="10.0511356" lon="-75.2549624"><ele>21.6</ele><time>2026-04-18T17:20:33.641Z</time></trkpt><trkpt lat="10.05122" lon="-75.254905"><ele>21.400000000000002</ele><time>2026-04-18T17:20:34.645Z</time></trkpt><trkpt lat="10.0513064" lon="-75.2548509"><ele>21.200000000000003</ele><time>2026-04-18T17:20:35.644Z</time></trkpt><trkpt lat="10.05139" lon="-75.2547959"><ele>21.0</ele><time>2026-04-18T17:20:36.641Z</time></trkpt><trkpt lat="10.0514908" lon="-75.2547504"><ele>21.6</ele><time>2026-04-18T17:20:37.645Z</time></trkpt><trkpt lat="10.0515713" lon="-75.2546944"><ele>22.200000000000003</ele><time>2026-04-18T17:20:38.643Z</time></trkpt><trkpt lat="10.0516547" lon="-75.2546397"><ele>22.799999999999997</ele><time>2026-04-18T17:20:39.645Z</time></trkpt><trkpt lat="10.0517364" lon="-75.2545853"><ele>23.4</ele><time>2026-04-18T17:20:40.642Z</time></trkpt><trkpt lat="10.0518189" lon="-75.254532"><ele>24.0</ele><time>2026-04-18T17:20:41.645Z</time></trkpt><trkpt lat="10.0519068" lon="-75.2544736"><ele>24.2</ele><time>2026-04-18T17:20:42.639Z</time></trkpt><trkpt lat="10.0519914" lon="-75.2544171"><ele>24.4</ele><time>2026-04-18T17:20:43.643Z</time></trkpt><trkpt lat="10.0520772" lon="-75.2543596"><ele>24.6</ele><time>2026-04-18T17:20:44.643Z</time></trkpt><trkpt lat="10.0521582" lon="-75.2543055"><ele>24.8</ele><time>2026-04-18T17:20:45.646Z</time></trkpt><trkpt lat="10.0522399" lon="-75.2542534"><ele>25.0</ele><time>2026-04-18T17:20:46.642Z</time></trkpt><trkpt lat="10.0523242" lon="-75.2542017"><ele>25.0</ele><time>2026-04-18T17:20:47.645Z</time></trkpt><trkpt lat="10.0524062" lon="-75.2541547"><ele>25.0</ele><time>2026-04-18T17:20:48.641Z</time></trkpt><trkpt lat="10.052487" lon="-75.2541027"><ele>25.0</ele><time>2026-04-18T17:20:49.643Z</time></trkpt><trkpt lat="10.052566" lon="-75.2540543"><ele>25.0</ele><time>2026-04-18T17:20:50.644Z</time></trkpt><trkpt lat="10.0526411" lon="-75.2540086"><ele>25.0</ele><time>2026-04-18T17:20:51.643Z</time></trkpt><trkpt lat="10.0527176" lon="-75.2539596"><ele>25.666666666666668</ele><time>2026-04-18T17:20:52.641Z</time></trkpt><trkpt lat="10.0527867" lon="-75.253913"><ele>26.333333333333336</ele><time>2026-04-18T17:20:53.642Z</time></trkpt><trkpt lat="10.0528575" lon="-75.2538669"><ele>27.0</ele><time>2026-04-18T17:20:54.644Z</time></trkpt><trkpt lat="10.0529291" lon="-75.2538169"><ele>27.666666666666664</ele><time>2026-04-18T17:20:55.646Z</time></trkpt><trkpt lat="10.0530033" lon="-75.2537715"><ele>28.333333333333332</ele><time>2026-04-18T17:20:56.644Z</time></trkpt><trkpt lat="10.0530767" lon="-75.2537271"><ele>29.0</ele><time>2026-04-18T17:20:57.644Z</time></trkpt><trkpt lat="10.0531514" lon="-75.2536788"><ele>28.999999999999996</ele><time>2026-04-18T17:20:58.648Z</time></trkpt><trkpt lat="10.0532193" lon="-75.2536331"><ele>29.0</ele><time>2026-04-18T17:20:59.647Z</time></trkpt><trkpt lat="10.0532875" lon="-75.253585"><ele>29.0</ele><time>2026-04-18T17:21:00.645Z</time></trkpt><trkpt lat="10.0533622" lon="-75.2535388"><ele>29.0</ele><time>2026-04-18T17:21:01.645Z</time></trkpt><trkpt lat="10.0534344" lon="-75.2534883"><ele>28.999999999999996</ele><time>2026-04-18T17:21:02.649Z</time></trkpt><trkpt lat="10.0535085" lon="-75.2534425"><ele>29.0</ele><time>2026-04-18T17:21:03.651Z</time></trkpt><trkpt lat="10.0535776" lon="-75.2533957"><ele>29.499999999999996</ele><time>2026-04-18T17:21:04.644Z</time></trkpt><trkpt lat="10.0536478" lon="-75.253347"><ele>30.0</ele><time>2026-04-18T17:21:05.644Z</time></trkpt><trkpt lat="10.0537146" lon="-75.2532939"><ele>30.5</ele><time>2026-04-18T17:21:06.643Z</time></trkpt><trkpt lat="10.0537849" lon="-75.2532462"><ele>31.0</ele><time>2026-04-18T17:21:07.642Z</time></trkpt><trkpt lat="10.0538498" lon="-75.2532019"><ele>31.499999999999996</ele><time>2026-04-18T17:21:08.647Z</time></trkpt><trkpt lat="10.0539198" lon="-75.2531568"><ele>32.0</ele><time>2026-04-18T17:21:09.644Z</time></trkpt><trkpt lat="10.053985" lon="-75.2531077"><ele>32.0</ele><time>2026-04-18T17:21:10.644Z</time></trkpt><trkpt lat="10.0540475" lon="-75.2530655"><ele>31.999999999999996</ele><time>2026-04-18T17:21:11.642Z</time></trkpt><trkpt lat="10.054115" lon="-75.2530318"><ele>32.0</ele><time>2026-04-18T17:21:12.646Z</time></trkpt><trkpt lat="10.0541755" lon="-75.2529991"><ele>32.0</ele><time>2026-04-18T17:21:13.642Z</time></trkpt><trkpt lat="10.0542353" lon="-75.252953"><ele>31.999999999999996</ele><time>2026-04-18T17:21:14.642Z</time></trkpt><trkpt lat="10.0542937" lon="-75.2529109"><ele>32.0</ele><time>2026-04-18T17:21:15.639Z</time></trkpt><trkpt lat="10.0543514" lon="-75.2528693"><ele>32.0</ele><time>2026-04-18T17:21:16.641Z</time></trkpt><trkpt lat="10.0544108" lon="-75.252829"><ele>31.166666666666664</ele><time>2026-04-18T17:21:17.641Z</time></trkpt><trkpt lat="10.0544699" lon="-75.2527895"><ele>30.333333333333332</ele><time>2026-04-18T17:21:18.643Z</time></trkpt><trkpt lat="10.0545326" lon="-75.2527498"><ele>29.5</ele><time>2026-04-18T17:21:19.642Z</time></trkpt><trkpt lat="10.0545956" lon="-75.2527128"><ele>28.666666666666664</ele><time>2026-04-18T17:21:20.642Z</time></trkpt><trkpt lat="10.0546587" lon="-75.2526713"><ele>27.833333333333332</ele><time>2026-04-18T17:21:21.642Z</time></trkpt><trkpt lat="10.0547249" lon="-75.2526288"><ele>27.0</ele><time>2026-04-18T17:21:22.639Z</time></trkpt><trkpt lat="10.0547942" lon="-75.252589"><ele>27.0</ele><time>2026-04-18T17:21:23.641Z</time></trkpt><trkpt lat="10.0548585" lon="-75.2525496"><ele>27.0</ele><time>2026-04-18T17:21:24.642Z</time></trkpt><trkpt lat="10.0549247" lon="-75.2525085"><ele>27.0</ele><time>2026-04-18T17:21:25.644Z</time></trkpt><trkpt lat="10.0549914" lon="-75.252461"><ele>27.0</ele><time>2026-04-18T17:21:26.636Z</time></trkpt><trkpt lat="10.0550575" lon="-75.2524161"><ele>27.0</ele><time>2026-04-18T17:21:27.638Z</time></trkpt><trkpt lat="10.0551219" lon="-75.2523683"><ele>27.0</ele><time>2026-04-18T17:21:28.639Z</time></trkpt><trkpt lat="10.0551868" lon="-75.2523244"><ele>26.5</ele><time>2026-04-18T17:21:29.639Z</time></trkpt><trkpt lat="10.0552541" lon="-75.252277"><ele>26.0</ele><time>2026-04-18T17:21:30.639Z</time></trkpt><trkpt lat="10.0553196" lon="-75.2522325"><ele>25.5</ele><time>2026-04-18T17:21:31.648Z</time></trkpt><trkpt lat="10.0553918" lon="-75.2521877"><ele>25.0</ele><time>2026-04-18T17:21:32.639Z</time></trkpt><trkpt lat="10.0554647" lon="-75.2521418"><ele>24.5</ele><time>2026-04-18T17:21:33.642Z</time></trkpt><trkpt lat="10.0555389" lon="-75.2520959"><ele>24.0</ele><time>2026-04-18T17:21:34.64Z</time></trkpt><trkpt lat="10.055614" lon="-75.2520457"><ele>24.0</ele><time>2026-04-18T17:21:35.638Z</time></trkpt><trkpt lat="10.0556899" lon="-75.2519978"><ele>24.0</ele><time>2026-04-18T17:21:36.64Z</time></trkpt><trkpt lat="10.0557668" lon="-75.2519485"><ele>24.0</ele><time>2026-04-18T17:21:37.641Z</time></trkpt><trkpt lat="10.0558426" lon="-75.2518968"><ele>24.0</ele><time>2026-04-18T17:21:38.639Z</time></trkpt><trkpt lat="10.0559193" lon="-75.2518499"><ele>24.0</ele><time>2026-04-18T17:21:39.638Z</time></trkpt><trkpt lat="10.0559933" lon="-75.2517992"><ele>23.4</ele><time>2026-04-18T17:21:40.641Z</time></trkpt><trkpt lat="10.0560691" lon="-75.2517463"><ele>22.799999999999997</ele><time>2026-04-18T17:21:41.646Z</time></trkpt><trkpt lat="10.0561463" lon="-75.2516935"><ele>22.200000000000003</ele><time>2026-04-18T17:21:42.637Z</time></trkpt><trkpt lat="10.0562228" lon="-75.2516444"><ele>21.6</ele><time>2026-04-18T17:21:43.639Z</time></trkpt><trkpt lat="10.0562986" lon="-75.2515924"><ele>21.0</ele><time>2026-04-18T17:21:44.638Z</time></trkpt><trkpt lat="10.0563745" lon="-75.2515407"><ele>21.0</ele><time>2026-04-18T17:21:45.638Z</time></trkpt><trkpt lat="10.0564508" lon="-75.2514923"><ele>21.0</ele><time>2026-04-18T17:21:46.642Z</time></trkpt><trkpt lat="10.056521" lon="-75.2514476"><ele>21.0</ele><time>2026-04-18T17:21:47.639Z</time></trkpt><trkpt lat="10.0565958" lon="-75.251404"><ele>21.0</ele><time>2026-04-18T17:21:48.642Z</time></trkpt><trkpt lat="10.0566643" lon="-75.2513556"><ele>21.0</ele><time>2026-04-18T17:21:49.649Z</time></trkpt><trkpt lat="10.0567299" lon="-75.2513095"><ele>21.0</ele><time>2026-04-18T17:21:50.646Z</time></trkpt><trkpt lat="10.0567992" lon="-75.251262"><ele>22.0</ele><time>2026-04-18T17:21:51.642Z</time></trkpt><trkpt lat="10.0568685" lon="-75.2512189"><ele>23.0</ele><time>2026-04-18T17:21:52.641Z</time></trkpt><trkpt lat="10.0569377" lon="-75.2511762"><ele>24.0</ele><time>2026-04-18T17:21:53.639Z</time></trkpt><trkpt lat="10.0570026" lon="-75.2511335"><ele>25.0</ele><time>2026-04-18T17:21:54.639Z</time></trkpt><trkpt lat="10.0570707" lon="-75.2510929"><ele>26.0</ele><time>2026-04-18T17:21:55.639Z</time></trkpt><trkpt lat="10.057138" lon="-75.2510523"><ele>27.0</ele><time>2026-04-18T17:21:56.642Z</time></trkpt><trkpt lat="10.0572039" lon="-75.2510076"><ele>27.0</ele><time>2026-04-18T17:21:57.641Z</time></trkpt><trkpt lat="10.0572673" lon="-75.2509617"><ele>27.0</ele><time>2026-04-18T17:21:58.641Z</time></trkpt><trkpt lat="10.0573315" lon="-75.2509161"><ele>27.0</ele><time>2026-04-18T17:21:59.645Z</time></trkpt><trkpt lat="10.0573975" lon="-75.2508663"><ele>27.0</ele><time>2026-04-18T17:22:00.644Z</time></trkpt><trkpt lat="10.0539198" lon="-75.2531568"><ele>27.0</ele><time>2026-04-18T17:21:09.644Z</time></trkpt><trkpt lat="10.053985" lon="-75.2531077"><ele>27.0</ele><time>2026-04-18T17:21:10.644Z</time></trkpt><trkpt lat="10.0540475" lon="-75.2530655"><ele>27.0</ele><time>2026-04-18T17:21:11.642Z</time></trkpt><trkpt lat="10.054115" lon="-75.2530318"><ele>27.0</ele><time>2026-04-18T17:21:12.646Z</time></trkpt><trkpt lat="10.0541755" lon="-75.2529991"><ele>27.0</ele><time>2026-04-18T17:21:13.642Z</time></trkpt><trkpt lat="10.0542353" lon="-75.252953"><ele>27.0</ele><time>2026-04-18T17:21:14.642Z</time></trkpt><trkpt lat="10.0542937" lon="-75.2529109"><ele>27.0</ele><time>2026-04-18T17:21:15.639Z</time></trkpt><trkpt lat="10.0543514" lon="-75.2528693"><ele>27.0</ele><time>2026-04-18T17:21:16.641Z</time></trkpt><trkpt lat="10.0544108" lon="-75.252829"><ele>27.0</ele><time>2026-04-18T17:21:17.641Z</time></trkpt><trkpt lat="10.0544699" lon="-75.2527895"><ele>27.0</ele><time>2026-04-18T17:21:18.643Z</time></trkpt><trkpt lat="10.0545326" lon="-75.2527498"><ele>27.0</ele><time>2026-04-18T17:21:19.642Z</time></trkpt><trkpt lat="10.0545956" lon="-75.2527128"><ele>27.0</ele><time>2026-04-18T17:21:20.642Z</time></trkpt><trkpt lat="10.0546587" lon="-75.2526713"><ele>27.0</ele><time>2026-04-18T17:21:21.642Z</time></trkpt><trkpt lat="10.0547249" lon="-75.2526288"><ele>27.0</ele><time>2026-04-18T17:21:22.639Z</time></trkpt><trkpt lat="10.0547942" lon="-75.252589"><ele>27.0</ele><time>2026-04-18T17:21:23.641Z</time></trkpt><trkpt lat="10.0548585" lon="-75.2525496"><ele>27.0</ele><time>2026-04-18T17:21:24.642Z</time></trkpt><trkpt lat="10.0549247" lon="-75.2525085"><ele>27.0</ele><time>2026-04-18T17:21:25.644Z</time></trkpt><trkpt lat="10.0549914" lon="-75.252461"><ele>27.0</ele><time>2026-04-18T17:21:26.636Z</time></trkpt><trkpt lat="10.0550575" lon="-75.2524161"><ele>27.0</ele><time>2026-04-18T17:21:27.638Z</time></trkpt><trkpt lat="10.0551219" lon="-75.2523683"><ele>27.0</ele><time>2026-04-18T17:21:28.639Z</time></trkpt><trkpt lat="10.0551868" lon="-75.2523244"><ele>26.5</ele><time>2026-04-18T17:21:29.639Z</time></trkpt><trkpt lat="10.0552541" lon="-75.252277"><ele>26.0</ele><time>2026-04-18T17:21:30.639Z</time></trkpt><trkpt lat="10.0553196" lon="-75.2522325"><ele>25.5</ele><time>2026-04-18T17:21:31.648Z</time></trkpt><trkpt lat="10.0553918" lon="-75.2521877"><ele>25.0</ele><time>2026-04-18T17:21:32.639Z</time></trkpt><trkpt lat="10.0554647" lon="-75.2521418"><ele>24.5</ele><time>2026-04-18T17:21:33.642Z</time></trkpt><trkpt lat="10.0555389" lon="-75.2520959"><ele>24.0</ele><time>2026-04-18T17:21:34.64Z</time></trkpt><trkpt lat="10.055614" lon="-75.2520457"><ele>24.0</ele><time>2026-04-18T17:21:35.638Z</time></trkpt><trkpt lat="10.0556899" lon="-75.2519978"><ele>24.0</ele><time>2026-04-18T17:21:36.64Z</time></trkpt><trkpt lat="10.0557668" lon="-75.2519485"><ele>24.0</ele><time>2026-04-18T17:21:37.641Z</time></trkpt><trkpt lat="10.0558426" lon="-75.2518968"><ele>24.0</ele><time>2026-04-18T17:21:38.639Z</time></trkpt><trkpt lat="10.0559193" lon="-75.2518499"><ele>24.0</ele><time>2026-04-18T17:21:39.638Z</time></trkpt><trkpt lat="10.0559933" lon="-75.2517992"><ele>23.4</ele><time>2026-04-18T17:21:40.641Z</time></trkpt><trkpt lat="10.0560691" lon="-75.2517463"><ele>22.799999999999997</ele><time>2026-04-18T17:21:41.646Z</time></trkpt><trkpt lat="10.0561463" lon="-75.2516935"><ele>22.200000000000003</ele><time>2026-04-18T17:21:42.637Z</time></trkpt><trkpt lat="10.0562228" lon="-75.2516444"><ele>21.6</ele><time>2026-04-18T17:21:43.639Z</time></trkpt><trkpt lat="10.0562986" lon="-75.2515924"><ele>21.0</ele><time>2026-04-18T17:21:44.638Z</time></trkpt><trkpt lat="10.0563745" lon="-75.2515407"><ele>21.0</ele><time>2026-04-18T17:21:45.638Z</time></trkpt><trkpt lat="10.0564508" lon="-75.2514923"><ele>21.0</ele><time>2026-04-18T17:21:46.642Z</time></trkpt><trkpt lat="10.056521" lon="-75.2514476"><ele>21.0</ele><time>2026-04-18T17:21:47.639Z</time></trkpt><trkpt lat="10.0565958" lon="-75.251404"><ele>21.0</ele><time>2026-04-18T17:21:48.642Z</time></trkpt><trkpt lat="10.0566643" lon="-75.2513556"><ele>21.0</ele><time>2026-04-18T17:21:49.649Z</time></trkpt><trkpt lat="10.0567299" lon="-75.2513095"><ele>21.0</ele><time>2026-04-18T17:21:50.646Z</time></trkpt><trkpt lat="10.0567992" lon="-75.251262"><ele>22.0</ele><time>2026-04-18T17:21:51.642Z</time></trkpt><trkpt lat="10.0568685" lon="-75.2512189"><ele>23.0</ele><time>2026-04-18T17:21:52.641Z</time></trkpt><trkpt lat="10.0569377" lon="-75.2511762"><ele>24.0</ele><time>2026-04-18T17:21:53.639Z</time></trkpt><trkpt lat="10.0570026" lon="-75.2511335"><ele>25.0</ele><time>2026-04-18T17:21:54.639Z</time></trkpt><trkpt lat="10.0570707" lon="-75.2510929"><ele>26.0</ele><time>2026-04-18T17:21:55.639Z</time></trkpt><trkpt lat="10.057138" lon="-75.2510523"><ele>27.0</ele><time>2026-04-18T17:21:56.642Z</time></trkpt><trkpt lat="10.0572039" lon="-75.2510076"><ele>27.0</ele><time>2026-04-18T17:21:57.641Z</time></trkpt><trkpt lat="10.0572673" lon="-75.2509617"><ele>27.0</ele><time>2026-04-18T17:21:58.641Z</time></trkpt><trkpt lat="10.0573315" lon="-75.2509161"><ele>27.0</ele><time>2026-04-18T17:21:59.645Z</time></trkpt><trkpt lat="10.0573975" lon="-75.2508663"><ele>27.0</ele><time>2026-04-18T17:22:00.644Z</time></trkpt><trkpt lat="10.0574649" lon="-75.2508226"><ele>27.0</ele><time>2026-04-18T17:22:01.638Z</time></trkpt><trkpt lat="10.0575317" lon="-75.2507793"><ele>27.0</ele><time>2026-04-18T17:22:02.642Z</time></trkpt><trkpt lat="10.0576002" lon="-75.250738"><ele>27.333333333333332</ele><time>2026-04-18T17:22:03.648Z</time></trkpt><trkpt lat="10.057659" lon="-75.2506969"><ele>27.666666666666664</ele><time>2026-04-18T17:22:04.639Z</time></trkpt><trkpt lat="10.057724" lon="-75.2506564"><ele>28.0</ele><time>2026-04-18T17:22:05.639Z</time></trkpt><trkpt lat="10.0577876" lon="-75.2506206"><ele>28.333333333333332</ele><time>2026-04-18T17:22:06.638Z</time></trkpt><trkpt lat="10.0578447" lon="-75.250579"><ele>28.666666666666664</ele><time>2026-04-18T17:22:07.639Z</time></trkpt><trkpt lat="10.0579115" lon="-75.2505356"><ele>29.0</ele><time>2026-04-18T17:22:08.648Z</time></trkpt><trkpt lat="10.0579813" lon="-75.2504923"><ele>28.999999999999996</ele><time>2026-04-18T17:22:09.64Z</time></trkpt><trkpt lat="10.0580481" lon="-75.25045"><ele>29.0</ele><time>2026-04-18T17:22:10.636Z</time></trkpt><trkpt lat="10.0581134" lon="-75.2504077"><ele>29.0</ele><time>2026-04-18T17:22:11.638Z</time></trkpt><trkpt lat="10.0581758" lon="-75.2503674"><ele>29.0</ele><time>2026-04-18T17:22:12.637Z</time></trkpt><trkpt lat="10.0582383" lon="-75.2503227"><ele>28.999999999999996</ele><time>2026-04-18T17:22:13.639Z</time></trkpt><trkpt lat="10.0583019" lon="-75.2502783"><ele>29.0</ele><time>2026-04-18T17:22:14.647Z</time></trkpt><trkpt lat="10.0583689" lon="-75.2502356"><ele>28.333333333333332</ele><time>2026-04-18T17:22:15.64Z</time></trkpt><trkpt lat="10.0584333" lon="-75.2501924"><ele>27.666666666666664</ele><time>2026-04-18T17:22:16.64Z</time></trkpt><trkpt lat="10.0585025" lon="-75.2501499"><ele>27.0</ele><time>2026-04-18T17:22:17.639Z</time></trkpt><trkpt lat="10.0585728" lon="-75.2501029"><ele>26.333333333333336</ele><time>2026-04-18T17:22:18.647Z</time></trkpt><trkpt lat="10.058641" lon="-75.2500573"><ele>25.666666666666668</ele><time>2026-04-18T17:22:19.64Z</time></trkpt><trkpt lat="10.058712" lon="-75.2500078"><ele>25.0</ele><time>2026-04-18T17:22:20.639Z</time></trkpt><trkpt lat="10.0587852" lon="-75.249958"><ele>25.000000000000004</ele><time>2026-04-18T17:22:21.644Z</time></trkpt><trkpt lat="10.0588566" lon="-75.2499098"><ele>25.0</ele><time>2026-04-18T17:22:22.642Z</time></trkpt><trkpt lat="10.0589288" lon="-75.2498581"><ele>25.0</ele><time>2026-04-18T17:22:23.643Z</time></trkpt><trkpt lat="10.0590003" lon="-75.2498102"><ele>25.0</ele><time>2026-04-18T17:22:24.649Z</time></trkpt><trkpt lat="10.0590779" lon="-75.2497587"><ele>25.000000000000004</ele><time>2026-04-18T17:22:25.645Z</time></trkpt><trkpt lat="10.0591571" lon="-75.249711"><ele>25.0</ele><time>2026-04-18T17:22:26.644Z</time></trkpt><trkpt lat="10.0592381" lon="-75.2496613"><ele>24.4</ele><time>2026-04-18T17:22:27.641Z</time></trkpt><trkpt lat="10.0593207" lon="-75.2496112"><ele>23.8</ele><time>2026-04-18T17:22:28.643Z</time></trkpt><trkpt lat="10.0594013" lon="-75.249558"><ele>23.200000000000003</ele><time>2026-04-18T17:22:29.64Z</time></trkpt><trkpt lat="10.0594821" lon="-75.2495049"><ele>22.6</ele><time>2026-04-18T17:22:30.645Z</time></trkpt><trkpt lat="10.0595656" lon="-75.2494498"><ele>22.0</ele><time>2026-04-18T17:22:31.64Z</time></trkpt><trkpt lat="10.0596491" lon="-75.2493957"><ele>22.0</ele><time>2026-04-18T17:22:32.641Z</time></trkpt><trkpt lat="10.0597328" lon="-75.249343"><ele>22.0</ele><time>2026-04-18T17:22:33.643Z</time></trkpt><trkpt lat="10.0598162" lon="-75.2492874"><ele>22.0</ele><time>2026-04-18T17:22:34.642Z</time></trkpt><trkpt lat="10.0599006" lon="-75.2492294"><ele>22.0</ele><time>2026-04-18T17:22:35.643Z</time></trkpt><trkpt lat="10.0599868" lon="-75.2491715"><ele>22.0</ele><time>2026-04-18T17:22:36.644Z</time></trkpt><trkpt lat="10.0600676" lon="-75.2491184"><ele>22.0</ele><time>2026-04-18T17:22:37.644Z</time></trkpt><trkpt lat="10.0601563" lon="-75.2490609"><ele>22.0</ele><time>2026-04-18T17:22:38.643Z</time></trkpt><trkpt lat="10.0602439" lon="-75.2490012"><ele>22.0</ele><time>2026-04-18T17:22:39.641Z</time></trkpt><trkpt lat="10.0603281" lon="-75.2489455"><ele>22.0</ele><time>2026-04-18T17:22:40.641Z</time></trkpt><trkpt lat="10.0604143" lon="-75.248889"><ele>22.0</ele><time>2026-04-18T17:22:41.639Z</time></trkpt><trkpt lat="10.0604959" lon="-75.2488329"><ele>22.0</ele><time>2026-04-18T17:22:42.645Z</time></trkpt><trkpt lat="10.0605803" lon="-75.2487776"><ele>22.0</ele><time>2026-04-18T17:22:43.638Z</time></trkpt><trkpt lat="10.0606675" lon="-75.2487243"><ele>22.0</ele><time>2026-04-18T17:22:44.637Z</time></trkpt><trkpt lat="10.0607525" lon="-75.2486708"><ele>22.0</ele><time>2026-04-18T17:22:45.638Z</time></trkpt><trkpt lat="10.0608419" lon="-75.2486161"><ele>22.0</ele><time>2026-04-18T17:22:46.637Z</time></trkpt><trkpt lat="10.0609266" lon="-75.2485646"><ele>22.200000000000003</ele><time>2026-04-18T17:22:47.64Z</time></trkpt><trkpt lat="10.0610114" lon="-75.248522"><ele>22.4</ele><time>2026-04-18T17:22:48.645Z</time></trkpt><trkpt lat="10.061096" lon="-75.2484787"><ele>22.6</ele><time>2026-04-18T17:22:49.646Z</time></trkpt><trkpt lat="10.0611751" lon="-75.2484284"><ele>22.799999999999997</ele><time>2026-04-18T17:22:50.638Z</time></trkpt><trkpt lat="10.0612601" lon="-75.2483863"><ele>23.0</ele><time>2026-04-18T17:22:51.639Z</time></trkpt><trkpt lat="10.0613432" lon="-75.2483482"><ele>23.0</ele><time>2026-04-18T17:22:52.639Z</time></trkpt><trkpt lat="10.0614276" lon="-75.2483137"><ele>23.0</ele><time>2026-04-18T17:22:53.645Z</time></trkpt><trkpt lat="10.0615114" lon="-75.2482678"><ele>23.0</ele><time>2026-04-18T17:22:54.643Z</time></trkpt><trkpt lat="10.0615937" lon="-75.248231"><ele>23.0</ele><time>2026-04-18T17:22:55.644Z</time></trkpt><trkpt lat="10.0616791" lon="-75.2482049"><ele>23.0</ele><time>2026-04-18T17:22:56.645Z</time></trkpt><trkpt lat="10.0617632" lon="-75.2481734"><ele>23.4</ele><time>2026-04-18T17:22:57.64Z</time></trkpt><trkpt lat="10.0618514" lon="-75.248148"><ele>23.799999999999997</ele><time>2026-04-18T17:22:58.641Z</time></trkpt><trkpt lat="10.0619368" lon="-75.2481216"><ele>24.2</ele><time>2026-04-18T17:22:59.64Z</time></trkpt><trkpt lat="10.0620261" lon="-75.2480988"><ele>24.6</ele><time>2026-04-18T17:23:00.638Z</time></trkpt><trkpt lat="10.0621094" lon="-75.2480764"><ele>25.0</ele><time>2026-04-18T17:23:01.64Z</time></trkpt><trkpt lat="10.0622001" lon="-75.2480632"><ele>25.4</ele><time>2026-04-18T17:23:02.643Z</time></trkpt><trkpt lat="10.0622897" lon="-75.2480492"><ele>25.8</ele><time>2026-04-18T17:23:03.639Z</time></trkpt><trkpt lat="10.062381" lon="-75.24803"><ele>26.200000000000003</ele><time>2026-04-18T17:23:04.641Z</time></trkpt><trkpt lat="10.0624729" lon="-75.248012"><ele>26.6</ele><time>2026-04-18T17:23:05.642Z</time></trkpt><trkpt lat="10.0625689" lon="-75.2479967"><ele>27.0</ele><time>2026-04-18T17:23:06.638Z</time></trkpt><trkpt lat="10.0626667" lon="-75.2479894"><ele>26.200000000000003</ele><time>2026-04-18T17:23:07.637Z</time></trkpt><trkpt lat="10.0627672" lon="-75.2479762"><ele>25.400000000000002</ele><time>2026-04-18T17:23:08.639Z</time></trkpt><trkpt lat="10.0628757" lon="-75.2479634"><ele>24.6</ele><time>2026-04-18T17:23:09.646Z</time></trkpt><trkpt lat="10.0629815" lon="-75.2479548"><ele>23.799999999999997</ele><time>2026-04-18T17:23:10.641Z</time></trkpt><trkpt lat="10.0630886" lon="-75.2479468"><ele>23.0</ele><time>2026-04-18T17:23:11.642Z</time></trkpt><trkpt lat="10.0631923" lon="-75.2479395"><ele>22.599999999999998</ele><time>2026-04-18T17:23:12.641Z</time></trkpt><trkpt lat="10.0632978" lon="-75.2479281"><ele>22.2</ele><time>2026-04-18T17:23:13.636Z</time></trkpt><trkpt lat="10.0634048" lon="-75.2479161"><ele>21.8</ele><time>2026-04-18T17:23:14.646Z</time></trkpt><trkpt lat="10.0635061" lon="-75.2479082"><ele>21.4</ele><time>2026-04-18T17:23:15.639Z</time></trkpt><trkpt lat="10.0636057" lon="-75.2479055"><ele>21.0</ele><time>2026-04-18T17:23:16.636Z</time></trkpt><trkpt lat="10.0637043" lon="-75.2478989"><ele>21.0</ele><time>2026-04-18T17:23:17.641Z</time></trkpt><trkpt lat="10.0638048" lon="-75.2478941"><ele>21.0</ele><time>2026-04-18T17:23:18.642Z</time></trkpt><trkpt lat="10.063905" lon="-75.2478865"><ele>21.0</ele><time>2026-04-18T17:23:19.64Z</time></trkpt><trkpt lat="10.0640012" lon="-75.2478824"><ele>21.0</ele><time>2026-04-18T17:23:20.639Z</time></trkpt><trkpt lat="10.0640946" lon="-75.2478744"><ele>21.0</ele><time>2026-04-18T17:23:21.639Z</time></trkpt><trkpt lat="10.0641943" lon="-75.2478664"><ele>21.0</ele><time>2026-04-18T17:23:22.64Z</time></trkpt><trkpt lat="10.0642887" lon="-75.2478591"><ele>21.0</ele><time>2026-04-18T17:23:23.638Z</time></trkpt><trkpt lat="10.0643819" lon="-75.2478535"><ele>21.0</ele><time>2026-04-18T17:23:24.641Z</time></trkpt><trkpt lat="10.0644777" lon="-75.2478496"><ele>21.0</ele><time>2026-04-18T17:23:25.643Z</time></trkpt><trkpt lat="10.0645714" lon="-75.2478488"><ele>21.0</ele><time>2026-04-18T17:23:26.643Z</time></trkpt><trkpt lat="10.0646687" lon="-75.2478472"><ele>21.0</ele><time>2026-04-18T17:23:27.643Z</time></trkpt><trkpt lat="10.0647663" lon="-75.2478414"><ele>21.0</ele><time>2026-04-18T17:23:28.643Z</time></trkpt><trkpt lat="10.0648602" lon="-75.2478377"><ele>21.0</ele><time>2026-04-18T17:23:29.646Z</time></trkpt><trkpt lat="10.0649578" lon="-75.2478334"><ele>21.0</ele><time>2026-04-18T17:23:30.639Z</time></trkpt><trkpt lat="10.065055" lon="-75.2478275"><ele>21.0</ele><time>2026-04-18T17:23:31.639Z</time></trkpt><trkpt lat="10.0651517" lon="-75.2478214"><ele>21.0</ele><time>2026-04-18T17:23:32.64Z</time></trkpt><trkpt lat="10.0652497" lon="-75.2478245"><ele>21.0</ele><time>2026-04-18T17:23:33.64Z</time></trkpt><trkpt lat="10.0653421" lon="-75.247817"><ele>21.0</ele><time>2026-04-18T17:23:34.641Z</time></trkpt><trkpt lat="10.0654382" lon="-75.2478114"><ele>21.0</ele><time>2026-04-18T17:23:35.644Z</time></trkpt><trkpt lat="10.0655366" lon="-75.2478035"><ele>21.0</ele><time>2026-04-18T17:23:36.646Z</time></trkpt><trkpt lat="10.0656359" lon="-75.247796"><ele>21.0</ele><time>2026-04-18T17:23:37.645Z</time></trkpt><trkpt lat="10.065728" lon="-75.2477863"><ele>21.0</ele><time>2026-04-18T17:23:38.643Z</time></trkpt><trkpt lat="10.0658233" lon="-75.2477787"><ele>21.0</ele><time>2026-04-18T17:23:39.645Z</time></trkpt><trkpt lat="10.0659205" lon="-75.2477702"><ele>21.0</ele><time>2026-04-18T17:23:40.648Z</time></trkpt><trkpt lat="10.066015" lon="-75.2477623"><ele>21.0</ele><time>2026-04-18T17:23:41.638Z</time></trkpt><trkpt lat="10.0661127" lon="-75.2477538"><ele>20.400000000000002</ele><time>2026-04-18T17:23:42.644Z</time></trkpt><trkpt lat="10.0662055" lon="-75.2477461"><ele>19.8</ele><time>2026-04-18T17:23:43.642Z</time></trkpt><trkpt lat="10.0662993" lon="-75.2477389"><ele>19.200000000000003</ele><time>2026-04-18T17:23:44.64Z</time></trkpt><trkpt lat="10.0663932" lon="-75.247728"><ele>18.6</ele><time>2026-04-18T17:23:45.646Z</time></trkpt><trkpt lat="10.0664859" lon="-75.2477204"><ele>18.0</ele><time>2026-04-18T17:23:46.645Z</time></trkpt><trkpt lat="10.0665772" lon="-75.2477144"><ele>18.4</ele><time>2026-04-18T17:23:47.647Z</time></trkpt><trkpt lat="10.0666676" lon="-75.2477098"><ele>18.8</ele><time>2026-04-18T17:23:48.643Z</time></trkpt><trkpt lat="10.0667595" lon="-75.2477044"><ele>19.2</ele><time>2026-04-18T17:23:49.637Z</time></trkpt><trkpt lat="10.0668501" lon="-75.2476922"><ele>19.6</ele><time>2026-04-18T17:23:50.647Z</time></trkpt><trkpt lat="10.0669373" lon="-75.2476822"><ele>20.0</ele><time>2026-04-18T17:23:51.64Z</time></trkpt><trkpt lat="10.0670327" lon="-75.2476771"><ele>20.0</ele><time>2026-04-18T17:23:52.637Z</time></trkpt><trkpt lat="10.0671247" lon="-75.2476706"><ele>20.0</ele><time>2026-04-18T17:23:53.64Z</time></trkpt><trkpt lat="10.0672161" lon="-75.2476661"><ele>20.0</ele><time>2026-04-18T17:23:54.645Z</time></trkpt><trkpt lat="10.0673095" lon="-75.2476632"><ele>20.0</ele><time>2026-04-18T17:23:55.642Z</time></trkpt><trkpt lat="10.0674013" lon="-75.247656"><ele>20.0</ele><time>2026-04-18T17:23:56.646Z</time></trkpt><trkpt lat="10.0674929" lon="-75.2476496"><ele>19.6</ele><time>2026-04-18T17:23:57.642Z</time></trkpt><trkpt lat="10.0675844" lon="-75.2476431"><ele>19.2</ele><time>2026-04-18T17:23:58.645Z</time></trkpt><trkpt lat="10.0676798" lon="-75.2476366"><ele>18.8</ele><time>2026-04-18T17:23:59.641Z</time></trkpt><trkpt lat="10.0677747" lon="-75.2476296"><ele>18.4</ele><time>2026-04-18T17:24:00.641Z</time></trkpt><trkpt lat="10.067871" lon="-75.247621"><ele>18.0</ele><time>2026-04-18T17:24:01.638Z</time></trkpt><trkpt lat="10.0679637" lon="-75.2476134"><ele>18.0</ele><time>2026-04-18T17:24:02.643Z</time></trkpt><trkpt lat="10.068064" lon="-75.2475992"><ele>18.0</ele><time>2026-04-18T17:24:03.64Z</time></trkpt><trkpt lat="10.0681598" lon="-75.2475894"><ele>18.0</ele><time>2026-04-18T17:24:04.642Z</time></trkpt><trkpt lat="10.0682528" lon="-75.2475862"><ele>18.0</ele><time>2026-04-18T17:24:05.66Z</time></trkpt><trkpt lat="10.0683474" lon="-75.2475833"><ele>18.0</ele><time>2026-04-18T17:24:06.641Z</time></trkpt><trkpt lat="10.0684378" lon="-75.2475764"><ele>18.2</ele><time>2026-04-18T17:24:07.64Z</time></trkpt><trkpt lat="10.0685274" lon="-75.2475731"><ele>18.4</ele><time>2026-04-18T17:24:08.645Z</time></trkpt><trkpt lat="10.0686222" lon="-75.2475632"><ele>18.599999999999998</ele><time>2026-04-18T17:24:09.64Z</time></trkpt><trkpt lat="10.0687137" lon="-75.2475582"><ele>18.8</ele><time>2026-04-18T17:24:10.645Z</time></trkpt><trkpt lat="10.0688073" lon="-75.2475511"><ele>19.0</ele><time>2026-04-18T17:24:11.643Z</time></trkpt><trkpt lat="10.0689012" lon="-75.2475414"><ele>19.0</ele><time>2026-04-18T17:24:12.643Z</time></trkpt><trkpt lat="10.0689943" lon="-75.2475359"><ele>19.0</ele><time>2026-04-18T17:24:13.643Z</time></trkpt><trkpt lat="10.069085" lon="-75.2475308"><ele>19.0</ele><time>2026-04-18T17:24:14.643Z</time></trkpt><trkpt lat="10.0691825" lon="-75.247527"><ele>19.0</ele><time>2026-04-18T17:24:15.645Z</time></trkpt><trkpt lat="10.0692714" lon="-75.2475214"><ele>19.0</ele><time>2026-04-18T17:24:16.644Z</time></trkpt><trkpt lat="10.0693573" lon="-75.2475125"><ele>18.4</ele><time>2026-04-18T17:24:17.643Z</time></trkpt><trkpt lat="10.0694475" lon="-75.247505"><ele>17.799999999999997</ele><time>2026-04-18T17:24:18.644Z</time></trkpt><trkpt lat="10.0695422" lon="-75.2474937"><ele>17.200000000000003</ele><time>2026-04-18T17:24:19.642Z</time></trkpt><trkpt lat="10.0696333" lon="-75.2474838"><ele>16.6</ele><time>2026-04-18T17:24:20.645Z</time></trkpt><trkpt lat="10.0697293" lon="-75.2474789"><ele>16.0</ele><time>2026-04-18T17:24:21.645Z</time></trkpt><trkpt lat="10.069822" lon="-75.247468"><ele>16.0</ele><time>2026-04-18T17:24:22.642Z</time></trkpt><trkpt lat="10.0699228" lon="-75.2474598"><ele>16.0</ele><time>2026-04-18T17:24:23.643Z</time></trkpt><trkpt lat="10.0700205" lon="-75.2474548"><ele>16.0</ele><time>2026-04-18T17:24:24.643Z</time></trkpt><trkpt lat="10.0701162" lon="-75.2474485"><ele>16.0</ele><time>2026-04-18T17:24:25.645Z</time></trkpt><trkpt lat="10.0702145" lon="-75.2474425"><ele>16.0</ele><time>2026-04-18T17:24:26.646Z</time></trkpt><trkpt lat="10.0703127" lon="-75.2474362"><ele>16.2</ele><time>2026-04-18T17:24:27.642Z</time></trkpt><trkpt lat="10.0704081" lon="-75.24743"><ele>16.400000000000002</ele><time>2026-04-18T17:24:28.642Z</time></trkpt><trkpt lat="10.0705029" lon="-75.2474234"><ele>16.6</ele><time>2026-04-18T17:24:29.646Z</time></trkpt><trkpt lat="10.0705999" lon="-75.247417"><ele>16.8</ele><time>2026-04-18T17:24:30.64Z</time></trkpt><trkpt lat="10.0706933" lon="-75.2474093"><ele>17.0</ele><time>2026-04-18T17:24:31.644Z</time></trkpt><trkpt lat="10.0707842" lon="-75.2474031"><ele>17.2</ele><time>2026-04-18T17:24:32.647Z</time></trkpt><trkpt lat="10.0708869" lon="-75.2473941"><ele>17.4</ele><time>2026-04-18T17:24:33.64Z</time></trkpt><trkpt lat="10.0709838" lon="-75.2473853"><ele>17.6</ele><time>2026-04-18T17:24:34.644Z</time></trkpt><trkpt lat="10.0710772" lon="-75.2473768"><ele>17.8</ele><time>2026-04-18T17:24:35.644Z</time></trkpt><trkpt lat="10.0711776" lon="-75.2473748"><ele>18.0</ele><time>2026-04-18T17:24:36.641Z</time></trkpt><trkpt lat="10.0712737" lon="-75.2473689"><ele>18.0</ele><time>2026-04-18T17:24:37.643Z</time></trkpt><trkpt lat="10.071369" lon="-75.2473617"><ele>18.0</ele><time>2026-04-18T17:24:38.641Z</time></trkpt><trkpt lat="10.0714672" lon="-75.2473548"><ele>18.0</ele><time>2026-04-18T17:24:39.641Z</time></trkpt><trkpt lat="10.0715653" lon="-75.2473524"><ele>18.0</ele><time>2026-04-18T17:24:40.642Z</time></trkpt><trkpt lat="10.0716623" lon="-75.2473462"><ele>18.0</ele><time>2026-04-18T17:24:41.64Z</time></trkpt><trkpt lat="10.0717628" lon="-75.2473453"><ele>18.0</ele><time>2026-04-18T17:24:42.64Z</time></trkpt><trkpt lat="10.0718584" lon="-75.2473371"><ele>18.0</ele><time>2026-04-18T17:24:43.638Z</time></trkpt><trkpt lat="10.0719544" lon="-75.2473295"><ele>18.0</ele><time>2026-04-18T17:24:44.642Z</time></trkpt><trkpt lat="10.0720609" lon="-75.2473246"><ele>18.0</ele><time>2026-04-18T17:24:45.638Z</time></trkpt><trkpt lat="10.0721559" lon="-75.2473144"><ele>18.0</ele><time>2026-04-18T17:24:46.643Z</time></trkpt><trkpt lat="10.0722497" lon="-75.2473076"><ele>18.0</ele><time>2026-04-18T17:24:47.642Z</time></trkpt><trkpt lat="10.0723445" lon="-75.2473031"><ele>18.0</ele><time>2026-04-18T17:24:48.641Z</time></trkpt><trkpt lat="10.072437" lon="-75.2472961"><ele>18.0</ele><time>2026-04-18T17:24:49.641Z</time></trkpt><trkpt lat="10.0725322" lon="-75.2472889"><ele>18.0</ele><time>2026-04-18T17:24:50.639Z</time></trkpt><trkpt lat="10.0726269" lon="-75.2472818"><ele>18.0</ele><time>2026-04-18T17:24:51.644Z</time></trkpt><trkpt lat="10.0727241" lon="-75.247276"><ele>17.8</ele><time>2026-04-18T17:24:52.643Z</time></trkpt><trkpt lat="10.0728206" lon="-75.2472701"><ele>17.6</ele><time>2026-04-18T17:24:53.641Z</time></trkpt><trkpt lat="10.0729159" lon="-75.2472628"><ele>17.4</ele><time>2026-04-18T17:24:54.641Z</time></trkpt><trkpt lat="10.0730077" lon="-75.2472537"><ele>17.2</ele><time>2026-04-18T17:24:55.641Z</time></trkpt><trkpt lat="10.0731002" lon="-75.2472494"><ele>17.0</ele><time>2026-04-18T17:24:56.641Z</time></trkpt><trkpt lat="10.0731908" lon="-75.2472439"><ele>17.5</ele><time>2026-04-18T17:24:57.638Z</time></trkpt><trkpt lat="10.0732835" lon="-75.2472346"><ele>18.0</ele><time>2026-04-18T17:24:58.637Z</time></trkpt><trkpt lat="10.0733692" lon="-75.2472237"><ele>18.5</ele><time>2026-04-18T17:24:59.637Z</time></trkpt><trkpt lat="10.0734528" lon="-75.2472169"><ele>19.0</ele><time>2026-04-18T17:25:00.636Z</time></trkpt><trkpt lat="10.0735372" lon="-75.2472102"><ele>19.5</ele><time>2026-04-18T17:25:01.639Z</time></trkpt><trkpt lat="10.0736192" lon="-75.2472052"><ele>20.0</ele><time>2026-04-18T17:25:02.64Z</time></trkpt><trkpt lat="10.0737017" lon="-75.247205"><ele>20.0</ele><time>2026-04-18T17:25:03.645Z</time></trkpt><trkpt lat="10.0737833" lon="-75.2472001"><ele>20.0</ele><time>2026-04-18T17:25:04.64Z</time></trkpt><trkpt lat="10.0738695" lon="-75.2471946"><ele>20.0</ele><time>2026-04-18T17:25:05.639Z</time></trkpt><trkpt lat="10.073955" lon="-75.2471891"><ele>20.0</ele><time>2026-04-18T17:25:06.638Z</time></trkpt><trkpt lat="10.0740365" lon="-75.2471819"><ele>20.0</ele><time>2026-04-18T17:25:07.641Z</time></trkpt><trkpt lat="10.0741184" lon="-75.2471766"><ele>20.0</ele><time>2026-04-18T17:25:08.643Z</time></trkpt><trkpt lat="10.074203" lon="-75.2471721"><ele>20.166666666666668</ele><time>2026-04-18T17:25:09.643Z</time></trkpt><trkpt lat="10.0742857" lon="-75.2471651"><ele>20.333333333333336</ele><time>2026-04-18T17:25:10.642Z</time></trkpt><trkpt lat="10.0743677" lon="-75.2471606"><ele>20.5</ele><time>2026-04-18T17:25:11.641Z</time></trkpt><trkpt lat="10.0744558" lon="-75.2471545"><ele>20.666666666666668</ele><time>2026-04-18T17:25:12.642Z</time></trkpt><trkpt lat="10.0745372" lon="-75.2471466"><ele>20.833333333333332</ele><time>2026-04-18T17:25:13.639Z</time></trkpt><trkpt lat="10.0746209" lon="-75.2471431"><ele>21.0</ele><time>2026-04-18T17:25:14.638Z</time></trkpt><trkpt lat="10.0747047" lon="-75.2471391"><ele>21.0</ele><time>2026-04-18T17:25:15.635Z</time></trkpt><trkpt lat="10.0747809" lon="-75.2471303"><ele>21.0</ele><time>2026-04-18T17:25:16.639Z</time></trkpt><trkpt lat="10.0748532" lon="-75.2471262"><ele>21.0</ele><time>2026-04-18T17:25:17.637Z</time></trkpt><trkpt lat="10.0749262" lon="-75.2471216"><ele>21.0</ele><time>2026-04-18T17:25:18.64Z</time></trkpt><trkpt lat="10.0749949" lon="-75.2471147"><ele>21.0</ele><time>2026-04-18T17:25:19.64Z</time></trkpt><trkpt lat="10.0750661" lon="-75.2471058"><ele>21.0</ele><time>2026-04-18T17:25:20.638Z</time></trkpt><trkpt lat="10.0751383" lon="-75.2471"><ele>21.0</ele><time>2026-04-18T17:25:21.64Z</time></trkpt><trkpt lat="10.0752049" lon="-75.2470991"><ele>21.0</ele><time>2026-04-18T17:25:22.639Z</time></trkpt><trkpt lat="10.0752759" lon="-75.2470958"><ele>21.0</ele><time>2026-04-18T17:25:23.65Z</time></trkpt><trkpt lat="10.075348" lon="-75.2470924"><ele>21.0</ele><time>2026-04-18T17:25:24.645Z</time></trkpt><trkpt lat="10.0754194" lon="-75.2470906"><ele>21.0</ele><time>2026-04-18T17:25:25.659Z</time></trkpt><trkpt lat="10.0754849" lon="-75.2470899"><ele>21.0</ele><time>2026-04-18T17:25:26.643Z</time></trkpt><trkpt lat="10.0756071" lon="-75.2470781"><ele>21.0</ele><time>2026-04-18T17:25:28.647Z</time></trkpt><trkpt lat="10.0756756" lon="-75.247075"><ele>21.0</ele><time>2026-04-18T17:25:29.646Z</time></trkpt><trkpt lat="10.0757412" lon="-75.2470699"><ele>21.0</ele><time>2026-04-18T17:25:30.649Z</time></trkpt><trkpt lat="10.0758625" lon="-75.2470675"><ele>21.0</ele><time>2026-04-18T17:25:32.643Z</time></trkpt><trkpt lat="10.0759726" lon="-75.247056"><ele>21.0</ele><time>2026-04-18T17:25:34.642Z</time></trkpt><trkpt lat="10.0760802" lon="-75.2470536"><ele>21.0</ele><time>2026-04-18T17:25:36.643Z</time></trkpt><trkpt lat="10.0761763" lon="-75.24705"><ele>20.8</ele><time>2026-04-18T17:25:38.644Z</time></trkpt><trkpt lat="10.0762685" lon="-75.2470418"><ele>20.6</ele><time>2026-04-18T17:25:40.645Z</time></trkpt><trkpt lat="10.0763597" lon="-75.247039"><ele>20.4</ele><time>2026-04-18T17:25:42.647Z</time></trkpt><trkpt lat="10.0764564" lon="-75.2470347"><ele>20.2</ele><time>2026-04-18T17:25:44.641Z</time></trkpt><trkpt lat="10.0765506" lon="-75.247028"><ele>20.0</ele><time>2026-04-18T17:25:46.642Z</time></trkpt><trkpt lat="10.0766492" lon="-75.2470211"><ele>19.5</ele><time>2026-04-18T17:25:48.646Z</time></trkpt><trkpt lat="10.0767558" lon="-75.247013"><ele>19.0</ele><time>2026-04-18T17:25:50.645Z</time></trkpt><trkpt lat="10.0768706" lon="-75.2470037"><ele>18.5</ele><time>2026-04-18T17:25:52.645Z</time></trkpt><trkpt lat="10.0769903" lon="-75.2469937"><ele>18.0</ele><time>2026-04-18T17:25:54.647Z</time></trkpt><trkpt lat="10.0771077" lon="-75.2469881"><ele>18.0</ele><time>2026-04-18T17:25:56.638Z</time></trkpt><trkpt lat="10.0772343" lon="-75.2469776"><ele>18.0</ele><time>2026-04-18T17:25:58.65Z</time></trkpt><trkpt lat="10.0772996" lon="-75.2469712"><ele>18.0</ele><time>2026-04-18T17:25:59.646Z</time></trkpt><trkpt lat="10.0773639" lon="-75.2469643"><ele>18.0</ele><time>2026-04-18T17:26:00.643Z</time></trkpt><trkpt lat="10.0774281" lon="-75.2469614"><ele>18.0</ele><time>2026-04-18T17:26:01.64Z</time></trkpt><trkpt lat="10.0775472" lon="-75.2469525"><ele>18.0</ele><time>2026-04-18T17:26:03.64Z</time></trkpt><trkpt lat="10.0776642" lon="-75.2469438"><ele>18.166666666666668</ele><time>2026-04-18T17:26:05.657Z</time></trkpt><trkpt lat="10.0777895" lon="-75.2469354"><ele>18.333333333333332</ele><time>2026-04-18T17:26:07.643Z</time></trkpt><trkpt lat="10.0778583" lon="-75.2469331"><ele>18.5</ele><time>2026-04-18T17:26:08.642Z</time></trkpt><trkpt lat="10.0779337" lon="-75.2469359"><ele>18.666666666666664</ele><time>2026-04-18T17:26:09.646Z</time></trkpt><trkpt lat="10.078007" lon="-75.2469262"><ele>18.833333333333332</ele><time>2026-04-18T17:26:10.644Z</time></trkpt><trkpt lat="10.0780839" lon="-75.2469215"><ele>19.0</ele><time>2026-04-18T17:26:11.645Z</time></trkpt><trkpt lat="10.0781577" lon="-75.2469155"><ele>19.0</ele><time>2026-04-18T17:26:12.645Z</time></trkpt><trkpt lat="10.0782519" lon="-75.2469039"><ele>19.0</ele><time>2026-04-18T17:26:13.649Z</time></trkpt><trkpt lat="10.0783265" lon="-75.2468971"><ele>19.0</ele><time>2026-04-18T17:26:14.638Z</time></trkpt><trkpt lat="10.0784084" lon="-75.2468917"><ele>19.0</ele><time>2026-04-18T17:26:15.641Z</time></trkpt><trkpt lat="10.0784846" lon="-75.2468867"><ele>19.0</ele><time>2026-04-18T17:26:16.642Z</time></trkpt><trkpt lat="10.0785726" lon="-75.2468819"><ele>19.0</ele><time>2026-04-18T17:26:17.643Z</time></trkpt><trkpt lat="10.078652" lon="-75.2468757"><ele>19.0</ele><time>2026-04-18T17:26:18.64Z</time></trkpt><trkpt lat="10.078735" lon="-75.2468701"><ele>19.0</ele><time>2026-04-18T17:26:19.64Z</time></trkpt><trkpt lat="10.0788174" lon="-75.2468669"><ele>19.0</ele><time>2026-04-18T17:26:20.641Z</time></trkpt><trkpt lat="10.0789043" lon="-75.2468617"><ele>19.0</ele><time>2026-04-18T17:26:21.645Z</time></trkpt><trkpt lat="10.0789907" lon="-75.2468547"><ele>19.0</ele><time>2026-04-18T17:26:22.646Z</time></trkpt><trkpt lat="10.0790987" lon="-75.2468468"><ele>19.0</ele><time>2026-04-18T17:26:23.64Z</time></trkpt><trkpt lat="10.0791917" lon="-75.2468399"><ele>18.8</ele><time>2026-04-18T17:26:24.643Z</time></trkpt><trkpt lat="10.0792865" lon="-75.2468336"><ele>18.599999999999998</ele><time>2026-04-18T17:26:25.642Z</time></trkpt><trkpt lat="10.0793815" lon="-75.2468286"><ele>18.4</ele><time>2026-04-18T17:26:26.639Z</time></trkpt><trkpt lat="10.0794742" lon="-75.2468216"><ele>18.2</ele><time>2026-04-18T17:26:27.643Z</time></trkpt><trkpt lat="10.0795696" lon="-75.2468168"><ele>18.0</ele><time>2026-04-18T17:26:28.644Z</time></trkpt><trkpt lat="10.079664" lon="-75.2468115"><ele>18.0</ele><time>2026-04-18T17:26:29.643Z</time></trkpt><trkpt lat="10.0797613" lon="-75.2468035"><ele>18.0</ele><time>2026-04-18T17:26:30.639Z</time></trkpt><trkpt lat="10.0798592" lon="-75.2467967"><ele>18.0</ele><time>2026-04-18T17:26:31.643Z</time></trkpt><trkpt lat="10.0799577" lon="-75.2467857"><ele>18.0</ele><time>2026-04-18T17:26:32.642Z</time></trkpt><trkpt lat="10.0800553" lon="-75.246778"><ele>18.0</ele><time>2026-04-18T17:26:33.639Z</time></trkpt><trkpt lat="10.080149" lon="-75.2467741"><ele>17.8</ele><time>2026-04-18T17:26:34.645Z</time></trkpt><trkpt lat="10.0802479" lon="-75.246767"><ele>17.6</ele><time>2026-04-18T17:26:35.645Z</time></trkpt><trkpt lat="10.0803448" lon="-75.2467617"><ele>17.4</ele><time>2026-04-18T17:26:36.644Z</time></trkpt><trkpt lat="10.0804451" lon="-75.2467545"><ele>17.2</ele><time>2026-04-18T17:26:37.638Z</time></trkpt><trkpt lat="10.0805427" lon="-75.2467467"><ele>17.0</ele><time>2026-04-18T17:26:38.645Z</time></trkpt><trkpt lat="10.0806437" lon="-75.2467375"><ele>17.0</ele><time>2026-04-18T17:26:39.645Z</time></trkpt><trkpt lat="10.0807453" lon="-75.2467288"><ele>17.0</ele><time>2026-04-18T17:26:40.643Z</time></trkpt><trkpt lat="10.0808456" lon="-75.2467213"><ele>17.0</ele><time>2026-04-18T17:26:41.641Z</time></trkpt><trkpt lat="10.0809474" lon="-75.2467127"><ele>17.0</ele><time>2026-04-18T17:26:42.642Z</time></trkpt><trkpt lat="10.0810472" lon="-75.2467067"><ele>17.0</ele><time>2026-04-18T17:26:43.645Z</time></trkpt><trkpt lat="10.0811551" lon="-75.2466974"><ele>16.4</ele><time>2026-04-18T17:26:44.639Z</time></trkpt><trkpt lat="10.0812646" lon="-75.2466953"><ele>15.799999999999999</ele><time>2026-04-18T17:26:45.642Z</time></trkpt><trkpt lat="10.0813661" lon="-75.2466941"><ele>15.2</ele><time>2026-04-18T17:26:46.646Z</time></trkpt><trkpt lat="10.0814651" lon="-75.2466843"><ele>14.6</ele><time>2026-04-18T17:26:47.641Z</time></trkpt><trkpt lat="10.0815713" lon="-75.2466788"><ele>14.0</ele><time>2026-04-18T17:26:48.64Z</time></trkpt><trkpt lat="10.0816757" lon="-75.2466714"><ele>13.799999999999999</ele><time>2026-04-18T17:26:49.64Z</time></trkpt><trkpt lat="10.0817841" lon="-75.246664"><ele>13.599999999999998</ele><time>2026-04-18T17:26:50.642Z</time></trkpt><trkpt lat="10.0818903" lon="-75.2466545"><ele>13.4</ele><time>2026-04-18T17:26:51.64Z</time></trkpt><trkpt lat="10.0819945" lon="-75.2466457"><ele>13.2</ele><time>2026-04-18T17:26:52.642Z</time></trkpt><trkpt lat="10.0820989" lon="-75.2466361"><ele>13.0</ele><time>2026-04-18T17:26:53.642Z</time></trkpt><trkpt lat="10.0822037" lon="-75.2466316"><ele>13.0</ele><time>2026-04-18T17:26:54.636Z</time></trkpt><trkpt lat="10.0823038" lon="-75.2466198"><ele>13.0</ele><time>2026-04-18T17:26:55.643Z</time></trkpt><trkpt lat="10.0824055" lon="-75.246612"><ele>13.0</ele><time>2026-04-18T17:26:56.64Z</time></trkpt><trkpt lat="10.0825035" lon="-75.2465987"><ele>13.0</ele><time>2026-04-18T17:26:57.638Z</time></trkpt><trkpt lat="10.0826044" lon="-75.2465908"><ele>13.0</ele><time>2026-04-18T17:26:58.643Z</time></trkpt><trkpt lat="10.0827088" lon="-75.2465854"><ele>13.2</ele><time>2026-04-18T17:26:59.638Z</time></trkpt><trkpt lat="10.0828109" lon="-75.246579"><ele>13.4</ele><time>2026-04-18T17:27:00.637Z</time></trkpt><trkpt lat="10.0829117" lon="-75.2465698"><ele>13.599999999999998</ele><time>2026-04-18T17:27:01.637Z</time></trkpt><trkpt lat="10.083018" lon="-75.2465647"><ele>13.799999999999999</ele><time>2026-04-18T17:27:02.639Z</time></trkpt><trkpt lat="10.0831269" lon="-75.2465601"><ele>14.0</ele><time>2026-04-18T17:27:03.639Z</time></trkpt><trkpt lat="10.0832342" lon="-75.2465532"><ele>13.799999999999999</ele><time>2026-04-18T17:27:04.64Z</time></trkpt><trkpt lat="10.083337" lon="-75.2465448"><ele>13.599999999999998</ele><time>2026-04-18T17:27:05.641Z</time></trkpt><trkpt lat="10.0834402" lon="-75.2465323"><ele>13.4</ele><time>2026-04-18T17:27:06.64Z</time></trkpt><trkpt lat="10.0835585" lon="-75.2465199"><ele>13.2</ele><time>2026-04-18T17:27:07.639Z</time></trkpt><trkpt lat="10.0836691" lon="-75.246518"><ele>13.0</ele><time>2026-04-18T17:27:08.639Z</time></trkpt><trkpt lat="10.083772" lon="-75.2465094"><ele>13.0</ele><time>2026-04-18T17:27:09.641Z</time></trkpt><trkpt lat="10.0838755" lon="-75.2465026"><ele>13.0</ele><time>2026-04-18T17:27:10.641Z</time></trkpt><trkpt lat="10.0839786" lon="-75.2464957"><ele>13.0</ele><time>2026-04-18T17:27:11.638Z</time></trkpt><trkpt lat="10.0840823" lon="-75.2464882"><ele>13.0</ele><time>2026-04-18T17:27:12.64Z</time></trkpt><trkpt lat="10.084187" lon="-75.2464776"><ele>13.0</ele><time>2026-04-18T17:27:13.644Z</time></trkpt><trkpt lat="10.0842933" lon="-75.2464664"><ele>13.0</ele><time>2026-04-18T17:27:14.639Z</time></trkpt><trkpt lat="10.0843936" lon="-75.2464561"><ele>13.0</ele><time>2026-04-18T17:27:15.637Z</time></trkpt><trkpt lat="10.0844953" lon="-75.2464474"><ele>13.0</ele><time>2026-04-18T17:27:16.639Z</time></trkpt><trkpt lat="10.084597" lon="-75.2464316"><ele>13.0</ele><time>2026-04-18T17:27:17.637Z</time></trkpt><trkpt lat="10.0847012" lon="-75.246427"><ele>13.0</ele><time>2026-04-18T17:27:18.64Z</time></trkpt><trkpt lat="10.0848031" lon="-75.2464203"><ele>13.0</ele><time>2026-04-18T17:27:19.64Z</time></trkpt><trkpt lat="10.0849032" lon="-75.24641"><ele>13.0</ele><time>2026-04-18T17:27:20.64Z</time></trkpt><trkpt lat="10.0850042" lon="-75.2464046"><ele>13.0</ele><time>2026-04-18T17:27:21.642Z</time></trkpt><trkpt lat="10.0851031" lon="-75.2463986"><ele>13.0</ele><time>2026-04-18T17:27:22.641Z</time></trkpt><trkpt lat="10.0852001" lon="-75.2463892"><ele>13.0</ele><time>2026-04-18T17:27:23.64Z</time></trkpt><trkpt lat="10.0852977" lon="-75.2463786"><ele>13.0</ele><time>2026-04-18T17:27:24.64Z</time></trkpt><trkpt lat="10.0853952" lon="-75.2463718"><ele>13.0</ele><time>2026-04-18T17:27:25.639Z</time></trkpt><trkpt lat="10.0854923" lon="-75.2463654"><ele>13.0</ele><time>2026-04-18T17:27:26.641Z</time></trkpt><trkpt lat="10.0855903" lon="-75.2463564"><ele>13.0</ele><time>2026-04-18T17:27:27.643Z</time></trkpt><trkpt lat="10.0856895" lon="-75.2463492"><ele>13.0</ele><time>2026-04-18T17:27:28.64Z</time></trkpt><trkpt lat="10.085788" lon="-75.2463428"><ele>12.600000000000001</ele><time>2026-04-18T17:27:29.642Z</time></trkpt><trkpt lat="10.0858854" lon="-75.2463367"><ele>12.200000000000001</ele><time>2026-04-18T17:27:30.644Z</time></trkpt><trkpt lat="10.0859833" lon="-75.2463328"><ele>11.8</ele><time>2026-04-18T17:27:31.643Z</time></trkpt><trkpt lat="10.0860813" lon="-75.2463264"><ele>11.4</ele><time>2026-04-18T17:27:32.64Z</time></trkpt><trkpt lat="10.0861803" lon="-75.2463189"><ele>11.0</ele><time>2026-04-18T17:27:33.639Z</time></trkpt><trkpt lat="10.08628" lon="-75.2463134"><ele>11.0</ele><time>2026-04-18T17:27:34.642Z</time></trkpt><trkpt lat="10.086379" lon="-75.2463071"><ele>11.0</ele><time>2026-04-18T17:27:35.647Z</time></trkpt><trkpt lat="10.0864776" lon="-75.2463017"><ele>11.0</ele><time>2026-04-18T17:27:36.644Z</time></trkpt><trkpt lat="10.0865808" lon="-75.2462949"><ele>11.0</ele><time>2026-04-18T17:27:37.645Z</time></trkpt><trkpt lat="10.0866824" lon="-75.2462906"><ele>11.0</ele><time>2026-04-18T17:27:38.643Z</time></trkpt><trkpt lat="10.0867867" lon="-75.2462868"><ele>11.0</ele><time>2026-04-18T17:27:39.646Z</time></trkpt><trkpt lat="10.0868873" lon="-75.2462796"><ele>11.0</ele><time>2026-04-18T17:27:40.642Z</time></trkpt><trkpt lat="10.0869913" lon="-75.2462735"><ele>11.0</ele><time>2026-04-18T17:27:41.642Z</time></trkpt><trkpt lat="10.0870935" lon="-75.2462646"><ele>11.0</ele><time>2026-04-18T17:27:42.639Z</time></trkpt><trkpt lat="10.0871947" lon="-75.2462599"><ele>11.0</ele><time>2026-04-18T17:27:43.641Z</time></trkpt><trkpt lat="10.0872961" lon="-75.2462511"><ele>11.0</ele><time>2026-04-18T17:27:44.641Z</time></trkpt><trkpt lat="10.0874047" lon="-75.2462458"><ele>11.0</ele><time>2026-04-18T17:27:45.641Z</time></trkpt><trkpt lat="10.0875075" lon="-75.2462362"><ele>11.0</ele><time>2026-04-18T17:27:46.641Z</time></trkpt><trkpt lat="10.0876095" lon="-75.24623"><ele>11.0</ele><time>2026-04-18T17:27:47.639Z</time></trkpt><trkpt lat="10.0877159" lon="-75.2462185"><ele>11.0</ele><time>2026-04-18T17:27:48.637Z</time></trkpt><trkpt lat="10.0878174" lon="-75.2462097"><ele>11.0</ele><time>2026-04-18T17:27:49.636Z</time></trkpt><trkpt lat="10.0879208" lon="-75.2462017"><ele>11.0</ele><time>2026-04-18T17:27:50.638Z</time></trkpt><trkpt lat="10.088024" lon="-75.2461929"><ele>11.0</ele><time>2026-04-18T17:27:51.64Z</time></trkpt><trkpt lat="10.0881255" lon="-75.2461814"><ele>11.0</ele><time>2026-04-18T17:27:52.642Z</time></trkpt><trkpt lat="10.0882305" lon="-75.2461754"><ele>11.0</ele><time>2026-04-18T17:27:53.64Z</time></trkpt><trkpt lat="10.0883355" lon="-75.2461673"><ele>10.8</ele><time>2026-04-18T17:27:54.641Z</time></trkpt><trkpt lat="10.0884421" lon="-75.2461602"><ele>10.600000000000001</ele><time>2026-04-18T17:27:55.642Z</time></trkpt><trkpt lat="10.0885482" lon="-75.2461521"><ele>10.4</ele><time>2026-04-18T17:27:56.643Z</time></trkpt><trkpt lat="10.088653" lon="-75.2461406"><ele>10.2</ele><time>2026-04-18T17:27:57.641Z</time></trkpt><trkpt lat="10.0887576" lon="-75.2461366"><ele>10.0</ele><time>2026-04-18T17:27:58.648Z</time></trkpt><trkpt lat="10.0888616" lon="-75.24613"><ele>10.0</ele><time>2026-04-18T17:27:59.643Z</time></trkpt><trkpt lat="10.0889621" lon="-75.2461205"><ele>10.0</ele><time>2026-04-18T17:28:00.64Z</time></trkpt><trkpt lat="10.0890663" lon="-75.246114"><ele>10.0</ele><time>2026-04-18T17:28:01.639Z</time></trkpt><trkpt lat="10.089167" lon="-75.2461042"><ele>10.0</ele><time>2026-04-18T17:28:02.641Z</time></trkpt><trkpt lat="10.0892732" lon="-75.2460973"><ele>10.0</ele><time>2026-04-18T17:28:03.656Z</time></trkpt><trkpt lat="10.0893786" lon="-75.2460949"><ele>10.2</ele><time>2026-04-18T17:28:04.645Z</time></trkpt><trkpt lat="10.0894822" lon="-75.2460888"><ele>10.4</ele><time>2026-04-18T17:28:05.642Z</time></trkpt><trkpt lat="10.0895859" lon="-75.2460837"><ele>10.600000000000001</ele><time>2026-04-18T17:28:06.637Z</time></trkpt><trkpt lat="10.0896897" lon="-75.2460748"><ele>10.8</ele><time>2026-04-18T17:28:07.643Z</time></trkpt><trkpt lat="10.0897931" lon="-75.2460678"><ele>11.0</ele><time>2026-04-18T17:28:08.644Z</time></trkpt><trkpt lat="10.0898993" lon="-75.2460604"><ele>10.8</ele><time>2026-04-18T17:28:09.644Z</time></trkpt><trkpt lat="10.0900042" lon="-75.246054"><ele>10.600000000000001</ele><time>2026-04-18T17:28:10.645Z</time></trkpt><trkpt lat="10.090112" lon="-75.2460474"><ele>10.4</ele><time>2026-04-18T17:28:11.64Z</time></trkpt><trkpt lat="10.0902236" lon="-75.2460441"><ele>10.2</ele><time>2026-04-18T17:28:12.639Z</time></trkpt><trkpt lat="10.0903331" lon="-75.246037"><ele>10.0</ele><time>2026-04-18T17:28:13.643Z</time></trkpt><trkpt lat="10.09044" lon="-75.2460278"><ele>10.0</ele><time>2026-04-18T17:28:14.638Z</time></trkpt><trkpt lat="10.0905446" lon="-75.2460209"><ele>10.0</ele><time>2026-04-18T17:28:15.643Z</time></trkpt><trkpt lat="10.090647" lon="-75.2460181"><ele>10.0</ele><time>2026-04-18T17:28:16.646Z</time></trkpt><trkpt lat="10.0907476" lon="-75.2460099"><ele>10.0</ele><time>2026-04-18T17:28:17.64Z</time></trkpt><trkpt lat="10.090854" lon="-75.2460073"><ele>10.0</ele><time>2026-04-18T17:28:18.639Z</time></trkpt><trkpt lat="10.0909565" lon="-75.245999"><ele>10.0</ele><time>2026-04-18T17:28:19.641Z</time></trkpt><trkpt lat="10.0910596" lon="-75.2459902"><ele>10.0</ele><time>2026-04-18T17:28:20.638Z</time></trkpt><trkpt lat="10.0911606" lon="-75.2459821"><ele>10.0</ele><time>2026-04-18T17:28:21.638Z</time></trkpt><trkpt lat="10.0912641" lon="-75.2459727"><ele>10.0</ele><time>2026-04-18T17:28:22.636Z</time></trkpt><trkpt lat="10.0913667" lon="-75.2459637"><ele>10.0</ele><time>2026-04-18T17:28:23.637Z</time></trkpt><trkpt lat="10.0914665" lon="-75.2459552"><ele>10.0</ele><time>2026-04-18T17:28:24.647Z</time></trkpt><trkpt lat="10.0915667" lon="-75.2459453"><ele>10.0</ele><time>2026-04-18T17:28:25.639Z</time></trkpt><trkpt lat="10.0916725" lon="-75.2459437"><ele>10.0</ele><time>2026-04-18T17:28:26.638Z</time></trkpt><trkpt lat="10.091774" lon="-75.2459358"><ele>10.0</ele><time>2026-04-18T17:28:27.639Z</time></trkpt><trkpt lat="10.0918749" lon="-75.2459295"><ele>10.0</ele><time>2026-04-18T17:28:28.641Z</time></trkpt><trkpt lat="10.0919798" lon="-75.2459202"><ele>10.2</ele><time>2026-04-18T17:28:29.64Z</time></trkpt><trkpt lat="10.0920783" lon="-75.2459107"><ele>10.4</ele><time>2026-04-18T17:28:30.644Z</time></trkpt><trkpt lat="10.092181" lon="-75.2459012"><ele>10.600000000000001</ele><time>2026-04-18T17:28:31.643Z</time></trkpt><trkpt lat="10.0922843" lon="-75.245895"><ele>10.8</ele><time>2026-04-18T17:28:32.641Z</time></trkpt><trkpt lat="10.0923838" lon="-75.2458857"><ele>11.0</ele><time>2026-04-18T17:28:33.641Z</time></trkpt><trkpt lat="10.0924863" lon="-75.2458782"><ele>11.200000000000001</ele><time>2026-04-18T17:28:34.643Z</time></trkpt><trkpt lat="10.0925906" lon="-75.2458716"><ele>11.4</ele><time>2026-04-18T17:28:35.641Z</time></trkpt><trkpt lat="10.0926921" lon="-75.2458624"><ele>11.6</ele><time>2026-04-18T17:28:36.64Z</time></trkpt><trkpt lat="10.0927957" lon="-75.2458572"><ele>11.8</ele><time>2026-04-18T17:28:37.64Z</time></trkpt><trkpt lat="10.0929025" lon="-75.2458495"><ele>12.0</ele><time>2026-04-18T17:28:38.638Z</time></trkpt><trkpt lat="10.0930057" lon="-75.2458423"><ele>12.0</ele><time>2026-04-18T17:28:39.638Z</time></trkpt><trkpt lat="10.0931097" lon="-75.2458345"><ele>12.0</ele><time>2026-04-18T17:28:40.636Z</time></trkpt><trkpt lat="10.0932146" lon="-75.2458244"><ele>12.0</ele><time>2026-04-18T17:28:41.637Z</time></trkpt><trkpt lat="10.0933208" lon="-75.2458223"><ele>12.0</ele><time>2026-04-18T17:28:42.637Z</time></trkpt><trkpt lat="10.0934261" lon="-75.2458165"><ele>12.0</ele><time>2026-04-18T17:28:43.64Z</time></trkpt><trkpt lat="10.0935295" lon="-75.2458085"><ele>12.0</ele><time>2026-04-18T17:28:44.643Z</time></trkpt><trkpt lat="10.0936303" lon="-75.2457946"><ele>12.0</ele><time>2026-04-18T17:28:45.637Z</time></trkpt><trkpt lat="10.0937346" lon="-75.2457888"><ele>12.0</ele><time>2026-04-18T17:28:46.638Z</time></trkpt><trkpt lat="10.0938382" lon="-75.2457793"><ele>12.0</ele><time>2026-04-18T17:28:47.638Z</time></trkpt><trkpt lat="10.0939407" lon="-75.2457711"><ele>12.0</ele><time>2026-04-18T17:28:48.639Z</time></trkpt><trkpt lat="10.0940406" lon="-75.2457656"><ele>11.8</ele><time>2026-04-18T17:28:49.644Z</time></trkpt><trkpt lat="10.0941389" lon="-75.2457585"><ele>11.6</ele><time>2026-04-18T17:28:50.638Z</time></trkpt><trkpt lat="10.0942407" lon="-75.2457519"><ele>11.4</ele><time>2026-04-18T17:28:51.638Z</time></trkpt><trkpt lat="10.0943449" lon="-75.245745"><ele>11.200000000000001</ele><time>2026-04-18T17:28:52.637Z</time></trkpt><trkpt lat="10.094448" lon="-75.2457392"><ele>11.0</ele><time>2026-04-18T17:28:53.637Z</time></trkpt><trkpt lat="10.0945494" lon="-75.2457314"><ele>11.0</ele><time>2026-04-18T17:28:54.635Z</time></trkpt><trkpt lat="10.0946505" lon="-75.2457223"><ele>11.0</ele><time>2026-04-18T17:28:55.642Z</time></trkpt><trkpt lat="10.0947522" lon="-75.2457112"><ele>11.0</ele><time>2026-04-18T17:28:56.641Z</time></trkpt><trkpt lat="10.0948519" lon="-75.2457031"><ele>11.0</ele><time>2026-04-18T17:28:57.641Z</time></trkpt><trkpt lat="10.0949536" lon="-75.2456986"><ele>11.0</ele><time>2026-04-18T17:28:58.638Z</time></trkpt><trkpt lat="10.0950513" lon="-75.245689"><ele>11.4</ele><time>2026-04-18T17:28:59.638Z</time></trkpt><trkpt lat="10.0951531" lon="-75.2456818"><ele>11.8</ele><time>2026-04-18T17:29:00.638Z</time></trkpt><trkpt lat="10.0952513" lon="-75.2456739"><ele>12.200000000000001</ele><time>2026-04-18T17:29:01.639Z</time></trkpt><trkpt lat="10.0953469" lon="-75.2456644"><ele>12.600000000000001</ele><time>2026-04-18T17:29:02.637Z</time></trkpt><trkpt lat="10.0954483" lon="-75.2456554"><ele>13.0</ele><time>2026-04-18T17:29:03.634Z</time></trkpt><trkpt lat="10.0955447" lon="-75.2456447"><ele>13.0</ele><time>2026-04-18T17:29:04.637Z</time></trkpt><trkpt lat="10.0956479" lon="-75.2456394"><ele>13.0</ele><time>2026-04-18T17:29:05.638Z</time></trkpt><trkpt lat="10.0957507" lon="-75.2456334"><ele>13.0</ele><time>2026-04-18T17:29:06.645Z</time></trkpt><trkpt lat="10.0958537" lon="-75.2456262"><ele>13.0</ele><time>2026-04-18T17:29:07.641Z</time></trkpt><trkpt lat="10.0959564" lon="-75.2456199"><ele>13.0</ele><time>2026-04-18T17:29:08.64Z</time></trkpt><trkpt lat="10.0960592" lon="-75.2456097"><ele>13.0</ele><time>2026-04-18T17:29:09.644Z</time></trkpt><trkpt lat="10.0961604" lon="-75.2456019"><ele>13.0</ele><time>2026-04-18T17:29:10.641Z</time></trkpt><trkpt lat="10.0962622" lon="-75.2455985"><ele>13.0</ele><time>2026-04-18T17:29:11.64Z</time></trkpt><trkpt lat="10.0963641" lon="-75.2455916"><ele>13.0</ele><time>2026-04-18T17:29:12.645Z</time></trkpt><trkpt lat="10.096466" lon="-75.2455846"><ele>13.0</ele><time>2026-04-18T17:29:13.64Z</time></trkpt><trkpt lat="10.0965674" lon="-75.245574"><ele>13.2</ele><time>2026-04-18T17:29:14.638Z</time></trkpt><trkpt lat="10.0966812" lon="-75.2455651"><ele>13.4</ele><time>2026-04-18T17:29:15.635Z</time></trkpt><trkpt lat="10.0967836" lon="-75.2455599"><ele>13.599999999999998</ele><time>2026-04-18T17:29:16.637Z</time></trkpt><trkpt lat="10.0968831" lon="-75.2455554"><ele>13.799999999999999</ele><time>2026-04-18T17:29:17.639Z</time></trkpt><trkpt lat="10.0969832" lon="-75.2455496"><ele>14.0</ele><time>2026-04-18T17:29:18.638Z</time></trkpt><trkpt lat="10.0970821" lon="-75.2455419"><ele>14.0</ele><time>2026-04-18T17:29:19.639Z</time></trkpt><trkpt lat="10.0971818" lon="-75.2455347"><ele>13.999999999999998</ele><time>2026-04-18T17:29:20.638Z</time></trkpt><trkpt lat="10.0972804" lon="-75.2455258"><ele>13.999999999999998</ele><time>2026-04-18T17:29:21.64Z</time></trkpt><trkpt lat="10.0973786" lon="-75.2455183"><ele>14.0</ele><time>2026-04-18T17:29:22.639Z</time></trkpt><trkpt lat="10.0974809" lon="-75.2455153"><ele>14.0</ele><time>2026-04-18T17:29:23.638Z</time></trkpt><trkpt lat="10.0975852" lon="-75.2455089"><ele>13.6</ele><time>2026-04-18T17:29:24.639Z</time></trkpt><trkpt lat="10.0976838" lon="-75.2455008"><ele>13.2</ele><time>2026-04-18T17:29:25.638Z</time></trkpt><trkpt lat="10.0977821" lon="-75.2454929"><ele>12.799999999999999</ele><time>2026-04-18T17:29:26.642Z</time></trkpt><trkpt lat="10.0978831" lon="-75.2454839"><ele>12.399999999999999</ele><time>2026-04-18T17:29:27.639Z</time></trkpt><trkpt lat="10.0979847" lon="-75.2454776"><ele>12.0</ele><time>2026-04-18T17:29:28.639Z</time></trkpt><trkpt lat="10.0980874" lon="-75.2454713"><ele>12.0</ele><time>2026-04-18T17:29:29.639Z</time></trkpt><trkpt lat="10.0981878" lon="-75.2454643"><ele>12.0</ele><time>2026-04-18T17:29:30.638Z</time></trkpt><trkpt lat="10.0982879" lon="-75.2454539"><ele>12.0</ele><time>2026-04-18T17:29:31.638Z</time></trkpt><trkpt lat="10.0983878" lon="-75.2454478"><ele>12.0</ele><time>2026-04-18T17:29:32.638Z</time></trkpt><trkpt lat="10.0984923" lon="-75.2454407"><ele>12.0</ele><time>2026-04-18T17:29:33.642Z</time></trkpt><trkpt lat="10.0985954" lon="-75.245435"><ele>12.0</ele><time>2026-04-18T17:29:34.641Z</time></trkpt><trkpt lat="10.0987008" lon="-75.2454323"><ele>12.0</ele><time>2026-04-18T17:29:35.638Z</time></trkpt><trkpt lat="10.0988041" lon="-75.2454211"><ele>12.0</ele><time>2026-04-18T17:29:36.639Z</time></trkpt><trkpt lat="10.0989039" lon="-75.2454136"><ele>12.0</ele><time>2026-04-18T17:29:37.643Z</time></trkpt><trkpt lat="10.0990079" lon="-75.2454062"><ele>12.0</ele><time>2026-04-18T17:29:38.642Z</time></trkpt><trkpt lat="10.0991113" lon="-75.2453982"><ele>12.399999999999999</ele><time>2026-04-18T17:29:39.639Z</time></trkpt><trkpt lat="10.0992148" lon="-75.2453916"><ele>12.799999999999999</ele><time>2026-04-18T17:29:40.638Z</time></trkpt><trkpt lat="10.0993192" lon="-75.2453845"><ele>13.2</ele><time>2026-04-18T17:29:41.642Z</time></trkpt><trkpt lat="10.0994215" lon="-75.2453764"><ele>13.6</ele><time>2026-04-18T17:29:42.645Z</time></trkpt><trkpt lat="10.0995283" lon="-75.2453712"><ele>14.0</ele><time>2026-04-18T17:29:43.646Z</time></trkpt><trkpt lat="10.0996337" lon="-75.2453616"><ele>14.0</ele><time>2026-04-18T17:29:44.644Z</time></trkpt><trkpt lat="10.0997354" lon="-75.2453411"><ele>13.999999999999998</ele><time>2026-04-18T17:29:45.645Z</time></trkpt><trkpt lat="10.0998397" lon="-75.2453334"><ele>13.999999999999998</ele><time>2026-04-18T17:29:46.636Z</time></trkpt><trkpt lat="10.099944" lon="-75.2453264"><ele>14.0</ele><time>2026-04-18T17:29:47.636Z</time></trkpt><trkpt lat="10.1000469" lon="-75.2453212"><ele>14.0</ele><time>2026-04-18T17:29:48.638Z</time></trkpt><trkpt lat="10.1001471" lon="-75.2453165"><ele>14.0</ele><time>2026-04-18T17:29:49.637Z</time></trkpt><trkpt lat="10.1002475" lon="-75.2453115"><ele>13.999999999999998</ele><time>2026-04-18T17:29:50.638Z</time></trkpt><trkpt lat="10.1003463" lon="-75.2453041"><ele>13.999999999999998</ele><time>2026-04-18T17:29:51.638Z</time></trkpt><trkpt lat="10.1004426" lon="-75.2452962"><ele>14.0</ele><time>2026-04-18T17:29:52.641Z</time></trkpt><trkpt lat="10.1005379" lon="-75.2452917"><ele>14.0</ele><time>2026-04-18T17:29:53.637Z</time></trkpt><trkpt lat="10.1006288" lon="-75.2452823"><ele>14.0</ele><time>2026-04-18T17:29:54.641Z</time></trkpt><trkpt lat="10.100719" lon="-75.2452732"><ele>13.999999999999998</ele><time>2026-04-18T17:29:55.639Z</time></trkpt><trkpt lat="10.1008099" lon="-75.2452662"><ele>13.999999999999998</ele><time>2026-04-18T17:29:56.641Z</time></trkpt><trkpt lat="10.1009024" lon="-75.2452569"><ele>14.0</ele><time>2026-04-18T17:29:57.637Z</time></trkpt><trkpt lat="10.1009948" lon="-75.2452487"><ele>14.0</ele><time>2026-04-18T17:29:58.636Z</time></trkpt><trkpt lat="10.1010884" lon="-75.245243"><ele>14.799999999999999</ele><time>2026-04-18T17:29:59.641Z</time></trkpt><trkpt lat="10.1011789" lon="-75.2452363"><ele>15.599999999999998</ele><time>2026-04-18T17:30:00.637Z</time></trkpt><trkpt lat="10.1012693" lon="-75.2452333"><ele>16.4</ele><time>2026-04-18T17:30:01.637Z</time></trkpt><trkpt lat="10.1013608" lon="-75.2452283"><ele>17.2</ele><time>2026-04-18T17:30:02.639Z</time></trkpt><trkpt lat="10.1014508" lon="-75.2452231"><ele>18.0</ele><time>2026-04-18T17:30:03.643Z</time></trkpt><trkpt lat="10.1015413" lon="-75.2452144"><ele>18.0</ele><time>2026-04-18T17:30:04.646Z</time></trkpt><trkpt lat="10.1016304" lon="-75.2452091"><ele>18.0</ele><time>2026-04-18T17:30:05.639Z</time></trkpt><trkpt lat="10.1017147" lon="-75.2452036"><ele>18.0</ele><time>2026-04-18T17:30:06.643Z</time></trkpt><trkpt lat="10.1017981" lon="-75.245199"><ele>18.0</ele><time>2026-04-18T17:30:07.642Z</time></trkpt><trkpt lat="10.1018818" lon="-75.245195"><ele>18.0</ele><time>2026-04-18T17:30:08.639Z</time></trkpt><trkpt lat="10.1019636" lon="-75.2451906"><ele>18.0</ele><time>2026-04-18T17:30:09.641Z</time></trkpt><trkpt lat="10.1020448" lon="-75.245184"><ele>18.0</ele><time>2026-04-18T17:30:10.637Z</time></trkpt><trkpt lat="10.1021263" lon="-75.2451769"><ele>18.0</ele><time>2026-04-18T17:30:11.639Z</time></trkpt><trkpt lat="10.102209" lon="-75.2451677"><ele>18.0</ele><time>2026-04-18T17:30:12.637Z</time></trkpt><trkpt lat="10.1022907" lon="-75.2451594"><ele>18.0</ele><time>2026-04-18T17:30:13.637Z</time></trkpt><trkpt lat="10.1023747" lon="-75.2451495"><ele>18.0</ele><time>2026-04-18T17:30:14.641Z</time></trkpt><trkpt lat="10.1024624" lon="-75.2451465"><ele>18.0</ele><time>2026-04-18T17:30:15.637Z</time></trkpt><trkpt lat="10.1025503" lon="-75.2451423"><ele>17.666666666666668</ele><time>2026-04-18T17:30:16.639Z</time></trkpt><trkpt lat="10.1026382" lon="-75.2451357"><ele>17.333333333333332</ele><time>2026-04-18T17:30:17.639Z</time></trkpt><trkpt lat="10.1027245" lon="-75.2451288"><ele>17.0</ele><time>2026-04-18T17:30:18.645Z</time></trkpt><trkpt lat="10.1028122" lon="-75.245122"><ele>16.666666666666664</ele><time>2026-04-18T17:30:19.642Z</time></trkpt><trkpt lat="10.102901" lon="-75.2451149"><ele>16.333333333333332</ele><time>2026-04-18T17:30:20.648Z</time></trkpt><trkpt lat="10.1029924" lon="-75.2451074"><ele>16.0</ele><time>2026-04-18T17:30:21.652Z</time></trkpt><trkpt lat="10.103085" lon="-75.2450993"><ele>16.0</ele><time>2026-04-18T17:30:22.641Z</time></trkpt><trkpt lat="10.1031765" lon="-75.2450913"><ele>16.0</ele><time>2026-04-18T17:30:23.641Z</time></trkpt><trkpt lat="10.1032699" lon="-75.2450831"><ele>16.0</ele><time>2026-04-18T17:30:24.637Z</time></trkpt><trkpt lat="10.103363" lon="-75.2450756"><ele>16.0</ele><time>2026-04-18T17:30:25.64Z</time></trkpt><trkpt lat="10.1034563" lon="-75.2450677"><ele>16.0</ele><time>2026-04-18T17:30:26.635Z</time></trkpt><trkpt lat="10.1035515" lon="-75.245058"><ele>16.2</ele><time>2026-04-18T17:30:27.642Z</time></trkpt><trkpt lat="10.10365" lon="-75.2450537"><ele>16.400000000000002</ele><time>2026-04-18T17:30:28.637Z</time></trkpt><trkpt lat="10.1037457" lon="-75.2450472"><ele>16.6</ele><time>2026-04-18T17:30:29.635Z</time></trkpt><trkpt lat="10.1038418" lon="-75.2450412"><ele>16.8</ele><time>2026-04-18T17:30:30.636Z</time></trkpt><trkpt lat="10.1039373" lon="-75.2450362"><ele>17.0</ele><time>2026-04-18T17:30:31.637Z</time></trkpt><trkpt lat="10.1040349" lon="-75.2450305"><ele>16.6</ele><time>2026-04-18T17:30:32.638Z</time></trkpt><trkpt lat="10.1041297" lon="-75.2450227"><ele>16.2</ele><time>2026-04-18T17:30:33.639Z</time></trkpt><trkpt lat="10.1042219" lon="-75.2450153"><ele>15.8</ele><time>2026-04-18T17:30:34.639Z</time></trkpt><trkpt lat="10.1043135" lon="-75.2450073"><ele>15.4</ele><time>2026-04-18T17:30:35.637Z</time></trkpt><trkpt lat="10.1044092" lon="-75.245"><ele>15.0</ele><time>2026-04-18T17:30:36.64Z</time></trkpt><trkpt lat="10.1045082" lon="-75.2449916"><ele>15.0</ele><time>2026-04-18T17:30:37.64Z</time></trkpt><trkpt lat="10.1046008" lon="-75.2449833"><ele>15.0</ele><time>2026-04-18T17:30:38.642Z</time></trkpt><trkpt lat="10.1046969" lon="-75.2449802"><ele>15.0</ele><time>2026-04-18T17:30:39.638Z</time></trkpt><trkpt lat="10.1047888" lon="-75.2449727"><ele>15.0</ele><time>2026-04-18T17:30:40.639Z</time></trkpt><trkpt lat="10.1048814" lon="-75.2449644"><ele>15.0</ele><time>2026-04-18T17:30:41.636Z</time></trkpt><trkpt lat="10.1049755" lon="-75.2449587"><ele>14.6</ele><time>2026-04-18T17:30:42.636Z</time></trkpt><trkpt lat="10.1050684" lon="-75.2449507"><ele>14.2</ele><time>2026-04-18T17:30:43.639Z</time></trkpt><trkpt lat="10.1051634" lon="-75.2449429"><ele>13.8</ele><time>2026-04-18T17:30:44.638Z</time></trkpt><trkpt lat="10.1052614" lon="-75.2449357"><ele>13.4</ele><time>2026-04-18T17:30:45.66Z</time></trkpt><trkpt lat="10.1053571" lon="-75.2449271"><ele>13.0</ele><time>2026-04-18T17:30:46.641Z</time></trkpt><trkpt lat="10.1054521" lon="-75.2449187"><ele>13.0</ele><time>2026-04-18T17:30:47.64Z</time></trkpt><trkpt lat="10.1055495" lon="-75.2449089"><ele>13.0</ele><time>2026-04-18T17:30:48.642Z</time></trkpt><trkpt lat="10.1056483" lon="-75.2449016"><ele>13.0</ele><time>2026-04-18T17:30:49.641Z</time></trkpt><trkpt lat="10.1057463" lon="-75.2448938"><ele>13.0</ele><time>2026-04-18T17:30:50.64Z</time></trkpt><trkpt lat="10.1058448" lon="-75.2448859"><ele>13.0</ele><time>2026-04-18T17:30:51.643Z</time></trkpt><trkpt lat="10.1059441" lon="-75.2448814"><ele>13.4</ele><time>2026-04-18T17:30:52.642Z</time></trkpt><trkpt lat="10.1060407" lon="-75.2448772"><ele>13.8</ele><time>2026-04-18T17:30:53.642Z</time></trkpt><trkpt lat="10.1061384" lon="-75.244869"><ele>14.2</ele><time>2026-04-18T17:30:54.646Z</time></trkpt><trkpt lat="10.1062369" lon="-75.2448647"><ele>14.6</ele><time>2026-04-18T17:30:55.64Z</time></trkpt><trkpt lat="10.1063338" lon="-75.2448587"><ele>15.0</ele><time>2026-04-18T17:30:56.639Z</time></trkpt><trkpt lat="10.1064263" lon="-75.2448526"><ele>15.0</ele><time>2026-04-18T17:30:57.641Z</time></trkpt><trkpt lat="10.1065234" lon="-75.2448469"><ele>15.0</ele><time>2026-04-18T17:30:58.645Z</time></trkpt><trkpt lat="10.1066217" lon="-75.2448417"><ele>15.0</ele><time>2026-04-18T17:30:59.644Z</time></trkpt><trkpt lat="10.106718" lon="-75.244838"><ele>15.0</ele><time>2026-04-18T17:31:00.641Z</time></trkpt><trkpt lat="10.10681" lon="-75.2448255"><ele>15.0</ele><time>2026-04-18T17:31:01.643Z</time></trkpt><trkpt lat="10.1069072" lon="-75.2448166"><ele>15.0</ele><time>2026-04-18T17:31:02.645Z</time></trkpt><trkpt lat="10.1070049" lon="-75.2448113"><ele>15.0</ele><time>2026-04-18T17:31:03.642Z</time></trkpt><trkpt lat="10.1071071" lon="-75.2448077"><ele>15.0</ele><time>2026-04-18T17:31:04.639Z</time></trkpt><trkpt lat="10.107204" lon="-75.2448032"><ele>15.0</ele><time>2026-04-18T17:31:05.643Z</time></trkpt><trkpt lat="10.1072999" lon="-75.2447991"><ele>15.0</ele><time>2026-04-18T17:31:06.641Z</time></trkpt><trkpt lat="10.10739" lon="-75.2447956"><ele>14.8</ele><time>2026-04-18T17:31:07.64Z</time></trkpt><trkpt lat="10.1074844" lon="-75.2447835"><ele>14.6</ele><time>2026-04-18T17:31:08.641Z</time></trkpt><trkpt lat="10.107582" lon="-75.2447773"><ele>14.399999999999999</ele><time>2026-04-18T17:31:09.643Z</time></trkpt><trkpt lat="10.107679" lon="-75.2447698"><ele>14.2</ele><time>2026-04-18T17:31:10.636Z</time></trkpt><trkpt lat="10.1077748" lon="-75.2447619"><ele>14.0</ele><time>2026-04-18T17:31:11.637Z</time></trkpt><trkpt lat="10.1078741" lon="-75.2447543"><ele>14.0</ele><time>2026-04-18T17:31:12.64Z</time></trkpt><trkpt lat="10.107973" lon="-75.244747"><ele>13.999999999999998</ele><time>2026-04-18T17:31:13.636Z</time></trkpt><trkpt lat="10.1080743" lon="-75.244736"><ele>13.999999999999998</ele><time>2026-04-18T17:31:14.636Z</time></trkpt><trkpt lat="10.1081734" lon="-75.2447272"><ele>14.0</ele><time>2026-04-18T17:31:15.64Z</time></trkpt><trkpt lat="10.1082707" lon="-75.2447178"><ele>14.0</ele><time>2026-04-18T17:31:16.639Z</time></trkpt><trkpt lat="10.1083701" lon="-75.244708"><ele>14.2</ele><time>2026-04-18T17:31:17.638Z</time></trkpt><trkpt lat="10.108471" lon="-75.244695"><ele>14.399999999999999</ele><time>2026-04-18T17:31:18.643Z</time></trkpt><trkpt lat="10.1085715" lon="-75.244688"><ele>14.6</ele><time>2026-04-18T17:31:19.641Z</time></trkpt><trkpt lat="10.1086725" lon="-75.2446791"><ele>14.8</ele><time>2026-04-18T17:31:20.636Z</time></trkpt><trkpt lat="10.1087756" lon="-75.2446722"><ele>15.0</ele><time>2026-04-18T17:31:21.642Z</time></trkpt><trkpt lat="10.1088824" lon="-75.2446631"><ele>15.0</ele><time>2026-04-18T17:31:22.64Z</time></trkpt><trkpt lat="10.1089837" lon="-75.2446545"><ele>15.0</ele><time>2026-04-18T17:31:23.638Z</time></trkpt><trkpt lat="10.1090842" lon="-75.2446462"><ele>15.0</ele><time>2026-04-18T17:31:24.635Z</time></trkpt><trkpt lat="10.109186" lon="-75.2446405"><ele>15.0</ele><time>2026-04-18T17:31:25.638Z</time></trkpt><trkpt lat="10.1092839" lon="-75.2446308"><ele>15.0</ele><time>2026-04-18T17:31:26.635Z</time></trkpt><trkpt lat="10.109386" lon="-75.2446244"><ele>15.2</ele><time>2026-04-18T17:31:27.64Z</time></trkpt><trkpt lat="10.1094834" lon="-75.2446143"><ele>15.4</ele><time>2026-04-18T17:31:28.64Z</time></trkpt><trkpt lat="10.109582" lon="-75.2446162"><ele>15.600000000000001</ele><time>2026-04-18T17:31:29.642Z</time></trkpt><trkpt lat="10.1096832" lon="-75.2446127"><ele>15.8</ele><time>2026-04-18T17:31:30.637Z</time></trkpt><trkpt lat="10.1097819" lon="-75.2446057"><ele>16.0</ele><time>2026-04-18T17:31:31.637Z</time></trkpt><trkpt lat="10.1098795" lon="-75.2445979"><ele>15.8</ele><time>2026-04-18T17:31:32.639Z</time></trkpt><trkpt lat="10.1099777" lon="-75.2445868"><ele>15.600000000000001</ele><time>2026-04-18T17:31:33.641Z</time></trkpt><trkpt lat="10.1100736" lon="-75.2445797"><ele>15.4</ele><time>2026-04-18T17:31:34.642Z</time></trkpt><trkpt lat="10.1101724" lon="-75.2445735"><ele>15.2</ele><time>2026-04-18T17:31:35.636Z</time></trkpt><trkpt lat="10.1102698" lon="-75.2445684"><ele>15.0</ele><time>2026-04-18T17:31:36.638Z</time></trkpt><trkpt lat="10.1103715" lon="-75.2445676"><ele>15.0</ele><time>2026-04-18T17:31:37.641Z</time></trkpt><trkpt lat="10.11047" lon="-75.2445593"><ele>15.0</ele><time>2026-04-18T17:31:38.641Z</time></trkpt><trkpt lat="10.1105676" lon="-75.2445545"><ele>15.0</ele><time>2026-04-18T17:31:39.639Z</time></trkpt><trkpt lat="10.1106617" lon="-75.244548"><ele>15.0</ele><time>2026-04-18T17:31:40.642Z</time></trkpt><trkpt lat="10.110756" lon="-75.2445417"><ele>15.0</ele><time>2026-04-18T17:31:41.639Z</time></trkpt><trkpt lat="10.1108452" lon="-75.2445362"><ele>15.0</ele><time>2026-04-18T17:31:42.639Z</time></trkpt><trkpt lat="10.110937" lon="-75.2445297"><ele>15.0</ele><time>2026-04-18T17:31:43.641Z</time></trkpt><trkpt lat="10.1110294" lon="-75.244524"><ele>15.0</ele><time>2026-04-18T17:31:44.635Z</time></trkpt><trkpt lat="10.1111219" lon="-75.2445177"><ele>15.0</ele><time>2026-04-18T17:31:45.643Z</time></trkpt><trkpt lat="10.1112167" lon="-75.2445143"><ele>15.0</ele><time>2026-04-18T17:31:46.64Z</time></trkpt><trkpt lat="10.1113122" lon="-75.2445071"><ele>15.0</ele><time>2026-04-18T17:31:47.641Z</time></trkpt><trkpt lat="10.1114053" lon="-75.2445013"><ele>15.0</ele><time>2026-04-18T17:31:48.644Z</time></trkpt><trkpt lat="10.1115016" lon="-75.2444931"><ele>15.0</ele><time>2026-04-18T17:31:49.643Z</time></trkpt><trkpt lat="10.1116002" lon="-75.2444919"><ele>15.0</ele><time>2026-04-18T17:31:50.643Z</time></trkpt><trkpt lat="10.1116983" lon="-75.2444855"><ele>15.0</ele><time>2026-04-18T17:31:51.646Z</time></trkpt><trkpt lat="10.1117979" lon="-75.2444779"><ele>15.0</ele><time>2026-04-18T17:31:52.642Z</time></trkpt><trkpt lat="10.1118915" lon="-75.2444698"><ele>15.0</ele><time>2026-04-18T17:31:53.643Z</time></trkpt><trkpt lat="10.1119888" lon="-75.2444678"><ele>15.0</ele><time>2026-04-18T17:31:54.641Z</time></trkpt><trkpt lat="10.1120862" lon="-75.2444602"><ele>15.0</ele><time>2026-04-18T17:31:55.645Z</time></trkpt><trkpt lat="10.1121883" lon="-75.2444566"><ele>15.0</ele><time>2026-04-18T17:31:56.648Z</time></trkpt><trkpt lat="10.1122854" lon="-75.2444486"><ele>15.0</ele><time>2026-04-18T17:31:57.656Z</time></trkpt><trkpt lat="10.1123825" lon="-75.2444389"><ele>15.0</ele><time>2026-04-18T17:31:58.638Z</time></trkpt><trkpt lat="10.112482" lon="-75.2444296"><ele>15.0</ele><time>2026-04-18T17:31:59.647Z</time></trkpt><trkpt lat="10.1125811" lon="-75.2444233"><ele>15.0</ele><time>2026-04-18T17:32:00.637Z</time></trkpt><trkpt lat="10.1126842" lon="-75.2444183"><ele>15.0</ele><time>2026-04-18T17:32:01.638Z</time></trkpt><trkpt lat="10.1127887" lon="-75.244409"><ele>15.0</ele><time>2026-04-18T17:32:02.644Z</time></trkpt><trkpt lat="10.1128894" lon="-75.244403"><ele>15.0</ele><time>2026-04-18T17:32:03.636Z</time></trkpt><trkpt lat="10.1129906" lon="-75.2443946"><ele>15.0</ele><time>2026-04-18T17:32:04.64Z</time></trkpt><trkpt lat="10.1130924" lon="-75.2443882"><ele>15.0</ele><time>2026-04-18T17:32:05.638Z</time></trkpt><trkpt lat="10.1131944" lon="-75.2443789"><ele>15.0</ele><time>2026-04-18T17:32:06.641Z</time></trkpt><trkpt lat="10.1132996" lon="-75.2443733"><ele>15.0</ele><time>2026-04-18T17:32:07.642Z</time></trkpt><trkpt lat="10.1134039" lon="-75.2443668"><ele>15.0</ele><time>2026-04-18T17:32:08.641Z</time></trkpt><trkpt lat="10.1135046" lon="-75.244358"><ele>15.0</ele><time>2026-04-18T17:32:09.642Z</time></trkpt><trkpt lat="10.1136042" lon="-75.2443505"><ele>15.0</ele><time>2026-04-18T17:32:10.651Z</time></trkpt><trkpt lat="10.1137019" lon="-75.2443439"><ele>15.0</ele><time>2026-04-18T17:32:11.64Z</time></trkpt><trkpt lat="10.1137963" lon="-75.244336"><ele>15.0</ele><time>2026-04-18T17:32:12.642Z</time></trkpt><trkpt lat="10.1138905" lon="-75.2443284"><ele>15.0</ele><time>2026-04-18T17:32:13.639Z</time></trkpt><trkpt lat="10.1139846" lon="-75.2443274"><ele>15.0</ele><time>2026-04-18T17:32:14.635Z</time></trkpt><trkpt lat="10.1140824" lon="-75.2443264"><ele>15.0</ele><time>2026-04-18T17:32:15.634Z</time></trkpt><trkpt lat="10.1141757" lon="-75.2443181"><ele>15.0</ele><time>2026-04-18T17:32:16.636Z</time></trkpt><trkpt lat="10.114268" lon="-75.2443092"><ele>14.6</ele><time>2026-04-18T17:32:17.638Z</time></trkpt><trkpt lat="10.1143637" lon="-75.2443043"><ele>14.2</ele><time>2026-04-18T17:32:18.635Z</time></trkpt><trkpt lat="10.1144585" lon="-75.2442948"><ele>13.8</ele><time>2026-04-18T17:32:19.637Z</time></trkpt><trkpt lat="10.114556" lon="-75.2442836"><ele>13.4</ele><time>2026-04-18T17:32:20.636Z</time></trkpt><trkpt lat="10.1146536" lon="-75.2442755"><ele>13.0</ele><time>2026-04-18T17:32:21.637Z</time></trkpt><trkpt lat="10.1147559" lon="-75.2442649"><ele>13.0</ele><time>2026-04-18T17:32:22.638Z</time></trkpt><trkpt lat="10.1148542" lon="-75.2442579"><ele>13.0</ele><time>2026-04-18T17:32:23.638Z</time></trkpt><trkpt lat="10.1149534" lon="-75.2442503"><ele>13.0</ele><time>2026-04-18T17:32:24.635Z</time></trkpt><trkpt lat="10.1150506" lon="-75.2442425"><ele>13.0</ele><time>2026-04-18T17:32:25.636Z</time></trkpt><trkpt lat="10.1151509" lon="-75.2442378"><ele>13.0</ele><time>2026-04-18T17:32:26.637Z</time></trkpt><trkpt lat="10.1152496" lon="-75.2442308"><ele>13.0</ele><time>2026-04-18T17:32:27.639Z</time></trkpt><trkpt lat="10.1153519" lon="-75.2442236"><ele>13.0</ele><time>2026-04-18T17:32:28.637Z</time></trkpt><trkpt lat="10.115449" lon="-75.2442171"><ele>13.0</ele><time>2026-04-18T17:32:29.639Z</time></trkpt><trkpt lat="10.1155482" lon="-75.2442106"><ele>13.0</ele><time>2026-04-18T17:32:30.64Z</time></trkpt><trkpt lat="10.1156524" lon="-75.2442027"><ele>13.0</ele><time>2026-04-18T17:32:31.641Z</time></trkpt><trkpt lat="10.115756" lon="-75.244194"><ele>13.4</ele><time>2026-04-18T17:32:32.64Z</time></trkpt><trkpt lat="10.1158573" lon="-75.2441898"><ele>13.8</ele><time>2026-04-18T17:32:33.637Z</time></trkpt><trkpt lat="10.1159571" lon="-75.2441847"><ele>14.2</ele><time>2026-04-18T17:32:34.637Z</time></trkpt><trkpt lat="10.1160624" lon="-75.244178"><ele>14.6</ele><time>2026-04-18T17:32:35.637Z</time></trkpt><trkpt lat="10.1161701" lon="-75.2441703"><ele>15.0</ele><time>2026-04-18T17:32:36.639Z</time></trkpt><trkpt lat="10.1162769" lon="-75.2441613"><ele>15.0</ele><time>2026-04-18T17:32:37.636Z</time></trkpt><trkpt lat="10.1163837" lon="-75.244153"><ele>15.0</ele><time>2026-04-18T17:32:38.636Z</time></trkpt><trkpt lat="10.1164924" lon="-75.2441462"><ele>15.0</ele><time>2026-04-18T17:32:39.638Z</time></trkpt><trkpt lat="10.1165978" lon="-75.2441401"><ele>15.0</ele><time>2026-04-18T17:32:40.637Z</time></trkpt><trkpt lat="10.1167025" lon="-75.2441332"><ele>15.0</ele><time>2026-04-18T17:32:41.637Z</time></trkpt><trkpt lat="10.1168051" lon="-75.2441264"><ele>15.6</ele><time>2026-04-18T17:32:42.637Z</time></trkpt><trkpt lat="10.1169201" lon="-75.2441319"><ele>16.2</ele><time>2026-04-18T17:32:43.641Z</time></trkpt><trkpt lat="10.1170325" lon="-75.2441236"><ele>16.8</ele><time>2026-04-18T17:32:44.643Z</time></trkpt><trkpt lat="10.1171389" lon="-75.2441153"><ele>17.4</ele><time>2026-04-18T17:32:45.639Z</time></trkpt><trkpt lat="10.1172428" lon="-75.2441047"><ele>18.0</ele><time>2026-04-18T17:32:46.639Z</time></trkpt><trkpt lat="10.1173469" lon="-75.2440982"><ele>17.8</ele><time>2026-04-18T17:32:47.64Z</time></trkpt><trkpt lat="10.1174499" lon="-75.2440875"><ele>17.6</ele><time>2026-04-18T17:32:48.635Z</time></trkpt><trkpt lat="10.1175455" lon="-75.2440776"><ele>17.4</ele><time>2026-04-18T17:32:49.638Z</time></trkpt><trkpt lat="10.1176499" lon="-75.2440731"><ele>17.2</ele><time>2026-04-18T17:32:50.641Z</time></trkpt><trkpt lat="10.1177513" lon="-75.2440658"><ele>17.0</ele><time>2026-04-18T17:32:51.64Z</time></trkpt><trkpt lat="10.1178563" lon="-75.2440591"><ele>17.0</ele><time>2026-04-18T17:32:52.641Z</time></trkpt><trkpt lat="10.117961" lon="-75.2440532"><ele>17.0</ele><time>2026-04-18T17:32:53.635Z</time></trkpt><trkpt lat="10.1180655" lon="-75.2440471"><ele>17.0</ele><time>2026-04-18T17:32:54.638Z</time></trkpt><trkpt lat="10.1181686" lon="-75.2440405"><ele>17.0</ele><time>2026-04-18T17:32:55.639Z</time></trkpt><trkpt lat="10.1182747" lon="-75.2440237"><ele>17.0</ele><time>2026-04-18T17:32:56.639Z</time></trkpt><trkpt lat="10.1183794" lon="-75.2440147"><ele>17.0</ele><time>2026-04-18T17:32:57.637Z</time></trkpt><trkpt lat="10.1184855" lon="-75.244009"><ele>17.0</ele><time>2026-04-18T17:32:58.639Z</time></trkpt><trkpt lat="10.1185936" lon="-75.2440043"><ele>17.0</ele><time>2026-04-18T17:32:59.638Z</time></trkpt><trkpt lat="10.1187017" lon="-75.2439957"><ele>17.0</ele><time>2026-04-18T17:33:00.636Z</time></trkpt><trkpt lat="10.1188076" lon="-75.2439861"><ele>17.0</ele><time>2026-04-18T17:33:01.641Z</time></trkpt><trkpt lat="10.1189117" lon="-75.243977"><ele>17.0</ele><time>2026-04-18T17:33:02.638Z</time></trkpt><trkpt lat="10.1190188" lon="-75.2439686"><ele>17.0</ele><time>2026-04-18T17:33:03.641Z</time></trkpt><trkpt lat="10.1191275" lon="-75.2439597"><ele>17.0</ele><time>2026-04-18T17:33:04.636Z</time></trkpt><trkpt lat="10.1192331" lon="-75.2439471"><ele>17.0</ele><time>2026-04-18T17:33:05.637Z</time></trkpt><trkpt lat="10.1193413" lon="-75.2439296"><ele>17.0</ele><time>2026-04-18T17:33:06.641Z</time></trkpt><trkpt lat="10.1194584" lon="-75.2439157"><ele>16.75</ele><time>2026-04-18T17:33:07.639Z</time></trkpt><trkpt lat="10.1195677" lon="-75.2439111"><ele>16.5</ele><time>2026-04-18T17:33:08.635Z</time></trkpt><trkpt lat="10.1196827" lon="-75.243897"><ele>16.25</ele><time>2026-04-18T17:33:09.635Z</time></trkpt><trkpt lat="10.1197991" lon="-75.2438919"><ele>16.0</ele><time>2026-04-18T17:33:10.635Z</time></trkpt><trkpt lat="10.119914" lon="-75.2438861"><ele>16.0</ele><time>2026-04-18T17:33:11.641Z</time></trkpt><trkpt lat="10.1200218" lon="-75.2438833"><ele>16.0</ele><time>2026-04-18T17:33:12.639Z</time></trkpt><trkpt lat="10.120131" lon="-75.2438756"><ele>16.0</ele><time>2026-04-18T17:33:13.638Z</time></trkpt><trkpt lat="10.1202379" lon="-75.2438679"><ele>16.0</ele><time>2026-04-18T17:33:14.637Z</time></trkpt><trkpt lat="10.1203417" lon="-75.2438605"><ele>16.0</ele><time>2026-04-18T17:33:15.635Z</time></trkpt><trkpt lat="10.1204446" lon="-75.2438517"><ele>16.0</ele><time>2026-04-18T17:33:16.637Z</time></trkpt><trkpt lat="10.1205482" lon="-75.2438438"><ele>16.0</ele><time>2026-04-18T17:33:17.639Z</time></trkpt><trkpt lat="10.1206516" lon="-75.243837"><ele>16.0</ele><time>2026-04-18T17:33:18.636Z</time></trkpt><trkpt lat="10.1207527" lon="-75.2438301"><ele>16.0</ele><time>2026-04-18T17:33:19.637Z</time></trkpt><trkpt lat="10.120852" lon="-75.2438217"><ele>16.0</ele><time>2026-04-18T17:33:20.641Z</time></trkpt><trkpt lat="10.1209523" lon="-75.2438129"><ele>16.400000000000002</ele><time>2026-04-18T17:33:21.637Z</time></trkpt><trkpt lat="10.1210486" lon="-75.2438029"><ele>16.8</ele><time>2026-04-18T17:33:22.637Z</time></trkpt><trkpt lat="10.1211466" lon="-75.2437987"><ele>17.200000000000003</ele><time>2026-04-18T17:33:23.637Z</time></trkpt><trkpt lat="10.1212451" lon="-75.2437899"><ele>17.6</ele><time>2026-04-18T17:33:24.641Z</time></trkpt><trkpt lat="10.1213467" lon="-75.2437845"><ele>18.0</ele><time>2026-04-18T17:33:25.638Z</time></trkpt><trkpt lat="10.1214493" lon="-75.2437747"><ele>18.0</ele><time>2026-04-18T17:33:26.637Z</time></trkpt><trkpt lat="10.1215518" lon="-75.2437665"><ele>18.0</ele><time>2026-04-18T17:33:27.636Z</time></trkpt><trkpt lat="10.1216541" lon="-75.2437599"><ele>18.0</ele><time>2026-04-18T17:33:28.638Z</time></trkpt><trkpt lat="10.1217567" lon="-75.2437527"><ele>18.0</ele><time>2026-04-18T17:33:29.639Z</time></trkpt><trkpt lat="10.1218572" lon="-75.2437472"><ele>18.0</ele><time>2026-04-18T17:33:30.64Z</time></trkpt><trkpt lat="10.121958" lon="-75.2437392"><ele>18.0</ele><time>2026-04-18T17:33:31.635Z</time></trkpt><trkpt lat="10.1220578" lon="-75.2437317"><ele>18.0</ele><time>2026-04-18T17:33:32.636Z</time></trkpt><trkpt lat="10.1221585" lon="-75.2437243"><ele>18.0</ele><time>2026-04-18T17:33:33.637Z</time></trkpt><trkpt lat="10.1222569" lon="-75.243716"><ele>18.0</ele><time>2026-04-18T17:33:34.637Z</time></trkpt><trkpt lat="10.1223573" lon="-75.2437119"><ele>18.0</ele><time>2026-04-18T17:33:35.636Z</time></trkpt><trkpt lat="10.122455" lon="-75.2437069"><ele>17.8</ele><time>2026-04-18T17:33:36.641Z</time></trkpt><trkpt lat="10.122555" lon="-75.2437001"><ele>17.6</ele><time>2026-04-18T17:33:37.643Z</time></trkpt><trkpt lat="10.1226523" lon="-75.2436892"><ele>17.4</ele><time>2026-04-18T17:33:38.637Z</time></trkpt><trkpt lat="10.1227505" lon="-75.2436802"><ele>17.2</ele><time>2026-04-18T17:33:39.64Z</time></trkpt><trkpt lat="10.1228485" lon="-75.2436703"><ele>17.0</ele><time>2026-04-18T17:33:40.636Z</time></trkpt><trkpt lat="10.1229449" lon="-75.2436649"><ele>17.0</ele><time>2026-04-18T17:33:41.636Z</time></trkpt><trkpt lat="10.1230408" lon="-75.2436544"><ele>17.0</ele><time>2026-04-18T17:33:42.636Z</time></trkpt><trkpt lat="10.1231354" lon="-75.2436467"><ele>17.0</ele><time>2026-04-18T17:33:43.638Z</time></trkpt><trkpt lat="10.1232282" lon="-75.243641"><ele>17.0</ele><time>2026-04-18T17:33:44.644Z</time></trkpt><trkpt lat="10.1233189" lon="-75.2436359"><ele>17.0</ele><time>2026-04-18T17:33:45.645Z</time></trkpt><trkpt lat="10.123409" lon="-75.2436294"><ele>17.166666666666668</ele><time>2026-04-18T17:33:46.636Z</time></trkpt><trkpt lat="10.1235013" lon="-75.2436241"><ele>17.333333333333336</ele><time>2026-04-18T17:33:47.647Z</time></trkpt><trkpt lat="10.1235928" lon="-75.2436191"><ele>17.5</ele><time>2026-04-18T17:33:48.638Z</time></trkpt><trkpt lat="10.1236811" lon="-75.2436119"><ele>17.666666666666668</ele><time>2026-04-18T17:33:49.636Z</time></trkpt><trkpt lat="10.1237665" lon="-75.2436037"><ele>17.833333333333332</ele><time>2026-04-18T17:33:50.637Z</time></trkpt><trkpt lat="10.1238497" lon="-75.2435963"><ele>18.0</ele><time>2026-04-18T17:33:51.638Z</time></trkpt><trkpt lat="10.1239312" lon="-75.2435909"><ele>18.0</ele><time>2026-04-18T17:33:52.639Z</time></trkpt><trkpt lat="10.1240173" lon="-75.2435916"><ele>18.0</ele><time>2026-04-18T17:33:53.638Z</time></trkpt><trkpt lat="10.1240943" lon="-75.2435878"><ele>18.0</ele><time>2026-04-18T17:33:54.64Z</time></trkpt><trkpt lat="10.1241698" lon="-75.2435815"><ele>18.0</ele><time>2026-04-18T17:33:55.637Z</time></trkpt><trkpt lat="10.1242394" lon="-75.243575"><ele>18.0</ele><time>2026-04-18T17:33:56.636Z</time></trkpt><trkpt lat="10.1243112" lon="-75.2435697"><ele>18.0</ele><time>2026-04-18T17:33:57.636Z</time></trkpt><trkpt lat="10.1243807" lon="-75.2435676"><ele>17.857142857142858</ele><time>2026-04-18T17:33:58.64Z</time></trkpt><trkpt lat="10.1244488" lon="-75.2435628"><ele>17.714285714285715</ele><time>2026-04-18T17:33:59.641Z</time></trkpt><trkpt lat="10.1245221" lon="-75.2435591"><ele>17.57142857142857</ele><time>2026-04-18T17:34:00.636Z</time></trkpt><trkpt lat="10.1245919" lon="-75.2435551"><ele>17.42857142857143</ele><time>2026-04-18T17:34:01.636Z</time></trkpt><trkpt lat="10.124661" lon="-75.2435477"><ele>17.285714285714285</ele><time>2026-04-18T17:34:02.638Z</time></trkpt><trkpt lat="10.1247289" lon="-75.2435412"><ele>17.142857142857142</ele><time>2026-04-18T17:34:03.636Z</time></trkpt><trkpt lat="10.1247989" lon="-75.2435366"><ele>17.0</ele><time>2026-04-18T17:34:04.638Z</time></trkpt><trkpt lat="10.1248644" lon="-75.2435312"><ele>16.8</ele><time>2026-04-18T17:34:05.64Z</time></trkpt><trkpt lat="10.1249342" lon="-75.243526"><ele>16.6</ele><time>2026-04-18T17:34:06.642Z</time></trkpt><trkpt lat="10.1250546" lon="-75.2435156"><ele>16.400000000000002</ele><time>2026-04-18T17:34:08.634Z</time></trkpt><trkpt lat="10.125172" lon="-75.2435063"><ele>16.2</ele><time>2026-04-18T17:34:10.637Z</time></trkpt><trkpt lat="10.1252843" lon="-75.2435011"><ele>16.0</ele><time>2026-04-18T17:34:12.635Z</time></trkpt><trkpt lat="10.1253972" lon="-75.2434953"><ele>16.0</ele><time>2026-04-18T17:34:14.639Z</time></trkpt><trkpt lat="10.1255073" lon="-75.243488"><ele>16.0</ele><time>2026-04-18T17:34:16.639Z</time></trkpt><trkpt lat="10.1256185" lon="-75.24348"><ele>16.0</ele><time>2026-04-18T17:34:18.638Z</time></trkpt><trkpt lat="10.1257375" lon="-75.2434764"><ele>16.0</ele><time>2026-04-18T17:34:20.635Z</time></trkpt><trkpt lat="10.1258516" lon="-75.2434683"><ele>15.8</ele><time>2026-04-18T17:34:22.639Z</time></trkpt><trkpt lat="10.1259719" lon="-75.2434654"><ele>15.600000000000001</ele><time>2026-04-18T17:34:24.635Z</time></trkpt><trkpt lat="10.1260838" lon="-75.2434557"><ele>15.4</ele><time>2026-04-18T17:34:26.638Z</time></trkpt><trkpt lat="10.1261902" lon="-75.2434495"><ele>15.2</ele><time>2026-04-18T17:34:28.639Z</time></trkpt><trkpt lat="10.1262956" lon="-75.2434355"><ele>15.0</ele><time>2026-04-18T17:34:30.638Z</time></trkpt><trkpt lat="10.1264058" lon="-75.2434264"><ele>15.0</ele><time>2026-04-18T17:34:32.641Z</time></trkpt><trkpt lat="10.1265225" lon="-75.2434217"><ele>15.0</ele><time>2026-04-18T17:34:34.642Z</time></trkpt><trkpt lat="10.1266415" lon="-75.2434165"><ele>15.0</ele><time>2026-04-18T17:34:36.636Z</time></trkpt><trkpt lat="10.1267623" lon="-75.2434066"><ele>15.0</ele><time>2026-04-18T17:34:38.635Z</time></trkpt><trkpt lat="10.1268392" lon="-75.2433962"><ele>15.0</ele><time>2026-04-18T17:34:39.635Z</time></trkpt><trkpt lat="10.1269075" lon="-75.2433908"><ele>15.142857142857142</ele><time>2026-04-18T17:34:40.636Z</time></trkpt><trkpt lat="10.1269787" lon="-75.2433858"><ele>15.285714285714285</ele><time>2026-04-18T17:34:41.637Z</time></trkpt><trkpt lat="10.1270493" lon="-75.2433788"><ele>15.428571428571427</ele><time>2026-04-18T17:34:42.64Z</time></trkpt><trkpt lat="10.1271183" lon="-75.2433762"><ele>15.571428571428571</ele><time>2026-04-18T17:34:43.638Z</time></trkpt><trkpt lat="10.127192" lon="-75.2433738"><ele>15.714285714285712</ele><time>2026-04-18T17:34:44.636Z</time></trkpt><trkpt lat="10.1272646" lon="-75.2433704"><ele>15.857142857142856</ele><time>2026-04-18T17:34:45.638Z</time></trkpt><trkpt lat="10.1273369" lon="-75.2433652"><ele>16.0</ele><time>2026-04-18T17:34:46.636Z</time></trkpt><trkpt lat="10.1274096" lon="-75.243364"><ele>16.0</ele><time>2026-04-18T17:34:47.636Z</time></trkpt><trkpt lat="10.1274814" lon="-75.2433565"><ele>15.999999999999998</ele><time>2026-04-18T17:34:48.636Z</time></trkpt><trkpt lat="10.1275507" lon="-75.2433499"><ele>16.0</ele><time>2026-04-18T17:34:49.639Z</time></trkpt><trkpt lat="10.1276246" lon="-75.243346"><ele>16.0</ele><time>2026-04-18T17:34:50.643Z</time></trkpt><trkpt lat="10.1277005" lon="-75.2433438"><ele>15.999999999999998</ele><time>2026-04-18T17:34:51.638Z</time></trkpt><trkpt lat="10.1277766" lon="-75.2433317"><ele>16.0</ele><time>2026-04-18T17:34:52.642Z</time></trkpt><trkpt lat="10.1278541" lon="-75.2433282"><ele>16.0</ele><time>2026-04-18T17:34:53.639Z</time></trkpt><trkpt lat="10.127935" lon="-75.2433252"><ele>15.999999999999998</ele><time>2026-04-18T17:34:54.638Z</time></trkpt><trkpt lat="10.1280167" lon="-75.2433183"><ele>16.0</ele><time>2026-04-18T17:34:55.634Z</time></trkpt><trkpt lat="10.1280991" lon="-75.2433102"><ele>16.0</ele><time>2026-04-18T17:34:56.635Z</time></trkpt><trkpt lat="10.1281807" lon="-75.2433031"><ele>16.0</ele><time>2026-04-18T17:34:57.635Z</time></trkpt><trkpt lat="10.1282663" lon="-75.243296"><ele>15.999999999999998</ele><time>2026-04-18T17:34:58.635Z</time></trkpt><trkpt lat="10.1283504" lon="-75.243288"><ele>16.0</ele><time>2026-04-18T17:34:59.642Z</time></trkpt><trkpt lat="10.1284428" lon="-75.2432756"><ele>16.166666666666664</ele><time>2026-04-18T17:35:00.636Z</time></trkpt><trkpt lat="10.1285366" lon="-75.2432674"><ele>16.333333333333332</ele><time>2026-04-18T17:35:01.637Z</time></trkpt><trkpt lat="10.1286238" lon="-75.2432609"><ele>16.5</ele><time>2026-04-18T17:35:02.638Z</time></trkpt><trkpt lat="10.1287119" lon="-75.2432581"><ele>16.666666666666668</ele><time>2026-04-18T17:35:03.638Z</time></trkpt><trkpt lat="10.1288003" lon="-75.2432517"><ele>16.833333333333336</ele><time>2026-04-18T17:35:04.64Z</time></trkpt><trkpt lat="10.1288902" lon="-75.2432457"><ele>17.0</ele><time>2026-04-18T17:35:05.638Z</time></trkpt><trkpt lat="10.1289784" lon="-75.2432395"><ele>17.0</ele><time>2026-04-18T17:35:06.642Z</time></trkpt><trkpt lat="10.1290644" lon="-75.2432344"><ele>17.0</ele><time>2026-04-18T17:35:07.639Z</time></trkpt><trkpt lat="10.1291455" lon="-75.2432279"><ele>17.0</ele><time>2026-04-18T17:35:08.64Z</time></trkpt><trkpt lat="10.1292219" lon="-75.2432227"><ele>17.0</ele><time>2026-04-18T17:35:09.638Z</time></trkpt><trkpt lat="10.1292965" lon="-75.2432168"><ele>17.0</ele><time>2026-04-18T17:35:10.639Z</time></trkpt><trkpt lat="10.1293683" lon="-75.243209"><ele>17.0</ele><time>2026-04-18T17:35:11.639Z</time></trkpt><trkpt lat="10.1294395" lon="-75.2432038"><ele>17.0</ele><time>2026-04-18T17:35:12.638Z</time></trkpt><trkpt lat="10.1295057" lon="-75.2432007"><ele>17.0</ele><time>2026-04-18T17:35:13.641Z</time></trkpt><trkpt lat="10.1295745" lon="-75.2431985"><ele>17.0</ele><time>2026-04-18T17:35:14.637Z</time></trkpt><trkpt lat="10.1296425" lon="-75.2431979"><ele>17.0</ele><time>2026-04-18T17:35:15.636Z</time></trkpt><trkpt lat="10.1297077" lon="-75.243195"><ele>17.0</ele><time>2026-04-18T17:35:16.638Z</time></trkpt><trkpt lat="10.1298289" lon="-75.2431891"><ele>17.0</ele><time>2026-04-18T17:35:18.635Z</time></trkpt><trkpt lat="10.1299435" lon="-75.243173"><ele>16.25</ele><time>2026-04-18T17:35:20.636Z</time></trkpt><trkpt lat="10.1300622" lon="-75.243167"><ele>15.5</ele><time>2026-04-18T17:35:22.637Z</time></trkpt><trkpt lat="10.1301759" lon="-75.2431626"><ele>14.75</ele><time>2026-04-18T17:35:24.635Z</time></trkpt><trkpt lat="10.1302871" lon="-75.2431547"><ele>14.0</ele><time>2026-04-18T17:35:26.637Z</time></trkpt><trkpt lat="10.1303964" lon="-75.2431414"><ele>14.0</ele><time>2026-04-18T17:35:28.642Z</time></trkpt><trkpt lat="10.1305103" lon="-75.2431315"><ele>14.0</ele><time>2026-04-18T17:35:30.637Z</time></trkpt><trkpt lat="10.1306207" lon="-75.2431267"><ele>14.0</ele><time>2026-04-18T17:35:32.635Z</time></trkpt><trkpt lat="10.1307394" lon="-75.2431177"><ele>14.0</ele><time>2026-04-18T17:35:34.637Z</time></trkpt><trkpt lat="10.1308524" lon="-75.2431051"><ele>14.2</ele><time>2026-04-18T17:35:36.635Z</time></trkpt><trkpt lat="10.1309439" lon="-75.243115"><ele>14.399999999999999</ele><time>2026-04-18T17:35:38.636Z</time></trkpt><trkpt lat="10.1310106" lon="-75.2431128"><ele>14.6</ele><time>2026-04-18T17:35:39.64Z</time></trkpt><trkpt lat="10.1311201" lon="-75.2431044"><ele>14.8</ele><time>2026-04-18T17:35:41.641Z</time></trkpt><trkpt lat="10.1312234" lon="-75.2430966"><ele>15.0</ele><time>2026-04-18T17:35:43.636Z</time></trkpt><trkpt lat="10.1313236" lon="-75.2430879"><ele>15.0</ele><time>2026-04-18T17:35:45.637Z</time></trkpt><trkpt lat="10.1314205" lon="-75.2430799"><ele>15.0</ele><time>2026-04-18T17:35:47.638Z</time></trkpt><trkpt lat="10.1315295" lon="-75.2430756"><ele>15.0</ele><time>2026-04-18T17:35:49.639Z</time></trkpt><trkpt lat="10.131651" lon="-75.2430739"><ele>15.0</ele><time>2026-04-18T17:35:51.635Z</time></trkpt><trkpt lat="10.131716" lon="-75.2430706"><ele>15.0</ele><time>2026-04-18T17:35:52.637Z</time></trkpt><trkpt lat="10.1317817" lon="-75.2430675"><ele>15.166666666666666</ele><time>2026-04-18T17:35:53.639Z</time></trkpt><trkpt lat="10.1319091" lon="-75.2430606"><ele>15.333333333333332</ele><time>2026-04-18T17:35:55.636Z</time></trkpt><trkpt lat="10.1319733" lon="-75.243055"><ele>15.5</ele><time>2026-04-18T17:35:56.647Z</time></trkpt><trkpt lat="10.1320497" lon="-75.2430472"><ele>15.666666666666666</ele><time>2026-04-18T17:35:57.639Z</time></trkpt><trkpt lat="10.1321193" lon="-75.243042"><ele>15.833333333333332</ele><time>2026-04-18T17:35:58.639Z</time></trkpt><trkpt lat="10.1321855" lon="-75.2430352"><ele>16.0</ele><time>2026-04-18T17:35:59.637Z</time></trkpt><trkpt lat="10.1322522" lon="-75.2430297"><ele>16.0</ele><time>2026-04-18T17:36:00.634Z</time></trkpt><trkpt lat="10.1323225" lon="-75.2430235"><ele>15.999999999999998</ele><time>2026-04-18T17:36:01.639Z</time></trkpt><trkpt lat="10.1323895" lon="-75.2430177"><ele>16.0</ele><time>2026-04-18T17:36:02.64Z</time></trkpt><trkpt lat="10.1324573" lon="-75.2430123"><ele>16.0</ele><time>2026-04-18T17:36:03.634Z</time></trkpt><trkpt lat="10.1325227" lon="-75.243007"><ele>15.999999999999998</ele><time>2026-04-18T17:36:04.637Z</time></trkpt><trkpt lat="10.1325922" lon="-75.2430022"><ele>16.0</ele><time>2026-04-18T17:36:05.639Z</time></trkpt><trkpt lat="10.1326573" lon="-75.2429962"><ele>16.0</ele><time>2026-04-18T17:36:06.637Z</time></trkpt><trkpt lat="10.1327824" lon="-75.243"><ele>16.0</ele><time>2026-04-18T17:36:08.637Z</time></trkpt><trkpt lat="10.1329051" lon="-75.2429896"><ele>16.0</ele><time>2026-04-18T17:36:10.635Z</time></trkpt><trkpt lat="10.1330253" lon="-75.2429765"><ele>16.0</ele><time>2026-04-18T17:36:12.637Z</time></trkpt><trkpt lat="10.1331412" lon="-75.2429759"><ele>16.0</ele><time>2026-04-18T17:36:14.637Z</time></trkpt><trkpt lat="10.1332111" lon="-75.242976"><ele>16.0</ele><time>2026-04-18T17:36:15.635Z</time></trkpt><trkpt lat="10.133317" lon="-75.2429782"><ele>16.0</ele><time>2026-04-18T17:36:17.635Z</time></trkpt><trkpt lat="10.133378" lon="-75.2429616"><ele>16.0</ele><time>2026-04-18T17:36:18.641Z</time></trkpt><trkpt lat="10.1334832" lon="-75.2429501"><ele>16.0</ele><time>2026-04-18T17:36:20.637Z</time></trkpt><trkpt lat="10.1335811" lon="-75.2429369"><ele>16.0</ele><time>2026-04-18T17:36:22.635Z</time></trkpt><trkpt lat="10.1336775" lon="-75.2429312"><ele>16.0</ele><time>2026-04-18T17:36:24.636Z</time></trkpt><trkpt lat="10.1337703" lon="-75.2429194"><ele>15.999999999999998</ele><time>2026-04-18T17:36:26.638Z</time></trkpt><trkpt lat="10.1338668" lon="-75.2429059"><ele>16.0</ele><time>2026-04-18T17:36:28.636Z</time></trkpt><trkpt lat="10.1339537" lon="-75.2428951"><ele>16.0</ele><time>2026-04-18T17:36:30.637Z</time></trkpt><trkpt lat="10.1340388" lon="-75.242895"><ele>16.0</ele><time>2026-04-18T17:36:32.642Z</time></trkpt><trkpt lat="10.1341162" lon="-75.2428865"><ele>15.999999999999998</ele><time>2026-04-18T17:36:34.64Z</time></trkpt><trkpt lat="10.134189" lon="-75.2428788"><ele>16.0</ele><time>2026-04-18T17:36:36.635Z</time></trkpt><trkpt lat="10.1342676" lon="-75.2428749"><ele>15.857142857142856</ele><time>2026-04-18T17:36:38.638Z</time></trkpt><trkpt lat="10.1343434" lon="-75.2428713"><ele>15.714285714285712</ele><time>2026-04-18T17:36:40.636Z</time></trkpt><trkpt lat="10.1344319" lon="-75.2428807"><ele>15.571428571428571</ele><time>2026-04-18T17:36:43.638Z</time></trkpt><trkpt lat="10.1345034" lon="-75.2428947"><ele>15.428571428571427</ele><time>2026-04-18T17:36:46.635Z</time></trkpt><trkpt lat="10.1345512" lon="-75.2429402"><ele>15.285714285714285</ele><time>2026-04-18T17:36:50.642Z</time></trkpt><trkpt lat="10.1345735" lon="-75.2430109"><ele>15.142857142857142</ele><time>2026-04-18T17:50:04.644Z</time></trkpt><trkpt lat="10.1345868" lon="-75.2430754"><ele>15.0</ele><time>2026-04-18T17:51:52.637Z</time></trkpt><trkpt lat="10.1345672" lon="-75.2431403"><ele>14.857142857142858</ele><time>2026-04-18T17:52:20.636Z</time></trkpt><trkpt lat="10.1345603" lon="-75.2432072"><ele>14.714285714285714</ele><time>2026-04-18T17:52:31.639Z</time></trkpt><trkpt lat="10.134553" lon="-75.2432749"><ele>14.571428571428571</ele><time>2026-04-18T17:52:36.635Z</time></trkpt><trkpt lat="10.1345598" lon="-75.2433551"><ele>14.428571428571429</ele><time>2026-04-18T17:52:40.642Z</time></trkpt><trkpt lat="10.1345621" lon="-75.2434201"><ele>14.285714285714285</ele><time>2026-04-18T17:52:46.638Z</time></trkpt><trkpt lat="10.1345651" lon="-75.2434925"><ele>14.142857142857142</ele><time>2026-04-18T17:52:54.637Z</time></trkpt><trkpt lat="10.1345618" lon="-75.2435626"><ele>14.0</ele><time>2026-04-18T17:53:02.64Z</time></trkpt><trkpt lat="10.1345605" lon="-75.2436333"><ele>14.000000000000002</ele><time>2026-04-18T17:53:09.646Z</time></trkpt><trkpt lat="10.1345704" lon="-75.2437186"><ele>14.0</ele><time>2026-04-18T17:53:14.634Z</time></trkpt><trkpt lat="10.1345818" lon="-75.2438132"><ele>14.0</ele><time>2026-04-18T17:53:17.636Z</time></trkpt><trkpt lat="10.1346197" lon="-75.2438888"><ele>14.0</ele><time>2026-04-18T17:53:18.637Z</time></trkpt><trkpt lat="10.1346301" lon="-75.2439776"><ele>14.000000000000002</ele><time>2026-04-18T17:53:20.635Z</time></trkpt><trkpt lat="10.1346341" lon="-75.2440775"><ele>14.0</ele><time>2026-04-18T17:53:22.636Z</time></trkpt><trkpt lat="10.1346399" lon="-75.2441818"><ele>14.0</ele><time>2026-04-18T17:53:24.642Z</time></trkpt><trkpt lat="10.1346518" lon="-75.2442949"><ele>13.999999999999998</ele><time>2026-04-18T17:53:26.638Z</time></trkpt><trkpt lat="10.1346585" lon="-75.2444152"><ele>13.999999999999998</ele><time>2026-04-18T17:53:28.636Z</time></trkpt><trkpt lat="10.1346673" lon="-75.2445404"><ele>14.0</ele><time>2026-04-18T17:53:30.64Z</time></trkpt><trkpt lat="10.1346719" lon="-75.2446056"><ele>14.0</ele><time>2026-04-18T17:53:31.64Z</time></trkpt><trkpt lat="10.134677" lon="-75.2446698"><ele>14.000000000000002</ele><time>2026-04-18T17:53:32.642Z</time></trkpt><trkpt lat="10.1346899" lon="-75.2447956"><ele>14.0</ele><time>2026-04-18T17:53:34.638Z</time></trkpt><trkpt lat="10.1346912" lon="-75.2448677"><ele>14.0</ele><time>2026-04-18T17:53:35.646Z</time></trkpt><trkpt lat="10.1346973" lon="-75.2449355"><ele>14.0</ele><time>2026-04-18T17:53:36.634Z</time></trkpt><trkpt lat="10.1347025" lon="-75.245001"><ele>14.000000000000002</ele><time>2026-04-18T17:53:37.633Z</time></trkpt><trkpt lat="10.13471" lon="-75.2450668"><ele>14.0</ele><time>2026-04-18T17:53:38.632Z</time></trkpt><trkpt lat="10.1347163" lon="-75.2451331"><ele>14.0</ele><time>2026-04-18T17:53:39.633Z</time></trkpt><trkpt lat="10.134719" lon="-75.2451985"><ele>13.999999999999998</ele><time>2026-04-18T17:53:40.634Z</time></trkpt><trkpt lat="10.1347269" lon="-75.2453247"><ele>13.999999999999998</ele><time>2026-04-18T17:53:42.632Z</time></trkpt><trkpt lat="10.1347379" lon="-75.2454479"><ele>14.0</ele><time>2026-04-18T17:53:44.637Z</time></trkpt><trkpt lat="10.1347496" lon="-75.245565"><ele>14.0</ele><time>2026-04-18T17:53:46.652Z</time></trkpt><trkpt lat="10.1347631" lon="-75.2456907"><ele>14.0</ele><time>2026-04-18T17:53:48.638Z</time></trkpt><trkpt lat="10.1347723" lon="-75.2457552"><ele>14.0</ele><time>2026-04-18T17:53:49.635Z</time></trkpt><trkpt lat="10.1347794" lon="-75.2458218"><ele>14.0</ele><time>2026-04-18T17:53:50.638Z</time></trkpt><trkpt lat="10.1347819" lon="-75.2458919"><ele>14.0</ele><time>2026-04-18T17:53:51.634Z</time></trkpt><trkpt lat="10.1347854" lon="-75.2459602"><ele>14.0</ele><time>2026-04-18T17:53:52.633Z</time></trkpt><trkpt lat="10.1347911" lon="-75.2460313"><ele>14.0</ele><time>2026-04-18T17:53:53.638Z</time></trkpt><trkpt lat="10.1347948" lon="-75.2460985"><ele>14.0</ele><time>2026-04-18T17:53:54.634Z</time></trkpt><trkpt lat="10.1348" lon="-75.2461656"><ele>14.0</ele><time>2026-04-18T17:53:55.638Z</time></trkpt><trkpt lat="10.134804" lon="-75.2462316"><ele>14.0</ele><time>2026-04-18T17:53:56.635Z</time></trkpt><trkpt lat="10.1348083" lon="-75.2463004"><ele>14.0</ele><time>2026-04-18T17:53:57.632Z</time></trkpt><trkpt lat="10.1348132" lon="-75.2463708"><ele>14.0</ele><time>2026-04-18T17:53:58.63Z</time></trkpt><trkpt lat="10.1348201" lon="-75.2464424"><ele>14.0</ele><time>2026-04-18T17:53:59.632Z</time></trkpt><trkpt lat="10.1348249" lon="-75.2465137"><ele>14.0</ele><time>2026-04-18T17:54:00.634Z</time></trkpt><trkpt lat="10.1348317" lon="-75.2465868"><ele>14.0</ele><time>2026-04-18T17:54:01.637Z</time></trkpt><trkpt lat="10.1348353" lon="-75.2466609"><ele>14.0</ele><time>2026-04-18T17:54:02.633Z</time></trkpt><trkpt lat="10.1348394" lon="-75.2467339"><ele>14.0</ele><time>2026-04-18T17:54:03.638Z</time></trkpt><trkpt lat="10.1348451" lon="-75.2468065"><ele>14.0</ele><time>2026-04-18T17:54:04.636Z</time></trkpt><trkpt lat="10.1348506" lon="-75.24688"><ele>14.0</ele><time>2026-04-18T17:54:05.636Z</time></trkpt><trkpt lat="10.1348564" lon="-75.2469545"><ele>14.0</ele><time>2026-04-18T17:54:06.634Z</time></trkpt><trkpt lat="10.1348603" lon="-75.2470318"><ele>14.0</ele><time>2026-04-18T17:54:07.632Z</time></trkpt><trkpt lat="10.1348646" lon="-75.247107"><ele>14.0</ele><time>2026-04-18T17:54:08.632Z</time></trkpt><trkpt lat="10.134868" lon="-75.2471817"><ele>14.0</ele><time>2026-04-18T17:54:09.631Z</time></trkpt><trkpt lat="10.1348709" lon="-75.2472533"><ele>14.0</ele><time>2026-04-18T17:54:10.63Z</time></trkpt><trkpt lat="10.1348769" lon="-75.2473217"><ele>14.0</ele><time>2026-04-18T17:54:11.632Z</time></trkpt><trkpt lat="10.1348834" lon="-75.2473867"><ele>14.0</ele><time>2026-04-18T17:54:12.634Z</time></trkpt><trkpt lat="10.1348857" lon="-75.2474535"><ele>14.0</ele><time>2026-04-18T17:54:13.638Z</time></trkpt><trkpt lat="10.1348908" lon="-75.2475237"><ele>14.0</ele><time>2026-04-18T17:54:14.638Z</time></trkpt><trkpt lat="10.1348983" lon="-75.2475982"><ele>14.0</ele><time>2026-04-18T17:54:15.634Z</time></trkpt><trkpt lat="10.1349049" lon="-75.247674"><ele>13.833333333333334</ele><time>2026-04-18T17:54:16.636Z</time></trkpt><trkpt lat="10.1349119" lon="-75.2477512"><ele>13.666666666666668</ele><time>2026-04-18T17:54:17.633Z</time></trkpt><trkpt lat="10.1349181" lon="-75.2478308"><ele>13.5</ele><time>2026-04-18T17:54:18.639Z</time></trkpt><trkpt lat="10.1349244" lon="-75.2479137"><ele>13.333333333333332</ele><time>2026-04-18T17:54:19.634Z</time></trkpt><trkpt lat="10.1349376" lon="-75.2480021"><ele>13.166666666666666</ele><time>2026-04-18T17:54:20.636Z</time></trkpt><trkpt lat="10.1349434" lon="-75.2480863"><ele>13.0</ele><time>2026-04-18T17:54:21.631Z</time></trkpt><trkpt lat="10.1349491" lon="-75.2481704"><ele>12.999999999999998</ele><time>2026-04-18T17:54:22.634Z</time></trkpt><trkpt lat="10.1349703" lon="-75.248251"><ele>13.0</ele><time>2026-04-18T17:54:23.635Z</time></trkpt><trkpt lat="10.134978" lon="-75.2483336"><ele>13.0</ele><time>2026-04-18T17:54:24.634Z</time></trkpt><trkpt lat="10.1349814" lon="-75.2484199"><ele>13.0</ele><time>2026-04-18T17:54:25.64Z</time></trkpt><trkpt lat="10.1349885" lon="-75.248505"><ele>12.999999999999998</ele><time>2026-04-18T17:54:26.639Z</time></trkpt><trkpt lat="10.1349927" lon="-75.248591"><ele>13.0</ele><time>2026-04-18T17:54:27.632Z</time></trkpt><trkpt lat="10.134999" lon="-75.2486772"><ele>12.999999999999998</ele><time>2026-04-18T17:54:28.637Z</time></trkpt><trkpt lat="10.1350028" lon="-75.248767"><ele>13.0</ele><time>2026-04-18T17:54:29.633Z</time></trkpt><trkpt lat="10.1350057" lon="-75.2488488"><ele>13.0</ele><time>2026-04-18T17:54:30.634Z</time></trkpt><trkpt lat="10.1350128" lon="-75.2489344"><ele>13.0</ele><time>2026-04-18T17:54:31.635Z</time></trkpt><trkpt lat="10.1350186" lon="-75.2490135"><ele>12.999999999999998</ele><time>2026-04-18T17:54:32.633Z</time></trkpt><trkpt lat="10.1350221" lon="-75.2490916"><ele>13.0</ele><time>2026-04-18T17:54:33.633Z</time></trkpt><trkpt lat="10.1350284" lon="-75.2491617"><ele>13.142857142857142</ele><time>2026-04-18T17:54:34.634Z</time></trkpt><trkpt lat="10.1350369" lon="-75.2492327"><ele>13.285714285714286</ele><time>2026-04-18T17:54:35.635Z</time></trkpt><trkpt lat="10.1350424" lon="-75.2492998"><ele>13.428571428571429</ele><time>2026-04-18T17:54:36.634Z</time></trkpt><trkpt lat="10.1350421" lon="-75.2493751"><ele>13.571428571428571</ele><time>2026-04-18T17:54:37.633Z</time></trkpt><trkpt lat="10.1350447" lon="-75.2494436"><ele>13.714285714285715</ele><time>2026-04-18T17:54:38.633Z</time></trkpt><trkpt lat="10.1350467" lon="-75.2495133"><ele>13.857142857142858</ele><time>2026-04-18T17:54:39.634Z</time></trkpt><trkpt lat="10.1350568" lon="-75.2495894"><ele>14.0</ele><time>2026-04-18T17:54:40.64Z</time></trkpt><trkpt lat="10.1350655" lon="-75.2496647"><ele>14.0</ele><time>2026-04-18T17:54:41.634Z</time></trkpt><trkpt lat="10.1350764" lon="-75.2497382"><ele>14.0</ele><time>2026-04-18T17:54:42.634Z</time></trkpt><trkpt lat="10.135085" lon="-75.2498075"><ele>14.0</ele><time>2026-04-18T17:54:43.633Z</time></trkpt><trkpt lat="10.1350926" lon="-75.2498767"><ele>14.0</ele><time>2026-04-18T17:54:44.637Z</time></trkpt><trkpt lat="10.1350943" lon="-75.2499448"><ele>14.0</ele><time>2026-04-18T17:54:45.635Z</time></trkpt><trkpt lat="10.1350967" lon="-75.2500099"><ele>14.0</ele><time>2026-04-18T17:54:46.638Z</time></trkpt><trkpt lat="10.1351009" lon="-75.2500784"><ele>14.0</ele><time>2026-04-18T17:54:47.633Z</time></trkpt><trkpt lat="10.1350984" lon="-75.2501452"><ele>13.333333333333334</ele><time>2026-04-18T17:54:48.635Z</time></trkpt><trkpt lat="10.1351027" lon="-75.2502193"><ele>12.666666666666668</ele><time>2026-04-18T17:54:49.635Z</time></trkpt><trkpt lat="10.1351071" lon="-75.250298"><ele>12.0</ele><time>2026-04-18T17:54:50.637Z</time></trkpt><trkpt lat="10.1351127" lon="-75.250375"><ele>11.333333333333334</ele><time>2026-04-18T17:54:51.635Z</time></trkpt><trkpt lat="10.1351206" lon="-75.2504538"><ele>10.666666666666668</ele><time>2026-04-18T17:54:52.635Z</time></trkpt><trkpt lat="10.1351294" lon="-75.2505345"><ele>10.0</ele><time>2026-04-18T17:54:53.635Z</time></trkpt><trkpt lat="10.1351362" lon="-75.2506148"><ele>10.333333333333334</ele><time>2026-04-18T17:54:54.634Z</time></trkpt><trkpt lat="10.1351423" lon="-75.2506949"><ele>10.666666666666668</ele><time>2026-04-18T17:54:55.633Z</time></trkpt><trkpt lat="10.1351492" lon="-75.2507762"><ele>11.0</ele><time>2026-04-18T17:54:56.636Z</time></trkpt><trkpt lat="10.1351569" lon="-75.2508641"><ele>11.333333333333334</ele><time>2026-04-18T17:54:57.634Z</time></trkpt><trkpt lat="10.1351598" lon="-75.2509509"><ele>11.666666666666666</ele><time>2026-04-18T17:54:58.635Z</time></trkpt><trkpt lat="10.1351689" lon="-75.2510408"><ele>12.0</ele><time>2026-04-18T17:54:59.633Z</time></trkpt><trkpt lat="10.1351809" lon="-75.2511251"><ele>12.0</ele><time>2026-04-18T17:55:00.632Z</time></trkpt><trkpt lat="10.135191" lon="-75.2512125"><ele>12.0</ele><time>2026-04-18T17:55:01.634Z</time></trkpt><trkpt lat="10.1351983" lon="-75.2512973"><ele>12.0</ele><time>2026-04-18T17:55:02.634Z</time></trkpt><trkpt lat="10.1352021" lon="-75.2513821"><ele>12.0</ele><time>2026-04-18T17:55:03.635Z</time></trkpt><trkpt lat="10.1352071" lon="-75.2514641"><ele>12.0</ele><time>2026-04-18T17:55:04.635Z</time></trkpt><trkpt lat="10.1352107" lon="-75.2515441"><ele>12.0</ele><time>2026-04-18T17:55:05.635Z</time></trkpt><trkpt lat="10.1352163" lon="-75.2516275"><ele>11.5</ele><time>2026-04-18T17:55:06.635Z</time></trkpt><trkpt lat="10.1352233" lon="-75.2517093"><ele>11.0</ele><time>2026-04-18T17:55:07.632Z</time></trkpt><trkpt lat="10.1352284" lon="-75.2517862"><ele>10.5</ele><time>2026-04-18T17:55:08.64Z</time></trkpt><trkpt lat="10.1352343" lon="-75.2518633"><ele>10.0</ele><time>2026-04-18T17:55:09.635Z</time></trkpt><trkpt lat="10.1352391" lon="-75.2519412"><ele>9.5</ele><time>2026-04-18T17:55:10.638Z</time></trkpt><trkpt lat="10.135243" lon="-75.2520154"><ele>9.0</ele><time>2026-04-18T17:55:11.633Z</time></trkpt><trkpt lat="10.1352459" lon="-75.2520852"><ele>9.0</ele><time>2026-04-18T17:55:12.634Z</time></trkpt><trkpt lat="10.1352553" lon="-75.2522034"><ele>9.0</ele><time>2026-04-18T17:55:14.636Z</time></trkpt><trkpt lat="10.1352658" lon="-75.2523235"><ele>9.0</ele><time>2026-04-18T17:55:16.634Z</time></trkpt><trkpt lat="10.1352727" lon="-75.252444"><ele>9.0</ele><time>2026-04-18T17:55:18.633Z</time></trkpt><trkpt lat="10.1352745" lon="-75.2525146"><ele>9.0</ele><time>2026-04-18T17:55:19.632Z</time></trkpt><trkpt lat="10.1352818" lon="-75.2525847"><ele>9.000000000000002</ele><time>2026-04-18T17:55:20.639Z</time></trkpt><trkpt lat="10.1352856" lon="-75.2526559"><ele>9.0</ele><time>2026-04-18T17:55:21.635Z</time></trkpt><trkpt lat="10.1352905" lon="-75.2527225"><ele>9.0</ele><time>2026-04-18T17:55:22.634Z</time></trkpt><trkpt lat="10.135296" lon="-75.2527946"><ele>9.0</ele><time>2026-04-18T17:55:23.635Z</time></trkpt><trkpt lat="10.1353007" lon="-75.2528673"><ele>9.0</ele><time>2026-04-18T17:55:24.638Z</time></trkpt><trkpt lat="10.1353054" lon="-75.2529381"><ele>9.000000000000002</ele><time>2026-04-18T17:55:25.636Z</time></trkpt><trkpt lat="10.1353105" lon="-75.2530107"><ele>9.0</ele><time>2026-04-18T17:55:26.637Z</time></trkpt><trkpt lat="10.1353178" lon="-75.2530822"><ele>9.142857142857144</ele><time>2026-04-18T17:55:27.637Z</time></trkpt><trkpt lat="10.1353231" lon="-75.2531593"><ele>9.285714285714286</ele><time>2026-04-18T17:55:28.634Z</time></trkpt><trkpt lat="10.135326" lon="-75.2532298"><ele>9.428571428571429</ele><time>2026-04-18T17:55:29.635Z</time></trkpt><trkpt lat="10.1353351" lon="-75.2533073"><ele>9.571428571428573</ele><time>2026-04-18T17:55:30.634Z</time></trkpt><trkpt lat="10.1353394" lon="-75.253382"><ele>9.714285714285715</ele><time>2026-04-18T17:55:31.633Z</time></trkpt><trkpt lat="10.1353442" lon="-75.2534579"><ele>9.857142857142858</ele><time>2026-04-18T17:55:32.633Z</time></trkpt><trkpt lat="10.1353515" lon="-75.2535319"><ele>10.0</ele><time>2026-04-18T17:55:33.638Z</time></trkpt><trkpt lat="10.135357" lon="-75.2536048"><ele>10.0</ele><time>2026-04-18T17:55:34.635Z</time></trkpt><trkpt lat="10.1353623" lon="-75.2536753"><ele>10.0</ele><time>2026-04-18T17:55:35.637Z</time></trkpt><trkpt lat="10.1353641" lon="-75.2537433"><ele>10.0</ele><time>2026-04-18T17:55:36.633Z</time></trkpt><trkpt lat="10.135377" lon="-75.2538176"><ele>10.0</ele><time>2026-04-18T17:55:37.633Z</time></trkpt><trkpt lat="10.1353925" lon="-75.2538923"><ele>10.0</ele><time>2026-04-18T17:55:38.635Z</time></trkpt><trkpt lat="10.1354007" lon="-75.2539682"><ele>10.0</ele><time>2026-04-18T17:55:39.636Z</time></trkpt><trkpt lat="10.1354043" lon="-75.2540415"><ele>10.0</ele><time>2026-04-18T17:55:40.635Z</time></trkpt><trkpt lat="10.1354084" lon="-75.2541176"><ele>9.857142857142858</ele><time>2026-04-18T17:55:41.635Z</time></trkpt><trkpt lat="10.1354132" lon="-75.2541946"><ele>9.714285714285715</ele><time>2026-04-18T17:55:42.633Z</time></trkpt><trkpt lat="10.1354177" lon="-75.2542689"><ele>9.571428571428573</ele><time>2026-04-18T17:55:43.633Z</time></trkpt><trkpt lat="10.1354219" lon="-75.2543437"><ele>9.428571428571429</ele><time>2026-04-18T17:55:44.634Z</time></trkpt><trkpt lat="10.1354267" lon="-75.2544168"><ele>9.285714285714286</ele><time>2026-04-18T17:55:45.636Z</time></trkpt><trkpt lat="10.1354316" lon="-75.2544868"><ele>9.142857142857144</ele><time>2026-04-18T17:55:46.635Z</time></trkpt><trkpt lat="10.1354366" lon="-75.2545628"><ele>9.0</ele><time>2026-04-18T17:55:47.632Z</time></trkpt><trkpt lat="10.1354357" lon="-75.2546367"><ele>9.0</ele><time>2026-04-18T17:55:48.636Z</time></trkpt><trkpt lat="10.135441" lon="-75.2547167"><ele>9.0</ele><time>2026-04-18T17:55:49.633Z</time></trkpt><trkpt lat="10.1354496" lon="-75.2548009"><ele>9.0</ele><time>2026-04-18T17:55:50.636Z</time></trkpt><trkpt lat="10.1354579" lon="-75.2548804"><ele>9.0</ele><time>2026-04-18T17:55:51.633Z</time></trkpt><trkpt lat="10.1354615" lon="-75.2549588"><ele>9.0</ele><time>2026-04-18T17:55:52.639Z</time></trkpt><trkpt lat="10.1354676" lon="-75.2550394"><ele>9.0</ele><time>2026-04-18T17:55:53.635Z</time></trkpt><trkpt lat="10.1354726" lon="-75.2551183"><ele>9.166666666666666</ele><time>2026-04-18T17:55:54.642Z</time></trkpt><trkpt lat="10.1354789" lon="-75.2551992"><ele>9.333333333333334</ele><time>2026-04-18T17:55:55.638Z</time></trkpt><trkpt lat="10.1354864" lon="-75.2552789"><ele>9.5</ele><time>2026-04-18T17:55:56.639Z</time></trkpt><trkpt lat="10.1354906" lon="-75.2553579"><ele>9.666666666666668</ele><time>2026-04-18T17:55:57.638Z</time></trkpt><trkpt lat="10.1354956" lon="-75.2554364"><ele>9.833333333333334</ele><time>2026-04-18T17:55:58.643Z</time></trkpt><trkpt lat="10.1355012" lon="-75.2555182"><ele>10.0</ele><time>2026-04-18T17:55:59.637Z</time></trkpt><trkpt lat="10.1355076" lon="-75.2555996"><ele>9.833333333333334</ele><time>2026-04-18T17:56:00.637Z</time></trkpt><trkpt lat="10.1355141" lon="-75.2556828"><ele>9.666666666666668</ele><time>2026-04-18T17:56:01.641Z</time></trkpt><trkpt lat="10.1355225" lon="-75.2557626"><ele>9.5</ele><time>2026-04-18T17:56:02.633Z</time></trkpt><trkpt lat="10.1355262" lon="-75.2558408"><ele>9.333333333333334</ele><time>2026-04-18T17:56:03.643Z</time></trkpt><trkpt lat="10.1355341" lon="-75.2559259"><ele>9.166666666666666</ele><time>2026-04-18T17:56:04.648Z</time></trkpt><trkpt lat="10.135539" lon="-75.2560085"><ele>9.0</ele><time>2026-04-18T17:56:05.646Z</time></trkpt><trkpt lat="10.1355432" lon="-75.2560901"><ele>9.0</ele><time>2026-04-18T17:56:06.636Z</time></trkpt><trkpt lat="10.1355504" lon="-75.2561627"><ele>9.0</ele><time>2026-04-18T17:56:07.639Z</time></trkpt><trkpt lat="10.1355589" lon="-75.2562448"><ele>9.0</ele><time>2026-04-18T17:56:08.635Z</time></trkpt><trkpt lat="10.1355639" lon="-75.2563228"><ele>9.0</ele><time>2026-04-18T17:56:09.639Z</time></trkpt><trkpt lat="10.1355726" lon="-75.2564018"><ele>9.0</ele><time>2026-04-18T17:56:10.634Z</time></trkpt><trkpt lat="10.1355775" lon="-75.256477"><ele>9.0</ele><time>2026-04-18T17:56:11.638Z</time></trkpt><trkpt lat="10.135581" lon="-75.2565559"><ele>8.714285714285715</ele><time>2026-04-18T17:56:12.639Z</time></trkpt><trkpt lat="10.1355849" lon="-75.2566314"><ele>8.428571428571429</ele><time>2026-04-18T17:56:13.64Z</time></trkpt><trkpt lat="10.1355884" lon="-75.256707"><ele>8.142857142857142</ele><time>2026-04-18T17:56:14.638Z</time></trkpt><trkpt lat="10.1355948" lon="-75.2567838"><ele>7.857142857142858</ele><time>2026-04-18T17:56:15.636Z</time></trkpt><trkpt lat="10.1356002" lon="-75.2568581"><ele>7.571428571428571</ele><time>2026-04-18T17:56:16.637Z</time></trkpt><trkpt lat="10.1356062" lon="-75.2569309"><ele>7.285714285714286</ele><time>2026-04-18T17:56:17.636Z</time></trkpt><trkpt lat="10.1356134" lon="-75.2570112"><ele>7.0</ele><time>2026-04-18T17:56:18.637Z</time></trkpt><trkpt lat="10.1356174" lon="-75.2570853"><ele>7.000000000000001</ele><time>2026-04-18T17:56:19.633Z</time></trkpt><trkpt lat="10.1356235" lon="-75.257163"><ele>7.0</ele><time>2026-04-18T17:56:20.633Z</time></trkpt><trkpt lat="10.1356296" lon="-75.2572379"><ele>7.0</ele><time>2026-04-18T17:56:21.636Z</time></trkpt><trkpt lat="10.1356365" lon="-75.2573126"><ele>7.0</ele><time>2026-04-18T17:56:22.637Z</time></trkpt><trkpt lat="10.1356425" lon="-75.2573868"><ele>7.000000000000001</ele><time>2026-04-18T17:56:23.637Z</time></trkpt><trkpt lat="10.1356454" lon="-75.257466"><ele>7.0</ele><time>2026-04-18T17:56:24.637Z</time></trkpt><trkpt lat="10.135651" lon="-75.2575448"><ele>7.166666666666667</ele><time>2026-04-18T17:56:25.64Z</time></trkpt><trkpt lat="10.1356572" lon="-75.2576236"><ele>7.333333333333334</ele><time>2026-04-18T17:56:26.64Z</time></trkpt><trkpt lat="10.1356606" lon="-75.2577035"><ele>7.5</ele><time>2026-04-18T17:56:27.641Z</time></trkpt><trkpt lat="10.1356653" lon="-75.2577817"><ele>7.666666666666666</ele><time>2026-04-18T17:56:28.638Z</time></trkpt><trkpt lat="10.1356685" lon="-75.2578589"><ele>7.833333333333333</ele><time>2026-04-18T17:56:29.635Z</time></trkpt><trkpt lat="10.1356746" lon="-75.2579347"><ele>8.0</ele><time>2026-04-18T17:56:30.635Z</time></trkpt><trkpt lat="10.1356789" lon="-75.2580144"><ele>7.999999999999999</ele><time>2026-04-18T17:56:31.635Z</time></trkpt><trkpt lat="10.1356837" lon="-75.2580929"><ele>8.0</ele><time>2026-04-18T17:56:32.633Z</time></trkpt><trkpt lat="10.1356877" lon="-75.2581727"><ele>8.0</ele><time>2026-04-18T17:56:33.64Z</time></trkpt><trkpt lat="10.1357057" lon="-75.258251"><ele>8.0</ele><time>2026-04-18T17:56:34.638Z</time></trkpt><trkpt lat="10.1357186" lon="-75.2583312"><ele>7.999999999999999</ele><time>2026-04-18T17:56:35.64Z</time></trkpt><trkpt lat="10.1357233" lon="-75.2584124"><ele>8.0</ele><time>2026-04-18T17:56:36.634Z</time></trkpt><trkpt lat="10.1357302" lon="-75.2584923"><ele>8.0</ele><time>2026-04-18T17:56:37.636Z</time></trkpt><trkpt lat="10.1357367" lon="-75.2585719"><ele>7.999999999999999</ele><time>2026-04-18T17:56:38.636Z</time></trkpt><trkpt lat="10.1357428" lon="-75.2586482"><ele>8.0</ele><time>2026-04-18T17:56:39.636Z</time></trkpt><trkpt lat="10.1357491" lon="-75.258722"><ele>8.0</ele><time>2026-04-18T17:56:40.635Z</time></trkpt><trkpt lat="10.1357521" lon="-75.2587919"><ele>7.999999999999999</ele><time>2026-04-18T17:56:41.641Z</time></trkpt><trkpt lat="10.1357569" lon="-75.2588649"><ele>8.0</ele><time>2026-04-18T17:56:42.641Z</time></trkpt><trkpt lat="10.1357624" lon="-75.2589391"><ele>8.0</ele><time>2026-04-18T17:56:43.634Z</time></trkpt><trkpt lat="10.1357662" lon="-75.2590104"><ele>8.142857142857142</ele><time>2026-04-18T17:56:44.64Z</time></trkpt><trkpt lat="10.1357711" lon="-75.2590802"><ele>8.285714285714285</ele><time>2026-04-18T17:56:45.635Z</time></trkpt><trkpt lat="10.1357709" lon="-75.2591556"><ele>8.428571428571429</ele><time>2026-04-18T17:56:46.634Z</time></trkpt><trkpt lat="10.1357732" lon="-75.2592252"><ele>8.571428571428571</ele><time>2026-04-18T17:56:47.633Z</time></trkpt><trkpt lat="10.1357763" lon="-75.2592958"><ele>8.714285714285715</ele><time>2026-04-18T17:56:48.636Z</time></trkpt><trkpt lat="10.1357823" lon="-75.2593634"><ele>8.857142857142858</ele><time>2026-04-18T17:56:49.638Z</time></trkpt><trkpt lat="10.1357868" lon="-75.2594328"><ele>9.0</ele><time>2026-04-18T17:56:50.631Z</time></trkpt><trkpt lat="10.1358051" lon="-75.2595068"><ele>9.000000000000002</ele><time>2026-04-18T17:56:51.635Z</time></trkpt><trkpt lat="10.1358103" lon="-75.2595761"><ele>9.0</ele><time>2026-04-18T17:56:52.633Z</time></trkpt><trkpt lat="10.1358197" lon="-75.2596457"><ele>9.0</ele><time>2026-04-18T17:56:53.635Z</time></trkpt><trkpt lat="10.135828" lon="-75.2597172"><ele>9.0</ele><time>2026-04-18T17:56:54.635Z</time></trkpt><trkpt lat="10.1358294" lon="-75.2597913"><ele>9.0</ele><time>2026-04-18T17:56:55.635Z</time></trkpt><trkpt lat="10.135835" lon="-75.2598719"><ele>9.000000000000002</ele><time>2026-04-18T17:56:56.634Z</time></trkpt><trkpt lat="10.1358423" lon="-75.2599485"><ele>9.0</ele><time>2026-04-18T17:56:57.635Z</time></trkpt><trkpt lat="10.1358499" lon="-75.2600288"><ele>9.000000000000002</ele><time>2026-04-18T17:56:58.637Z</time></trkpt><trkpt lat="10.1358613" lon="-75.2601072"><ele>9.0</ele><time>2026-04-18T17:56:59.635Z</time></trkpt><trkpt lat="10.1358706" lon="-75.2601858"><ele>9.0</ele><time>2026-04-18T17:57:00.637Z</time></trkpt><trkpt lat="10.135876" lon="-75.2602584"><ele>9.0</ele><time>2026-04-18T17:57:01.637Z</time></trkpt><trkpt lat="10.1358782" lon="-75.2603297"><ele>9.0</ele><time>2026-04-18T17:57:02.639Z</time></trkpt><trkpt lat="10.1358833" lon="-75.2604013"><ele>9.000000000000002</ele><time>2026-04-18T17:57:03.638Z</time></trkpt><trkpt lat="10.135888" lon="-75.26047"><ele>9.0</ele><time>2026-04-18T17:57:04.637Z</time></trkpt><trkpt lat="10.1358993" lon="-75.2605395"><ele>9.000000000000002</ele><time>2026-04-18T17:57:05.636Z</time></trkpt><trkpt lat="10.1359063" lon="-75.260611"><ele>9.0</ele><time>2026-04-18T17:57:06.635Z</time></trkpt><trkpt lat="10.1359134" lon="-75.260684"><ele>9.0</ele><time>2026-04-18T17:57:07.642Z</time></trkpt><trkpt lat="10.1359238" lon="-75.2607586"><ele>9.0</ele><time>2026-04-18T17:57:08.636Z</time></trkpt><trkpt lat="10.135929" lon="-75.2608319"><ele>9.0</ele><time>2026-04-18T17:57:09.635Z</time></trkpt><trkpt lat="10.1359335" lon="-75.2609044"><ele>9.000000000000002</ele><time>2026-04-18T17:57:10.634Z</time></trkpt><trkpt lat="10.1359363" lon="-75.2609755"><ele>9.0</ele><time>2026-04-18T17:57:11.637Z</time></trkpt><trkpt lat="10.1359424" lon="-75.2610529"><ele>9.333333333333334</ele><time>2026-04-18T17:57:12.639Z</time></trkpt><trkpt lat="10.1359509" lon="-75.2611291"><ele>9.666666666666666</ele><time>2026-04-18T17:57:13.633Z</time></trkpt><trkpt lat="10.1359575" lon="-75.2612059"><ele>10.0</ele><time>2026-04-18T17:57:14.636Z</time></trkpt><trkpt lat="10.1359637" lon="-75.2612849"><ele>10.333333333333332</ele><time>2026-04-18T17:57:15.635Z</time></trkpt><trkpt lat="10.1359697" lon="-75.2613657"><ele>10.666666666666666</ele><time>2026-04-18T17:57:16.635Z</time></trkpt><trkpt lat="10.135974" lon="-75.2614417"><ele>11.0</ele><time>2026-04-18T17:57:17.636Z</time></trkpt><trkpt lat="10.1359788" lon="-75.2615217"><ele>11.0</ele><time>2026-04-18T17:57:18.638Z</time></trkpt><trkpt lat="10.1359831" lon="-75.2616052"><ele>11.0</ele><time>2026-04-18T17:57:19.633Z</time></trkpt><trkpt lat="10.1359911" lon="-75.2616912"><ele>11.0</ele><time>2026-04-18T17:57:20.639Z</time></trkpt><trkpt lat="10.1359974" lon="-75.2617745"><ele>11.0</ele><time>2026-04-18T17:57:21.635Z</time></trkpt><trkpt lat="10.1360072" lon="-75.2618605"><ele>11.0</ele><time>2026-04-18T17:57:22.633Z</time></trkpt><trkpt lat="10.1360121" lon="-75.261943"><ele>11.0</ele><time>2026-04-18T17:57:23.635Z</time></trkpt><trkpt lat="10.1360172" lon="-75.2620306"><ele>11.0</ele><time>2026-04-18T17:57:24.636Z</time></trkpt><trkpt lat="10.1360224" lon="-75.2621086"><ele>11.0</ele><time>2026-04-18T17:57:25.632Z</time></trkpt><trkpt lat="10.1360266" lon="-75.2621829"><ele>11.0</ele><time>2026-04-18T17:57:26.632Z</time></trkpt><trkpt lat="10.136034" lon="-75.2622576"><ele>11.0</ele><time>2026-04-18T17:57:27.635Z</time></trkpt><trkpt lat="10.1360399" lon="-75.2623333"><ele>11.0</ele><time>2026-04-18T17:57:28.636Z</time></trkpt><trkpt lat="10.136047" lon="-75.2624078"><ele>11.0</ele><time>2026-04-18T17:57:29.641Z</time></trkpt><trkpt lat="10.1360525" lon="-75.2624826"><ele>11.0</ele><time>2026-04-18T17:57:30.637Z</time></trkpt><trkpt lat="10.1360577" lon="-75.2625604"><ele>10.666666666666666</ele><time>2026-04-18T17:57:31.632Z</time></trkpt><trkpt lat="10.1360628" lon="-75.2626312"><ele>10.333333333333332</ele><time>2026-04-18T17:57:32.636Z</time></trkpt><trkpt lat="10.1360686" lon="-75.2626955"><ele>10.0</ele><time>2026-04-18T17:57:33.635Z</time></trkpt><trkpt lat="10.1360728" lon="-75.2628055"><ele>9.666666666666666</ele><time>2026-04-18T17:57:35.635Z</time></trkpt><trkpt lat="10.1360839" lon="-75.2628921"><ele>9.333333333333334</ele><time>2026-04-18T17:57:37.639Z</time></trkpt><trkpt lat="10.1360859" lon="-75.2629864"><ele>9.0</ele><time>2026-04-18T17:57:39.643Z</time></trkpt><trkpt lat="10.136091" lon="-75.2630962"><ele>8.8</ele><time>2026-04-18T17:57:41.631Z</time></trkpt><trkpt lat="10.1361066" lon="-75.2632064"><ele>8.600000000000001</ele><time>2026-04-18T17:57:43.629Z</time></trkpt><trkpt lat="10.1361261" lon="-75.263315"><ele>8.4</ele><time>2026-04-18T17:57:45.631Z</time></trkpt><trkpt lat="10.136146" lon="-75.2634282"><ele>8.200000000000001</ele><time>2026-04-18T17:57:47.638Z</time></trkpt><trkpt lat="10.1361591" lon="-75.2634932"><ele>8.0</ele><time>2026-04-18T17:57:48.636Z</time></trkpt><trkpt lat="10.1361744" lon="-75.2635596"><ele>8.0</ele><time>2026-04-18T17:57:49.639Z</time></trkpt><trkpt lat="10.1361885" lon="-75.2636246"><ele>8.0</ele><time>2026-04-18T17:57:50.638Z</time></trkpt><trkpt lat="10.1362035" lon="-75.2636897"><ele>8.0</ele><time>2026-04-18T17:57:51.635Z</time></trkpt><trkpt lat="10.1362285" lon="-75.2638109"><ele>8.0</ele><time>2026-04-18T17:57:53.636Z</time></trkpt><trkpt lat="10.1362475" lon="-75.2639252"><ele>8.0</ele><time>2026-04-18T17:57:55.639Z</time></trkpt><trkpt lat="10.1362667" lon="-75.2640308"><ele>8.0</ele><time>2026-04-18T17:57:57.635Z</time></trkpt><trkpt lat="10.1362911" lon="-75.2641426"><ele>8.0</ele><time>2026-04-18T17:57:59.642Z</time></trkpt><trkpt lat="10.1362955" lon="-75.2642226"><ele>8.0</ele><time>2026-04-18T17:58:01.633Z</time></trkpt><trkpt lat="10.1363126" lon="-75.2643148"><ele>8.0</ele><time>2026-04-18T17:58:03.635Z</time></trkpt><trkpt lat="10.1363196" lon="-75.2644136"><ele>8.0</ele><time>2026-04-18T17:58:05.639Z</time></trkpt><trkpt lat="10.1363163" lon="-75.2645228"><ele>8.0</ele><time>2026-04-18T17:58:07.639Z</time></trkpt><trkpt lat="10.1363204" lon="-75.2645869"><ele>7.999999999999999</ele><time>2026-04-18T17:58:08.644Z</time></trkpt><trkpt lat="10.1363076" lon="-75.2647132"><ele>8.0</ele><time>2026-04-18T17:58:10.637Z</time></trkpt><trkpt lat="10.1363026" lon="-75.2647779"><ele>8.0</ele><time>2026-04-18T17:58:11.636Z</time></trkpt><trkpt lat="10.1362966" lon="-75.2648419"><ele>7.999999999999999</ele><time>2026-04-18T17:58:12.644Z</time></trkpt><trkpt lat="10.1362947" lon="-75.2649063"><ele>8.0</ele><time>2026-04-18T17:58:13.641Z</time></trkpt><trkpt lat="10.1362896" lon="-75.2649708"><ele>8.0</ele><time>2026-04-18T17:58:14.634Z</time></trkpt><trkpt lat="10.1362931" lon="-75.2650381"><ele>7.499999999999999</ele><time>2026-04-18T17:58:15.648Z</time></trkpt><trkpt lat="10.1362968" lon="-75.2651022"><ele>7.0</ele><time>2026-04-18T17:58:16.637Z</time></trkpt><trkpt lat="10.136295" lon="-75.265167"><ele>6.5</ele><time>2026-04-18T17:58:17.641Z</time></trkpt><trkpt lat="10.1362989" lon="-75.2652859"><ele>6.0</ele><time>2026-04-18T17:58:19.634Z</time></trkpt><trkpt lat="10.1363012" lon="-75.2654052"><ele>5.5</ele><time>2026-04-18T17:58:21.635Z</time></trkpt><trkpt lat="10.1363174" lon="-75.2654729"><ele>5.0</ele><time>2026-04-18T17:58:22.635Z</time></trkpt><trkpt lat="10.1363195" lon="-75.2655871"><ele>5.0</ele><time>2026-04-18T17:58:24.631Z</time></trkpt><trkpt lat="10.136319" lon="-75.2657072"><ele>5.0</ele><time>2026-04-18T17:58:26.634Z</time></trkpt><trkpt lat="10.1363311" lon="-75.2657711"><ele>5.0</ele><time>2026-04-18T17:58:27.633Z</time></trkpt><trkpt lat="10.1363433" lon="-75.2658924"><ele>5.0</ele><time>2026-04-18T17:58:29.633Z</time></trkpt><trkpt lat="10.1363542" lon="-75.2660202"><ele>5.0</ele><time>2026-04-18T17:58:31.635Z</time></trkpt><trkpt lat="10.1363665" lon="-75.2661498"><ele>5.0</ele><time>2026-04-18T17:58:33.637Z</time></trkpt><trkpt lat="10.1363738" lon="-75.2662175"><ele>5.0</ele><time>2026-04-18T17:58:34.634Z</time></trkpt><trkpt lat="10.136374" lon="-75.2662824"><ele>5.0</ele><time>2026-04-18T17:58:35.636Z</time></trkpt><trkpt lat="10.1363757" lon="-75.2663525"><ele>5.0</ele><time>2026-04-18T17:58:36.633Z</time></trkpt><trkpt lat="10.1363784" lon="-75.2664203"><ele>5.0</ele><time>2026-04-18T17:58:37.633Z</time></trkpt><trkpt lat="10.1363805" lon="-75.2664983"><ele>5.0</ele><time>2026-04-18T17:58:38.632Z</time></trkpt><trkpt lat="10.1363826" lon="-75.2665699"><ele>5.0</ele><time>2026-04-18T17:58:39.635Z</time></trkpt><trkpt lat="10.1363855" lon="-75.2666378"><ele>5.0</ele><time>2026-04-18T17:58:40.634Z</time></trkpt><trkpt lat="10.1363866" lon="-75.2667043"><ele>5.0</ele><time>2026-04-18T17:58:41.632Z</time></trkpt><trkpt lat="10.1363927" lon="-75.2667714"><ele>5.0</ele><time>2026-04-18T17:58:42.632Z</time></trkpt><trkpt lat="10.136396" lon="-75.2668379"><ele>5.0</ele><time>2026-04-18T17:58:43.642Z</time></trkpt><trkpt lat="10.1363975" lon="-75.266965"><ele>5.0</ele><time>2026-04-18T17:58:45.639Z</time></trkpt><trkpt lat="10.1364009" lon="-75.2670345"><ele>5.0</ele><time>2026-04-18T17:58:46.637Z</time></trkpt><trkpt lat="10.1364028" lon="-75.2671068"><ele>5.0</ele><time>2026-04-18T17:58:47.64Z</time></trkpt><trkpt lat="10.1364081" lon="-75.2671838"><ele>5.0</ele><time>2026-04-18T17:58:48.638Z</time></trkpt><trkpt lat="10.1364117" lon="-75.2672605"><ele>5.0</ele><time>2026-04-18T17:58:49.637Z</time></trkpt><trkpt lat="10.1364118" lon="-75.2673326"><ele>5.0</ele><time>2026-04-18T17:58:50.638Z</time></trkpt><trkpt lat="10.1364109" lon="-75.2674055"><ele>5.0</ele><time>2026-04-18T17:58:51.638Z</time></trkpt><trkpt lat="10.1364364" lon="-75.2674878"><ele>5.0</ele><time>2026-04-18T17:58:52.634Z</time></trkpt><trkpt lat="10.1364381" lon="-75.2675646"><ele>5.0</ele><time>2026-04-18T17:58:53.639Z</time></trkpt><trkpt lat="10.1364388" lon="-75.2676374"><ele>5.0</ele><time>2026-04-18T17:58:54.634Z</time></trkpt><trkpt lat="10.1364505" lon="-75.2677256"><ele>5.0</ele><time>2026-04-18T17:58:55.638Z</time></trkpt><trkpt lat="10.1364523" lon="-75.2677974"><ele>5.0</ele><time>2026-04-18T17:58:56.635Z</time></trkpt><trkpt lat="10.1364562" lon="-75.2678743"><ele>5.0</ele><time>2026-04-18T17:58:57.636Z</time></trkpt><trkpt lat="10.1364584" lon="-75.2679486"><ele>5.0</ele><time>2026-04-18T17:58:58.635Z</time></trkpt><trkpt lat="10.1364618" lon="-75.2680208"><ele>5.0</ele><time>2026-04-18T17:58:59.634Z</time></trkpt><trkpt lat="10.1364664" lon="-75.2680928"><ele>5.0</ele><time>2026-04-18T17:59:00.637Z</time></trkpt><trkpt lat="10.1364719" lon="-75.2681629"><ele>5.0</ele><time>2026-04-18T17:59:01.638Z</time></trkpt><trkpt lat="10.1364772" lon="-75.2682318"><ele>5.0</ele><time>2026-04-18T17:59:02.636Z</time></trkpt><trkpt lat="10.1364813" lon="-75.2683005"><ele>5.0</ele><time>2026-04-18T17:59:03.636Z</time></trkpt><trkpt lat="10.1364874" lon="-75.2683692"><ele>5.0</ele><time>2026-04-18T17:59:04.638Z</time></trkpt><trkpt lat="10.1364902" lon="-75.2684379"><ele>5.0</ele><time>2026-04-18T17:59:05.636Z</time></trkpt><trkpt lat="10.1364909" lon="-75.2685059"><ele>5.0</ele><time>2026-04-18T17:59:06.641Z</time></trkpt><trkpt lat="10.1364979" lon="-75.2685725"><ele>5.0</ele><time>2026-04-18T17:59:07.638Z</time></trkpt><trkpt lat="10.1365032" lon="-75.2686434"><ele>5.0</ele><time>2026-04-18T17:59:08.634Z</time></trkpt><trkpt lat="10.1365097" lon="-75.2687134"><ele>5.0</ele><time>2026-04-18T17:59:09.634Z</time></trkpt><trkpt lat="10.1365127" lon="-75.2687808"><ele>5.0</ele><time>2026-04-18T17:59:10.635Z</time></trkpt><trkpt lat="10.1365184" lon="-75.268853"><ele>5.0</ele><time>2026-04-18T17:59:11.642Z</time></trkpt><trkpt lat="10.136526" lon="-75.2689312"><ele>5.0</ele><time>2026-04-18T17:59:12.64Z</time></trkpt><trkpt lat="10.136547" lon="-75.269011"><ele>5.333333333333334</ele><time>2026-04-18T17:59:13.632Z</time></trkpt><trkpt lat="10.136554" lon="-75.2690834"><ele>5.666666666666667</ele><time>2026-04-18T17:59:14.633Z</time></trkpt><trkpt lat="10.1365607" lon="-75.2691609"><ele>6.0</ele><time>2026-04-18T17:59:15.633Z</time></trkpt><trkpt lat="10.136563" lon="-75.2692367"><ele>6.333333333333334</ele><time>2026-04-18T17:59:16.629Z</time></trkpt><trkpt lat="10.1365765" lon="-75.2693144"><ele>6.666666666666667</ele><time>2026-04-18T17:59:17.636Z</time></trkpt><trkpt lat="10.1365796" lon="-75.2693856"><ele>7.0</ele><time>2026-04-18T17:59:18.634Z</time></trkpt><trkpt lat="10.1365913" lon="-75.2694656"><ele>7.000000000000001</ele><time>2026-04-18T17:59:19.633Z</time></trkpt><trkpt lat="10.1365965" lon="-75.2695405"><ele>7.0</ele><time>2026-04-18T17:59:20.632Z</time></trkpt><trkpt lat="10.1366015" lon="-75.2696165"><ele>7.0</ele><time>2026-04-18T17:59:21.635Z</time></trkpt><trkpt lat="10.1366086" lon="-75.2696948"><ele>7.0</ele><time>2026-04-18T17:59:22.634Z</time></trkpt><trkpt lat="10.1366172" lon="-75.2697709"><ele>7.000000000000001</ele><time>2026-04-18T17:59:23.633Z</time></trkpt><trkpt lat="10.1366244" lon="-75.2698508"><ele>7.0</ele><time>2026-04-18T17:59:24.633Z</time></trkpt><trkpt lat="10.1366311" lon="-75.2699295"><ele>7.333333333333334</ele><time>2026-04-18T17:59:25.636Z</time></trkpt><trkpt lat="10.1366377" lon="-75.2700076"><ele>7.666666666666667</ele><time>2026-04-18T17:59:26.634Z</time></trkpt><trkpt lat="10.1366426" lon="-75.2700833"><ele>8.0</ele><time>2026-04-18T17:59:27.637Z</time></trkpt><trkpt lat="10.1366486" lon="-75.2701648"><ele>8.333333333333334</ele><time>2026-04-18T17:59:28.636Z</time></trkpt><trkpt lat="10.1366527" lon="-75.270243"><ele>8.666666666666666</ele><time>2026-04-18T17:59:29.633Z</time></trkpt><trkpt lat="10.1366587" lon="-75.2703246"><ele>9.0</ele><time>2026-04-18T17:59:30.634Z</time></trkpt><trkpt lat="10.1366638" lon="-75.2704067"><ele>9.0</ele><time>2026-04-18T17:59:31.632Z</time></trkpt><trkpt lat="10.1366673" lon="-75.2704886"><ele>9.0</ele><time>2026-04-18T17:59:32.633Z</time></trkpt><trkpt lat="10.1366735" lon="-75.270569"><ele>9.0</ele><time>2026-04-18T17:59:33.633Z</time></trkpt><trkpt lat="10.1366789" lon="-75.2706516"><ele>9.0</ele><time>2026-04-18T17:59:34.632Z</time></trkpt><trkpt lat="10.1366872" lon="-75.2707364"><ele>9.0</ele><time>2026-04-18T17:59:35.633Z</time></trkpt><trkpt lat="10.1366937" lon="-75.2708115"><ele>9.0</ele><time>2026-04-18T17:59:36.636Z</time></trkpt><trkpt lat="10.1366988" lon="-75.2708914"><ele>9.0</ele><time>2026-04-18T17:59:37.645Z</time></trkpt><trkpt lat="10.1367059" lon="-75.2709677"><ele>9.0</ele><time>2026-04-18T17:59:38.632Z</time></trkpt><trkpt lat="10.1367134" lon="-75.2710514"><ele>9.0</ele><time>2026-04-18T17:59:39.638Z</time></trkpt><trkpt lat="10.1367188" lon="-75.2711321"><ele>9.0</ele><time>2026-04-18T17:59:40.633Z</time></trkpt><trkpt lat="10.1367217" lon="-75.2712119"><ele>9.0</ele><time>2026-04-18T17:59:41.631Z</time></trkpt><trkpt lat="10.1367355" lon="-75.2712912"><ele>9.0</ele><time>2026-04-18T17:59:42.632Z</time></trkpt><trkpt lat="10.136744" lon="-75.2713731"><ele>8.5</ele><time>2026-04-18T17:59:43.636Z</time></trkpt><trkpt lat="10.136755" lon="-75.2714523"><ele>8.0</ele><time>2026-04-18T17:59:44.632Z</time></trkpt><trkpt lat="10.136772" lon="-75.2715353"><ele>7.5</ele><time>2026-04-18T17:59:45.634Z</time></trkpt><trkpt lat="10.1367939" lon="-75.2716149"><ele>7.0</ele><time>2026-04-18T17:59:46.635Z</time></trkpt><trkpt lat="10.1368219" lon="-75.2716951"><ele>6.5</ele><time>2026-04-18T17:59:47.634Z</time></trkpt><trkpt lat="10.1368536" lon="-75.2717723"><ele>6.0</ele><time>2026-04-18T17:59:48.643Z</time></trkpt><trkpt lat="10.1368904" lon="-75.2718471"><ele>6.0</ele><time>2026-04-18T17:59:49.633Z</time></trkpt><trkpt lat="10.1369343" lon="-75.27192"><ele>6.0</ele><time>2026-04-18T17:59:50.634Z</time></trkpt><trkpt lat="10.1369856" lon="-75.2719873"><ele>6.0</ele><time>2026-04-18T17:59:51.635Z</time></trkpt><trkpt lat="10.1370452" lon="-75.2720531"><ele>6.0</ele><time>2026-04-18T17:59:52.637Z</time></trkpt><trkpt lat="10.1371095" lon="-75.2721183"><ele>6.0</ele><time>2026-04-18T17:59:53.633Z</time></trkpt><trkpt lat="10.1371746" lon="-75.2721794"><ele>6.0</ele><time>2026-04-18T17:59:54.633Z</time></trkpt><trkpt lat="10.1372375" lon="-75.2722373"><ele>6.166666666666667</ele><time>2026-04-18T17:59:55.635Z</time></trkpt><trkpt lat="10.1373029" lon="-75.2722923"><ele>6.333333333333334</ele><time>2026-04-18T17:59:56.631Z</time></trkpt><trkpt lat="10.1373711" lon="-75.2723483"><ele>6.5</ele><time>2026-04-18T17:59:57.635Z</time></trkpt><trkpt lat="10.137439" lon="-75.272406"><ele>6.666666666666667</ele><time>2026-04-18T17:59:58.638Z</time></trkpt><trkpt lat="10.1375038" lon="-75.2724592"><ele>6.833333333333334</ele><time>2026-04-18T17:59:59.633Z</time></trkpt><trkpt lat="10.137567" lon="-75.2725138"><ele>7.0</ele><time>2026-04-18T18:00:00.633Z</time></trkpt><trkpt lat="10.1376315" lon="-75.2725689"><ele>6.666666666666667</ele><time>2026-04-18T18:00:01.638Z</time></trkpt><trkpt lat="10.1376956" lon="-75.2726219"><ele>6.333333333333334</ele><time>2026-04-18T18:00:02.629Z</time></trkpt><trkpt lat="10.13776" lon="-75.2726763"><ele>6.0</ele><time>2026-04-18T18:00:03.633Z</time></trkpt><trkpt lat="10.1378225" lon="-75.2727292"><ele>5.666666666666667</ele><time>2026-04-18T18:00:04.634Z</time></trkpt><trkpt lat="10.1378834" lon="-75.2727793"><ele>5.333333333333334</ele><time>2026-04-18T18:00:05.633Z</time></trkpt><trkpt lat="10.1379473" lon="-75.2728328"><ele>5.0</ele><time>2026-04-18T18:00:06.632Z</time></trkpt><trkpt lat="10.1380135" lon="-75.2728893"><ele>5.0</ele><time>2026-04-18T18:00:07.636Z</time></trkpt><trkpt lat="10.138077" lon="-75.2729443"><ele>5.0</ele><time>2026-04-18T18:00:08.634Z</time></trkpt><trkpt lat="10.1381402" lon="-75.2729986"><ele>5.0</ele><time>2026-04-18T18:00:09.64Z</time></trkpt><trkpt lat="10.1382002" lon="-75.2730531"><ele>5.0</ele><time>2026-04-18T18:00:10.638Z</time></trkpt><trkpt lat="10.1382643" lon="-75.2731084"><ele>5.0</ele><time>2026-04-18T18:00:11.634Z</time></trkpt><trkpt lat="10.1383314" lon="-75.2731649"><ele>5.0</ele><time>2026-04-18T18:00:12.635Z</time></trkpt><trkpt lat="10.1383969" lon="-75.2732222"><ele>5.0</ele><time>2026-04-18T18:00:13.632Z</time></trkpt><trkpt lat="10.1384633" lon="-75.2732783"><ele>5.0</ele><time>2026-04-18T18:00:14.638Z</time></trkpt><trkpt lat="10.1385288" lon="-75.2733335"><ele>5.0</ele><time>2026-04-18T18:00:15.636Z</time></trkpt><trkpt lat="10.1385923" lon="-75.273388"><ele>5.0</ele><time>2026-04-18T18:00:16.635Z</time></trkpt><trkpt lat="10.1386595" lon="-75.273442"><ele>5.0</ele><time>2026-04-18T18:00:17.632Z</time></trkpt><trkpt lat="10.138726" lon="-75.2735029"><ele>5.0</ele><time>2026-04-18T18:00:18.634Z</time></trkpt><trkpt lat="10.1387925" lon="-75.2735599"><ele>5.0</ele><time>2026-04-18T18:00:19.634Z</time></trkpt><trkpt lat="10.1388591" lon="-75.2736183"><ele>5.0</ele><time>2026-04-18T18:00:20.632Z</time></trkpt><trkpt lat="10.1389256" lon="-75.2736758"><ele>5.0</ele><time>2026-04-18T18:00:21.638Z</time></trkpt><trkpt lat="10.1389882" lon="-75.2737295"><ele>5.0</ele><time>2026-04-18T18:00:22.632Z</time></trkpt><trkpt lat="10.1390571" lon="-75.2737838"><ele>5.0</ele><time>2026-04-18T18:00:23.632Z</time></trkpt><trkpt lat="10.1391209" lon="-75.2738415"><ele>5.0</ele><time>2026-04-18T18:00:24.633Z</time></trkpt><trkpt lat="10.1391878" lon="-75.2738955"><ele>4.833333333333334</ele><time>2026-04-18T18:00:25.635Z</time></trkpt><trkpt lat="10.1392516" lon="-75.2739512"><ele>4.666666666666667</ele><time>2026-04-18T18:00:26.632Z</time></trkpt><trkpt lat="10.1393175" lon="-75.2740052"><ele>4.5</ele><time>2026-04-18T18:00:27.639Z</time></trkpt><trkpt lat="10.1393809" lon="-75.2740598"><ele>4.333333333333333</ele><time>2026-04-18T18:00:28.632Z</time></trkpt><trkpt lat="10.1394444" lon="-75.2741143"><ele>4.166666666666666</ele><time>2026-04-18T18:00:29.637Z</time></trkpt><trkpt lat="10.1395059" lon="-75.2741675"><ele>4.0</ele><time>2026-04-18T18:00:30.636Z</time></trkpt><trkpt lat="10.1395687" lon="-75.2742198"><ele>3.9999999999999996</ele><time>2026-04-18T18:00:31.636Z</time></trkpt><trkpt lat="10.1396306" lon="-75.2742729"><ele>4.0</ele><time>2026-04-18T18:00:32.632Z</time></trkpt><trkpt lat="10.1396932" lon="-75.274325"><ele>4.0</ele><time>2026-04-18T18:00:33.634Z</time></trkpt><trkpt lat="10.139756" lon="-75.2743781"><ele>4.0</ele><time>2026-04-18T18:00:34.634Z</time></trkpt><trkpt lat="10.1398211" lon="-75.2744322"><ele>3.9999999999999996</ele><time>2026-04-18T18:00:35.633Z</time></trkpt><trkpt lat="10.1398863" lon="-75.2744857"><ele>4.0</ele><time>2026-04-18T18:00:36.633Z</time></trkpt><trkpt lat="10.139951" lon="-75.2745397"><ele>3.9999999999999996</ele><time>2026-04-18T18:00:37.637Z</time></trkpt><trkpt lat="10.1400154" lon="-75.2745948"><ele>4.0</ele><time>2026-04-18T18:00:38.633Z</time></trkpt><trkpt lat="10.1400784" lon="-75.2746444"><ele>4.0</ele><time>2026-04-18T18:00:39.632Z</time></trkpt><trkpt lat="10.140139" lon="-75.2746976"><ele>4.0</ele><time>2026-04-18T18:00:40.632Z</time></trkpt><trkpt lat="10.1401994" lon="-75.2747504"><ele>3.9999999999999996</ele><time>2026-04-18T18:00:41.634Z</time></trkpt><trkpt lat="10.14026" lon="-75.2748035"><ele>4.0</ele><time>2026-04-18T18:00:42.634Z</time></trkpt><trkpt lat="10.1403261" lon="-75.2748601"><ele>3.9999999999999996</ele><time>2026-04-18T18:00:43.634Z</time></trkpt><trkpt lat="10.1403882" lon="-75.2749166"><ele>4.0</ele><time>2026-04-18T18:00:44.634Z</time></trkpt><trkpt lat="10.1404555" lon="-75.2749703"><ele>4.0</ele><time>2026-04-18T18:00:45.637Z</time></trkpt><trkpt lat="10.1405104" lon="-75.2750297"><ele>4.0</ele><time>2026-04-18T18:00:46.632Z</time></trkpt><trkpt lat="10.1405912" lon="-75.2750857"><ele>3.9999999999999996</ele><time>2026-04-18T18:00:47.634Z</time></trkpt><trkpt lat="10.1406586" lon="-75.2751386"><ele>4.0</ele><time>2026-04-18T18:00:48.634Z</time></trkpt><trkpt lat="10.1407181" lon="-75.2751882"><ele>4.285714285714286</ele><time>2026-04-18T18:00:49.635Z</time></trkpt><trkpt lat="10.1407735" lon="-75.2752333"><ele>4.571428571428571</ele><time>2026-04-18T18:00:50.638Z</time></trkpt><trkpt lat="10.1408227" lon="-75.2752774"><ele>4.857142857142857</ele><time>2026-04-18T18:00:51.639Z</time></trkpt><trkpt lat="10.1408745" lon="-75.2753209"><ele>5.142857142857142</ele><time>2026-04-18T18:00:52.633Z</time></trkpt><trkpt lat="10.1409227" lon="-75.2753679"><ele>5.428571428571429</ele><time>2026-04-18T18:00:53.632Z</time></trkpt><trkpt lat="10.1409734" lon="-75.2754152"><ele>5.7142857142857135</ele><time>2026-04-18T18:00:54.629Z</time></trkpt><trkpt lat="10.1410251" lon="-75.2754602"><ele>6.0</ele><time>2026-04-18T18:00:55.63Z</time></trkpt><trkpt lat="10.1410783" lon="-75.2755094"><ele>6.0</ele><time>2026-04-18T18:00:56.634Z</time></trkpt><trkpt lat="10.141134" lon="-75.2755587"><ele>6.0</ele><time>2026-04-18T18:00:57.635Z</time></trkpt><trkpt lat="10.1411908" lon="-75.2756068"><ele>6.0</ele><time>2026-04-18T18:00:58.634Z</time></trkpt><trkpt lat="10.1412512" lon="-75.2756551"><ele>6.0</ele><time>2026-04-18T18:00:59.637Z</time></trkpt><trkpt lat="10.1413111" lon="-75.2757075"><ele>6.0</ele><time>2026-04-18T18:01:00.631Z</time></trkpt><trkpt lat="10.1413714" lon="-75.2757619"><ele>6.0</ele><time>2026-04-18T18:01:01.632Z</time></trkpt><trkpt lat="10.1414289" lon="-75.2758126"><ele>6.166666666666667</ele><time>2026-04-18T18:01:02.638Z</time></trkpt><trkpt lat="10.1414898" lon="-75.2758653"><ele>6.333333333333334</ele><time>2026-04-18T18:01:03.634Z</time></trkpt><trkpt lat="10.1415496" lon="-75.2759172"><ele>6.5</ele><time>2026-04-18T18:01:04.638Z</time></trkpt><trkpt lat="10.1416022" lon="-75.2759719"><ele>6.666666666666667</ele><time>2026-04-18T18:01:05.64Z</time></trkpt><trkpt lat="10.1416644" lon="-75.2760195"><ele>6.833333333333334</ele><time>2026-04-18T18:01:06.637Z</time></trkpt><trkpt lat="10.1417274" lon="-75.2760698"><ele>7.0</ele><time>2026-04-18T18:01:07.642Z</time></trkpt><trkpt lat="10.1417886" lon="-75.2761244"><ele>7.000000000000001</ele><time>2026-04-18T18:01:08.639Z</time></trkpt><trkpt lat="10.1418505" lon="-75.276178"><ele>7.0</ele><time>2026-04-18T18:01:09.634Z</time></trkpt><trkpt lat="10.1419119" lon="-75.276231"><ele>7.0</ele><time>2026-04-18T18:01:10.634Z</time></trkpt><trkpt lat="10.1419752" lon="-75.2762838"><ele>7.0</ele><time>2026-04-18T18:01:11.639Z</time></trkpt><trkpt lat="10.1420383" lon="-75.2763411"><ele>7.000000000000001</ele><time>2026-04-18T18:01:12.64Z</time></trkpt><trkpt lat="10.1420982" lon="-75.2763947"><ele>7.0</ele><time>2026-04-18T18:01:13.639Z</time></trkpt><trkpt lat="10.1421583" lon="-75.27645"><ele>7.000000000000001</ele><time>2026-04-18T18:01:14.64Z</time></trkpt><trkpt lat="10.1422243" lon="-75.276511"><ele>7.0</ele><time>2026-04-18T18:01:15.639Z</time></trkpt><trkpt lat="10.1422871" lon="-75.2765758"><ele>7.0</ele><time>2026-04-18T18:01:16.65Z</time></trkpt><trkpt lat="10.1423461" lon="-75.2766438"><ele>7.0</ele><time>2026-04-18T18:01:17.634Z</time></trkpt><trkpt lat="10.1424088" lon="-75.2766931"><ele>7.000000000000001</ele><time>2026-04-18T18:01:18.63Z</time></trkpt><trkpt lat="10.142476" lon="-75.2767464"><ele>7.0</ele><time>2026-04-18T18:01:19.639Z</time></trkpt><trkpt lat="10.1425421" lon="-75.2768045"><ele>7.000000000000001</ele><time>2026-04-18T18:01:20.633Z</time></trkpt><trkpt lat="10.1426064" lon="-75.276855"><ele>7.0</ele><time>2026-04-18T18:01:21.637Z</time></trkpt><trkpt lat="10.142671" lon="-75.2769129"><ele>7.0</ele><time>2026-04-18T18:01:22.637Z</time></trkpt><trkpt lat="10.1427344" lon="-75.276967"><ele>7.0</ele><time>2026-04-18T18:01:23.632Z</time></trkpt><trkpt lat="10.1428002" lon="-75.2770233"><ele>7.000000000000001</ele><time>2026-04-18T18:01:24.645Z</time></trkpt><trkpt lat="10.1428595" lon="-75.2770771"><ele>7.0</ele><time>2026-04-18T18:01:25.635Z</time></trkpt><trkpt lat="10.1429256" lon="-75.2771306"><ele>7.000000000000001</ele><time>2026-04-18T18:01:26.633Z</time></trkpt><trkpt lat="10.1429829" lon="-75.2771869"><ele>7.0</ele><time>2026-04-18T18:01:27.635Z</time></trkpt><trkpt lat="10.1430454" lon="-75.2772424"><ele>7.0</ele><time>2026-04-18T18:01:28.636Z</time></trkpt><trkpt lat="10.1431102" lon="-75.2772929"><ele>7.0</ele><time>2026-04-18T18:01:29.634Z</time></trkpt><trkpt lat="10.1431681" lon="-75.2773459"><ele>7.000000000000001</ele><time>2026-04-18T18:01:30.635Z</time></trkpt><trkpt lat="10.1432323" lon="-75.2773956"><ele>7.0</ele><time>2026-04-18T18:01:31.638Z</time></trkpt><trkpt lat="10.1432895" lon="-75.2774482"><ele>6.833333333333334</ele><time>2026-04-18T18:01:32.637Z</time></trkpt><trkpt lat="10.1433516" lon="-75.2774987"><ele>6.666666666666667</ele><time>2026-04-18T18:01:33.634Z</time></trkpt><trkpt lat="10.143413" lon="-75.2775464"><ele>6.5</ele><time>2026-04-18T18:01:34.633Z</time></trkpt><trkpt lat="10.1434745" lon="-75.2775968"><ele>6.333333333333334</ele><time>2026-04-18T18:01:35.637Z</time></trkpt><trkpt lat="10.1435351" lon="-75.2776457"><ele>6.166666666666667</ele><time>2026-04-18T18:01:36.636Z</time></trkpt><trkpt lat="10.143593" lon="-75.277695"><ele>6.0</ele><time>2026-04-18T18:01:37.633Z</time></trkpt><trkpt lat="10.1436521" lon="-75.2777512"><ele>6.0</ele><time>2026-04-18T18:01:38.638Z</time></trkpt><trkpt lat="10.1437086" lon="-75.2778033"><ele>6.0</ele><time>2026-04-18T18:01:39.64Z</time></trkpt><trkpt lat="10.1437745" lon="-75.2778504"><ele>6.0</ele><time>2026-04-18T18:01:40.641Z</time></trkpt><trkpt lat="10.1438314" lon="-75.2779114"><ele>6.0</ele><time>2026-04-18T18:01:41.646Z</time></trkpt><trkpt lat="10.1439098" lon="-75.2779632"><ele>6.0</ele><time>2026-04-18T18:01:42.648Z</time></trkpt><trkpt lat="10.1439694" lon="-75.2780152"><ele>6.0</ele><time>2026-04-18T18:01:43.639Z</time></trkpt><trkpt lat="10.1440273" lon="-75.2780644"><ele>6.0</ele><time>2026-04-18T18:01:44.633Z</time></trkpt><trkpt lat="10.1440867" lon="-75.2781111"><ele>6.0</ele><time>2026-04-18T18:01:45.635Z</time></trkpt><trkpt lat="10.1441453" lon="-75.2781585"><ele>6.0</ele><time>2026-04-18T18:01:46.636Z</time></trkpt><trkpt lat="10.1442022" lon="-75.2782077"><ele>6.0</ele><time>2026-04-18T18:01:47.637Z</time></trkpt><trkpt lat="10.1442601" lon="-75.2782561"><ele>6.0</ele><time>2026-04-18T18:01:48.637Z</time></trkpt><trkpt lat="10.1443202" lon="-75.2783095"><ele>6.0</ele><time>2026-04-18T18:01:49.633Z</time></trkpt><trkpt lat="10.144378" lon="-75.2783593"><ele>6.0</ele><time>2026-04-18T18:01:50.633Z</time></trkpt><trkpt lat="10.1444382" lon="-75.2784117"><ele>6.0</ele><time>2026-04-18T18:01:51.634Z</time></trkpt><trkpt lat="10.1444981" lon="-75.2784637"><ele>6.0</ele><time>2026-04-18T18:01:52.633Z</time></trkpt><trkpt lat="10.1445571" lon="-75.2785137"><ele>6.0</ele><time>2026-04-18T18:01:53.639Z</time></trkpt><trkpt lat="10.1446192" lon="-75.2785658"><ele>6.0</ele><time>2026-04-18T18:01:54.636Z</time></trkpt><trkpt lat="10.1446802" lon="-75.2786161"><ele>6.0</ele><time>2026-04-18T18:01:55.636Z</time></trkpt><trkpt lat="10.144739" lon="-75.2786643"><ele>6.0</ele><time>2026-04-18T18:01:56.634Z</time></trkpt><trkpt lat="10.1448013" lon="-75.2787193"><ele>6.0</ele><time>2026-04-18T18:01:57.635Z</time></trkpt><trkpt lat="10.1448585" lon="-75.2787709"><ele>6.0</ele><time>2026-04-18T18:01:58.636Z</time></trkpt><trkpt lat="10.1449174" lon="-75.2788215"><ele>6.0</ele><time>2026-04-18T18:01:59.637Z</time></trkpt><trkpt lat="10.1449767" lon="-75.2788714"><ele>6.0</ele><time>2026-04-18T18:02:00.635Z</time></trkpt><trkpt lat="10.1450327" lon="-75.278926"><ele>6.0</ele><time>2026-04-18T18:02:01.634Z</time></trkpt><trkpt lat="10.1450884" lon="-75.2789808"><ele>5.833333333333333</ele><time>2026-04-18T18:02:02.635Z</time></trkpt><trkpt lat="10.1451402" lon="-75.2790373"><ele>5.666666666666667</ele><time>2026-04-18T18:02:03.636Z</time></trkpt><trkpt lat="10.1451898" lon="-75.2790924"><ele>5.5</ele><time>2026-04-18T18:02:04.64Z</time></trkpt><trkpt lat="10.1452396" lon="-75.2791507"><ele>5.333333333333334</ele><time>2026-04-18T18:02:05.633Z</time></trkpt><trkpt lat="10.1452907" lon="-75.2792125"><ele>5.166666666666667</ele><time>2026-04-18T18:02:06.64Z</time></trkpt><trkpt lat="10.1453399" lon="-75.2792711"><ele>5.0</ele><time>2026-04-18T18:02:07.633Z</time></trkpt><trkpt lat="10.1453871" lon="-75.2793282"><ele>5.0</ele><time>2026-04-18T18:02:08.635Z</time></trkpt><trkpt lat="10.1454339" lon="-75.2793873"><ele>5.0</ele><time>2026-04-18T18:02:09.636Z</time></trkpt><trkpt lat="10.1454835" lon="-75.279449"><ele>5.0</ele><time>2026-04-18T18:02:10.64Z</time></trkpt><trkpt lat="10.1455304" lon="-75.2795052"><ele>5.0</ele><time>2026-04-18T18:02:11.64Z</time></trkpt><trkpt lat="10.1455778" lon="-75.2795581"><ele>5.0</ele><time>2026-04-18T18:02:12.633Z</time></trkpt><trkpt lat="10.1456222" lon="-75.2796164"><ele>5.0</ele><time>2026-04-18T18:02:13.635Z</time></trkpt><trkpt lat="10.145667" lon="-75.279684"><ele>5.0</ele><time>2026-04-18T18:02:14.638Z</time></trkpt><trkpt lat="10.1457185" lon="-75.2797436"><ele>4.833333333333334</ele><time>2026-04-18T18:02:15.639Z</time></trkpt><trkpt lat="10.1457695" lon="-75.2798033"><ele>4.666666666666667</ele><time>2026-04-18T18:02:16.64Z</time></trkpt><trkpt lat="10.1458156" lon="-75.2798609"><ele>4.5</ele><time>2026-04-18T18:02:17.636Z</time></trkpt><trkpt lat="10.1458628" lon="-75.27992"><ele>4.333333333333333</ele><time>2026-04-18T18:02:18.635Z</time></trkpt><trkpt lat="10.1459075" lon="-75.2799829"><ele>4.166666666666666</ele><time>2026-04-18T18:02:19.635Z</time></trkpt><trkpt lat="10.1459626" lon="-75.280041"><ele>4.0</ele><time>2026-04-18T18:02:20.639Z</time></trkpt><trkpt lat="10.1460133" lon="-75.2801025"><ele>3.9999999999999996</ele><time>2026-04-18T18:02:21.638Z</time></trkpt><trkpt lat="10.146065" lon="-75.2801645"><ele>4.0</ele><time>2026-04-18T18:02:22.637Z</time></trkpt><trkpt lat="10.1461144" lon="-75.2802245"><ele>4.0</ele><time>2026-04-18T18:02:23.636Z</time></trkpt><trkpt lat="10.1461663" lon="-75.2802866"><ele>4.0</ele><time>2026-04-18T18:02:24.634Z</time></trkpt><trkpt lat="10.1462182" lon="-75.2803484"><ele>3.9999999999999996</ele><time>2026-04-18T18:02:25.638Z</time></trkpt><trkpt lat="10.1462691" lon="-75.2804118"><ele>4.0</ele><time>2026-04-18T18:02:26.637Z</time></trkpt><trkpt lat="10.146321" lon="-75.2804741"><ele>3.9999999999999996</ele><time>2026-04-18T18:02:27.635Z</time></trkpt><trkpt lat="10.1463757" lon="-75.2805394"><ele>4.0</ele><time>2026-04-18T18:02:28.636Z</time></trkpt><trkpt lat="10.1464325" lon="-75.2806022"><ele>4.0</ele><time>2026-04-18T18:02:29.636Z</time></trkpt><trkpt lat="10.14649" lon="-75.280667"><ele>4.0</ele><time>2026-04-18T18:02:30.634Z</time></trkpt><trkpt lat="10.1465428" lon="-75.2807311"><ele>3.9999999999999996</ele><time>2026-04-18T18:02:31.634Z</time></trkpt><trkpt lat="10.1465954" lon="-75.2807919"><ele>4.0</ele><time>2026-04-18T18:02:32.635Z</time></trkpt><trkpt lat="10.1466469" lon="-75.2808544"><ele>3.9999999999999996</ele><time>2026-04-18T18:02:33.632Z</time></trkpt><trkpt lat="10.1467027" lon="-75.2809171"><ele>4.0</ele><time>2026-04-18T18:02:34.636Z</time></trkpt><trkpt lat="10.1467572" lon="-75.2809827"><ele>4.0</ele><time>2026-04-18T18:02:35.634Z</time></trkpt><trkpt lat="10.1468044" lon="-75.2810502"><ele>4.0</ele><time>2026-04-18T18:02:36.644Z</time></trkpt><trkpt lat="10.1468592" lon="-75.2811103"><ele>3.9999999999999996</ele><time>2026-04-18T18:02:37.634Z</time></trkpt><trkpt lat="10.1469115" lon="-75.2811755"><ele>4.0</ele><time>2026-04-18T18:02:38.634Z</time></trkpt><trkpt lat="10.1469641" lon="-75.2812368"><ele>3.9999999999999996</ele><time>2026-04-18T18:02:39.636Z</time></trkpt><trkpt lat="10.1470193" lon="-75.2813005"><ele>4.0</ele><time>2026-04-18T18:02:40.634Z</time></trkpt><trkpt lat="10.1470744" lon="-75.2813647"><ele>4.0</ele><time>2026-04-18T18:02:41.634Z</time></trkpt><trkpt lat="10.1471262" lon="-75.2814252"><ele>4.0</ele><time>2026-04-18T18:02:42.634Z</time></trkpt><trkpt lat="10.1471796" lon="-75.2814871"><ele>3.9999999999999996</ele><time>2026-04-18T18:02:43.633Z</time></trkpt><trkpt lat="10.1472344" lon="-75.2815489"><ele>4.0</ele><time>2026-04-18T18:02:44.634Z</time></trkpt><trkpt lat="10.1472944" lon="-75.2816111"><ele>3.833333333333333</ele><time>2026-04-18T18:02:45.638Z</time></trkpt><trkpt lat="10.1473477" lon="-75.2816743"><ele>3.6666666666666665</ele><time>2026-04-18T18:02:46.637Z</time></trkpt><trkpt lat="10.1474026" lon="-75.281741"><ele>3.5</ele><time>2026-04-18T18:02:47.637Z</time></trkpt><trkpt lat="10.147453" lon="-75.2818033"><ele>3.333333333333333</ele><time>2026-04-18T18:02:48.637Z</time></trkpt><trkpt lat="10.1475026" lon="-75.2818627"><ele>3.1666666666666665</ele><time>2026-04-18T18:02:49.635Z</time></trkpt><trkpt lat="10.1475558" lon="-75.2819241"><ele>3.0</ele><time>2026-04-18T18:02:50.636Z</time></trkpt><trkpt lat="10.1476041" lon="-75.2819843"><ele>2.9999999999999996</ele><time>2026-04-18T18:02:51.636Z</time></trkpt><trkpt lat="10.1476562" lon="-75.2820498"><ele>3.0</ele><time>2026-04-18T18:02:52.637Z</time></trkpt><trkpt lat="10.1477031" lon="-75.2821058"><ele>3.0</ele><time>2026-04-18T18:02:53.634Z</time></trkpt><trkpt lat="10.1477505" lon="-75.2821582"><ele>3.0</ele><time>2026-04-18T18:02:54.638Z</time></trkpt><trkpt lat="10.1477949" lon="-75.2822116"><ele>3.0</ele><time>2026-04-18T18:02:55.633Z</time></trkpt><trkpt lat="10.1478415" lon="-75.2822674"><ele>2.9999999999999996</ele><time>2026-04-18T18:02:56.635Z</time></trkpt><trkpt lat="10.1478854" lon="-75.282325"><ele>3.0</ele><time>2026-04-18T18:02:57.637Z</time></trkpt><trkpt lat="10.1479312" lon="-75.2823781"><ele>3.1428571428571423</ele><time>2026-04-18T18:02:58.639Z</time></trkpt><trkpt lat="10.1479813" lon="-75.2824348"><ele>3.2857142857142856</ele><time>2026-04-18T18:02:59.636Z</time></trkpt><trkpt lat="10.1480291" lon="-75.2824918"><ele>3.4285714285714284</ele><time>2026-04-18T18:03:00.634Z</time></trkpt><trkpt lat="10.1480754" lon="-75.2825475"><ele>3.571428571428571</ele><time>2026-04-18T18:03:01.636Z</time></trkpt><trkpt lat="10.1481241" lon="-75.2826038"><ele>3.714285714285714</ele><time>2026-04-18T18:03:02.634Z</time></trkpt><trkpt lat="10.1481735" lon="-75.2826614"><ele>3.8571428571428568</ele><time>2026-04-18T18:03:03.634Z</time></trkpt><trkpt lat="10.1482228" lon="-75.2827178"><ele>4.0</ele><time>2026-04-18T18:03:04.632Z</time></trkpt><trkpt lat="10.1482712" lon="-75.2827769"><ele>3.9999999999999996</ele><time>2026-04-18T18:03:05.634Z</time></trkpt><trkpt lat="10.1483254" lon="-75.2828371"><ele>4.0</ele><time>2026-04-18T18:03:06.635Z</time></trkpt><trkpt lat="10.1483756" lon="-75.2828936"><ele>4.0</ele><time>2026-04-18T18:03:07.635Z</time></trkpt><trkpt lat="10.1484299" lon="-75.2829494"><ele>4.0</ele><time>2026-04-18T18:03:08.638Z</time></trkpt><trkpt lat="10.1484777" lon="-75.2830052"><ele>3.9999999999999996</ele><time>2026-04-18T18:03:09.637Z</time></trkpt><trkpt lat="10.1485259" lon="-75.2830632"><ele>4.0</ele><time>2026-04-18T18:03:10.637Z</time></trkpt><trkpt lat="10.1485734" lon="-75.2831182"><ele>3.833333333333333</ele><time>2026-04-18T18:03:11.635Z</time></trkpt><trkpt lat="10.1486208" lon="-75.2831766"><ele>3.6666666666666665</ele><time>2026-04-18T18:03:12.635Z</time></trkpt><trkpt lat="10.1486716" lon="-75.2832308"><ele>3.5</ele><time>2026-04-18T18:03:13.635Z</time></trkpt><trkpt lat="10.1487264" lon="-75.2832939"><ele>3.333333333333333</ele><time>2026-04-18T18:03:14.633Z</time></trkpt><trkpt lat="10.1487855" lon="-75.2833507"><ele>3.1666666666666665</ele><time>2026-04-18T18:03:15.631Z</time></trkpt><trkpt lat="10.1488338" lon="-75.2834112"><ele>3.0</ele><time>2026-04-18T18:03:16.632Z</time></trkpt><trkpt lat="10.1488863" lon="-75.2834716"><ele>3.0</ele><time>2026-04-18T18:03:17.631Z</time></trkpt><trkpt lat="10.1489355" lon="-75.2835315"><ele>3.0</ele><time>2026-04-18T18:03:18.631Z</time></trkpt><trkpt lat="10.1489846" lon="-75.2835936"><ele>3.0</ele><time>2026-04-18T18:03:19.632Z</time></trkpt><trkpt lat="10.1490312" lon="-75.2836577"><ele>3.0</ele><time>2026-04-18T18:03:20.636Z</time></trkpt><trkpt lat="10.1490817" lon="-75.2837182"><ele>3.0</ele><time>2026-04-18T18:03:21.634Z</time></trkpt><trkpt lat="10.1491305" lon="-75.2837779"><ele>3.0</ele><time>2026-04-18T18:03:22.633Z</time></trkpt><trkpt lat="10.1491825" lon="-75.2838371"><ele>3.0</ele><time>2026-04-18T18:03:23.635Z</time></trkpt><trkpt lat="10.149231" lon="-75.2838979"><ele>3.0</ele><time>2026-04-18T18:03:24.634Z</time></trkpt><trkpt lat="10.1492836" lon="-75.2839563"><ele>3.0</ele><time>2026-04-18T18:03:25.631Z</time></trkpt><trkpt lat="10.1493326" lon="-75.2840206"><ele>3.0</ele><time>2026-04-18T18:03:26.635Z</time></trkpt><trkpt lat="10.1493853" lon="-75.2840848"><ele>3.0</ele><time>2026-04-18T18:03:27.635Z</time></trkpt><trkpt lat="10.1494401" lon="-75.2841464"><ele>3.0</ele><time>2026-04-18T18:03:28.635Z</time></trkpt><trkpt lat="10.1494953" lon="-75.2842101"><ele>3.0</ele><time>2026-04-18T18:03:29.639Z</time></trkpt><trkpt lat="10.1495469" lon="-75.284272"><ele>3.0</ele><time>2026-04-18T18:03:30.637Z</time></trkpt><trkpt lat="10.1495998" lon="-75.2843346"><ele>3.0</ele><time>2026-04-18T18:03:31.634Z</time></trkpt><trkpt lat="10.1496515" lon="-75.2843995"><ele>3.0</ele><time>2026-04-18T18:03:32.634Z</time></trkpt><trkpt lat="10.1497067" lon="-75.2844642"><ele>3.0</ele><time>2026-04-18T18:03:33.635Z</time></trkpt><trkpt lat="10.1497576" lon="-75.2845301"><ele>3.0</ele><time>2026-04-18T18:03:34.638Z</time></trkpt><trkpt lat="10.1498076" lon="-75.284592"><ele>3.0</ele><time>2026-04-18T18:03:35.637Z</time></trkpt><trkpt lat="10.1498605" lon="-75.2846583"><ele>3.0</ele><time>2026-04-18T18:03:36.637Z</time></trkpt><trkpt lat="10.1499141" lon="-75.284725"><ele>3.0</ele><time>2026-04-18T18:03:37.638Z</time></trkpt><trkpt lat="10.1499671" lon="-75.2847916"><ele>3.0</ele><time>2026-04-18T18:03:38.636Z</time></trkpt><trkpt lat="10.150021" lon="-75.2848559"><ele>3.0</ele><time>2026-04-18T18:03:39.633Z</time></trkpt><trkpt lat="10.1500716" lon="-75.2849206"><ele>3.0</ele><time>2026-04-18T18:03:40.633Z</time></trkpt><trkpt lat="10.1501271" lon="-75.2849854"><ele>3.1666666666666665</ele><time>2026-04-18T18:03:41.639Z</time></trkpt><trkpt lat="10.1501809" lon="-75.2850482"><ele>3.333333333333333</ele><time>2026-04-18T18:03:42.634Z</time></trkpt><trkpt lat="10.1502406" lon="-75.2851131"><ele>3.5</ele><time>2026-04-18T18:03:43.634Z</time></trkpt><trkpt lat="10.1502931" lon="-75.2851744"><ele>3.6666666666666665</ele><time>2026-04-18T18:03:44.637Z</time></trkpt><trkpt lat="10.1503471" lon="-75.2852379"><ele>3.833333333333333</ele><time>2026-04-18T18:03:45.634Z</time></trkpt><trkpt lat="10.1503998" lon="-75.2853006"><ele>4.0</ele><time>2026-04-18T18:03:46.635Z</time></trkpt><trkpt lat="10.1504525" lon="-75.2853644"><ele>3.9999999999999996</ele><time>2026-04-18T18:03:47.635Z</time></trkpt><trkpt lat="10.1505065" lon="-75.285425"><ele>4.0</ele><time>2026-04-18T18:03:48.637Z</time></trkpt><trkpt lat="10.1505586" lon="-75.2854929"><ele>4.0</ele><time>2026-04-18T18:03:49.641Z</time></trkpt><trkpt lat="10.1506107" lon="-75.2855561"><ele>4.0</ele><time>2026-04-18T18:03:50.636Z</time></trkpt><trkpt lat="10.1506642" lon="-75.2856177"><ele>3.9999999999999996</ele><time>2026-04-18T18:03:51.635Z</time></trkpt><trkpt lat="10.1507186" lon="-75.2856787"><ele>4.0</ele><time>2026-04-18T18:03:52.632Z</time></trkpt><trkpt lat="10.1507724" lon="-75.2857395"><ele>3.9999999999999996</ele><time>2026-04-18T18:03:53.631Z</time></trkpt><trkpt lat="10.1508259" lon="-75.2857976"><ele>4.0</ele><time>2026-04-18T18:03:54.636Z</time></trkpt><trkpt lat="10.1508733" lon="-75.2858584"><ele>4.0</ele><time>2026-04-18T18:03:55.633Z</time></trkpt><trkpt lat="10.1509222" lon="-75.2859173"><ele>4.0</ele><time>2026-04-18T18:03:56.634Z</time></trkpt><trkpt lat="10.1509716" lon="-75.2859745"><ele>3.9999999999999996</ele><time>2026-04-18T18:03:57.641Z</time></trkpt><trkpt lat="10.151017" lon="-75.2860326"><ele>4.0</ele><time>2026-04-18T18:03:58.64Z</time></trkpt><trkpt lat="10.1510686" lon="-75.2860897"><ele>3.9999999999999996</ele><time>2026-04-18T18:03:59.633Z</time></trkpt><trkpt lat="10.1511207" lon="-75.2861493"><ele>4.0</ele><time>2026-04-18T18:04:00.636Z</time></trkpt><trkpt lat="10.151172" lon="-75.286208"><ele>4.0</ele><time>2026-04-18T18:04:01.636Z</time></trkpt><trkpt lat="10.1512231" lon="-75.2862658"><ele>4.0</ele><time>2026-04-18T18:04:02.63Z</time></trkpt><trkpt lat="10.1512743" lon="-75.2863234"><ele>3.9999999999999996</ele><time>2026-04-18T18:04:03.636Z</time></trkpt><trkpt lat="10.1513225" lon="-75.286379"><ele>4.0</ele><time>2026-04-18T18:04:04.634Z</time></trkpt><trkpt lat="10.1513825" lon="-75.286441"><ele>4.0</ele><time>2026-04-18T18:04:05.634Z</time></trkpt><trkpt lat="10.1514283" lon="-75.2864977"><ele>3.9999999999999996</ele><time>2026-04-18T18:04:06.638Z</time></trkpt><trkpt lat="10.1514782" lon="-75.2865571"><ele>4.0</ele><time>2026-04-18T18:04:07.632Z</time></trkpt><trkpt lat="10.1515256" lon="-75.2866156"><ele>4.0</ele><time>2026-04-18T18:04:08.639Z</time></trkpt><trkpt lat="10.1515729" lon="-75.2866698"><ele>3.9999999999999996</ele><time>2026-04-18T18:04:09.642Z</time></trkpt><trkpt lat="10.1516203" lon="-75.286728"><ele>4.0</ele><time>2026-04-18T18:04:10.636Z</time></trkpt><trkpt lat="10.1516657" lon="-75.2867816"><ele>4.0</ele><time>2026-04-18T18:04:11.634Z</time></trkpt><trkpt lat="10.1517072" lon="-75.2868334"><ele>3.9999999999999996</ele><time>2026-04-18T18:04:12.632Z</time></trkpt><trkpt lat="10.1517889" lon="-75.2869354"><ele>4.0</ele><time>2026-04-18T18:04:14.632Z</time></trkpt><trkpt lat="10.1518383" lon="-75.286986"><ele>4.0</ele><time>2026-04-18T18:04:15.635Z</time></trkpt><trkpt lat="10.1518953" lon="-75.2870392"><ele>4.0</ele><time>2026-04-18T18:04:16.636Z</time></trkpt><trkpt lat="10.1519405" lon="-75.2870929"><ele>3.9999999999999996</ele><time>2026-04-18T18:04:17.635Z</time></trkpt><trkpt lat="10.1519896" lon="-75.2871502"><ele>4.0</ele><time>2026-04-18T18:04:18.633Z</time></trkpt><trkpt lat="10.1520345" lon="-75.2872024"><ele>4.0</ele><time>2026-04-18T18:04:19.637Z</time></trkpt><trkpt lat="10.1520792" lon="-75.2872595"><ele>3.9999999999999996</ele><time>2026-04-18T18:04:20.639Z</time></trkpt><trkpt lat="10.1521256" lon="-75.2873186"><ele>4.0</ele><time>2026-04-18T18:04:21.637Z</time></trkpt><trkpt lat="10.152172" lon="-75.2873771"><ele>4.0</ele><time>2026-04-18T18:04:22.635Z</time></trkpt><trkpt lat="10.1522226" lon="-75.2874341"><ele>3.9999999999999996</ele><time>2026-04-18T18:04:23.639Z</time></trkpt><trkpt lat="10.1522707" lon="-75.2874942"><ele>4.0</ele><time>2026-04-18T18:04:24.636Z</time></trkpt><trkpt lat="10.1523196" lon="-75.2875535"><ele>4.0</ele><time>2026-04-18T18:04:25.636Z</time></trkpt><trkpt lat="10.1523716" lon="-75.2876132"><ele>3.833333333333333</ele><time>2026-04-18T18:04:26.635Z</time></trkpt><trkpt lat="10.1524242" lon="-75.2876746"><ele>3.6666666666666665</ele><time>2026-04-18T18:04:27.635Z</time></trkpt><trkpt lat="10.152474" lon="-75.2877338"><ele>3.5</ele><time>2026-04-18T18:04:28.638Z</time></trkpt><trkpt lat="10.1525232" lon="-75.2877945"><ele>3.333333333333333</ele><time>2026-04-18T18:04:29.635Z</time></trkpt><trkpt lat="10.1525728" lon="-75.2878563"><ele>3.1666666666666665</ele><time>2026-04-18T18:04:30.635Z</time></trkpt><trkpt lat="10.1526232" lon="-75.2879138"><ele>3.0</ele><time>2026-04-18T18:04:31.634Z</time></trkpt><trkpt lat="10.152673" lon="-75.2879707"><ele>3.0</ele><time>2026-04-18T18:04:32.635Z</time></trkpt><trkpt lat="10.1527229" lon="-75.2880274"><ele>3.0</ele><time>2026-04-18T18:04:33.631Z</time></trkpt><trkpt lat="10.1527755" lon="-75.2880863"><ele>3.0</ele><time>2026-04-18T18:04:34.633Z</time></trkpt><trkpt lat="10.1528251" lon="-75.2881475"><ele>3.0</ele><time>2026-04-18T18:04:35.633Z</time></trkpt><trkpt lat="10.1528749" lon="-75.2882084"><ele>3.0</ele><time>2026-04-18T18:04:36.633Z</time></trkpt><trkpt lat="10.1529253" lon="-75.2882654"><ele>3.0</ele><time>2026-04-18T18:04:37.634Z</time></trkpt><trkpt lat="10.1529743" lon="-75.2883237"><ele>3.0</ele><time>2026-04-18T18:04:38.637Z</time></trkpt><trkpt lat="10.1530224" lon="-75.2883857"><ele>3.0</ele><time>2026-04-18T18:04:39.638Z</time></trkpt><trkpt lat="10.1530737" lon="-75.2884467"><ele>3.0</ele><time>2026-04-18T18:04:40.635Z</time></trkpt><trkpt lat="10.1531261" lon="-75.2885071"><ele>3.0</ele><time>2026-04-18T18:04:41.635Z</time></trkpt><trkpt lat="10.1531782" lon="-75.2885685"><ele>3.0</ele><time>2026-04-18T18:04:42.63Z</time></trkpt><trkpt lat="10.1532277" lon="-75.2886311"><ele>3.0</ele><time>2026-04-18T18:04:43.636Z</time></trkpt><trkpt lat="10.1532793" lon="-75.2886917"><ele>3.0</ele><time>2026-04-18T18:04:44.635Z</time></trkpt><trkpt lat="10.1533302" lon="-75.2887557"><ele>3.0</ele><time>2026-04-18T18:04:45.635Z</time></trkpt><trkpt lat="10.1533887" lon="-75.2888233"><ele>3.0</ele><time>2026-04-18T18:04:46.64Z</time></trkpt><trkpt lat="10.153444" lon="-75.2888875"><ele>3.0</ele><time>2026-04-18T18:04:47.635Z</time></trkpt><trkpt lat="10.1534998" lon="-75.2889511"><ele>3.0</ele><time>2026-04-18T18:04:48.635Z</time></trkpt><trkpt lat="10.1535511" lon="-75.2890167"><ele>3.0</ele><time>2026-04-18T18:04:49.633Z</time></trkpt><trkpt lat="10.1536046" lon="-75.2890804"><ele>3.1666666666666665</ele><time>2026-04-18T18:04:50.635Z</time></trkpt><trkpt lat="10.1536526" lon="-75.2891461"><ele>3.333333333333333</ele><time>2026-04-18T18:04:51.636Z</time></trkpt><trkpt lat="10.1537027" lon="-75.289205"><ele>3.5</ele><time>2026-04-18T18:04:52.632Z</time></trkpt><trkpt lat="10.1537602" lon="-75.2892644"><ele>3.6666666666666665</ele><time>2026-04-18T18:04:53.634Z</time></trkpt><trkpt lat="10.1538131" lon="-75.2893269"><ele>3.833333333333333</ele><time>2026-04-18T18:04:54.635Z</time></trkpt><trkpt lat="10.1538632" lon="-75.2893885"><ele>4.0</ele><time>2026-04-18T18:04:55.635Z</time></trkpt><trkpt lat="10.1539154" lon="-75.289449"><ele>3.9999999999999996</ele><time>2026-04-18T18:04:56.638Z</time></trkpt><trkpt lat="10.1539686" lon="-75.2895121"><ele>4.0</ele><time>2026-04-18T18:04:57.636Z</time></trkpt><trkpt lat="10.154017" lon="-75.2895762"><ele>4.0</ele><time>2026-04-18T18:04:58.635Z</time></trkpt><trkpt lat="10.1540681" lon="-75.2896335"><ele>4.0</ele><time>2026-04-18T18:04:59.636Z</time></trkpt><trkpt lat="10.1541187" lon="-75.2896939"><ele>3.9999999999999996</ele><time>2026-04-18T18:05:00.636Z</time></trkpt><trkpt lat="10.1541695" lon="-75.2897521"><ele>4.0</ele><time>2026-04-18T18:05:01.637Z</time></trkpt><trkpt lat="10.1542207" lon="-75.2898135"><ele>3.833333333333333</ele><time>2026-04-18T18:05:02.639Z</time></trkpt><trkpt lat="10.1542707" lon="-75.2898746"><ele>3.6666666666666665</ele><time>2026-04-18T18:05:03.64Z</time></trkpt><trkpt lat="10.1543201" lon="-75.2899379"><ele>3.5</ele><time>2026-04-18T18:05:04.635Z</time></trkpt><trkpt lat="10.1543707" lon="-75.2899982"><ele>3.333333333333333</ele><time>2026-04-18T18:05:05.635Z</time></trkpt><trkpt lat="10.154423" lon="-75.2900587"><ele>3.1666666666666665</ele><time>2026-04-18T18:05:06.634Z</time></trkpt><trkpt lat="10.1544774" lon="-75.2901206"><ele>3.0</ele><time>2026-04-18T18:05:07.633Z</time></trkpt><trkpt lat="10.1545307" lon="-75.290184"><ele>3.0</ele><time>2026-04-18T18:05:08.632Z</time></trkpt><trkpt lat="10.1545848" lon="-75.2902494"><ele>3.0</ele><time>2026-04-18T18:05:09.633Z</time></trkpt><trkpt lat="10.1546393" lon="-75.2903137"><ele>3.0</ele><time>2026-04-18T18:05:10.635Z</time></trkpt><trkpt lat="10.15469" lon="-75.2903776"><ele>3.0</ele><time>2026-04-18T18:05:11.632Z</time></trkpt><trkpt lat="10.154745" lon="-75.2904391"><ele>3.0</ele><time>2026-04-18T18:05:12.634Z</time></trkpt><trkpt lat="10.154799" lon="-75.2905045"><ele>3.0</ele><time>2026-04-18T18:05:13.637Z</time></trkpt><trkpt lat="10.1548535" lon="-75.2905685"><ele>2.8333333333333335</ele><time>2026-04-18T18:05:14.631Z</time></trkpt><trkpt lat="10.1549051" lon="-75.290637"><ele>2.6666666666666665</ele><time>2026-04-18T18:05:15.636Z</time></trkpt><trkpt lat="10.1549621" lon="-75.2907008"><ele>2.5</ele><time>2026-04-18T18:05:16.636Z</time></trkpt><trkpt lat="10.1550195" lon="-75.2907645"><ele>2.333333333333333</ele><time>2026-04-18T18:05:17.635Z</time></trkpt><trkpt lat="10.1550736" lon="-75.2908281"><ele>2.1666666666666665</ele><time>2026-04-18T18:05:18.636Z</time></trkpt><trkpt lat="10.1551302" lon="-75.2908953"><ele>2.0</ele><time>2026-04-18T18:05:19.635Z</time></trkpt><trkpt lat="10.1551845" lon="-75.2909604"><ele>1.9999999999999998</ele><time>2026-04-18T18:05:20.639Z</time></trkpt><trkpt lat="10.1552446" lon="-75.2910295"><ele>2.0</ele><time>2026-04-18T18:05:21.636Z</time></trkpt><trkpt lat="10.1552997" lon="-75.2910979"><ele>2.0</ele><time>2026-04-18T18:05:22.635Z</time></trkpt><trkpt lat="10.1553534" lon="-75.2911641"><ele>2.0</ele><time>2026-04-18T18:05:23.633Z</time></trkpt><trkpt lat="10.1554072" lon="-75.2912281"><ele>1.9999999999999998</ele><time>2026-04-18T18:05:24.634Z</time></trkpt><trkpt lat="10.1554593" lon="-75.2912908"><ele>2.0</ele><time>2026-04-18T18:05:25.633Z</time></trkpt><trkpt lat="10.1555122" lon="-75.2913542"><ele>1.9999999999999998</ele><time>2026-04-18T18:05:26.635Z</time></trkpt><trkpt lat="10.1555655" lon="-75.2914178"><ele>2.0</ele><time>2026-04-18T18:05:27.633Z</time></trkpt><trkpt lat="10.1556177" lon="-75.2914781"><ele>2.0</ele><time>2026-04-18T18:05:28.634Z</time></trkpt><trkpt lat="10.1556697" lon="-75.2915389"><ele>2.0</ele><time>2026-04-18T18:05:29.634Z</time></trkpt><trkpt lat="10.1557204" lon="-75.2916021"><ele>1.9999999999999998</ele><time>2026-04-18T18:05:30.636Z</time></trkpt><trkpt lat="10.1557693" lon="-75.2916622"><ele>2.0</ele><time>2026-04-18T18:05:31.633Z</time></trkpt><trkpt lat="10.1558199" lon="-75.2917222"><ele>2.333333333333333</ele><time>2026-04-18T18:05:32.63Z</time></trkpt><trkpt lat="10.1558703" lon="-75.2917843"><ele>2.6666666666666665</ele><time>2026-04-18T18:05:33.634Z</time></trkpt><trkpt lat="10.1559262" lon="-75.2918442"><ele>3.0</ele><time>2026-04-18T18:05:34.632Z</time></trkpt><trkpt lat="10.1559953" lon="-75.2919035"><ele>3.333333333333333</ele><time>2026-04-18T18:05:35.634Z</time></trkpt><trkpt lat="10.1560479" lon="-75.2919642"><ele>3.6666666666666665</ele><time>2026-04-18T18:05:36.635Z</time></trkpt><trkpt lat="10.1561024" lon="-75.2920285"><ele>4.0</ele><time>2026-04-18T18:05:37.635Z</time></trkpt><trkpt lat="10.1561548" lon="-75.2920904"><ele>3.9999999999999996</ele><time>2026-04-18T18:05:38.637Z</time></trkpt><trkpt lat="10.1562076" lon="-75.2921526"><ele>4.0</ele><time>2026-04-18T18:05:39.636Z</time></trkpt><trkpt lat="10.1562665" lon="-75.2922164"><ele>4.0</ele><time>2026-04-18T18:05:40.634Z</time></trkpt><trkpt lat="10.1563214" lon="-75.2922784"><ele>4.0</ele><time>2026-04-18T18:05:41.636Z</time></trkpt><trkpt lat="10.1563721" lon="-75.2923379"><ele>3.9999999999999996</ele><time>2026-04-18T18:05:42.638Z</time></trkpt><trkpt lat="10.1564215" lon="-75.2924033"><ele>4.0</ele><time>2026-04-18T18:05:43.636Z</time></trkpt><trkpt lat="10.1564745" lon="-75.2924664"><ele>3.9999999999999996</ele><time>2026-04-18T18:05:44.636Z</time></trkpt><trkpt lat="10.1565265" lon="-75.2925309"><ele>4.0</ele><time>2026-04-18T18:05:45.635Z</time></trkpt><trkpt lat="10.1565799" lon="-75.2925962"><ele>4.0</ele><time>2026-04-18T18:05:46.634Z</time></trkpt><trkpt lat="10.1566357" lon="-75.2926609"><ele>4.0</ele><time>2026-04-18T18:05:47.633Z</time></trkpt><trkpt lat="10.1566908" lon="-75.2927259"><ele>3.9999999999999996</ele><time>2026-04-18T18:05:48.634Z</time></trkpt><trkpt lat="10.1567426" lon="-75.292793"><ele>4.0</ele><time>2026-04-18T18:05:49.634Z</time></trkpt><trkpt lat="10.1567933" lon="-75.292861"><ele>3.9999999999999996</ele><time>2026-04-18T18:05:50.635Z</time></trkpt><trkpt lat="10.1568466" lon="-75.2929272"><ele>4.0</ele><time>2026-04-18T18:05:51.641Z</time></trkpt><trkpt lat="10.156898" lon="-75.2929915"><ele>4.0</ele><time>2026-04-18T18:05:52.632Z</time></trkpt><trkpt lat="10.1569475" lon="-75.2930548"><ele>4.0</ele><time>2026-04-18T18:05:53.638Z</time></trkpt><trkpt lat="10.1570111" lon="-75.2931216"><ele>3.9999999999999996</ele><time>2026-04-18T18:05:54.639Z</time></trkpt><trkpt lat="10.1570665" lon="-75.2931857"><ele>4.0</ele><time>2026-04-18T18:05:55.635Z</time></trkpt><trkpt lat="10.1571221" lon="-75.2932512"><ele>3.8000000000000003</ele><time>2026-04-18T18:05:56.633Z</time></trkpt><trkpt lat="10.1571805" lon="-75.2933238"><ele>3.6000000000000005</ele><time>2026-04-18T18:05:57.638Z</time></trkpt><trkpt lat="10.1572366" lon="-75.2933887"><ele>3.4</ele><time>2026-04-18T18:05:58.632Z</time></trkpt><trkpt lat="10.1572949" lon="-75.2934563"><ele>3.2</ele><time>2026-04-18T18:05:59.638Z</time></trkpt><trkpt lat="10.1573569" lon="-75.2935304"><ele>3.0</ele><time>2026-04-18T18:06:00.633Z</time></trkpt><trkpt lat="10.1574145" lon="-75.2935994"><ele>3.0</ele><time>2026-04-18T18:06:01.635Z</time></trkpt><trkpt lat="10.1574704" lon="-75.2936693"><ele>3.0</ele><time>2026-04-18T18:06:02.634Z</time></trkpt><trkpt lat="10.1575269" lon="-75.2937387"><ele>3.0</ele><time>2026-04-18T18:06:03.637Z</time></trkpt><trkpt lat="10.1575842" lon="-75.293804"><ele>3.0</ele><time>2026-04-18T18:06:04.636Z</time></trkpt><trkpt lat="10.1576408" lon="-75.2938716"><ele>3.0</ele><time>2026-04-18T18:06:05.637Z</time></trkpt><trkpt lat="10.1576977" lon="-75.2939385"><ele>3.0</ele><time>2026-04-18T18:06:06.635Z</time></trkpt><trkpt lat="10.1577539" lon="-75.2940069"><ele>3.0</ele><time>2026-04-18T18:06:07.635Z</time></trkpt><trkpt lat="10.157809" lon="-75.2940743"><ele>3.0</ele><time>2026-04-18T18:06:08.643Z</time></trkpt><trkpt lat="10.1578653" lon="-75.2941456"><ele>3.0</ele><time>2026-04-18T18:06:09.633Z</time></trkpt><trkpt lat="10.1579327" lon="-75.2942183"><ele>3.0</ele><time>2026-04-18T18:06:10.632Z</time></trkpt><trkpt lat="10.1579957" lon="-75.2942994"><ele>3.0</ele><time>2026-04-18T18:06:11.629Z</time></trkpt><trkpt lat="10.1580525" lon="-75.294375"><ele>3.0</ele><time>2026-04-18T18:06:12.627Z</time></trkpt><trkpt lat="10.1581084" lon="-75.2944511"><ele>3.0</ele><time>2026-04-18T18:06:13.635Z</time></trkpt><trkpt lat="10.158167" lon="-75.2945276"><ele>3.0</ele><time>2026-04-18T18:06:14.63Z</time></trkpt><trkpt lat="10.1582222" lon="-75.2946051"><ele>3.0</ele><time>2026-04-18T18:06:15.633Z</time></trkpt><trkpt lat="10.1582769" lon="-75.2946861"><ele>3.0</ele><time>2026-04-18T18:06:16.631Z</time></trkpt><trkpt lat="10.158328" lon="-75.2947684"><ele>3.2</ele><time>2026-04-18T18:06:17.631Z</time></trkpt><trkpt lat="10.1583796" lon="-75.294849"><ele>3.4</ele><time>2026-04-18T18:06:18.632Z</time></trkpt><trkpt lat="10.1584307" lon="-75.2949307"><ele>3.6000000000000005</ele><time>2026-04-18T18:06:19.629Z</time></trkpt><trkpt lat="10.1584823" lon="-75.2950098"><ele>3.8000000000000003</ele><time>2026-04-18T18:06:20.632Z</time></trkpt><trkpt lat="10.1585331" lon="-75.2950932"><ele>4.0</ele><time>2026-04-18T18:06:21.633Z</time></trkpt><trkpt lat="10.158585" lon="-75.2951762"><ele>3.9999999999999996</ele><time>2026-04-18T18:06:22.63Z</time></trkpt><trkpt lat="10.1586321" lon="-75.2952527"><ele>4.0</ele><time>2026-04-18T18:06:23.634Z</time></trkpt><trkpt lat="10.158678" lon="-75.2953311"><ele>4.0</ele><time>2026-04-18T18:06:24.632Z</time></trkpt><trkpt lat="10.1587237" lon="-75.2954097"><ele>4.0</ele><time>2026-04-18T18:06:25.631Z</time></trkpt><trkpt lat="10.1587655" lon="-75.2954842"><ele>3.9999999999999996</ele><time>2026-04-18T18:06:26.631Z</time></trkpt><trkpt lat="10.1588138" lon="-75.2955553"><ele>4.0</ele><time>2026-04-18T18:06:27.632Z</time></trkpt><trkpt lat="10.1588638" lon="-75.2956284"><ele>3.833333333333333</ele><time>2026-04-18T18:06:28.627Z</time></trkpt><trkpt lat="10.1589091" lon="-75.2956956"><ele>3.6666666666666665</ele><time>2026-04-18T18:06:29.629Z</time></trkpt><trkpt lat="10.1589645" lon="-75.2957651"><ele>3.5</ele><time>2026-04-18T18:06:30.63Z</time></trkpt><trkpt lat="10.1590159" lon="-75.2958295"><ele>3.333333333333333</ele><time>2026-04-18T18:06:31.631Z</time></trkpt><trkpt lat="10.1590664" lon="-75.2958935"><ele>3.1666666666666665</ele><time>2026-04-18T18:06:32.632Z</time></trkpt><trkpt lat="10.1591177" lon="-75.2959584"><ele>3.0</ele><time>2026-04-18T18:06:33.637Z</time></trkpt><trkpt lat="10.1591681" lon="-75.2960196"><ele>2.8571428571428568</ele><time>2026-04-18T18:06:34.633Z</time></trkpt><trkpt lat="10.1592177" lon="-75.2960804"><ele>2.7142857142857144</ele><time>2026-04-18T18:06:35.63Z</time></trkpt><trkpt lat="10.1592681" lon="-75.2961372"><ele>2.571428571428571</ele><time>2026-04-18T18:06:36.638Z</time></trkpt><trkpt lat="10.1593193" lon="-75.2962002"><ele>2.4285714285714284</ele><time>2026-04-18T18:06:37.631Z</time></trkpt><trkpt lat="10.1593685" lon="-75.2962524"><ele>2.2857142857142856</ele><time>2026-04-18T18:06:38.632Z</time></trkpt><trkpt lat="10.159414" lon="-75.2963065"><ele>2.142857142857143</ele><time>2026-04-18T18:06:39.635Z</time></trkpt><trkpt lat="10.1594621" lon="-75.2963557"><ele>2.0</ele><time>2026-04-18T18:06:40.631Z</time></trkpt><trkpt lat="10.1595098" lon="-75.2964015"><ele>2.0</ele><time>2026-04-18T18:06:41.633Z</time></trkpt><trkpt lat="10.159585" lon="-75.2964929"><ele>2.0</ele><time>2026-04-18T18:06:43.632Z</time></trkpt><trkpt lat="10.1596549" lon="-75.2965727"><ele>2.0</ele><time>2026-04-18T18:06:45.631Z</time></trkpt><trkpt lat="10.159728" lon="-75.2966498"><ele>2.0</ele><time>2026-04-18T18:06:47.631Z</time></trkpt><trkpt lat="10.1597828" lon="-75.2967168"><ele>2.0</ele><time>2026-04-18T18:06:49.629Z</time></trkpt><trkpt lat="10.1598408" lon="-75.2967818"><ele>1.9999999999999998</ele><time>2026-04-18T18:06:51.631Z</time></trkpt><trkpt lat="10.1598963" lon="-75.296845"><ele>2.0</ele><time>2026-04-18T18:06:53.632Z</time></trkpt><trkpt lat="10.1599514" lon="-75.2969099"><ele>2.0</ele><time>2026-04-18T18:06:55.632Z</time></trkpt><trkpt lat="10.1600051" lon="-75.2969725"><ele>2.0</ele><time>2026-04-18T18:06:57.629Z</time></trkpt><trkpt lat="10.1600581" lon="-75.2970328"><ele>1.9999999999999998</ele><time>2026-04-18T18:06:59.626Z</time></trkpt><trkpt lat="10.1601071" lon="-75.2970939"><ele>2.0</ele><time>2026-04-18T18:07:01.631Z</time></trkpt><trkpt lat="10.1601585" lon="-75.2971564"><ele>1.9999999999999998</ele><time>2026-04-18T18:07:03.631Z</time></trkpt><trkpt lat="10.1602074" lon="-75.2972194"><ele>2.0</ele><time>2026-04-18T18:07:05.634Z</time></trkpt><trkpt lat="10.1602532" lon="-75.297283"><ele>2.0</ele><time>2026-04-18T18:07:07.633Z</time></trkpt><trkpt lat="10.1602985" lon="-75.2973441"><ele>2.0</ele><time>2026-04-18T18:07:09.635Z</time></trkpt><trkpt lat="10.1603471" lon="-75.2974086"><ele>1.9999999999999998</ele><time>2026-04-18T18:07:11.63Z</time></trkpt><trkpt lat="10.160397" lon="-75.2974721"><ele>2.0</ele><time>2026-04-18T18:07:13.607Z</time></trkpt><trkpt lat="10.1604439" lon="-75.2975344"><ele>2.333333333333333</ele><time>2026-04-18T18:07:15.627Z</time></trkpt><trkpt lat="10.1604889" lon="-75.2975973"><ele>2.6666666666666665</ele><time>2026-04-18T18:07:17.584Z</time></trkpt><trkpt lat="10.1605373" lon="-75.2976584"><ele>3.0</ele><time>2026-04-18T18:07:19.636Z</time></trkpt><trkpt lat="10.1606006" lon="-75.297725"><ele>3.333333333333333</ele><time>2026-04-18T18:07:22.639Z</time></trkpt><trkpt lat="10.1606412" lon="-75.2977798"><ele>3.6666666666666665</ele><time>2026-04-18T18:07:24.635Z</time></trkpt><trkpt lat="10.1607257" lon="-75.2978505"><ele>4.0</ele><time>2026-04-18T18:07:26.627Z</time></trkpt><trkpt lat="10.1607707" lon="-75.2979039"><ele>4.285714285714286</ele><time>2026-04-18T18:07:28.633Z</time></trkpt><trkpt lat="10.1608142" lon="-75.2979592"><ele>4.571428571428571</ele><time>2026-04-18T18:07:30.633Z</time></trkpt><trkpt lat="10.1608594" lon="-75.2980174"><ele>4.857142857142857</ele><time>2026-04-18T18:07:32.637Z</time></trkpt><trkpt lat="10.160906" lon="-75.2980759"><ele>5.142857142857142</ele><time>2026-04-18T18:07:34.641Z</time></trkpt><trkpt lat="10.1609531" lon="-75.2981363"><ele>5.428571428571429</ele><time>2026-04-18T18:07:36.64Z</time></trkpt><trkpt lat="10.1610015" lon="-75.2981953"><ele>5.7142857142857135</ele><time>2026-04-18T18:07:38.637Z</time></trkpt><trkpt lat="10.1610469" lon="-75.2982555"><ele>6.0</ele><time>2026-04-18T18:07:40.636Z</time></trkpt><trkpt lat="10.1610952" lon="-75.2983127"><ele>6.0</ele><time>2026-04-18T18:07:42.641Z</time></trkpt><trkpt lat="10.1611441" lon="-75.2983755"><ele>6.0</ele><time>2026-04-18T18:07:44.633Z</time></trkpt><trkpt lat="10.1611936" lon="-75.2984416"><ele>6.0</ele><time>2026-04-18T18:07:46.634Z</time></trkpt><trkpt lat="10.161247" lon="-75.2985056"><ele>6.0</ele><time>2026-04-18T18:07:48.639Z</time></trkpt><trkpt lat="10.1613011" lon="-75.2985693"><ele>6.0</ele><time>2026-04-18T18:07:50.633Z</time></trkpt><trkpt lat="10.1613544" lon="-75.2986347"><ele>6.0</ele><time>2026-04-18T18:07:52.634Z</time></trkpt><trkpt lat="10.1614221" lon="-75.2986984"><ele>6.0</ele><time>2026-04-18T18:07:54.649Z</time></trkpt><trkpt lat="10.1614879" lon="-75.2987765"><ele>6.0</ele><time>2026-04-18T18:07:56.635Z</time></trkpt><trkpt lat="10.1615572" lon="-75.2988614"><ele>6.0</ele><time>2026-04-18T18:07:58.632Z</time></trkpt><trkpt lat="10.1616336" lon="-75.2989512"><ele>6.0</ele><time>2026-04-18T18:08:00.629Z</time></trkpt><trkpt lat="10.1617094" lon="-75.2990478"><ele>6.0</ele><time>2026-04-18T18:08:02.635Z</time></trkpt><trkpt lat="10.1617533" lon="-75.2991038"><ele>6.142857142857142</ele><time>2026-04-18T18:08:03.638Z</time></trkpt><trkpt lat="10.1617936" lon="-75.2991547"><ele>6.285714285714286</ele><time>2026-04-18T18:08:04.638Z</time></trkpt><trkpt lat="10.1618361" lon="-75.2992059"><ele>6.428571428571429</ele><time>2026-04-18T18:08:05.635Z</time></trkpt><trkpt lat="10.1618825" lon="-75.2992592"><ele>6.571428571428571</ele><time>2026-04-18T18:08:06.641Z</time></trkpt><trkpt lat="10.1619271" lon="-75.2993119"><ele>6.714285714285714</ele><time>2026-04-18T18:08:07.633Z</time></trkpt><trkpt lat="10.1619708" lon="-75.2993648"><ele>6.857142857142857</ele><time>2026-04-18T18:08:08.631Z</time></trkpt><trkpt lat="10.1620145" lon="-75.2994171"><ele>7.0</ele><time>2026-04-18T18:08:09.633Z</time></trkpt><trkpt lat="10.1620661" lon="-75.2994731"><ele>7.0</ele><time>2026-04-18T18:08:10.634Z</time></trkpt><trkpt lat="10.162114" lon="-75.2995301"><ele>7.0</ele><time>2026-04-18T18:08:11.641Z</time></trkpt><trkpt lat="10.1621563" lon="-75.299588"><ele>7.0</ele><time>2026-04-18T18:08:12.634Z</time></trkpt><trkpt lat="10.1622025" lon="-75.2996439"><ele>7.0</ele><time>2026-04-18T18:08:13.638Z</time></trkpt><trkpt lat="10.1622429" lon="-75.2996974"><ele>7.0</ele><time>2026-04-18T18:08:14.637Z</time></trkpt><trkpt lat="10.1622873" lon="-75.299747"><ele>7.0</ele><time>2026-04-18T18:08:15.633Z</time></trkpt><trkpt lat="10.1623329" lon="-75.2998018"><ele>7.0</ele><time>2026-04-18T18:08:16.641Z</time></trkpt><trkpt lat="10.1623806" lon="-75.2998567"><ele>6.333333333333334</ele><time>2026-04-18T18:08:17.634Z</time></trkpt><trkpt lat="10.1624308" lon="-75.2999139"><ele>5.666666666666667</ele><time>2026-04-18T18:08:18.634Z</time></trkpt><trkpt lat="10.1624825" lon="-75.2999712"><ele>5.0</ele><time>2026-04-18T18:08:19.634Z</time></trkpt><trkpt lat="10.1625427" lon="-75.3000284"><ele>4.333333333333334</ele><time>2026-04-18T18:08:20.636Z</time></trkpt><trkpt lat="10.1626033" lon="-75.3000903"><ele>3.666666666666667</ele><time>2026-04-18T18:08:21.634Z</time></trkpt><trkpt lat="10.1626717" lon="-75.300156"><ele>3.0</ele><time>2026-04-18T18:08:22.637Z</time></trkpt><trkpt lat="10.1627418" lon="-75.3002158"><ele>3.0</ele><time>2026-04-18T18:08:23.633Z</time></trkpt><trkpt lat="10.1628164" lon="-75.3002775"><ele>3.0</ele><time>2026-04-18T18:08:24.635Z</time></trkpt><trkpt lat="10.1628961" lon="-75.3003307"><ele>3.0</ele><time>2026-04-18T18:08:25.636Z</time></trkpt><trkpt lat="10.1629768" lon="-75.3003799"><ele>3.0</ele><time>2026-04-18T18:08:26.635Z</time></trkpt><trkpt lat="10.1630593" lon="-75.30043"><ele>3.0</ele><time>2026-04-18T18:08:27.635Z</time></trkpt><trkpt lat="10.1631465" lon="-75.3004809"><ele>2.8</ele><time>2026-04-18T18:08:28.635Z</time></trkpt><trkpt lat="10.1632338" lon="-75.3005264"><ele>2.5999999999999996</ele><time>2026-04-18T18:08:29.639Z</time></trkpt><trkpt lat="10.1633263" lon="-75.3005699"><ele>2.4000000000000004</ele><time>2026-04-18T18:08:30.638Z</time></trkpt><trkpt lat="10.1634182" lon="-75.3006026"><ele>2.2</ele><time>2026-04-18T18:08:31.628Z</time></trkpt><trkpt lat="10.1635113" lon="-75.3006365"><ele>2.0</ele><time>2026-04-18T18:08:32.632Z</time></trkpt><trkpt lat="10.1636042" lon="-75.300667"><ele>2.0</ele><time>2026-04-18T18:08:33.634Z</time></trkpt><trkpt lat="10.1637009" lon="-75.3006982"><ele>2.0</ele><time>2026-04-18T18:08:34.639Z</time></trkpt><trkpt lat="10.1637988" lon="-75.3007249"><ele>2.0</ele><time>2026-04-18T18:08:35.637Z</time></trkpt><trkpt lat="10.1639023" lon="-75.3007434"><ele>2.0</ele><time>2026-04-18T18:08:36.643Z</time></trkpt><trkpt lat="10.1640127" lon="-75.3007552"><ele>2.0</ele><time>2026-04-18T18:08:37.641Z</time></trkpt><trkpt lat="10.1641207" lon="-75.3007613"><ele>2.0</ele><time>2026-04-18T18:08:38.633Z</time></trkpt><trkpt lat="10.1642268" lon="-75.3007673"><ele>2.0</ele><time>2026-04-18T18:08:39.634Z</time></trkpt><trkpt lat="10.1643373" lon="-75.3007685"><ele>2.0</ele><time>2026-04-18T18:08:40.637Z</time></trkpt><trkpt lat="10.1644481" lon="-75.3007636"><ele>2.0</ele><time>2026-04-18T18:08:41.636Z</time></trkpt><trkpt lat="10.1645617" lon="-75.30075"><ele>2.0</ele><time>2026-04-18T18:08:42.638Z</time></trkpt><trkpt lat="10.1646723" lon="-75.3007344"><ele>2.0</ele><time>2026-04-18T18:08:43.638Z</time></trkpt><trkpt lat="10.1647744" lon="-75.3007143"><ele>2.0</ele><time>2026-04-18T18:08:44.636Z</time></trkpt><trkpt lat="10.1648804" lon="-75.3006904"><ele>2.0</ele><time>2026-04-18T18:08:45.634Z</time></trkpt><trkpt lat="10.1649791" lon="-75.3006659"><ele>2.0</ele><time>2026-04-18T18:08:46.63Z</time></trkpt><trkpt lat="10.1650761" lon="-75.300636"><ele>2.0</ele><time>2026-04-18T18:08:47.635Z</time></trkpt><trkpt lat="10.1651665" lon="-75.3006032"><ele>2.8</ele><time>2026-04-18T18:08:48.637Z</time></trkpt><trkpt lat="10.1652604" lon="-75.3005685"><ele>3.6</ele><time>2026-04-18T18:08:49.63Z</time></trkpt><trkpt lat="10.1653488" lon="-75.3005259"><ele>4.3999999999999995</ele><time>2026-04-18T18:08:50.636Z</time></trkpt><trkpt lat="10.1654374" lon="-75.300481"><ele>5.2</ele><time>2026-04-18T18:08:51.639Z</time></trkpt><trkpt lat="10.1655246" lon="-75.3004347"><ele>6.0</ele><time>2026-04-18T18:08:52.641Z</time></trkpt><trkpt lat="10.1656037" lon="-75.3003863"><ele>6.0</ele><time>2026-04-18T18:08:53.64Z</time></trkpt><trkpt lat="10.1656843" lon="-75.3003346"><ele>6.0</ele><time>2026-04-18T18:08:54.635Z</time></trkpt><trkpt lat="10.165758" lon="-75.3002852"><ele>6.0</ele><time>2026-04-18T18:08:55.631Z</time></trkpt><trkpt lat="10.1658288" lon="-75.3002319"><ele>6.0</ele><time>2026-04-18T18:08:56.634Z</time></trkpt><trkpt lat="10.1658964" lon="-75.3001726"><ele>6.0</ele><time>2026-04-18T18:08:57.634Z</time></trkpt><trkpt lat="10.165962" lon="-75.300115"><ele>6.0</ele><time>2026-04-18T18:08:58.634Z</time></trkpt><trkpt lat="10.1660213" lon="-75.3000513"><ele>5.833333333333333</ele><time>2026-04-18T18:08:59.632Z</time></trkpt><trkpt lat="10.1660828" lon="-75.2999864"><ele>5.666666666666667</ele><time>2026-04-18T18:09:00.635Z</time></trkpt><trkpt lat="10.1661428" lon="-75.2999225"><ele>5.5</ele><time>2026-04-18T18:09:01.638Z</time></trkpt><trkpt lat="10.1661997" lon="-75.2998575"><ele>5.333333333333334</ele><time>2026-04-18T18:09:02.635Z</time></trkpt><trkpt lat="10.1662511" lon="-75.2997867"><ele>5.166666666666667</ele><time>2026-04-18T18:09:03.635Z</time></trkpt><trkpt lat="10.166301" lon="-75.2997157"><ele>5.0</ele><time>2026-04-18T18:09:04.632Z</time></trkpt><trkpt lat="10.1663518" lon="-75.299644"><ele>4.8</ele><time>2026-04-18T18:09:05.638Z</time></trkpt><trkpt lat="10.1664028" lon="-75.2995754"><ele>4.6</ele><time>2026-04-18T18:09:06.63Z</time></trkpt><trkpt lat="10.1664546" lon="-75.2994899"><ele>4.4</ele><time>2026-04-18T18:09:07.631Z</time></trkpt><trkpt lat="10.1664925" lon="-75.2994067"><ele>4.2</ele><time>2026-04-18T18:09:08.634Z</time></trkpt><trkpt lat="10.16653" lon="-75.2993251"><ele>4.0</ele><time>2026-04-18T18:09:09.633Z</time></trkpt><trkpt lat="10.166565" lon="-75.2992404"><ele>3.9999999999999996</ele><time>2026-04-18T18:09:10.631Z</time></trkpt><trkpt lat="10.1666026" lon="-75.2991619"><ele>4.0</ele><time>2026-04-18T18:09:11.637Z</time></trkpt><trkpt lat="10.1666248" lon="-75.2990788"><ele>4.0</ele><time>2026-04-18T18:09:12.633Z</time></trkpt><trkpt lat="10.1666482" lon="-75.2989991"><ele>4.0</ele><time>2026-04-18T18:09:13.634Z</time></trkpt><trkpt lat="10.1666704" lon="-75.2989181"><ele>3.9999999999999996</ele><time>2026-04-18T18:09:14.639Z</time></trkpt><trkpt lat="10.1666916" lon="-75.2988409"><ele>4.0</ele><time>2026-04-18T18:09:15.634Z</time></trkpt><trkpt lat="10.1667063" lon="-75.29877"><ele>3.8000000000000003</ele><time>2026-04-18T18:09:16.633Z</time></trkpt><trkpt lat="10.1667184" lon="-75.2987038"><ele>3.6000000000000005</ele><time>2026-04-18T18:09:17.632Z</time></trkpt><trkpt lat="10.1667334" lon="-75.2985726"><ele>3.4</ele><time>2026-04-18T18:09:19.636Z</time></trkpt><trkpt lat="10.1667401" lon="-75.2985076"><ele>3.2</ele><time>2026-04-18T18:09:20.632Z</time></trkpt><trkpt lat="10.1667473" lon="-75.2983878"><ele>3.0</ele><time>2026-04-18T18:09:22.634Z</time></trkpt><trkpt lat="10.1667548" lon="-75.2982749"><ele>3.0</ele><time>2026-04-18T18:09:24.634Z</time></trkpt><trkpt lat="10.1667612" lon="-75.2981664"><ele>3.0</ele><time>2026-04-18T18:09:26.637Z</time></trkpt><trkpt lat="10.1667671" lon="-75.2980466"><ele>3.0</ele><time>2026-04-18T18:09:28.633Z</time></trkpt><trkpt lat="10.1667709" lon="-75.2979169"><ele>3.0</ele><time>2026-04-18T18:09:30.638Z</time></trkpt><trkpt lat="10.1667746" lon="-75.297853"><ele>3.0</ele><time>2026-04-18T18:09:31.631Z</time></trkpt><trkpt lat="10.1667797" lon="-75.2977874"><ele>3.1428571428571423</ele><time>2026-04-18T18:09:32.633Z</time></trkpt><trkpt lat="10.1667885" lon="-75.2977204"><ele>3.2857142857142856</ele><time>2026-04-18T18:09:33.633Z</time></trkpt><trkpt lat="10.1667966" lon="-75.2976492"><ele>3.4285714285714284</ele><time>2026-04-18T18:09:34.635Z</time></trkpt><trkpt lat="10.1668034" lon="-75.2975823"><ele>3.571428571428571</ele><time>2026-04-18T18:09:35.631Z</time></trkpt><trkpt lat="10.1668084" lon="-75.2975137"><ele>3.714285714285714</ele><time>2026-04-18T18:09:36.632Z</time></trkpt><trkpt lat="10.1668169" lon="-75.2974471"><ele>3.8571428571428568</ele><time>2026-04-18T18:09:37.633Z</time></trkpt><trkpt lat="10.1668281" lon="-75.2973768"><ele>4.0</ele><time>2026-04-18T18:09:38.631Z</time></trkpt><trkpt lat="10.1668556" lon="-75.2972537"><ele>4.0</ele><time>2026-04-18T18:09:40.634Z</time></trkpt><trkpt lat="10.1668866" lon="-75.2971371"><ele>4.0</ele><time>2026-04-18T18:09:42.631Z</time></trkpt><trkpt lat="10.1669201" lon="-75.2970181"><ele>4.0</ele><time>2026-04-18T18:09:44.635Z</time></trkpt><trkpt lat="10.1669648" lon="-75.2968969"><ele>4.0</ele><time>2026-04-18T18:09:46.634Z</time></trkpt><trkpt lat="10.1669923" lon="-75.2968319"><ele>4.0</ele><time>2026-04-18T18:09:47.638Z</time></trkpt><trkpt lat="10.1670204" lon="-75.2967648"><ele>4.0</ele><time>2026-04-18T18:09:48.629Z</time></trkpt><trkpt lat="10.1670531" lon="-75.2967042"><ele>3.9999999999999996</ele><time>2026-04-18T18:09:49.629Z</time></trkpt><trkpt lat="10.1670865" lon="-75.296643"><ele>4.0</ele><time>2026-04-18T18:09:50.632Z</time></trkpt><trkpt lat="10.1671202" lon="-75.2965822"><ele>4.0</ele><time>2026-04-18T18:09:51.634Z</time></trkpt><trkpt lat="10.1671581" lon="-75.2965233"><ele>3.9999999999999996</ele><time>2026-04-18T18:09:52.637Z</time></trkpt><trkpt lat="10.1671957" lon="-75.2964642"><ele>4.0</ele><time>2026-04-18T18:09:53.635Z</time></trkpt><trkpt lat="10.1672341" lon="-75.296403"><ele>4.0</ele><time>2026-04-18T18:09:54.635Z</time></trkpt><trkpt lat="10.1672704" lon="-75.2963435"><ele>3.8571428571428568</ele><time>2026-04-18T18:09:55.633Z</time></trkpt><trkpt lat="10.1673134" lon="-75.2962868"><ele>3.714285714285714</ele><time>2026-04-18T18:09:56.635Z</time></trkpt><trkpt lat="10.1673639" lon="-75.2962344"><ele>3.571428571428571</ele><time>2026-04-18T18:09:57.632Z</time></trkpt><trkpt lat="10.1674146" lon="-75.2961774"><ele>3.4285714285714284</ele><time>2026-04-18T18:09:58.633Z</time></trkpt><trkpt lat="10.1674702" lon="-75.2961264"><ele>3.2857142857142856</ele><time>2026-04-18T18:09:59.635Z</time></trkpt><trkpt lat="10.167525" lon="-75.2960741"><ele>3.1428571428571423</ele><time>2026-04-18T18:10:00.637Z</time></trkpt><trkpt lat="10.1675814" lon="-75.2960234"><ele>3.0</ele><time>2026-04-18T18:10:01.633Z</time></trkpt><trkpt lat="10.1676413" lon="-75.2959682"><ele>3.0</ele><time>2026-04-18T18:10:02.636Z</time></trkpt><trkpt lat="10.1677031" lon="-75.2959186"><ele>3.0</ele><time>2026-04-18T18:10:03.636Z</time></trkpt><trkpt lat="10.167764" lon="-75.295868"><ele>3.0</ele><time>2026-04-18T18:10:04.634Z</time></trkpt><trkpt lat="10.1678306" lon="-75.295819"><ele>3.0</ele><time>2026-04-18T18:10:05.634Z</time></trkpt><trkpt lat="10.1678968" lon="-75.2957729"><ele>3.0</ele><time>2026-04-18T18:10:06.63Z</time></trkpt><trkpt lat="10.1679645" lon="-75.2957271"><ele>3.0</ele><time>2026-04-18T18:10:07.642Z</time></trkpt><trkpt lat="10.1680329" lon="-75.295679"><ele>3.0</ele><time>2026-04-18T18:10:08.631Z</time></trkpt><trkpt lat="10.1681006" lon="-75.2956277"><ele>3.0</ele><time>2026-04-18T18:10:09.63Z</time></trkpt><trkpt lat="10.1681703" lon="-75.2955765"><ele>3.0</ele><time>2026-04-18T18:10:10.636Z</time></trkpt><trkpt lat="10.1682397" lon="-75.2955284"><ele>3.0</ele><time>2026-04-18T18:10:11.631Z</time></trkpt><trkpt lat="10.1683079" lon="-75.2954771"><ele>3.0</ele><time>2026-04-18T18:10:12.633Z</time></trkpt><trkpt lat="10.1683776" lon="-75.2954291"><ele>3.0</ele><time>2026-04-18T18:10:13.636Z</time></trkpt><trkpt lat="10.1684462" lon="-75.2953808"><ele>3.3333333333333335</ele><time>2026-04-18T18:10:14.637Z</time></trkpt><trkpt lat="10.1685134" lon="-75.2953334"><ele>3.666666666666667</ele><time>2026-04-18T18:10:15.635Z</time></trkpt><trkpt lat="10.1685806" lon="-75.2952855"><ele>4.0</ele><time>2026-04-18T18:10:16.632Z</time></trkpt><trkpt lat="10.1686456" lon="-75.2952398"><ele>4.333333333333334</ele><time>2026-04-18T18:10:17.635Z</time></trkpt><trkpt lat="10.1687099" lon="-75.2951969"><ele>4.666666666666667</ele><time>2026-04-18T18:10:18.634Z</time></trkpt><trkpt lat="10.1687735" lon="-75.295151"><ele>5.0</ele><time>2026-04-18T18:10:19.639Z</time></trkpt><trkpt lat="10.1688372" lon="-75.2951094"><ele>5.0</ele><time>2026-04-18T18:10:20.633Z</time></trkpt><trkpt lat="10.1689002" lon="-75.2950606"><ele>5.0</ele><time>2026-04-18T18:10:21.631Z</time></trkpt><trkpt lat="10.1689601" lon="-75.2950149"><ele>5.0</ele><time>2026-04-18T18:10:22.634Z</time></trkpt><trkpt lat="10.1690214" lon="-75.2949722"><ele>5.0</ele><time>2026-04-18T18:10:23.631Z</time></trkpt><trkpt lat="10.16908" lon="-75.2949288"><ele>5.0</ele><time>2026-04-18T18:10:24.635Z</time></trkpt><trkpt lat="10.1691369" lon="-75.2948898"><ele>5.0</ele><time>2026-04-18T18:10:25.633Z</time></trkpt><trkpt lat="10.1691927" lon="-75.2948498"><ele>5.0</ele><time>2026-04-18T18:10:26.634Z</time></trkpt><trkpt lat="10.1692493" lon="-75.2948123"><ele>5.0</ele><time>2026-04-18T18:10:27.634Z</time></trkpt><trkpt lat="10.1693099" lon="-75.2947757"><ele>5.0</ele><time>2026-04-18T18:10:28.631Z</time></trkpt><trkpt lat="10.1693702" lon="-75.2947405"><ele>5.0</ele><time>2026-04-18T18:10:29.631Z</time></trkpt><trkpt lat="10.1694369" lon="-75.2947051"><ele>5.0</ele><time>2026-04-18T18:10:30.631Z</time></trkpt><trkpt lat="10.1695039" lon="-75.2946703"><ele>5.0</ele><time>2026-04-18T18:10:31.627Z</time></trkpt><trkpt lat="10.1695717" lon="-75.2946349"><ele>5.0</ele><time>2026-04-18T18:10:32.634Z</time></trkpt><trkpt lat="10.1696433" lon="-75.2946056"><ele>5.0</ele><time>2026-04-18T18:10:33.633Z</time></trkpt><trkpt lat="10.1697138" lon="-75.2945749"><ele>5.0</ele><time>2026-04-18T18:10:34.629Z</time></trkpt><trkpt lat="10.1697864" lon="-75.2945469"><ele>5.0</ele><time>2026-04-18T18:10:35.629Z</time></trkpt><trkpt lat="10.1698627" lon="-75.2945223"><ele>5.0</ele><time>2026-04-18T18:10:36.633Z</time></trkpt><trkpt lat="10.1699405" lon="-75.2944966"><ele>5.0</ele><time>2026-04-18T18:10:37.636Z</time></trkpt><trkpt lat="10.1700182" lon="-75.2944751"><ele>5.0</ele><time>2026-04-18T18:10:38.627Z</time></trkpt><trkpt lat="10.1700979" lon="-75.2944588"><ele>5.0</ele><time>2026-04-18T18:10:39.63Z</time></trkpt><trkpt lat="10.1701784" lon="-75.2944428"><ele>5.0</ele><time>2026-04-18T18:10:40.634Z</time></trkpt><trkpt lat="10.1702536" lon="-75.2944356"><ele>5.0</ele><time>2026-04-18T18:10:41.632Z</time></trkpt><trkpt lat="10.1703352" lon="-75.2944329"><ele>5.0</ele><time>2026-04-18T18:10:42.631Z</time></trkpt><trkpt lat="10.1704143" lon="-75.294427"><ele>5.0</ele><time>2026-04-18T18:10:43.634Z</time></trkpt><trkpt lat="10.1704906" lon="-75.2944065"><ele>5.0</ele><time>2026-04-18T18:10:44.632Z</time></trkpt><trkpt lat="10.1705706" lon="-75.2943951"><ele>5.0</ele><time>2026-04-18T18:10:45.633Z</time></trkpt><trkpt lat="10.1706509" lon="-75.2943869"><ele>5.0</ele><time>2026-04-18T18:10:46.634Z</time></trkpt><trkpt lat="10.1707355" lon="-75.2943842"><ele>5.0</ele><time>2026-04-18T18:10:47.633Z</time></trkpt><trkpt lat="10.1708223" lon="-75.2943789"><ele>5.0</ele><time>2026-04-18T18:10:48.63Z</time></trkpt><trkpt lat="10.1709049" lon="-75.2943747"><ele>5.0</ele><time>2026-04-18T18:10:49.631Z</time></trkpt><trkpt lat="10.1709841" lon="-75.2943694"><ele>5.0</ele><time>2026-04-18T18:10:50.63Z</time></trkpt><trkpt lat="10.1710665" lon="-75.2943617"><ele>5.0</ele><time>2026-04-18T18:10:51.633Z</time></trkpt><trkpt lat="10.1711503" lon="-75.2943577"><ele>5.0</ele><time>2026-04-18T18:10:52.63Z</time></trkpt><trkpt lat="10.1712322" lon="-75.2943499"><ele>5.0</ele><time>2026-04-18T18:10:53.631Z</time></trkpt><trkpt lat="10.171313" lon="-75.2943444"><ele>5.0</ele><time>2026-04-18T18:10:54.63Z</time></trkpt><trkpt lat="10.1713945" lon="-75.2943376"><ele>5.0</ele><time>2026-04-18T18:10:55.635Z</time></trkpt><trkpt lat="10.1714772" lon="-75.2943315"><ele>5.0</ele><time>2026-04-18T18:10:56.633Z</time></trkpt><trkpt lat="10.1715557" lon="-75.2943288"><ele>5.0</ele><time>2026-04-18T18:10:57.638Z</time></trkpt><trkpt lat="10.1716393" lon="-75.294322"><ele>4.833333333333334</ele><time>2026-04-18T18:10:58.632Z</time></trkpt><trkpt lat="10.1717224" lon="-75.2943165"><ele>4.666666666666667</ele><time>2026-04-18T18:10:59.639Z</time></trkpt><trkpt lat="10.1718051" lon="-75.2943089"><ele>4.5</ele><time>2026-04-18T18:11:00.635Z</time></trkpt><trkpt lat="10.171887" lon="-75.2943007"><ele>4.333333333333333</ele><time>2026-04-18T18:11:01.634Z</time></trkpt><trkpt lat="10.1719702" lon="-75.2942967"><ele>4.166666666666666</ele><time>2026-04-18T18:11:02.633Z</time></trkpt><trkpt lat="10.1720514" lon="-75.2942884"><ele>4.0</ele><time>2026-04-18T18:11:03.632Z</time></trkpt><trkpt lat="10.1721311" lon="-75.2942876"><ele>3.9999999999999996</ele><time>2026-04-18T18:11:04.632Z</time></trkpt><trkpt lat="10.1722119" lon="-75.2942798"><ele>4.0</ele><time>2026-04-18T18:11:05.635Z</time></trkpt><trkpt lat="10.1722896" lon="-75.2942737"><ele>4.0</ele><time>2026-04-18T18:11:06.639Z</time></trkpt><trkpt lat="10.1723652" lon="-75.2942688"><ele>4.0</ele><time>2026-04-18T18:11:07.635Z</time></trkpt><trkpt lat="10.1724437" lon="-75.2942648"><ele>3.9999999999999996</ele><time>2026-04-18T18:11:08.631Z</time></trkpt><trkpt lat="10.1725232" lon="-75.2942587"><ele>4.0</ele><time>2026-04-18T18:11:09.631Z</time></trkpt><trkpt lat="10.1726033" lon="-75.2942536"><ele>3.833333333333333</ele><time>2026-04-18T18:11:10.632Z</time></trkpt><trkpt lat="10.1726778" lon="-75.2942477"><ele>3.6666666666666665</ele><time>2026-04-18T18:11:11.632Z</time></trkpt><trkpt lat="10.1727556" lon="-75.2942439"><ele>3.5</ele><time>2026-04-18T18:11:12.631Z</time></trkpt><trkpt lat="10.1728347" lon="-75.2942377"><ele>3.333333333333333</ele><time>2026-04-18T18:11:13.638Z</time></trkpt><trkpt lat="10.1729129" lon="-75.2942332"><ele>3.1666666666666665</ele><time>2026-04-18T18:11:14.633Z</time></trkpt><trkpt lat="10.1729909" lon="-75.2942264"><ele>3.0</ele><time>2026-04-18T18:11:15.634Z</time></trkpt><trkpt lat="10.1730698" lon="-75.2942233"><ele>3.0</ele><time>2026-04-18T18:11:16.631Z</time></trkpt><trkpt lat="10.1731487" lon="-75.2942137"><ele>3.0</ele><time>2026-04-18T18:11:17.632Z</time></trkpt><trkpt lat="10.1732289" lon="-75.2942063"><ele>3.0</ele><time>2026-04-18T18:11:18.635Z</time></trkpt><trkpt lat="10.173308" lon="-75.2941966"><ele>3.0</ele><time>2026-04-18T18:11:19.637Z</time></trkpt><trkpt lat="10.173389" lon="-75.2941916"><ele>3.0</ele><time>2026-04-18T18:11:20.634Z</time></trkpt><trkpt lat="10.1734704" lon="-75.2941884"><ele>3.0</ele><time>2026-04-18T18:11:21.643Z</time></trkpt><trkpt lat="10.1735497" lon="-75.2941813"><ele>3.1666666666666665</ele><time>2026-04-18T18:11:22.63Z</time></trkpt><trkpt lat="10.1736307" lon="-75.2941741"><ele>3.333333333333333</ele><time>2026-04-18T18:11:23.631Z</time></trkpt><trkpt lat="10.1737108" lon="-75.2941674"><ele>3.5</ele><time>2026-04-18T18:11:24.629Z</time></trkpt><trkpt lat="10.1737948" lon="-75.2941602"><ele>3.6666666666666665</ele><time>2026-04-18T18:11:25.634Z</time></trkpt><trkpt lat="10.1738738" lon="-75.2941539"><ele>3.833333333333333</ele><time>2026-04-18T18:11:26.629Z</time></trkpt><trkpt lat="10.1739554" lon="-75.2941487"><ele>4.0</ele><time>2026-04-18T18:11:27.628Z</time></trkpt><trkpt lat="10.1740399" lon="-75.2941423"><ele>3.6666666666666665</ele><time>2026-04-18T18:11:28.632Z</time></trkpt><trkpt lat="10.1741237" lon="-75.294137"><ele>3.333333333333333</ele><time>2026-04-18T18:11:29.633Z</time></trkpt><trkpt lat="10.174209" lon="-75.2941299"><ele>3.0</ele><time>2026-04-18T18:11:30.634Z</time></trkpt><trkpt lat="10.1742945" lon="-75.2941218"><ele>2.6666666666666665</ele><time>2026-04-18T18:11:31.638Z</time></trkpt><trkpt lat="10.1743791" lon="-75.2941139"><ele>2.333333333333333</ele><time>2026-04-18T18:11:32.637Z</time></trkpt><trkpt lat="10.1744648" lon="-75.294107"><ele>2.0</ele><time>2026-04-18T18:11:33.631Z</time></trkpt><trkpt lat="10.1745533" lon="-75.2941019"><ele>1.9999999999999998</ele><time>2026-04-18T18:11:34.633Z</time></trkpt><trkpt lat="10.1746401" lon="-75.2940943"><ele>2.0</ele><time>2026-04-18T18:11:35.635Z</time></trkpt><trkpt lat="10.1747252" lon="-75.2940858"><ele>2.0</ele><time>2026-04-18T18:11:36.637Z</time></trkpt><trkpt lat="10.1748121" lon="-75.2940807"><ele>2.0</ele><time>2026-04-18T18:11:37.633Z</time></trkpt><trkpt lat="10.1748977" lon="-75.2940726"><ele>1.9999999999999998</ele><time>2026-04-18T18:11:38.63Z</time></trkpt><trkpt lat="10.1749833" lon="-75.2940688"><ele>2.0</ele><time>2026-04-18T18:11:39.634Z</time></trkpt><trkpt lat="10.1750648" lon="-75.2940608"><ele>2.333333333333333</ele><time>2026-04-18T18:11:40.632Z</time></trkpt><trkpt lat="10.1751475" lon="-75.2940548"><ele>2.6666666666666665</ele><time>2026-04-18T18:11:41.634Z</time></trkpt><trkpt lat="10.1752253" lon="-75.2940504"><ele>3.0</ele><time>2026-04-18T18:11:42.63Z</time></trkpt><trkpt lat="10.1753048" lon="-75.2940444"><ele>3.333333333333333</ele><time>2026-04-18T18:11:43.633Z</time></trkpt><trkpt lat="10.1753905" lon="-75.2940377"><ele>3.6666666666666665</ele><time>2026-04-18T18:11:44.632Z</time></trkpt><trkpt lat="10.1754788" lon="-75.2940315"><ele>4.0</ele><time>2026-04-18T18:11:45.635Z</time></trkpt><trkpt lat="10.1755603" lon="-75.2940193"><ele>3.9999999999999996</ele><time>2026-04-18T18:11:46.636Z</time></trkpt><trkpt lat="10.1756458" lon="-75.2940131"><ele>4.0</ele><time>2026-04-18T18:11:47.635Z</time></trkpt><trkpt lat="10.1757292" lon="-75.2940066"><ele>4.0</ele><time>2026-04-18T18:11:48.635Z</time></trkpt><trkpt lat="10.175804" lon="-75.2939987"><ele>4.0</ele><time>2026-04-18T18:11:49.632Z</time></trkpt><trkpt lat="10.1758897" lon="-75.2939942"><ele>3.9999999999999996</ele><time>2026-04-18T18:11:50.633Z</time></trkpt><trkpt lat="10.1759752" lon="-75.2939904"><ele>4.0</ele><time>2026-04-18T18:11:51.636Z</time></trkpt><trkpt lat="10.1760594" lon="-75.2939777"><ele>3.833333333333333</ele><time>2026-04-18T18:11:52.635Z</time></trkpt><trkpt lat="10.1761428" lon="-75.2939678"><ele>3.6666666666666665</ele><time>2026-04-18T18:11:53.633Z</time></trkpt><trkpt lat="10.1762265" lon="-75.2939631"><ele>3.5</ele><time>2026-04-18T18:11:54.632Z</time></trkpt><trkpt lat="10.1763098" lon="-75.2939556"><ele>3.333333333333333</ele><time>2026-04-18T18:11:55.633Z</time></trkpt><trkpt lat="10.1763992" lon="-75.2939555"><ele>3.1666666666666665</ele><time>2026-04-18T18:11:56.635Z</time></trkpt><trkpt lat="10.1764883" lon="-75.2939514"><ele>3.0</ele><time>2026-04-18T18:11:57.634Z</time></trkpt><trkpt lat="10.1765822" lon="-75.29395"><ele>3.0</ele><time>2026-04-18T18:11:58.638Z</time></trkpt><trkpt lat="10.1766716" lon="-75.2939451"><ele>3.0</ele><time>2026-04-18T18:11:59.629Z</time></trkpt><trkpt lat="10.1767684" lon="-75.2939417"><ele>3.0</ele><time>2026-04-18T18:12:00.633Z</time></trkpt><trkpt lat="10.1768655" lon="-75.2939442"><ele>3.0</ele><time>2026-04-18T18:12:01.633Z</time></trkpt><trkpt lat="10.1769585" lon="-75.2939443"><ele>3.0</ele><time>2026-04-18T18:12:02.636Z</time></trkpt><trkpt lat="10.1770528" lon="-75.2939547"><ele>3.0</ele><time>2026-04-18T18:12:03.638Z</time></trkpt><trkpt lat="10.1771467" lon="-75.2939688"><ele>3.0</ele><time>2026-04-18T18:12:04.631Z</time></trkpt><trkpt lat="10.1772345" lon="-75.2939819"><ele>3.0</ele><time>2026-04-18T18:12:05.633Z</time></trkpt><trkpt lat="10.1773233" lon="-75.2939929"><ele>3.0</ele><time>2026-04-18T18:12:06.635Z</time></trkpt><trkpt lat="10.1774145" lon="-75.2940076"><ele>3.0</ele><time>2026-04-18T18:12:07.631Z</time></trkpt><trkpt lat="10.1775013" lon="-75.2940206"><ele>3.1666666666666665</ele><time>2026-04-18T18:12:08.639Z</time></trkpt><trkpt lat="10.1775881" lon="-75.2940368"><ele>3.333333333333333</ele><time>2026-04-18T18:12:09.633Z</time></trkpt><trkpt lat="10.177674" lon="-75.2940555"><ele>3.5</ele><time>2026-04-18T18:12:10.632Z</time></trkpt><trkpt lat="10.1777611" lon="-75.2940745"><ele>3.6666666666666665</ele><time>2026-04-18T18:12:11.631Z</time></trkpt><trkpt lat="10.1778475" lon="-75.2940994"><ele>3.833333333333333</ele><time>2026-04-18T18:12:12.631Z</time></trkpt><trkpt lat="10.1779351" lon="-75.2941249"><ele>4.0</ele><time>2026-04-18T18:12:13.631Z</time></trkpt><trkpt lat="10.1780246" lon="-75.2941493"><ele>4.0</ele><time>2026-04-18T18:12:14.634Z</time></trkpt><trkpt lat="10.1781149" lon="-75.2941792"><ele>4.0</ele><time>2026-04-18T18:12:15.632Z</time></trkpt><trkpt lat="10.1782052" lon="-75.2942105"><ele>4.0</ele><time>2026-04-18T18:12:16.628Z</time></trkpt><trkpt lat="10.1782928" lon="-75.294236"><ele>4.0</ele><time>2026-04-18T18:12:17.63Z</time></trkpt><trkpt lat="10.1783793" lon="-75.2942674"><ele>4.0</ele><time>2026-04-18T18:12:18.632Z</time></trkpt><trkpt lat="10.1784646" lon="-75.2942994"><ele>4.166666666666666</ele><time>2026-04-18T18:12:19.63Z</time></trkpt><trkpt lat="10.1785456" lon="-75.2943342"><ele>4.333333333333333</ele><time>2026-04-18T18:12:20.631Z</time></trkpt><trkpt lat="10.1786266" lon="-75.2943676"><ele>4.5</ele><time>2026-04-18T18:12:21.635Z</time></trkpt><trkpt lat="10.1787052" lon="-75.2944003"><ele>4.666666666666667</ele><time>2026-04-18T18:12:22.633Z</time></trkpt><trkpt lat="10.1787847" lon="-75.29444"><ele>4.833333333333334</ele><time>2026-04-18T18:12:23.633Z</time></trkpt><trkpt lat="10.1788631" lon="-75.2944765"><ele>5.0</ele><time>2026-04-18T18:12:24.629Z</time></trkpt><trkpt lat="10.1789395" lon="-75.2945186"><ele>4.833333333333334</ele><time>2026-04-18T18:12:25.629Z</time></trkpt><trkpt lat="10.1790182" lon="-75.2945573"><ele>4.666666666666667</ele><time>2026-04-18T18:12:26.634Z</time></trkpt><trkpt lat="10.179093" lon="-75.2945961"><ele>4.5</ele><time>2026-04-18T18:12:27.632Z</time></trkpt><trkpt lat="10.1791718" lon="-75.2946412"><ele>4.333333333333333</ele><time>2026-04-18T18:12:28.631Z</time></trkpt><trkpt lat="10.1792489" lon="-75.2946905"><ele>4.166666666666666</ele><time>2026-04-18T18:12:29.637Z</time></trkpt><trkpt lat="10.1793266" lon="-75.2947415"><ele>4.0</ele><time>2026-04-18T18:12:30.631Z</time></trkpt><trkpt lat="10.1794026" lon="-75.294785"><ele>3.9999999999999996</ele><time>2026-04-18T18:12:31.637Z</time></trkpt><trkpt lat="10.1794762" lon="-75.2948379"><ele>4.0</ele><time>2026-04-18T18:12:32.633Z</time></trkpt><trkpt lat="10.1795514" lon="-75.2948856"><ele>4.0</ele><time>2026-04-18T18:12:33.632Z</time></trkpt><trkpt lat="10.1796246" lon="-75.2949371"><ele>4.0</ele><time>2026-04-18T18:12:34.633Z</time></trkpt><trkpt lat="10.1796929" lon="-75.2949873"><ele>3.9999999999999996</ele><time>2026-04-18T18:12:35.635Z</time></trkpt><trkpt lat="10.1797631" lon="-75.295041"><ele>4.0</ele><time>2026-04-18T18:12:36.632Z</time></trkpt><trkpt lat="10.1798274" lon="-75.2950982"><ele>4.333333333333333</ele><time>2026-04-18T18:12:37.634Z</time></trkpt><trkpt lat="10.1798957" lon="-75.2951501"><ele>4.666666666666666</ele><time>2026-04-18T18:12:38.634Z</time></trkpt><trkpt lat="10.1799624" lon="-75.2952062"><ele>5.0</ele><time>2026-04-18T18:12:39.633Z</time></trkpt><trkpt lat="10.1800295" lon="-75.2952667"><ele>5.333333333333333</ele><time>2026-04-18T18:12:40.637Z</time></trkpt><trkpt lat="10.1800936" lon="-75.2953287"><ele>5.666666666666667</ele><time>2026-04-18T18:12:41.634Z</time></trkpt><trkpt lat="10.1801589" lon="-75.2953838"><ele>6.0</ele><time>2026-04-18T18:12:42.632Z</time></trkpt><trkpt lat="10.1802247" lon="-75.2954452"><ele>6.0</ele><time>2026-04-18T18:12:43.63Z</time></trkpt><trkpt lat="10.180292" lon="-75.2955038"><ele>6.0</ele><time>2026-04-18T18:12:44.634Z</time></trkpt><trkpt lat="10.1803576" lon="-75.2955667"><ele>6.0</ele><time>2026-04-18T18:12:45.631Z</time></trkpt><trkpt lat="10.1804252" lon="-75.2956304"><ele>6.0</ele><time>2026-04-18T18:12:46.634Z</time></trkpt><trkpt lat="10.1804881" lon="-75.2956977"><ele>6.0</ele><time>2026-04-18T18:12:47.637Z</time></trkpt><trkpt lat="10.1805588" lon="-75.2957596"><ele>5.833333333333333</ele><time>2026-04-18T18:12:48.633Z</time></trkpt><trkpt lat="10.1806181" lon="-75.2958251"><ele>5.666666666666667</ele><time>2026-04-18T18:12:49.633Z</time></trkpt><trkpt lat="10.180685" lon="-75.2958875"><ele>5.5</ele><time>2026-04-18T18:12:50.634Z</time></trkpt><trkpt lat="10.180751" lon="-75.2959475"><ele>5.333333333333334</ele><time>2026-04-18T18:12:51.633Z</time></trkpt><trkpt lat="10.1808168" lon="-75.2960053"><ele>5.166666666666667</ele><time>2026-04-18T18:12:52.632Z</time></trkpt><trkpt lat="10.1808754" lon="-75.2960657"><ele>5.0</ele><time>2026-04-18T18:12:53.628Z</time></trkpt><trkpt lat="10.1809349" lon="-75.2961245"><ele>4.666666666666667</ele><time>2026-04-18T18:12:54.637Z</time></trkpt><trkpt lat="10.1809922" lon="-75.2961896"><ele>4.333333333333334</ele><time>2026-04-18T18:12:55.629Z</time></trkpt><trkpt lat="10.181053" lon="-75.2962469"><ele>4.0</ele><time>2026-04-18T18:12:56.637Z</time></trkpt><trkpt lat="10.1811108" lon="-75.2963004"><ele>3.666666666666667</ele><time>2026-04-18T18:12:57.633Z</time></trkpt><trkpt lat="10.1811718" lon="-75.2963561"><ele>3.3333333333333335</ele><time>2026-04-18T18:12:58.633Z</time></trkpt><trkpt lat="10.1812336" lon="-75.2964138"><ele>3.0</ele><time>2026-04-18T18:12:59.633Z</time></trkpt><trkpt lat="10.1812955" lon="-75.296473"><ele>3.0</ele><time>2026-04-18T18:13:00.631Z</time></trkpt><trkpt lat="10.1813559" lon="-75.2965334"><ele>3.0</ele><time>2026-04-18T18:13:01.633Z</time></trkpt><trkpt lat="10.18142" lon="-75.2965914"><ele>3.0</ele><time>2026-04-18T18:13:02.637Z</time></trkpt><trkpt lat="10.1814834" lon="-75.2966495"><ele>3.0</ele><time>2026-04-18T18:13:03.634Z</time></trkpt><trkpt lat="10.1815454" lon="-75.2967071"><ele>3.0</ele><time>2026-04-18T18:13:04.635Z</time></trkpt><trkpt lat="10.1816082" lon="-75.2967659"><ele>3.0</ele><time>2026-04-18T18:13:05.633Z</time></trkpt><trkpt lat="10.1816717" lon="-75.2968238"><ele>3.0</ele><time>2026-04-18T18:13:06.632Z</time></trkpt><trkpt lat="10.1817391" lon="-75.2968867"><ele>3.0</ele><time>2026-04-18T18:13:07.631Z</time></trkpt><trkpt lat="10.1818093" lon="-75.2969489"><ele>3.0</ele><time>2026-04-18T18:13:08.633Z</time></trkpt><trkpt lat="10.1818767" lon="-75.2970111"><ele>3.0</ele><time>2026-04-18T18:13:09.634Z</time></trkpt><trkpt lat="10.1819463" lon="-75.297079"><ele>3.0</ele><time>2026-04-18T18:13:10.631Z</time></trkpt><trkpt lat="10.1820145" lon="-75.2971493"><ele>3.0</ele><time>2026-04-18T18:13:11.638Z</time></trkpt><trkpt lat="10.1820888" lon="-75.2972222"><ele>3.0</ele><time>2026-04-18T18:13:12.632Z</time></trkpt><trkpt lat="10.182172" lon="-75.2972911"><ele>3.0</ele><time>2026-04-18T18:13:13.634Z</time></trkpt><trkpt lat="10.1822495" lon="-75.2973557"><ele>3.0</ele><time>2026-04-18T18:13:14.631Z</time></trkpt><trkpt lat="10.1823219" lon="-75.2974232"><ele>3.0</ele><time>2026-04-18T18:13:15.635Z</time></trkpt><trkpt lat="10.1823914" lon="-75.2974873"><ele>3.1666666666666665</ele><time>2026-04-18T18:13:16.632Z</time></trkpt><trkpt lat="10.1824566" lon="-75.2975526"><ele>3.333333333333333</ele><time>2026-04-18T18:13:17.633Z</time></trkpt><trkpt lat="10.1825222" lon="-75.2976161"><ele>3.5</ele><time>2026-04-18T18:13:18.63Z</time></trkpt><trkpt lat="10.1825894" lon="-75.2976774"><ele>3.6666666666666665</ele><time>2026-04-18T18:13:19.633Z</time></trkpt><trkpt lat="10.1826548" lon="-75.2977368"><ele>3.833333333333333</ele><time>2026-04-18T18:13:20.632Z</time></trkpt><trkpt lat="10.1827165" lon="-75.2977909"><ele>4.0</ele><time>2026-04-18T18:13:21.636Z</time></trkpt><trkpt lat="10.1827787" lon="-75.2978506"><ele>3.9999999999999996</ele><time>2026-04-18T18:13:22.633Z</time></trkpt><trkpt lat="10.1828413" lon="-75.2979012"><ele>4.0</ele><time>2026-04-18T18:13:23.633Z</time></trkpt><trkpt lat="10.1829065" lon="-75.297958"><ele>4.0</ele><time>2026-04-18T18:13:24.635Z</time></trkpt><trkpt lat="10.1829693" lon="-75.2980245"><ele>4.0</ele><time>2026-04-18T18:13:25.634Z</time></trkpt><trkpt lat="10.1830343" lon="-75.2980825"><ele>3.9999999999999996</ele><time>2026-04-18T18:13:26.633Z</time></trkpt><trkpt lat="10.1830974" lon="-75.2981406"><ele>4.0</ele><time>2026-04-18T18:13:27.633Z</time></trkpt><trkpt lat="10.1831609" lon="-75.2981982"><ele>3.9999999999999996</ele><time>2026-04-18T18:13:28.631Z</time></trkpt><trkpt lat="10.1832215" lon="-75.2982567"><ele>4.0</ele><time>2026-04-18T18:13:29.634Z</time></trkpt><trkpt lat="10.1832826" lon="-75.2983125"><ele>4.0</ele><time>2026-04-18T18:13:30.632Z</time></trkpt><trkpt lat="10.183347" lon="-75.2983699"><ele>4.0</ele><time>2026-04-18T18:13:31.635Z</time></trkpt><trkpt lat="10.1834089" lon="-75.298428"><ele>3.9999999999999996</ele><time>2026-04-18T18:13:32.633Z</time></trkpt><trkpt lat="10.1834684" lon="-75.2984881"><ele>4.0</ele><time>2026-04-18T18:13:33.632Z</time></trkpt><trkpt lat="10.1835301" lon="-75.298547"><ele>3.9999999999999996</ele><time>2026-04-18T18:13:34.634Z</time></trkpt><trkpt lat="10.1835963" lon="-75.298607"><ele>4.0</ele><time>2026-04-18T18:13:35.633Z</time></trkpt><trkpt lat="10.1836661" lon="-75.2986688"><ele>4.0</ele><time>2026-04-18T18:13:36.632Z</time></trkpt><trkpt lat="10.1837355" lon="-75.2987295"><ele>4.0</ele><time>2026-04-18T18:13:37.632Z</time></trkpt><trkpt lat="10.1838016" lon="-75.2987874"><ele>3.9999999999999996</ele><time>2026-04-18T18:13:38.637Z</time></trkpt><trkpt lat="10.1838693" lon="-75.2988454"><ele>4.0</ele><time>2026-04-18T18:13:39.636Z</time></trkpt><trkpt lat="10.1839335" lon="-75.2989015"><ele>3.9999999999999996</ele><time>2026-04-18T18:13:40.631Z</time></trkpt><trkpt lat="10.1839978" lon="-75.2989525"><ele>4.0</ele><time>2026-04-18T18:13:41.633Z</time></trkpt><trkpt lat="10.1840531" lon="-75.2990086"><ele>4.0</ele><time>2026-04-18T18:13:42.639Z</time></trkpt><trkpt lat="10.18411" lon="-75.2990623"><ele>4.0</ele><time>2026-04-18T18:13:43.633Z</time></trkpt><trkpt lat="10.1841659" lon="-75.2991033"><ele>3.9999999999999996</ele><time>2026-04-18T18:13:44.631Z</time></trkpt><trkpt lat="10.1842267" lon="-75.2991593"><ele>4.0</ele><time>2026-04-18T18:13:45.637Z</time></trkpt><trkpt lat="10.1842873" lon="-75.2992131"><ele>3.9999999999999996</ele><time>2026-04-18T18:13:46.635Z</time></trkpt><trkpt lat="10.184349" lon="-75.2992659"><ele>4.0</ele><time>2026-04-18T18:13:47.634Z</time></trkpt><trkpt lat="10.1844101" lon="-75.2993222"><ele>4.0</ele><time>2026-04-18T18:13:48.638Z</time></trkpt><trkpt lat="10.1844738" lon="-75.2993841"><ele>4.0</ele><time>2026-04-18T18:13:49.634Z</time></trkpt><trkpt lat="10.1845361" lon="-75.2994443"><ele>3.9999999999999996</ele><time>2026-04-18T18:13:50.631Z</time></trkpt><trkpt lat="10.184602" lon="-75.2995027"><ele>4.0</ele><time>2026-04-18T18:13:51.632Z</time></trkpt><trkpt lat="10.1846688" lon="-75.2995676"><ele>3.9999999999999996</ele><time>2026-04-18T18:13:52.635Z</time></trkpt><trkpt lat="10.1847353" lon="-75.2996241"><ele>4.0</ele><time>2026-04-18T18:13:53.635Z</time></trkpt><trkpt lat="10.1848034" lon="-75.2996868"><ele>4.0</ele><time>2026-04-18T18:13:54.628Z</time></trkpt><trkpt lat="10.1848666" lon="-75.2997466"><ele>4.0</ele><time>2026-04-18T18:13:55.634Z</time></trkpt><trkpt lat="10.1849304" lon="-75.2998032"><ele>3.9999999999999996</ele><time>2026-04-18T18:13:56.636Z</time></trkpt><trkpt lat="10.1849915" lon="-75.2998626"><ele>4.0</ele><time>2026-04-18T18:13:57.635Z</time></trkpt><trkpt lat="10.1850558" lon="-75.2999181"><ele>4.166666666666666</ele><time>2026-04-18T18:13:58.635Z</time></trkpt><trkpt lat="10.1851207" lon="-75.2999703"><ele>4.333333333333333</ele><time>2026-04-18T18:13:59.639Z</time></trkpt><trkpt lat="10.1851806" lon="-75.3000341"><ele>4.5</ele><time>2026-04-18T18:14:00.639Z</time></trkpt><trkpt lat="10.1852468" lon="-75.3000938"><ele>4.666666666666667</ele><time>2026-04-18T18:14:01.631Z</time></trkpt><trkpt lat="10.1853152" lon="-75.3001532"><ele>4.833333333333334</ele><time>2026-04-18T18:14:02.628Z</time></trkpt><trkpt lat="10.1853852" lon="-75.3002153"><ele>5.0</ele><time>2026-04-18T18:14:03.633Z</time></trkpt><trkpt lat="10.1854586" lon="-75.300277"><ele>5.0</ele><time>2026-04-18T18:14:04.635Z</time></trkpt><trkpt lat="10.185532" lon="-75.3003405"><ele>5.0</ele><time>2026-04-18T18:14:05.633Z</time></trkpt><trkpt lat="10.1856042" lon="-75.300406"><ele>5.0</ele><time>2026-04-18T18:14:06.633Z</time></trkpt><trkpt lat="10.1856747" lon="-75.300473"><ele>5.0</ele><time>2026-04-18T18:14:07.636Z</time></trkpt><trkpt lat="10.185744" lon="-75.3005414"><ele>5.0</ele><time>2026-04-18T18:14:08.628Z</time></trkpt><trkpt lat="10.185813" lon="-75.3006065"><ele>4.6</ele><time>2026-04-18T18:14:09.63Z</time></trkpt><trkpt lat="10.1858823" lon="-75.30067"><ele>4.2</ele><time>2026-04-18T18:14:10.628Z</time></trkpt><trkpt lat="10.1859525" lon="-75.3007354"><ele>3.8</ele><time>2026-04-18T18:14:11.642Z</time></trkpt><trkpt lat="10.1860195" lon="-75.3007979"><ele>3.4</ele><time>2026-04-18T18:14:12.635Z</time></trkpt><trkpt lat="10.186083" lon="-75.3008567"><ele>3.0</ele><time>2026-04-18T18:14:13.633Z</time></trkpt><trkpt lat="10.1861474" lon="-75.3009166"><ele>3.0</ele><time>2026-04-18T18:14:14.631Z</time></trkpt><trkpt lat="10.1862156" lon="-75.3009766"><ele>3.0</ele><time>2026-04-18T18:14:15.638Z</time></trkpt><trkpt lat="10.1862874" lon="-75.3010371"><ele>3.0</ele><time>2026-04-18T18:14:16.638Z</time></trkpt><trkpt lat="10.1863599" lon="-75.3010999"><ele>3.0</ele><time>2026-04-18T18:14:17.641Z</time></trkpt><trkpt lat="10.1864263" lon="-75.301163"><ele>3.0</ele><time>2026-04-18T18:14:18.64Z</time></trkpt><trkpt lat="10.1864946" lon="-75.3012264"><ele>3.4</ele><time>2026-04-18T18:14:19.644Z</time></trkpt><trkpt lat="10.1865582" lon="-75.30129"><ele>3.8</ele><time>2026-04-18T18:14:20.635Z</time></trkpt><trkpt lat="10.1866325" lon="-75.3013508"><ele>4.2</ele><time>2026-04-18T18:14:21.631Z</time></trkpt><trkpt lat="10.1866981" lon="-75.3014179"><ele>4.6</ele><time>2026-04-18T18:14:22.635Z</time></trkpt><trkpt lat="10.1867657" lon="-75.3014808"><ele>5.0</ele><time>2026-04-18T18:14:23.633Z</time></trkpt><trkpt lat="10.1868337" lon="-75.301538"><ele>5.2</ele><time>2026-04-18T18:14:24.638Z</time></trkpt><trkpt lat="10.1869014" lon="-75.3015995"><ele>5.4</ele><time>2026-04-18T18:14:25.634Z</time></trkpt><trkpt lat="10.1869698" lon="-75.301662"><ele>5.6</ele><time>2026-04-18T18:14:26.631Z</time></trkpt><trkpt lat="10.1870444" lon="-75.3017226"><ele>5.8</ele><time>2026-04-18T18:14:27.632Z</time></trkpt><trkpt lat="10.1871219" lon="-75.3017746"><ele>6.0</ele><time>2026-04-18T18:14:28.632Z</time></trkpt><trkpt lat="10.1871885" lon="-75.3018291"><ele>6.0</ele><time>2026-04-18T18:14:29.632Z</time></trkpt><trkpt lat="10.1872623" lon="-75.3018801"><ele>6.0</ele><time>2026-04-18T18:14:30.634Z</time></trkpt><trkpt lat="10.187338" lon="-75.3019258"><ele>6.0</ele><time>2026-04-18T18:14:31.63Z</time></trkpt><trkpt lat="10.1874157" lon="-75.3019717"><ele>6.0</ele><time>2026-04-18T18:14:32.63Z</time></trkpt><trkpt lat="10.1874991" lon="-75.3020131"><ele>6.0</ele><time>2026-04-18T18:14:33.629Z</time></trkpt><trkpt lat="10.1875835" lon="-75.3020429"><ele>6.0</ele><time>2026-04-18T18:14:34.631Z</time></trkpt><trkpt lat="10.1876709" lon="-75.3020704"><ele>6.0</ele><time>2026-04-18T18:14:35.632Z</time></trkpt><trkpt lat="10.1877584" lon="-75.3020869"><ele>6.0</ele><time>2026-04-18T18:14:36.632Z</time></trkpt><trkpt lat="10.1878459" lon="-75.3021018"><ele>6.0</ele><time>2026-04-18T18:14:37.632Z</time></trkpt><trkpt lat="10.1879309" lon="-75.3021111"><ele>6.0</ele><time>2026-04-18T18:14:38.626Z</time></trkpt><trkpt lat="10.1880148" lon="-75.302119"><ele>6.0</ele><time>2026-04-18T18:14:39.629Z</time></trkpt><trkpt lat="10.1880994" lon="-75.3021256"><ele>6.0</ele><time>2026-04-18T18:14:40.628Z</time></trkpt><trkpt lat="10.1881836" lon="-75.3021356"><ele>6.166666666666667</ele><time>2026-04-18T18:14:41.63Z</time></trkpt><trkpt lat="10.1882714" lon="-75.3021446"><ele>6.333333333333334</ele><time>2026-04-18T18:14:42.628Z</time></trkpt><trkpt lat="10.1883531" lon="-75.3021554"><ele>6.5</ele><time>2026-04-18T18:14:43.632Z</time></trkpt><trkpt lat="10.1884315" lon="-75.3021665"><ele>6.666666666666667</ele><time>2026-04-18T18:14:44.631Z</time></trkpt><trkpt lat="10.1885108" lon="-75.3021824"><ele>6.833333333333334</ele><time>2026-04-18T18:14:45.631Z</time></trkpt><trkpt lat="10.1885872" lon="-75.302205"><ele>7.0</ele><time>2026-04-18T18:14:46.634Z</time></trkpt><trkpt lat="10.1886604" lon="-75.3022329"><ele>7.000000000000001</ele><time>2026-04-18T18:14:47.635Z</time></trkpt><trkpt lat="10.1887319" lon="-75.3022685"><ele>7.0</ele><time>2026-04-18T18:14:48.63Z</time></trkpt><trkpt lat="10.1888002" lon="-75.3023094"><ele>7.0</ele><time>2026-04-18T18:14:49.636Z</time></trkpt><trkpt lat="10.1888653" lon="-75.3023526"><ele>7.0</ele><time>2026-04-18T18:14:50.637Z</time></trkpt><trkpt lat="10.1889236" lon="-75.3023999"><ele>7.000000000000001</ele><time>2026-04-18T18:14:51.633Z</time></trkpt><trkpt lat="10.1889799" lon="-75.3024463"><ele>7.0</ele><time>2026-04-18T18:14:52.634Z</time></trkpt><trkpt lat="10.1890364" lon="-75.3024877"><ele>7.142857142857142</ele><time>2026-04-18T18:14:53.631Z</time></trkpt><trkpt lat="10.1890912" lon="-75.302545"><ele>7.285714285714286</ele><time>2026-04-18T18:14:54.635Z</time></trkpt><trkpt lat="10.1891399" lon="-75.3025969"><ele>7.428571428571429</ele><time>2026-04-18T18:14:55.631Z</time></trkpt><trkpt lat="10.1891824" lon="-75.3026466"><ele>7.571428571428571</ele><time>2026-04-18T18:14:56.633Z</time></trkpt><trkpt lat="10.1892273" lon="-75.302695"><ele>7.7142857142857135</ele><time>2026-04-18T18:14:57.632Z</time></trkpt><trkpt lat="10.1892713" lon="-75.3027432"><ele>7.857142857142857</ele><time>2026-04-18T18:14:58.629Z</time></trkpt><trkpt lat="10.1893186" lon="-75.3027984"><ele>8.0</ele><time>2026-04-18T18:14:59.629Z</time></trkpt><trkpt lat="10.1893561" lon="-75.3028509"><ele>8.0</ele><time>2026-04-18T18:15:00.631Z</time></trkpt><trkpt lat="10.1893935" lon="-75.3029043"><ele>7.999999999999999</ele><time>2026-04-18T18:15:01.628Z</time></trkpt><trkpt lat="10.1894273" lon="-75.3029639"><ele>8.0</ele><time>2026-04-18T18:15:02.633Z</time></trkpt><trkpt lat="10.1894607" lon="-75.3030195"><ele>8.0</ele><time>2026-04-18T18:15:03.632Z</time></trkpt><trkpt lat="10.1894898" lon="-75.3030784"><ele>7.999999999999999</ele><time>2026-04-18T18:15:04.634Z</time></trkpt><trkpt lat="10.1895211" lon="-75.3031387"><ele>8.0</ele><time>2026-04-18T18:15:05.638Z</time></trkpt><trkpt lat="10.1895471" lon="-75.303203"><ele>8.0</ele><time>2026-04-18T18:15:06.633Z</time></trkpt><trkpt lat="10.1895708" lon="-75.3032724"><ele>8.0</ele><time>2026-04-18T18:15:07.634Z</time></trkpt><trkpt lat="10.1895929" lon="-75.303337"><ele>7.999999999999999</ele><time>2026-04-18T18:15:08.629Z</time></trkpt><trkpt lat="10.1896161" lon="-75.3034045"><ele>8.0</ele><time>2026-04-18T18:15:09.635Z</time></trkpt><trkpt lat="10.1896328" lon="-75.3034714"><ele>8.0</ele><time>2026-04-18T18:15:10.633Z</time></trkpt><trkpt lat="10.1896538" lon="-75.303542"><ele>7.999999999999999</ele><time>2026-04-18T18:15:11.638Z</time></trkpt><trkpt lat="10.1896711" lon="-75.3036135"><ele>8.0</ele><time>2026-04-18T18:15:12.635Z</time></trkpt><trkpt lat="10.1896891" lon="-75.3036856"><ele>8.0</ele><time>2026-04-18T18:15:13.632Z</time></trkpt><trkpt lat="10.1897068" lon="-75.3037563"><ele>8.0</ele><time>2026-04-18T18:15:14.63Z</time></trkpt><trkpt lat="10.1897236" lon="-75.3038245"><ele>7.999999999999999</ele><time>2026-04-18T18:15:15.635Z</time></trkpt><trkpt lat="10.1897382" lon="-75.3038908"><ele>8.0</ele><time>2026-04-18T18:15:16.632Z</time></trkpt><trkpt lat="10.1897535" lon="-75.3039577"><ele>8.0</ele><time>2026-04-18T18:15:17.632Z</time></trkpt><trkpt lat="10.1897678" lon="-75.3040212"><ele>7.999999999999999</ele><time>2026-04-18T18:15:18.632Z</time></trkpt><trkpt lat="10.1897817" lon="-75.3040852"><ele>8.0</ele><time>2026-04-18T18:15:19.631Z</time></trkpt><trkpt lat="10.1897995" lon="-75.3041556"><ele>8.0</ele><time>2026-04-18T18:15:20.633Z</time></trkpt><trkpt lat="10.1898172" lon="-75.3042174"><ele>8.0</ele><time>2026-04-18T18:15:21.632Z</time></trkpt><trkpt lat="10.1898346" lon="-75.3042824"><ele>7.999999999999999</ele><time>2026-04-18T18:15:22.63Z</time></trkpt><trkpt lat="10.1898523" lon="-75.3043515"><ele>8.0</ele><time>2026-04-18T18:15:23.632Z</time></trkpt><trkpt lat="10.1898696" lon="-75.3044187"><ele>8.0</ele><time>2026-04-18T18:15:24.631Z</time></trkpt><trkpt lat="10.1898889" lon="-75.3044838"><ele>7.999999999999999</ele><time>2026-04-18T18:15:25.635Z</time></trkpt><trkpt lat="10.1899099" lon="-75.3045599"><ele>8.0</ele><time>2026-04-18T18:15:26.635Z</time></trkpt><trkpt lat="10.1899294" lon="-75.3046388"><ele>8.0</ele><time>2026-04-18T18:15:27.634Z</time></trkpt><trkpt lat="10.1899576" lon="-75.3047303"><ele>8.0</ele><time>2026-04-18T18:15:28.63Z</time></trkpt><trkpt lat="10.189981" lon="-75.3048184"><ele>8.0</ele><time>2026-04-18T18:15:29.629Z</time></trkpt><trkpt lat="10.1900012" lon="-75.3049083"><ele>8.0</ele><time>2026-04-18T18:15:30.633Z</time></trkpt><trkpt lat="10.1900229" lon="-75.3049995"><ele>8.0</ele><time>2026-04-18T18:15:31.632Z</time></trkpt><trkpt lat="10.1900457" lon="-75.3050924"><ele>8.0</ele><time>2026-04-18T18:15:32.633Z</time></trkpt><trkpt lat="10.1900686" lon="-75.305189"><ele>7.999999999999999</ele><time>2026-04-18T18:15:33.631Z</time></trkpt><trkpt lat="10.1900916" lon="-75.3052802"><ele>8.0</ele><time>2026-04-18T18:15:34.631Z</time></trkpt><trkpt lat="10.1901155" lon="-75.3053699"><ele>8.0</ele><time>2026-04-18T18:15:35.633Z</time></trkpt><trkpt lat="10.1901418" lon="-75.3054628"><ele>8.0</ele><time>2026-04-18T18:15:36.632Z</time></trkpt><trkpt lat="10.1901647" lon="-75.3055469"><ele>7.999999999999999</ele><time>2026-04-18T18:15:37.634Z</time></trkpt><trkpt lat="10.190186" lon="-75.3056222"><ele>8.0</ele><time>2026-04-18T18:15:38.632Z</time></trkpt><trkpt lat="10.1902037" lon="-75.3056921"><ele>7.833333333333333</ele><time>2026-04-18T18:15:39.632Z</time></trkpt><trkpt lat="10.1902202" lon="-75.3057605"><ele>7.666666666666666</ele><time>2026-04-18T18:15:40.631Z</time></trkpt><trkpt lat="10.1902474" lon="-75.3058598"><ele>7.5</ele><time>2026-04-18T18:15:42.631Z</time></trkpt><trkpt lat="10.1902703" lon="-75.305932"><ele>7.333333333333334</ele><time>2026-04-18T18:15:44.638Z</time></trkpt><trkpt lat="10.1903036" lon="-75.3060051"><ele>7.166666666666667</ele><time>2026-04-18T18:16:39.63Z</time></trkpt><trkpt lat="10.1903148" lon="-75.3060896"><ele>7.0</ele><time>2026-04-18T18:16:43.631Z</time></trkpt><trkpt lat="10.1903302" lon="-75.3061542"><ele>7.0</ele><time>2026-04-18T18:16:45.641Z</time></trkpt><trkpt lat="10.1903499" lon="-75.3062343"><ele>6.999999999999999</ele><time>2026-04-18T18:16:47.633Z</time></trkpt><trkpt lat="10.1903682" lon="-75.3063281"><ele>6.999999999999999</ele><time>2026-04-18T18:16:49.642Z</time></trkpt><trkpt lat="10.1903996" lon="-75.3064319"><ele>7.0</ele><time>2026-04-18T18:16:51.635Z</time></trkpt><trkpt lat="10.190424" lon="-75.3065441"><ele>7.0</ele><time>2026-04-18T18:16:53.631Z</time></trkpt><trkpt lat="10.1904538" lon="-75.3066568"><ele>7.333333333333334</ele><time>2026-04-18T18:16:55.63Z</time></trkpt><trkpt lat="10.1904824" lon="-75.3067718"><ele>7.666666666666667</ele><time>2026-04-18T18:16:57.629Z</time></trkpt><trkpt lat="10.1905113" lon="-75.3068354"><ele>8.0</ele><time>2026-04-18T18:16:58.627Z</time></trkpt><trkpt lat="10.1905475" lon="-75.306959"><ele>8.333333333333334</ele><time>2026-04-18T18:17:00.63Z</time></trkpt><trkpt lat="10.1905622" lon="-75.3070231"><ele>8.666666666666666</ele><time>2026-04-18T18:17:01.634Z</time></trkpt><trkpt lat="10.1905769" lon="-75.307089"><ele>9.0</ele><time>2026-04-18T18:17:02.634Z</time></trkpt><trkpt lat="10.1906069" lon="-75.3072174"><ele>9.0</ele><time>2026-04-18T18:17:04.634Z</time></trkpt><trkpt lat="10.1906207" lon="-75.3072809"><ele>9.0</ele><time>2026-04-18T18:17:05.636Z</time></trkpt><trkpt lat="10.1906325" lon="-75.3073495"><ele>9.0</ele><time>2026-04-18T18:17:06.633Z</time></trkpt><trkpt lat="10.1906479" lon="-75.3074122"><ele>9.0</ele><time>2026-04-18T18:17:07.635Z</time></trkpt><trkpt lat="10.190664" lon="-75.3074781"><ele>9.0</ele><time>2026-04-18T18:17:08.634Z</time></trkpt><trkpt lat="10.1906939" lon="-75.3076052"><ele>9.0</ele><time>2026-04-18T18:17:10.628Z</time></trkpt><trkpt lat="10.1907142" lon="-75.3076715"><ele>9.000000000000002</ele><time>2026-04-18T18:17:11.629Z</time></trkpt><trkpt lat="10.1907312" lon="-75.3077402"><ele>9.0</ele><time>2026-04-18T18:17:12.63Z</time></trkpt><trkpt lat="10.1907449" lon="-75.3078071"><ele>9.0</ele><time>2026-04-18T18:17:13.63Z</time></trkpt><trkpt lat="10.1907613" lon="-75.3078752"><ele>9.0</ele><time>2026-04-18T18:17:14.631Z</time></trkpt><trkpt lat="10.1907789" lon="-75.3079438"><ele>9.0</ele><time>2026-04-18T18:17:15.63Z</time></trkpt><trkpt lat="10.1907958" lon="-75.3080146"><ele>9.000000000000002</ele><time>2026-04-18T18:17:16.628Z</time></trkpt><trkpt lat="10.190815" lon="-75.3080775"><ele>9.0</ele><time>2026-04-18T18:17:17.631Z</time></trkpt><trkpt lat="10.1908318" lon="-75.3081426"><ele>9.000000000000002</ele><time>2026-04-18T18:17:18.631Z</time></trkpt><trkpt lat="10.1908488" lon="-75.3082059"><ele>9.0</ele><time>2026-04-18T18:17:19.63Z</time></trkpt><trkpt lat="10.1908652" lon="-75.3082711"><ele>9.0</ele><time>2026-04-18T18:17:20.635Z</time></trkpt><trkpt lat="10.190881" lon="-75.3083389"><ele>9.0</ele><time>2026-04-18T18:17:21.632Z</time></trkpt><trkpt lat="10.1908957" lon="-75.3084026"><ele>9.0</ele><time>2026-04-18T18:17:22.634Z</time></trkpt><trkpt lat="10.1909119" lon="-75.3084673"><ele>9.000000000000002</ele><time>2026-04-18T18:17:23.631Z</time></trkpt><trkpt lat="10.1909266" lon="-75.3085357"><ele>9.0</ele><time>2026-04-18T18:17:24.635Z</time></trkpt><trkpt lat="10.190947" lon="-75.3085976"><ele>9.000000000000002</ele><time>2026-04-18T18:17:25.63Z</time></trkpt><trkpt lat="10.1909617" lon="-75.3086613"><ele>9.0</ele><time>2026-04-18T18:17:26.632Z</time></trkpt><trkpt lat="10.19098" lon="-75.3087272"><ele>9.0</ele><time>2026-04-18T18:17:27.629Z</time></trkpt><trkpt lat="10.1909975" lon="-75.3087938"><ele>9.0</ele><time>2026-04-18T18:17:28.631Z</time></trkpt><trkpt lat="10.1910153" lon="-75.3088594"><ele>9.0</ele><time>2026-04-18T18:17:29.634Z</time></trkpt><trkpt lat="10.1910301" lon="-75.3089287"><ele>9.000000000000002</ele><time>2026-04-18T18:17:30.633Z</time></trkpt><trkpt lat="10.1910468" lon="-75.3089928"><ele>9.0</ele><time>2026-04-18T18:17:31.629Z</time></trkpt><trkpt lat="10.1910624" lon="-75.3090609"><ele>9.0</ele><time>2026-04-18T18:17:32.631Z</time></trkpt><trkpt lat="10.191079" lon="-75.30913"><ele>9.0</ele><time>2026-04-18T18:17:33.633Z</time></trkpt><trkpt lat="10.1910957" lon="-75.3091923"><ele>9.0</ele><time>2026-04-18T18:17:34.633Z</time></trkpt><trkpt lat="10.191111" lon="-75.3092579"><ele>9.0</ele><time>2026-04-18T18:17:35.636Z</time></trkpt><trkpt lat="10.1911358" lon="-75.3093856"><ele>9.0</ele><time>2026-04-18T18:17:37.634Z</time></trkpt><trkpt lat="10.1911503" lon="-75.3094493"><ele>9.0</ele><time>2026-04-18T18:17:38.633Z</time></trkpt><trkpt lat="10.1911641" lon="-75.3095163"><ele>9.000000000000002</ele><time>2026-04-18T18:17:39.638Z</time></trkpt><trkpt lat="10.1911801" lon="-75.3095822"><ele>9.0</ele><time>2026-04-18T18:17:40.634Z</time></trkpt><trkpt lat="10.1911964" lon="-75.3096498"><ele>9.0</ele><time>2026-04-18T18:17:41.63Z</time></trkpt><trkpt lat="10.1912097" lon="-75.3097155"><ele>9.0</ele><time>2026-04-18T18:17:42.638Z</time></trkpt><trkpt lat="10.1912222" lon="-75.3097809"><ele>9.0</ele><time>2026-04-18T18:17:43.633Z</time></trkpt><trkpt lat="10.1912385" lon="-75.3098474"><ele>9.000000000000002</ele><time>2026-04-18T18:17:44.629Z</time></trkpt><trkpt lat="10.1912525" lon="-75.3099106"><ele>9.0</ele><time>2026-04-18T18:17:45.631Z</time></trkpt><trkpt lat="10.1912687" lon="-75.3099774"><ele>9.333333333333334</ele><time>2026-04-18T18:17:46.627Z</time></trkpt><trkpt lat="10.1912805" lon="-75.3100417"><ele>9.666666666666666</ele><time>2026-04-18T18:17:47.63Z</time></trkpt><trkpt lat="10.1912927" lon="-75.3101072"><ele>10.0</ele><time>2026-04-18T18:17:48.629Z</time></trkpt><trkpt lat="10.1913248" lon="-75.3102241"><ele>10.333333333333332</ele><time>2026-04-18T18:17:50.632Z</time></trkpt><trkpt lat="10.1913395" lon="-75.3102879"><ele>10.666666666666666</ele><time>2026-04-18T18:17:51.63Z</time></trkpt><trkpt lat="10.1913556" lon="-75.3103509"><ele>11.0</ele><time>2026-04-18T18:17:52.629Z</time></trkpt><trkpt lat="10.1913877" lon="-75.3104699"><ele>11.25</ele><time>2026-04-18T18:17:54.631Z</time></trkpt><trkpt lat="10.1914103" lon="-75.3105853"><ele>11.5</ele><time>2026-04-18T18:17:56.634Z</time></trkpt><trkpt lat="10.1914355" lon="-75.3106994"><ele>11.75</ele><time>2026-04-18T18:17:58.632Z</time></trkpt><trkpt lat="10.1914863" lon="-75.3108097"><ele>12.0</ele><time>2026-04-18T18:18:00.631Z</time></trkpt><trkpt lat="10.1915153" lon="-75.3109238"><ele>12.0</ele><time>2026-04-18T18:18:02.628Z</time></trkpt><trkpt lat="10.1915402" lon="-75.3110325"><ele>12.0</ele><time>2026-04-18T18:18:04.632Z</time></trkpt><trkpt lat="10.1915696" lon="-75.3111455"><ele>12.0</ele><time>2026-04-18T18:18:06.635Z</time></trkpt><trkpt lat="10.1915854" lon="-75.3112096"><ele>12.0</ele><time>2026-04-18T18:18:07.637Z</time></trkpt><trkpt lat="10.1915991" lon="-75.3112826"><ele>12.0</ele><time>2026-04-18T18:18:08.632Z</time></trkpt><trkpt lat="10.1916173" lon="-75.3113566"><ele>12.0</ele><time>2026-04-18T18:18:09.632Z</time></trkpt><trkpt lat="10.1916354" lon="-75.3114345"><ele>12.166666666666666</ele><time>2026-04-18T18:18:10.631Z</time></trkpt><trkpt lat="10.1916546" lon="-75.3115142"><ele>12.333333333333332</ele><time>2026-04-18T18:18:11.632Z</time></trkpt><trkpt lat="10.191676" lon="-75.3115971"><ele>12.5</ele><time>2026-04-18T18:18:12.629Z</time></trkpt><trkpt lat="10.1916963" lon="-75.3116831"><ele>12.666666666666666</ele><time>2026-04-18T18:18:13.635Z</time></trkpt><trkpt lat="10.1917186" lon="-75.3117653"><ele>12.833333333333332</ele><time>2026-04-18T18:18:14.635Z</time></trkpt><trkpt lat="10.1917428" lon="-75.3118507"><ele>13.0</ele><time>2026-04-18T18:18:15.629Z</time></trkpt><trkpt lat="10.1917626" lon="-75.3119368"><ele>12.999999999999998</ele><time>2026-04-18T18:18:16.632Z</time></trkpt><trkpt lat="10.1917806" lon="-75.3120171"><ele>13.0</ele><time>2026-04-18T18:18:17.632Z</time></trkpt><trkpt lat="10.1917966" lon="-75.3120963"><ele>13.0</ele><time>2026-04-18T18:18:18.631Z</time></trkpt><trkpt lat="10.1918141" lon="-75.3121776"><ele>13.0</ele><time>2026-04-18T18:18:19.629Z</time></trkpt><trkpt lat="10.191835" lon="-75.3122586"><ele>12.999999999999998</ele><time>2026-04-18T18:18:20.627Z</time></trkpt><trkpt lat="10.1918592" lon="-75.3123335"><ele>13.0</ele><time>2026-04-18T18:18:21.63Z</time></trkpt><trkpt lat="10.1918812" lon="-75.3124081"><ele>13.166666666666666</ele><time>2026-04-18T18:18:22.632Z</time></trkpt><trkpt lat="10.1918981" lon="-75.3124763"><ele>13.333333333333332</ele><time>2026-04-18T18:18:23.631Z</time></trkpt><trkpt lat="10.1919136" lon="-75.3125418"><ele>13.5</ele><time>2026-04-18T18:18:24.631Z</time></trkpt><trkpt lat="10.1919419" lon="-75.3126263"><ele>13.666666666666668</ele><time>2026-04-18T18:18:26.631Z</time></trkpt><trkpt lat="10.1918991" lon="-75.3126768"><ele>13.833333333333334</ele><time>2026-04-18T18:23:33.629Z</time></trkpt><trkpt lat="10.1919304" lon="-75.3127542"><ele>14.0</ele><time>2026-04-18T18:23:37.631Z</time></trkpt><trkpt lat="10.1919535" lon="-75.3128397"><ele>14.000000000000002</ele><time>2026-04-18T18:23:40.63Z</time></trkpt><trkpt lat="10.1920033" lon="-75.3128996"><ele>14.0</ele><time>2026-04-18T18:23:42.627Z</time></trkpt><trkpt lat="10.1920363" lon="-75.3129736"><ele>14.0</ele><time>2026-04-18T18:23:44.626Z</time></trkpt><trkpt lat="10.1920575" lon="-75.3130525"><ele>14.0</ele><time>2026-04-18T18:23:46.629Z</time></trkpt><trkpt lat="10.192068" lon="-75.3131307"><ele>14.000000000000002</ele><time>2026-04-18T18:23:48.625Z</time></trkpt><trkpt lat="10.1920903" lon="-75.3132047"><ele>14.0</ele><time>2026-04-18T18:23:50.631Z</time></trkpt><trkpt lat="10.1921119" lon="-75.313279"><ele>14.333333333333334</ele><time>2026-04-18T18:23:52.639Z</time></trkpt><trkpt lat="10.1921312" lon="-75.313351"><ele>14.666666666666668</ele><time>2026-04-18T18:23:54.628Z</time></trkpt><trkpt lat="10.1921467" lon="-75.3134291"><ele>15.0</ele><time>2026-04-18T18:23:56.625Z</time></trkpt><trkpt lat="10.1921645" lon="-75.3135124"><ele>15.333333333333332</ele><time>2026-04-18T18:23:58.631Z</time></trkpt><trkpt lat="10.1921785" lon="-75.3135971"><ele>15.666666666666666</ele><time>2026-04-18T18:24:00.623Z</time></trkpt><trkpt lat="10.1922032" lon="-75.3136791"><ele>16.0</ele><time>2026-04-18T18:24:02.628Z</time></trkpt><trkpt lat="10.1922269" lon="-75.313769"><ele>16.0</ele><time>2026-04-18T18:24:04.627Z</time></trkpt><trkpt lat="10.1922501" lon="-75.3138679"><ele>16.0</ele><time>2026-04-18T18:24:06.632Z</time></trkpt><trkpt lat="10.192275" lon="-75.3139661"><ele>16.0</ele><time>2026-04-18T18:24:08.626Z</time></trkpt><trkpt lat="10.1922997" lon="-75.3140668"><ele>16.0</ele><time>2026-04-18T18:24:10.634Z</time></trkpt><trkpt lat="10.1923241" lon="-75.3141742"><ele>16.0</ele><time>2026-04-18T18:24:12.627Z</time></trkpt><trkpt lat="10.1923519" lon="-75.3142822"><ele>15.8</ele><time>2026-04-18T18:24:14.634Z</time></trkpt><trkpt lat="10.1923764" lon="-75.3143914"><ele>15.600000000000001</ele><time>2026-04-18T18:24:16.638Z</time></trkpt><trkpt lat="10.1923983" lon="-75.3144969"><ele>15.4</ele><time>2026-04-18T18:24:18.634Z</time></trkpt><trkpt lat="10.192418" lon="-75.314625"><ele>15.2</ele><time>2026-04-18T18:24:20.63Z</time></trkpt><trkpt lat="10.1924441" lon="-75.3147267"><ele>15.0</ele><time>2026-04-18T18:24:22.632Z</time></trkpt><trkpt lat="10.1924723" lon="-75.3148307"><ele>15.0</ele><time>2026-04-18T18:24:24.631Z</time></trkpt><trkpt lat="10.1924975" lon="-75.3149417"><ele>15.0</ele><time>2026-04-18T18:24:26.634Z</time></trkpt><trkpt lat="10.192526" lon="-75.3150497"><ele>15.0</ele><time>2026-04-18T18:24:28.633Z</time></trkpt><trkpt lat="10.1925498" lon="-75.3151593"><ele>15.0</ele><time>2026-04-18T18:24:30.631Z</time></trkpt><trkpt lat="10.1925774" lon="-75.3152771"><ele>15.0</ele><time>2026-04-18T18:24:32.632Z</time></trkpt><trkpt lat="10.1926044" lon="-75.3153876"><ele>15.0</ele><time>2026-04-18T18:24:34.631Z</time></trkpt><trkpt lat="10.1926301" lon="-75.3155098"><ele>15.0</ele><time>2026-04-18T18:24:36.629Z</time></trkpt><trkpt lat="10.1926622" lon="-75.315623"><ele>15.0</ele><time>2026-04-18T18:24:38.633Z</time></trkpt><trkpt lat="10.1926928" lon="-75.3157422"><ele>15.333333333333334</ele><time>2026-04-18T18:24:40.629Z</time></trkpt><trkpt lat="10.1927219" lon="-75.315862"><ele>15.666666666666668</ele><time>2026-04-18T18:24:42.63Z</time></trkpt><trkpt lat="10.1927472" lon="-75.315921"><ele>16.0</ele><time>2026-04-18T18:24:43.627Z</time></trkpt><trkpt lat="10.1927808" lon="-75.3160453"><ele>16.333333333333336</ele><time>2026-04-18T18:24:45.628Z</time></trkpt><trkpt lat="10.192795" lon="-75.3161086"><ele>16.666666666666668</ele><time>2026-04-18T18:24:46.639Z</time></trkpt><trkpt lat="10.1928139" lon="-75.316174"><ele>17.0</ele><time>2026-04-18T18:24:47.63Z</time></trkpt><trkpt lat="10.1928307" lon="-75.3162376"><ele>17.0</ele><time>2026-04-18T18:24:48.631Z</time></trkpt><trkpt lat="10.1928592" lon="-75.3163615"><ele>17.0</ele><time>2026-04-18T18:24:50.627Z</time></trkpt><trkpt lat="10.1928729" lon="-75.3164285"><ele>17.0</ele><time>2026-04-18T18:24:51.626Z</time></trkpt><trkpt lat="10.192886" lon="-75.3164978"><ele>17.0</ele><time>2026-04-18T18:24:52.63Z</time></trkpt><trkpt lat="10.192897" lon="-75.3165712"><ele>17.0</ele><time>2026-04-18T18:24:53.626Z</time></trkpt><trkpt lat="10.1929135" lon="-75.3166345"><ele>17.0</ele><time>2026-04-18T18:24:54.63Z</time></trkpt><trkpt lat="10.1929301" lon="-75.3167005"><ele>17.142857142857142</ele><time>2026-04-18T18:24:55.63Z</time></trkpt><trkpt lat="10.1929453" lon="-75.316768"><ele>17.285714285714285</ele><time>2026-04-18T18:24:56.631Z</time></trkpt><trkpt lat="10.1929598" lon="-75.3168346"><ele>17.42857142857143</ele><time>2026-04-18T18:24:57.633Z</time></trkpt><trkpt lat="10.1929683" lon="-75.316902"><ele>17.57142857142857</ele><time>2026-04-18T18:24:58.632Z</time></trkpt><trkpt lat="10.192982" lon="-75.3169716"><ele>17.714285714285715</ele><time>2026-04-18T18:24:59.631Z</time></trkpt><trkpt lat="10.1929978" lon="-75.3170395"><ele>17.857142857142858</ele><time>2026-04-18T18:25:00.63Z</time></trkpt><trkpt lat="10.193012" lon="-75.3171088"><ele>18.0</ele><time>2026-04-18T18:25:01.633Z</time></trkpt><trkpt lat="10.1930273" lon="-75.3171718"><ele>18.000000000000004</ele><time>2026-04-18T18:25:02.627Z</time></trkpt><trkpt lat="10.1930425" lon="-75.3172384"><ele>18.0</ele><time>2026-04-18T18:25:03.631Z</time></trkpt><trkpt lat="10.1930625" lon="-75.3173079"><ele>18.0</ele><time>2026-04-18T18:25:04.63Z</time></trkpt><trkpt lat="10.1930859" lon="-75.3173727"><ele>18.0</ele><time>2026-04-18T18:25:05.634Z</time></trkpt><trkpt lat="10.1931093" lon="-75.3174369"><ele>18.0</ele><time>2026-04-18T18:25:06.633Z</time></trkpt><trkpt lat="10.1931247" lon="-75.3175099"><ele>18.000000000000004</ele><time>2026-04-18T18:25:07.629Z</time></trkpt><trkpt lat="10.1931402" lon="-75.3175799"><ele>18.0</ele><time>2026-04-18T18:25:08.63Z</time></trkpt><trkpt lat="10.1931562" lon="-75.3176479"><ele>18.42857142857143</ele><time>2026-04-18T18:25:09.629Z</time></trkpt><trkpt lat="10.193174" lon="-75.3177184"><ele>18.857142857142858</ele><time>2026-04-18T18:25:10.63Z</time></trkpt><trkpt lat="10.1931937" lon="-75.3177872"><ele>19.285714285714285</ele><time>2026-04-18T18:25:11.631Z</time></trkpt><trkpt lat="10.1932114" lon="-75.3178571"><ele>19.714285714285715</ele><time>2026-04-18T18:25:12.632Z</time></trkpt><trkpt lat="10.1932288" lon="-75.3179302"><ele>20.142857142857142</ele><time>2026-04-18T18:25:13.632Z</time></trkpt><trkpt lat="10.1932466" lon="-75.3180022"><ele>20.571428571428573</ele><time>2026-04-18T18:25:14.633Z</time></trkpt><trkpt lat="10.193263" lon="-75.318072"><ele>21.0</ele><time>2026-04-18T18:25:15.629Z</time></trkpt><trkpt lat="10.1932796" lon="-75.3181429"><ele>21.0</ele><time>2026-04-18T18:25:16.631Z</time></trkpt><trkpt lat="10.1932995" lon="-75.3182186"><ele>21.0</ele><time>2026-04-18T18:25:17.631Z</time></trkpt><trkpt lat="10.1933139" lon="-75.3182925"><ele>21.0</ele><time>2026-04-18T18:25:18.634Z</time></trkpt><trkpt lat="10.1933286" lon="-75.3183625"><ele>21.0</ele><time>2026-04-18T18:25:19.632Z</time></trkpt><trkpt lat="10.1933457" lon="-75.3184312"><ele>21.0</ele><time>2026-04-18T18:25:20.63Z</time></trkpt><trkpt lat="10.1933632" lon="-75.3185034"><ele>21.0</ele><time>2026-04-18T18:25:21.631Z</time></trkpt><trkpt lat="10.1934007" lon="-75.318575"><ele>21.0</ele><time>2026-04-18T18:25:22.633Z</time></trkpt><trkpt lat="10.1934182" lon="-75.3186449"><ele>21.0</ele><time>2026-04-18T18:25:23.63Z</time></trkpt><trkpt lat="10.1934325" lon="-75.3187153"><ele>21.0</ele><time>2026-04-18T18:25:24.629Z</time></trkpt><trkpt lat="10.1934476" lon="-75.3187878"><ele>21.0</ele><time>2026-04-18T18:25:25.631Z</time></trkpt><trkpt lat="10.1934655" lon="-75.3188604"><ele>21.0</ele><time>2026-04-18T18:25:26.629Z</time></trkpt><trkpt lat="10.1934851" lon="-75.3189279"><ele>21.0</ele><time>2026-04-18T18:25:27.631Z</time></trkpt><trkpt lat="10.1935038" lon="-75.3189979"><ele>21.0</ele><time>2026-04-18T18:25:28.631Z</time></trkpt><trkpt lat="10.1935202" lon="-75.3190708"><ele>21.0</ele><time>2026-04-18T18:25:29.63Z</time></trkpt><trkpt lat="10.1935372" lon="-75.3191406"><ele>21.0</ele><time>2026-04-18T18:25:30.632Z</time></trkpt><trkpt lat="10.1935523" lon="-75.3192094"><ele>21.0</ele><time>2026-04-18T18:25:31.632Z</time></trkpt><trkpt lat="10.1935716" lon="-75.3192769"><ele>21.0</ele><time>2026-04-18T18:25:32.637Z</time></trkpt><trkpt lat="10.1935876" lon="-75.3193471"><ele>21.0</ele><time>2026-04-18T18:25:33.631Z</time></trkpt><trkpt lat="10.1936033" lon="-75.3194122"><ele>21.0</ele><time>2026-04-18T18:25:34.63Z</time></trkpt><trkpt lat="10.1936168" lon="-75.3194825"><ele>21.0</ele><time>2026-04-18T18:25:35.63Z</time></trkpt><trkpt lat="10.1936346" lon="-75.319555"><ele>21.0</ele><time>2026-04-18T18:25:36.63Z</time></trkpt><trkpt lat="10.1936519" lon="-75.3196218"><ele>21.0</ele><time>2026-04-18T18:25:37.631Z</time></trkpt><trkpt lat="10.1936666" lon="-75.3196894"><ele>21.0</ele><time>2026-04-18T18:25:38.634Z</time></trkpt><trkpt lat="10.1936831" lon="-75.319755"><ele>21.0</ele><time>2026-04-18T18:25:39.636Z</time></trkpt><trkpt lat="10.1936983" lon="-75.3198199"><ele>21.0</ele><time>2026-04-18T18:25:40.631Z</time></trkpt><trkpt lat="10.1937167" lon="-75.3198888"><ele>21.0</ele><time>2026-04-18T18:25:41.631Z</time></trkpt><trkpt lat="10.1937367" lon="-75.3199504"><ele>21.0</ele><time>2026-04-18T18:25:42.632Z</time></trkpt><trkpt lat="10.1937536" lon="-75.3200161"><ele>21.0</ele><time>2026-04-18T18:25:43.632Z</time></trkpt><trkpt lat="10.1937683" lon="-75.3200843"><ele>21.666666666666668</ele><time>2026-04-18T18:25:44.629Z</time></trkpt><trkpt lat="10.1937834" lon="-75.3201502"><ele>22.333333333333336</ele><time>2026-04-18T18:25:45.631Z</time></trkpt><trkpt lat="10.1937981" lon="-75.3202179"><ele>23.0</ele><time>2026-04-18T18:25:46.63Z</time></trkpt><trkpt lat="10.1938129" lon="-75.3202813"><ele>23.666666666666668</ele><time>2026-04-18T18:25:47.63Z</time></trkpt><trkpt lat="10.193829" lon="-75.3203472"><ele>24.333333333333336</ele><time>2026-04-18T18:25:48.63Z</time></trkpt><trkpt lat="10.193846" lon="-75.3204177"><ele>25.0</ele><time>2026-04-18T18:25:49.633Z</time></trkpt><trkpt lat="10.1938749" lon="-75.320533"><ele>25.2</ele><time>2026-04-18T18:25:51.631Z</time></trkpt><trkpt lat="10.1939058" lon="-75.3206544"><ele>25.4</ele><time>2026-04-18T18:25:53.631Z</time></trkpt><trkpt lat="10.1939368" lon="-75.3207773"><ele>25.6</ele><time>2026-04-18T18:25:55.633Z</time></trkpt><trkpt lat="10.1939512" lon="-75.3208401"><ele>25.8</ele><time>2026-04-18T18:25:56.633Z</time></trkpt><trkpt lat="10.1939659" lon="-75.3209045"><ele>26.0</ele><time>2026-04-18T18:25:57.631Z</time></trkpt><trkpt lat="10.1939947" lon="-75.3210259"><ele>25.833333333333332</ele><time>2026-04-18T18:25:59.631Z</time></trkpt><trkpt lat="10.1940218" lon="-75.3211512"><ele>25.666666666666664</ele><time>2026-04-18T18:26:01.627Z</time></trkpt><trkpt lat="10.1940377" lon="-75.3212151"><ele>25.5</ele><time>2026-04-18T18:26:02.632Z</time></trkpt><trkpt lat="10.1940517" lon="-75.3212808"><ele>25.333333333333336</ele><time>2026-04-18T18:26:03.628Z</time></trkpt><trkpt lat="10.1940734" lon="-75.3213435"><ele>25.166666666666668</ele><time>2026-04-18T18:26:04.628Z</time></trkpt><trkpt lat="10.1940896" lon="-75.3214117"><ele>25.0</ele><time>2026-04-18T18:26:05.631Z</time></trkpt><trkpt lat="10.1941015" lon="-75.3214814"><ele>25.000000000000004</ele><time>2026-04-18T18:26:06.63Z</time></trkpt><trkpt lat="10.1941184" lon="-75.3215526"><ele>25.0</ele><time>2026-04-18T18:26:07.631Z</time></trkpt><trkpt lat="10.1941362" lon="-75.321621"><ele>25.0</ele><time>2026-04-18T18:26:08.628Z</time></trkpt><trkpt lat="10.1941571" lon="-75.3216876"><ele>25.0</ele><time>2026-04-18T18:26:09.633Z</time></trkpt><trkpt lat="10.1941774" lon="-75.3217634"><ele>25.0</ele><time>2026-04-18T18:26:10.632Z</time></trkpt><trkpt lat="10.1941978" lon="-75.3218356"><ele>25.000000000000004</ele><time>2026-04-18T18:26:11.63Z</time></trkpt><trkpt lat="10.1942139" lon="-75.3219079"><ele>25.0</ele><time>2026-04-18T18:26:12.631Z</time></trkpt><trkpt lat="10.1942319" lon="-75.3219846"><ele>25.000000000000004</ele><time>2026-04-18T18:26:13.63Z</time></trkpt><trkpt lat="10.1942493" lon="-75.3220561"><ele>25.0</ele><time>2026-04-18T18:26:14.631Z</time></trkpt><trkpt lat="10.1942688" lon="-75.3221257"><ele>25.0</ele><time>2026-04-18T18:26:15.629Z</time></trkpt><trkpt lat="10.1942859" lon="-75.3221977"><ele>25.0</ele><time>2026-04-18T18:26:16.63Z</time></trkpt><trkpt lat="10.194303" lon="-75.3222738"><ele>25.0</ele><time>2026-04-18T18:26:17.632Z</time></trkpt><trkpt lat="10.1943201" lon="-75.3223502"><ele>25.000000000000004</ele><time>2026-04-18T18:26:18.63Z</time></trkpt><trkpt lat="10.1943387" lon="-75.3224199"><ele>25.0</ele><time>2026-04-18T18:26:19.628Z</time></trkpt><trkpt lat="10.1943568" lon="-75.3224911"><ele>25.142857142857146</ele><time>2026-04-18T18:26:20.63Z</time></trkpt><trkpt lat="10.1943727" lon="-75.3225606"><ele>25.285714285714285</ele><time>2026-04-18T18:26:21.632Z</time></trkpt><trkpt lat="10.1943899" lon="-75.3226309"><ele>25.42857142857143</ele><time>2026-04-18T18:26:22.632Z</time></trkpt><trkpt lat="10.1944059" lon="-75.3227006"><ele>25.571428571428573</ele><time>2026-04-18T18:26:23.631Z</time></trkpt><trkpt lat="10.194423" lon="-75.322768"><ele>25.714285714285715</ele><time>2026-04-18T18:26:24.634Z</time></trkpt><trkpt lat="10.1944481" lon="-75.3228307"><ele>25.857142857142858</ele><time>2026-04-18T18:26:25.631Z</time></trkpt><trkpt lat="10.1944649" lon="-75.3228948"><ele>26.0</ele><time>2026-04-18T18:26:26.636Z</time></trkpt><trkpt lat="10.1944956" lon="-75.3230173"><ele>26.5</ele><time>2026-04-18T18:26:28.631Z</time></trkpt><trkpt lat="10.1945293" lon="-75.3231337"><ele>27.0</ele><time>2026-04-18T18:26:30.632Z</time></trkpt><trkpt lat="10.1945523" lon="-75.3232457"><ele>27.5</ele><time>2026-04-18T18:26:32.631Z</time></trkpt><trkpt lat="10.1945838" lon="-75.3233633"><ele>28.0</ele><time>2026-04-18T18:26:34.634Z</time></trkpt><trkpt lat="10.1946147" lon="-75.3234829"><ele>28.0</ele><time>2026-04-18T18:26:36.629Z</time></trkpt><trkpt lat="10.1946305" lon="-75.3235468"><ele>28.0</ele><time>2026-04-18T18:26:37.627Z</time></trkpt><trkpt lat="10.1946466" lon="-75.3236143"><ele>28.0</ele><time>2026-04-18T18:26:38.634Z</time></trkpt><trkpt lat="10.1946643" lon="-75.3236785"><ele>28.0</ele><time>2026-04-18T18:26:39.638Z</time></trkpt><trkpt lat="10.194682" lon="-75.3237466"><ele>28.0</ele><time>2026-04-18T18:26:40.629Z</time></trkpt><trkpt lat="10.1947009" lon="-75.3238177"><ele>28.0</ele><time>2026-04-18T18:26:41.633Z</time></trkpt><trkpt lat="10.194717" lon="-75.3238976"><ele>28.0</ele><time>2026-04-18T18:26:42.632Z</time></trkpt><trkpt lat="10.1947347" lon="-75.323968"><ele>28.000000000000004</ele><time>2026-04-18T18:26:43.631Z</time></trkpt><trkpt lat="10.1947547" lon="-75.3240437"><ele>28.0</ele><time>2026-04-18T18:26:44.633Z</time></trkpt><trkpt lat="10.1947728" lon="-75.3241218"><ele>28.0</ele><time>2026-04-18T18:26:45.629Z</time></trkpt><trkpt lat="10.194795" lon="-75.3241969"><ele>28.0</ele><time>2026-04-18T18:26:46.632Z</time></trkpt><trkpt lat="10.1948143" lon="-75.3242696"><ele>28.000000000000004</ele><time>2026-04-18T18:26:47.634Z</time></trkpt><trkpt lat="10.1948315" lon="-75.3243438"><ele>28.0</ele><time>2026-04-18T18:26:48.629Z</time></trkpt><trkpt lat="10.1948493" lon="-75.3244187"><ele>28.0</ele><time>2026-04-18T18:26:49.633Z</time></trkpt><trkpt lat="10.194867" lon="-75.3244932"><ele>28.0</ele><time>2026-04-18T18:26:50.629Z</time></trkpt><trkpt lat="10.1948853" lon="-75.3245655"><ele>28.0</ele><time>2026-04-18T18:26:51.632Z</time></trkpt><trkpt lat="10.1949049" lon="-75.3246343"><ele>28.0</ele><time>2026-04-18T18:26:52.629Z</time></trkpt><trkpt lat="10.1949222" lon="-75.3247096"><ele>28.0</ele><time>2026-04-18T18:26:53.631Z</time></trkpt><trkpt lat="10.1949432" lon="-75.3247788"><ele>28.0</ele><time>2026-04-18T18:26:54.633Z</time></trkpt><trkpt lat="10.1949624" lon="-75.3248551"><ele>28.0</ele><time>2026-04-18T18:26:55.628Z</time></trkpt><trkpt lat="10.1949829" lon="-75.3249342"><ele>27.833333333333336</ele><time>2026-04-18T18:26:56.632Z</time></trkpt><trkpt lat="10.1950024" lon="-75.32501"><ele>27.666666666666668</ele><time>2026-04-18T18:26:57.633Z</time></trkpt><trkpt lat="10.1950198" lon="-75.3250888"><ele>27.5</ele><time>2026-04-18T18:26:58.632Z</time></trkpt><trkpt lat="10.1950377" lon="-75.3251702"><ele>27.333333333333336</ele><time>2026-04-18T18:26:59.628Z</time></trkpt><trkpt lat="10.1950571" lon="-75.3252495"><ele>27.166666666666668</ele><time>2026-04-18T18:27:00.633Z</time></trkpt><trkpt lat="10.1950803" lon="-75.3253378"><ele>27.0</ele><time>2026-04-18T18:27:01.629Z</time></trkpt><trkpt lat="10.1950974" lon="-75.3254189"><ele>27.0</ele><time>2026-04-18T18:27:02.631Z</time></trkpt><trkpt lat="10.1951141" lon="-75.3255036"><ele>27.0</ele><time>2026-04-18T18:27:03.628Z</time></trkpt><trkpt lat="10.1951339" lon="-75.3255903"><ele>27.0</ele><time>2026-04-18T18:27:04.628Z</time></trkpt><trkpt lat="10.1951519" lon="-75.3256726"><ele>27.0</ele><time>2026-04-18T18:27:05.634Z</time></trkpt><trkpt lat="10.1951713" lon="-75.3257507"><ele>27.0</ele><time>2026-04-18T18:27:06.63Z</time></trkpt><trkpt lat="10.1951912" lon="-75.3258325"><ele>27.0</ele><time>2026-04-18T18:27:07.631Z</time></trkpt><trkpt lat="10.1952129" lon="-75.3259115"><ele>27.166666666666668</ele><time>2026-04-18T18:27:08.629Z</time></trkpt><trkpt lat="10.195236" lon="-75.3259902"><ele>27.333333333333336</ele><time>2026-04-18T18:27:09.631Z</time></trkpt><trkpt lat="10.1952565" lon="-75.3260743"><ele>27.5</ele><time>2026-04-18T18:27:10.629Z</time></trkpt><trkpt lat="10.1952739" lon="-75.3261569"><ele>27.666666666666668</ele><time>2026-04-18T18:27:11.632Z</time></trkpt><trkpt lat="10.1952936" lon="-75.3262423"><ele>27.833333333333336</ele><time>2026-04-18T18:27:12.631Z</time></trkpt><trkpt lat="10.1953157" lon="-75.326321"><ele>28.0</ele><time>2026-04-18T18:27:13.631Z</time></trkpt><trkpt lat="10.1953341" lon="-75.3263993"><ele>28.000000000000004</ele><time>2026-04-18T18:27:14.63Z</time></trkpt><trkpt lat="10.1953535" lon="-75.326475"><ele>28.0</ele><time>2026-04-18T18:27:15.631Z</time></trkpt><trkpt lat="10.195372" lon="-75.3265528"><ele>28.0</ele><time>2026-04-18T18:27:16.629Z</time></trkpt><trkpt lat="10.1953909" lon="-75.32663"><ele>28.0</ele><time>2026-04-18T18:27:17.629Z</time></trkpt><trkpt lat="10.1954052" lon="-75.3267049"><ele>28.000000000000004</ele><time>2026-04-18T18:27:18.631Z</time></trkpt><trkpt lat="10.1954205" lon="-75.3267786"><ele>28.0</ele><time>2026-04-18T18:27:19.63Z</time></trkpt><trkpt lat="10.1954378" lon="-75.3268478"><ele>28.0</ele><time>2026-04-18T18:27:20.631Z</time></trkpt><trkpt lat="10.1954563" lon="-75.3269192"><ele>28.0</ele><time>2026-04-18T18:27:21.631Z</time></trkpt><trkpt lat="10.1954728" lon="-75.3269912"><ele>28.0</ele><time>2026-04-18T18:27:22.633Z</time></trkpt><trkpt lat="10.1954935" lon="-75.3270662"><ele>28.0</ele><time>2026-04-18T18:27:23.632Z</time></trkpt><trkpt lat="10.1955107" lon="-75.3271307"><ele>28.0</ele><time>2026-04-18T18:27:24.63Z</time></trkpt><trkpt lat="10.1955267" lon="-75.3271983"><ele>28.0</ele><time>2026-04-18T18:27:25.63Z</time></trkpt><trkpt lat="10.195545" lon="-75.3272609"><ele>28.0</ele><time>2026-04-18T18:27:26.631Z</time></trkpt><trkpt lat="10.1955619" lon="-75.3273241"><ele>28.57142857142857</ele><time>2026-04-18T18:27:27.628Z</time></trkpt><trkpt lat="10.195577" lon="-75.3273904"><ele>29.142857142857142</ele><time>2026-04-18T18:27:28.63Z</time></trkpt><trkpt lat="10.1955933" lon="-75.327457"><ele>29.714285714285715</ele><time>2026-04-18T18:27:29.628Z</time></trkpt><trkpt lat="10.1956098" lon="-75.327521"><ele>30.285714285714285</ele><time>2026-04-18T18:27:30.631Z</time></trkpt><trkpt lat="10.1956262" lon="-75.3275866"><ele>30.857142857142854</ele><time>2026-04-18T18:27:31.631Z</time></trkpt><trkpt lat="10.1956408" lon="-75.3276527"><ele>31.428571428571427</ele><time>2026-04-18T18:27:32.63Z</time></trkpt><trkpt lat="10.195655" lon="-75.3277195"><ele>32.0</ele><time>2026-04-18T18:27:33.63Z</time></trkpt><trkpt lat="10.1956901" lon="-75.3278456"><ele>32.14285714285714</ele><time>2026-04-18T18:27:35.63Z</time></trkpt><trkpt lat="10.1957015" lon="-75.3279179"><ele>32.285714285714285</ele><time>2026-04-18T18:27:36.63Z</time></trkpt><trkpt lat="10.1957222" lon="-75.327984"><ele>32.42857142857143</ele><time>2026-04-18T18:27:37.632Z</time></trkpt><trkpt lat="10.1957441" lon="-75.3280476"><ele>32.57142857142857</ele><time>2026-04-18T18:27:38.626Z</time></trkpt><trkpt lat="10.1957603" lon="-75.3281124"><ele>32.714285714285715</ele><time>2026-04-18T18:27:39.629Z</time></trkpt><trkpt lat="10.1957775" lon="-75.3281797"><ele>32.857142857142854</ele><time>2026-04-18T18:27:40.633Z</time></trkpt><trkpt lat="10.1957943" lon="-75.3282473"><ele>33.0</ele><time>2026-04-18T18:27:41.634Z</time></trkpt><trkpt lat="10.195811" lon="-75.3283177"><ele>33.42857142857143</ele><time>2026-04-18T18:27:42.631Z</time></trkpt><trkpt lat="10.1958303" lon="-75.3283842"><ele>33.85714285714286</ele><time>2026-04-18T18:27:43.634Z</time></trkpt><trkpt lat="10.1958508" lon="-75.3284542"><ele>34.28571428571429</ele><time>2026-04-18T18:27:44.628Z</time></trkpt><trkpt lat="10.1958682" lon="-75.3285219"><ele>34.714285714285715</ele><time>2026-04-18T18:27:45.632Z</time></trkpt><trkpt lat="10.1958864" lon="-75.328594"><ele>35.142857142857146</ele><time>2026-04-18T18:27:46.63Z</time></trkpt><trkpt lat="10.1959069" lon="-75.3286668"><ele>35.57142857142858</ele><time>2026-04-18T18:27:47.628Z</time></trkpt><trkpt lat="10.1959251" lon="-75.3287397"><ele>36.0</ele><time>2026-04-18T18:27:48.631Z</time></trkpt><trkpt lat="10.1959431" lon="-75.3288079"><ele>36.00000000000001</ele><time>2026-04-18T18:27:49.633Z</time></trkpt><trkpt lat="10.1959602" lon="-75.328881"><ele>36.0</ele><time>2026-04-18T18:27:50.625Z</time></trkpt><trkpt lat="10.1959755" lon="-75.3289535"><ele>36.0</ele><time>2026-04-18T18:27:51.631Z</time></trkpt><trkpt lat="10.1959904" lon="-75.3290282"><ele>36.0</ele><time>2026-04-18T18:27:52.631Z</time></trkpt><trkpt lat="10.1960118" lon="-75.3291014"><ele>36.0</ele><time>2026-04-18T18:27:53.63Z</time></trkpt><trkpt lat="10.196025" lon="-75.3291755"><ele>36.00000000000001</ele><time>2026-04-18T18:27:54.631Z</time></trkpt><trkpt lat="10.1960355" lon="-75.3292497"><ele>36.0</ele><time>2026-04-18T18:27:55.63Z</time></trkpt><trkpt lat="10.1960489" lon="-75.329321"><ele>36.0</ele><time>2026-04-18T18:27:56.632Z</time></trkpt><trkpt lat="10.196061" lon="-75.3293953"><ele>36.0</ele><time>2026-04-18T18:27:57.63Z</time></trkpt><trkpt lat="10.1960757" lon="-75.3294753"><ele>36.0</ele><time>2026-04-18T18:27:58.629Z</time></trkpt><trkpt lat="10.1960809" lon="-75.3295494"><ele>36.0</ele><time>2026-04-18T18:27:59.632Z</time></trkpt><trkpt lat="10.1960904" lon="-75.3296255"><ele>36.0</ele><time>2026-04-18T18:28:00.635Z</time></trkpt><trkpt lat="10.1961015" lon="-75.3297013"><ele>36.0</ele><time>2026-04-18T18:28:01.63Z</time></trkpt><trkpt lat="10.196112" lon="-75.3297785"><ele>36.00000000000001</ele><time>2026-04-18T18:28:02.631Z</time></trkpt><trkpt lat="10.1961227" lon="-75.3298523"><ele>36.0</ele><time>2026-04-18T18:28:03.631Z</time></trkpt><trkpt lat="10.1961315" lon="-75.3299252"><ele>36.0</ele><time>2026-04-18T18:28:04.63Z</time></trkpt><trkpt lat="10.1961378" lon="-75.3300011"><ele>36.0</ele><time>2026-04-18T18:28:05.628Z</time></trkpt><trkpt lat="10.1961484" lon="-75.3300701"><ele>36.0</ele><time>2026-04-18T18:28:06.626Z</time></trkpt><trkpt lat="10.1961569" lon="-75.3301464"><ele>36.00000000000001</ele><time>2026-04-18T18:28:07.63Z</time></trkpt><trkpt lat="10.196167" lon="-75.3302189"><ele>36.0</ele><time>2026-04-18T18:28:08.63Z</time></trkpt><trkpt lat="10.1961763" lon="-75.33029"><ele>36.00000000000001</ele><time>2026-04-18T18:28:09.631Z</time></trkpt><trkpt lat="10.1961853" lon="-75.3303656"><ele>36.0</ele><time>2026-04-18T18:28:10.632Z</time></trkpt><trkpt lat="10.1961924" lon="-75.3304385"><ele>36.0</ele><time>2026-04-18T18:28:11.632Z</time></trkpt><trkpt lat="10.1962016" lon="-75.3305113"><ele>36.0</ele><time>2026-04-18T18:28:12.627Z</time></trkpt><trkpt lat="10.196211" lon="-75.3305866"><ele>36.0</ele><time>2026-04-18T18:28:13.627Z</time></trkpt><trkpt lat="10.1962189" lon="-75.330658"><ele>36.00000000000001</ele><time>2026-04-18T18:28:14.631Z</time></trkpt><trkpt lat="10.196225" lon="-75.3307298"><ele>36.0</ele><time>2026-04-18T18:28:15.631Z</time></trkpt><trkpt lat="10.1962308" lon="-75.3308002"><ele>35.85714285714286</ele><time>2026-04-18T18:28:16.63Z</time></trkpt><trkpt lat="10.1962375" lon="-75.3308703"><ele>35.714285714285715</ele><time>2026-04-18T18:28:17.631Z</time></trkpt><trkpt lat="10.1962397" lon="-75.3309434"><ele>35.57142857142857</ele><time>2026-04-18T18:28:18.631Z</time></trkpt><trkpt lat="10.1962465" lon="-75.3310148"><ele>35.42857142857143</ele><time>2026-04-18T18:28:19.629Z</time></trkpt><trkpt lat="10.1962518" lon="-75.3310875"><ele>35.285714285714285</ele><time>2026-04-18T18:28:20.63Z</time></trkpt><trkpt lat="10.1962576" lon="-75.3311599"><ele>35.142857142857146</ele><time>2026-04-18T18:28:21.63Z</time></trkpt><trkpt lat="10.1962608" lon="-75.3312282"><ele>35.0</ele><time>2026-04-18T18:28:22.632Z</time></trkpt><trkpt lat="10.196264" lon="-75.3313041"><ele>35.0</ele><time>2026-04-18T18:28:23.63Z</time></trkpt><trkpt lat="10.1962669" lon="-75.3313739"><ele>35.0</ele><time>2026-04-18T18:28:24.632Z</time></trkpt><trkpt lat="10.1962656" lon="-75.3314467"><ele>35.0</ele><time>2026-04-18T18:28:25.632Z</time></trkpt><trkpt lat="10.1962725" lon="-75.3315262"><ele>35.0</ele><time>2026-04-18T18:28:26.633Z</time></trkpt><trkpt lat="10.196272" lon="-75.3316006"><ele>35.0</ele><time>2026-04-18T18:28:27.63Z</time></trkpt><trkpt lat="10.1962691" lon="-75.3316743"><ele>35.0</ele><time>2026-04-18T18:28:28.632Z</time></trkpt><trkpt lat="10.1962682" lon="-75.3317501"><ele>35.0</ele><time>2026-04-18T18:28:29.629Z</time></trkpt><trkpt lat="10.1962674" lon="-75.3318254"><ele>34.83333333333333</ele><time>2026-04-18T18:28:30.633Z</time></trkpt><trkpt lat="10.1962635" lon="-75.3319022"><ele>34.666666666666664</ele><time>2026-04-18T18:28:31.63Z</time></trkpt><trkpt lat="10.196262" lon="-75.3319836"><ele>34.5</ele><time>2026-04-18T18:28:32.632Z</time></trkpt><trkpt lat="10.1962589" lon="-75.3320606"><ele>34.333333333333336</ele><time>2026-04-18T18:28:33.63Z</time></trkpt><trkpt lat="10.1962557" lon="-75.3321373"><ele>34.16666666666667</ele><time>2026-04-18T18:28:34.632Z</time></trkpt><trkpt lat="10.1962481" lon="-75.3322127"><ele>34.0</ele><time>2026-04-18T18:28:35.63Z</time></trkpt><trkpt lat="10.196241" lon="-75.3322902"><ele>34.833333333333336</ele><time>2026-04-18T18:28:36.633Z</time></trkpt><trkpt lat="10.1962301" lon="-75.3323682"><ele>35.66666666666667</ele><time>2026-04-18T18:28:37.628Z</time></trkpt><trkpt lat="10.1962219" lon="-75.3324466"><ele>36.5</ele><time>2026-04-18T18:28:38.629Z</time></trkpt><trkpt lat="10.19621" lon="-75.3325268"><ele>37.333333333333336</ele><time>2026-04-18T18:28:39.631Z</time></trkpt><trkpt lat="10.1961952" lon="-75.3326042"><ele>38.166666666666664</ele><time>2026-04-18T18:28:40.634Z</time></trkpt><trkpt lat="10.196181" lon="-75.3326783"><ele>39.0</ele><time>2026-04-18T18:28:41.628Z</time></trkpt><trkpt lat="10.1961708" lon="-75.3327509"><ele>39.0</ele><time>2026-04-18T18:28:42.631Z</time></trkpt><trkpt lat="10.1961622" lon="-75.3328249"><ele>39.0</ele><time>2026-04-18T18:28:43.629Z</time></trkpt><trkpt lat="10.196151" lon="-75.3328906"><ele>39.0</ele><time>2026-04-18T18:28:44.628Z</time></trkpt><trkpt lat="10.1961526" lon="-75.3329636"><ele>39.0</ele><time>2026-04-18T18:28:45.632Z</time></trkpt><trkpt lat="10.1961416" lon="-75.3330289"><ele>39.0</ele><time>2026-04-18T18:28:46.63Z</time></trkpt><trkpt lat="10.1961154" lon="-75.3331498"><ele>39.0</ele><time>2026-04-18T18:28:48.625Z</time></trkpt><trkpt lat="10.196101" lon="-75.3332139"><ele>39.8</ele><time>2026-04-18T18:28:49.627Z</time></trkpt><trkpt lat="10.1960654" lon="-75.3333341"><ele>40.599999999999994</ele><time>2026-04-18T18:28:51.63Z</time></trkpt><trkpt lat="10.1960245" lon="-75.3334533"><ele>41.4</ele><time>2026-04-18T18:28:53.628Z</time></trkpt><trkpt lat="10.1960065" lon="-75.333518"><ele>42.199999999999996</ele><time>2026-04-18T18:28:54.632Z</time></trkpt><trkpt lat="10.1959768" lon="-75.3336315"><ele>43.0</ele><time>2026-04-18T18:28:56.625Z</time></trkpt><trkpt lat="10.1959491" lon="-75.3337471"><ele>43.0</ele><time>2026-04-18T18:28:58.63Z</time></trkpt><trkpt lat="10.1959109" lon="-75.3338496"><ele>43.0</ele><time>2026-04-18T18:29:00.63Z</time></trkpt><trkpt lat="10.1958747" lon="-75.3339632"><ele>43.0</ele><time>2026-04-18T18:29:02.631Z</time></trkpt><trkpt lat="10.1958432" lon="-75.3340688"><ele>43.0</ele><time>2026-04-18T18:29:04.63Z</time></trkpt><trkpt lat="10.1957996" lon="-75.3341809"><ele>42.75</ele><time>2026-04-18T18:29:06.632Z</time></trkpt><trkpt lat="10.1957588" lon="-75.334291"><ele>42.5</ele><time>2026-04-18T18:29:08.627Z</time></trkpt><trkpt lat="10.1957158" lon="-75.3344047"><ele>42.25</ele><time>2026-04-18T18:29:10.631Z</time></trkpt><trkpt lat="10.1956681" lon="-75.3345161"><ele>42.0</ele><time>2026-04-18T18:29:12.63Z</time></trkpt><trkpt lat="10.1956202" lon="-75.3346318"><ele>41.333333333333336</ele><time>2026-04-18T18:29:14.63Z</time></trkpt><trkpt lat="10.1955682" lon="-75.3347451"><ele>40.666666666666664</ele><time>2026-04-18T18:29:16.63Z</time></trkpt><trkpt lat="10.1955423" lon="-75.3348065"><ele>40.0</ele><time>2026-04-18T18:29:17.63Z</time></trkpt><trkpt lat="10.1955146" lon="-75.3348656"><ele>39.33333333333333</ele><time>2026-04-18T18:29:18.629Z</time></trkpt><trkpt lat="10.1954918" lon="-75.3349307"><ele>38.666666666666664</ele><time>2026-04-18T18:29:19.631Z</time></trkpt><trkpt lat="10.195462" lon="-75.3349914"><ele>38.0</ele><time>2026-04-18T18:29:20.635Z</time></trkpt><trkpt lat="10.1954293" lon="-75.335051"><ele>38.0</ele><time>2026-04-18T18:29:21.63Z</time></trkpt><trkpt lat="10.1953686" lon="-75.3351659"><ele>38.0</ele><time>2026-04-18T18:29:23.632Z</time></trkpt><trkpt lat="10.1953361" lon="-75.3352241"><ele>38.0</ele><time>2026-04-18T18:29:24.632Z</time></trkpt><trkpt lat="10.1953013" lon="-75.3352822"><ele>38.0</ele><time>2026-04-18T18:29:25.629Z</time></trkpt><trkpt lat="10.1952668" lon="-75.3353409"><ele>38.0</ele><time>2026-04-18T18:29:26.63Z</time></trkpt><trkpt lat="10.1952294" lon="-75.3354036"><ele>38.0</ele><time>2026-04-18T18:29:27.63Z</time></trkpt><trkpt lat="10.1951951" lon="-75.3354594"><ele>38.0</ele><time>2026-04-18T18:29:28.63Z</time></trkpt><trkpt lat="10.1951601" lon="-75.335518"><ele>38.0</ele><time>2026-04-18T18:29:29.629Z</time></trkpt><trkpt lat="10.1951215" lon="-75.3355779"><ele>38.0</ele><time>2026-04-18T18:29:30.631Z</time></trkpt><trkpt lat="10.1950843" lon="-75.3356378"><ele>38.0</ele><time>2026-04-18T18:29:31.63Z</time></trkpt><trkpt lat="10.1950453" lon="-75.3356973"><ele>38.0</ele><time>2026-04-18T18:29:32.63Z</time></trkpt><trkpt lat="10.1950043" lon="-75.3357579"><ele>38.0</ele><time>2026-04-18T18:29:33.631Z</time></trkpt><trkpt lat="10.1949636" lon="-75.3358166"><ele>38.0</ele><time>2026-04-18T18:29:34.629Z</time></trkpt><trkpt lat="10.1949227" lon="-75.3358776"><ele>38.14285714285714</ele><time>2026-04-18T18:29:35.631Z</time></trkpt><trkpt lat="10.1948817" lon="-75.3359346"><ele>38.28571428571429</ele><time>2026-04-18T18:29:36.624Z</time></trkpt><trkpt lat="10.1948402" lon="-75.3359941"><ele>38.42857142857143</ele><time>2026-04-18T18:29:37.627Z</time></trkpt><trkpt lat="10.1947972" lon="-75.3360519"><ele>38.57142857142857</ele><time>2026-04-18T18:29:38.631Z</time></trkpt><trkpt lat="10.1947531" lon="-75.3361101"><ele>38.71428571428571</ele><time>2026-04-18T18:29:39.628Z</time></trkpt><trkpt lat="10.1947052" lon="-75.3361665"><ele>38.85714285714286</ele><time>2026-04-18T18:29:40.63Z</time></trkpt><trkpt lat="10.1946596" lon="-75.3362252"><ele>39.0</ele><time>2026-04-18T18:29:41.63Z</time></trkpt><trkpt lat="10.194619" lon="-75.3362847"><ele>39.285714285714285</ele><time>2026-04-18T18:29:42.627Z</time></trkpt><trkpt lat="10.1945743" lon="-75.3363435"><ele>39.57142857142857</ele><time>2026-04-18T18:29:43.629Z</time></trkpt><trkpt lat="10.1945335" lon="-75.3364018"><ele>39.857142857142854</ele><time>2026-04-18T18:29:44.634Z</time></trkpt><trkpt lat="10.1944906" lon="-75.3364602"><ele>40.14285714285714</ele><time>2026-04-18T18:29:45.628Z</time></trkpt><trkpt lat="10.1944511" lon="-75.3365163"><ele>40.42857142857143</ele><time>2026-04-18T18:29:46.624Z</time></trkpt><trkpt lat="10.194411" lon="-75.3365703"><ele>40.71428571428571</ele><time>2026-04-18T18:29:47.625Z</time></trkpt><trkpt lat="10.1943702" lon="-75.3366245"><ele>41.0</ele><time>2026-04-18T18:29:48.628Z</time></trkpt><trkpt lat="10.194326" lon="-75.3366754"><ele>42.0</ele><time>2026-04-18T18:29:49.627Z</time></trkpt><trkpt lat="10.1942883" lon="-75.3367343"><ele>43.0</ele><time>2026-04-18T18:29:50.629Z</time></trkpt><trkpt lat="10.1942491" lon="-75.3367922"><ele>44.0</ele><time>2026-04-18T18:29:51.627Z</time></trkpt><trkpt lat="10.1941849" lon="-75.3369033"><ele>45.0</ele><time>2026-04-18T18:29:53.631Z</time></trkpt><trkpt lat="10.1941171" lon="-75.3370041"><ele>46.0</ele><time>2026-04-18T18:29:55.628Z</time></trkpt><trkpt lat="10.1940681" lon="-75.3371098"><ele>46.0</ele><time>2026-04-18T18:29:57.631Z</time></trkpt><trkpt lat="10.1940051" lon="-75.3372037"><ele>46.0</ele><time>2026-04-18T18:29:59.629Z</time></trkpt><trkpt lat="10.1939584" lon="-75.3373065"><ele>46.0</ele><time>2026-04-18T18:30:01.632Z</time></trkpt><trkpt lat="10.1939027" lon="-75.3374046"><ele>46.0</ele><time>2026-04-18T18:30:03.629Z</time></trkpt><trkpt lat="10.1938547" lon="-75.3375057"><ele>46.0</ele><time>2026-04-18T18:30:05.627Z</time></trkpt><trkpt lat="10.1938229" lon="-75.3376199"><ele>46.8</ele><time>2026-04-18T18:30:07.629Z</time></trkpt><trkpt lat="10.1937821" lon="-75.337726"><ele>47.599999999999994</ele><time>2026-04-18T18:30:09.63Z</time></trkpt><trkpt lat="10.1937531" lon="-75.3378365"><ele>48.4</ele><time>2026-04-18T18:30:11.63Z</time></trkpt><trkpt lat="10.1937238" lon="-75.3379452"><ele>49.2</ele><time>2026-04-18T18:30:13.627Z</time></trkpt><trkpt lat="10.1936902" lon="-75.3380556"><ele>50.0</ele><time>2026-04-18T18:30:15.632Z</time></trkpt><trkpt lat="10.1936659" lon="-75.3381694"><ele>50.4</ele><time>2026-04-18T18:30:17.626Z</time></trkpt><trkpt lat="10.1936378" lon="-75.3382883"><ele>50.8</ele><time>2026-04-18T18:30:19.628Z</time></trkpt><trkpt lat="10.1936198" lon="-75.3384076"><ele>51.2</ele><time>2026-04-18T18:30:21.632Z</time></trkpt><trkpt lat="10.1936043" lon="-75.3385273"><ele>51.6</ele><time>2026-04-18T18:30:23.628Z</time></trkpt><trkpt lat="10.1935957" lon="-75.338592"><ele>52.0</ele><time>2026-04-18T18:30:24.629Z</time></trkpt><trkpt lat="10.193582" lon="-75.3387149"><ele>52.0</ele><time>2026-04-18T18:30:26.627Z</time></trkpt><trkpt lat="10.193587" lon="-75.3387849"><ele>52.0</ele><time>2026-04-18T18:30:27.629Z</time></trkpt><trkpt lat="10.1935854" lon="-75.3388501"><ele>52.0</ele><time>2026-04-18T18:30:28.631Z</time></trkpt><trkpt lat="10.1935857" lon="-75.3389186"><ele>52.0</ele><time>2026-04-18T18:30:29.628Z</time></trkpt><trkpt lat="10.1935863" lon="-75.3389875"><ele>52.0</ele><time>2026-04-18T18:30:30.627Z</time></trkpt><trkpt lat="10.1936022" lon="-75.3390599"><ele>52.0</ele><time>2026-04-18T18:30:31.628Z</time></trkpt><trkpt lat="10.193606" lon="-75.3391289"><ele>52.0</ele><time>2026-04-18T18:30:32.629Z</time></trkpt><trkpt lat="10.1936087" lon="-75.3392036"><ele>52.42857142857142</ele><time>2026-04-18T18:30:33.627Z</time></trkpt><trkpt lat="10.1936136" lon="-75.3392759"><ele>52.85714285714286</ele><time>2026-04-18T18:30:34.628Z</time></trkpt><trkpt lat="10.1936215" lon="-75.3393443"><ele>53.285714285714285</ele><time>2026-04-18T18:30:35.629Z</time></trkpt><trkpt lat="10.193629" lon="-75.3394167"><ele>53.71428571428571</ele><time>2026-04-18T18:30:36.63Z</time></trkpt><trkpt lat="10.1936343" lon="-75.3394844"><ele>54.14285714285714</ele><time>2026-04-18T18:30:37.628Z</time></trkpt><trkpt lat="10.1936379" lon="-75.3395579"><ele>54.57142857142857</ele><time>2026-04-18T18:30:38.634Z</time></trkpt><trkpt lat="10.1936465" lon="-75.3396319"><ele>55.0</ele><time>2026-04-18T18:30:39.633Z</time></trkpt><trkpt lat="10.1936521" lon="-75.3396994"><ele>55.14285714285714</ele><time>2026-04-18T18:30:40.631Z</time></trkpt><trkpt lat="10.1936594" lon="-75.3397758"><ele>55.285714285714285</ele><time>2026-04-18T18:30:41.633Z</time></trkpt><trkpt lat="10.1936706" lon="-75.339846"><ele>55.42857142857143</ele><time>2026-04-18T18:30:42.628Z</time></trkpt><trkpt lat="10.1936789" lon="-75.3399208"><ele>55.57142857142857</ele><time>2026-04-18T18:30:43.626Z</time></trkpt><trkpt lat="10.1936856" lon="-75.3399949"><ele>55.714285714285715</ele><time>2026-04-18T18:30:44.625Z</time></trkpt><trkpt lat="10.193694" lon="-75.3400687"><ele>55.857142857142854</ele><time>2026-04-18T18:30:45.627Z</time></trkpt><trkpt lat="10.1937011" lon="-75.3401439"><ele>56.0</ele><time>2026-04-18T18:30:46.627Z</time></trkpt><trkpt lat="10.1937057" lon="-75.3402157"><ele>56.0</ele><time>2026-04-18T18:30:47.629Z</time></trkpt><trkpt lat="10.1937099" lon="-75.3402842"><ele>56.0</ele><time>2026-04-18T18:30:48.632Z</time></trkpt><trkpt lat="10.1937152" lon="-75.3403568"><ele>56.0</ele><time>2026-04-18T18:30:49.633Z</time></trkpt><trkpt lat="10.1937232" lon="-75.3404311"><ele>56.0</ele><time>2026-04-18T18:30:50.628Z</time></trkpt><trkpt lat="10.1937307" lon="-75.3405002"><ele>56.0</ele><time>2026-04-18T18:30:51.632Z</time></trkpt><trkpt lat="10.1937376" lon="-75.3405715"><ele>56.0</ele><time>2026-04-18T18:30:52.628Z</time></trkpt><trkpt lat="10.1937465" lon="-75.3406413"><ele>56.0</ele><time>2026-04-18T18:30:53.628Z</time></trkpt><trkpt lat="10.1937525" lon="-75.3407131"><ele>56.0</ele><time>2026-04-18T18:30:54.627Z</time></trkpt><trkpt lat="10.1937591" lon="-75.3407816"><ele>56.0</ele><time>2026-04-18T18:30:55.624Z</time></trkpt><trkpt lat="10.193771" lon="-75.3408493"><ele>56.0</ele><time>2026-04-18T18:30:56.626Z</time></trkpt><trkpt lat="10.1937844" lon="-75.3409165"><ele>56.0</ele><time>2026-04-18T18:30:57.632Z</time></trkpt><trkpt lat="10.1937902" lon="-75.3409892"><ele>56.0</ele><time>2026-04-18T18:30:58.631Z</time></trkpt><trkpt lat="10.1937953" lon="-75.3410591"><ele>56.0</ele><time>2026-04-18T18:30:59.631Z</time></trkpt><trkpt lat="10.1937994" lon="-75.3411289"><ele>56.0</ele><time>2026-04-18T18:31:00.628Z</time></trkpt><trkpt lat="10.1937995" lon="-75.3411978"><ele>56.0</ele><time>2026-04-18T18:31:01.628Z</time></trkpt><trkpt lat="10.1938052" lon="-75.3412671"><ele>56.0</ele><time>2026-04-18T18:31:02.628Z</time></trkpt><trkpt lat="10.1938099" lon="-75.3413391"><ele>56.0</ele><time>2026-04-18T18:31:03.631Z</time></trkpt><trkpt lat="10.1938143" lon="-75.3414093"><ele>56.0</ele><time>2026-04-18T18:31:04.63Z</time></trkpt><trkpt lat="10.1938177" lon="-75.3414817"><ele>56.0</ele><time>2026-04-18T18:31:05.628Z</time></trkpt><trkpt lat="10.1938183" lon="-75.3415502"><ele>56.0</ele><time>2026-04-18T18:31:06.627Z</time></trkpt><trkpt lat="10.1938237" lon="-75.3416211"><ele>56.0</ele><time>2026-04-18T18:31:07.626Z</time></trkpt><trkpt lat="10.1938259" lon="-75.341691"><ele>56.14285714285714</ele><time>2026-04-18T18:31:08.631Z</time></trkpt><trkpt lat="10.1938328" lon="-75.3417548"><ele>56.285714285714285</ele><time>2026-04-18T18:31:09.629Z</time></trkpt><trkpt lat="10.1938361" lon="-75.3418204"><ele>56.42857142857143</ele><time>2026-04-18T18:31:10.628Z</time></trkpt><trkpt lat="10.1938412" lon="-75.3418901"><ele>56.57142857142857</ele><time>2026-04-18T18:31:11.629Z</time></trkpt><trkpt lat="10.1938461" lon="-75.3419627"><ele>56.71428571428571</ele><time>2026-04-18T18:31:12.63Z</time></trkpt><trkpt lat="10.1938522" lon="-75.3420351"><ele>56.857142857142854</ele><time>2026-04-18T18:31:13.628Z</time></trkpt><trkpt lat="10.1938627" lon="-75.3421056"><ele>57.0</ele><time>2026-04-18T18:31:14.625Z</time></trkpt><trkpt lat="10.1938695" lon="-75.3421782"><ele>56.666666666666664</ele><time>2026-04-18T18:31:15.627Z</time></trkpt><trkpt lat="10.1938918" lon="-75.3422525"><ele>56.33333333333333</ele><time>2026-04-18T18:31:16.623Z</time></trkpt><trkpt lat="10.1938977" lon="-75.3423257"><ele>56.0</ele><time>2026-04-18T18:31:17.627Z</time></trkpt><trkpt lat="10.1939041" lon="-75.3424021"><ele>55.666666666666664</ele><time>2026-04-18T18:31:18.625Z</time></trkpt><trkpt lat="10.1939118" lon="-75.3424755"><ele>55.33333333333333</ele><time>2026-04-18T18:31:19.63Z</time></trkpt><trkpt lat="10.1939193" lon="-75.3425518"><ele>55.0</ele><time>2026-04-18T18:31:20.631Z</time></trkpt><trkpt lat="10.1939246" lon="-75.3426322"><ele>54.99999999999999</ele><time>2026-04-18T18:31:21.625Z</time></trkpt><trkpt lat="10.1939319" lon="-75.342712"><ele>55.0</ele><time>2026-04-18T18:31:22.628Z</time></trkpt><trkpt lat="10.1939359" lon="-75.3427905"><ele>55.0</ele><time>2026-04-18T18:31:23.626Z</time></trkpt><trkpt lat="10.1939532" lon="-75.3428788"><ele>55.0</ele><time>2026-04-18T18:31:24.632Z</time></trkpt><trkpt lat="10.1939597" lon="-75.3429615"><ele>54.99999999999999</ele><time>2026-04-18T18:31:25.634Z</time></trkpt><trkpt lat="10.1939627" lon="-75.3430493"><ele>55.0</ele><time>2026-04-18T18:31:26.627Z</time></trkpt><trkpt lat="10.1939676" lon="-75.3431358"><ele>55.166666666666664</ele><time>2026-04-18T18:31:27.629Z</time></trkpt><trkpt lat="10.1939747" lon="-75.3432201"><ele>55.33333333333333</ele><time>2026-04-18T18:31:28.631Z</time></trkpt><trkpt lat="10.1939815" lon="-75.343306"><ele>55.5</ele><time>2026-04-18T18:31:29.629Z</time></trkpt><trkpt lat="10.1939905" lon="-75.3433921"><ele>55.66666666666667</ele><time>2026-04-18T18:31:30.628Z</time></trkpt><trkpt lat="10.193998" lon="-75.3434754"><ele>55.833333333333336</ele><time>2026-04-18T18:31:31.631Z</time></trkpt><trkpt lat="10.1940001" lon="-75.3435581"><ele>56.0</ele><time>2026-04-18T18:31:32.636Z</time></trkpt><trkpt lat="10.1940035" lon="-75.343639"><ele>55.66666666666667</ele><time>2026-04-18T18:31:33.637Z</time></trkpt><trkpt lat="10.1940093" lon="-75.3437185"><ele>55.333333333333336</ele><time>2026-04-18T18:31:34.637Z</time></trkpt><trkpt lat="10.1940139" lon="-75.3437983"><ele>55.0</ele><time>2026-04-18T18:31:35.626Z</time></trkpt><trkpt lat="10.1940264" lon="-75.3438794"><ele>54.66666666666667</ele><time>2026-04-18T18:31:36.627Z</time></trkpt><trkpt lat="10.1940329" lon="-75.3439568"><ele>54.333333333333336</ele><time>2026-04-18T18:31:37.627Z</time></trkpt><trkpt lat="10.1940386" lon="-75.3440359"><ele>54.0</ele><time>2026-04-18T18:31:38.628Z</time></trkpt><trkpt lat="10.194049" lon="-75.344118"><ele>53.666666666666664</ele><time>2026-04-18T18:31:39.629Z</time></trkpt><trkpt lat="10.1940576" lon="-75.3441981"><ele>53.33333333333333</ele><time>2026-04-18T18:31:40.627Z</time></trkpt><trkpt lat="10.194071" lon="-75.3442796"><ele>53.0</ele><time>2026-04-18T18:31:41.624Z</time></trkpt><trkpt lat="10.1940769" lon="-75.3443622"><ele>52.666666666666664</ele><time>2026-04-18T18:31:42.628Z</time></trkpt><trkpt lat="10.1940833" lon="-75.3444434"><ele>52.33333333333333</ele><time>2026-04-18T18:31:43.628Z</time></trkpt><trkpt lat="10.1940918" lon="-75.344531"><ele>52.0</ele><time>2026-04-18T18:31:44.628Z</time></trkpt><trkpt lat="10.1941004" lon="-75.3446185"><ele>51.99999999999999</ele><time>2026-04-18T18:31:45.628Z</time></trkpt><trkpt lat="10.1941053" lon="-75.3447046"><ele>52.0</ele><time>2026-04-18T18:31:46.629Z</time></trkpt><trkpt lat="10.1941146" lon="-75.3447912"><ele>52.0</ele><time>2026-04-18T18:31:47.626Z</time></trkpt><trkpt lat="10.1941205" lon="-75.3448829"><ele>52.0</ele><time>2026-04-18T18:31:48.626Z</time></trkpt><trkpt lat="10.194132" lon="-75.3449754"><ele>51.99999999999999</ele><time>2026-04-18T18:31:49.628Z</time></trkpt><trkpt lat="10.1941456" lon="-75.3450629"><ele>52.0</ele><time>2026-04-18T18:31:50.626Z</time></trkpt><trkpt lat="10.194161" lon="-75.3451565"><ele>51.8</ele><time>2026-04-18T18:31:51.624Z</time></trkpt><trkpt lat="10.1941638" lon="-75.3452495"><ele>51.6</ele><time>2026-04-18T18:31:52.624Z</time></trkpt><trkpt lat="10.1941707" lon="-75.3453439"><ele>51.4</ele><time>2026-04-18T18:31:53.627Z</time></trkpt><trkpt lat="10.1941791" lon="-75.345438"><ele>51.199999999999996</ele><time>2026-04-18T18:31:54.628Z</time></trkpt><trkpt lat="10.1941876" lon="-75.3455409"><ele>51.0</ele><time>2026-04-18T18:31:55.628Z</time></trkpt><trkpt lat="10.1941963" lon="-75.3456459"><ele>50.8</ele><time>2026-04-18T18:31:56.632Z</time></trkpt><trkpt lat="10.1942024" lon="-75.3457465"><ele>50.599999999999994</ele><time>2026-04-18T18:31:57.628Z</time></trkpt><trkpt lat="10.1942094" lon="-75.3458505"><ele>50.4</ele><time>2026-04-18T18:31:58.631Z</time></trkpt><trkpt lat="10.1942133" lon="-75.3459499"><ele>50.2</ele><time>2026-04-18T18:31:59.63Z</time></trkpt><trkpt lat="10.1942221" lon="-75.3460548"><ele>50.0</ele><time>2026-04-18T18:32:00.627Z</time></trkpt><trkpt lat="10.194236" lon="-75.3461564"><ele>50.0</ele><time>2026-04-18T18:32:01.626Z</time></trkpt><trkpt lat="10.1942443" lon="-75.3462594"><ele>50.0</ele><time>2026-04-18T18:32:02.626Z</time></trkpt><trkpt lat="10.1942513" lon="-75.346359"><ele>50.0</ele><time>2026-04-18T18:32:03.626Z</time></trkpt><trkpt lat="10.1942596" lon="-75.3464588"><ele>50.0</ele><time>2026-04-18T18:32:04.626Z</time></trkpt><trkpt lat="10.1942694" lon="-75.3465548"><ele>50.0</ele><time>2026-04-18T18:32:05.635Z</time></trkpt><trkpt lat="10.1942776" lon="-75.3466521"><ele>49.6</ele><time>2026-04-18T18:32:06.626Z</time></trkpt><trkpt lat="10.1942867" lon="-75.3467549"><ele>49.2</ele><time>2026-04-18T18:32:07.637Z</time></trkpt><trkpt lat="10.1942979" lon="-75.3468506"><ele>48.8</ele><time>2026-04-18T18:32:08.629Z</time></trkpt><trkpt lat="10.1943049" lon="-75.3469595"><ele>48.4</ele><time>2026-04-18T18:32:09.629Z</time></trkpt><trkpt lat="10.1943158" lon="-75.3470645"><ele>48.0</ele><time>2026-04-18T18:32:10.624Z</time></trkpt><trkpt lat="10.1943235" lon="-75.3471672"><ele>47.599999999999994</ele><time>2026-04-18T18:32:11.625Z</time></trkpt><trkpt lat="10.1943331" lon="-75.3472673"><ele>47.199999999999996</ele><time>2026-04-18T18:32:12.626Z</time></trkpt><trkpt lat="10.1943421" lon="-75.3473647"><ele>46.8</ele><time>2026-04-18T18:32:13.623Z</time></trkpt><trkpt lat="10.1943507" lon="-75.3474644"><ele>46.4</ele><time>2026-04-18T18:32:14.632Z</time></trkpt><trkpt lat="10.1943695" lon="-75.3475645"><ele>46.0</ele><time>2026-04-18T18:32:15.629Z</time></trkpt><trkpt lat="10.1943799" lon="-75.3476601"><ele>46.0</ele><time>2026-04-18T18:32:16.625Z</time></trkpt><trkpt lat="10.1943868" lon="-75.347752"><ele>46.0</ele><time>2026-04-18T18:32:17.627Z</time></trkpt><trkpt lat="10.1943952" lon="-75.3478463"><ele>46.0</ele><time>2026-04-18T18:32:18.63Z</time></trkpt><trkpt lat="10.1944068" lon="-75.3479433"><ele>46.0</ele><time>2026-04-18T18:32:19.628Z</time></trkpt><trkpt lat="10.1944235" lon="-75.3480384"><ele>46.0</ele><time>2026-04-18T18:32:20.629Z</time></trkpt><trkpt lat="10.1944348" lon="-75.3481314"><ele>46.199999999999996</ele><time>2026-04-18T18:32:21.625Z</time></trkpt><trkpt lat="10.194443" lon="-75.3482272"><ele>46.4</ele><time>2026-04-18T18:32:22.632Z</time></trkpt><trkpt lat="10.1944514" lon="-75.3483231"><ele>46.6</ele><time>2026-04-18T18:32:23.631Z</time></trkpt><trkpt lat="10.1944598" lon="-75.3484197"><ele>46.8</ele><time>2026-04-18T18:32:24.624Z</time></trkpt><trkpt lat="10.1944694" lon="-75.3485148"><ele>47.0</ele><time>2026-04-18T18:32:25.627Z</time></trkpt><trkpt lat="10.1944786" lon="-75.3486145"><ele>47.0</ele><time>2026-04-18T18:32:26.63Z</time></trkpt><trkpt lat="10.1944873" lon="-75.3487149"><ele>47.0</ele><time>2026-04-18T18:32:27.63Z</time></trkpt><trkpt lat="10.1944947" lon="-75.3488144"><ele>47.0</ele><time>2026-04-18T18:32:28.633Z</time></trkpt><trkpt lat="10.1945045" lon="-75.3489179"><ele>47.0</ele><time>2026-04-18T18:32:29.626Z</time></trkpt><trkpt lat="10.1945136" lon="-75.3490172"><ele>47.0</ele><time>2026-04-18T18:32:30.628Z</time></trkpt><trkpt lat="10.1945233" lon="-75.3491181"><ele>47.6</ele><time>2026-04-18T18:32:31.626Z</time></trkpt><trkpt lat="10.1945336" lon="-75.3492167"><ele>48.2</ele><time>2026-04-18T18:32:32.626Z</time></trkpt><trkpt lat="10.194545" lon="-75.349315"><ele>48.8</ele><time>2026-04-18T18:32:33.629Z</time></trkpt><trkpt lat="10.1945528" lon="-75.3494137"><ele>49.4</ele><time>2026-04-18T18:32:34.626Z</time></trkpt><trkpt lat="10.1945619" lon="-75.3495074"><ele>50.0</ele><time>2026-04-18T18:32:35.631Z</time></trkpt><trkpt lat="10.1945721" lon="-75.3496076"><ele>50.0</ele><time>2026-04-18T18:32:36.628Z</time></trkpt><trkpt lat="10.1945826" lon="-75.3497059"><ele>50.0</ele><time>2026-04-18T18:32:37.634Z</time></trkpt><trkpt lat="10.1945961" lon="-75.349797"><ele>50.0</ele><time>2026-04-18T18:32:38.632Z</time></trkpt><trkpt lat="10.1946074" lon="-75.3498975"><ele>50.0</ele><time>2026-04-18T18:32:39.63Z</time></trkpt><trkpt lat="10.1946143" lon="-75.3499943"><ele>50.0</ele><time>2026-04-18T18:32:40.627Z</time></trkpt><trkpt lat="10.1946242" lon="-75.3500938"><ele>50.0</ele><time>2026-04-18T18:32:41.626Z</time></trkpt><trkpt lat="10.1946338" lon="-75.3501932"><ele>50.0</ele><time>2026-04-18T18:32:42.625Z</time></trkpt><trkpt lat="10.1946416" lon="-75.3502886"><ele>50.0</ele><time>2026-04-18T18:32:43.627Z</time></trkpt><trkpt lat="10.1946518" lon="-75.3503932"><ele>50.0</ele><time>2026-04-18T18:32:44.627Z</time></trkpt><trkpt lat="10.1946604" lon="-75.3504883"><ele>50.0</ele><time>2026-04-18T18:32:45.622Z</time></trkpt><trkpt lat="10.194672" lon="-75.3505894"><ele>50.0</ele><time>2026-04-18T18:32:46.625Z</time></trkpt><trkpt lat="10.194688" lon="-75.3506912"><ele>50.0</ele><time>2026-04-18T18:32:47.623Z</time></trkpt><trkpt lat="10.1946976" lon="-75.3507919"><ele>50.0</ele><time>2026-04-18T18:32:48.624Z</time></trkpt><trkpt lat="10.1947059" lon="-75.3508904"><ele>50.0</ele><time>2026-04-18T18:32:49.625Z</time></trkpt><trkpt lat="10.1947172" lon="-75.3509919"><ele>50.0</ele><time>2026-04-18T18:32:50.626Z</time></trkpt><trkpt lat="10.1947332" lon="-75.3510901"><ele>50.0</ele><time>2026-04-18T18:32:51.625Z</time></trkpt><trkpt lat="10.1947434" lon="-75.351189"><ele>50.0</ele><time>2026-04-18T18:32:52.626Z</time></trkpt><trkpt lat="10.1947557" lon="-75.3512919"><ele>50.0</ele><time>2026-04-18T18:32:53.626Z</time></trkpt><trkpt lat="10.1947663" lon="-75.351388"><ele>50.0</ele><time>2026-04-18T18:32:54.627Z</time></trkpt><trkpt lat="10.1947775" lon="-75.3514849"><ele>50.0</ele><time>2026-04-18T18:32:55.631Z</time></trkpt><trkpt lat="10.194787" lon="-75.3515797"><ele>49.4</ele><time>2026-04-18T18:32:56.629Z</time></trkpt><trkpt lat="10.194802" lon="-75.3516796"><ele>48.8</ele><time>2026-04-18T18:32:57.629Z</time></trkpt><trkpt lat="10.1948091" lon="-75.3517722"><ele>48.2</ele><time>2026-04-18T18:32:58.626Z</time></trkpt><trkpt lat="10.1948186" lon="-75.351869"><ele>47.6</ele><time>2026-04-18T18:32:59.626Z</time></trkpt><trkpt lat="10.1948273" lon="-75.3519654"><ele>47.0</ele><time>2026-04-18T18:33:00.627Z</time></trkpt><trkpt lat="10.1948355" lon="-75.3520633"><ele>47.0</ele><time>2026-04-18T18:33:01.634Z</time></trkpt><trkpt lat="10.1948448" lon="-75.35216"><ele>47.0</ele><time>2026-04-18T18:33:02.628Z</time></trkpt><trkpt lat="10.1948569" lon="-75.3522594"><ele>47.0</ele><time>2026-04-18T18:33:03.626Z</time></trkpt><trkpt lat="10.1948621" lon="-75.3523567"><ele>47.0</ele><time>2026-04-18T18:33:04.626Z</time></trkpt><trkpt lat="10.1948669" lon="-75.3524435"><ele>47.0</ele><time>2026-04-18T18:33:05.633Z</time></trkpt><trkpt lat="10.1948748" lon="-75.3525384"><ele>46.6</ele><time>2026-04-18T18:33:06.631Z</time></trkpt><trkpt lat="10.194883" lon="-75.352635"><ele>46.2</ele><time>2026-04-18T18:33:07.628Z</time></trkpt><trkpt lat="10.1948927" lon="-75.3527267"><ele>45.8</ele><time>2026-04-18T18:33:08.636Z</time></trkpt><trkpt lat="10.1949" lon="-75.3528206"><ele>45.4</ele><time>2026-04-18T18:33:09.629Z</time></trkpt><trkpt lat="10.1949072" lon="-75.3529166"><ele>45.0</ele><time>2026-04-18T18:33:10.629Z</time></trkpt><trkpt lat="10.194924" lon="-75.3530089"><ele>45.4</ele><time>2026-04-18T18:33:11.628Z</time></trkpt><trkpt lat="10.1949332" lon="-75.3531044"><ele>45.8</ele><time>2026-04-18T18:33:12.629Z</time></trkpt><trkpt lat="10.1949422" lon="-75.3532003"><ele>46.2</ele><time>2026-04-18T18:33:13.626Z</time></trkpt><trkpt lat="10.1949536" lon="-75.3533039"><ele>46.6</ele><time>2026-04-18T18:33:14.63Z</time></trkpt><trkpt lat="10.1949624" lon="-75.3534022"><ele>47.0</ele><time>2026-04-18T18:33:15.627Z</time></trkpt><trkpt lat="10.1949722" lon="-75.3535016"><ele>47.0</ele><time>2026-04-18T18:33:16.628Z</time></trkpt><trkpt lat="10.1949826" lon="-75.3536027"><ele>47.0</ele><time>2026-04-18T18:33:17.631Z</time></trkpt><trkpt lat="10.1949877" lon="-75.3537062"><ele>47.0</ele><time>2026-04-18T18:33:18.624Z</time></trkpt><trkpt lat="10.194996" lon="-75.3538085"><ele>47.0</ele><time>2026-04-18T18:33:19.626Z</time></trkpt><trkpt lat="10.1950035" lon="-75.3539131"><ele>47.0</ele><time>2026-04-18T18:33:20.629Z</time></trkpt><trkpt lat="10.1950144" lon="-75.3540217"><ele>46.6</ele><time>2026-04-18T18:33:21.625Z</time></trkpt><trkpt lat="10.1950245" lon="-75.3541251"><ele>46.2</ele><time>2026-04-18T18:33:22.622Z</time></trkpt><trkpt lat="10.1950351" lon="-75.3542326"><ele>45.8</ele><time>2026-04-18T18:33:23.626Z</time></trkpt><trkpt lat="10.1950508" lon="-75.354341"><ele>45.4</ele><time>2026-04-18T18:33:24.631Z</time></trkpt><trkpt lat="10.1950634" lon="-75.3544451"><ele>45.0</ele><time>2026-04-18T18:33:25.626Z</time></trkpt><trkpt lat="10.1950763" lon="-75.354547"><ele>45.0</ele><time>2026-04-18T18:33:26.625Z</time></trkpt><trkpt lat="10.1950865" lon="-75.3546502"><ele>45.0</ele><time>2026-04-18T18:33:27.627Z</time></trkpt><trkpt lat="10.1951013" lon="-75.354756"><ele>45.0</ele><time>2026-04-18T18:33:28.63Z</time></trkpt><trkpt lat="10.1951136" lon="-75.3548603"><ele>45.0</ele><time>2026-04-18T18:33:29.624Z</time></trkpt><trkpt lat="10.1951247" lon="-75.3549585"><ele>45.0</ele><time>2026-04-18T18:33:30.629Z</time></trkpt><trkpt lat="10.195137" lon="-75.355061"><ele>44.8</ele><time>2026-04-18T18:33:31.628Z</time></trkpt><trkpt lat="10.1951502" lon="-75.3551655"><ele>44.6</ele><time>2026-04-18T18:33:32.628Z</time></trkpt><trkpt lat="10.1951613" lon="-75.3552646"><ele>44.400000000000006</ele><time>2026-04-18T18:33:33.637Z</time></trkpt><trkpt lat="10.1951722" lon="-75.3553658"><ele>44.2</ele><time>2026-04-18T18:33:34.63Z</time></trkpt><trkpt lat="10.1951828" lon="-75.3554662"><ele>44.0</ele><time>2026-04-18T18:33:35.629Z</time></trkpt><trkpt lat="10.1951944" lon="-75.3555629"><ele>43.6</ele><time>2026-04-18T18:33:36.626Z</time></trkpt><trkpt lat="10.195204" lon="-75.3556611"><ele>43.2</ele><time>2026-04-18T18:33:37.626Z</time></trkpt><trkpt lat="10.1952124" lon="-75.3557584"><ele>42.800000000000004</ele><time>2026-04-18T18:33:38.627Z</time></trkpt><trkpt lat="10.1952218" lon="-75.3558605"><ele>42.400000000000006</ele><time>2026-04-18T18:33:39.627Z</time></trkpt><trkpt lat="10.1952316" lon="-75.3559611"><ele>42.0</ele><time>2026-04-18T18:33:40.631Z</time></trkpt><trkpt lat="10.1952405" lon="-75.3560604"><ele>42.0</ele><time>2026-04-18T18:33:41.627Z</time></trkpt><trkpt lat="10.1952487" lon="-75.3561593"><ele>42.0</ele><time>2026-04-18T18:33:42.628Z</time></trkpt><trkpt lat="10.1952574" lon="-75.3562605"><ele>42.0</ele><time>2026-04-18T18:33:43.626Z</time></trkpt><trkpt lat="10.1952811" lon="-75.3563558"><ele>42.0</ele><time>2026-04-18T18:33:44.626Z</time></trkpt><trkpt lat="10.1952985" lon="-75.3564522"><ele>42.0</ele><time>2026-04-18T18:33:45.628Z</time></trkpt><trkpt lat="10.1953081" lon="-75.3565492"><ele>41.8</ele><time>2026-04-18T18:33:46.628Z</time></trkpt><trkpt lat="10.1953185" lon="-75.3566484"><ele>41.6</ele><time>2026-04-18T18:33:47.626Z</time></trkpt><trkpt lat="10.1953272" lon="-75.3567459"><ele>41.4</ele><time>2026-04-18T18:33:48.628Z</time></trkpt><trkpt lat="10.1953369" lon="-75.3568458"><ele>41.199999999999996</ele><time>2026-04-18T18:33:49.628Z</time></trkpt><trkpt lat="10.1953487" lon="-75.3569458"><ele>41.0</ele><time>2026-04-18T18:33:50.622Z</time></trkpt><trkpt lat="10.195356" lon="-75.3570479"><ele>41.0</ele><time>2026-04-18T18:33:51.627Z</time></trkpt><trkpt lat="10.1953689" lon="-75.3571445"><ele>41.0</ele><time>2026-04-18T18:33:52.627Z</time></trkpt><trkpt lat="10.1953765" lon="-75.3572485"><ele>41.0</ele><time>2026-04-18T18:33:53.627Z</time></trkpt><trkpt lat="10.1953907" lon="-75.3573389"><ele>41.0</ele><time>2026-04-18T18:33:54.626Z</time></trkpt><trkpt lat="10.1954036" lon="-75.3574397"><ele>41.0</ele><time>2026-04-18T18:33:55.627Z</time></trkpt><trkpt lat="10.1954175" lon="-75.3575352"><ele>41.0</ele><time>2026-04-18T18:33:56.624Z</time></trkpt><trkpt lat="10.1954316" lon="-75.3576323"><ele>41.0</ele><time>2026-04-18T18:33:57.629Z</time></trkpt><trkpt lat="10.195447" lon="-75.3577278"><ele>41.0</ele><time>2026-04-18T18:33:58.634Z</time></trkpt><trkpt lat="10.1954642" lon="-75.3578256"><ele>41.0</ele><time>2026-04-18T18:33:59.631Z</time></trkpt><trkpt lat="10.1954805" lon="-75.3579251"><ele>41.0</ele><time>2026-04-18T18:34:00.633Z</time></trkpt><trkpt lat="10.1954961" lon="-75.3580247"><ele>40.599999999999994</ele><time>2026-04-18T18:34:01.628Z</time></trkpt><trkpt lat="10.1955117" lon="-75.3581207"><ele>40.199999999999996</ele><time>2026-04-18T18:34:02.629Z</time></trkpt><trkpt lat="10.1955282" lon="-75.3582207"><ele>39.8</ele><time>2026-04-18T18:34:03.627Z</time></trkpt><trkpt lat="10.1955448" lon="-75.3583177"><ele>39.4</ele><time>2026-04-18T18:34:04.628Z</time></trkpt><trkpt lat="10.1955624" lon="-75.3584177"><ele>39.0</ele><time>2026-04-18T18:34:05.629Z</time></trkpt><trkpt lat="10.1955812" lon="-75.3585152"><ele>39.0</ele><time>2026-04-18T18:34:06.629Z</time></trkpt><trkpt lat="10.1955995" lon="-75.3586111"><ele>39.0</ele><time>2026-04-18T18:34:07.632Z</time></trkpt><trkpt lat="10.1956224" lon="-75.3587103"><ele>39.0</ele><time>2026-04-18T18:34:08.632Z</time></trkpt><trkpt lat="10.1956427" lon="-75.3588078"><ele>39.0</ele><time>2026-04-18T18:34:09.627Z</time></trkpt><trkpt lat="10.1956614" lon="-75.35891"><ele>39.0</ele><time>2026-04-18T18:34:10.631Z</time></trkpt><trkpt lat="10.1956793" lon="-75.359009"><ele>39.4</ele><time>2026-04-18T18:34:11.626Z</time></trkpt><trkpt lat="10.1956977" lon="-75.3591125"><ele>39.8</ele><time>2026-04-18T18:34:12.625Z</time></trkpt><trkpt lat="10.1957189" lon="-75.3592088"><ele>40.199999999999996</ele><time>2026-04-18T18:34:13.626Z</time></trkpt><trkpt lat="10.1957356" lon="-75.3593084"><ele>40.599999999999994</ele><time>2026-04-18T18:34:14.627Z</time></trkpt><trkpt lat="10.1957532" lon="-75.3594119"><ele>41.0</ele><time>2026-04-18T18:34:15.626Z</time></trkpt><trkpt lat="10.195771" lon="-75.3595098"><ele>41.0</ele><time>2026-04-18T18:34:16.624Z</time></trkpt><trkpt lat="10.1957915" lon="-75.3596115"><ele>41.0</ele><time>2026-04-18T18:34:17.626Z</time></trkpt><trkpt lat="10.1958107" lon="-75.3597125"><ele>41.0</ele><time>2026-04-18T18:34:18.628Z</time></trkpt><trkpt lat="10.1958224" lon="-75.3598138"><ele>41.0</ele><time>2026-04-18T18:34:19.628Z</time></trkpt><trkpt lat="10.1958377" lon="-75.3599162"><ele>41.0</ele><time>2026-04-18T18:34:20.628Z</time></trkpt><trkpt lat="10.1958501" lon="-75.3600195"><ele>40.4</ele><time>2026-04-18T18:34:21.624Z</time></trkpt><trkpt lat="10.1958597" lon="-75.3601248"><ele>39.8</ele><time>2026-04-18T18:34:22.627Z</time></trkpt><trkpt lat="10.1958734" lon="-75.3602325"><ele>39.199999999999996</ele><time>2026-04-18T18:34:23.626Z</time></trkpt><trkpt lat="10.1958838" lon="-75.3603378"><ele>38.599999999999994</ele><time>2026-04-18T18:34:24.629Z</time></trkpt><trkpt lat="10.195893" lon="-75.3604431"><ele>38.0</ele><time>2026-04-18T18:34:25.627Z</time></trkpt><trkpt lat="10.1959006" lon="-75.3605508"><ele>37.8</ele><time>2026-04-18T18:34:26.624Z</time></trkpt><trkpt lat="10.1959066" lon="-75.3606574"><ele>37.599999999999994</ele><time>2026-04-18T18:34:27.624Z</time></trkpt><trkpt lat="10.195912" lon="-75.3607652"><ele>37.400000000000006</ele><time>2026-04-18T18:34:28.626Z</time></trkpt><trkpt lat="10.1959143" lon="-75.360876"><ele>37.2</ele><time>2026-04-18T18:34:29.63Z</time></trkpt><trkpt lat="10.1959173" lon="-75.3609792"><ele>37.0</ele><time>2026-04-18T18:34:30.623Z</time></trkpt><trkpt lat="10.1959195" lon="-75.3610895"><ele>37.0</ele><time>2026-04-18T18:34:31.622Z</time></trkpt><trkpt lat="10.1959185" lon="-75.3612007"><ele>37.0</ele><time>2026-04-18T18:34:32.621Z</time></trkpt><trkpt lat="10.1959209" lon="-75.3613089"><ele>37.0</ele><time>2026-04-18T18:34:33.624Z</time></trkpt><trkpt lat="10.1959239" lon="-75.3614175"><ele>37.0</ele><time>2026-04-18T18:34:34.624Z</time></trkpt><trkpt lat="10.1959303" lon="-75.3615213"><ele>37.0</ele><time>2026-04-18T18:34:35.631Z</time></trkpt><trkpt lat="10.1959361" lon="-75.3616271"><ele>36.800000000000004</ele><time>2026-04-18T18:34:36.632Z</time></trkpt><trkpt lat="10.195938" lon="-75.3617335"><ele>36.6</ele><time>2026-04-18T18:34:37.631Z</time></trkpt><trkpt lat="10.1959398" lon="-75.3618349"><ele>36.400000000000006</ele><time>2026-04-18T18:34:38.63Z</time></trkpt><trkpt lat="10.1959432" lon="-75.3619388"><ele>36.2</ele><time>2026-04-18T18:34:39.626Z</time></trkpt><trkpt lat="10.1959432" lon="-75.3620449"><ele>36.0</ele><time>2026-04-18T18:34:40.624Z</time></trkpt><trkpt lat="10.1959412" lon="-75.362141"><ele>36.2</ele><time>2026-04-18T18:34:41.627Z</time></trkpt><trkpt lat="10.1959402" lon="-75.3622427"><ele>36.400000000000006</ele><time>2026-04-18T18:34:42.624Z</time></trkpt><trkpt lat="10.1959463" lon="-75.362349"><ele>36.6</ele><time>2026-04-18T18:34:43.628Z</time></trkpt><trkpt lat="10.1959501" lon="-75.3624516"><ele>36.800000000000004</ele><time>2026-04-18T18:34:44.629Z</time></trkpt><trkpt lat="10.1959583" lon="-75.3625597"><ele>37.0</ele><time>2026-04-18T18:34:45.63Z</time></trkpt><trkpt lat="10.195965" lon="-75.3626671"><ele>37.0</ele><time>2026-04-18T18:34:46.631Z</time></trkpt><trkpt lat="10.1959697" lon="-75.3627767"><ele>37.0</ele><time>2026-04-18T18:34:47.635Z</time></trkpt><trkpt lat="10.1959801" lon="-75.3628868"><ele>37.0</ele><time>2026-04-18T18:34:48.622Z</time></trkpt><trkpt lat="10.1959862" lon="-75.3629963"><ele>37.0</ele><time>2026-04-18T18:34:49.624Z</time></trkpt><trkpt lat="10.1959981" lon="-75.3631005"><ele>37.0</ele><time>2026-04-18T18:34:50.623Z</time></trkpt><trkpt lat="10.1960084" lon="-75.3632069"><ele>36.800000000000004</ele><time>2026-04-18T18:34:51.622Z</time></trkpt><trkpt lat="10.1960196" lon="-75.3633179"><ele>36.6</ele><time>2026-04-18T18:34:52.621Z</time></trkpt><trkpt lat="10.1960339" lon="-75.3634311"><ele>36.400000000000006</ele><time>2026-04-18T18:34:53.624Z</time></trkpt><trkpt lat="10.196053" lon="-75.3635407"><ele>36.2</ele><time>2026-04-18T18:34:54.628Z</time></trkpt><trkpt lat="10.1960732" lon="-75.3636513"><ele>36.0</ele><time>2026-04-18T18:34:55.624Z</time></trkpt><trkpt lat="10.1960968" lon="-75.363766"><ele>36.0</ele><time>2026-04-18T18:34:56.626Z</time></trkpt><trkpt lat="10.1961192" lon="-75.3638764"><ele>36.0</ele><time>2026-04-18T18:34:57.626Z</time></trkpt><trkpt lat="10.1961431" lon="-75.3639872"><ele>36.0</ele><time>2026-04-18T18:34:58.627Z</time></trkpt><trkpt lat="10.1961692" lon="-75.3640994"><ele>36.0</ele><time>2026-04-18T18:34:59.628Z</time></trkpt><trkpt lat="10.1961965" lon="-75.3642059"><ele>36.0</ele><time>2026-04-18T18:35:00.635Z</time></trkpt><trkpt lat="10.1962251" lon="-75.3643092"><ele>36.0</ele><time>2026-04-18T18:35:01.625Z</time></trkpt><trkpt lat="10.1962567" lon="-75.3644147"><ele>36.0</ele><time>2026-04-18T18:35:02.626Z</time></trkpt><trkpt lat="10.1962896" lon="-75.3645151"><ele>36.0</ele><time>2026-04-18T18:35:03.627Z</time></trkpt><trkpt lat="10.196323" lon="-75.3646187"><ele>36.0</ele><time>2026-04-18T18:35:04.627Z</time></trkpt><trkpt lat="10.1963562" lon="-75.3647166"><ele>36.0</ele><time>2026-04-18T18:35:05.631Z</time></trkpt><trkpt lat="10.1963928" lon="-75.3648103"><ele>35.2</ele><time>2026-04-18T18:35:06.626Z</time></trkpt><trkpt lat="10.1964263" lon="-75.3649074"><ele>34.400000000000006</ele><time>2026-04-18T18:35:07.625Z</time></trkpt><trkpt lat="10.1964631" lon="-75.3650023"><ele>33.6</ele><time>2026-04-18T18:35:08.641Z</time></trkpt><trkpt lat="10.196506" lon="-75.3650926"><ele>32.800000000000004</ele><time>2026-04-18T18:35:09.624Z</time></trkpt><trkpt lat="10.1965502" lon="-75.3651847"><ele>32.0</ele><time>2026-04-18T18:35:10.627Z</time></trkpt><trkpt lat="10.1965884" lon="-75.3652805"><ele>31.8</ele><time>2026-04-18T18:35:11.626Z</time></trkpt><trkpt lat="10.1966369" lon="-75.3653686"><ele>31.6</ele><time>2026-04-18T18:35:12.633Z</time></trkpt><trkpt lat="10.1966843" lon="-75.3654593"><ele>31.400000000000002</ele><time>2026-04-18T18:35:13.624Z</time></trkpt><trkpt lat="10.1967289" lon="-75.365547"><ele>31.200000000000003</ele><time>2026-04-18T18:35:14.621Z</time></trkpt><trkpt lat="10.1967795" lon="-75.3656352"><ele>31.0</ele><time>2026-04-18T18:35:15.627Z</time></trkpt><trkpt lat="10.1968292" lon="-75.3657277"><ele>31.0</ele><time>2026-04-18T18:35:16.631Z</time></trkpt><trkpt lat="10.1968791" lon="-75.3658185"><ele>31.0</ele><time>2026-04-18T18:35:17.625Z</time></trkpt><trkpt lat="10.1969285" lon="-75.3659004"><ele>31.0</ele><time>2026-04-18T18:35:18.629Z</time></trkpt><trkpt lat="10.1969743" lon="-75.3659874"><ele>31.0</ele><time>2026-04-18T18:35:19.628Z</time></trkpt><trkpt lat="10.1970221" lon="-75.3660742"><ele>31.0</ele><time>2026-04-18T18:35:20.63Z</time></trkpt><trkpt lat="10.1970725" lon="-75.3661622"><ele>31.0</ele><time>2026-04-18T18:35:21.629Z</time></trkpt><trkpt lat="10.1971227" lon="-75.3662449"><ele>31.0</ele><time>2026-04-18T18:35:22.629Z</time></trkpt><trkpt lat="10.197171" lon="-75.3663245"><ele>31.0</ele><time>2026-04-18T18:35:23.628Z</time></trkpt><trkpt lat="10.1972196" lon="-75.3664082"><ele>31.0</ele><time>2026-04-18T18:35:24.628Z</time></trkpt><trkpt lat="10.1972663" lon="-75.3664912"><ele>31.0</ele><time>2026-04-18T18:35:25.629Z</time></trkpt><trkpt lat="10.1973139" lon="-75.3665709"><ele>31.4</ele><time>2026-04-18T18:35:26.629Z</time></trkpt><trkpt lat="10.1973604" lon="-75.3666505"><ele>31.8</ele><time>2026-04-18T18:35:27.63Z</time></trkpt><trkpt lat="10.1974082" lon="-75.3667349"><ele>32.199999999999996</ele><time>2026-04-18T18:35:28.628Z</time></trkpt><trkpt lat="10.1974538" lon="-75.3668151"><ele>32.6</ele><time>2026-04-18T18:35:29.627Z</time></trkpt><trkpt lat="10.1974994" lon="-75.3668947"><ele>33.0</ele><time>2026-04-18T18:35:30.631Z</time></trkpt><trkpt lat="10.1975466" lon="-75.3669773"><ele>33.0</ele><time>2026-04-18T18:35:31.63Z</time></trkpt><trkpt lat="10.1975958" lon="-75.3670579"><ele>33.0</ele><time>2026-04-18T18:35:32.627Z</time></trkpt><trkpt lat="10.1976463" lon="-75.3671461"><ele>33.0</ele><time>2026-04-18T18:35:33.628Z</time></trkpt><trkpt lat="10.1976991" lon="-75.367226"><ele>33.0</ele><time>2026-04-18T18:35:34.625Z</time></trkpt><trkpt lat="10.1977523" lon="-75.3673077"><ele>33.0</ele><time>2026-04-18T18:35:35.628Z</time></trkpt><trkpt lat="10.1978031" lon="-75.3673942"><ele>32.4</ele><time>2026-04-18T18:35:36.627Z</time></trkpt><trkpt lat="10.1978536" lon="-75.3674815"><ele>31.799999999999997</ele><time>2026-04-18T18:35:37.627Z</time></trkpt><trkpt lat="10.1979048" lon="-75.3675682"><ele>31.2</ele><time>2026-04-18T18:35:38.626Z</time></trkpt><trkpt lat="10.1979568" lon="-75.367653"><ele>30.6</ele><time>2026-04-18T18:35:39.627Z</time></trkpt><trkpt lat="10.1980093" lon="-75.3677378"><ele>30.0</ele><time>2026-04-18T18:35:40.628Z</time></trkpt><trkpt lat="10.1980617" lon="-75.3678272"><ele>30.0</ele><time>2026-04-18T18:35:41.63Z</time></trkpt><trkpt lat="10.1981131" lon="-75.3679178"><ele>30.0</ele><time>2026-04-18T18:35:42.631Z</time></trkpt><trkpt lat="10.198166" lon="-75.3680084"><ele>30.0</ele><time>2026-04-18T18:35:43.625Z</time></trkpt><trkpt lat="10.1982179" lon="-75.3680968"><ele>30.0</ele><time>2026-04-18T18:35:44.625Z</time></trkpt><trkpt lat="10.1982711" lon="-75.368193"><ele>30.0</ele><time>2026-04-18T18:35:45.624Z</time></trkpt><trkpt lat="10.1983246" lon="-75.3682803"><ele>30.4</ele><time>2026-04-18T18:35:46.628Z</time></trkpt><trkpt lat="10.1983811" lon="-75.3683627"><ele>30.8</ele><time>2026-04-18T18:35:47.626Z</time></trkpt><trkpt lat="10.1984323" lon="-75.3684523"><ele>31.200000000000003</ele><time>2026-04-18T18:35:48.626Z</time></trkpt><trkpt lat="10.1984855" lon="-75.3685344"><ele>31.6</ele><time>2026-04-18T18:35:49.626Z</time></trkpt><trkpt lat="10.1985316" lon="-75.3686231"><ele>32.0</ele><time>2026-04-18T18:35:50.63Z</time></trkpt><trkpt lat="10.1985786" lon="-75.3687078"><ele>32.0</ele><time>2026-04-18T18:35:51.628Z</time></trkpt><trkpt lat="10.1986266" lon="-75.3687966"><ele>32.0</ele><time>2026-04-18T18:35:52.629Z</time></trkpt><trkpt lat="10.1986708" lon="-75.3688836"><ele>32.0</ele><time>2026-04-18T18:35:53.626Z</time></trkpt><trkpt lat="10.1987205" lon="-75.3689679"><ele>32.0</ele><time>2026-04-18T18:35:54.629Z</time></trkpt><trkpt lat="10.1987698" lon="-75.3690511"><ele>32.0</ele><time>2026-04-18T18:35:55.626Z</time></trkpt><trkpt lat="10.1988177" lon="-75.369131"><ele>31.6</ele><time>2026-04-18T18:35:56.626Z</time></trkpt><trkpt lat="10.1988639" lon="-75.3692112"><ele>31.200000000000003</ele><time>2026-04-18T18:35:57.626Z</time></trkpt><trkpt lat="10.1989119" lon="-75.3692966"><ele>30.8</ele><time>2026-04-18T18:35:58.627Z</time></trkpt><trkpt lat="10.1989631" lon="-75.3693716"><ele>30.4</ele><time>2026-04-18T18:35:59.624Z</time></trkpt><trkpt lat="10.199015" lon="-75.3694553"><ele>30.0</ele><time>2026-04-18T18:36:00.63Z</time></trkpt><trkpt lat="10.1990667" lon="-75.3695371"><ele>30.0</ele><time>2026-04-18T18:36:01.626Z</time></trkpt><trkpt lat="10.1991186" lon="-75.369623"><ele>30.0</ele><time>2026-04-18T18:36:02.629Z</time></trkpt><trkpt lat="10.1991704" lon="-75.3697025"><ele>30.0</ele><time>2026-04-18T18:36:03.625Z</time></trkpt><trkpt lat="10.19922" lon="-75.3697895"><ele>30.0</ele><time>2026-04-18T18:36:04.626Z</time></trkpt><trkpt lat="10.1992695" lon="-75.369879"><ele>30.0</ele><time>2026-04-18T18:36:05.625Z</time></trkpt><trkpt lat="10.1993194" lon="-75.3699701"><ele>30.0</ele><time>2026-04-18T18:36:06.627Z</time></trkpt><trkpt lat="10.1993717" lon="-75.3700559"><ele>30.0</ele><time>2026-04-18T18:36:07.626Z</time></trkpt><trkpt lat="10.1994274" lon="-75.3701413"><ele>30.0</ele><time>2026-04-18T18:36:08.624Z</time></trkpt><trkpt lat="10.1994813" lon="-75.3702328"><ele>30.0</ele><time>2026-04-18T18:36:09.632Z</time></trkpt><trkpt lat="10.1995344" lon="-75.3703203"><ele>30.0</ele><time>2026-04-18T18:36:10.627Z</time></trkpt><trkpt lat="10.1995819" lon="-75.3704054"><ele>30.0</ele><time>2026-04-18T18:36:11.631Z</time></trkpt><trkpt lat="10.1996309" lon="-75.3704949"><ele>30.0</ele><time>2026-04-18T18:36:12.632Z</time></trkpt><trkpt lat="10.1996793" lon="-75.3705835"><ele>30.0</ele><time>2026-04-18T18:36:13.621Z</time></trkpt><trkpt lat="10.1997266" lon="-75.3706716"><ele>30.0</ele><time>2026-04-18T18:36:14.625Z</time></trkpt><trkpt lat="10.1997844" lon="-75.3707603"><ele>30.0</ele><time>2026-04-18T18:36:15.626Z</time></trkpt><trkpt lat="10.199836" lon="-75.3708495"><ele>30.6</ele><time>2026-04-18T18:36:16.622Z</time></trkpt><trkpt lat="10.1998899" lon="-75.3709337"><ele>31.2</ele><time>2026-04-18T18:36:17.623Z</time></trkpt><trkpt lat="10.199946" lon="-75.3710267"><ele>31.799999999999997</ele><time>2026-04-18T18:36:18.623Z</time></trkpt><trkpt lat="10.1999976" lon="-75.3711155"><ele>32.4</ele><time>2026-04-18T18:36:19.63Z</time></trkpt><trkpt lat="10.2000465" lon="-75.371201"><ele>33.0</ele><time>2026-04-18T18:36:20.626Z</time></trkpt><trkpt lat="10.2000942" lon="-75.3712748"><ele>33.0</ele><time>2026-04-18T18:36:21.629Z</time></trkpt><trkpt lat="10.2001429" lon="-75.3713536"><ele>33.0</ele><time>2026-04-18T18:36:22.624Z</time></trkpt><trkpt lat="10.2001879" lon="-75.3714359"><ele>33.0</ele><time>2026-04-18T18:36:23.628Z</time></trkpt><trkpt lat="10.2002361" lon="-75.3715109"><ele>33.0</ele><time>2026-04-18T18:36:24.627Z</time></trkpt><trkpt lat="10.2002817" lon="-75.3715881"><ele>33.0</ele><time>2026-04-18T18:36:25.624Z</time></trkpt><trkpt lat="10.2003274" lon="-75.371661"><ele>33.0</ele><time>2026-04-18T18:36:26.626Z</time></trkpt><trkpt lat="10.2003728" lon="-75.3717334"><ele>33.166666666666664</ele><time>2026-04-18T18:36:27.628Z</time></trkpt><trkpt lat="10.200419" lon="-75.3718089"><ele>33.333333333333336</ele><time>2026-04-18T18:36:28.62Z</time></trkpt><trkpt lat="10.2004615" lon="-75.3718885"><ele>33.5</ele><time>2026-04-18T18:36:29.626Z</time></trkpt><trkpt lat="10.2005073" lon="-75.3719608"><ele>33.66666666666667</ele><time>2026-04-18T18:36:30.626Z</time></trkpt><trkpt lat="10.200552" lon="-75.3720389"><ele>33.833333333333336</ele><time>2026-04-18T18:36:31.626Z</time></trkpt><trkpt lat="10.2005962" lon="-75.3721084"><ele>34.0</ele><time>2026-04-18T18:36:32.62Z</time></trkpt><trkpt lat="10.2006422" lon="-75.3721883"><ele>34.333333333333336</ele><time>2026-04-18T18:36:33.623Z</time></trkpt><trkpt lat="10.2006918" lon="-75.3722614"><ele>34.66666666666667</ele><time>2026-04-18T18:36:34.623Z</time></trkpt><trkpt lat="10.2007373" lon="-75.3723349"><ele>35.0</ele><time>2026-04-18T18:36:35.625Z</time></trkpt><trkpt lat="10.2007835" lon="-75.3724089"><ele>35.333333333333336</ele><time>2026-04-18T18:36:36.629Z</time></trkpt><trkpt lat="10.2008279" lon="-75.3724827"><ele>35.666666666666664</ele><time>2026-04-18T18:36:37.622Z</time></trkpt><trkpt lat="10.2008726" lon="-75.3725576"><ele>36.0</ele><time>2026-04-18T18:36:38.627Z</time></trkpt><trkpt lat="10.2009157" lon="-75.3726319"><ele>36.0</ele><time>2026-04-18T18:36:39.624Z</time></trkpt><trkpt lat="10.2009594" lon="-75.3727065"><ele>36.0</ele><time>2026-04-18T18:36:40.624Z</time></trkpt><trkpt lat="10.2010029" lon="-75.3727818"><ele>36.0</ele><time>2026-04-18T18:36:41.63Z</time></trkpt><trkpt lat="10.2010448" lon="-75.3728576"><ele>36.0</ele><time>2026-04-18T18:36:42.629Z</time></trkpt><trkpt lat="10.2010901" lon="-75.3729286"><ele>36.0</ele><time>2026-04-18T18:36:43.628Z</time></trkpt><trkpt lat="10.2011316" lon="-75.3729995"><ele>36.0</ele><time>2026-04-18T18:36:44.625Z</time></trkpt><trkpt lat="10.2011764" lon="-75.3730771"><ele>36.0</ele><time>2026-04-18T18:36:45.622Z</time></trkpt><trkpt lat="10.20122" lon="-75.3731554"><ele>36.0</ele><time>2026-04-18T18:36:46.621Z</time></trkpt><trkpt lat="10.2012626" lon="-75.3732341"><ele>36.0</ele><time>2026-04-18T18:36:47.625Z</time></trkpt><trkpt lat="10.2013148" lon="-75.3733091"><ele>36.0</ele><time>2026-04-18T18:36:48.622Z</time></trkpt><trkpt lat="10.2013603" lon="-75.373385"><ele>36.0</ele><time>2026-04-18T18:36:49.623Z</time></trkpt><trkpt lat="10.2014078" lon="-75.3734621"><ele>36.0</ele><time>2026-04-18T18:36:50.626Z</time></trkpt><trkpt lat="10.2014484" lon="-75.3735351"><ele>36.0</ele><time>2026-04-18T18:36:51.626Z</time></trkpt><trkpt lat="10.2014939" lon="-75.373607"><ele>36.0</ele><time>2026-04-18T18:36:52.622Z</time></trkpt><trkpt lat="10.2015404" lon="-75.3736744"><ele>36.0</ele><time>2026-04-18T18:36:53.625Z</time></trkpt><trkpt lat="10.2015909" lon="-75.3737374"><ele>36.0</ele><time>2026-04-18T18:36:54.624Z</time></trkpt><trkpt lat="10.2016372" lon="-75.3738125"><ele>36.0</ele><time>2026-04-18T18:36:55.627Z</time></trkpt><trkpt lat="10.2016846" lon="-75.3738981"><ele>36.0</ele><time>2026-04-18T18:36:56.628Z</time></trkpt><trkpt lat="10.2017288" lon="-75.3739804"><ele>36.2</ele><time>2026-04-18T18:36:57.626Z</time></trkpt><trkpt lat="10.2017741" lon="-75.3740582"><ele>36.400000000000006</ele><time>2026-04-18T18:36:58.629Z</time></trkpt><trkpt lat="10.2018195" lon="-75.3741365"><ele>36.6</ele><time>2026-04-18T18:36:59.629Z</time></trkpt><trkpt lat="10.2018643" lon="-75.3742199"><ele>36.800000000000004</ele><time>2026-04-18T18:37:00.624Z</time></trkpt><trkpt lat="10.2019123" lon="-75.3742964"><ele>37.0</ele><time>2026-04-18T18:37:01.629Z</time></trkpt><trkpt lat="10.2019606" lon="-75.37438"><ele>37.0</ele><time>2026-04-18T18:37:02.626Z</time></trkpt><trkpt lat="10.2020126" lon="-75.3744633"><ele>37.0</ele><time>2026-04-18T18:37:03.625Z</time></trkpt><trkpt lat="10.2020592" lon="-75.3745442"><ele>37.0</ele><time>2026-04-18T18:37:04.625Z</time></trkpt><trkpt lat="10.2021054" lon="-75.3746195"><ele>37.0</ele><time>2026-04-18T18:37:05.628Z</time></trkpt><trkpt lat="10.2021501" lon="-75.3746987"><ele>37.0</ele><time>2026-04-18T18:37:06.626Z</time></trkpt><trkpt lat="10.2021954" lon="-75.374777"><ele>37.2</ele><time>2026-04-18T18:37:07.625Z</time></trkpt><trkpt lat="10.2022413" lon="-75.3748588"><ele>37.400000000000006</ele><time>2026-04-18T18:37:08.631Z</time></trkpt><trkpt lat="10.2022873" lon="-75.3749349"><ele>37.599999999999994</ele><time>2026-04-18T18:37:09.624Z</time></trkpt><trkpt lat="10.202335" lon="-75.3750149"><ele>37.8</ele><time>2026-04-18T18:37:10.631Z</time></trkpt><trkpt lat="10.2023821" lon="-75.3750964"><ele>38.0</ele><time>2026-04-18T18:37:11.623Z</time></trkpt><trkpt lat="10.2024304" lon="-75.3751782"><ele>38.199999999999996</ele><time>2026-04-18T18:37:12.627Z</time></trkpt><trkpt lat="10.2024792" lon="-75.37526"><ele>38.4</ele><time>2026-04-18T18:37:13.631Z</time></trkpt><trkpt lat="10.2025285" lon="-75.3753451"><ele>38.599999999999994</ele><time>2026-04-18T18:37:14.623Z</time></trkpt><trkpt lat="10.2025743" lon="-75.3754245"><ele>38.8</ele><time>2026-04-18T18:37:15.628Z</time></trkpt><trkpt lat="10.2026243" lon="-75.3755102"><ele>39.0</ele><time>2026-04-18T18:37:16.626Z</time></trkpt><trkpt lat="10.2026657" lon="-75.3756026"><ele>38.6</ele><time>2026-04-18T18:37:17.629Z</time></trkpt><trkpt lat="10.2027122" lon="-75.3756913"><ele>38.2</ele><time>2026-04-18T18:37:18.626Z</time></trkpt><trkpt lat="10.2027673" lon="-75.3757829"><ele>37.800000000000004</ele><time>2026-04-18T18:37:19.628Z</time></trkpt><trkpt lat="10.2028209" lon="-75.3758728"><ele>37.4</ele><time>2026-04-18T18:37:20.623Z</time></trkpt><trkpt lat="10.2028725" lon="-75.37596"><ele>37.0</ele><time>2026-04-18T18:37:21.625Z</time></trkpt><trkpt lat="10.202928" lon="-75.3760444"><ele>37.0</ele><time>2026-04-18T18:37:22.626Z</time></trkpt><trkpt lat="10.2029782" lon="-75.3761281"><ele>37.0</ele><time>2026-04-18T18:37:23.623Z</time></trkpt><trkpt lat="10.2030303" lon="-75.3762135"><ele>37.0</ele><time>2026-04-18T18:37:24.625Z</time></trkpt><trkpt lat="10.2030788" lon="-75.376299"><ele>37.0</ele><time>2026-04-18T18:37:25.623Z</time></trkpt><trkpt lat="10.2031284" lon="-75.3763883"><ele>37.0</ele><time>2026-04-18T18:37:26.624Z</time></trkpt><trkpt lat="10.203176" lon="-75.3764709"><ele>36.4</ele><time>2026-04-18T18:37:27.624Z</time></trkpt><trkpt lat="10.2032287" lon="-75.376555"><ele>35.800000000000004</ele><time>2026-04-18T18:37:28.624Z</time></trkpt><trkpt lat="10.2032787" lon="-75.3766377"><ele>35.2</ele><time>2026-04-18T18:37:29.632Z</time></trkpt><trkpt lat="10.203335" lon="-75.376716"><ele>34.6</ele><time>2026-04-18T18:37:30.631Z</time></trkpt><trkpt lat="10.2033851" lon="-75.3767996"><ele>34.0</ele><time>2026-04-18T18:37:31.628Z</time></trkpt><trkpt lat="10.2034362" lon="-75.3768861"><ele>34.0</ele><time>2026-04-18T18:37:32.626Z</time></trkpt><trkpt lat="10.2034867" lon="-75.3769715"><ele>34.0</ele><time>2026-04-18T18:37:33.628Z</time></trkpt><trkpt lat="10.2035367" lon="-75.3770552"><ele>34.0</ele><time>2026-04-18T18:37:34.629Z</time></trkpt><trkpt lat="10.2035904" lon="-75.3771368"><ele>34.0</ele><time>2026-04-18T18:37:35.631Z</time></trkpt><trkpt lat="10.2036459" lon="-75.3772256"><ele>34.0</ele><time>2026-04-18T18:37:36.625Z</time></trkpt><trkpt lat="10.2037015" lon="-75.377314"><ele>33.8</ele><time>2026-04-18T18:37:37.631Z</time></trkpt><trkpt lat="10.2037566" lon="-75.3774073"><ele>33.599999999999994</ele><time>2026-04-18T18:37:38.628Z</time></trkpt><trkpt lat="10.2038121" lon="-75.3775049"><ele>33.4</ele><time>2026-04-18T18:37:39.627Z</time></trkpt><trkpt lat="10.2038678" lon="-75.3775974"><ele>33.199999999999996</ele><time>2026-04-18T18:37:40.627Z</time></trkpt><trkpt lat="10.2039216" lon="-75.3776905"><ele>33.0</ele><time>2026-04-18T18:37:41.623Z</time></trkpt><trkpt lat="10.2039735" lon="-75.377785"><ele>33.0</ele><time>2026-04-18T18:37:42.62Z</time></trkpt><trkpt lat="10.2040264" lon="-75.3778773"><ele>33.0</ele><time>2026-04-18T18:37:43.626Z</time></trkpt><trkpt lat="10.2040792" lon="-75.3779701"><ele>33.0</ele><time>2026-04-18T18:37:44.622Z</time></trkpt><trkpt lat="10.2041354" lon="-75.3780587"><ele>33.0</ele><time>2026-04-18T18:37:45.624Z</time></trkpt><trkpt lat="10.2041879" lon="-75.3781464"><ele>33.0</ele><time>2026-04-18T18:37:46.625Z</time></trkpt><trkpt lat="10.2042409" lon="-75.3782382"><ele>33.0</ele><time>2026-04-18T18:37:47.628Z</time></trkpt><trkpt lat="10.2042975" lon="-75.3783281"><ele>33.0</ele><time>2026-04-18T18:37:48.623Z</time></trkpt><trkpt lat="10.2043531" lon="-75.3784161"><ele>33.0</ele><time>2026-04-18T18:37:49.624Z</time></trkpt><trkpt lat="10.2044061" lon="-75.3785045"><ele>33.0</ele><time>2026-04-18T18:37:50.622Z</time></trkpt><trkpt lat="10.2044603" lon="-75.3785918"><ele>33.0</ele><time>2026-04-18T18:37:51.622Z</time></trkpt><trkpt lat="10.2045118" lon="-75.3786785"><ele>33.0</ele><time>2026-04-18T18:37:52.625Z</time></trkpt><trkpt lat="10.2045655" lon="-75.3787671"><ele>33.0</ele><time>2026-04-18T18:37:53.622Z</time></trkpt><trkpt lat="10.20462" lon="-75.3788595"><ele>33.0</ele><time>2026-04-18T18:37:54.623Z</time></trkpt><trkpt lat="10.2046719" lon="-75.3789478"><ele>33.0</ele><time>2026-04-18T18:37:55.624Z</time></trkpt><trkpt lat="10.2047248" lon="-75.37904"><ele>33.0</ele><time>2026-04-18T18:37:56.624Z</time></trkpt><trkpt lat="10.2047761" lon="-75.3791237"><ele>33.0</ele><time>2026-04-18T18:37:57.629Z</time></trkpt><trkpt lat="10.2048273" lon="-75.3792146"><ele>33.0</ele><time>2026-04-18T18:37:58.623Z</time></trkpt><trkpt lat="10.2048811" lon="-75.379302"><ele>33.0</ele><time>2026-04-18T18:37:59.625Z</time></trkpt><trkpt lat="10.2049338" lon="-75.3793906"><ele>33.0</ele><time>2026-04-18T18:38:00.626Z</time></trkpt><trkpt lat="10.2049908" lon="-75.3794786"><ele>33.0</ele><time>2026-04-18T18:38:01.623Z</time></trkpt><trkpt lat="10.2050432" lon="-75.3795699"><ele>33.0</ele><time>2026-04-18T18:38:02.622Z</time></trkpt><trkpt lat="10.2050977" lon="-75.3796621"><ele>33.0</ele><time>2026-04-18T18:38:03.625Z</time></trkpt><trkpt lat="10.2051515" lon="-75.3797563"><ele>33.0</ele><time>2026-04-18T18:38:04.627Z</time></trkpt><trkpt lat="10.2052049" lon="-75.3798443"><ele>33.0</ele><time>2026-04-18T18:38:05.627Z</time></trkpt><trkpt lat="10.2052574" lon="-75.3799343"><ele>33.0</ele><time>2026-04-18T18:38:06.63Z</time></trkpt><trkpt lat="10.205311" lon="-75.380023"><ele>33.199999999999996</ele><time>2026-04-18T18:38:07.628Z</time></trkpt><trkpt lat="10.2053627" lon="-75.3801177"><ele>33.4</ele><time>2026-04-18T18:38:08.627Z</time></trkpt><trkpt lat="10.2054164" lon="-75.3802074"><ele>33.599999999999994</ele><time>2026-04-18T18:38:09.627Z</time></trkpt><trkpt lat="10.2054705" lon="-75.3803"><ele>33.8</ele><time>2026-04-18T18:38:10.624Z</time></trkpt><trkpt lat="10.2055251" lon="-75.3803909"><ele>34.0</ele><time>2026-04-18T18:38:11.629Z</time></trkpt><trkpt lat="10.2055801" lon="-75.380478"><ele>34.2</ele><time>2026-04-18T18:38:12.63Z</time></trkpt><trkpt lat="10.2056359" lon="-75.3805612"><ele>34.4</ele><time>2026-04-18T18:38:13.628Z</time></trkpt><trkpt lat="10.2056881" lon="-75.380652"><ele>34.6</ele><time>2026-04-18T18:38:14.626Z</time></trkpt><trkpt lat="10.2057411" lon="-75.3807439"><ele>34.8</ele><time>2026-04-18T18:38:15.632Z</time></trkpt><trkpt lat="10.2057964" lon="-75.3808273"><ele>35.0</ele><time>2026-04-18T18:38:16.622Z</time></trkpt><trkpt lat="10.2058566" lon="-75.3809169"><ele>34.6</ele><time>2026-04-18T18:38:17.626Z</time></trkpt><trkpt lat="10.205908" lon="-75.3810121"><ele>34.2</ele><time>2026-04-18T18:38:18.626Z</time></trkpt><trkpt lat="10.2059608" lon="-75.3811037"><ele>33.8</ele><time>2026-04-18T18:38:19.625Z</time></trkpt><trkpt lat="10.206019" lon="-75.3811965"><ele>33.4</ele><time>2026-04-18T18:38:20.625Z</time></trkpt><trkpt lat="10.2060719" lon="-75.3812877"><ele>33.0</ele><time>2026-04-18T18:38:21.632Z</time></trkpt><trkpt lat="10.2061337" lon="-75.3813762"><ele>33.0</ele><time>2026-04-18T18:38:22.626Z</time></trkpt><trkpt lat="10.2061836" lon="-75.381463"><ele>33.0</ele><time>2026-04-18T18:38:23.626Z</time></trkpt><trkpt lat="10.2062371" lon="-75.3815447"><ele>33.0</ele><time>2026-04-18T18:38:24.629Z</time></trkpt><trkpt lat="10.2062871" lon="-75.3816313"><ele>33.0</ele><time>2026-04-18T18:38:25.624Z</time></trkpt><trkpt lat="10.2063377" lon="-75.381719"><ele>33.0</ele><time>2026-04-18T18:38:26.625Z</time></trkpt><trkpt lat="10.2063906" lon="-75.3817972"><ele>33.0</ele><time>2026-04-18T18:38:27.626Z</time></trkpt><trkpt lat="10.2064434" lon="-75.3818854"><ele>33.0</ele><time>2026-04-18T18:38:28.629Z</time></trkpt><trkpt lat="10.2064968" lon="-75.3819644"><ele>33.0</ele><time>2026-04-18T18:38:29.626Z</time></trkpt><trkpt lat="10.2065499" lon="-75.3820505"><ele>33.0</ele><time>2026-04-18T18:38:30.63Z</time></trkpt><trkpt lat="10.2066018" lon="-75.3821327"><ele>33.0</ele><time>2026-04-18T18:38:31.628Z</time></trkpt><trkpt lat="10.2066534" lon="-75.3822206"><ele>33.0</ele><time>2026-04-18T18:38:32.628Z</time></trkpt><trkpt lat="10.2067078" lon="-75.3823025"><ele>33.0</ele><time>2026-04-18T18:38:33.626Z</time></trkpt><trkpt lat="10.2067596" lon="-75.3823915"><ele>33.0</ele><time>2026-04-18T18:38:34.626Z</time></trkpt><trkpt lat="10.2068155" lon="-75.3824804"><ele>33.0</ele><time>2026-04-18T18:38:35.628Z</time></trkpt><trkpt lat="10.2068688" lon="-75.3825693"><ele>33.0</ele><time>2026-04-18T18:38:36.627Z</time></trkpt><trkpt lat="10.2069245" lon="-75.3826635"><ele>33.0</ele><time>2026-04-18T18:38:37.631Z</time></trkpt><trkpt lat="10.2069743" lon="-75.3827572"><ele>33.0</ele><time>2026-04-18T18:38:38.631Z</time></trkpt><trkpt lat="10.2070272" lon="-75.3828446"><ele>33.0</ele><time>2026-04-18T18:38:39.626Z</time></trkpt><trkpt lat="10.2070807" lon="-75.3829373"><ele>33.0</ele><time>2026-04-18T18:38:40.631Z</time></trkpt><trkpt lat="10.2071356" lon="-75.3830276"><ele>33.0</ele><time>2026-04-18T18:38:41.631Z</time></trkpt><trkpt lat="10.207187" lon="-75.383117"><ele>33.4</ele><time>2026-04-18T18:38:42.626Z</time></trkpt><trkpt lat="10.2072391" lon="-75.3831943"><ele>33.8</ele><time>2026-04-18T18:38:43.622Z</time></trkpt><trkpt lat="10.2072871" lon="-75.3832814"><ele>34.2</ele><time>2026-04-18T18:38:44.623Z</time></trkpt><trkpt lat="10.2073343" lon="-75.3833715"><ele>34.6</ele><time>2026-04-18T18:38:45.621Z</time></trkpt><trkpt lat="10.2073858" lon="-75.3834579"><ele>35.0</ele><time>2026-04-18T18:38:46.626Z</time></trkpt><trkpt lat="10.2074375" lon="-75.3835416"><ele>35.0</ele><time>2026-04-18T18:38:47.627Z</time></trkpt><trkpt lat="10.2074888" lon="-75.3836236"><ele>35.0</ele><time>2026-04-18T18:38:48.622Z</time></trkpt><trkpt lat="10.2075383" lon="-75.3837112"><ele>35.0</ele><time>2026-04-18T18:38:49.624Z</time></trkpt><trkpt lat="10.2075908" lon="-75.3837963"><ele>35.0</ele><time>2026-04-18T18:38:50.623Z</time></trkpt><trkpt lat="10.2076428" lon="-75.38388"><ele>35.0</ele><time>2026-04-18T18:38:51.622Z</time></trkpt><trkpt lat="10.2076937" lon="-75.3839608"><ele>34.5</ele><time>2026-04-18T18:38:52.624Z</time></trkpt><trkpt lat="10.2077443" lon="-75.3840403"><ele>34.0</ele><time>2026-04-18T18:38:53.628Z</time></trkpt><trkpt lat="10.2077904" lon="-75.3841187"><ele>33.5</ele><time>2026-04-18T18:38:54.627Z</time></trkpt><trkpt lat="10.2078339" lon="-75.384197"><ele>33.0</ele><time>2026-04-18T18:38:55.626Z</time></trkpt><trkpt lat="10.2078797" lon="-75.3842709"><ele>32.5</ele><time>2026-04-18T18:38:56.624Z</time></trkpt><trkpt lat="10.2079225" lon="-75.3843466"><ele>32.0</ele><time>2026-04-18T18:38:57.622Z</time></trkpt><trkpt lat="10.2079656" lon="-75.3844183"><ele>31.999999999999996</ele><time>2026-04-18T18:38:58.626Z</time></trkpt><trkpt lat="10.2080085" lon="-75.3844931"><ele>32.0</ele><time>2026-04-18T18:38:59.63Z</time></trkpt><trkpt lat="10.2080583" lon="-75.3845641"><ele>32.0</ele><time>2026-04-18T18:39:00.634Z</time></trkpt><trkpt lat="10.2081025" lon="-75.3846347"><ele>32.0</ele><time>2026-04-18T18:39:01.628Z</time></trkpt><trkpt lat="10.2081378" lon="-75.3847101"><ele>31.999999999999996</ele><time>2026-04-18T18:39:02.629Z</time></trkpt><trkpt lat="10.2081717" lon="-75.3847772"><ele>32.0</ele><time>2026-04-18T18:39:03.633Z</time></trkpt><trkpt lat="10.2082143" lon="-75.3848418"><ele>32.166666666666664</ele><time>2026-04-18T18:39:04.629Z</time></trkpt><trkpt lat="10.2082541" lon="-75.3849109"><ele>32.33333333333333</ele><time>2026-04-18T18:39:05.627Z</time></trkpt><trkpt lat="10.2083007" lon="-75.3849841"><ele>32.5</ele><time>2026-04-18T18:39:06.634Z</time></trkpt><trkpt lat="10.2083397" lon="-75.3850469"><ele>32.666666666666664</ele><time>2026-04-18T18:39:07.624Z</time></trkpt><trkpt lat="10.2083781" lon="-75.3851094"><ele>32.833333333333336</ele><time>2026-04-18T18:39:08.624Z</time></trkpt><trkpt lat="10.208411" lon="-75.385175"><ele>33.0</ele><time>2026-04-18T18:39:09.624Z</time></trkpt><trkpt lat="10.208449" lon="-75.3852397"><ele>33.0</ele><time>2026-04-18T18:39:10.627Z</time></trkpt><trkpt lat="10.2084892" lon="-75.3852997"><ele>33.0</ele><time>2026-04-18T18:39:11.624Z</time></trkpt><trkpt lat="10.2085294" lon="-75.3853616"><ele>33.0</ele><time>2026-04-18T18:39:12.621Z</time></trkpt><trkpt lat="10.2085702" lon="-75.3854281"><ele>33.0</ele><time>2026-04-18T18:39:13.626Z</time></trkpt><trkpt lat="10.2086093" lon="-75.3855006"><ele>33.0</ele><time>2026-04-18T18:39:14.627Z</time></trkpt><trkpt lat="10.2086531" lon="-75.3855722"><ele>33.0</ele><time>2026-04-18T18:39:15.623Z</time></trkpt><trkpt lat="10.208698" lon="-75.385643"><ele>32.666666666666664</ele><time>2026-04-18T18:39:16.621Z</time></trkpt><trkpt lat="10.2087428" lon="-75.3857126"><ele>32.333333333333336</ele><time>2026-04-18T18:39:17.621Z</time></trkpt><trkpt lat="10.2087844" lon="-75.3857831"><ele>32.0</ele><time>2026-04-18T18:39:18.628Z</time></trkpt><trkpt lat="10.2088262" lon="-75.3858548"><ele>31.666666666666668</ele><time>2026-04-18T18:39:19.628Z</time></trkpt><trkpt lat="10.2088659" lon="-75.385928"><ele>31.333333333333336</ele><time>2026-04-18T18:39:20.627Z</time></trkpt><trkpt lat="10.2089088" lon="-75.386001"><ele>31.0</ele><time>2026-04-18T18:39:21.628Z</time></trkpt><trkpt lat="10.2089535" lon="-75.3860725"><ele>31.000000000000004</ele><time>2026-04-18T18:39:22.626Z</time></trkpt><trkpt lat="10.2089976" lon="-75.3861548"><ele>31.0</ele><time>2026-04-18T18:39:23.629Z</time></trkpt><trkpt lat="10.209039" lon="-75.38623"><ele>31.0</ele><time>2026-04-18T18:39:24.63Z</time></trkpt><trkpt lat="10.2090799" lon="-75.3863005"><ele>31.0</ele><time>2026-04-18T18:39:25.627Z</time></trkpt><trkpt lat="10.2091226" lon="-75.3863773"><ele>31.000000000000004</ele><time>2026-04-18T18:39:26.625Z</time></trkpt><trkpt lat="10.2091664" lon="-75.3864506"><ele>31.0</ele><time>2026-04-18T18:39:27.624Z</time></trkpt><trkpt lat="10.2092127" lon="-75.3865233"><ele>31.333333333333336</ele><time>2026-04-18T18:39:28.622Z</time></trkpt><trkpt lat="10.209255" lon="-75.3865986"><ele>31.666666666666668</ele><time>2026-04-18T18:39:29.625Z</time></trkpt><trkpt lat="10.2092992" lon="-75.3866678"><ele>32.0</ele><time>2026-04-18T18:39:30.627Z</time></trkpt><trkpt lat="10.2093394" lon="-75.3867398"><ele>32.333333333333336</ele><time>2026-04-18T18:39:31.622Z</time></trkpt><trkpt lat="10.2093825" lon="-75.3868145"><ele>32.666666666666664</ele><time>2026-04-18T18:39:32.621Z</time></trkpt><trkpt lat="10.2094228" lon="-75.3868842"><ele>33.0</ele><time>2026-04-18T18:39:33.627Z</time></trkpt><trkpt lat="10.2094603" lon="-75.3869619"><ele>33.0</ele><time>2026-04-18T18:39:34.629Z</time></trkpt><trkpt lat="10.2095053" lon="-75.3870353"><ele>33.0</ele><time>2026-04-18T18:39:35.628Z</time></trkpt><trkpt lat="10.2095458" lon="-75.3871065"><ele>33.0</ele><time>2026-04-18T18:39:36.623Z</time></trkpt><trkpt lat="10.2095918" lon="-75.3871729"><ele>33.0</ele><time>2026-04-18T18:39:37.626Z</time></trkpt><trkpt lat="10.2096338" lon="-75.3872472"><ele>33.0</ele><time>2026-04-18T18:39:38.627Z</time></trkpt><trkpt lat="10.2096747" lon="-75.3873224"><ele>33.0</ele><time>2026-04-18T18:39:39.626Z</time></trkpt><trkpt lat="10.2097209" lon="-75.3873915"><ele>33.166666666666664</ele><time>2026-04-18T18:39:40.627Z</time></trkpt><trkpt lat="10.2097624" lon="-75.3874631"><ele>33.333333333333336</ele><time>2026-04-18T18:39:41.621Z</time></trkpt><trkpt lat="10.2098021" lon="-75.3875345"><ele>33.5</ele><time>2026-04-18T18:39:42.631Z</time></trkpt><trkpt lat="10.2098427" lon="-75.3876064"><ele>33.66666666666667</ele><time>2026-04-18T18:39:43.622Z</time></trkpt><trkpt lat="10.2098803" lon="-75.3876731"><ele>33.833333333333336</ele><time>2026-04-18T18:39:44.623Z</time></trkpt><trkpt lat="10.2099242" lon="-75.3877514"><ele>34.0</ele><time>2026-04-18T18:39:45.625Z</time></trkpt><trkpt lat="10.2099665" lon="-75.3878237"><ele>34.16666666666667</ele><time>2026-04-18T18:39:46.626Z</time></trkpt><trkpt lat="10.2100079" lon="-75.3878965"><ele>34.333333333333336</ele><time>2026-04-18T18:39:47.627Z</time></trkpt><trkpt lat="10.210048" lon="-75.3879687"><ele>34.5</ele><time>2026-04-18T18:39:48.623Z</time></trkpt><trkpt lat="10.2100941" lon="-75.388042"><ele>34.666666666666664</ele><time>2026-04-18T18:39:49.622Z</time></trkpt><trkpt lat="10.2101375" lon="-75.3881207"><ele>34.83333333333333</ele><time>2026-04-18T18:39:50.623Z</time></trkpt><trkpt lat="10.2101809" lon="-75.388198"><ele>35.0</ele><time>2026-04-18T18:39:51.622Z</time></trkpt><trkpt lat="10.2102248" lon="-75.388273"><ele>35.0</ele><time>2026-04-18T18:39:52.623Z</time></trkpt><trkpt lat="10.2102745" lon="-75.3883469"><ele>35.0</ele><time>2026-04-18T18:39:53.627Z</time></trkpt><trkpt lat="10.2103183" lon="-75.388424"><ele>35.0</ele><time>2026-04-18T18:39:54.623Z</time></trkpt><trkpt lat="10.2103629" lon="-75.3884987"><ele>35.0</ele><time>2026-04-18T18:39:55.624Z</time></trkpt><trkpt lat="10.2103985" lon="-75.3885772"><ele>35.0</ele><time>2026-04-18T18:39:56.628Z</time></trkpt><trkpt lat="10.2104417" lon="-75.3886527"><ele>35.0</ele><time>2026-04-18T18:39:57.624Z</time></trkpt><trkpt lat="10.2104843" lon="-75.3887277"><ele>35.0</ele><time>2026-04-18T18:39:58.625Z</time></trkpt><trkpt lat="10.2105276" lon="-75.3888027"><ele>35.0</ele><time>2026-04-18T18:39:59.623Z</time></trkpt><trkpt lat="10.2105721" lon="-75.3888758"><ele>35.0</ele><time>2026-04-18T18:40:00.622Z</time></trkpt><trkpt lat="10.2106144" lon="-75.3889475"><ele>35.0</ele><time>2026-04-18T18:40:01.625Z</time></trkpt><trkpt lat="10.2106557" lon="-75.3890243"><ele>35.0</ele><time>2026-04-18T18:40:02.624Z</time></trkpt><trkpt lat="10.2106993" lon="-75.3891024"><ele>35.0</ele><time>2026-04-18T18:40:03.629Z</time></trkpt><trkpt lat="10.210746" lon="-75.3891787"><ele>35.0</ele><time>2026-04-18T18:40:04.623Z</time></trkpt><trkpt lat="10.2107884" lon="-75.3892554"><ele>35.0</ele><time>2026-04-18T18:40:05.623Z</time></trkpt><trkpt lat="10.2108305" lon="-75.3893275"><ele>35.0</ele><time>2026-04-18T18:40:06.625Z</time></trkpt><trkpt lat="10.2108724" lon="-75.3893973"><ele>35.0</ele><time>2026-04-18T18:40:07.627Z</time></trkpt><trkpt lat="10.2109151" lon="-75.3894684"><ele>35.0</ele><time>2026-04-18T18:40:08.63Z</time></trkpt><trkpt lat="10.2109554" lon="-75.389544"><ele>35.0</ele><time>2026-04-18T18:40:09.622Z</time></trkpt><trkpt lat="10.2110009" lon="-75.3896148"><ele>34.666666666666664</ele><time>2026-04-18T18:40:10.622Z</time></trkpt><trkpt lat="10.211045" lon="-75.3896901"><ele>34.33333333333333</ele><time>2026-04-18T18:40:11.625Z</time></trkpt><trkpt lat="10.2110899" lon="-75.3897658"><ele>34.0</ele><time>2026-04-18T18:40:12.623Z</time></trkpt><trkpt lat="10.2111359" lon="-75.3898378"><ele>33.666666666666664</ele><time>2026-04-18T18:40:13.623Z</time></trkpt><trkpt lat="10.2111843" lon="-75.3899166"><ele>33.333333333333336</ele><time>2026-04-18T18:40:14.626Z</time></trkpt><trkpt lat="10.2112299" lon="-75.3899922"><ele>33.0</ele><time>2026-04-18T18:40:15.626Z</time></trkpt><trkpt lat="10.2112758" lon="-75.3900665"><ele>33.0</ele><time>2026-04-18T18:40:16.627Z</time></trkpt><trkpt lat="10.2113236" lon="-75.3901382"><ele>33.0</ele><time>2026-04-18T18:40:17.627Z</time></trkpt><trkpt lat="10.2113716" lon="-75.3902134"><ele>33.0</ele><time>2026-04-18T18:40:18.624Z</time></trkpt><trkpt lat="10.211416" lon="-75.3902865"><ele>33.0</ele><time>2026-04-18T18:40:19.622Z</time></trkpt><trkpt lat="10.2114573" lon="-75.3903614"><ele>33.0</ele><time>2026-04-18T18:40:20.626Z</time></trkpt><trkpt lat="10.2115016" lon="-75.3904353"><ele>33.0</ele><time>2026-04-18T18:40:21.627Z</time></trkpt><trkpt lat="10.2115439" lon="-75.3905085"><ele>33.0</ele><time>2026-04-18T18:40:22.622Z</time></trkpt><trkpt lat="10.2115888" lon="-75.3905844"><ele>33.0</ele><time>2026-04-18T18:40:23.621Z</time></trkpt><trkpt lat="10.2116343" lon="-75.3906576"><ele>33.0</ele><time>2026-04-18T18:40:24.622Z</time></trkpt><trkpt lat="10.2116785" lon="-75.3907234"><ele>33.0</ele><time>2026-04-18T18:40:25.625Z</time></trkpt><trkpt lat="10.2117192" lon="-75.3907906"><ele>33.0</ele><time>2026-04-18T18:40:26.623Z</time></trkpt><trkpt lat="10.2117571" lon="-75.3908558"><ele>33.0</ele><time>2026-04-18T18:40:27.625Z</time></trkpt><trkpt lat="10.2117965" lon="-75.3909226"><ele>33.0</ele><time>2026-04-18T18:40:28.632Z</time></trkpt><trkpt lat="10.2118328" lon="-75.3909911"><ele>33.0</ele><time>2026-04-18T18:40:29.629Z</time></trkpt><trkpt lat="10.2118715" lon="-75.3910586"><ele>33.0</ele><time>2026-04-18T18:40:30.625Z</time></trkpt><trkpt lat="10.2119101" lon="-75.3911248"><ele>33.0</ele><time>2026-04-18T18:40:31.628Z</time></trkpt><trkpt lat="10.2119506" lon="-75.3911897"><ele>33.0</ele><time>2026-04-18T18:40:32.627Z</time></trkpt><trkpt lat="10.211989" lon="-75.39125"><ele>33.0</ele><time>2026-04-18T18:40:33.627Z</time></trkpt><trkpt lat="10.21203" lon="-75.391312"><ele>33.0</ele><time>2026-04-18T18:40:34.626Z</time></trkpt><trkpt lat="10.2120697" lon="-75.3913752"><ele>33.0</ele><time>2026-04-18T18:40:35.624Z</time></trkpt><trkpt lat="10.2121086" lon="-75.3914322"><ele>33.0</ele><time>2026-04-18T18:40:36.626Z</time></trkpt><trkpt lat="10.2121433" lon="-75.3914959"><ele>33.0</ele><time>2026-04-18T18:40:37.625Z</time></trkpt><trkpt lat="10.2121801" lon="-75.3915564"><ele>33.0</ele><time>2026-04-18T18:40:38.623Z</time></trkpt><trkpt lat="10.212212" lon="-75.3916178"><ele>33.0</ele><time>2026-04-18T18:40:39.629Z</time></trkpt><trkpt lat="10.2122463" lon="-75.3916735"><ele>33.0</ele><time>2026-04-18T18:40:40.627Z</time></trkpt><trkpt lat="10.2122806" lon="-75.3917317"><ele>33.0</ele><time>2026-04-18T18:40:41.625Z</time></trkpt><trkpt lat="10.2123137" lon="-75.3917942"><ele>33.5</ele><time>2026-04-18T18:40:42.628Z</time></trkpt><trkpt lat="10.2123878" lon="-75.3919058"><ele>34.0</ele><time>2026-04-18T18:40:44.624Z</time></trkpt><trkpt lat="10.212422" lon="-75.3919629"><ele>34.5</ele><time>2026-04-18T18:40:45.625Z</time></trkpt><trkpt lat="10.2124588" lon="-75.3920158"><ele>35.0</ele><time>2026-04-18T18:40:46.626Z</time></trkpt><trkpt lat="10.212495" lon="-75.3920789"><ele>35.5</ele><time>2026-04-18T18:40:47.63Z</time></trkpt><trkpt lat="10.2125304" lon="-75.3921406"><ele>36.0</ele><time>2026-04-18T18:40:48.626Z</time></trkpt><trkpt lat="10.2125646" lon="-75.3921992"><ele>36.28571428571429</ele><time>2026-04-18T18:40:49.626Z</time></trkpt><trkpt lat="10.2126018" lon="-75.392263"><ele>36.57142857142857</ele><time>2026-04-18T18:40:50.631Z</time></trkpt><trkpt lat="10.2126373" lon="-75.3923241"><ele>36.85714285714286</ele><time>2026-04-18T18:40:51.628Z</time></trkpt><trkpt lat="10.2126707" lon="-75.3923875"><ele>37.142857142857146</ele><time>2026-04-18T18:40:52.624Z</time></trkpt><trkpt lat="10.2127054" lon="-75.392447"><ele>37.42857142857143</ele><time>2026-04-18T18:40:53.628Z</time></trkpt><trkpt lat="10.2127403" lon="-75.392503"><ele>37.714285714285715</ele><time>2026-04-18T18:40:54.626Z</time></trkpt><trkpt lat="10.2127748" lon="-75.3925676"><ele>38.0</ele><time>2026-04-18T18:40:55.625Z</time></trkpt><trkpt lat="10.2128099" lon="-75.3926291"><ele>38.0</ele><time>2026-04-18T18:40:56.626Z</time></trkpt><trkpt lat="10.2128496" lon="-75.392693"><ele>38.0</ele><time>2026-04-18T18:40:57.625Z</time></trkpt><trkpt lat="10.2128867" lon="-75.3927558"><ele>38.0</ele><time>2026-04-18T18:40:58.628Z</time></trkpt><trkpt lat="10.2129223" lon="-75.3928155"><ele>38.0</ele><time>2026-04-18T18:40:59.623Z</time></trkpt><trkpt lat="10.2129584" lon="-75.3928798"><ele>38.0</ele><time>2026-04-18T18:41:00.623Z</time></trkpt><trkpt lat="10.212996" lon="-75.3929471"><ele>38.0</ele><time>2026-04-18T18:41:01.626Z</time></trkpt><trkpt lat="10.2130326" lon="-75.3930116"><ele>38.0</ele><time>2026-04-18T18:41:02.624Z</time></trkpt><trkpt lat="10.2130704" lon="-75.3930774"><ele>37.857142857142854</ele><time>2026-04-18T18:41:03.63Z</time></trkpt><trkpt lat="10.213108" lon="-75.3931417"><ele>37.714285714285715</ele><time>2026-04-18T18:41:04.624Z</time></trkpt><trkpt lat="10.2131454" lon="-75.3932063"><ele>37.57142857142857</ele><time>2026-04-18T18:41:05.627Z</time></trkpt><trkpt lat="10.2131826" lon="-75.3932693"><ele>37.42857142857143</ele><time>2026-04-18T18:41:06.62Z</time></trkpt><trkpt lat="10.213219" lon="-75.3933312"><ele>37.285714285714285</ele><time>2026-04-18T18:41:07.623Z</time></trkpt><trkpt lat="10.2132566" lon="-75.3933979"><ele>37.142857142857146</ele><time>2026-04-18T18:41:08.625Z</time></trkpt><trkpt lat="10.2132951" lon="-75.3934652"><ele>37.0</ele><time>2026-04-18T18:41:09.622Z</time></trkpt><trkpt lat="10.2133325" lon="-75.3935304"><ele>37.285714285714285</ele><time>2026-04-18T18:41:10.621Z</time></trkpt><trkpt lat="10.2133702" lon="-75.393592"><ele>37.57142857142857</ele><time>2026-04-18T18:41:11.621Z</time></trkpt><trkpt lat="10.2134134" lon="-75.3936539"><ele>37.85714285714286</ele><time>2026-04-18T18:41:12.622Z</time></trkpt><trkpt lat="10.2134525" lon="-75.3937193"><ele>38.14285714285714</ele><time>2026-04-18T18:41:13.622Z</time></trkpt><trkpt lat="10.2134904" lon="-75.3937857"><ele>38.42857142857142</ele><time>2026-04-18T18:41:14.622Z</time></trkpt><trkpt lat="10.2135295" lon="-75.3938482"><ele>38.714285714285715</ele><time>2026-04-18T18:41:15.621Z</time></trkpt><trkpt lat="10.2135675" lon="-75.3939114"><ele>39.0</ele><time>2026-04-18T18:41:16.626Z</time></trkpt><trkpt lat="10.2136048" lon="-75.393976"><ele>39.0</ele><time>2026-04-18T18:41:17.626Z</time></trkpt><trkpt lat="10.2136418" lon="-75.3940408"><ele>39.0</ele><time>2026-04-18T18:41:18.627Z</time></trkpt><trkpt lat="10.213675" lon="-75.3941095"><ele>39.0</ele><time>2026-04-18T18:41:19.626Z</time></trkpt><trkpt lat="10.2137117" lon="-75.3941762"><ele>39.0</ele><time>2026-04-18T18:41:20.626Z</time></trkpt><trkpt lat="10.2137472" lon="-75.3942441"><ele>39.0</ele><time>2026-04-18T18:41:21.625Z</time></trkpt><trkpt lat="10.2137876" lon="-75.3943029"><ele>39.0</ele><time>2026-04-18T18:41:22.629Z</time></trkpt><trkpt lat="10.2138266" lon="-75.3943661"><ele>39.0</ele><time>2026-04-18T18:41:23.622Z</time></trkpt><trkpt lat="10.2138642" lon="-75.394427"><ele>39.0</ele><time>2026-04-18T18:41:24.627Z</time></trkpt><trkpt lat="10.2138947" lon="-75.3944888"><ele>39.0</ele><time>2026-04-18T18:41:25.623Z</time></trkpt><trkpt lat="10.2139286" lon="-75.3945434"><ele>39.0</ele><time>2026-04-18T18:41:26.626Z</time></trkpt><trkpt lat="10.2139981" lon="-75.3946433"><ele>39.0</ele><time>2026-04-18T18:41:28.621Z</time></trkpt><trkpt lat="10.2140304" lon="-75.3947002"><ele>39.0</ele><time>2026-04-18T18:41:29.623Z</time></trkpt><trkpt lat="10.214063" lon="-75.3947572"><ele>39.0</ele><time>2026-04-18T18:41:30.622Z</time></trkpt><trkpt lat="10.214096" lon="-75.3948167"><ele>39.0</ele><time>2026-04-18T18:41:31.623Z</time></trkpt><trkpt lat="10.2141589" lon="-75.3949177"><ele>40.4</ele><time>2026-04-18T18:41:33.626Z</time></trkpt><trkpt lat="10.2142182" lon="-75.3950198"><ele>41.8</ele><time>2026-04-18T18:41:35.624Z</time></trkpt><trkpt lat="10.2142793" lon="-75.3951123"><ele>43.199999999999996</ele><time>2026-04-18T18:41:37.63Z</time></trkpt><trkpt lat="10.2143333" lon="-75.3952085"><ele>44.599999999999994</ele><time>2026-04-18T18:41:39.63Z</time></trkpt><trkpt lat="10.2143915" lon="-75.3953049"><ele>46.0</ele><time>2026-04-18T18:41:41.628Z</time></trkpt><trkpt lat="10.2144515" lon="-75.3953917"><ele>46.0</ele><time>2026-04-18T18:41:43.632Z</time></trkpt><trkpt lat="10.2145125" lon="-75.3954845"><ele>46.0</ele><time>2026-04-18T18:41:45.63Z</time></trkpt><trkpt lat="10.2145822" lon="-75.3955698"><ele>46.0</ele><time>2026-04-18T18:41:47.63Z</time></trkpt><trkpt lat="10.2146565" lon="-75.395665"><ele>46.0</ele><time>2026-04-18T18:41:49.627Z</time></trkpt><trkpt lat="10.2146941" lon="-75.3957169"><ele>46.0</ele><time>2026-04-18T18:41:50.63Z</time></trkpt><trkpt lat="10.2147357" lon="-75.3957757"><ele>46.0</ele><time>2026-04-18T18:41:51.622Z</time></trkpt><trkpt lat="10.2147793" lon="-75.3958389"><ele>46.0</ele><time>2026-04-18T18:41:52.629Z</time></trkpt><trkpt lat="10.2148168" lon="-75.3958965"><ele>46.0</ele><time>2026-04-18T18:41:53.622Z</time></trkpt><trkpt lat="10.2148648" lon="-75.3959535"><ele>46.0</ele><time>2026-04-18T18:41:54.62Z</time></trkpt><trkpt lat="10.2149051" lon="-75.3960127"><ele>46.0</ele><time>2026-04-18T18:41:55.621Z</time></trkpt><trkpt lat="10.2149505" lon="-75.3960718"><ele>46.0</ele><time>2026-04-18T18:41:56.625Z</time></trkpt><trkpt lat="10.214998" lon="-75.3961294"><ele>46.0</ele><time>2026-04-18T18:41:57.626Z</time></trkpt><trkpt lat="10.2150385" lon="-75.3961941"><ele>46.0</ele><time>2026-04-18T18:41:58.625Z</time></trkpt><trkpt lat="10.2150839" lon="-75.3962574"><ele>46.0</ele><time>2026-04-18T18:41:59.632Z</time></trkpt><trkpt lat="10.2151313" lon="-75.3963162"><ele>46.0</ele><time>2026-04-18T18:42:00.623Z</time></trkpt><trkpt lat="10.2151789" lon="-75.3963772"><ele>46.0</ele><time>2026-04-18T18:42:01.628Z</time></trkpt><trkpt lat="10.2152252" lon="-75.3964426"><ele>46.0</ele><time>2026-04-18T18:42:02.626Z</time></trkpt><trkpt lat="10.2152709" lon="-75.3965084"><ele>46.0</ele><time>2026-04-18T18:42:03.625Z</time></trkpt><trkpt lat="10.2153201" lon="-75.3965734"><ele>45.5</ele><time>2026-04-18T18:42:04.628Z</time></trkpt><trkpt lat="10.2153709" lon="-75.3966398"><ele>45.0</ele><time>2026-04-18T18:42:05.628Z</time></trkpt><trkpt lat="10.2154227" lon="-75.3967036"><ele>44.5</ele><time>2026-04-18T18:42:06.628Z</time></trkpt><trkpt lat="10.2154714" lon="-75.3967697"><ele>44.0</ele><time>2026-04-18T18:42:07.625Z</time></trkpt><trkpt lat="10.2155195" lon="-75.3968313"><ele>43.5</ele><time>2026-04-18T18:42:08.628Z</time></trkpt><trkpt lat="10.2155644" lon="-75.3968922"><ele>43.0</ele><time>2026-04-18T18:42:09.629Z</time></trkpt><trkpt lat="10.2156082" lon="-75.3969533"><ele>43.0</ele><time>2026-04-18T18:42:10.631Z</time></trkpt><trkpt lat="10.2156531" lon="-75.3970146"><ele>43.0</ele><time>2026-04-18T18:42:11.631Z</time></trkpt><trkpt lat="10.2156963" lon="-75.3970677"><ele>43.0</ele><time>2026-04-18T18:42:12.626Z</time></trkpt><trkpt lat="10.2157431" lon="-75.397131"><ele>43.0</ele><time>2026-04-18T18:42:13.633Z</time></trkpt><trkpt lat="10.2157914" lon="-75.3971958"><ele>43.0</ele><time>2026-04-18T18:42:14.626Z</time></trkpt><trkpt lat="10.2158427" lon="-75.3972641"><ele>43.0</ele><time>2026-04-18T18:42:15.629Z</time></trkpt><trkpt lat="10.2158947" lon="-75.3973359"><ele>42.4</ele><time>2026-04-18T18:42:16.624Z</time></trkpt><trkpt lat="10.2159497" lon="-75.3974034"><ele>41.8</ele><time>2026-04-18T18:42:17.627Z</time></trkpt><trkpt lat="10.2160028" lon="-75.3974745"><ele>41.2</ele><time>2026-04-18T18:42:18.633Z</time></trkpt><trkpt lat="10.2160591" lon="-75.397547"><ele>40.6</ele><time>2026-04-18T18:42:19.631Z</time></trkpt><trkpt lat="10.2161152" lon="-75.3976253"><ele>40.0</ele><time>2026-04-18T18:42:20.623Z</time></trkpt><trkpt lat="10.2161691" lon="-75.3977061"><ele>40.0</ele><time>2026-04-18T18:42:21.621Z</time></trkpt><trkpt lat="10.2162292" lon="-75.3977841"><ele>40.0</ele><time>2026-04-18T18:42:22.622Z</time></trkpt><trkpt lat="10.2162864" lon="-75.397866"><ele>40.0</ele><time>2026-04-18T18:42:23.623Z</time></trkpt><trkpt lat="10.2163475" lon="-75.3979461"><ele>40.0</ele><time>2026-04-18T18:42:24.625Z</time></trkpt><trkpt lat="10.2164083" lon="-75.3980329"><ele>40.0</ele><time>2026-04-18T18:42:25.625Z</time></trkpt><trkpt lat="10.216464" lon="-75.3981121"><ele>39.6</ele><time>2026-04-18T18:42:26.624Z</time></trkpt><trkpt lat="10.2165277" lon="-75.3981976"><ele>39.2</ele><time>2026-04-18T18:42:27.622Z</time></trkpt><trkpt lat="10.2165895" lon="-75.3982813"><ele>38.8</ele><time>2026-04-18T18:42:28.623Z</time></trkpt><trkpt lat="10.2166551" lon="-75.3983583"><ele>38.4</ele><time>2026-04-18T18:42:29.622Z</time></trkpt><trkpt lat="10.2167193" lon="-75.3984537"><ele>38.0</ele><time>2026-04-18T18:42:30.623Z</time></trkpt><trkpt lat="10.2167815" lon="-75.3985361"><ele>38.0</ele><time>2026-04-18T18:42:31.623Z</time></trkpt><trkpt lat="10.216838" lon="-75.398626"><ele>38.0</ele><time>2026-04-18T18:42:32.626Z</time></trkpt><trkpt lat="10.2168936" lon="-75.3987187"><ele>38.0</ele><time>2026-04-18T18:42:33.627Z</time></trkpt><trkpt lat="10.216951" lon="-75.3988175"><ele>38.0</ele><time>2026-04-18T18:42:34.626Z</time></trkpt><trkpt lat="10.2170041" lon="-75.3989105"><ele>38.0</ele><time>2026-04-18T18:42:35.626Z</time></trkpt><trkpt lat="10.2170551" lon="-75.3990052"><ele>37.4</ele><time>2026-04-18T18:42:36.622Z</time></trkpt><trkpt lat="10.2171054" lon="-75.3991017"><ele>36.8</ele><time>2026-04-18T18:42:37.626Z</time></trkpt><trkpt lat="10.2171532" lon="-75.3992039"><ele>36.2</ele><time>2026-04-18T18:42:38.624Z</time></trkpt><trkpt lat="10.2171992" lon="-75.3993055"><ele>35.6</ele><time>2026-04-18T18:42:39.627Z</time></trkpt><trkpt lat="10.2172444" lon="-75.3994049"><ele>35.0</ele><time>2026-04-18T18:42:40.624Z</time></trkpt><trkpt lat="10.2172888" lon="-75.3995045"><ele>34.6</ele><time>2026-04-18T18:42:41.627Z</time></trkpt><trkpt lat="10.2173353" lon="-75.3996004"><ele>34.2</ele><time>2026-04-18T18:42:42.624Z</time></trkpt><trkpt lat="10.2173822" lon="-75.3996918"><ele>33.8</ele><time>2026-04-18T18:42:43.625Z</time></trkpt><trkpt lat="10.2174252" lon="-75.3997879"><ele>33.4</ele><time>2026-04-18T18:42:44.622Z</time></trkpt><trkpt lat="10.2174672" lon="-75.3998836"><ele>33.0</ele><time>2026-04-18T18:42:45.622Z</time></trkpt><trkpt lat="10.2175083" lon="-75.3999783"><ele>33.0</ele><time>2026-04-18T18:42:46.621Z</time></trkpt><trkpt lat="10.2175527" lon="-75.4000695"><ele>33.0</ele><time>2026-04-18T18:42:47.623Z</time></trkpt><trkpt lat="10.217597" lon="-75.4001602"><ele>33.0</ele><time>2026-04-18T18:42:48.621Z</time></trkpt><trkpt lat="10.2176414" lon="-75.4002532"><ele>33.0</ele><time>2026-04-18T18:42:49.623Z</time></trkpt><trkpt lat="10.2176865" lon="-75.4003373"><ele>33.0</ele><time>2026-04-18T18:42:50.625Z</time></trkpt><trkpt lat="10.2177324" lon="-75.4004201"><ele>33.0</ele><time>2026-04-18T18:42:51.624Z</time></trkpt><trkpt lat="10.2177763" lon="-75.4005101"><ele>33.0</ele><time>2026-04-18T18:42:52.629Z</time></trkpt><trkpt lat="10.2178213" lon="-75.4005941"><ele>33.0</ele><time>2026-04-18T18:42:53.627Z</time></trkpt><trkpt lat="10.2178682" lon="-75.4006836"><ele>33.0</ele><time>2026-04-18T18:42:54.623Z</time></trkpt><trkpt lat="10.2179191" lon="-75.4007709"><ele>33.0</ele><time>2026-04-18T18:42:55.626Z</time></trkpt><trkpt lat="10.2179683" lon="-75.4008592"><ele>33.0</ele><time>2026-04-18T18:42:56.626Z</time></trkpt><trkpt lat="10.2180146" lon="-75.4009428"><ele>33.0</ele><time>2026-04-18T18:42:57.625Z</time></trkpt><trkpt lat="10.2180656" lon="-75.4010271"><ele>33.0</ele><time>2026-04-18T18:42:58.622Z</time></trkpt><trkpt lat="10.218116" lon="-75.4011116"><ele>33.0</ele><time>2026-04-18T18:42:59.622Z</time></trkpt><trkpt lat="10.2181624" lon="-75.4011968"><ele>33.0</ele><time>2026-04-18T18:43:00.622Z</time></trkpt><trkpt lat="10.2182083" lon="-75.4012777"><ele>33.199999999999996</ele><time>2026-04-18T18:43:01.626Z</time></trkpt><trkpt lat="10.2182549" lon="-75.4013567"><ele>33.4</ele><time>2026-04-18T18:43:02.63Z</time></trkpt><trkpt lat="10.2183045" lon="-75.4014346"><ele>33.599999999999994</ele><time>2026-04-18T18:43:03.623Z</time></trkpt><trkpt lat="10.2183536" lon="-75.4015108"><ele>33.8</ele><time>2026-04-18T18:43:04.626Z</time></trkpt><trkpt lat="10.2183955" lon="-75.4015906"><ele>34.0</ele><time>2026-04-18T18:43:05.622Z</time></trkpt><trkpt lat="10.2184451" lon="-75.4016734"><ele>34.0</ele><time>2026-04-18T18:43:06.624Z</time></trkpt><trkpt lat="10.2184934" lon="-75.4017573"><ele>34.0</ele><time>2026-04-18T18:43:07.628Z</time></trkpt><trkpt lat="10.2185432" lon="-75.401838"><ele>34.0</ele><time>2026-04-18T18:43:08.628Z</time></trkpt><trkpt lat="10.2185997" lon="-75.4019257"><ele>34.0</ele><time>2026-04-18T18:43:09.626Z</time></trkpt><trkpt lat="10.2186505" lon="-75.4020041"><ele>34.0</ele><time>2026-04-18T18:43:10.634Z</time></trkpt><trkpt lat="10.2187004" lon="-75.402089"><ele>34.0</ele><time>2026-04-18T18:43:11.631Z</time></trkpt><trkpt lat="10.2187468" lon="-75.4021666"><ele>34.0</ele><time>2026-04-18T18:43:12.62Z</time></trkpt><trkpt lat="10.2187889" lon="-75.402243"><ele>34.0</ele><time>2026-04-18T18:43:13.625Z</time></trkpt><trkpt lat="10.2188312" lon="-75.402316"><ele>34.0</ele><time>2026-04-18T18:43:14.625Z</time></trkpt><trkpt lat="10.2188745" lon="-75.4023873"><ele>34.0</ele><time>2026-04-18T18:43:15.626Z</time></trkpt><trkpt lat="10.2189171" lon="-75.4024541"><ele>34.0</ele><time>2026-04-18T18:43:16.621Z</time></trkpt><trkpt lat="10.2189599" lon="-75.4025205"><ele>34.333333333333336</ele><time>2026-04-18T18:43:17.625Z</time></trkpt><trkpt lat="10.2189988" lon="-75.4025893"><ele>34.66666666666667</ele><time>2026-04-18T18:43:18.624Z</time></trkpt><trkpt lat="10.2190388" lon="-75.4026581"><ele>35.0</ele><time>2026-04-18T18:43:19.625Z</time></trkpt><trkpt lat="10.2190826" lon="-75.4027178"><ele>35.333333333333336</ele><time>2026-04-18T18:43:20.625Z</time></trkpt><trkpt lat="10.2191236" lon="-75.4027903"><ele>35.666666666666664</ele><time>2026-04-18T18:43:21.624Z</time></trkpt><trkpt lat="10.2191699" lon="-75.402862"><ele>36.0</ele><time>2026-04-18T18:43:22.623Z</time></trkpt><trkpt lat="10.2192111" lon="-75.4029259"><ele>36.0</ele><time>2026-04-18T18:43:23.624Z</time></trkpt><trkpt lat="10.2192554" lon="-75.402996"><ele>36.0</ele><time>2026-04-18T18:43:24.625Z</time></trkpt><trkpt lat="10.2193" lon="-75.4030629"><ele>36.0</ele><time>2026-04-18T18:43:25.622Z</time></trkpt><trkpt lat="10.2193413" lon="-75.4031338"><ele>36.0</ele><time>2026-04-18T18:43:26.627Z</time></trkpt><trkpt lat="10.2193809" lon="-75.403203"><ele>36.0</ele><time>2026-04-18T18:43:27.622Z</time></trkpt><trkpt lat="10.2194187" lon="-75.4032735"><ele>36.0</ele><time>2026-04-18T18:43:28.624Z</time></trkpt><trkpt lat="10.2194592" lon="-75.4033443"><ele>35.5</ele><time>2026-04-18T18:43:29.628Z</time></trkpt><trkpt lat="10.2195024" lon="-75.4034142"><ele>35.0</ele><time>2026-04-18T18:43:30.627Z</time></trkpt><trkpt lat="10.2195459" lon="-75.403485"><ele>34.5</ele><time>2026-04-18T18:43:31.624Z</time></trkpt><trkpt lat="10.2195876" lon="-75.4035563"><ele>34.0</ele><time>2026-04-18T18:43:32.628Z</time></trkpt><trkpt lat="10.2196287" lon="-75.4036288"><ele>33.5</ele><time>2026-04-18T18:43:33.626Z</time></trkpt><trkpt lat="10.2196672" lon="-75.4036935"><ele>33.0</ele><time>2026-04-18T18:43:34.628Z</time></trkpt><trkpt lat="10.2197072" lon="-75.4037634"><ele>33.0</ele><time>2026-04-18T18:43:35.627Z</time></trkpt><trkpt lat="10.2197478" lon="-75.4038345"><ele>33.0</ele><time>2026-04-18T18:43:36.63Z</time></trkpt><trkpt lat="10.219792" lon="-75.4039098"><ele>33.0</ele><time>2026-04-18T18:43:37.627Z</time></trkpt><trkpt lat="10.2198336" lon="-75.4039835"><ele>33.0</ele><time>2026-04-18T18:43:38.625Z</time></trkpt><trkpt lat="10.219877" lon="-75.4040507"><ele>33.0</ele><time>2026-04-18T18:43:39.633Z</time></trkpt><trkpt lat="10.2199157" lon="-75.4041191"><ele>33.0</ele><time>2026-04-18T18:43:40.626Z</time></trkpt><trkpt lat="10.2199549" lon="-75.4041888"><ele>33.0</ele><time>2026-04-18T18:43:41.621Z</time></trkpt><trkpt lat="10.2199977" lon="-75.4042525"><ele>33.0</ele><time>2026-04-18T18:43:42.624Z</time></trkpt><trkpt lat="10.2200373" lon="-75.404327"><ele>33.0</ele><time>2026-04-18T18:43:43.623Z</time></trkpt><trkpt lat="10.2200824" lon="-75.4043886"><ele>33.0</ele><time>2026-04-18T18:43:44.623Z</time></trkpt><trkpt lat="10.2201239" lon="-75.4044611"><ele>33.0</ele><time>2026-04-18T18:43:45.626Z</time></trkpt><trkpt lat="10.2201629" lon="-75.4045388"><ele>33.0</ele><time>2026-04-18T18:43:46.626Z</time></trkpt><trkpt lat="10.2202053" lon="-75.4046117"><ele>33.333333333333336</ele><time>2026-04-18T18:43:47.626Z</time></trkpt><trkpt lat="10.2202493" lon="-75.4046849"><ele>33.666666666666664</ele><time>2026-04-18T18:43:48.624Z</time></trkpt><trkpt lat="10.2202959" lon="-75.4047536"><ele>34.0</ele><time>2026-04-18T18:43:49.623Z</time></trkpt><trkpt lat="10.2203409" lon="-75.4048248"><ele>34.33333333333333</ele><time>2026-04-18T18:43:50.627Z</time></trkpt><trkpt lat="10.2203816" lon="-75.4049092"><ele>34.666666666666664</ele><time>2026-04-18T18:43:51.632Z</time></trkpt><trkpt lat="10.2204265" lon="-75.4049866"><ele>35.0</ele><time>2026-04-18T18:43:52.627Z</time></trkpt><trkpt lat="10.2204707" lon="-75.4050658"><ele>35.0</ele><time>2026-04-18T18:43:53.627Z</time></trkpt><trkpt lat="10.2205197" lon="-75.4051381"><ele>35.0</ele><time>2026-04-18T18:43:54.623Z</time></trkpt><trkpt lat="10.2205642" lon="-75.4052182"><ele>35.0</ele><time>2026-04-18T18:43:55.626Z</time></trkpt><trkpt lat="10.2206072" lon="-75.4052965"><ele>35.0</ele><time>2026-04-18T18:43:56.626Z</time></trkpt><trkpt lat="10.2206513" lon="-75.4053737"><ele>35.0</ele><time>2026-04-18T18:43:57.627Z</time></trkpt><trkpt lat="10.2206973" lon="-75.4054427"><ele>35.0</ele><time>2026-04-18T18:43:58.625Z</time></trkpt><trkpt lat="10.22074" lon="-75.4055156"><ele>34.83333333333333</ele><time>2026-04-18T18:43:59.629Z</time></trkpt><trkpt lat="10.2207836" lon="-75.4055887"><ele>34.666666666666664</ele><time>2026-04-18T18:44:00.626Z</time></trkpt><trkpt lat="10.2208238" lon="-75.4056539"><ele>34.5</ele><time>2026-04-18T18:44:01.627Z</time></trkpt><trkpt lat="10.2208646" lon="-75.4057227"><ele>34.333333333333336</ele><time>2026-04-18T18:44:02.629Z</time></trkpt><trkpt lat="10.2209041" lon="-75.4057882"><ele>34.16666666666667</ele><time>2026-04-18T18:44:03.622Z</time></trkpt><trkpt lat="10.2209406" lon="-75.4058512"><ele>34.0</ele><time>2026-04-18T18:44:04.624Z</time></trkpt><trkpt lat="10.2209805" lon="-75.4059108"><ele>34.0</ele><time>2026-04-18T18:44:05.627Z</time></trkpt><trkpt lat="10.2210181" lon="-75.4059761"><ele>34.0</ele><time>2026-04-18T18:44:06.622Z</time></trkpt><trkpt lat="10.221058" lon="-75.4060406"><ele>34.0</ele><time>2026-04-18T18:44:07.626Z</time></trkpt><trkpt lat="10.2211002" lon="-75.4061086"><ele>34.0</ele><time>2026-04-18T18:44:08.623Z</time></trkpt><trkpt lat="10.2211413" lon="-75.4061694"><ele>34.0</ele><time>2026-04-18T18:44:09.627Z</time></trkpt><trkpt lat="10.2211799" lon="-75.4062362"><ele>34.0</ele><time>2026-04-18T18:44:10.625Z</time></trkpt><trkpt lat="10.2212185" lon="-75.4063029"><ele>34.14285714285714</ele><time>2026-04-18T18:44:11.625Z</time></trkpt><trkpt lat="10.2212569" lon="-75.4063606"><ele>34.285714285714285</ele><time>2026-04-18T18:44:12.625Z</time></trkpt><trkpt lat="10.2212952" lon="-75.4064248"><ele>34.42857142857143</ele><time>2026-04-18T18:44:13.623Z</time></trkpt><trkpt lat="10.2213308" lon="-75.4064892"><ele>34.57142857142857</ele><time>2026-04-18T18:44:14.623Z</time></trkpt><trkpt lat="10.2213672" lon="-75.4065548"><ele>34.714285714285715</ele><time>2026-04-18T18:44:15.626Z</time></trkpt><trkpt lat="10.2214056" lon="-75.4066167"><ele>34.857142857142854</ele><time>2026-04-18T18:44:16.628Z</time></trkpt><trkpt lat="10.2214429" lon="-75.4066793"><ele>35.0</ele><time>2026-04-18T18:44:17.627Z</time></trkpt><trkpt lat="10.2214839" lon="-75.4067411"><ele>35.166666666666664</ele><time>2026-04-18T18:44:18.629Z</time></trkpt><trkpt lat="10.2215254" lon="-75.406807"><ele>35.33333333333333</ele><time>2026-04-18T18:44:19.624Z</time></trkpt><trkpt lat="10.2215626" lon="-75.4068703"><ele>35.5</ele><time>2026-04-18T18:44:20.622Z</time></trkpt><trkpt lat="10.2216011" lon="-75.4069317"><ele>35.666666666666664</ele><time>2026-04-18T18:44:21.626Z</time></trkpt><trkpt lat="10.221642" lon="-75.4069995"><ele>35.833333333333336</ele><time>2026-04-18T18:44:22.628Z</time></trkpt><trkpt lat="10.2216821" lon="-75.4070692"><ele>36.0</ele><time>2026-04-18T18:44:23.62Z</time></trkpt><trkpt lat="10.2217249" lon="-75.4071375"><ele>36.166666666666664</ele><time>2026-04-18T18:44:24.627Z</time></trkpt><trkpt lat="10.2217651" lon="-75.4072084"><ele>36.333333333333336</ele><time>2026-04-18T18:44:25.624Z</time></trkpt><trkpt lat="10.2218045" lon="-75.4072718"><ele>36.5</ele><time>2026-04-18T18:44:26.622Z</time></trkpt><trkpt lat="10.2218419" lon="-75.4073393"><ele>36.66666666666667</ele><time>2026-04-18T18:44:27.625Z</time></trkpt><trkpt lat="10.2218743" lon="-75.4074067"><ele>36.833333333333336</ele><time>2026-04-18T18:44:28.627Z</time></trkpt><trkpt lat="10.221914" lon="-75.4074733"><ele>37.0</ele><time>2026-04-18T18:44:29.623Z</time></trkpt><trkpt lat="10.2219549" lon="-75.4075428"><ele>37.0</ele><time>2026-04-18T18:44:30.622Z</time></trkpt><trkpt lat="10.2219929" lon="-75.4076075"><ele>37.0</ele><time>2026-04-18T18:44:31.62Z</time></trkpt><trkpt lat="10.2220277" lon="-75.4076703"><ele>37.0</ele><time>2026-04-18T18:44:32.619Z</time></trkpt><trkpt lat="10.2220705" lon="-75.4077286"><ele>37.0</ele><time>2026-04-18T18:44:33.624Z</time></trkpt><trkpt lat="10.2221089" lon="-75.4077961"><ele>37.0</ele><time>2026-04-18T18:44:34.622Z</time></trkpt><trkpt lat="10.222147" lon="-75.4078623"><ele>37.0</ele><time>2026-04-18T18:44:35.621Z</time></trkpt><trkpt lat="10.2221856" lon="-75.4079275"><ele>37.0</ele><time>2026-04-18T18:44:36.619Z</time></trkpt><trkpt lat="10.222226" lon="-75.4079951"><ele>37.0</ele><time>2026-04-18T18:44:37.625Z</time></trkpt><trkpt lat="10.2222681" lon="-75.4080615"><ele>37.0</ele><time>2026-04-18T18:44:38.625Z</time></trkpt><trkpt lat="10.2223075" lon="-75.4081319"><ele>37.0</ele><time>2026-04-18T18:44:39.632Z</time></trkpt><trkpt lat="10.2223465" lon="-75.4082131"><ele>37.0</ele><time>2026-04-18T18:44:40.624Z</time></trkpt><trkpt lat="10.222386" lon="-75.408285"><ele>37.0</ele><time>2026-04-18T18:44:41.626Z</time></trkpt><trkpt lat="10.2224279" lon="-75.408354"><ele>37.0</ele><time>2026-04-18T18:44:42.625Z</time></trkpt><trkpt lat="10.2224691" lon="-75.4084243"><ele>37.0</ele><time>2026-04-18T18:44:43.624Z</time></trkpt><trkpt lat="10.2225124" lon="-75.4085"><ele>37.0</ele><time>2026-04-18T18:44:44.624Z</time></trkpt><trkpt lat="10.2225573" lon="-75.4085758"><ele>37.0</ele><time>2026-04-18T18:44:45.623Z</time></trkpt><trkpt lat="10.2226045" lon="-75.4086481"><ele>37.0</ele><time>2026-04-18T18:44:46.626Z</time></trkpt><trkpt lat="10.2226489" lon="-75.4087204"><ele>37.0</ele><time>2026-04-18T18:44:47.627Z</time></trkpt><trkpt lat="10.2226914" lon="-75.4087976"><ele>37.0</ele><time>2026-04-18T18:44:48.626Z</time></trkpt><trkpt lat="10.2227356" lon="-75.4088612"><ele>36.66666666666667</ele><time>2026-04-18T18:44:49.631Z</time></trkpt><trkpt lat="10.2227802" lon="-75.4089321"><ele>36.333333333333336</ele><time>2026-04-18T18:44:50.627Z</time></trkpt><trkpt lat="10.2228243" lon="-75.408999"><ele>36.0</ele><time>2026-04-18T18:44:51.623Z</time></trkpt><trkpt lat="10.2228602" lon="-75.4090719"><ele>35.666666666666664</ele><time>2026-04-18T18:44:52.628Z</time></trkpt><trkpt lat="10.2229012" lon="-75.4091463"><ele>35.33333333333333</ele><time>2026-04-18T18:44:53.631Z</time></trkpt><trkpt lat="10.2229489" lon="-75.4092202"><ele>35.0</ele><time>2026-04-18T18:44:54.627Z</time></trkpt><trkpt lat="10.2229919" lon="-75.4092966"><ele>35.0</ele><time>2026-04-18T18:44:55.627Z</time></trkpt><trkpt lat="10.2230352" lon="-75.409376"><ele>35.0</ele><time>2026-04-18T18:44:56.632Z</time></trkpt><trkpt lat="10.2230796" lon="-75.4094578"><ele>35.0</ele><time>2026-04-18T18:44:57.623Z</time></trkpt><trkpt lat="10.223127" lon="-75.4095403"><ele>35.0</ele><time>2026-04-18T18:44:58.623Z</time></trkpt><trkpt lat="10.223176" lon="-75.4096224"><ele>35.0</ele><time>2026-04-18T18:44:59.62Z</time></trkpt><trkpt lat="10.2232271" lon="-75.4097014"><ele>34.6</ele><time>2026-04-18T18:45:00.627Z</time></trkpt><trkpt lat="10.2232751" lon="-75.4097889"><ele>34.2</ele><time>2026-04-18T18:45:01.625Z</time></trkpt><trkpt lat="10.223325" lon="-75.4098812"><ele>33.8</ele><time>2026-04-18T18:45:02.621Z</time></trkpt><trkpt lat="10.2233753" lon="-75.4099687"><ele>33.4</ele><time>2026-04-18T18:45:03.623Z</time></trkpt><trkpt lat="10.2234328" lon="-75.4100543"><ele>33.0</ele><time>2026-04-18T18:45:04.624Z</time></trkpt><trkpt lat="10.2234851" lon="-75.4101455"><ele>33.0</ele><time>2026-04-18T18:45:05.626Z</time></trkpt><trkpt lat="10.2235384" lon="-75.410231"><ele>33.0</ele><time>2026-04-18T18:45:06.623Z</time></trkpt><trkpt lat="10.2235909" lon="-75.4103142"><ele>33.0</ele><time>2026-04-18T18:45:07.627Z</time></trkpt><trkpt lat="10.2236417" lon="-75.4103977"><ele>33.0</ele><time>2026-04-18T18:45:08.622Z</time></trkpt><trkpt lat="10.2236898" lon="-75.4104822"><ele>33.0</ele><time>2026-04-18T18:45:09.625Z</time></trkpt><trkpt lat="10.2237447" lon="-75.4105592"><ele>33.0</ele><time>2026-04-18T18:45:10.624Z</time></trkpt><trkpt lat="10.223801" lon="-75.4106365"><ele>33.0</ele><time>2026-04-18T18:45:11.638Z</time></trkpt><trkpt lat="10.2238554" lon="-75.4107182"><ele>33.0</ele><time>2026-04-18T18:45:12.622Z</time></trkpt><trkpt lat="10.223904" lon="-75.4108002"><ele>33.0</ele><time>2026-04-18T18:45:13.622Z</time></trkpt><trkpt lat="10.223953" lon="-75.4108796"><ele>33.0</ele><time>2026-04-18T18:45:14.624Z</time></trkpt><trkpt lat="10.2239988" lon="-75.4109595"><ele>33.0</ele><time>2026-04-18T18:45:15.629Z</time></trkpt><trkpt lat="10.2240403" lon="-75.4110401"><ele>33.0</ele><time>2026-04-18T18:45:16.624Z</time></trkpt><trkpt lat="10.2240865" lon="-75.4111174"><ele>33.0</ele><time>2026-04-18T18:45:17.625Z</time></trkpt><trkpt lat="10.2241327" lon="-75.4111953"><ele>33.0</ele><time>2026-04-18T18:45:18.631Z</time></trkpt><trkpt lat="10.224179" lon="-75.4112651"><ele>33.0</ele><time>2026-04-18T18:45:19.627Z</time></trkpt><trkpt lat="10.2242246" lon="-75.4113432"><ele>33.0</ele><time>2026-04-18T18:45:20.624Z</time></trkpt><trkpt lat="10.2242715" lon="-75.4114146"><ele>33.0</ele><time>2026-04-18T18:45:21.625Z</time></trkpt><trkpt lat="10.2243165" lon="-75.4114957"><ele>33.0</ele><time>2026-04-18T18:45:22.619Z</time></trkpt><trkpt lat="10.2243624" lon="-75.4115758"><ele>33.0</ele><time>2026-04-18T18:45:23.622Z</time></trkpt><trkpt lat="10.224405" lon="-75.4116591"><ele>33.0</ele><time>2026-04-18T18:45:24.622Z</time></trkpt><trkpt lat="10.2244508" lon="-75.4117399"><ele>33.0</ele><time>2026-04-18T18:45:25.626Z</time></trkpt><trkpt lat="10.2245" lon="-75.4118231"><ele>33.0</ele><time>2026-04-18T18:45:26.625Z</time></trkpt><trkpt lat="10.2245488" lon="-75.4118994"><ele>33.0</ele><time>2026-04-18T18:45:27.621Z</time></trkpt><trkpt lat="10.2245906" lon="-75.4119751"><ele>33.0</ele><time>2026-04-18T18:45:28.624Z</time></trkpt><trkpt lat="10.2246341" lon="-75.4120463"><ele>33.0</ele><time>2026-04-18T18:45:29.623Z</time></trkpt><trkpt lat="10.2246804" lon="-75.4121119"><ele>33.0</ele><time>2026-04-18T18:45:30.624Z</time></trkpt><trkpt lat="10.2247221" lon="-75.4121815"><ele>33.0</ele><time>2026-04-18T18:45:31.623Z</time></trkpt><trkpt lat="10.2247644" lon="-75.4122523"><ele>33.0</ele><time>2026-04-18T18:45:32.619Z</time></trkpt><trkpt lat="10.2248043" lon="-75.4123221"><ele>33.0</ele><time>2026-04-18T18:45:33.624Z</time></trkpt><trkpt lat="10.2248465" lon="-75.4123974"><ele>33.0</ele><time>2026-04-18T18:45:34.628Z</time></trkpt><trkpt lat="10.2248931" lon="-75.4124761"><ele>33.0</ele><time>2026-04-18T18:45:35.627Z</time></trkpt><trkpt lat="10.2249397" lon="-75.4125573"><ele>33.0</ele><time>2026-04-18T18:45:36.63Z</time></trkpt><trkpt lat="10.2249836" lon="-75.4126389"><ele>33.0</ele><time>2026-04-18T18:45:37.625Z</time></trkpt><trkpt lat="10.2250299" lon="-75.4127174"><ele>33.0</ele><time>2026-04-18T18:45:38.622Z</time></trkpt><trkpt lat="10.2250762" lon="-75.4127928"><ele>33.0</ele><time>2026-04-18T18:45:39.632Z</time></trkpt><trkpt lat="10.2251183" lon="-75.4128673"><ele>33.0</ele><time>2026-04-18T18:45:40.622Z</time></trkpt><trkpt lat="10.2251597" lon="-75.4129346"><ele>33.0</ele><time>2026-04-18T18:45:41.625Z</time></trkpt><trkpt lat="10.2252014" lon="-75.4130095"><ele>33.0</ele><time>2026-04-18T18:45:42.625Z</time></trkpt><trkpt lat="10.2252407" lon="-75.4130779"><ele>33.0</ele><time>2026-04-18T18:45:43.625Z</time></trkpt><trkpt lat="10.2252816" lon="-75.41315"><ele>32.5</ele><time>2026-04-18T18:45:44.622Z</time></trkpt><trkpt lat="10.2253251" lon="-75.4132215"><ele>32.0</ele><time>2026-04-18T18:45:45.621Z</time></trkpt><trkpt lat="10.2253705" lon="-75.4133031"><ele>31.5</ele><time>2026-04-18T18:45:46.622Z</time></trkpt><trkpt lat="10.2254152" lon="-75.4133851"><ele>31.0</ele><time>2026-04-18T18:45:47.623Z</time></trkpt><trkpt lat="10.2254629" lon="-75.4134623"><ele>30.5</ele><time>2026-04-18T18:45:48.627Z</time></trkpt><trkpt lat="10.22551" lon="-75.4135404"><ele>30.0</ele><time>2026-04-18T18:45:49.634Z</time></trkpt><trkpt lat="10.2255581" lon="-75.4136157"><ele>30.0</ele><time>2026-04-18T18:45:50.624Z</time></trkpt><trkpt lat="10.2256058" lon="-75.4136924"><ele>30.0</ele><time>2026-04-18T18:45:51.622Z</time></trkpt><trkpt lat="10.2256525" lon="-75.4137726"><ele>30.0</ele><time>2026-04-18T18:45:52.623Z</time></trkpt><trkpt lat="10.2257027" lon="-75.413854"><ele>30.0</ele><time>2026-04-18T18:45:53.628Z</time></trkpt><trkpt lat="10.2257496" lon="-75.4139256"><ele>30.0</ele><time>2026-04-18T18:45:54.625Z</time></trkpt><trkpt lat="10.2257962" lon="-75.414002"><ele>30.0</ele><time>2026-04-18T18:45:55.629Z</time></trkpt><trkpt lat="10.2258426" lon="-75.4140806"><ele>29.6</ele><time>2026-04-18T18:45:56.622Z</time></trkpt><trkpt lat="10.2258932" lon="-75.4141587"><ele>29.2</ele><time>2026-04-18T18:45:57.624Z</time></trkpt><trkpt lat="10.2259426" lon="-75.414241"><ele>28.799999999999997</ele><time>2026-04-18T18:45:58.626Z</time></trkpt><trkpt lat="10.2259879" lon="-75.4143255"><ele>28.4</ele><time>2026-04-18T18:45:59.626Z</time></trkpt><trkpt lat="10.2260368" lon="-75.4144073"><ele>28.0</ele><time>2026-04-18T18:46:00.627Z</time></trkpt><trkpt lat="10.2260867" lon="-75.4144938"><ele>28.0</ele><time>2026-04-18T18:46:01.623Z</time></trkpt><trkpt lat="10.2261371" lon="-75.4145801"><ele>27.999999999999996</ele><time>2026-04-18T18:46:02.624Z</time></trkpt><trkpt lat="10.2261878" lon="-75.4146612"><ele>27.999999999999996</ele><time>2026-04-18T18:46:03.621Z</time></trkpt><trkpt lat="10.2262363" lon="-75.4147426"><ele>28.0</ele><time>2026-04-18T18:46:04.623Z</time></trkpt><trkpt lat="10.2262841" lon="-75.4148248"><ele>28.0</ele><time>2026-04-18T18:46:05.621Z</time></trkpt><trkpt lat="10.2263356" lon="-75.4149071"><ele>28.0</ele><time>2026-04-18T18:46:06.627Z</time></trkpt><trkpt lat="10.2263886" lon="-75.4149857"><ele>27.999999999999996</ele><time>2026-04-18T18:46:07.621Z</time></trkpt><trkpt lat="10.2264407" lon="-75.4150591"><ele>27.999999999999996</ele><time>2026-04-18T18:46:08.625Z</time></trkpt><trkpt lat="10.2264921" lon="-75.4151381"><ele>28.0</ele><time>2026-04-18T18:46:09.624Z</time></trkpt><trkpt lat="10.2265381" lon="-75.4152156"><ele>28.0</ele><time>2026-04-18T18:46:10.624Z</time></trkpt><trkpt lat="10.2265805" lon="-75.4152961"><ele>27.833333333333336</ele><time>2026-04-18T18:46:11.625Z</time></trkpt><trkpt lat="10.2266289" lon="-75.4153726"><ele>27.666666666666668</ele><time>2026-04-18T18:46:12.622Z</time></trkpt><trkpt lat="10.2266755" lon="-75.4154435"><ele>27.5</ele><time>2026-04-18T18:46:13.625Z</time></trkpt><trkpt lat="10.2267219" lon="-75.4155247"><ele>27.333333333333336</ele><time>2026-04-18T18:46:14.622Z</time></trkpt><trkpt lat="10.2267697" lon="-75.4155946"><ele>27.166666666666668</ele><time>2026-04-18T18:46:15.628Z</time></trkpt><trkpt lat="10.2268172" lon="-75.4156714"><ele>27.0</ele><time>2026-04-18T18:46:16.622Z</time></trkpt><trkpt lat="10.226863" lon="-75.4157475"><ele>27.5</ele><time>2026-04-18T18:46:17.628Z</time></trkpt><trkpt lat="10.2269077" lon="-75.4158251"><ele>28.0</ele><time>2026-04-18T18:46:18.624Z</time></trkpt><trkpt lat="10.2269494" lon="-75.415899"><ele>28.5</ele><time>2026-04-18T18:46:19.625Z</time></trkpt><trkpt lat="10.2269929" lon="-75.4159758"><ele>29.0</ele><time>2026-04-18T18:46:20.629Z</time></trkpt><trkpt lat="10.227037" lon="-75.416054"><ele>29.5</ele><time>2026-04-18T18:46:21.63Z</time></trkpt><trkpt lat="10.2270873" lon="-75.4161268"><ele>30.0</ele><time>2026-04-18T18:46:22.624Z</time></trkpt><trkpt lat="10.2271332" lon="-75.4161992"><ele>30.0</ele><time>2026-04-18T18:46:23.623Z</time></trkpt><trkpt lat="10.227182" lon="-75.4162656"><ele>30.0</ele><time>2026-04-18T18:46:24.629Z</time></trkpt><trkpt lat="10.2272271" lon="-75.4163407"><ele>30.0</ele><time>2026-04-18T18:46:25.62Z</time></trkpt><trkpt lat="10.2272713" lon="-75.4164146"><ele>30.0</ele><time>2026-04-18T18:46:26.628Z</time></trkpt><trkpt lat="10.2273136" lon="-75.4164916"><ele>30.0</ele><time>2026-04-18T18:46:27.626Z</time></trkpt><trkpt lat="10.2273562" lon="-75.4165691"><ele>30.0</ele><time>2026-04-18T18:46:28.627Z</time></trkpt><trkpt lat="10.227401" lon="-75.4166426"><ele>30.0</ele><time>2026-04-18T18:46:29.624Z</time></trkpt><trkpt lat="10.2274471" lon="-75.4167146"><ele>30.0</ele><time>2026-04-18T18:46:30.621Z</time></trkpt><trkpt lat="10.2274907" lon="-75.416792"><ele>30.0</ele><time>2026-04-18T18:46:31.618Z</time></trkpt><trkpt lat="10.2275352" lon="-75.416868"><ele>30.0</ele><time>2026-04-18T18:46:32.621Z</time></trkpt><trkpt lat="10.227577" lon="-75.4169469"><ele>30.0</ele><time>2026-04-18T18:46:33.623Z</time></trkpt><trkpt lat="10.2276261" lon="-75.4170239"><ele>30.0</ele><time>2026-04-18T18:46:34.622Z</time></trkpt><trkpt lat="10.227672" lon="-75.4170984"><ele>30.0</ele><time>2026-04-18T18:46:35.622Z</time></trkpt><trkpt lat="10.2277179" lon="-75.417176"><ele>30.0</ele><time>2026-04-18T18:46:36.626Z</time></trkpt><trkpt lat="10.2277536" lon="-75.4172513"><ele>30.0</ele><time>2026-04-18T18:46:37.625Z</time></trkpt><trkpt lat="10.2277962" lon="-75.417325"><ele>30.0</ele><time>2026-04-18T18:46:38.624Z</time></trkpt><trkpt lat="10.2278405" lon="-75.4173998"><ele>30.0</ele><time>2026-04-18T18:46:39.629Z</time></trkpt><trkpt lat="10.2278814" lon="-75.4174745"><ele>30.0</ele><time>2026-04-18T18:46:40.626Z</time></trkpt><trkpt lat="10.2279304" lon="-75.4175462"><ele>30.0</ele><time>2026-04-18T18:46:41.622Z</time></trkpt><trkpt lat="10.2279757" lon="-75.4176171"><ele>30.0</ele><time>2026-04-18T18:46:42.627Z</time></trkpt><trkpt lat="10.2280194" lon="-75.4176911"><ele>30.0</ele><time>2026-04-18T18:46:43.62Z</time></trkpt><trkpt lat="10.228064" lon="-75.417768"><ele>30.0</ele><time>2026-04-18T18:46:44.618Z</time></trkpt><trkpt lat="10.228111" lon="-75.4178432"><ele>30.0</ele><time>2026-04-18T18:46:45.622Z</time></trkpt><trkpt lat="10.2281557" lon="-75.4179289"><ele>30.0</ele><time>2026-04-18T18:46:46.621Z</time></trkpt><trkpt lat="10.2282032" lon="-75.4179953"><ele>30.166666666666668</ele><time>2026-04-18T18:46:47.621Z</time></trkpt><trkpt lat="10.2282463" lon="-75.4180736"><ele>30.333333333333336</ele><time>2026-04-18T18:46:48.622Z</time></trkpt><trkpt lat="10.2282891" lon="-75.4181546"><ele>30.5</ele><time>2026-04-18T18:46:49.62Z</time></trkpt><trkpt lat="10.2283329" lon="-75.4182349"><ele>30.666666666666668</ele><time>2026-04-18T18:46:50.623Z</time></trkpt><trkpt lat="10.2283825" lon="-75.4183083"><ele>30.833333333333336</ele><time>2026-04-18T18:46:51.621Z</time></trkpt><trkpt lat="10.2284259" lon="-75.4183834"><ele>31.0</ele><time>2026-04-18T18:46:52.619Z</time></trkpt><trkpt lat="10.2284732" lon="-75.4184622"><ele>31.000000000000004</ele><time>2026-04-18T18:46:53.618Z</time></trkpt><trkpt lat="10.2285165" lon="-75.4185321"><ele>31.0</ele><time>2026-04-18T18:46:54.62Z</time></trkpt><trkpt lat="10.2285639" lon="-75.4186087"><ele>31.0</ele><time>2026-04-18T18:46:55.622Z</time></trkpt><trkpt lat="10.2286103" lon="-75.4186889"><ele>31.0</ele><time>2026-04-18T18:46:56.619Z</time></trkpt><trkpt lat="10.228657" lon="-75.4187665"><ele>31.000000000000004</ele><time>2026-04-18T18:46:57.619Z</time></trkpt><trkpt lat="10.2287041" lon="-75.4188489"><ele>31.0</ele><time>2026-04-18T18:46:58.62Z</time></trkpt><trkpt lat="10.2287535" lon="-75.4189306"><ele>30.8</ele><time>2026-04-18T18:46:59.622Z</time></trkpt><trkpt lat="10.2288033" lon="-75.4190157"><ele>30.6</ele><time>2026-04-18T18:47:00.622Z</time></trkpt><trkpt lat="10.2288489" lon="-75.4191016"><ele>30.4</ele><time>2026-04-18T18:47:01.619Z</time></trkpt><trkpt lat="10.2288975" lon="-75.4191877"><ele>30.2</ele><time>2026-04-18T18:47:02.62Z</time></trkpt><trkpt lat="10.2289477" lon="-75.4192712"><ele>30.0</ele><time>2026-04-18T18:47:03.623Z</time></trkpt><trkpt lat="10.2289945" lon="-75.4193566"><ele>29.6</ele><time>2026-04-18T18:47:04.621Z</time></trkpt><trkpt lat="10.2290456" lon="-75.419441"><ele>29.2</ele><time>2026-04-18T18:47:05.62Z</time></trkpt><trkpt lat="10.2290964" lon="-75.4195267"><ele>28.799999999999997</ele><time>2026-04-18T18:47:06.624Z</time></trkpt><trkpt lat="10.2291446" lon="-75.4196118"><ele>28.4</ele><time>2026-04-18T18:47:07.626Z</time></trkpt><trkpt lat="10.2291897" lon="-75.419702"><ele>28.0</ele><time>2026-04-18T18:47:08.624Z</time></trkpt><trkpt lat="10.2292372" lon="-75.4197882"><ele>28.0</ele><time>2026-04-18T18:47:09.623Z</time></trkpt><trkpt lat="10.229289" lon="-75.4198728"><ele>27.999999999999996</ele><time>2026-04-18T18:47:10.625Z</time></trkpt><trkpt lat="10.2293462" lon="-75.419958"><ele>27.999999999999996</ele><time>2026-04-18T18:47:11.624Z</time></trkpt><trkpt lat="10.2293987" lon="-75.4200254"><ele>28.0</ele><time>2026-04-18T18:47:12.625Z</time></trkpt><trkpt lat="10.2294508" lon="-75.4201011"><ele>28.0</ele><time>2026-04-18T18:47:13.622Z</time></trkpt><trkpt lat="10.2294932" lon="-75.4201757"><ele>28.000000000000004</ele><time>2026-04-18T18:47:14.63Z</time></trkpt><trkpt lat="10.229537" lon="-75.4202511"><ele>28.0</ele><time>2026-04-18T18:47:15.626Z</time></trkpt><trkpt lat="10.2295754" lon="-75.4203184"><ele>28.0</ele><time>2026-04-18T18:47:16.627Z</time></trkpt><trkpt lat="10.2296161" lon="-75.4203929"><ele>28.0</ele><time>2026-04-18T18:47:17.636Z</time></trkpt><trkpt lat="10.2296603" lon="-75.4204649"><ele>28.000000000000004</ele><time>2026-04-18T18:47:18.624Z</time></trkpt><trkpt lat="10.2297094" lon="-75.4205374"><ele>28.0</ele><time>2026-04-18T18:47:19.626Z</time></trkpt><trkpt lat="10.2297561" lon="-75.4206108"><ele>28.333333333333336</ele><time>2026-04-18T18:47:20.628Z</time></trkpt><trkpt lat="10.2298016" lon="-75.420688"><ele>28.666666666666668</ele><time>2026-04-18T18:47:21.626Z</time></trkpt><trkpt lat="10.2298484" lon="-75.4207614"><ele>29.0</ele><time>2026-04-18T18:47:22.623Z</time></trkpt><trkpt lat="10.2298918" lon="-75.4208397"><ele>29.333333333333336</ele><time>2026-04-18T18:47:23.623Z</time></trkpt><trkpt lat="10.2299371" lon="-75.4209181"><ele>29.666666666666668</ele><time>2026-04-18T18:47:24.627Z</time></trkpt><trkpt lat="10.229987" lon="-75.4209933"><ele>30.0</ele><time>2026-04-18T18:47:25.626Z</time></trkpt><trkpt lat="10.2300321" lon="-75.4210729"><ele>30.166666666666668</ele><time>2026-04-18T18:47:26.635Z</time></trkpt><trkpt lat="10.2300808" lon="-75.4211432"><ele>30.333333333333336</ele><time>2026-04-18T18:47:27.622Z</time></trkpt><trkpt lat="10.2301254" lon="-75.4212194"><ele>30.5</ele><time>2026-04-18T18:47:28.621Z</time></trkpt><trkpt lat="10.2301719" lon="-75.4212892"><ele>30.666666666666668</ele><time>2026-04-18T18:47:29.619Z</time></trkpt><trkpt lat="10.2302198" lon="-75.4213598"><ele>30.833333333333336</ele><time>2026-04-18T18:47:30.621Z</time></trkpt><trkpt lat="10.2302686" lon="-75.4214298"><ele>31.0</ele><time>2026-04-18T18:47:31.622Z</time></trkpt><trkpt lat="10.2303188" lon="-75.4214958"><ele>31.666666666666668</ele><time>2026-04-18T18:47:32.621Z</time></trkpt><trkpt lat="10.2303705" lon="-75.4215632"><ele>32.333333333333336</ele><time>2026-04-18T18:47:33.62Z</time></trkpt><trkpt lat="10.2304231" lon="-75.4216205"><ele>33.0</ele><time>2026-04-18T18:47:34.622Z</time></trkpt><trkpt lat="10.2304757" lon="-75.4216854"><ele>33.666666666666664</ele><time>2026-04-18T18:47:35.623Z</time></trkpt><trkpt lat="10.2305295" lon="-75.4217478"><ele>34.33333333333333</ele><time>2026-04-18T18:47:36.622Z</time></trkpt><trkpt lat="10.2305839" lon="-75.4218022"><ele>35.0</ele><time>2026-04-18T18:47:37.624Z</time></trkpt><trkpt lat="10.2306318" lon="-75.4218648"><ele>35.0</ele><time>2026-04-18T18:47:38.625Z</time></trkpt><trkpt lat="10.230677" lon="-75.4219261"><ele>35.0</ele><time>2026-04-18T18:47:39.624Z</time></trkpt><trkpt lat="10.2307236" lon="-75.4219899"><ele>35.0</ele><time>2026-04-18T18:47:40.626Z</time></trkpt><trkpt lat="10.2307742" lon="-75.4220428"><ele>35.0</ele><time>2026-04-18T18:47:41.623Z</time></trkpt><trkpt lat="10.2308194" lon="-75.4221042"><ele>35.0</ele><time>2026-04-18T18:47:42.62Z</time></trkpt><trkpt lat="10.230867" lon="-75.4221597"><ele>35.0</ele><time>2026-04-18T18:47:43.62Z</time></trkpt><trkpt lat="10.2309116" lon="-75.4222175"><ele>35.0</ele><time>2026-04-18T18:47:44.627Z</time></trkpt><trkpt lat="10.2309528" lon="-75.4222775"><ele>35.285714285714285</ele><time>2026-04-18T18:47:45.627Z</time></trkpt><trkpt lat="10.2309951" lon="-75.4223342"><ele>35.57142857142857</ele><time>2026-04-18T18:47:46.624Z</time></trkpt><trkpt lat="10.2310431" lon="-75.4223838"><ele>35.85714285714286</ele><time>2026-04-18T18:47:47.627Z</time></trkpt><trkpt lat="10.2310793" lon="-75.4224486"><ele>36.14285714285714</ele><time>2026-04-18T18:47:48.626Z</time></trkpt><trkpt lat="10.2311124" lon="-75.4225156"><ele>36.42857142857143</ele><time>2026-04-18T18:47:49.623Z</time></trkpt><trkpt lat="10.2311523" lon="-75.422581"><ele>36.714285714285715</ele><time>2026-04-18T18:47:50.623Z</time></trkpt><trkpt lat="10.2311904" lon="-75.4226481"><ele>37.0</ele><time>2026-04-18T18:47:51.626Z</time></trkpt><trkpt lat="10.2312275" lon="-75.4227192"><ele>37.0</ele><time>2026-04-18T18:47:52.624Z</time></trkpt><trkpt lat="10.2312666" lon="-75.4227879"><ele>37.0</ele><time>2026-04-18T18:47:53.626Z</time></trkpt><trkpt lat="10.2312999" lon="-75.4228602"><ele>37.0</ele><time>2026-04-18T18:47:54.625Z</time></trkpt><trkpt lat="10.2313321" lon="-75.4229283"><ele>37.0</ele><time>2026-04-18T18:47:55.624Z</time></trkpt><trkpt lat="10.2313648" lon="-75.4230027"><ele>37.0</ele><time>2026-04-18T18:47:56.627Z</time></trkpt><trkpt lat="10.2313935" lon="-75.4230774"><ele>37.0</ele><time>2026-04-18T18:47:57.626Z</time></trkpt><trkpt lat="10.231423" lon="-75.4231498"><ele>37.0</ele><time>2026-04-18T18:47:58.621Z</time></trkpt><trkpt lat="10.2314529" lon="-75.4232244"><ele>37.0</ele><time>2026-04-18T18:47:59.62Z</time></trkpt><trkpt lat="10.231479" lon="-75.4232935"><ele>37.0</ele><time>2026-04-18T18:48:00.624Z</time></trkpt><trkpt lat="10.2315102" lon="-75.4233673"><ele>37.0</ele><time>2026-04-18T18:48:01.624Z</time></trkpt><trkpt lat="10.2315424" lon="-75.4234361"><ele>37.0</ele><time>2026-04-18T18:48:02.623Z</time></trkpt><trkpt lat="10.231576" lon="-75.4235059"><ele>37.0</ele><time>2026-04-18T18:48:03.626Z</time></trkpt><trkpt lat="10.231608" lon="-75.4235802"><ele>37.0</ele><time>2026-04-18T18:48:04.628Z</time></trkpt><trkpt lat="10.2316415" lon="-75.4236555"><ele>37.0</ele><time>2026-04-18T18:48:05.626Z</time></trkpt><trkpt lat="10.2316712" lon="-75.4237258"><ele>37.0</ele><time>2026-04-18T18:48:06.621Z</time></trkpt><trkpt lat="10.2317019" lon="-75.4237877"><ele>37.0</ele><time>2026-04-18T18:48:07.622Z</time></trkpt><trkpt lat="10.2317278" lon="-75.4238526"><ele>37.0</ele><time>2026-04-18T18:48:08.63Z</time></trkpt><trkpt lat="10.2317871" lon="-75.4239707"><ele>37.0</ele><time>2026-04-18T18:48:10.624Z</time></trkpt><trkpt lat="10.2318207" lon="-75.4240381"><ele>37.42857142857143</ele><time>2026-04-18T18:48:11.633Z</time></trkpt><trkpt lat="10.2318531" lon="-75.4240999"><ele>37.857142857142854</ele><time>2026-04-18T18:48:12.623Z</time></trkpt><trkpt lat="10.2318884" lon="-75.424157"><ele>38.285714285714285</ele><time>2026-04-18T18:48:13.626Z</time></trkpt><trkpt lat="10.2319179" lon="-75.4242179"><ele>38.714285714285715</ele><time>2026-04-18T18:48:14.62Z</time></trkpt><trkpt lat="10.2319547" lon="-75.4242787"><ele>39.142857142857146</ele><time>2026-04-18T18:48:15.625Z</time></trkpt><trkpt lat="10.2319894" lon="-75.4243412"><ele>39.57142857142857</ele><time>2026-04-18T18:48:16.621Z</time></trkpt><trkpt lat="10.2320255" lon="-75.4243992"><ele>40.0</ele><time>2026-04-18T18:48:17.623Z</time></trkpt><trkpt lat="10.232061" lon="-75.4244603"><ele>40.0</ele><time>2026-04-18T18:48:18.627Z</time></trkpt><trkpt lat="10.2320968" lon="-75.4245164"><ele>40.0</ele><time>2026-04-18T18:48:19.621Z</time></trkpt><trkpt lat="10.2321285" lon="-75.4245794"><ele>40.0</ele><time>2026-04-18T18:48:20.624Z</time></trkpt><trkpt lat="10.2321641" lon="-75.4246454"><ele>40.0</ele><time>2026-04-18T18:48:21.624Z</time></trkpt><trkpt lat="10.2322028" lon="-75.4247079"><ele>40.0</ele><time>2026-04-18T18:48:22.625Z</time></trkpt><trkpt lat="10.2322386" lon="-75.4247692"><ele>40.0</ele><time>2026-04-18T18:48:23.625Z</time></trkpt><trkpt lat="10.2322747" lon="-75.4248296"><ele>40.0</ele><time>2026-04-18T18:48:24.623Z</time></trkpt><trkpt lat="10.232309" lon="-75.4248885"><ele>40.14285714285714</ele><time>2026-04-18T18:48:25.623Z</time></trkpt><trkpt lat="10.2323485" lon="-75.4249549"><ele>40.285714285714285</ele><time>2026-04-18T18:48:26.627Z</time></trkpt><trkpt lat="10.2323862" lon="-75.4250196"><ele>40.42857142857143</ele><time>2026-04-18T18:48:27.621Z</time></trkpt><trkpt lat="10.2324246" lon="-75.4250828"><ele>40.57142857142857</ele><time>2026-04-18T18:48:28.622Z</time></trkpt><trkpt lat="10.2324613" lon="-75.4251489"><ele>40.714285714285715</ele><time>2026-04-18T18:48:29.624Z</time></trkpt><trkpt lat="10.2325017" lon="-75.4252107"><ele>40.857142857142854</ele><time>2026-04-18T18:48:30.627Z</time></trkpt><trkpt lat="10.2325371" lon="-75.4252746"><ele>41.0</ele><time>2026-04-18T18:48:31.622Z</time></trkpt><trkpt lat="10.2325775" lon="-75.4253368"><ele>41.0</ele><time>2026-04-18T18:48:32.624Z</time></trkpt><trkpt lat="10.232613" lon="-75.4253986"><ele>41.0</ele><time>2026-04-18T18:48:33.622Z</time></trkpt><trkpt lat="10.2326516" lon="-75.4254619"><ele>41.0</ele><time>2026-04-18T18:48:34.62Z</time></trkpt><trkpt lat="10.23272" lon="-75.4255726"><ele>41.0</ele><time>2026-04-18T18:48:36.631Z</time></trkpt><trkpt lat="10.2327541" lon="-75.4256301"><ele>41.0</ele><time>2026-04-18T18:48:37.625Z</time></trkpt><trkpt lat="10.2327863" lon="-75.4256877"><ele>41.0</ele><time>2026-04-18T18:48:38.626Z</time></trkpt><trkpt lat="10.2328203" lon="-75.4257455"><ele>41.14285714285714</ele><time>2026-04-18T18:48:39.625Z</time></trkpt><trkpt lat="10.2328531" lon="-75.425804"><ele>41.285714285714285</ele><time>2026-04-18T18:48:40.623Z</time></trkpt><trkpt lat="10.2328872" lon="-75.4258628"><ele>41.42857142857143</ele><time>2026-04-18T18:48:41.624Z</time></trkpt><trkpt lat="10.2329216" lon="-75.4259212"><ele>41.57142857142857</ele><time>2026-04-18T18:48:42.625Z</time></trkpt><trkpt lat="10.2329577" lon="-75.4259804"><ele>41.714285714285715</ele><time>2026-04-18T18:48:43.63Z</time></trkpt><trkpt lat="10.2329961" lon="-75.4260354"><ele>41.857142857142854</ele><time>2026-04-18T18:48:44.63Z</time></trkpt><trkpt lat="10.2330383" lon="-75.4260997"><ele>42.0</ele><time>2026-04-18T18:48:45.621Z</time></trkpt><trkpt lat="10.2330766" lon="-75.4261575"><ele>42.0</ele><time>2026-04-18T18:48:46.618Z</time></trkpt><trkpt lat="10.233115" lon="-75.4262226"><ele>42.0</ele><time>2026-04-18T18:48:47.624Z</time></trkpt><trkpt lat="10.2331487" lon="-75.4262881"><ele>42.0</ele><time>2026-04-18T18:48:48.625Z</time></trkpt><trkpt lat="10.233191" lon="-75.4263519"><ele>42.0</ele><time>2026-04-18T18:48:49.622Z</time></trkpt><trkpt lat="10.2332325" lon="-75.4264219"><ele>42.0</ele><time>2026-04-18T18:48:50.623Z</time></trkpt><trkpt lat="10.2332713" lon="-75.42649"><ele>42.0</ele><time>2026-04-18T18:48:51.623Z</time></trkpt><trkpt lat="10.233315" lon="-75.4265619"><ele>42.0</ele><time>2026-04-18T18:48:52.623Z</time></trkpt><trkpt lat="10.2333585" lon="-75.4266334"><ele>42.0</ele><time>2026-04-18T18:48:53.626Z</time></trkpt><trkpt lat="10.2334041" lon="-75.4267062"><ele>42.0</ele><time>2026-04-18T18:48:54.623Z</time></trkpt><trkpt lat="10.2334494" lon="-75.4267847"><ele>42.0</ele><time>2026-04-18T18:48:55.624Z</time></trkpt><trkpt lat="10.2334928" lon="-75.4268545"><ele>42.0</ele><time>2026-04-18T18:48:56.626Z</time></trkpt><trkpt lat="10.2335361" lon="-75.4269277"><ele>42.0</ele><time>2026-04-18T18:48:57.626Z</time></trkpt><trkpt lat="10.2335796" lon="-75.4270068"><ele>42.0</ele><time>2026-04-18T18:48:58.629Z</time></trkpt><trkpt lat="10.2336314" lon="-75.4270761"><ele>42.0</ele><time>2026-04-18T18:48:59.624Z</time></trkpt><trkpt lat="10.2336735" lon="-75.4271556"><ele>42.0</ele><time>2026-04-18T18:49:00.622Z</time></trkpt><trkpt lat="10.2337177" lon="-75.4272326"><ele>42.0</ele><time>2026-04-18T18:49:01.632Z</time></trkpt><trkpt lat="10.2337608" lon="-75.4273086"><ele>42.0</ele><time>2026-04-18T18:49:02.624Z</time></trkpt><trkpt lat="10.2338035" lon="-75.4273844"><ele>42.0</ele><time>2026-04-18T18:49:03.618Z</time></trkpt><trkpt lat="10.2338438" lon="-75.4274584"><ele>42.2</ele><time>2026-04-18T18:49:04.623Z</time></trkpt><trkpt lat="10.2338805" lon="-75.427534"><ele>42.400000000000006</ele><time>2026-04-18T18:49:05.622Z</time></trkpt><trkpt lat="10.2339268" lon="-75.4276078"><ele>42.599999999999994</ele><time>2026-04-18T18:49:06.62Z</time></trkpt><trkpt lat="10.2339779" lon="-75.4276917"><ele>42.8</ele><time>2026-04-18T18:49:07.627Z</time></trkpt><trkpt lat="10.2340276" lon="-75.4277707"><ele>43.0</ele><time>2026-04-18T18:49:08.624Z</time></trkpt><trkpt lat="10.2340793" lon="-75.4278509"><ele>43.0</ele><time>2026-04-18T18:49:09.624Z</time></trkpt><trkpt lat="10.2341295" lon="-75.4279338"><ele>43.0</ele><time>2026-04-18T18:49:10.622Z</time></trkpt><trkpt lat="10.2341788" lon="-75.4280203"><ele>43.0</ele><time>2026-04-18T18:49:11.62Z</time></trkpt><trkpt lat="10.2342304" lon="-75.4281008"><ele>43.0</ele><time>2026-04-18T18:49:12.625Z</time></trkpt><trkpt lat="10.2342752" lon="-75.4281843"><ele>43.0</ele><time>2026-04-18T18:49:13.625Z</time></trkpt><trkpt lat="10.234325" lon="-75.4282649"><ele>42.5</ele><time>2026-04-18T18:49:14.624Z</time></trkpt><trkpt lat="10.2343689" lon="-75.4283455"><ele>42.0</ele><time>2026-04-18T18:49:15.621Z</time></trkpt><trkpt lat="10.2344186" lon="-75.4284207"><ele>41.5</ele><time>2026-04-18T18:49:16.623Z</time></trkpt><trkpt lat="10.2344668" lon="-75.4284993"><ele>41.0</ele><time>2026-04-18T18:49:17.619Z</time></trkpt><trkpt lat="10.2345108" lon="-75.4285793"><ele>40.5</ele><time>2026-04-18T18:49:18.619Z</time></trkpt><trkpt lat="10.2345578" lon="-75.4286549"><ele>40.0</ele><time>2026-04-18T18:49:19.627Z</time></trkpt><trkpt lat="10.2346041" lon="-75.4287303"><ele>40.0</ele><time>2026-04-18T18:49:20.63Z</time></trkpt><trkpt lat="10.2346478" lon="-75.4288037"><ele>40.0</ele><time>2026-04-18T18:49:21.626Z</time></trkpt><trkpt lat="10.2346891" lon="-75.4288734"><ele>40.0</ele><time>2026-04-18T18:49:22.625Z</time></trkpt><trkpt lat="10.234729" lon="-75.4289425"><ele>40.0</ele><time>2026-04-18T18:49:23.624Z</time></trkpt><trkpt lat="10.2347667" lon="-75.4290156"><ele>40.0</ele><time>2026-04-18T18:49:24.626Z</time></trkpt><trkpt lat="10.2348044" lon="-75.4290805"><ele>40.0</ele><time>2026-04-18T18:49:25.625Z</time></trkpt><trkpt lat="10.2348407" lon="-75.4291477"><ele>39.714285714285715</ele><time>2026-04-18T18:49:26.627Z</time></trkpt><trkpt lat="10.2348832" lon="-75.4292107"><ele>39.42857142857143</ele><time>2026-04-18T18:49:27.626Z</time></trkpt><trkpt lat="10.234924" lon="-75.4292731"><ele>39.14285714285714</ele><time>2026-04-18T18:49:28.633Z</time></trkpt><trkpt lat="10.2349611" lon="-75.4293393"><ele>38.85714285714286</ele><time>2026-04-18T18:49:29.629Z</time></trkpt><trkpt lat="10.235002" lon="-75.4294029"><ele>38.57142857142858</ele><time>2026-04-18T18:49:30.622Z</time></trkpt><trkpt lat="10.2350416" lon="-75.4294645"><ele>38.285714285714285</ele><time>2026-04-18T18:49:31.621Z</time></trkpt><trkpt lat="10.2350798" lon="-75.4295277"><ele>38.0</ele><time>2026-04-18T18:49:32.624Z</time></trkpt><trkpt lat="10.2351218" lon="-75.4295949"><ele>37.5</ele><time>2026-04-18T18:49:33.622Z</time></trkpt><trkpt lat="10.2351653" lon="-75.4296527"><ele>37.0</ele><time>2026-04-18T18:49:34.618Z</time></trkpt><trkpt lat="10.2352103" lon="-75.4297151"><ele>36.5</ele><time>2026-04-18T18:49:35.622Z</time></trkpt><trkpt lat="10.2352559" lon="-75.4297876"><ele>36.0</ele><time>2026-04-18T18:49:36.622Z</time></trkpt><trkpt lat="10.2352987" lon="-75.4298566"><ele>35.5</ele><time>2026-04-18T18:49:37.624Z</time></trkpt><trkpt lat="10.2353417" lon="-75.4299269"><ele>35.0</ele><time>2026-04-18T18:49:38.624Z</time></trkpt><trkpt lat="10.2353846" lon="-75.429999"><ele>35.0</ele><time>2026-04-18T18:49:39.626Z</time></trkpt><trkpt lat="10.2354273" lon="-75.4300686"><ele>35.0</ele><time>2026-04-18T18:49:40.622Z</time></trkpt><trkpt lat="10.2354678" lon="-75.4301354"><ele>35.0</ele><time>2026-04-18T18:49:41.623Z</time></trkpt><trkpt lat="10.2355093" lon="-75.4301978"><ele>35.0</ele><time>2026-04-18T18:49:42.626Z</time></trkpt><trkpt lat="10.2355454" lon="-75.430264"><ele>35.0</ele><time>2026-04-18T18:49:43.623Z</time></trkpt><trkpt lat="10.2355789" lon="-75.4303226"><ele>35.0</ele><time>2026-04-18T18:49:44.621Z</time></trkpt><trkpt lat="10.2356269" lon="-75.4304141"><ele>34.57142857142857</ele><time>2026-04-18T18:49:46.624Z</time></trkpt><trkpt lat="10.2356503" lon="-75.4304765"><ele>34.14285714285714</ele><time>2026-04-18T18:51:35.626Z</time></trkpt><trkpt lat="10.2356812" lon="-75.4305375"><ele>33.714285714285715</ele><time>2026-04-18T18:51:40.623Z</time></trkpt><trkpt lat="10.2357178" lon="-75.4305929"><ele>33.285714285714285</ele><time>2026-04-18T18:51:43.62Z</time></trkpt><trkpt lat="10.2357557" lon="-75.430651"><ele>32.857142857142854</ele><time>2026-04-18T18:51:45.622Z</time></trkpt><trkpt lat="10.2357985" lon="-75.43072"><ele>32.42857142857143</ele><time>2026-04-18T18:51:47.622Z</time></trkpt><trkpt lat="10.235844" lon="-75.4307968"><ele>32.0</ele><time>2026-04-18T18:51:49.62Z</time></trkpt><trkpt lat="10.2358923" lon="-75.4308952"><ele>31.999999999999996</ele><time>2026-04-18T18:51:51.622Z</time></trkpt><trkpt lat="10.2359314" lon="-75.4309487"><ele>32.0</ele><time>2026-04-18T18:51:52.622Z</time></trkpt><trkpt lat="10.2359955" lon="-75.4310619"><ele>32.0</ele><time>2026-04-18T18:51:54.621Z</time></trkpt><trkpt lat="10.2360303" lon="-75.4311202"><ele>32.0</ele><time>2026-04-18T18:51:55.627Z</time></trkpt><trkpt lat="10.2360678" lon="-75.4311914"><ele>31.999999999999996</ele><time>2026-04-18T18:51:56.619Z</time></trkpt><trkpt lat="10.2361012" lon="-75.4312521"><ele>32.0</ele><time>2026-04-18T18:51:57.621Z</time></trkpt><trkpt lat="10.236138" lon="-75.4313129"><ele>31.999999999999996</ele><time>2026-04-18T18:51:58.62Z</time></trkpt><trkpt lat="10.236178" lon="-75.4313824"><ele>32.0</ele><time>2026-04-18T18:51:59.619Z</time></trkpt><trkpt lat="10.2362175" lon="-75.4314543"><ele>32.0</ele><time>2026-04-18T18:52:00.623Z</time></trkpt><trkpt lat="10.2362601" lon="-75.4315257"><ele>32.0</ele><time>2026-04-18T18:52:01.62Z</time></trkpt><trkpt lat="10.2363044" lon="-75.4316006"><ele>31.999999999999996</ele><time>2026-04-18T18:52:02.618Z</time></trkpt><trkpt lat="10.2363487" lon="-75.4316773"><ele>32.0</ele><time>2026-04-18T18:52:03.623Z</time></trkpt><trkpt lat="10.2363911" lon="-75.4317551"><ele>31.999999999999996</ele><time>2026-04-18T18:52:04.621Z</time></trkpt><trkpt lat="10.2364357" lon="-75.4318304"><ele>32.0</ele><time>2026-04-18T18:52:05.627Z</time></trkpt><trkpt lat="10.2364816" lon="-75.4319077"><ele>32.0</ele><time>2026-04-18T18:52:06.695Z</time></trkpt><trkpt lat="10.2365255" lon="-75.4319873"><ele>32.0</ele><time>2026-04-18T18:52:07.623Z</time></trkpt><trkpt lat="10.236567" lon="-75.4320664"><ele>31.999999999999996</ele><time>2026-04-18T18:52:08.618Z</time></trkpt><trkpt lat="10.2366136" lon="-75.4321489"><ele>32.0</ele><time>2026-04-18T18:52:09.624Z</time></trkpt><trkpt lat="10.2366597" lon="-75.4322248"><ele>32.6</ele><time>2026-04-18T18:52:10.622Z</time></trkpt><trkpt lat="10.2367064" lon="-75.4323044"><ele>33.2</ele><time>2026-04-18T18:52:11.64Z</time></trkpt><trkpt lat="10.2367546" lon="-75.4323825"><ele>33.8</ele><time>2026-04-18T18:52:12.622Z</time></trkpt><trkpt lat="10.2368041" lon="-75.4324632"><ele>34.4</ele><time>2026-04-18T18:52:13.619Z</time></trkpt><trkpt lat="10.236853" lon="-75.4325452"><ele>35.0</ele><time>2026-04-18T18:52:14.623Z</time></trkpt><trkpt lat="10.2368993" lon="-75.4326264"><ele>35.0</ele><time>2026-04-18T18:52:15.623Z</time></trkpt><trkpt lat="10.2369485" lon="-75.4327086"><ele>35.0</ele><time>2026-04-18T18:52:16.621Z</time></trkpt><trkpt lat="10.2370014" lon="-75.4327916"><ele>35.0</ele><time>2026-04-18T18:52:17.695Z</time></trkpt><trkpt lat="10.2370459" lon="-75.43287"><ele>35.0</ele><time>2026-04-18T18:52:18.625Z</time></trkpt><trkpt lat="10.2370914" lon="-75.4329522"><ele>35.0</ele><time>2026-04-18T18:52:19.628Z</time></trkpt><trkpt lat="10.2371389" lon="-75.4330299"><ele>34.8</ele><time>2026-04-18T18:52:20.625Z</time></trkpt><trkpt lat="10.2371884" lon="-75.4331122"><ele>34.6</ele><time>2026-04-18T18:52:21.622Z</time></trkpt><trkpt lat="10.2372392" lon="-75.4331976"><ele>34.4</ele><time>2026-04-18T18:52:22.623Z</time></trkpt><trkpt lat="10.2372877" lon="-75.4332801"><ele>34.2</ele><time>2026-04-18T18:52:23.622Z</time></trkpt><trkpt lat="10.2373379" lon="-75.4333638"><ele>34.0</ele><time>2026-04-18T18:52:24.62Z</time></trkpt><trkpt lat="10.23739" lon="-75.4334457"><ele>34.4</ele><time>2026-04-18T18:52:25.622Z</time></trkpt><trkpt lat="10.2374438" lon="-75.4335295"><ele>34.8</ele><time>2026-04-18T18:52:26.622Z</time></trkpt><trkpt lat="10.2375005" lon="-75.4336073"><ele>35.2</ele><time>2026-04-18T18:52:27.622Z</time></trkpt><trkpt lat="10.2375575" lon="-75.4336901"><ele>35.6</ele><time>2026-04-18T18:52:28.62Z</time></trkpt><trkpt lat="10.2376221" lon="-75.4337794"><ele>36.0</ele><time>2026-04-18T18:52:29.622Z</time></trkpt><trkpt lat="10.2376828" lon="-75.4338637"><ele>36.0</ele><time>2026-04-18T18:52:30.623Z</time></trkpt><trkpt lat="10.2377475" lon="-75.4339488"><ele>36.0</ele><time>2026-04-18T18:52:31.696Z</time></trkpt><trkpt lat="10.2378121" lon="-75.4340319"><ele>36.0</ele><time>2026-04-18T18:52:32.621Z</time></trkpt><trkpt lat="10.237877" lon="-75.4341158"><ele>36.0</ele><time>2026-04-18T18:52:33.626Z</time></trkpt><trkpt lat="10.2379446" lon="-75.4341995"><ele>36.0</ele><time>2026-04-18T18:52:34.62Z</time></trkpt><trkpt lat="10.238011" lon="-75.4342864"><ele>36.0</ele><time>2026-04-18T18:52:35.625Z</time></trkpt><trkpt lat="10.238072" lon="-75.4343684"><ele>36.0</ele><time>2026-04-18T18:52:36.619Z</time></trkpt><trkpt lat="10.2381368" lon="-75.4344512"><ele>36.0</ele><time>2026-04-18T18:52:37.657Z</time></trkpt><trkpt lat="10.2381998" lon="-75.4345357"><ele>36.0</ele><time>2026-04-18T18:52:38.625Z</time></trkpt><trkpt lat="10.238262" lon="-75.4346191"><ele>36.0</ele><time>2026-04-18T18:52:39.62Z</time></trkpt><trkpt lat="10.238324" lon="-75.4347054"><ele>35.6</ele><time>2026-04-18T18:52:40.622Z</time></trkpt><trkpt lat="10.2383823" lon="-75.4347954"><ele>35.2</ele><time>2026-04-18T18:52:41.622Z</time></trkpt><trkpt lat="10.2384425" lon="-75.4348783"><ele>34.8</ele><time>2026-04-18T18:52:42.619Z</time></trkpt><trkpt lat="10.238498" lon="-75.4349608"><ele>34.4</ele><time>2026-04-18T18:52:43.621Z</time></trkpt><trkpt lat="10.2385523" lon="-75.435046"><ele>34.0</ele><time>2026-04-18T18:52:44.655Z</time></trkpt><trkpt lat="10.2386045" lon="-75.43513"><ele>34.0</ele><time>2026-04-18T18:52:45.626Z</time></trkpt><trkpt lat="10.2386545" lon="-75.4352138"><ele>34.0</ele><time>2026-04-18T18:52:46.623Z</time></trkpt><trkpt lat="10.2387059" lon="-75.4352993"><ele>34.0</ele><time>2026-04-18T18:52:47.625Z</time></trkpt><trkpt lat="10.2387603" lon="-75.4353835"><ele>34.0</ele><time>2026-04-18T18:52:48.622Z</time></trkpt><trkpt lat="10.2388119" lon="-75.43547"><ele>34.0</ele><time>2026-04-18T18:52:49.62Z</time></trkpt><trkpt lat="10.2388621" lon="-75.4355582"><ele>33.8</ele><time>2026-04-18T18:52:50.624Z</time></trkpt><trkpt lat="10.2389148" lon="-75.4356504"><ele>33.599999999999994</ele><time>2026-04-18T18:52:51.629Z</time></trkpt><trkpt lat="10.2389664" lon="-75.4357386"><ele>33.4</ele><time>2026-04-18T18:52:52.621Z</time></trkpt><trkpt lat="10.2390198" lon="-75.4358286"><ele>33.199999999999996</ele><time>2026-04-18T18:52:53.618Z</time></trkpt><trkpt lat="10.2390737" lon="-75.4359142"><ele>33.0</ele><time>2026-04-18T18:52:54.618Z</time></trkpt><trkpt lat="10.2391278" lon="-75.4360062"><ele>32.8</ele><time>2026-04-18T18:52:55.619Z</time></trkpt><trkpt lat="10.2391826" lon="-75.4360964"><ele>32.599999999999994</ele><time>2026-04-18T18:52:56.623Z</time></trkpt><trkpt lat="10.23924" lon="-75.4361881"><ele>32.400000000000006</ele><time>2026-04-18T18:52:57.62Z</time></trkpt><trkpt lat="10.2392949" lon="-75.4362818"><ele>32.2</ele><time>2026-04-18T18:52:58.621Z</time></trkpt><trkpt lat="10.2393492" lon="-75.4363748"><ele>32.0</ele><time>2026-04-18T18:52:59.624Z</time></trkpt><trkpt lat="10.2394026" lon="-75.4364633"><ele>32.4</ele><time>2026-04-18T18:53:00.626Z</time></trkpt><trkpt lat="10.2394558" lon="-75.4365522"><ele>32.800000000000004</ele><time>2026-04-18T18:53:01.626Z</time></trkpt><trkpt lat="10.2395075" lon="-75.4366351"><ele>33.2</ele><time>2026-04-18T18:53:02.626Z</time></trkpt><trkpt lat="10.2395631" lon="-75.4367184"><ele>33.6</ele><time>2026-04-18T18:53:03.623Z</time></trkpt><trkpt lat="10.2396127" lon="-75.4368006"><ele>34.0</ele><time>2026-04-18T18:53:04.624Z</time></trkpt><trkpt lat="10.2396581" lon="-75.4368849"><ele>34.0</ele><time>2026-04-18T18:53:05.623Z</time></trkpt><trkpt lat="10.2397044" lon="-75.436964"><ele>34.0</ele><time>2026-04-18T18:53:06.695Z</time></trkpt><trkpt lat="10.2397476" lon="-75.4370414"><ele>34.0</ele><time>2026-04-18T18:53:07.626Z</time></trkpt><trkpt lat="10.2397915" lon="-75.4371161"><ele>34.0</ele><time>2026-04-18T18:53:08.624Z</time></trkpt><trkpt lat="10.2398358" lon="-75.4371926"><ele>34.0</ele><time>2026-04-18T18:53:09.624Z</time></trkpt><trkpt lat="10.2398771" lon="-75.4372675"><ele>34.0</ele><time>2026-04-18T18:53:10.62Z</time></trkpt><trkpt lat="10.2399217" lon="-75.4373468"><ele>34.5</ele><time>2026-04-18T18:53:11.695Z</time></trkpt><trkpt lat="10.2399659" lon="-75.4374248"><ele>35.0</ele><time>2026-04-18T18:53:12.623Z</time></trkpt><trkpt lat="10.2400128" lon="-75.4375025"><ele>35.5</ele><time>2026-04-18T18:53:13.621Z</time></trkpt><trkpt lat="10.24006" lon="-75.4375793"><ele>36.0</ele><time>2026-04-18T18:53:14.695Z</time></trkpt><trkpt lat="10.2401081" lon="-75.4376571"><ele>36.5</ele><time>2026-04-18T18:53:15.619Z</time></trkpt><trkpt lat="10.2401549" lon="-75.4377371"><ele>37.0</ele><time>2026-04-18T18:53:16.666Z</time></trkpt><trkpt lat="10.2402034" lon="-75.4378191"><ele>37.0</ele><time>2026-04-18T18:53:17.625Z</time></trkpt><trkpt lat="10.2402591" lon="-75.4378999"><ele>37.0</ele><time>2026-04-18T18:53:18.622Z</time></trkpt><trkpt lat="10.240306" lon="-75.4379776"><ele>37.0</ele><time>2026-04-18T18:53:19.626Z</time></trkpt><trkpt lat="10.2403515" lon="-75.4380588"><ele>37.0</ele><time>2026-04-18T18:53:20.627Z</time></trkpt><trkpt lat="10.2404" lon="-75.4381409"><ele>37.0</ele><time>2026-04-18T18:53:21.624Z</time></trkpt><trkpt lat="10.2404477" lon="-75.4382228"><ele>37.0</ele><time>2026-04-18T18:53:22.628Z</time></trkpt><trkpt lat="10.2404995" lon="-75.4383061"><ele>37.0</ele><time>2026-04-18T18:53:23.626Z</time></trkpt><trkpt lat="10.2405608" lon="-75.4383848"><ele>37.0</ele><time>2026-04-18T18:53:24.622Z</time></trkpt><trkpt lat="10.2406106" lon="-75.4384657"><ele>37.0</ele><time>2026-04-18T18:53:25.624Z</time></trkpt><trkpt lat="10.2406612" lon="-75.4385497"><ele>37.0</ele><time>2026-04-18T18:53:26.622Z</time></trkpt><trkpt lat="10.2407113" lon="-75.438637"><ele>37.0</ele><time>2026-04-18T18:53:27.626Z</time></trkpt><trkpt lat="10.2407567" lon="-75.4387228"><ele>37.0</ele><time>2026-04-18T18:53:28.623Z</time></trkpt><trkpt lat="10.2408096" lon="-75.4388104"><ele>37.0</ele><time>2026-04-18T18:53:29.624Z</time></trkpt><trkpt lat="10.2408592" lon="-75.4389009"><ele>37.0</ele><time>2026-04-18T18:53:30.621Z</time></trkpt><trkpt lat="10.2409106" lon="-75.4389948"><ele>37.0</ele><time>2026-04-18T18:53:31.62Z</time></trkpt><trkpt lat="10.2409626" lon="-75.4390879"><ele>36.800000000000004</ele><time>2026-04-18T18:53:32.619Z</time></trkpt><trkpt lat="10.2410133" lon="-75.4391769"><ele>36.6</ele><time>2026-04-18T18:53:33.619Z</time></trkpt><trkpt lat="10.241064" lon="-75.4392636"><ele>36.400000000000006</ele><time>2026-04-18T18:53:34.626Z</time></trkpt><trkpt lat="10.2411138" lon="-75.4393503"><ele>36.2</ele><time>2026-04-18T18:53:35.627Z</time></trkpt><trkpt lat="10.2411642" lon="-75.4394378"><ele>36.0</ele><time>2026-04-18T18:53:36.621Z</time></trkpt><trkpt lat="10.2412202" lon="-75.4395284"><ele>36.0</ele><time>2026-04-18T18:53:37.696Z</time></trkpt><trkpt lat="10.2412719" lon="-75.439616"><ele>36.0</ele><time>2026-04-18T18:53:38.62Z</time></trkpt><trkpt lat="10.241326" lon="-75.4397005"><ele>36.0</ele><time>2026-04-18T18:53:39.695Z</time></trkpt><trkpt lat="10.2413764" lon="-75.4397875"><ele>36.0</ele><time>2026-04-18T18:53:40.623Z</time></trkpt><trkpt lat="10.2414242" lon="-75.4398695"><ele>36.0</ele><time>2026-04-18T18:53:41.623Z</time></trkpt><trkpt lat="10.2414776" lon="-75.4399495"><ele>36.4</ele><time>2026-04-18T18:53:42.62Z</time></trkpt><trkpt lat="10.2415252" lon="-75.4400301"><ele>36.8</ele><time>2026-04-18T18:53:43.623Z</time></trkpt><trkpt lat="10.2415736" lon="-75.4401094"><ele>37.199999999999996</ele><time>2026-04-18T18:53:44.695Z</time></trkpt><trkpt lat="10.2416225" lon="-75.440192"><ele>37.6</ele><time>2026-04-18T18:53:45.626Z</time></trkpt><trkpt lat="10.2416694" lon="-75.4402748"><ele>38.0</ele><time>2026-04-18T18:53:46.621Z</time></trkpt><trkpt lat="10.2417188" lon="-75.4403579"><ele>38.0</ele><time>2026-04-18T18:53:47.625Z</time></trkpt><trkpt lat="10.2417663" lon="-75.4404388"><ele>38.0</ele><time>2026-04-18T18:53:48.625Z</time></trkpt><trkpt lat="10.2418151" lon="-75.440522"><ele>38.0</ele><time>2026-04-18T18:53:49.623Z</time></trkpt><trkpt lat="10.2418665" lon="-75.4406046"><ele>38.0</ele><time>2026-04-18T18:53:50.622Z</time></trkpt><trkpt lat="10.2419141" lon="-75.4406855"><ele>38.0</ele><time>2026-04-18T18:53:51.624Z</time></trkpt><trkpt lat="10.2419621" lon="-75.4407687"><ele>38.199999999999996</ele><time>2026-04-18T18:53:52.622Z</time></trkpt><trkpt lat="10.2420099" lon="-75.4408481"><ele>38.4</ele><time>2026-04-18T18:53:53.622Z</time></trkpt><trkpt lat="10.2420529" lon="-75.4409292"><ele>38.599999999999994</ele><time>2026-04-18T18:53:54.627Z</time></trkpt><trkpt lat="10.2420987" lon="-75.4410084"><ele>38.8</ele><time>2026-04-18T18:53:55.627Z</time></trkpt><trkpt lat="10.2421416" lon="-75.4410893"><ele>39.0</ele><time>2026-04-18T18:53:56.626Z</time></trkpt><trkpt lat="10.242188" lon="-75.4411711"><ele>39.0</ele><time>2026-04-18T18:53:57.63Z</time></trkpt><trkpt lat="10.2422325" lon="-75.4412545"><ele>39.0</ele><time>2026-04-18T18:53:58.627Z</time></trkpt><trkpt lat="10.2422746" lon="-75.4413392"><ele>39.0</ele><time>2026-04-18T18:53:59.623Z</time></trkpt><trkpt lat="10.2423127" lon="-75.4414219"><ele>39.0</ele><time>2026-04-18T18:54:00.62Z</time></trkpt><trkpt lat="10.2423549" lon="-75.4415044"><ele>39.0</ele><time>2026-04-18T18:54:01.621Z</time></trkpt><trkpt lat="10.2423988" lon="-75.4415937"><ele>38.8</ele><time>2026-04-18T18:54:02.621Z</time></trkpt><trkpt lat="10.2424379" lon="-75.4416799"><ele>38.599999999999994</ele><time>2026-04-18T18:54:03.623Z</time></trkpt><trkpt lat="10.2424777" lon="-75.4417691"><ele>38.4</ele><time>2026-04-18T18:54:04.621Z</time></trkpt><trkpt lat="10.2425167" lon="-75.4418604"><ele>38.199999999999996</ele><time>2026-04-18T18:54:05.625Z</time></trkpt><trkpt lat="10.2425586" lon="-75.441952"><ele>38.0</ele><time>2026-04-18T18:54:06.625Z</time></trkpt><trkpt lat="10.2426006" lon="-75.442042"><ele>38.4</ele><time>2026-04-18T18:54:07.624Z</time></trkpt><trkpt lat="10.2426419" lon="-75.4421371"><ele>38.8</ele><time>2026-04-18T18:54:08.622Z</time></trkpt><trkpt lat="10.2426836" lon="-75.4422313"><ele>39.2</ele><time>2026-04-18T18:54:09.623Z</time></trkpt><trkpt lat="10.242725" lon="-75.4423251"><ele>39.6</ele><time>2026-04-18T18:54:10.622Z</time></trkpt><trkpt lat="10.2427707" lon="-75.442415"><ele>40.0</ele><time>2026-04-18T18:54:11.628Z</time></trkpt><trkpt lat="10.2428158" lon="-75.442509"><ele>40.0</ele><time>2026-04-18T18:54:12.621Z</time></trkpt><trkpt lat="10.2428612" lon="-75.4426066"><ele>40.0</ele><time>2026-04-18T18:54:13.629Z</time></trkpt><trkpt lat="10.2429179" lon="-75.4426941"><ele>40.0</ele><time>2026-04-18T18:54:14.695Z</time></trkpt><trkpt lat="10.2429699" lon="-75.4427935"><ele>40.0</ele><time>2026-04-18T18:54:15.62Z</time></trkpt><trkpt lat="10.2430203" lon="-75.4428866"><ele>40.0</ele><time>2026-04-18T18:54:16.621Z</time></trkpt><trkpt lat="10.2430724" lon="-75.4429818"><ele>39.6</ele><time>2026-04-18T18:54:17.62Z</time></trkpt><trkpt lat="10.2431212" lon="-75.443073"><ele>39.2</ele><time>2026-04-18T18:54:18.643Z</time></trkpt><trkpt lat="10.2431687" lon="-75.4431609"><ele>38.8</ele><time>2026-04-18T18:54:19.695Z</time></trkpt><trkpt lat="10.2432175" lon="-75.4432528"><ele>38.4</ele><time>2026-04-18T18:54:20.695Z</time></trkpt><trkpt lat="10.243265" lon="-75.4433429"><ele>38.0</ele><time>2026-04-18T18:54:21.695Z</time></trkpt><trkpt lat="10.2433109" lon="-75.4434348"><ele>38.0</ele><time>2026-04-18T18:54:22.626Z</time></trkpt><trkpt lat="10.2433639" lon="-75.4435229"><ele>38.0</ele><time>2026-04-18T18:54:23.621Z</time></trkpt><trkpt lat="10.2434144" lon="-75.4436123"><ele>38.0</ele><time>2026-04-18T18:54:24.695Z</time></trkpt><trkpt lat="10.2434695" lon="-75.4437022"><ele>38.0</ele><time>2026-04-18T18:54:25.617Z</time></trkpt><trkpt lat="10.2435198" lon="-75.4437853"><ele>38.0</ele><time>2026-04-18T18:54:26.619Z</time></trkpt><trkpt lat="10.2435692" lon="-75.4438716"><ele>38.199999999999996</ele><time>2026-04-18T18:54:27.618Z</time></trkpt><trkpt lat="10.243617" lon="-75.4439565"><ele>38.4</ele><time>2026-04-18T18:54:28.62Z</time></trkpt><trkpt lat="10.2436646" lon="-75.4440422"><ele>38.599999999999994</ele><time>2026-04-18T18:54:29.695Z</time></trkpt><trkpt lat="10.2437081" lon="-75.4441185"><ele>38.8</ele><time>2026-04-18T18:54:30.695Z</time></trkpt><trkpt lat="10.2437585" lon="-75.4442009"><ele>39.0</ele><time>2026-04-18T18:54:31.695Z</time></trkpt><trkpt lat="10.2438054" lon="-75.4442852"><ele>39.0</ele><time>2026-04-18T18:54:32.619Z</time></trkpt><trkpt lat="10.2438534" lon="-75.4443654"><ele>39.0</ele><time>2026-04-18T18:54:33.618Z</time></trkpt><trkpt lat="10.2439027" lon="-75.4444407"><ele>39.0</ele><time>2026-04-18T18:54:34.62Z</time></trkpt><trkpt lat="10.2439515" lon="-75.444526"><ele>39.0</ele><time>2026-04-18T18:54:35.622Z</time></trkpt><trkpt lat="10.2439975" lon="-75.4446083"><ele>39.0</ele><time>2026-04-18T18:54:36.618Z</time></trkpt><trkpt lat="10.2440463" lon="-75.4446853"><ele>39.5</ele><time>2026-04-18T18:54:37.621Z</time></trkpt><trkpt lat="10.2440908" lon="-75.4447587"><ele>40.0</ele><time>2026-04-18T18:54:38.616Z</time></trkpt><trkpt lat="10.2441381" lon="-75.4448419"><ele>40.5</ele><time>2026-04-18T18:54:39.616Z</time></trkpt><trkpt lat="10.2441803" lon="-75.444916"><ele>41.0</ele><time>2026-04-18T18:54:40.619Z</time></trkpt><trkpt lat="10.2442232" lon="-75.4449893"><ele>41.5</ele><time>2026-04-18T18:54:41.618Z</time></trkpt><trkpt lat="10.2442662" lon="-75.4450612"><ele>42.0</ele><time>2026-04-18T18:54:42.621Z</time></trkpt><trkpt lat="10.2443161" lon="-75.4451213"><ele>42.0</ele><time>2026-04-18T18:54:43.62Z</time></trkpt><trkpt lat="10.2443725" lon="-75.4451706"><ele>42.0</ele><time>2026-04-18T18:54:44.62Z</time></trkpt><trkpt lat="10.2444203" lon="-75.445235"><ele>42.0</ele><time>2026-04-18T18:54:45.695Z</time></trkpt><trkpt lat="10.2444672" lon="-75.4452939"><ele>42.0</ele><time>2026-04-18T18:54:46.696Z</time></trkpt><trkpt lat="10.2445047" lon="-75.4453629"><ele>42.0</ele><time>2026-04-18T18:54:47.695Z</time></trkpt><trkpt lat="10.2445419" lon="-75.4454284"><ele>42.0</ele><time>2026-04-18T18:54:48.667Z</time></trkpt><trkpt lat="10.2445761" lon="-75.445487"><ele>42.0</ele><time>2026-04-18T18:54:49.622Z</time></trkpt><trkpt lat="10.2446116" lon="-75.4455429"><ele>42.400000000000006</ele><time>2026-04-18T18:54:50.62Z</time></trkpt><trkpt lat="10.2446404" lon="-75.4456033"><ele>42.800000000000004</ele><time>2026-04-18T18:54:51.618Z</time></trkpt><trkpt lat="10.244706" lon="-75.4457113"><ele>43.2</ele><time>2026-04-18T18:54:53.626Z</time></trkpt><trkpt lat="10.2447664" lon="-75.4458173"><ele>43.6</ele><time>2026-04-18T18:54:55.626Z</time></trkpt><trkpt lat="10.2448147" lon="-75.4459217"><ele>44.0</ele><time>2026-04-18T18:54:57.628Z</time></trkpt><trkpt lat="10.2448742" lon="-75.4460159"><ele>45.25</ele><time>2026-04-18T18:54:59.624Z</time></trkpt><trkpt lat="10.244929" lon="-75.4461191"><ele>46.5</ele><time>2026-04-18T18:55:01.628Z</time></trkpt><trkpt lat="10.2449827" lon="-75.4462216"><ele>47.75</ele><time>2026-04-18T18:55:03.623Z</time></trkpt><trkpt lat="10.2450363" lon="-75.4463218"><ele>49.0</ele><time>2026-04-18T18:55:05.619Z</time></trkpt><trkpt lat="10.2450898" lon="-75.4464267"><ele>49.166666666666664</ele><time>2026-04-18T18:55:07.622Z</time></trkpt><trkpt lat="10.2451462" lon="-75.4465325"><ele>49.33333333333333</ele><time>2026-04-18T18:55:09.622Z</time></trkpt><trkpt lat="10.2451781" lon="-75.4465885"><ele>49.5</ele><time>2026-04-18T18:55:10.623Z</time></trkpt><trkpt lat="10.245211" lon="-75.4466442"><ele>49.66666666666667</ele><time>2026-04-18T18:55:11.628Z</time></trkpt><trkpt lat="10.2452458" lon="-75.4467064"><ele>49.833333333333336</ele><time>2026-04-18T18:55:12.622Z</time></trkpt><trkpt lat="10.2452834" lon="-75.4467654"><ele>50.0</ele><time>2026-04-18T18:55:13.626Z</time></trkpt><trkpt lat="10.2453297" lon="-75.4468294"><ele>50.0</ele><time>2026-04-18T18:55:14.623Z</time></trkpt><trkpt lat="10.2453783" lon="-75.446899"><ele>50.0</ele><time>2026-04-18T18:55:15.623Z</time></trkpt><trkpt lat="10.2454297" lon="-75.4469722"><ele>50.0</ele><time>2026-04-18T18:55:16.624Z</time></trkpt><trkpt lat="10.2454847" lon="-75.4470503"><ele>50.0</ele><time>2026-04-18T18:55:17.624Z</time></trkpt><trkpt lat="10.2455403" lon="-75.4471266"><ele>50.0</ele><time>2026-04-18T18:55:18.623Z</time></trkpt><trkpt lat="10.2455984" lon="-75.4471994"><ele>50.2</ele><time>2026-04-18T18:55:19.624Z</time></trkpt><trkpt lat="10.2456566" lon="-75.4472747"><ele>50.4</ele><time>2026-04-18T18:55:20.695Z</time></trkpt><trkpt lat="10.245709" lon="-75.4473565"><ele>50.599999999999994</ele><time>2026-04-18T18:55:21.62Z</time></trkpt><trkpt lat="10.2457656" lon="-75.4474315"><ele>50.8</ele><time>2026-04-18T18:55:22.622Z</time></trkpt><trkpt lat="10.2458205" lon="-75.447503"><ele>51.0</ele><time>2026-04-18T18:55:23.626Z</time></trkpt><trkpt lat="10.2458808" lon="-75.4475763"><ele>51.0</ele><time>2026-04-18T18:55:24.622Z</time></trkpt><trkpt lat="10.245945" lon="-75.4476567"><ele>51.0</ele><time>2026-04-18T18:55:25.622Z</time></trkpt><trkpt lat="10.2460031" lon="-75.4477281"><ele>51.0</ele><time>2026-04-18T18:55:26.622Z</time></trkpt><trkpt lat="10.2460579" lon="-75.4478032"><ele>51.0</ele><time>2026-04-18T18:55:27.627Z</time></trkpt><trkpt lat="10.2461111" lon="-75.4478811"><ele>51.0</ele><time>2026-04-18T18:55:28.618Z</time></trkpt><trkpt lat="10.2461678" lon="-75.4479607"><ele>50.599999999999994</ele><time>2026-04-18T18:55:29.62Z</time></trkpt><trkpt lat="10.2462253" lon="-75.4480393"><ele>50.2</ele><time>2026-04-18T18:55:30.622Z</time></trkpt><trkpt lat="10.2462837" lon="-75.4481164"><ele>49.8</ele><time>2026-04-18T18:55:31.623Z</time></trkpt><trkpt lat="10.2463406" lon="-75.4481927"><ele>49.400000000000006</ele><time>2026-04-18T18:55:32.622Z</time></trkpt><trkpt lat="10.2463997" lon="-75.4482745"><ele>49.0</ele><time>2026-04-18T18:55:33.624Z</time></trkpt><trkpt lat="10.24646" lon="-75.4483557"><ele>49.400000000000006</ele><time>2026-04-18T18:55:34.621Z</time></trkpt><trkpt lat="10.2465196" lon="-75.4484391"><ele>49.8</ele><time>2026-04-18T18:55:35.623Z</time></trkpt><trkpt lat="10.246582" lon="-75.4485233"><ele>50.2</ele><time>2026-04-18T18:55:36.625Z</time></trkpt><trkpt lat="10.2466493" lon="-75.4486066"><ele>50.599999999999994</ele><time>2026-04-18T18:55:37.624Z</time></trkpt><trkpt lat="10.2467121" lon="-75.4486932"><ele>51.0</ele><time>2026-04-18T18:55:38.624Z</time></trkpt><trkpt lat="10.2467797" lon="-75.4487792"><ele>50.4</ele><time>2026-04-18T18:55:39.618Z</time></trkpt><trkpt lat="10.2468383" lon="-75.4488663"><ele>49.8</ele><time>2026-04-18T18:55:40.621Z</time></trkpt><trkpt lat="10.246904" lon="-75.4489483"><ele>49.199999999999996</ele><time>2026-04-18T18:55:41.62Z</time></trkpt><trkpt lat="10.246958" lon="-75.4490275"><ele>48.599999999999994</ele><time>2026-04-18T18:55:42.62Z</time></trkpt><trkpt lat="10.2470152" lon="-75.4491042"><ele>48.0</ele><time>2026-04-18T18:55:43.618Z</time></trkpt><trkpt lat="10.247074" lon="-75.4491825"><ele>48.0</ele><time>2026-04-18T18:55:44.617Z</time></trkpt><trkpt lat="10.2471263" lon="-75.4492594"><ele>48.0</ele><time>2026-04-18T18:55:45.618Z</time></trkpt><trkpt lat="10.2471823" lon="-75.4493363"><ele>48.0</ele><time>2026-04-18T18:55:46.619Z</time></trkpt><trkpt lat="10.2472366" lon="-75.4494093"><ele>48.0</ele><time>2026-04-18T18:55:47.621Z</time></trkpt><trkpt lat="10.2472907" lon="-75.4494859"><ele>48.0</ele><time>2026-04-18T18:55:48.622Z</time></trkpt><trkpt lat="10.2473523" lon="-75.4495577"><ele>47.599999999999994</ele><time>2026-04-18T18:55:49.62Z</time></trkpt><trkpt lat="10.2474144" lon="-75.4496441"><ele>47.199999999999996</ele><time>2026-04-18T18:55:50.623Z</time></trkpt><trkpt lat="10.2474679" lon="-75.4497249"><ele>46.8</ele><time>2026-04-18T18:55:51.621Z</time></trkpt><trkpt lat="10.2475208" lon="-75.4498039"><ele>46.4</ele><time>2026-04-18T18:55:52.619Z</time></trkpt><trkpt lat="10.2475766" lon="-75.4498822"><ele>46.0</ele><time>2026-04-18T18:55:53.622Z</time></trkpt><trkpt lat="10.2476328" lon="-75.4499627"><ele>46.0</ele><time>2026-04-18T18:55:54.628Z</time></trkpt><trkpt lat="10.2476907" lon="-75.4500408"><ele>46.0</ele><time>2026-04-18T18:55:55.617Z</time></trkpt><trkpt lat="10.247748" lon="-75.4501185"><ele>46.0</ele><time>2026-04-18T18:55:56.619Z</time></trkpt><trkpt lat="10.2478062" lon="-75.4502017"><ele>46.0</ele><time>2026-04-18T18:55:57.618Z</time></trkpt><trkpt lat="10.2478653" lon="-75.450283"><ele>46.0</ele><time>2026-04-18T18:55:58.619Z</time></trkpt><trkpt lat="10.2479277" lon="-75.4503705"><ele>46.0</ele><time>2026-04-18T18:55:59.619Z</time></trkpt><trkpt lat="10.2479865" lon="-75.4504466"><ele>46.0</ele><time>2026-04-18T18:56:00.695Z</time></trkpt><trkpt lat="10.2480432" lon="-75.4505215"><ele>46.0</ele><time>2026-04-18T18:56:01.695Z</time></trkpt><trkpt lat="10.248104" lon="-75.4505986"><ele>46.0</ele><time>2026-04-18T18:56:02.621Z</time></trkpt><trkpt lat="10.2481618" lon="-75.4506757"><ele>46.0</ele><time>2026-04-18T18:56:03.62Z</time></trkpt><trkpt lat="10.2482246" lon="-75.4507568"><ele>46.4</ele><time>2026-04-18T18:56:04.695Z</time></trkpt><trkpt lat="10.2482847" lon="-75.4508295"><ele>46.8</ele><time>2026-04-18T18:56:05.695Z</time></trkpt><trkpt lat="10.2483524" lon="-75.4508991"><ele>47.199999999999996</ele><time>2026-04-18T18:56:06.624Z</time></trkpt><trkpt lat="10.2484245" lon="-75.4509689"><ele>47.599999999999994</ele><time>2026-04-18T18:56:07.625Z</time></trkpt><trkpt lat="10.2484958" lon="-75.4510375"><ele>48.0</ele><time>2026-04-18T18:56:08.622Z</time></trkpt><trkpt lat="10.2485636" lon="-75.4511036"><ele>48.0</ele><time>2026-04-18T18:56:09.619Z</time></trkpt><trkpt lat="10.2486381" lon="-75.4511693"><ele>48.0</ele><time>2026-04-18T18:56:10.622Z</time></trkpt><trkpt lat="10.2487151" lon="-75.4512306"><ele>48.0</ele><time>2026-04-18T18:56:11.618Z</time></trkpt><trkpt lat="10.248791" lon="-75.4512879"><ele>48.0</ele><time>2026-04-18T18:56:12.619Z</time></trkpt><trkpt lat="10.2488668" lon="-75.4513432"><ele>48.0</ele><time>2026-04-18T18:56:13.619Z</time></trkpt><trkpt lat="10.2489485" lon="-75.4513968"><ele>47.2</ele><time>2026-04-18T18:56:14.619Z</time></trkpt><trkpt lat="10.249032" lon="-75.4514428"><ele>46.4</ele><time>2026-04-18T18:56:15.62Z</time></trkpt><trkpt lat="10.249119" lon="-75.4514879"><ele>45.6</ele><time>2026-04-18T18:56:16.619Z</time></trkpt><trkpt lat="10.2492042" lon="-75.4515323"><ele>44.800000000000004</ele><time>2026-04-18T18:56:17.618Z</time></trkpt><trkpt lat="10.2492965" lon="-75.4515783"><ele>44.0</ele><time>2026-04-18T18:56:18.625Z</time></trkpt><trkpt lat="10.2493847" lon="-75.4516178"><ele>44.0</ele><time>2026-04-18T18:56:19.619Z</time></trkpt><trkpt lat="10.249473" lon="-75.4516623"><ele>44.0</ele><time>2026-04-18T18:56:20.621Z</time></trkpt><trkpt lat="10.2495644" lon="-75.4517056"><ele>44.0</ele><time>2026-04-18T18:56:21.62Z</time></trkpt><trkpt lat="10.249653" lon="-75.4517423"><ele>44.0</ele><time>2026-04-18T18:56:22.62Z</time></trkpt><trkpt lat="10.2497424" lon="-75.4517804"><ele>44.0</ele><time>2026-04-18T18:56:23.622Z</time></trkpt><trkpt lat="10.249833" lon="-75.4518241"><ele>44.0</ele><time>2026-04-18T18:56:24.62Z</time></trkpt><trkpt lat="10.2499229" lon="-75.4518672"><ele>44.0</ele><time>2026-04-18T18:56:25.625Z</time></trkpt><trkpt lat="10.2500182" lon="-75.4519119"><ele>44.0</ele><time>2026-04-18T18:56:26.695Z</time></trkpt><trkpt lat="10.2501133" lon="-75.4519559"><ele>44.0</ele><time>2026-04-18T18:56:27.695Z</time></trkpt><trkpt lat="10.2502067" lon="-75.4519974"><ele>44.0</ele><time>2026-04-18T18:56:28.617Z</time></trkpt><trkpt lat="10.2503015" lon="-75.4520375"><ele>44.0</ele><time>2026-04-18T18:56:29.618Z</time></trkpt><trkpt lat="10.2503932" lon="-75.4520756"><ele>44.0</ele><time>2026-04-18T18:56:30.617Z</time></trkpt><trkpt lat="10.2504881" lon="-75.4521185"><ele>44.0</ele><time>2026-04-18T18:56:31.618Z</time></trkpt><trkpt lat="10.250587" lon="-75.4521594"><ele>44.0</ele><time>2026-04-18T18:56:32.623Z</time></trkpt><trkpt lat="10.2506817" lon="-75.4522003"><ele>44.0</ele><time>2026-04-18T18:56:33.624Z</time></trkpt><trkpt lat="10.2507774" lon="-75.4522438"><ele>44.400000000000006</ele><time>2026-04-18T18:56:34.62Z</time></trkpt><trkpt lat="10.2508739" lon="-75.4522896"><ele>44.8</ele><time>2026-04-18T18:56:35.62Z</time></trkpt><trkpt lat="10.2509695" lon="-75.452334"><ele>45.2</ele><time>2026-04-18T18:56:36.696Z</time></trkpt><trkpt lat="10.2510623" lon="-75.4523735"><ele>45.599999999999994</ele><time>2026-04-18T18:56:37.695Z</time></trkpt><trkpt lat="10.2511599" lon="-75.4524193"><ele>46.0</ele><time>2026-04-18T18:56:38.624Z</time></trkpt><trkpt lat="10.2512548" lon="-75.4524636"><ele>46.0</ele><time>2026-04-18T18:56:39.62Z</time></trkpt><trkpt lat="10.2513519" lon="-75.452508"><ele>46.0</ele><time>2026-04-18T18:56:40.677Z</time></trkpt><trkpt lat="10.2514465" lon="-75.452557"><ele>46.0</ele><time>2026-04-18T18:56:41.623Z</time></trkpt><trkpt lat="10.2515487" lon="-75.4525952"><ele>46.0</ele><time>2026-04-18T18:56:42.621Z</time></trkpt><trkpt lat="10.2516444" lon="-75.4526366"><ele>46.0</ele><time>2026-04-18T18:56:43.622Z</time></trkpt><trkpt lat="10.2517378" lon="-75.4526754"><ele>45.8</ele><time>2026-04-18T18:56:44.62Z</time></trkpt><trkpt lat="10.2518344" lon="-75.4527189"><ele>45.599999999999994</ele><time>2026-04-18T18:56:45.618Z</time></trkpt><trkpt lat="10.2519304" lon="-75.4527592"><ele>45.4</ele><time>2026-04-18T18:56:46.615Z</time></trkpt><trkpt lat="10.2520281" lon="-75.4527958"><ele>45.2</ele><time>2026-04-18T18:56:47.619Z</time></trkpt><trkpt lat="10.25212" lon="-75.4528395"><ele>45.0</ele><time>2026-04-18T18:56:48.623Z</time></trkpt><trkpt lat="10.2522135" lon="-75.4528843"><ele>45.0</ele><time>2026-04-18T18:56:49.623Z</time></trkpt><trkpt lat="10.2523036" lon="-75.4529247"><ele>45.0</ele><time>2026-04-18T18:56:50.62Z</time></trkpt><trkpt lat="10.2523938" lon="-75.4529601"><ele>45.0</ele><time>2026-04-18T18:56:51.618Z</time></trkpt><trkpt lat="10.2524823" lon="-75.4530038"><ele>45.0</ele><time>2026-04-18T18:56:52.619Z</time></trkpt><trkpt lat="10.2525683" lon="-75.4530416"><ele>45.0</ele><time>2026-04-18T18:56:53.622Z</time></trkpt><trkpt lat="10.2526564" lon="-75.4530798"><ele>45.0</ele><time>2026-04-18T18:56:54.623Z</time></trkpt><trkpt lat="10.2527476" lon="-75.4531228"><ele>45.0</ele><time>2026-04-18T18:56:55.621Z</time></trkpt><trkpt lat="10.2528375" lon="-75.4531645"><ele>45.0</ele><time>2026-04-18T18:56:56.62Z</time></trkpt><trkpt lat="10.2529271" lon="-75.4532065"><ele>45.0</ele><time>2026-04-18T18:56:57.619Z</time></trkpt><trkpt lat="10.2530159" lon="-75.4532453"><ele>45.0</ele><time>2026-04-18T18:56:58.622Z</time></trkpt><trkpt lat="10.2531045" lon="-75.4532813"><ele>45.8</ele><time>2026-04-18T18:56:59.679Z</time></trkpt><trkpt lat="10.253196" lon="-75.4533193"><ele>46.6</ele><time>2026-04-18T18:57:00.695Z</time></trkpt><trkpt lat="10.2532845" lon="-75.4533544"><ele>47.400000000000006</ele><time>2026-04-18T18:57:01.621Z</time></trkpt><trkpt lat="10.2533747" lon="-75.4533906"><ele>48.2</ele><time>2026-04-18T18:57:02.616Z</time></trkpt><trkpt lat="10.2534631" lon="-75.4534354"><ele>49.0</ele><time>2026-04-18T18:57:03.618Z</time></trkpt><trkpt lat="10.2535529" lon="-75.4534709"><ele>49.0</ele><time>2026-04-18T18:57:04.618Z</time></trkpt><trkpt lat="10.2536408" lon="-75.4535094"><ele>49.0</ele><time>2026-04-18T18:57:05.62Z</time></trkpt><trkpt lat="10.2537305" lon="-75.4535502"><ele>49.0</ele><time>2026-04-18T18:57:06.616Z</time></trkpt><trkpt lat="10.2538147" lon="-75.453591"><ele>49.0</ele><time>2026-04-18T18:57:07.617Z</time></trkpt><trkpt lat="10.2539036" lon="-75.4536342"><ele>49.0</ele><time>2026-04-18T18:57:08.622Z</time></trkpt><trkpt lat="10.2539928" lon="-75.4536748"><ele>49.400000000000006</ele><time>2026-04-18T18:57:09.624Z</time></trkpt><trkpt lat="10.2540792" lon="-75.4537171"><ele>49.8</ele><time>2026-04-18T18:57:10.623Z</time></trkpt><trkpt lat="10.254163" lon="-75.4537609"><ele>50.2</ele><time>2026-04-18T18:57:11.622Z</time></trkpt><trkpt lat="10.2542499" lon="-75.4537986"><ele>50.599999999999994</ele><time>2026-04-18T18:57:12.621Z</time></trkpt><trkpt lat="10.2543398" lon="-75.4538405"><ele>51.0</ele><time>2026-04-18T18:57:13.62Z</time></trkpt><trkpt lat="10.2544351" lon="-75.4538823"><ele>51.199999999999996</ele><time>2026-04-18T18:57:14.623Z</time></trkpt><trkpt lat="10.2545253" lon="-75.4539194"><ele>51.4</ele><time>2026-04-18T18:57:15.62Z</time></trkpt><trkpt lat="10.2546151" lon="-75.4539654"><ele>51.6</ele><time>2026-04-18T18:57:16.695Z</time></trkpt><trkpt lat="10.2547049" lon="-75.4540061"><ele>51.8</ele><time>2026-04-18T18:57:17.62Z</time></trkpt><trkpt lat="10.2547959" lon="-75.4540472"><ele>52.0</ele><time>2026-04-18T18:57:18.626Z</time></trkpt><trkpt lat="10.2548873" lon="-75.4540874"><ele>52.0</ele><time>2026-04-18T18:57:19.622Z</time></trkpt><trkpt lat="10.2549759" lon="-75.454133"><ele>52.0</ele><time>2026-04-18T18:57:20.62Z</time></trkpt><trkpt lat="10.2550693" lon="-75.4541706"><ele>52.0</ele><time>2026-04-18T18:57:21.618Z</time></trkpt><trkpt lat="10.2551582" lon="-75.4542112"><ele>52.0</ele><time>2026-04-18T18:57:22.623Z</time></trkpt><trkpt lat="10.2552489" lon="-75.4542553"><ele>52.0</ele><time>2026-04-18T18:57:23.619Z</time></trkpt><trkpt lat="10.2553393" lon="-75.454294"><ele>52.0</ele><time>2026-04-18T18:57:24.62Z</time></trkpt><trkpt lat="10.2554287" lon="-75.4543378"><ele>52.0</ele><time>2026-04-18T18:57:25.617Z</time></trkpt><trkpt lat="10.2555219" lon="-75.4543784"><ele>52.0</ele><time>2026-04-18T18:57:26.624Z</time></trkpt><trkpt lat="10.2556129" lon="-75.4544193"><ele>52.0</ele><time>2026-04-18T18:57:27.621Z</time></trkpt><trkpt lat="10.255699" lon="-75.4544585"><ele>52.0</ele><time>2026-04-18T18:57:28.62Z</time></trkpt><trkpt lat="10.2557935" lon="-75.4544973"><ele>52.2</ele><time>2026-04-18T18:57:29.619Z</time></trkpt><trkpt lat="10.255882" lon="-75.4545383"><ele>52.400000000000006</ele><time>2026-04-18T18:57:30.619Z</time></trkpt><trkpt lat="10.2559697" lon="-75.4545784"><ele>52.599999999999994</ele><time>2026-04-18T18:57:31.619Z</time></trkpt><trkpt lat="10.2560591" lon="-75.4546136"><ele>52.8</ele><time>2026-04-18T18:57:32.62Z</time></trkpt><trkpt lat="10.2561445" lon="-75.4546531"><ele>53.0</ele><time>2026-04-18T18:57:33.623Z</time></trkpt><trkpt lat="10.256234" lon="-75.4546925"><ele>53.0</ele><time>2026-04-18T18:57:34.623Z</time></trkpt><trkpt lat="10.2563183" lon="-75.4547342"><ele>53.0</ele><time>2026-04-18T18:57:35.632Z</time></trkpt><trkpt lat="10.256406" lon="-75.4547729"><ele>53.0</ele><time>2026-04-18T18:57:36.62Z</time></trkpt><trkpt lat="10.2564881" lon="-75.4548074"><ele>53.0</ele><time>2026-04-18T18:57:37.618Z</time></trkpt><trkpt lat="10.2565738" lon="-75.4548411"><ele>53.0</ele><time>2026-04-18T18:57:38.621Z</time></trkpt><trkpt lat="10.2566554" lon="-75.4548776"><ele>52.66666666666667</ele><time>2026-04-18T18:57:39.624Z</time></trkpt><trkpt lat="10.2567341" lon="-75.4549144"><ele>52.333333333333336</ele><time>2026-04-18T18:57:40.622Z</time></trkpt><trkpt lat="10.2568127" lon="-75.4549488"><ele>52.0</ele><time>2026-04-18T18:57:41.625Z</time></trkpt><trkpt lat="10.2568876" lon="-75.4549846"><ele>51.66666666666667</ele><time>2026-04-18T18:57:42.619Z</time></trkpt><trkpt lat="10.2569657" lon="-75.4550211"><ele>51.333333333333336</ele><time>2026-04-18T18:57:43.623Z</time></trkpt><trkpt lat="10.257041" lon="-75.4550563"><ele>51.0</ele><time>2026-04-18T18:57:44.621Z</time></trkpt><trkpt lat="10.2571145" lon="-75.4550927"><ele>51.0</ele><time>2026-04-18T18:57:45.619Z</time></trkpt><trkpt lat="10.2571848" lon="-75.4551288"><ele>51.0</ele><time>2026-04-18T18:57:46.619Z</time></trkpt><trkpt lat="10.2572529" lon="-75.4551608"><ele>51.0</ele><time>2026-04-18T18:57:47.623Z</time></trkpt><trkpt lat="10.257318" lon="-75.4551912"><ele>51.0</ele><time>2026-04-18T18:57:48.621Z</time></trkpt><trkpt lat="10.2573795" lon="-75.4552231"><ele>51.0</ele><time>2026-04-18T18:57:49.625Z</time></trkpt><trkpt lat="10.2574405" lon="-75.4552499"><ele>51.0</ele><time>2026-04-18T18:57:50.618Z</time></trkpt><trkpt lat="10.2575573" lon="-75.4552844"><ele>51.4</ele><time>2026-04-18T18:57:52.621Z</time></trkpt><trkpt lat="10.2576651" lon="-75.4553298"><ele>51.8</ele><time>2026-04-18T18:57:54.62Z</time></trkpt><trkpt lat="10.2577659" lon="-75.4553785"><ele>52.199999999999996</ele><time>2026-04-18T18:57:56.618Z</time></trkpt><trkpt lat="10.2578649" lon="-75.4554254"><ele>52.599999999999994</ele><time>2026-04-18T18:57:58.621Z</time></trkpt><trkpt lat="10.2579664" lon="-75.4554726"><ele>53.0</ele><time>2026-04-18T18:58:00.625Z</time></trkpt><trkpt lat="10.2580697" lon="-75.4555234"><ele>53.8</ele><time>2026-04-18T18:58:02.625Z</time></trkpt><trkpt lat="10.258173" lon="-75.4555673"><ele>54.599999999999994</ele><time>2026-04-18T18:58:04.619Z</time></trkpt><trkpt lat="10.2582806" lon="-75.455608"><ele>55.400000000000006</ele><time>2026-04-18T18:58:06.623Z</time></trkpt><trkpt lat="10.2583768" lon="-75.4556528"><ele>56.2</ele><time>2026-04-18T18:58:08.688Z</time></trkpt><trkpt lat="10.2584789" lon="-75.4556949"><ele>57.0</ele><time>2026-04-18T18:58:10.622Z</time></trkpt><trkpt lat="10.2585775" lon="-75.4557368"><ele>57.0</ele><time>2026-04-18T18:58:12.678Z</time></trkpt><trkpt lat="10.2586776" lon="-75.4557828"><ele>57.0</ele><time>2026-04-18T18:58:14.695Z</time></trkpt><trkpt lat="10.2587713" lon="-75.4558294"><ele>57.0</ele><time>2026-04-18T18:58:16.625Z</time></trkpt><trkpt lat="10.258863" lon="-75.4558622"><ele>57.0</ele><time>2026-04-18T18:58:18.624Z</time></trkpt><trkpt lat="10.2589559" lon="-75.4559035"><ele>57.0</ele><time>2026-04-18T18:58:20.626Z</time></trkpt><trkpt lat="10.2590527" lon="-75.4559468"><ele>58.0</ele><time>2026-04-18T18:58:22.624Z</time></trkpt><trkpt lat="10.2591528" lon="-75.4559923"><ele>59.0</ele><time>2026-04-18T18:58:24.661Z</time></trkpt><trkpt lat="10.2592448" lon="-75.4560284"><ele>60.0</ele><time>2026-04-18T18:58:26.627Z</time></trkpt><trkpt lat="10.2593369" lon="-75.4560684"><ele>61.0</ele><time>2026-04-18T18:58:28.62Z</time></trkpt><trkpt lat="10.2594337" lon="-75.4561093"><ele>62.0</ele><time>2026-04-18T18:58:30.626Z</time></trkpt><trkpt lat="10.2595291" lon="-75.4561597"><ele>62.0</ele><time>2026-04-18T18:58:32.621Z</time></trkpt><trkpt lat="10.2596356" lon="-75.4562006"><ele>62.0</ele><time>2026-04-18T18:58:34.622Z</time></trkpt><trkpt lat="10.2597268" lon="-75.4562495"><ele>62.0</ele><time>2026-04-18T18:58:36.624Z</time></trkpt><trkpt lat="10.2598218" lon="-75.4562952"><ele>62.0</ele><time>2026-04-18T18:58:38.623Z</time></trkpt><trkpt lat="10.2599221" lon="-75.4563422"><ele>62.0</ele><time>2026-04-18T18:58:40.622Z</time></trkpt><trkpt lat="10.2600166" lon="-75.4563801"><ele>61.6</ele><time>2026-04-18T18:58:42.616Z</time></trkpt><trkpt lat="10.2601086" lon="-75.4564197"><ele>61.2</ele><time>2026-04-18T18:58:44.629Z</time></trkpt><trkpt lat="10.2601982" lon="-75.4564698"><ele>60.8</ele><time>2026-04-18T18:58:46.623Z</time></trkpt><trkpt lat="10.26029" lon="-75.4565197"><ele>60.4</ele><time>2026-04-18T18:58:48.622Z</time></trkpt><trkpt lat="10.2603886" lon="-75.4565606"><ele>60.0</ele><time>2026-04-18T18:58:50.622Z</time></trkpt><trkpt lat="10.260488" lon="-75.4565993"><ele>60.0</ele><time>2026-04-18T18:58:52.626Z</time></trkpt><trkpt lat="10.2605834" lon="-75.4566447"><ele>60.0</ele><time>2026-04-18T18:58:54.623Z</time></trkpt><trkpt lat="10.2606752" lon="-75.4566859"><ele>60.0</ele><time>2026-04-18T18:58:56.619Z</time></trkpt><trkpt lat="10.2607684" lon="-75.456727"><ele>60.0</ele><time>2026-04-18T18:58:58.618Z</time></trkpt><trkpt lat="10.2608587" lon="-75.4567692"><ele>60.0</ele><time>2026-04-18T18:59:00.622Z</time></trkpt><trkpt lat="10.2609454" lon="-75.4568102"><ele>60.2</ele><time>2026-04-18T18:59:02.619Z</time></trkpt><trkpt lat="10.2610345" lon="-75.4568538"><ele>60.4</ele><time>2026-04-18T18:59:04.623Z</time></trkpt><trkpt lat="10.2611217" lon="-75.4568868"><ele>60.599999999999994</ele><time>2026-04-18T18:59:06.621Z</time></trkpt><trkpt lat="10.2612095" lon="-75.4569252"><ele>60.8</ele><time>2026-04-18T18:59:08.626Z</time></trkpt><trkpt lat="10.2612939" lon="-75.4569613"><ele>61.0</ele><time>2026-04-18T18:59:10.629Z</time></trkpt><trkpt lat="10.2613768" lon="-75.4569971"><ele>61.33333333333333</ele><time>2026-04-18T18:59:12.62Z</time></trkpt><trkpt lat="10.2614574" lon="-75.4570285"><ele>61.666666666666664</ele><time>2026-04-18T18:59:14.624Z</time></trkpt><trkpt lat="10.2615343" lon="-75.4570658"><ele>62.0</ele><time>2026-04-18T18:59:16.625Z</time></trkpt><trkpt lat="10.2616131" lon="-75.457102"><ele>62.33333333333333</ele><time>2026-04-18T18:59:18.625Z</time></trkpt><trkpt lat="10.2616934" lon="-75.457139"><ele>62.666666666666664</ele><time>2026-04-18T18:59:20.626Z</time></trkpt><trkpt lat="10.261775" lon="-75.4571754"><ele>63.0</ele><time>2026-04-18T18:59:22.623Z</time></trkpt><trkpt lat="10.2618629" lon="-75.4572064"><ele>63.0</ele><time>2026-04-18T18:59:24.622Z</time></trkpt><trkpt lat="10.2619496" lon="-75.4572469"><ele>63.0</ele><time>2026-04-18T18:59:26.619Z</time></trkpt><trkpt lat="10.262037" lon="-75.4572821"><ele>63.0</ele><time>2026-04-18T18:59:28.621Z</time></trkpt><trkpt lat="10.2621227" lon="-75.4573163"><ele>63.0</ele><time>2026-04-18T18:59:30.622Z</time></trkpt><trkpt lat="10.2622063" lon="-75.4573569"><ele>63.0</ele><time>2026-04-18T18:59:32.621Z</time></trkpt><trkpt lat="10.2622944" lon="-75.4574008"><ele>63.8</ele><time>2026-04-18T18:59:34.622Z</time></trkpt><trkpt lat="10.262379" lon="-75.4574408"><ele>64.6</ele><time>2026-04-18T18:59:36.625Z</time></trkpt><trkpt lat="10.2624689" lon="-75.457477"><ele>65.4</ele><time>2026-04-18T18:59:38.623Z</time></trkpt><trkpt lat="10.2625537" lon="-75.4575201"><ele>66.2</ele><time>2026-04-18T18:59:40.624Z</time></trkpt><trkpt lat="10.2626437" lon="-75.457556"><ele>67.0</ele><time>2026-04-18T18:59:42.624Z</time></trkpt><trkpt lat="10.2627313" lon="-75.4575992"><ele>67.0</ele><time>2026-04-18T18:59:44.624Z</time></trkpt><trkpt lat="10.262824" lon="-75.4576339"><ele>67.0</ele><time>2026-04-18T18:59:46.629Z</time></trkpt><trkpt lat="10.262909" lon="-75.4576751"><ele>67.0</ele><time>2026-04-18T18:59:48.625Z</time></trkpt><trkpt lat="10.2630006" lon="-75.4577119"><ele>67.0</ele><time>2026-04-18T18:59:50.622Z</time></trkpt><trkpt lat="10.263088" lon="-75.4577501"><ele>67.0</ele><time>2026-04-18T18:59:52.623Z</time></trkpt><trkpt lat="10.2631724" lon="-75.4577881"><ele>67.2</ele><time>2026-04-18T18:59:54.621Z</time></trkpt><trkpt lat="10.2632582" lon="-75.4578257"><ele>67.4</ele><time>2026-04-18T18:59:56.616Z</time></trkpt><trkpt lat="10.2633467" lon="-75.457858"><ele>67.6</ele><time>2026-04-18T18:59:58.618Z</time></trkpt><trkpt lat="10.2634345" lon="-75.457896"><ele>67.8</ele><time>2026-04-18T19:00:00.621Z</time></trkpt><trkpt lat="10.2635267" lon="-75.457933"><ele>68.0</ele><time>2026-04-18T19:00:02.624Z</time></trkpt><trkpt lat="10.2636154" lon="-75.4579748"><ele>68.0</ele><time>2026-04-18T19:00:04.621Z</time></trkpt><trkpt lat="10.2637041" lon="-75.4580137"><ele>68.0</ele><time>2026-04-18T19:00:06.627Z</time></trkpt><trkpt lat="10.2638121" lon="-75.4580385"><ele>68.0</ele><time>2026-04-18T19:00:08.629Z</time></trkpt><trkpt lat="10.2639103" lon="-75.4580731"><ele>68.0</ele><time>2026-04-18T19:00:10.622Z</time></trkpt><trkpt lat="10.2640123" lon="-75.4581084"><ele>68.0</ele><time>2026-04-18T19:00:12.621Z</time></trkpt><trkpt lat="10.2641228" lon="-75.4581423"><ele>68.2</ele><time>2026-04-18T19:00:14.623Z</time></trkpt><trkpt lat="10.2642242" lon="-75.4581766"><ele>68.4</ele><time>2026-04-18T19:00:16.62Z</time></trkpt><trkpt lat="10.2643232" lon="-75.4582161"><ele>68.60000000000001</ele><time>2026-04-18T19:00:18.622Z</time></trkpt><trkpt lat="10.2644118" lon="-75.4582441"><ele>68.8</ele><time>2026-04-18T19:00:20.626Z</time></trkpt><trkpt lat="10.2644913" lon="-75.4582767"><ele>69.0</ele><time>2026-04-18T19:00:22.625Z</time></trkpt><trkpt lat="10.2645738" lon="-75.458308"><ele>69.0</ele><time>2026-04-18T19:00:24.624Z</time></trkpt><trkpt lat="10.264669" lon="-75.4583332"><ele>69.0</ele><time>2026-04-18T19:00:26.622Z</time></trkpt><trkpt lat="10.2647498" lon="-75.45837"><ele>69.0</ele><time>2026-04-18T19:00:28.626Z</time></trkpt><trkpt lat="10.2648856" lon="-75.4584343"><ele>69.0</ele><time>2026-04-18T19:00:31.695Z</time></trkpt><trkpt lat="10.2649827" lon="-75.4584671"><ele>69.0</ele><time>2026-04-18T19:00:33.628Z</time></trkpt><trkpt lat="10.265078" lon="-75.4585012"><ele>69.4</ele><time>2026-04-18T19:00:35.695Z</time></trkpt><trkpt lat="10.2651761" lon="-75.4585404"><ele>69.80000000000001</ele><time>2026-04-18T19:00:37.62Z</time></trkpt><trkpt lat="10.2652728" lon="-75.4585701"><ele>70.19999999999999</ele><time>2026-04-18T19:00:39.687Z</time></trkpt><trkpt lat="10.2653666" lon="-75.4586054"><ele>70.6</ele><time>2026-04-18T19:00:41.695Z</time></trkpt><trkpt lat="10.2654653" lon="-75.4586231"><ele>71.0</ele><time>2026-04-18T19:00:43.622Z</time></trkpt><trkpt lat="10.2655575" lon="-75.4586675"><ele>71.2</ele><time>2026-04-18T19:00:45.695Z</time></trkpt><trkpt lat="10.2656543" lon="-75.4587144"><ele>71.39999999999999</ele><time>2026-04-18T19:00:47.627Z</time></trkpt><trkpt lat="10.2657475" lon="-75.458762"><ele>71.6</ele><time>2026-04-18T19:00:49.695Z</time></trkpt><trkpt lat="10.2658379" lon="-75.4588196"><ele>71.8</ele><time>2026-04-18T19:00:51.623Z</time></trkpt><trkpt lat="10.2659252" lon="-75.4588794"><ele>72.0</ele><time>2026-04-18T19:00:53.621Z</time></trkpt><trkpt lat="10.2660117" lon="-75.4589461"><ele>72.0</ele><time>2026-04-18T19:00:55.695Z</time></trkpt><trkpt lat="10.2661032" lon="-75.459017"><ele>72.0</ele><time>2026-04-18T19:00:57.695Z</time></trkpt><trkpt lat="10.2661827" lon="-75.45909"><ele>72.0</ele><time>2026-04-18T19:00:59.622Z</time></trkpt><trkpt lat="10.2662575" lon="-75.4591604"><ele>72.0</ele><time>2026-04-18T19:01:01.695Z</time></trkpt><trkpt lat="10.2663279" lon="-75.4592376"><ele>72.0</ele><time>2026-04-18T19:01:03.626Z</time></trkpt><trkpt lat="10.266399" lon="-75.4593125"><ele>73.6</ele><time>2026-04-18T19:01:05.637Z</time></trkpt><trkpt lat="10.2664727" lon="-75.4593867"><ele>75.2</ele><time>2026-04-18T19:01:07.668Z</time></trkpt><trkpt lat="10.2665398" lon="-75.4594653"><ele>76.8</ele><time>2026-04-18T19:01:09.695Z</time></trkpt><trkpt lat="10.2665932" lon="-75.459552"><ele>78.4</ele><time>2026-04-18T19:01:11.622Z</time></trkpt><trkpt lat="10.2666524" lon="-75.4596331"><ele>80.0</ele><time>2026-04-18T19:01:13.626Z</time></trkpt><trkpt lat="10.2667055" lon="-75.4597226"><ele>80.25</ele><time>2026-04-18T19:01:15.622Z</time></trkpt><trkpt lat="10.2667461" lon="-75.4598281"><ele>80.5</ele><time>2026-04-18T19:01:17.624Z</time></trkpt><trkpt lat="10.2667838" lon="-75.4599364"><ele>80.75</ele><time>2026-04-18T19:01:19.623Z</time></trkpt><trkpt lat="10.2668186" lon="-75.4600474"><ele>81.0</ele><time>2026-04-18T19:01:21.621Z</time></trkpt><trkpt lat="10.2668516" lon="-75.4601611"><ele>81.0</ele><time>2026-04-18T19:01:23.695Z</time></trkpt><trkpt lat="10.2668882" lon="-75.4602707"><ele>81.0</ele><time>2026-04-18T19:01:25.619Z</time></trkpt><trkpt lat="10.2669148" lon="-75.4603898"><ele>81.0</ele><time>2026-04-18T19:01:27.62Z</time></trkpt><trkpt lat="10.2669394" lon="-75.4605067"><ele>81.0</ele><time>2026-04-18T19:01:29.62Z</time></trkpt><trkpt lat="10.2669725" lon="-75.4606272"><ele>81.19999999999999</ele><time>2026-04-18T19:01:31.621Z</time></trkpt><trkpt lat="10.2670015" lon="-75.4607378"><ele>81.39999999999999</ele><time>2026-04-18T19:01:33.623Z</time></trkpt><trkpt lat="10.2670297" lon="-75.4608533"><ele>81.6</ele><time>2026-04-18T19:01:35.626Z</time></trkpt><trkpt lat="10.2670535" lon="-75.4609604"><ele>81.8</ele><time>2026-04-18T19:01:37.621Z</time></trkpt><trkpt lat="10.2670801" lon="-75.4610622"><ele>82.0</ele><time>2026-04-18T19:01:39.624Z</time></trkpt><trkpt lat="10.267105" lon="-75.4611606"><ele>82.0</ele><time>2026-04-18T19:01:41.626Z</time></trkpt><trkpt lat="10.2671354" lon="-75.4612585"><ele>82.0</ele><time>2026-04-18T19:01:43.62Z</time></trkpt><trkpt lat="10.2671575" lon="-75.4613684"><ele>82.0</ele><time>2026-04-18T19:01:45.695Z</time></trkpt><trkpt lat="10.2671879" lon="-75.4614779"><ele>82.0</ele><time>2026-04-18T19:01:47.62Z</time></trkpt><trkpt lat="10.2672231" lon="-75.461586"><ele>82.0</ele><time>2026-04-18T19:01:49.695Z</time></trkpt><trkpt lat="10.2672621" lon="-75.4617003"><ele>82.0</ele><time>2026-04-18T19:01:51.696Z</time></trkpt><trkpt lat="10.2672832" lon="-75.4618188"><ele>82.0</ele><time>2026-04-18T19:01:53.695Z</time></trkpt><trkpt lat="10.2672998" lon="-75.4618811"><ele>82.0</ele><time>2026-04-18T19:01:54.696Z</time></trkpt><trkpt lat="10.2673174" lon="-75.4619431"><ele>82.0</ele><time>2026-04-18T19:01:55.695Z</time></trkpt><trkpt lat="10.2673406" lon="-75.4620071"><ele>82.0</ele><time>2026-04-18T19:01:56.618Z</time></trkpt><trkpt lat="10.2673721" lon="-75.4621276"><ele>82.0</ele><time>2026-04-18T19:01:58.634Z</time></trkpt><trkpt lat="10.2673876" lon="-75.4621911"><ele>81.16666666666666</ele><time>2026-04-18T19:01:59.621Z</time></trkpt><trkpt lat="10.2674162" lon="-75.4623113"><ele>80.33333333333333</ele><time>2026-04-18T19:02:01.619Z</time></trkpt><trkpt lat="10.2674482" lon="-75.4624362"><ele>79.5</ele><time>2026-04-18T19:02:03.695Z</time></trkpt><trkpt lat="10.2674624" lon="-75.4625013"><ele>78.66666666666667</ele><time>2026-04-18T19:02:04.668Z</time></trkpt><trkpt lat="10.2674749" lon="-75.4625679"><ele>77.83333333333334</ele><time>2026-04-18T19:02:05.621Z</time></trkpt><trkpt lat="10.2674889" lon="-75.4626344"><ele>77.0</ele><time>2026-04-18T19:02:06.696Z</time></trkpt><trkpt lat="10.2675006" lon="-75.4626996"><ele>77.0</ele><time>2026-04-18T19:02:07.626Z</time></trkpt><trkpt lat="10.2675159" lon="-75.4627661"><ele>77.0</ele><time>2026-04-18T19:02:08.618Z</time></trkpt><trkpt lat="10.2675319" lon="-75.462834"><ele>77.0</ele><time>2026-04-18T19:02:09.626Z</time></trkpt><trkpt lat="10.2675438" lon="-75.4629007"><ele>77.0</ele><time>2026-04-18T19:02:10.624Z</time></trkpt><trkpt lat="10.2675573" lon="-75.4629706"><ele>77.0</ele><time>2026-04-18T19:02:11.623Z</time></trkpt><trkpt lat="10.2675763" lon="-75.4630438"><ele>77.0</ele><time>2026-04-18T19:02:12.627Z</time></trkpt><trkpt lat="10.2675926" lon="-75.4631196"><ele>77.0</ele><time>2026-04-18T19:02:13.623Z</time></trkpt><trkpt lat="10.2676147" lon="-75.4631965"><ele>76.16666666666667</ele><time>2026-04-18T19:02:14.621Z</time></trkpt><trkpt lat="10.2676335" lon="-75.4632803"><ele>75.33333333333334</ele><time>2026-04-18T19:02:15.625Z</time></trkpt><trkpt lat="10.2676519" lon="-75.4633607"><ele>74.5</ele><time>2026-04-18T19:02:16.696Z</time></trkpt><trkpt lat="10.2676671" lon="-75.4634446"><ele>73.66666666666667</ele><time>2026-04-18T19:02:17.621Z</time></trkpt><trkpt lat="10.2676788" lon="-75.4635341"><ele>72.83333333333333</ele><time>2026-04-18T19:02:18.624Z</time></trkpt><trkpt lat="10.2676901" lon="-75.4636248"><ele>72.0</ele><time>2026-04-18T19:02:19.624Z</time></trkpt><trkpt lat="10.2677033" lon="-75.4637108"><ele>70.6</ele><time>2026-04-18T19:02:20.625Z</time></trkpt><trkpt lat="10.2677315" lon="-75.4638854"><ele>69.2</ele><time>2026-04-18T19:02:22.619Z</time></trkpt><trkpt lat="10.2677459" lon="-75.4639758"><ele>67.8</ele><time>2026-04-18T19:02:23.624Z</time></trkpt><trkpt lat="10.2677601" lon="-75.4640645"><ele>66.4</ele><time>2026-04-18T19:02:24.695Z</time></trkpt><trkpt lat="10.2677706" lon="-75.4641559"><ele>65.0</ele><time>2026-04-18T19:02:25.62Z</time></trkpt><trkpt lat="10.2677826" lon="-75.4642446"><ele>65.0</ele><time>2026-04-18T19:02:26.625Z</time></trkpt><trkpt lat="10.2677905" lon="-75.4643372"><ele>65.0</ele><time>2026-04-18T19:02:27.62Z</time></trkpt><trkpt lat="10.267799" lon="-75.4644328"><ele>65.0</ele><time>2026-04-18T19:02:28.618Z</time></trkpt><trkpt lat="10.2678051" lon="-75.4645203"><ele>65.0</ele><time>2026-04-18T19:02:29.616Z</time></trkpt><trkpt lat="10.2678039" lon="-75.4646051"><ele>65.0</ele><time>2026-04-18T19:02:30.617Z</time></trkpt><trkpt lat="10.2678087" lon="-75.4646895"><ele>65.0</ele><time>2026-04-18T19:02:31.617Z</time></trkpt><trkpt lat="10.2678144" lon="-75.464764"><ele>64.5</ele><time>2026-04-18T19:02:32.618Z</time></trkpt><trkpt lat="10.2678195" lon="-75.4648477"><ele>64.0</ele><time>2026-04-18T19:02:33.617Z</time></trkpt><trkpt lat="10.267826" lon="-75.4649244"><ele>63.5</ele><time>2026-04-18T19:02:34.618Z</time></trkpt><trkpt lat="10.2678338" lon="-75.4650055"><ele>63.0</ele><time>2026-04-18T19:02:35.615Z</time></trkpt><trkpt lat="10.2678341" lon="-75.4650816"><ele>62.50000000000001</ele><time>2026-04-18T19:02:36.616Z</time></trkpt><trkpt lat="10.2678364" lon="-75.4651625"><ele>62.0</ele><time>2026-04-18T19:02:37.616Z</time></trkpt><trkpt lat="10.2678392" lon="-75.4652404"><ele>62.00000000000001</ele><time>2026-04-18T19:02:38.617Z</time></trkpt><trkpt lat="10.2678434" lon="-75.4653176"><ele>62.0</ele><time>2026-04-18T19:02:39.618Z</time></trkpt><trkpt lat="10.2678444" lon="-75.465394"><ele>62.0</ele><time>2026-04-18T19:02:40.626Z</time></trkpt><trkpt lat="10.2678451" lon="-75.4654692"><ele>62.0</ele><time>2026-04-18T19:02:41.618Z</time></trkpt><trkpt lat="10.267841" lon="-75.4655472"><ele>62.00000000000001</ele><time>2026-04-18T19:02:42.651Z</time></trkpt><trkpt lat="10.2678438" lon="-75.4656242"><ele>62.0</ele><time>2026-04-18T19:02:43.623Z</time></trkpt><trkpt lat="10.2678445" lon="-75.4656979"><ele>62.42857142857143</ele><time>2026-04-18T19:02:44.62Z</time></trkpt><trkpt lat="10.2678468" lon="-75.465769"><ele>62.85714285714286</ele><time>2026-04-18T19:02:45.619Z</time></trkpt><trkpt lat="10.2678482" lon="-75.4658411"><ele>63.28571428571429</ele><time>2026-04-18T19:02:46.615Z</time></trkpt><trkpt lat="10.2678485" lon="-75.4659172"><ele>63.71428571428572</ele><time>2026-04-18T19:02:47.622Z</time></trkpt><trkpt lat="10.2678526" lon="-75.465986"><ele>64.14285714285714</ele><time>2026-04-18T19:02:48.618Z</time></trkpt><trkpt lat="10.2678586" lon="-75.4660663"><ele>64.57142857142858</ele><time>2026-04-18T19:02:49.616Z</time></trkpt><trkpt lat="10.2678638" lon="-75.4661451"><ele>65.0</ele><time>2026-04-18T19:02:50.618Z</time></trkpt><trkpt lat="10.2678667" lon="-75.4662218"><ele>64.57142857142858</ele><time>2026-04-18T19:02:51.619Z</time></trkpt><trkpt lat="10.2678698" lon="-75.4662999"><ele>64.14285714285714</ele><time>2026-04-18T19:02:52.62Z</time></trkpt><trkpt lat="10.2678706" lon="-75.4663774"><ele>63.71428571428572</ele><time>2026-04-18T19:02:53.62Z</time></trkpt><trkpt lat="10.2678688" lon="-75.4664517"><ele>63.28571428571429</ele><time>2026-04-18T19:02:54.623Z</time></trkpt><trkpt lat="10.2678685" lon="-75.4665259"><ele>62.85714285714286</ele><time>2026-04-18T19:02:55.618Z</time></trkpt><trkpt lat="10.2678729" lon="-75.4666059"><ele>62.42857142857143</ele><time>2026-04-18T19:02:56.619Z</time></trkpt><trkpt lat="10.2678695" lon="-75.4666777"><ele>62.0</ele><time>2026-04-18T19:02:57.623Z</time></trkpt><trkpt lat="10.2678686" lon="-75.4667522"><ele>62.0</ele><time>2026-04-18T19:02:58.621Z</time></trkpt><trkpt lat="10.2678712" lon="-75.4668301"><ele>62.00000000000001</ele><time>2026-04-18T19:02:59.622Z</time></trkpt><trkpt lat="10.2678758" lon="-75.4669042"><ele>62.0</ele><time>2026-04-18T19:03:00.623Z</time></trkpt><trkpt lat="10.2678759" lon="-75.466977"><ele>62.0</ele><time>2026-04-18T19:03:01.623Z</time></trkpt><trkpt lat="10.2678791" lon="-75.4670455"><ele>62.00000000000001</ele><time>2026-04-18T19:03:02.616Z</time></trkpt><trkpt lat="10.2678764" lon="-75.4671168"><ele>62.0</ele><time>2026-04-18T19:03:03.62Z</time></trkpt><trkpt lat="10.2678739" lon="-75.4671898"><ele>62.0</ele><time>2026-04-18T19:03:04.618Z</time></trkpt><trkpt lat="10.2678738" lon="-75.4672571"><ele>61.28571428571429</ele><time>2026-04-18T19:03:05.622Z</time></trkpt><trkpt lat="10.2678745" lon="-75.4673273"><ele>60.57142857142858</ele><time>2026-04-18T19:03:06.619Z</time></trkpt><trkpt lat="10.267874" lon="-75.4673919"><ele>59.85714285714286</ele><time>2026-04-18T19:03:07.622Z</time></trkpt><trkpt lat="10.2678754" lon="-75.4674619"><ele>59.14285714285714</ele><time>2026-04-18T19:03:08.617Z</time></trkpt><trkpt lat="10.2678777" lon="-75.4675272"><ele>58.42857142857142</ele><time>2026-04-18T19:03:09.62Z</time></trkpt><trkpt lat="10.2678801" lon="-75.4675936"><ele>57.71428571428571</ele><time>2026-04-18T19:03:10.619Z</time></trkpt><trkpt lat="10.2678814" lon="-75.4676582"><ele>57.0</ele><time>2026-04-18T19:03:11.617Z</time></trkpt><trkpt lat="10.2678818" lon="-75.4677227"><ele>57.0</ele><time>2026-04-18T19:03:12.614Z</time></trkpt><trkpt lat="10.2678821" lon="-75.4677896"><ele>57.0</ele><time>2026-04-18T19:03:13.623Z</time></trkpt><trkpt lat="10.2678876" lon="-75.4679153"><ele>57.0</ele><time>2026-04-18T19:03:15.615Z</time></trkpt><trkpt lat="10.2678911" lon="-75.4679863"><ele>57.0</ele><time>2026-04-18T19:03:16.615Z</time></trkpt><trkpt lat="10.267894" lon="-75.4681116"><ele>57.0</ele><time>2026-04-18T19:03:18.618Z</time></trkpt><trkpt lat="10.267894" lon="-75.4682312"><ele>57.0</ele><time>2026-04-18T19:03:20.615Z</time></trkpt><trkpt lat="10.267896" lon="-75.4683315"><ele>57.0</ele><time>2026-04-18T19:03:22.618Z</time></trkpt><trkpt lat="10.2678985" lon="-75.4684382"><ele>57.0</ele><time>2026-04-18T19:03:24.621Z</time></trkpt><trkpt lat="10.2679044" lon="-75.4685363"><ele>57.0</ele><time>2026-04-18T19:03:26.696Z</time></trkpt><trkpt lat="10.2679062" lon="-75.4686365"><ele>57.0</ele><time>2026-04-18T19:03:28.622Z</time></trkpt><trkpt lat="10.2679088" lon="-75.4687333"><ele>57.8</ele><time>2026-04-18T19:03:30.696Z</time></trkpt><trkpt lat="10.2679161" lon="-75.4688255"><ele>58.6</ele><time>2026-04-18T19:03:32.695Z</time></trkpt><trkpt lat="10.267919" lon="-75.4689197"><ele>59.39999999999999</ele><time>2026-04-18T19:03:34.615Z</time></trkpt><trkpt lat="10.2679223" lon="-75.4690163"><ele>60.199999999999996</ele><time>2026-04-18T19:03:36.614Z</time></trkpt><trkpt lat="10.267931" lon="-75.4691128"><ele>61.0</ele><time>2026-04-18T19:03:38.618Z</time></trkpt><trkpt lat="10.267939" lon="-75.4692097"><ele>61.0</ele><time>2026-04-18T19:03:40.619Z</time></trkpt><trkpt lat="10.2679493" lon="-75.4693111"><ele>60.99999999999999</ele><time>2026-04-18T19:03:42.615Z</time></trkpt><trkpt lat="10.2679657" lon="-75.4694217"><ele>60.99999999999999</ele><time>2026-04-18T19:03:44.621Z</time></trkpt><trkpt lat="10.2679895" lon="-75.4695332"><ele>61.0</ele><time>2026-04-18T19:03:46.617Z</time></trkpt><trkpt lat="10.2680122" lon="-75.469646"><ele>61.0</ele><time>2026-04-18T19:03:48.623Z</time></trkpt><trkpt lat="10.2680429" lon="-75.4697589"><ele>62.0</ele><time>2026-04-18T19:03:50.615Z</time></trkpt><trkpt lat="10.2680753" lon="-75.4698652"><ele>62.99999999999999</ele><time>2026-04-18T19:03:52.616Z</time></trkpt><trkpt lat="10.2681082" lon="-75.4699691"><ele>63.99999999999999</ele><time>2026-04-18T19:03:54.618Z</time></trkpt><trkpt lat="10.2681489" lon="-75.470065"><ele>65.0</ele><time>2026-04-18T19:03:56.621Z</time></trkpt><trkpt lat="10.2681907" lon="-75.4701572"><ele>66.0</ele><time>2026-04-18T19:03:58.615Z</time></trkpt><trkpt lat="10.2682432" lon="-75.4702613"><ele>66.0</ele><time>2026-04-18T19:04:00.616Z</time></trkpt><trkpt lat="10.2682701" lon="-75.4703243"><ele>66.0</ele><time>2026-04-18T19:04:01.62Z</time></trkpt><trkpt lat="10.2683027" lon="-75.4703909"><ele>66.0</ele><time>2026-04-18T19:04:02.618Z</time></trkpt><trkpt lat="10.2683687" lon="-75.4704851"><ele>66.0</ele><time>2026-04-18T19:04:04.62Z</time></trkpt><trkpt lat="10.2684076" lon="-75.4705369"><ele>66.0</ele><time>2026-04-18T19:04:05.62Z</time></trkpt><trkpt lat="10.2684829" lon="-75.4706383"><ele>66.0</ele><time>2026-04-18T19:04:07.621Z</time></trkpt><trkpt lat="10.268526" lon="-75.4706901"><ele>66.0</ele><time>2026-04-18T19:04:08.622Z</time></trkpt><trkpt lat="10.2685695" lon="-75.470741"><ele>66.0</ele><time>2026-04-18T19:04:09.623Z</time></trkpt><trkpt lat="10.2686192" lon="-75.470792"><ele>66.0</ele><time>2026-04-18T19:04:10.622Z</time></trkpt><trkpt lat="10.2686663" lon="-75.4708426"><ele>66.0</ele><time>2026-04-18T19:04:11.624Z</time></trkpt><trkpt lat="10.268717" lon="-75.4708939"><ele>66.0</ele><time>2026-04-18T19:04:12.621Z</time></trkpt><trkpt lat="10.2687714" lon="-75.4709445"><ele>66.0</ele><time>2026-04-18T19:04:13.624Z</time></trkpt><trkpt lat="10.268827" lon="-75.4709944"><ele>66.0</ele><time>2026-04-18T19:04:14.624Z</time></trkpt><trkpt lat="10.2688833" lon="-75.4710426"><ele>66.0</ele><time>2026-04-18T19:04:15.625Z</time></trkpt><trkpt lat="10.26894" lon="-75.4710894"><ele>66.0</ele><time>2026-04-18T19:04:16.628Z</time></trkpt><trkpt lat="10.2689997" lon="-75.471136"><ele>66.0</ele><time>2026-04-18T19:04:17.623Z</time></trkpt><trkpt lat="10.2690641" lon="-75.4711828"><ele>66.0</ele><time>2026-04-18T19:04:18.637Z</time></trkpt><trkpt lat="10.2691316" lon="-75.4712279"><ele>66.0</ele><time>2026-04-18T19:04:19.616Z</time></trkpt><trkpt lat="10.2691984" lon="-75.471269"><ele>66.0</ele><time>2026-04-18T19:04:20.623Z</time></trkpt><trkpt lat="10.2692691" lon="-75.471309"><ele>65.16666666666667</ele><time>2026-04-18T19:04:21.621Z</time></trkpt><trkpt lat="10.2693397" lon="-75.4713457"><ele>64.33333333333333</ele><time>2026-04-18T19:04:22.616Z</time></trkpt><trkpt lat="10.2694112" lon="-75.4713833"><ele>63.5</ele><time>2026-04-18T19:04:23.619Z</time></trkpt><trkpt lat="10.2694849" lon="-75.4714226"><ele>62.666666666666664</ele><time>2026-04-18T19:04:24.62Z</time></trkpt><trkpt lat="10.2695576" lon="-75.4714607"><ele>61.83333333333333</ele><time>2026-04-18T19:04:25.621Z</time></trkpt><trkpt lat="10.2696271" lon="-75.4714969"><ele>61.0</ele><time>2026-04-18T19:04:26.625Z</time></trkpt><trkpt lat="10.2696964" lon="-75.4715354"><ele>60.99999999999999</ele><time>2026-04-18T19:04:27.621Z</time></trkpt><trkpt lat="10.2697659" lon="-75.4715743"><ele>61.0</ele><time>2026-04-18T19:04:28.619Z</time></trkpt><trkpt lat="10.2698375" lon="-75.47161"><ele>61.0</ele><time>2026-04-18T19:04:29.623Z</time></trkpt><trkpt lat="10.2699102" lon="-75.4716453"><ele>61.0</ele><time>2026-04-18T19:04:30.62Z</time></trkpt><trkpt lat="10.2699833" lon="-75.4716821"><ele>60.99999999999999</ele><time>2026-04-18T19:04:31.621Z</time></trkpt><trkpt lat="10.2700526" lon="-75.4717167"><ele>61.0</ele><time>2026-04-18T19:04:32.622Z</time></trkpt><trkpt lat="10.27012" lon="-75.4717506"><ele>60.99999999999999</ele><time>2026-04-18T19:04:33.695Z</time></trkpt><trkpt lat="10.2701878" lon="-75.4717869"><ele>61.0</ele><time>2026-04-18T19:04:34.618Z</time></trkpt><trkpt lat="10.2702567" lon="-75.4718223"><ele>61.0</ele><time>2026-04-18T19:04:35.621Z</time></trkpt><trkpt lat="10.2703221" lon="-75.4718541"><ele>61.0</ele><time>2026-04-18T19:04:36.695Z</time></trkpt><trkpt lat="10.2703805" lon="-75.4718832"><ele>60.99999999999999</ele><time>2026-04-18T19:04:37.695Z</time></trkpt><trkpt lat="10.2704836" lon="-75.4719294"><ele>61.0</ele><time>2026-04-18T19:04:39.623Z</time></trkpt><trkpt lat="10.2705854" lon="-75.4719797"><ele>61.83333333333333</ele><time>2026-04-18T19:04:41.624Z</time></trkpt><trkpt lat="10.2706778" lon="-75.4720085"><ele>62.666666666666664</ele><time>2026-04-18T19:04:43.622Z</time></trkpt><trkpt lat="10.2707732" lon="-75.472049"><ele>63.5</ele><time>2026-04-18T19:04:45.621Z</time></trkpt><trkpt lat="10.2708448" lon="-75.472094"><ele>64.33333333333333</ele><time>2026-04-18T19:04:47.624Z</time></trkpt><trkpt lat="10.2709066" lon="-75.4721362"><ele>65.16666666666667</ele><time>2026-04-18T19:04:49.623Z</time></trkpt><trkpt lat="10.2709617" lon="-75.4721746"><ele>66.0</ele><time>2026-04-18T19:05:20.628Z</time></trkpt><trkpt lat="10.27102" lon="-75.4722063"><ele>66.28571428571428</ele><time>2026-04-18T19:05:25.622Z</time></trkpt><trkpt lat="10.2710752" lon="-75.472244"><ele>66.57142857142857</ele><time>2026-04-18T19:06:15.623Z</time></trkpt><trkpt lat="10.2711298" lon="-75.4722862"><ele>66.85714285714286</ele><time>2026-04-18T19:06:20.619Z</time></trkpt><trkpt lat="10.2711884" lon="-75.4723175"><ele>67.14285714285714</ele><time>2026-04-18T19:06:23.666Z</time></trkpt><trkpt lat="10.2712572" lon="-75.4723643"><ele>67.42857142857143</ele><time>2026-04-18T19:06:26.623Z</time></trkpt><trkpt lat="10.2713372" lon="-75.472406"><ele>67.71428571428571</ele><time>2026-04-18T19:06:29.619Z</time></trkpt><trkpt lat="10.2713946" lon="-75.4724373"><ele>68.0</ele><time>2026-04-18T19:06:31.628Z</time></trkpt><trkpt lat="10.2714492" lon="-75.472471"><ele>68.0</ele><time>2026-04-18T19:06:33.622Z</time></trkpt><trkpt lat="10.2715329" lon="-75.4725089"><ele>68.0</ele><time>2026-04-18T19:06:36.617Z</time></trkpt><trkpt lat="10.2716185" lon="-75.4725503"><ele>68.0</ele><time>2026-04-18T19:06:39.62Z</time></trkpt><trkpt lat="10.2717012" lon="-75.4725945"><ele>68.0</ele><time>2026-04-18T19:06:42.624Z</time></trkpt><trkpt lat="10.271757" lon="-75.4726306"><ele>68.0</ele><time>2026-04-18T19:06:44.622Z</time></trkpt><trkpt lat="10.2718154" lon="-75.4726626"><ele>68.0</ele><time>2026-04-18T19:06:46.621Z</time></trkpt><trkpt lat="10.271875" lon="-75.4726945"><ele>67.99999999999999</ele><time>2026-04-18T19:06:48.627Z</time></trkpt><trkpt lat="10.2719341" lon="-75.4727257"><ele>68.0</ele><time>2026-04-18T19:06:50.624Z</time></trkpt><trkpt lat="10.2719975" lon="-75.4727532"><ele>68.0</ele><time>2026-04-18T19:06:52.621Z</time></trkpt><trkpt lat="10.2720565" lon="-75.4727867"><ele>68.0</ele><time>2026-04-18T19:06:54.62Z</time></trkpt><trkpt lat="10.2721219" lon="-75.4728184"><ele>68.0</ele><time>2026-04-18T19:06:56.621Z</time></trkpt><trkpt lat="10.2721885" lon="-75.4728487"><ele>67.99999999999999</ele><time>2026-04-18T19:06:58.621Z</time></trkpt><trkpt lat="10.2722555" lon="-75.4728805"><ele>68.0</ele><time>2026-04-18T19:07:00.62Z</time></trkpt><trkpt lat="10.2723229" lon="-75.4729122"><ele>68.16666666666667</ele><time>2026-04-18T19:07:02.623Z</time></trkpt><trkpt lat="10.2723928" lon="-75.4729427"><ele>68.33333333333334</ele><time>2026-04-18T19:07:04.624Z</time></trkpt><trkpt lat="10.2724621" lon="-75.4729737"><ele>68.5</ele><time>2026-04-18T19:07:06.624Z</time></trkpt><trkpt lat="10.2725295" lon="-75.4730071"><ele>68.66666666666667</ele><time>2026-04-18T19:07:08.621Z</time></trkpt><trkpt lat="10.2726043" lon="-75.4730311"><ele>68.83333333333333</ele><time>2026-04-18T19:07:10.622Z</time></trkpt><trkpt lat="10.2726792" lon="-75.4730543"><ele>69.0</ele><time>2026-04-18T19:07:12.617Z</time></trkpt><trkpt lat="10.2727574" lon="-75.4730716"><ele>69.0</ele><time>2026-04-18T19:07:14.622Z</time></trkpt><trkpt lat="10.2728383" lon="-75.4730919"><ele>69.0</ele><time>2026-04-18T19:07:16.617Z</time></trkpt><trkpt lat="10.2729257" lon="-75.4731124"><ele>69.0</ele><time>2026-04-18T19:07:18.623Z</time></trkpt><trkpt lat="10.273009" lon="-75.4731357"><ele>69.0</ele><time>2026-04-18T19:07:20.626Z</time></trkpt><trkpt lat="10.2730909" lon="-75.4731559"><ele>69.0</ele><time>2026-04-18T19:07:22.618Z</time></trkpt><trkpt lat="10.2731737" lon="-75.4731745"><ele>69.0</ele><time>2026-04-18T19:07:24.618Z</time></trkpt><trkpt lat="10.2732594" lon="-75.4731942"><ele>70.0</ele><time>2026-04-18T19:07:26.616Z</time></trkpt><trkpt lat="10.2733483" lon="-75.473214"><ele>71.0</ele><time>2026-04-18T19:07:28.614Z</time></trkpt><trkpt lat="10.273441" lon="-75.4732307"><ele>72.0</ele><time>2026-04-18T19:07:30.623Z</time></trkpt><trkpt lat="10.2735334" lon="-75.4732572"><ele>73.0</ele><time>2026-04-18T19:07:32.617Z</time></trkpt><trkpt lat="10.2736309" lon="-75.4732853"><ele>74.0</ele><time>2026-04-18T19:07:34.618Z</time></trkpt><trkpt lat="10.2737335" lon="-75.4733109"><ele>74.0</ele><time>2026-04-18T19:07:36.619Z</time></trkpt><trkpt lat="10.2738425" lon="-75.4733392"><ele>74.0</ele><time>2026-04-18T19:07:38.621Z</time></trkpt><trkpt lat="10.2739565" lon="-75.4733695"><ele>74.0</ele><time>2026-04-18T19:07:40.615Z</time></trkpt><trkpt lat="10.2740904" lon="-75.4733972"><ele>74.0</ele><time>2026-04-18T19:07:42.615Z</time></trkpt><trkpt lat="10.2742151" lon="-75.4734282"><ele>74.0</ele><time>2026-04-18T19:07:44.615Z</time></trkpt><trkpt lat="10.2742793" lon="-75.473446"><ele>74.0</ele><time>2026-04-18T19:07:45.615Z</time></trkpt><trkpt lat="10.2743443" lon="-75.4734629"><ele>74.0</ele><time>2026-04-18T19:07:46.616Z</time></trkpt><trkpt lat="10.2744107" lon="-75.4734798"><ele>74.0</ele><time>2026-04-18T19:07:47.617Z</time></trkpt><trkpt lat="10.2744796" lon="-75.4734969"><ele>74.0</ele><time>2026-04-18T19:07:48.616Z</time></trkpt><trkpt lat="10.2745513" lon="-75.4735141"><ele>74.0</ele><time>2026-04-18T19:07:49.618Z</time></trkpt><trkpt lat="10.2746271" lon="-75.4735291"><ele>74.0</ele><time>2026-04-18T19:07:50.615Z</time></trkpt><trkpt lat="10.2747056" lon="-75.4735483"><ele>72.66666666666667</ele><time>2026-04-18T19:07:51.618Z</time></trkpt><trkpt lat="10.2747873" lon="-75.473565"><ele>71.33333333333334</ele><time>2026-04-18T19:07:52.619Z</time></trkpt><trkpt lat="10.2748728" lon="-75.4735807"><ele>70.0</ele><time>2026-04-18T19:07:53.619Z</time></trkpt><trkpt lat="10.2749611" lon="-75.4735919"><ele>68.66666666666667</ele><time>2026-04-18T19:07:54.619Z</time></trkpt><trkpt lat="10.2750529" lon="-75.4736026"><ele>67.33333333333333</ele><time>2026-04-18T19:07:55.618Z</time></trkpt><trkpt lat="10.2751466" lon="-75.4736079"><ele>66.0</ele><time>2026-04-18T19:07:56.617Z</time></trkpt><trkpt lat="10.2752471" lon="-75.4736077"><ele>66.0</ele><time>2026-04-18T19:07:57.618Z</time></trkpt><trkpt lat="10.275348" lon="-75.4736064"><ele>66.0</ele><time>2026-04-18T19:07:58.619Z</time></trkpt><trkpt lat="10.2754516" lon="-75.4736034"><ele>66.0</ele><time>2026-04-18T19:07:59.616Z</time></trkpt><trkpt lat="10.2755556" lon="-75.4735984"><ele>66.0</ele><time>2026-04-18T19:08:00.615Z</time></trkpt><trkpt lat="10.2756601" lon="-75.4735919"><ele>66.0</ele><time>2026-04-18T19:08:01.616Z</time></trkpt><trkpt lat="10.2757667" lon="-75.473585"><ele>64.8</ele><time>2026-04-18T19:08:02.614Z</time></trkpt><trkpt lat="10.2758761" lon="-75.4735778"><ele>63.599999999999994</ele><time>2026-04-18T19:08:03.616Z</time></trkpt><trkpt lat="10.275985" lon="-75.4735651"><ele>62.4</ele><time>2026-04-18T19:08:04.618Z</time></trkpt><trkpt lat="10.276095" lon="-75.4735516"><ele>61.2</ele><time>2026-04-18T19:08:05.618Z</time></trkpt><trkpt lat="10.2762079" lon="-75.4735416"><ele>60.0</ele><time>2026-04-18T19:08:06.617Z</time></trkpt><trkpt lat="10.2763198" lon="-75.4735387"><ele>60.0</ele><time>2026-04-18T19:08:07.616Z</time></trkpt><trkpt lat="10.2764324" lon="-75.4735376"><ele>60.0</ele><time>2026-04-18T19:08:08.619Z</time></trkpt><trkpt lat="10.2765465" lon="-75.4735386"><ele>60.0</ele><time>2026-04-18T19:08:09.615Z</time></trkpt><trkpt lat="10.2766587" lon="-75.4735457"><ele>60.0</ele><time>2026-04-18T19:08:10.62Z</time></trkpt><trkpt lat="10.2767704" lon="-75.4735543"><ele>60.25</ele><time>2026-04-18T19:08:11.615Z</time></trkpt><trkpt lat="10.2768847" lon="-75.4735663"><ele>60.5</ele><time>2026-04-18T19:08:12.616Z</time></trkpt><trkpt lat="10.2770032" lon="-75.4735806"><ele>60.75</ele><time>2026-04-18T19:08:13.617Z</time></trkpt><trkpt lat="10.2771165" lon="-75.4735981"><ele>61.0</ele><time>2026-04-18T19:08:14.62Z</time></trkpt><trkpt lat="10.2772315" lon="-75.473618"><ele>60.75</ele><time>2026-04-18T19:08:15.621Z</time></trkpt><trkpt lat="10.2773605" lon="-75.4736427"><ele>60.5</ele><time>2026-04-18T19:08:16.619Z</time></trkpt><trkpt lat="10.277473" lon="-75.4736736"><ele>60.25</ele><time>2026-04-18T19:08:17.619Z</time></trkpt><trkpt lat="10.2775952" lon="-75.4736951"><ele>60.0</ele><time>2026-04-18T19:08:18.623Z</time></trkpt><trkpt lat="10.2777103" lon="-75.4737222"><ele>60.0</ele><time>2026-04-18T19:08:19.614Z</time></trkpt><trkpt lat="10.2778254" lon="-75.473751"><ele>60.0</ele><time>2026-04-18T19:08:20.615Z</time></trkpt><trkpt lat="10.2779375" lon="-75.4737819"><ele>60.0</ele><time>2026-04-18T19:08:21.62Z</time></trkpt><trkpt lat="10.2780508" lon="-75.4738097"><ele>60.0</ele><time>2026-04-18T19:08:22.62Z</time></trkpt><trkpt lat="10.2781634" lon="-75.473837"><ele>58.6</ele><time>2026-04-18T19:08:23.621Z</time></trkpt><trkpt lat="10.2782766" lon="-75.4738628"><ele>57.2</ele><time>2026-04-18T19:08:24.622Z</time></trkpt><trkpt lat="10.2783857" lon="-75.4738927"><ele>55.8</ele><time>2026-04-18T19:08:25.621Z</time></trkpt><trkpt lat="10.2784935" lon="-75.4739191"><ele>54.4</ele><time>2026-04-18T19:08:26.623Z</time></trkpt><trkpt lat="10.278597" lon="-75.4739484"><ele>53.0</ele><time>2026-04-18T19:08:27.623Z</time></trkpt><trkpt lat="10.2786994" lon="-75.4739705"><ele>53.0</ele><time>2026-04-18T19:08:28.621Z</time></trkpt><trkpt lat="10.2787973" lon="-75.4739921"><ele>53.0</ele><time>2026-04-18T19:08:29.62Z</time></trkpt><trkpt lat="10.2788945" lon="-75.474019"><ele>53.0</ele><time>2026-04-18T19:08:30.62Z</time></trkpt><trkpt lat="10.2789887" lon="-75.4740398"><ele>53.0</ele><time>2026-04-18T19:08:31.616Z</time></trkpt><trkpt lat="10.2790827" lon="-75.4740603"><ele>53.0</ele><time>2026-04-18T19:08:32.62Z</time></trkpt><trkpt lat="10.2791746" lon="-75.4740813"><ele>52.599999999999994</ele><time>2026-04-18T19:08:33.618Z</time></trkpt><trkpt lat="10.2792655" lon="-75.4741006"><ele>52.199999999999996</ele><time>2026-04-18T19:08:34.621Z</time></trkpt><trkpt lat="10.2793571" lon="-75.4741172"><ele>51.8</ele><time>2026-04-18T19:08:35.614Z</time></trkpt><trkpt lat="10.2794457" lon="-75.474136"><ele>51.4</ele><time>2026-04-18T19:08:36.617Z</time></trkpt><trkpt lat="10.2795295" lon="-75.4741606"><ele>51.0</ele><time>2026-04-18T19:08:37.615Z</time></trkpt><trkpt lat="10.2796147" lon="-75.4741827"><ele>51.0</ele><time>2026-04-18T19:08:38.616Z</time></trkpt><trkpt lat="10.2796975" lon="-75.474204"><ele>51.0</ele><time>2026-04-18T19:08:39.62Z</time></trkpt><trkpt lat="10.2797902" lon="-75.4742252"><ele>51.0</ele><time>2026-04-18T19:08:40.619Z</time></trkpt><trkpt lat="10.2798758" lon="-75.4742486"><ele>51.0</ele><time>2026-04-18T19:08:41.624Z</time></trkpt><trkpt lat="10.2799619" lon="-75.4742705"><ele>51.0</ele><time>2026-04-18T19:08:42.619Z</time></trkpt><trkpt lat="10.2800462" lon="-75.474292"><ele>51.0</ele><time>2026-04-18T19:08:43.621Z</time></trkpt><trkpt lat="10.280132" lon="-75.474315"><ele>51.333333333333336</ele><time>2026-04-18T19:08:44.618Z</time></trkpt><trkpt lat="10.2802173" lon="-75.4743361"><ele>51.66666666666667</ele><time>2026-04-18T19:08:45.627Z</time></trkpt><trkpt lat="10.2803036" lon="-75.4743559"><ele>52.0</ele><time>2026-04-18T19:08:46.62Z</time></trkpt><trkpt lat="10.2803884" lon="-75.4743792"><ele>52.333333333333336</ele><time>2026-04-18T19:08:47.62Z</time></trkpt><trkpt lat="10.2804711" lon="-75.4744023"><ele>52.66666666666667</ele><time>2026-04-18T19:08:48.617Z</time></trkpt><trkpt lat="10.2805539" lon="-75.4744186"><ele>53.0</ele><time>2026-04-18T19:08:49.621Z</time></trkpt><trkpt lat="10.2806362" lon="-75.4744357"><ele>53.50000000000001</ele><time>2026-04-18T19:08:50.621Z</time></trkpt><trkpt lat="10.2807186" lon="-75.4744534"><ele>54.0</ele><time>2026-04-18T19:08:51.619Z</time></trkpt><trkpt lat="10.2808008" lon="-75.4744755"><ele>54.5</ele><time>2026-04-18T19:08:52.62Z</time></trkpt><trkpt lat="10.2808815" lon="-75.4745004"><ele>55.0</ele><time>2026-04-18T19:08:53.62Z</time></trkpt><trkpt lat="10.2809672" lon="-75.4745357"><ele>55.50000000000001</ele><time>2026-04-18T19:08:54.62Z</time></trkpt><trkpt lat="10.2810552" lon="-75.474567"><ele>56.0</ele><time>2026-04-18T19:08:55.617Z</time></trkpt><trkpt lat="10.2811435" lon="-75.4745973"><ele>54.199999999999996</ele><time>2026-04-18T19:08:56.623Z</time></trkpt><trkpt lat="10.2812331" lon="-75.4746339"><ele>52.39999999999999</ele><time>2026-04-18T19:08:57.616Z</time></trkpt><trkpt lat="10.2813207" lon="-75.4746758"><ele>50.6</ele><time>2026-04-18T19:08:58.617Z</time></trkpt><trkpt lat="10.2814066" lon="-75.474722"><ele>48.8</ele><time>2026-04-18T19:08:59.624Z</time></trkpt><trkpt lat="10.281493" lon="-75.4747715"><ele>47.0</ele><time>2026-04-18T19:09:00.62Z</time></trkpt><trkpt lat="10.2815772" lon="-75.4748265"><ele>47.0</ele><time>2026-04-18T19:09:01.62Z</time></trkpt><trkpt lat="10.2816581" lon="-75.4748878"><ele>47.0</ele><time>2026-04-18T19:09:02.614Z</time></trkpt><trkpt lat="10.2817434" lon="-75.4749473"><ele>47.0</ele><time>2026-04-18T19:09:03.622Z</time></trkpt><trkpt lat="10.2818274" lon="-75.4750126"><ele>47.0</ele><time>2026-04-18T19:09:04.622Z</time></trkpt><trkpt lat="10.2819125" lon="-75.4750771"><ele>47.0</ele><time>2026-04-18T19:09:05.618Z</time></trkpt><trkpt lat="10.2819971" lon="-75.4751438"><ele>47.0</ele><time>2026-04-18T19:09:06.62Z</time></trkpt><trkpt lat="10.2820817" lon="-75.4752152"><ele>47.0</ele><time>2026-04-18T19:09:07.621Z</time></trkpt><trkpt lat="10.2821644" lon="-75.4752847"><ele>47.0</ele><time>2026-04-18T19:09:08.621Z</time></trkpt><trkpt lat="10.2822476" lon="-75.475351"><ele>47.0</ele><time>2026-04-18T19:09:09.619Z</time></trkpt><trkpt lat="10.2823289" lon="-75.4754167"><ele>47.0</ele><time>2026-04-18T19:09:10.618Z</time></trkpt><trkpt lat="10.2824102" lon="-75.4754805"><ele>45.8</ele><time>2026-04-18T19:09:11.617Z</time></trkpt><trkpt lat="10.2824905" lon="-75.4755465"><ele>44.6</ele><time>2026-04-18T19:09:12.618Z</time></trkpt><trkpt lat="10.2825699" lon="-75.4756113"><ele>43.4</ele><time>2026-04-18T19:09:13.619Z</time></trkpt><trkpt lat="10.2826493" lon="-75.4756797"><ele>42.199999999999996</ele><time>2026-04-18T19:09:14.62Z</time></trkpt><trkpt lat="10.282726" lon="-75.4757496"><ele>41.0</ele><time>2026-04-18T19:09:15.62Z</time></trkpt><trkpt lat="10.2828037" lon="-75.4758153"><ele>41.0</ele><time>2026-04-18T19:09:16.615Z</time></trkpt><trkpt lat="10.2828809" lon="-75.4758806"><ele>41.0</ele><time>2026-04-18T19:09:17.617Z</time></trkpt><trkpt lat="10.2829623" lon="-75.4759452"><ele>41.0</ele><time>2026-04-18T19:09:18.62Z</time></trkpt><trkpt lat="10.283041" lon="-75.4760129"><ele>41.0</ele><time>2026-04-18T19:09:19.621Z</time></trkpt><trkpt lat="10.2831135" lon="-75.4760783"><ele>41.0</ele><time>2026-04-18T19:09:20.623Z</time></trkpt><trkpt lat="10.2831873" lon="-75.4761456"><ele>41.199999999999996</ele><time>2026-04-18T19:09:21.619Z</time></trkpt><trkpt lat="10.283264" lon="-75.4762121"><ele>41.4</ele><time>2026-04-18T19:09:22.623Z</time></trkpt><trkpt lat="10.2833384" lon="-75.476283"><ele>41.6</ele><time>2026-04-18T19:09:23.618Z</time></trkpt><trkpt lat="10.2834143" lon="-75.4763492"><ele>41.8</ele><time>2026-04-18T19:09:24.616Z</time></trkpt><trkpt lat="10.2834867" lon="-75.4764174"><ele>42.0</ele><time>2026-04-18T19:09:25.62Z</time></trkpt><trkpt lat="10.2835658" lon="-75.4764858"><ele>42.0</ele><time>2026-04-18T19:09:26.619Z</time></trkpt><trkpt lat="10.2836398" lon="-75.4765535"><ele>42.0</ele><time>2026-04-18T19:09:27.623Z</time></trkpt><trkpt lat="10.2837146" lon="-75.4766223"><ele>42.0</ele><time>2026-04-18T19:09:28.619Z</time></trkpt><trkpt lat="10.2837885" lon="-75.4766872"><ele>42.0</ele><time>2026-04-18T19:09:29.621Z</time></trkpt><trkpt lat="10.2838622" lon="-75.4767528"><ele>42.0</ele><time>2026-04-18T19:09:30.618Z</time></trkpt><trkpt lat="10.2839322" lon="-75.4768205"><ele>41.6</ele><time>2026-04-18T19:09:31.615Z</time></trkpt><trkpt lat="10.2840072" lon="-75.4768831"><ele>41.2</ele><time>2026-04-18T19:09:32.622Z</time></trkpt><trkpt lat="10.2840844" lon="-75.4769516"><ele>40.8</ele><time>2026-04-18T19:09:33.62Z</time></trkpt><trkpt lat="10.2841638" lon="-75.4770096"><ele>40.4</ele><time>2026-04-18T19:09:34.617Z</time></trkpt><trkpt lat="10.2842464" lon="-75.4770724"><ele>40.0</ele><time>2026-04-18T19:09:35.617Z</time></trkpt><trkpt lat="10.2843267" lon="-75.4771347"><ele>40.0</ele><time>2026-04-18T19:09:36.619Z</time></trkpt><trkpt lat="10.2844092" lon="-75.4771925"><ele>40.0</ele><time>2026-04-18T19:09:37.619Z</time></trkpt><trkpt lat="10.2844933" lon="-75.4772466"><ele>40.0</ele><time>2026-04-18T19:09:38.617Z</time></trkpt><trkpt lat="10.2845753" lon="-75.4773015"><ele>40.0</ele><time>2026-04-18T19:09:39.615Z</time></trkpt><trkpt lat="10.2846595" lon="-75.4773487"><ele>40.0</ele><time>2026-04-18T19:09:40.615Z</time></trkpt><trkpt lat="10.2847442" lon="-75.4773978"><ele>39.8</ele><time>2026-04-18T19:09:41.618Z</time></trkpt><trkpt lat="10.2848318" lon="-75.4774397"><ele>39.6</ele><time>2026-04-18T19:09:42.612Z</time></trkpt><trkpt lat="10.2849172" lon="-75.4774844"><ele>39.4</ele><time>2026-04-18T19:09:43.622Z</time></trkpt><trkpt lat="10.2850055" lon="-75.4775243"><ele>39.2</ele><time>2026-04-18T19:09:44.618Z</time></trkpt><trkpt lat="10.2850924" lon="-75.4775624"><ele>39.0</ele><time>2026-04-18T19:09:45.618Z</time></trkpt><trkpt lat="10.285182" lon="-75.4775981"><ele>39.0</ele><time>2026-04-18T19:09:46.616Z</time></trkpt><trkpt lat="10.2852735" lon="-75.4776298"><ele>39.0</ele><time>2026-04-18T19:09:47.617Z</time></trkpt><trkpt lat="10.2853649" lon="-75.4776644"><ele>39.0</ele><time>2026-04-18T19:09:48.617Z</time></trkpt><trkpt lat="10.285455" lon="-75.4776894"><ele>39.0</ele><time>2026-04-18T19:09:49.618Z</time></trkpt><trkpt lat="10.2855491" lon="-75.4777148"><ele>39.0</ele><time>2026-04-18T19:09:50.616Z</time></trkpt><trkpt lat="10.2856398" lon="-75.4777425"><ele>39.5</ele><time>2026-04-18T19:09:51.621Z</time></trkpt><trkpt lat="10.2857301" lon="-75.477766"><ele>40.0</ele><time>2026-04-18T19:09:52.618Z</time></trkpt><trkpt lat="10.2858181" lon="-75.4777882"><ele>40.5</ele><time>2026-04-18T19:09:53.621Z</time></trkpt><trkpt lat="10.2859041" lon="-75.4778094"><ele>41.0</ele><time>2026-04-18T19:09:54.624Z</time></trkpt><trkpt lat="10.2859901" lon="-75.4778263"><ele>41.5</ele><time>2026-04-18T19:09:55.619Z</time></trkpt><trkpt lat="10.2860735" lon="-75.4778395"><ele>42.0</ele><time>2026-04-18T19:09:56.617Z</time></trkpt><trkpt lat="10.2861578" lon="-75.4778508"><ele>42.0</ele><time>2026-04-18T19:09:57.616Z</time></trkpt><trkpt lat="10.2862398" lon="-75.4778625"><ele>42.0</ele><time>2026-04-18T19:09:58.615Z</time></trkpt><trkpt lat="10.2863195" lon="-75.4778684"><ele>42.0</ele><time>2026-04-18T19:09:59.618Z</time></trkpt><trkpt lat="10.2863994" lon="-75.4778773"><ele>42.0</ele><time>2026-04-18T19:10:00.619Z</time></trkpt><trkpt lat="10.2864885" lon="-75.4778812"><ele>42.0</ele><time>2026-04-18T19:10:01.617Z</time></trkpt><trkpt lat="10.2865673" lon="-75.4778801"><ele>42.0</ele><time>2026-04-18T19:10:02.621Z</time></trkpt><trkpt lat="10.286647" lon="-75.4778811"><ele>42.166666666666664</ele><time>2026-04-18T19:10:03.628Z</time></trkpt><trkpt lat="10.2867269" lon="-75.4778813"><ele>42.333333333333336</ele><time>2026-04-18T19:10:04.626Z</time></trkpt><trkpt lat="10.2868088" lon="-75.4778819"><ele>42.5</ele><time>2026-04-18T19:10:05.622Z</time></trkpt><trkpt lat="10.2868927" lon="-75.4778846"><ele>42.66666666666667</ele><time>2026-04-18T19:10:06.62Z</time></trkpt><trkpt lat="10.2869772" lon="-75.4778829"><ele>42.833333333333336</ele><time>2026-04-18T19:10:07.622Z</time></trkpt><trkpt lat="10.2870647" lon="-75.4778864"><ele>43.0</ele><time>2026-04-18T19:10:08.622Z</time></trkpt><trkpt lat="10.287155" lon="-75.4778857"><ele>43.0</ele><time>2026-04-18T19:10:09.616Z</time></trkpt><trkpt lat="10.2872467" lon="-75.4778881"><ele>43.0</ele><time>2026-04-18T19:10:10.617Z</time></trkpt><trkpt lat="10.2873394" lon="-75.477883"><ele>43.0</ele><time>2026-04-18T19:10:11.619Z</time></trkpt><trkpt lat="10.2874335" lon="-75.4778863"><ele>43.0</ele><time>2026-04-18T19:10:12.618Z</time></trkpt><trkpt lat="10.2875282" lon="-75.4778886"><ele>43.0</ele><time>2026-04-18T19:10:13.614Z</time></trkpt><trkpt lat="10.2876229" lon="-75.477891"><ele>43.8</ele><time>2026-04-18T19:10:14.617Z</time></trkpt><trkpt lat="10.2877161" lon="-75.4778918"><ele>44.599999999999994</ele><time>2026-04-18T19:10:15.618Z</time></trkpt><trkpt lat="10.2878156" lon="-75.4778926"><ele>45.400000000000006</ele><time>2026-04-18T19:10:16.615Z</time></trkpt><trkpt lat="10.2879168" lon="-75.4778948"><ele>46.2</ele><time>2026-04-18T19:10:17.62Z</time></trkpt><trkpt lat="10.2880176" lon="-75.4778971"><ele>47.0</ele><time>2026-04-18T19:10:18.616Z</time></trkpt><trkpt lat="10.2881284" lon="-75.477897"><ele>47.0</ele><time>2026-04-18T19:10:19.617Z</time></trkpt><trkpt lat="10.2882364" lon="-75.4778987"><ele>47.0</ele><time>2026-04-18T19:10:20.616Z</time></trkpt><trkpt lat="10.2883439" lon="-75.477901"><ele>47.0</ele><time>2026-04-18T19:10:21.616Z</time></trkpt><trkpt lat="10.2884524" lon="-75.4779009"><ele>47.0</ele><time>2026-04-18T19:10:22.625Z</time></trkpt><trkpt lat="10.2885657" lon="-75.4779036"><ele>47.0</ele><time>2026-04-18T19:10:23.621Z</time></trkpt><trkpt lat="10.2886754" lon="-75.477909"><ele>47.0</ele><time>2026-04-18T19:10:24.62Z</time></trkpt><trkpt lat="10.2887882" lon="-75.4779123"><ele>47.0</ele><time>2026-04-18T19:10:25.695Z</time></trkpt><trkpt lat="10.2889007" lon="-75.4779176"><ele>47.0</ele><time>2026-04-18T19:10:26.616Z</time></trkpt><trkpt lat="10.2890192" lon="-75.4779198"><ele>47.0</ele><time>2026-04-18T19:10:27.616Z</time></trkpt><trkpt lat="10.289136" lon="-75.477918"><ele>45.25</ele><time>2026-04-18T19:10:28.618Z</time></trkpt><trkpt lat="10.2892524" lon="-75.477919"><ele>43.5</ele><time>2026-04-18T19:10:29.617Z</time></trkpt><trkpt lat="10.2893688" lon="-75.4779223"><ele>41.75</ele><time>2026-04-18T19:10:30.622Z</time></trkpt><trkpt lat="10.2894819" lon="-75.477922"><ele>40.0</ele><time>2026-04-18T19:10:31.617Z</time></trkpt><trkpt lat="10.2895921" lon="-75.477922"><ele>40.0</ele><time>2026-04-18T19:10:32.62Z</time></trkpt><trkpt lat="10.2896994" lon="-75.4779209"><ele>40.0</ele><time>2026-04-18T19:10:33.622Z</time></trkpt><trkpt lat="10.2898034" lon="-75.4779199"><ele>40.0</ele><time>2026-04-18T19:10:34.621Z</time></trkpt><trkpt lat="10.2899036" lon="-75.4779138"><ele>40.0</ele><time>2026-04-18T19:10:35.622Z</time></trkpt><trkpt lat="10.2900019" lon="-75.4779174"><ele>40.0</ele><time>2026-04-18T19:10:36.621Z</time></trkpt><trkpt lat="10.290099" lon="-75.4779181"><ele>38.8</ele><time>2026-04-18T19:10:37.621Z</time></trkpt><trkpt lat="10.2901882" lon="-75.4779162"><ele>37.6</ele><time>2026-04-18T19:10:38.62Z</time></trkpt><trkpt lat="10.2902823" lon="-75.4779211"><ele>36.4</ele><time>2026-04-18T19:10:39.622Z</time></trkpt><trkpt lat="10.290374" lon="-75.4779189"><ele>35.2</ele><time>2026-04-18T19:10:40.614Z</time></trkpt><trkpt lat="10.2904646" lon="-75.4779193"><ele>34.0</ele><time>2026-04-18T19:10:41.62Z</time></trkpt><trkpt lat="10.2905572" lon="-75.4779215"><ele>34.0</ele><time>2026-04-18T19:10:42.618Z</time></trkpt><trkpt lat="10.2906494" lon="-75.4779201"><ele>34.0</ele><time>2026-04-18T19:10:43.618Z</time></trkpt><trkpt lat="10.2907439" lon="-75.4779248"><ele>34.0</ele><time>2026-04-18T19:10:44.62Z</time></trkpt><trkpt lat="10.2908394" lon="-75.4779323"><ele>34.0</ele><time>2026-04-18T19:10:45.619Z</time></trkpt><trkpt lat="10.2909386" lon="-75.4779398"><ele>34.0</ele><time>2026-04-18T19:10:46.616Z</time></trkpt><trkpt lat="10.291039" lon="-75.4779478"><ele>34.2</ele><time>2026-04-18T19:10:47.615Z</time></trkpt><trkpt lat="10.2911402" lon="-75.4779578"><ele>34.4</ele><time>2026-04-18T19:10:48.614Z</time></trkpt><trkpt lat="10.2912428" lon="-75.4779657"><ele>34.6</ele><time>2026-04-18T19:10:49.616Z</time></trkpt><trkpt lat="10.2913461" lon="-75.4779766"><ele>34.8</ele><time>2026-04-18T19:10:50.615Z</time></trkpt><trkpt lat="10.2914487" lon="-75.4779883"><ele>35.0</ele><time>2026-04-18T19:10:51.618Z</time></trkpt><trkpt lat="10.2915547" lon="-75.478"><ele>36.0</ele><time>2026-04-18T19:10:52.62Z</time></trkpt><trkpt lat="10.29166" lon="-75.4780151"><ele>37.0</ele><time>2026-04-18T19:10:53.62Z</time></trkpt><trkpt lat="10.2917646" lon="-75.478025"><ele>38.0</ele><time>2026-04-18T19:10:54.621Z</time></trkpt><trkpt lat="10.2918716" lon="-75.4780381"><ele>39.0</ele><time>2026-04-18T19:10:55.617Z</time></trkpt><trkpt lat="10.2919772" lon="-75.4780497"><ele>40.0</ele><time>2026-04-18T19:10:56.621Z</time></trkpt><trkpt lat="10.2920836" lon="-75.4780606"><ele>40.0</ele><time>2026-04-18T19:10:57.621Z</time></trkpt><trkpt lat="10.2921889" lon="-75.4780726"><ele>40.0</ele><time>2026-04-18T19:10:58.615Z</time></trkpt><trkpt lat="10.2922896" lon="-75.4780852"><ele>40.0</ele><time>2026-04-18T19:10:59.62Z</time></trkpt><trkpt lat="10.2923973" lon="-75.478097"><ele>40.0</ele><time>2026-04-18T19:11:00.619Z</time></trkpt><trkpt lat="10.2925026" lon="-75.4781093"><ele>40.0</ele><time>2026-04-18T19:11:01.616Z</time></trkpt><trkpt lat="10.2926048" lon="-75.4781193"><ele>39.6</ele><time>2026-04-18T19:11:02.616Z</time></trkpt><trkpt lat="10.2927047" lon="-75.4781317"><ele>39.2</ele><time>2026-04-18T19:11:03.618Z</time></trkpt><trkpt lat="10.2928062" lon="-75.4781442"><ele>38.8</ele><time>2026-04-18T19:11:04.617Z</time></trkpt><trkpt lat="10.2929082" lon="-75.4781504"><ele>38.4</ele><time>2026-04-18T19:11:05.614Z</time></trkpt><trkpt lat="10.2930132" lon="-75.4781614"><ele>38.0</ele><time>2026-04-18T19:11:06.616Z</time></trkpt><trkpt lat="10.2931137" lon="-75.4781728"><ele>39.599999999999994</ele><time>2026-04-18T19:11:07.62Z</time></trkpt><trkpt lat="10.2932137" lon="-75.4781876"><ele>41.199999999999996</ele><time>2026-04-18T19:11:08.615Z</time></trkpt><trkpt lat="10.2933165" lon="-75.4781973"><ele>42.8</ele><time>2026-04-18T19:11:09.618Z</time></trkpt><trkpt lat="10.2934168" lon="-75.4782083"><ele>44.4</ele><time>2026-04-18T19:11:10.617Z</time></trkpt><trkpt lat="10.2935152" lon="-75.4782197"><ele>46.0</ele><time>2026-04-18T19:11:11.622Z</time></trkpt><trkpt lat="10.2936174" lon="-75.478232"><ele>46.0</ele><time>2026-04-18T19:11:12.617Z</time></trkpt><trkpt lat="10.2937171" lon="-75.4782442"><ele>46.0</ele><time>2026-04-18T19:11:13.615Z</time></trkpt><trkpt lat="10.2938173" lon="-75.478248"><ele>46.0</ele><time>2026-04-18T19:11:14.617Z</time></trkpt><trkpt lat="10.2939207" lon="-75.4782597"><ele>46.0</ele><time>2026-04-18T19:11:15.617Z</time></trkpt><trkpt lat="10.2940268" lon="-75.4782729"><ele>46.0</ele><time>2026-04-18T19:11:16.616Z</time></trkpt><trkpt lat="10.2941351" lon="-75.4782881"><ele>46.4</ele><time>2026-04-18T19:11:17.614Z</time></trkpt><trkpt lat="10.2942418" lon="-75.4782976"><ele>46.8</ele><time>2026-04-18T19:11:18.615Z</time></trkpt><trkpt lat="10.294351" lon="-75.4783111"><ele>47.199999999999996</ele><time>2026-04-18T19:11:19.616Z</time></trkpt><trkpt lat="10.2944578" lon="-75.4783242"><ele>47.599999999999994</ele><time>2026-04-18T19:11:20.614Z</time></trkpt><trkpt lat="10.294568" lon="-75.4783328"><ele>48.0</ele><time>2026-04-18T19:11:21.618Z</time></trkpt><trkpt lat="10.2946797" lon="-75.4783392"><ele>47.599999999999994</ele><time>2026-04-18T19:11:22.614Z</time></trkpt><trkpt lat="10.2947946" lon="-75.478351"><ele>47.199999999999996</ele><time>2026-04-18T19:11:23.62Z</time></trkpt><trkpt lat="10.2949036" lon="-75.4783676"><ele>46.8</ele><time>2026-04-18T19:11:24.614Z</time></trkpt><trkpt lat="10.295013" lon="-75.4783845"><ele>46.4</ele><time>2026-04-18T19:11:25.618Z</time></trkpt><trkpt lat="10.2951207" lon="-75.4784009"><ele>46.0</ele><time>2026-04-18T19:11:26.618Z</time></trkpt><trkpt lat="10.2952307" lon="-75.478422"><ele>46.0</ele><time>2026-04-18T19:11:27.615Z</time></trkpt><trkpt lat="10.2953378" lon="-75.4784446"><ele>46.0</ele><time>2026-04-18T19:11:28.616Z</time></trkpt><trkpt lat="10.2954484" lon="-75.4784679"><ele>46.0</ele><time>2026-04-18T19:11:29.617Z</time></trkpt><trkpt lat="10.2955488" lon="-75.4784942"><ele>46.0</ele><time>2026-04-18T19:11:30.619Z</time></trkpt><trkpt lat="10.295652" lon="-75.4785216"><ele>46.0</ele><time>2026-04-18T19:11:31.616Z</time></trkpt><trkpt lat="10.2957551" lon="-75.4785529"><ele>45.0</ele><time>2026-04-18T19:11:32.625Z</time></trkpt><trkpt lat="10.2958545" lon="-75.4785866"><ele>44.0</ele><time>2026-04-18T19:11:33.695Z</time></trkpt><trkpt lat="10.2959542" lon="-75.4786224"><ele>43.0</ele><time>2026-04-18T19:11:34.695Z</time></trkpt><trkpt lat="10.296052" lon="-75.478663"><ele>42.0</ele><time>2026-04-18T19:11:35.616Z</time></trkpt><trkpt lat="10.2961527" lon="-75.4787062"><ele>41.0</ele><time>2026-04-18T19:11:36.62Z</time></trkpt><trkpt lat="10.2962484" lon="-75.4787497"><ele>41.4</ele><time>2026-04-18T19:11:37.62Z</time></trkpt><trkpt lat="10.2963463" lon="-75.4788013"><ele>41.8</ele><time>2026-04-18T19:11:38.695Z</time></trkpt><trkpt lat="10.2964421" lon="-75.478854"><ele>42.199999999999996</ele><time>2026-04-18T19:11:39.695Z</time></trkpt><trkpt lat="10.2965338" lon="-75.4789082"><ele>42.599999999999994</ele><time>2026-04-18T19:11:40.616Z</time></trkpt><trkpt lat="10.2966242" lon="-75.4789659"><ele>43.0</ele><time>2026-04-18T19:11:41.615Z</time></trkpt><trkpt lat="10.2967154" lon="-75.4790253"><ele>43.0</ele><time>2026-04-18T19:11:42.617Z</time></trkpt><trkpt lat="10.296806" lon="-75.4790872"><ele>43.0</ele><time>2026-04-18T19:11:43.62Z</time></trkpt><trkpt lat="10.2968942" lon="-75.4791516"><ele>43.0</ele><time>2026-04-18T19:11:44.614Z</time></trkpt><trkpt lat="10.2969803" lon="-75.479215"><ele>43.0</ele><time>2026-04-18T19:11:45.616Z</time></trkpt><trkpt lat="10.2970698" lon="-75.4792712"><ele>43.0</ele><time>2026-04-18T19:11:46.615Z</time></trkpt><trkpt lat="10.2971589" lon="-75.4793387"><ele>43.0</ele><time>2026-04-18T19:11:47.615Z</time></trkpt><trkpt lat="10.2972513" lon="-75.4794076"><ele>43.0</ele><time>2026-04-18T19:11:48.622Z</time></trkpt><trkpt lat="10.2973387" lon="-75.479467"><ele>43.0</ele><time>2026-04-18T19:11:49.618Z</time></trkpt><trkpt lat="10.2974293" lon="-75.4795346"><ele>43.0</ele><time>2026-04-18T19:11:50.62Z</time></trkpt><trkpt lat="10.2975159" lon="-75.4795995"><ele>43.0</ele><time>2026-04-18T19:11:51.616Z</time></trkpt><trkpt lat="10.2976105" lon="-75.4796699"><ele>43.8</ele><time>2026-04-18T19:11:52.618Z</time></trkpt><trkpt lat="10.2977005" lon="-75.4797376"><ele>44.599999999999994</ele><time>2026-04-18T19:11:53.617Z</time></trkpt><trkpt lat="10.29779" lon="-75.479806"><ele>45.400000000000006</ele><time>2026-04-18T19:11:54.614Z</time></trkpt><trkpt lat="10.2978799" lon="-75.4798683"><ele>46.2</ele><time>2026-04-18T19:11:55.614Z</time></trkpt><trkpt lat="10.2979668" lon="-75.4799307"><ele>47.0</ele><time>2026-04-18T19:11:56.615Z</time></trkpt><trkpt lat="10.2980565" lon="-75.4799974"><ele>45.2</ele><time>2026-04-18T19:11:57.614Z</time></trkpt><trkpt lat="10.2981496" lon="-75.4800622"><ele>43.400000000000006</ele><time>2026-04-18T19:11:58.618Z</time></trkpt><trkpt lat="10.2982371" lon="-75.4801252"><ele>41.599999999999994</ele><time>2026-04-18T19:11:59.615Z</time></trkpt><trkpt lat="10.2983242" lon="-75.4801889"><ele>39.8</ele><time>2026-04-18T19:12:00.617Z</time></trkpt><trkpt lat="10.2984085" lon="-75.4802521"><ele>38.0</ele><time>2026-04-18T19:12:01.614Z</time></trkpt><trkpt lat="10.2984958" lon="-75.4803156"><ele>38.0</ele><time>2026-04-18T19:12:02.616Z</time></trkpt><trkpt lat="10.2985812" lon="-75.4803741"><ele>38.0</ele><time>2026-04-18T19:12:03.621Z</time></trkpt><trkpt lat="10.2986673" lon="-75.4804363"><ele>38.0</ele><time>2026-04-18T19:12:04.617Z</time></trkpt><trkpt lat="10.2987483" lon="-75.4805065"><ele>38.0</ele><time>2026-04-18T19:12:05.618Z</time></trkpt><trkpt lat="10.2988363" lon="-75.4805736"><ele>38.0</ele><time>2026-04-18T19:12:06.696Z</time></trkpt><trkpt lat="10.2989247" lon="-75.4806396"><ele>36.0</ele><time>2026-04-18T19:12:07.62Z</time></trkpt><trkpt lat="10.2990158" lon="-75.480703"><ele>34.0</ele><time>2026-04-18T19:12:08.618Z</time></trkpt><trkpt lat="10.2991111" lon="-75.4807733"><ele>32.0</ele><time>2026-04-18T19:12:09.617Z</time></trkpt><trkpt lat="10.2992046" lon="-75.4808378"><ele>30.0</ele><time>2026-04-18T19:12:10.616Z</time></trkpt><trkpt lat="10.2992998" lon="-75.4809074"><ele>30.0</ele><time>2026-04-18T19:12:11.618Z</time></trkpt><trkpt lat="10.299395" lon="-75.4809756"><ele>30.0</ele><time>2026-04-18T19:12:12.616Z</time></trkpt><trkpt lat="10.2994966" lon="-75.4810442"><ele>30.0</ele><time>2026-04-18T19:12:13.617Z</time></trkpt><trkpt lat="10.2995944" lon="-75.4811161"><ele>30.0</ele><time>2026-04-18T19:12:14.618Z</time></trkpt><trkpt lat="10.2996927" lon="-75.4811884"><ele>29.75</ele><time>2026-04-18T19:12:15.616Z</time></trkpt><trkpt lat="10.2997958" lon="-75.4812589"><ele>29.5</ele><time>2026-04-18T19:12:16.619Z</time></trkpt><trkpt lat="10.2998968" lon="-75.4813317"><ele>29.25</ele><time>2026-04-18T19:12:17.62Z</time></trkpt><trkpt lat="10.3000001" lon="-75.4814059"><ele>29.0</ele><time>2026-04-18T19:12:18.616Z</time></trkpt><trkpt lat="10.3000983" lon="-75.481481"><ele>30.25</ele><time>2026-04-18T19:12:19.619Z</time></trkpt><trkpt lat="10.3001994" lon="-75.4815483"><ele>31.5</ele><time>2026-04-18T19:12:20.617Z</time></trkpt><trkpt lat="10.3003006" lon="-75.4816218"><ele>32.75</ele><time>2026-04-18T19:12:21.668Z</time></trkpt><trkpt lat="10.3004015" lon="-75.4817007"><ele>34.0</ele><time>2026-04-18T19:12:22.619Z</time></trkpt><trkpt lat="10.3005024" lon="-75.4817715"><ele>31.75</ele><time>2026-04-18T19:12:23.616Z</time></trkpt><trkpt lat="10.3006027" lon="-75.4818411"><ele>29.5</ele><time>2026-04-18T19:12:24.617Z</time></trkpt><trkpt lat="10.3007052" lon="-75.4819002"><ele>27.25</ele><time>2026-04-18T19:12:25.615Z</time></trkpt><trkpt lat="10.3008094" lon="-75.4819569"><ele>25.0</ele><time>2026-04-18T19:12:26.616Z</time></trkpt><trkpt lat="10.3009166" lon="-75.482006"><ele>25.0</ele><time>2026-04-18T19:12:27.616Z</time></trkpt><trkpt lat="10.301022" lon="-75.482049"><ele>25.0</ele><time>2026-04-18T19:12:28.611Z</time></trkpt><trkpt lat="10.3011304" lon="-75.4820841"><ele>25.0</ele><time>2026-04-18T19:12:29.612Z</time></trkpt><trkpt lat="10.3012423" lon="-75.4821097"><ele>25.0</ele><time>2026-04-18T19:12:30.614Z</time></trkpt><trkpt lat="10.3013556" lon="-75.4821238"><ele>25.0</ele><time>2026-04-18T19:12:31.614Z</time></trkpt><trkpt lat="10.3014733" lon="-75.4821352"><ele>25.0</ele><time>2026-04-18T19:12:32.615Z</time></trkpt><trkpt lat="10.3015868" lon="-75.4821433"><ele>25.0</ele><time>2026-04-18T19:12:33.617Z</time></trkpt><trkpt lat="10.3017015" lon="-75.4821403"><ele>25.0</ele><time>2026-04-18T19:12:34.615Z</time></trkpt><trkpt lat="10.3018192" lon="-75.4821284"><ele>25.0</ele><time>2026-04-18T19:12:35.617Z</time></trkpt><trkpt lat="10.3019356" lon="-75.4821222"><ele>25.0</ele><time>2026-04-18T19:12:36.62Z</time></trkpt><trkpt lat="10.3020499" lon="-75.4821219"><ele>25.0</ele><time>2026-04-18T19:12:37.622Z</time></trkpt><trkpt lat="10.3021638" lon="-75.4821199"><ele>25.0</ele><time>2026-04-18T19:12:38.616Z</time></trkpt><trkpt lat="10.3022793" lon="-75.4821208"><ele>24.5</ele><time>2026-04-18T19:12:39.62Z</time></trkpt><trkpt lat="10.3023948" lon="-75.4821211"><ele>24.0</ele><time>2026-04-18T19:12:40.62Z</time></trkpt><trkpt lat="10.3025144" lon="-75.4821231"><ele>23.5</ele><time>2026-04-18T19:12:41.615Z</time></trkpt><trkpt lat="10.3026332" lon="-75.4821177"><ele>23.0</ele><time>2026-04-18T19:12:42.616Z</time></trkpt><trkpt lat="10.30275" lon="-75.4821192"><ele>23.0</ele><time>2026-04-18T19:12:43.615Z</time></trkpt><trkpt lat="10.3028715" lon="-75.482116"><ele>23.0</ele><time>2026-04-18T19:12:44.614Z</time></trkpt><trkpt lat="10.3029927" lon="-75.4821123"><ele>23.0</ele><time>2026-04-18T19:12:45.616Z</time></trkpt><trkpt lat="10.3031142" lon="-75.4821057"><ele>23.0</ele><time>2026-04-18T19:12:46.619Z</time></trkpt><trkpt lat="10.3032361" lon="-75.4821057"><ele>23.5</ele><time>2026-04-18T19:12:47.616Z</time></trkpt><trkpt lat="10.3033589" lon="-75.4821033"><ele>24.0</ele><time>2026-04-18T19:12:48.615Z</time></trkpt><trkpt lat="10.3034839" lon="-75.4821005"><ele>24.5</ele><time>2026-04-18T19:12:49.619Z</time></trkpt><trkpt lat="10.3036077" lon="-75.4820984"><ele>25.0</ele><time>2026-04-18T19:12:50.617Z</time></trkpt><trkpt lat="10.3037347" lon="-75.4820968"><ele>25.5</ele><time>2026-04-18T19:12:51.617Z</time></trkpt><trkpt lat="10.3038589" lon="-75.4820902"><ele>26.0</ele><time>2026-04-18T19:12:52.615Z</time></trkpt><trkpt lat="10.3039839" lon="-75.4820845"><ele>26.5</ele><time>2026-04-18T19:12:53.617Z</time></trkpt><trkpt lat="10.3041101" lon="-75.4820794"><ele>27.0</ele><time>2026-04-18T19:12:54.618Z</time></trkpt><trkpt lat="10.3042351" lon="-75.4820736"><ele>27.0</ele><time>2026-04-18T19:12:55.695Z</time></trkpt><trkpt lat="10.3043599" lon="-75.4820711"><ele>27.0</ele><time>2026-04-18T19:12:56.615Z</time></trkpt><trkpt lat="10.3044859" lon="-75.4820695"><ele>27.0</ele><time>2026-04-18T19:12:57.619Z</time></trkpt><trkpt lat="10.3046149" lon="-75.4820713"><ele>27.0</ele><time>2026-04-18T19:12:58.619Z</time></trkpt><trkpt lat="10.3047422" lon="-75.482061"><ele>26.25</ele><time>2026-04-18T19:12:59.615Z</time></trkpt><trkpt lat="10.3048726" lon="-75.4820507"><ele>25.5</ele><time>2026-04-18T19:13:00.621Z</time></trkpt><trkpt lat="10.305001" lon="-75.4820517"><ele>24.75</ele><time>2026-04-18T19:13:01.616Z</time></trkpt><trkpt lat="10.3051244" lon="-75.4820461"><ele>24.0</ele><time>2026-04-18T19:13:02.62Z</time></trkpt><trkpt lat="10.3052469" lon="-75.4820424"><ele>24.0</ele><time>2026-04-18T19:13:03.621Z</time></trkpt><trkpt lat="10.3053726" lon="-75.4820421"><ele>24.0</ele><time>2026-04-18T19:13:04.618Z</time></trkpt><trkpt lat="10.3055002" lon="-75.4820393"><ele>24.0</ele><time>2026-04-18T19:13:05.615Z</time></trkpt><trkpt lat="10.3056235" lon="-75.4820416"><ele>24.0</ele><time>2026-04-18T19:13:06.617Z</time></trkpt><trkpt lat="10.3057476" lon="-75.4820366"><ele>23.25</ele><time>2026-04-18T19:13:07.619Z</time></trkpt><trkpt lat="10.3058689" lon="-75.4820424"><ele>22.5</ele><time>2026-04-18T19:13:08.618Z</time></trkpt><trkpt lat="10.305998" lon="-75.4820358"><ele>21.75</ele><time>2026-04-18T19:13:09.616Z</time></trkpt><trkpt lat="10.3061199" lon="-75.4820372"><ele>21.0</ele><time>2026-04-18T19:13:10.616Z</time></trkpt><trkpt lat="10.3062406" lon="-75.4820308"><ele>21.0</ele><time>2026-04-18T19:13:11.618Z</time></trkpt><trkpt lat="10.306363" lon="-75.4820288"><ele>21.0</ele><time>2026-04-18T19:13:12.622Z</time></trkpt><trkpt lat="10.3064845" lon="-75.4820265"><ele>21.0</ele><time>2026-04-18T19:13:13.619Z</time></trkpt><trkpt lat="10.3066076" lon="-75.4820221"><ele>21.0</ele><time>2026-04-18T19:13:14.62Z</time></trkpt><trkpt lat="10.3067303" lon="-75.4820192"><ele>20.5</ele><time>2026-04-18T19:13:15.619Z</time></trkpt><trkpt lat="10.3068524" lon="-75.4820181"><ele>20.0</ele><time>2026-04-18T19:13:16.616Z</time></trkpt><trkpt lat="10.3069755" lon="-75.4820125"><ele>19.5</ele><time>2026-04-18T19:13:17.619Z</time></trkpt><trkpt lat="10.3070985" lon="-75.482012"><ele>19.0</ele><time>2026-04-18T19:13:18.618Z</time></trkpt><trkpt lat="10.3072197" lon="-75.4820098"><ele>19.75</ele><time>2026-04-18T19:13:19.618Z</time></trkpt><trkpt lat="10.3073441" lon="-75.4820072"><ele>20.5</ele><time>2026-04-18T19:13:20.618Z</time></trkpt><trkpt lat="10.3074706" lon="-75.482002"><ele>21.25</ele><time>2026-04-18T19:13:21.621Z</time></trkpt><trkpt lat="10.3075992" lon="-75.4819953"><ele>22.0</ele><time>2026-04-18T19:13:22.619Z</time></trkpt><trkpt lat="10.3077256" lon="-75.4819794"><ele>22.0</ele><time>2026-04-18T19:13:23.62Z</time></trkpt><trkpt lat="10.307851" lon="-75.481971"><ele>22.0</ele><time>2026-04-18T19:13:24.616Z</time></trkpt><trkpt lat="10.307976" lon="-75.4819549"><ele>22.0</ele><time>2026-04-18T19:13:25.695Z</time></trkpt><trkpt lat="10.3081025" lon="-75.4819468"><ele>22.0</ele><time>2026-04-18T19:13:26.62Z</time></trkpt><trkpt lat="10.3082281" lon="-75.4819364"><ele>22.0</ele><time>2026-04-18T19:13:27.621Z</time></trkpt><trkpt lat="10.3083505" lon="-75.4819199"><ele>22.0</ele><time>2026-04-18T19:13:28.623Z</time></trkpt><trkpt lat="10.3084722" lon="-75.4819113"><ele>22.0</ele><time>2026-04-18T19:13:29.626Z</time></trkpt><trkpt lat="10.3085933" lon="-75.4819083"><ele>22.0</ele><time>2026-04-18T19:13:30.622Z</time></trkpt><trkpt lat="10.3087128" lon="-75.4819048"><ele>22.0</ele><time>2026-04-18T19:13:31.616Z</time></trkpt><trkpt lat="10.3088295" lon="-75.4819018"><ele>22.0</ele><time>2026-04-18T19:13:32.613Z</time></trkpt><trkpt lat="10.3089488" lon="-75.481903"><ele>22.0</ele><time>2026-04-18T19:13:33.615Z</time></trkpt><trkpt lat="10.3090604" lon="-75.4819072"><ele>22.0</ele><time>2026-04-18T19:13:34.615Z</time></trkpt><trkpt lat="10.3091695" lon="-75.481924"><ele>21.6</ele><time>2026-04-18T19:13:35.616Z</time></trkpt><trkpt lat="10.3092732" lon="-75.4819376"><ele>21.200000000000003</ele><time>2026-04-18T19:13:36.617Z</time></trkpt><trkpt lat="10.3093692" lon="-75.4819573"><ele>20.8</ele><time>2026-04-18T19:13:37.616Z</time></trkpt><trkpt lat="10.3094688" lon="-75.4819759"><ele>20.4</ele><time>2026-04-18T19:13:38.622Z</time></trkpt><trkpt lat="10.3095749" lon="-75.4819999"><ele>20.0</ele><time>2026-04-18T19:13:39.622Z</time></trkpt><trkpt lat="10.3096726" lon="-75.4820261"><ele>19.6</ele><time>2026-04-18T19:13:40.619Z</time></trkpt><trkpt lat="10.3097702" lon="-75.4820539"><ele>19.2</ele><time>2026-04-18T19:13:41.618Z</time></trkpt><trkpt lat="10.3098657" lon="-75.4820823"><ele>18.8</ele><time>2026-04-18T19:13:42.618Z</time></trkpt><trkpt lat="10.3099616" lon="-75.482107"><ele>18.4</ele><time>2026-04-18T19:13:43.622Z</time></trkpt><trkpt lat="10.3100549" lon="-75.482132"><ele>18.0</ele><time>2026-04-18T19:13:44.617Z</time></trkpt><trkpt lat="10.3101498" lon="-75.4821496"><ele>17.8</ele><time>2026-04-18T19:13:45.622Z</time></trkpt><trkpt lat="10.3102417" lon="-75.4821612"><ele>17.6</ele><time>2026-04-18T19:13:46.622Z</time></trkpt><trkpt lat="10.3103314" lon="-75.4821711"><ele>17.4</ele><time>2026-04-18T19:13:47.623Z</time></trkpt><trkpt lat="10.3104262" lon="-75.4821812"><ele>17.2</ele><time>2026-04-18T19:13:48.613Z</time></trkpt><trkpt lat="10.3105254" lon="-75.4821896"><ele>17.0</ele><time>2026-04-18T19:13:49.616Z</time></trkpt><trkpt lat="10.3106145" lon="-75.4821891"><ele>17.5</ele><time>2026-04-18T19:13:50.617Z</time></trkpt><trkpt lat="10.3107046" lon="-75.4821884"><ele>18.0</ele><time>2026-04-18T19:13:51.616Z</time></trkpt><trkpt lat="10.3107911" lon="-75.4821892"><ele>18.5</ele><time>2026-04-18T19:13:52.618Z</time></trkpt><trkpt lat="10.310879" lon="-75.4821915"><ele>19.0</ele><time>2026-04-18T19:13:53.613Z</time></trkpt><trkpt lat="10.3109672" lon="-75.4821911"><ele>19.5</ele><time>2026-04-18T19:13:54.619Z</time></trkpt><trkpt lat="10.3110531" lon="-75.482193"><ele>20.0</ele><time>2026-04-18T19:13:55.616Z</time></trkpt><trkpt lat="10.31114" lon="-75.4821924"><ele>20.0</ele><time>2026-04-18T19:13:56.618Z</time></trkpt><trkpt lat="10.311227" lon="-75.4821908"><ele>20.0</ele><time>2026-04-18T19:13:57.622Z</time></trkpt><trkpt lat="10.3113142" lon="-75.4821904"><ele>20.0</ele><time>2026-04-18T19:13:58.621Z</time></trkpt><trkpt lat="10.3114011" lon="-75.4821887"><ele>20.0</ele><time>2026-04-18T19:13:59.624Z</time></trkpt><trkpt lat="10.3114883" lon="-75.4821897"><ele>20.0</ele><time>2026-04-18T19:14:00.626Z</time></trkpt><trkpt lat="10.3115745" lon="-75.4821873"><ele>20.0</ele><time>2026-04-18T19:14:01.618Z</time></trkpt><trkpt lat="10.3116597" lon="-75.4821889"><ele>20.166666666666668</ele><time>2026-04-18T19:14:02.622Z</time></trkpt><trkpt lat="10.3117461" lon="-75.4821871"><ele>20.333333333333336</ele><time>2026-04-18T19:14:03.62Z</time></trkpt><trkpt lat="10.3118313" lon="-75.4821852"><ele>20.5</ele><time>2026-04-18T19:14:04.617Z</time></trkpt><trkpt lat="10.311917" lon="-75.4821843"><ele>20.666666666666668</ele><time>2026-04-18T19:14:05.621Z</time></trkpt><trkpt lat="10.3120016" lon="-75.4821843"><ele>20.833333333333332</ele><time>2026-04-18T19:14:06.618Z</time></trkpt><trkpt lat="10.3120922" lon="-75.482182"><ele>21.0</ele><time>2026-04-18T19:14:07.695Z</time></trkpt><trkpt lat="10.3121817" lon="-75.4821782"><ele>21.0</ele><time>2026-04-18T19:14:08.623Z</time></trkpt><trkpt lat="10.3122707" lon="-75.4821795"><ele>21.0</ele><time>2026-04-18T19:14:09.618Z</time></trkpt><trkpt lat="10.3123563" lon="-75.4821792"><ele>21.0</ele><time>2026-04-18T19:14:10.617Z</time></trkpt><trkpt lat="10.3124384" lon="-75.4821775"><ele>21.0</ele><time>2026-04-18T19:14:11.614Z</time></trkpt><trkpt lat="10.3125306" lon="-75.4821783"><ele>21.0</ele><time>2026-04-18T19:14:12.618Z</time></trkpt><trkpt lat="10.3126173" lon="-75.4821751"><ele>21.0</ele><time>2026-04-18T19:14:13.621Z</time></trkpt><trkpt lat="10.3127013" lon="-75.4821711"><ele>21.0</ele><time>2026-04-18T19:14:14.621Z</time></trkpt><trkpt lat="10.3127834" lon="-75.4821698"><ele>21.0</ele><time>2026-04-18T19:14:15.624Z</time></trkpt><trkpt lat="10.3128614" lon="-75.4821729"><ele>21.0</ele><time>2026-04-18T19:14:16.617Z</time></trkpt><trkpt lat="10.3129439" lon="-75.4821738"><ele>21.0</ele><time>2026-04-18T19:14:17.616Z</time></trkpt><trkpt lat="10.3130241" lon="-75.4821767"><ele>21.0</ele><time>2026-04-18T19:14:18.618Z</time></trkpt><trkpt lat="10.3131056" lon="-75.4821775"><ele>21.0</ele><time>2026-04-18T19:14:19.622Z</time></trkpt><trkpt lat="10.3131914" lon="-75.4821713"><ele>21.166666666666668</ele><time>2026-04-18T19:14:20.617Z</time></trkpt><trkpt lat="10.3132755" lon="-75.4821761"><ele>21.333333333333332</ele><time>2026-04-18T19:14:21.617Z</time></trkpt><trkpt lat="10.3133584" lon="-75.4821757"><ele>21.5</ele><time>2026-04-18T19:14:22.617Z</time></trkpt><trkpt lat="10.313445" lon="-75.4821715"><ele>21.666666666666664</ele><time>2026-04-18T19:14:23.62Z</time></trkpt><trkpt lat="10.3135311" lon="-75.4821717"><ele>21.833333333333332</ele><time>2026-04-18T19:14:24.62Z</time></trkpt><trkpt lat="10.3136224" lon="-75.4821661"><ele>22.0</ele><time>2026-04-18T19:14:25.62Z</time></trkpt><trkpt lat="10.3137107" lon="-75.482165"><ele>22.0</ele><time>2026-04-18T19:14:26.617Z</time></trkpt><trkpt lat="10.3137974" lon="-75.4821644"><ele>22.0</ele><time>2026-04-18T19:14:27.617Z</time></trkpt><trkpt lat="10.313888" lon="-75.4821631"><ele>22.0</ele><time>2026-04-18T19:14:28.621Z</time></trkpt><trkpt lat="10.3139767" lon="-75.4821624"><ele>22.0</ele><time>2026-04-18T19:14:29.62Z</time></trkpt><trkpt lat="10.3140656" lon="-75.4821601"><ele>22.0</ele><time>2026-04-18T19:14:30.618Z</time></trkpt><trkpt lat="10.3141526" lon="-75.4821579"><ele>22.0</ele><time>2026-04-18T19:14:31.62Z</time></trkpt><trkpt lat="10.314238" lon="-75.4821588"><ele>21.666666666666664</ele><time>2026-04-18T19:14:32.621Z</time></trkpt><trkpt lat="10.3143255" lon="-75.4821588"><ele>21.333333333333332</ele><time>2026-04-18T19:14:33.695Z</time></trkpt><trkpt lat="10.3144196" lon="-75.4821575"><ele>21.0</ele><time>2026-04-18T19:14:34.621Z</time></trkpt><trkpt lat="10.3145058" lon="-75.4821569"><ele>20.666666666666668</ele><time>2026-04-18T19:14:35.618Z</time></trkpt><trkpt lat="10.3145938" lon="-75.4821562"><ele>20.333333333333336</ele><time>2026-04-18T19:14:36.617Z</time></trkpt><trkpt lat="10.314682" lon="-75.4821565"><ele>20.0</ele><time>2026-04-18T19:14:37.619Z</time></trkpt><trkpt lat="10.3147686" lon="-75.4821584"><ele>19.833333333333336</ele><time>2026-04-18T19:14:38.619Z</time></trkpt><trkpt lat="10.3148525" lon="-75.4821568"><ele>19.666666666666668</ele><time>2026-04-18T19:14:39.62Z</time></trkpt><trkpt lat="10.3149422" lon="-75.4821573"><ele>19.5</ele><time>2026-04-18T19:14:40.62Z</time></trkpt><trkpt lat="10.3150236" lon="-75.4821613"><ele>19.333333333333332</ele><time>2026-04-18T19:14:41.622Z</time></trkpt><trkpt lat="10.3151065" lon="-75.4821608"><ele>19.166666666666664</ele><time>2026-04-18T19:14:42.619Z</time></trkpt><trkpt lat="10.3151852" lon="-75.4821626"><ele>19.0</ele><time>2026-04-18T19:14:43.621Z</time></trkpt><trkpt lat="10.3152655" lon="-75.4821623"><ele>19.0</ele><time>2026-04-18T19:14:44.619Z</time></trkpt><trkpt lat="10.3153426" lon="-75.4821639"><ele>19.0</ele><time>2026-04-18T19:14:45.621Z</time></trkpt><trkpt lat="10.3154142" lon="-75.4821675"><ele>19.0</ele><time>2026-04-18T19:14:46.617Z</time></trkpt><trkpt lat="10.3154921" lon="-75.4821625"><ele>19.0</ele><time>2026-04-18T19:14:47.62Z</time></trkpt><trkpt lat="10.3155639" lon="-75.4821607"><ele>19.0</ele><time>2026-04-18T19:14:48.623Z</time></trkpt><trkpt lat="10.3156344" lon="-75.4821592"><ele>19.0</ele><time>2026-04-18T19:14:49.621Z</time></trkpt><trkpt lat="10.3157033" lon="-75.4821564"><ele>19.0</ele><time>2026-04-18T19:14:50.619Z</time></trkpt><trkpt lat="10.3158304" lon="-75.4821622"><ele>19.2</ele><time>2026-04-18T19:14:52.62Z</time></trkpt><trkpt lat="10.3158934" lon="-75.4821632"><ele>19.4</ele><time>2026-04-18T19:14:53.615Z</time></trkpt><trkpt lat="10.3159565" lon="-75.4821654"><ele>19.6</ele><time>2026-04-18T19:14:54.619Z</time></trkpt><trkpt lat="10.316077" lon="-75.4821659"><ele>19.8</ele><time>2026-04-18T19:14:56.621Z</time></trkpt><trkpt lat="10.3162024" lon="-75.4821639"><ele>20.0</ele><time>2026-04-18T19:14:58.624Z</time></trkpt><trkpt lat="10.3163256" lon="-75.482161"><ele>19.75</ele><time>2026-04-18T19:15:00.622Z</time></trkpt><trkpt lat="10.3164433" lon="-75.4821616"><ele>19.5</ele><time>2026-04-18T19:15:02.617Z</time></trkpt><trkpt lat="10.3165586" lon="-75.4821627"><ele>19.25</ele><time>2026-04-18T19:15:04.619Z</time></trkpt><trkpt lat="10.3166809" lon="-75.4821566"><ele>19.0</ele><time>2026-04-18T19:15:06.62Z</time></trkpt><trkpt lat="10.3168" lon="-75.4821564"><ele>19.0</ele><time>2026-04-18T19:15:08.616Z</time></trkpt><trkpt lat="10.3168674" lon="-75.4821576"><ele>19.0</ele><time>2026-04-18T19:15:09.618Z</time></trkpt><trkpt lat="10.3169332" lon="-75.4821589"><ele>19.0</ele><time>2026-04-18T19:15:10.62Z</time></trkpt><trkpt lat="10.3170047" lon="-75.4821575"><ele>19.0</ele><time>2026-04-18T19:15:11.62Z</time></trkpt><trkpt lat="10.3170784" lon="-75.4821565"><ele>19.0</ele><time>2026-04-18T19:15:12.624Z</time></trkpt><trkpt lat="10.317149" lon="-75.4821564"><ele>19.0</ele><time>2026-04-18T19:15:13.62Z</time></trkpt><trkpt lat="10.3172219" lon="-75.4821515"><ele>19.0</ele><time>2026-04-18T19:15:14.621Z</time></trkpt><trkpt lat="10.3172975" lon="-75.4821495"><ele>18.833333333333332</ele><time>2026-04-18T19:15:15.62Z</time></trkpt><trkpt lat="10.3173702" lon="-75.4821505"><ele>18.666666666666664</ele><time>2026-04-18T19:15:16.623Z</time></trkpt><trkpt lat="10.3174436" lon="-75.482151"><ele>18.5</ele><time>2026-04-18T19:15:17.619Z</time></trkpt><trkpt lat="10.3175194" lon="-75.4821473"><ele>18.333333333333332</ele><time>2026-04-18T19:15:18.621Z</time></trkpt><trkpt lat="10.3175953" lon="-75.4821475"><ele>18.166666666666668</ele><time>2026-04-18T19:15:19.623Z</time></trkpt><trkpt lat="10.3176688" lon="-75.4821512"><ele>18.0</ele><time>2026-04-18T19:15:20.619Z</time></trkpt><trkpt lat="10.3177561" lon="-75.4821541"><ele>18.0</ele><time>2026-04-18T19:15:21.621Z</time></trkpt><trkpt lat="10.3178355" lon="-75.4821539"><ele>18.0</ele><time>2026-04-18T19:15:22.62Z</time></trkpt><trkpt lat="10.317916" lon="-75.4821539"><ele>18.0</ele><time>2026-04-18T19:15:23.618Z</time></trkpt><trkpt lat="10.3179975" lon="-75.4821545"><ele>18.0</ele><time>2026-04-18T19:15:24.617Z</time></trkpt><trkpt lat="10.3180805" lon="-75.4821538"><ele>18.0</ele><time>2026-04-18T19:15:25.62Z</time></trkpt><trkpt lat="10.3181604" lon="-75.4821543"><ele>18.0</ele><time>2026-04-18T19:15:26.695Z</time></trkpt><trkpt lat="10.3182422" lon="-75.4821588"><ele>18.0</ele><time>2026-04-18T19:15:27.695Z</time></trkpt><trkpt lat="10.318323" lon="-75.4821566"><ele>18.0</ele><time>2026-04-18T19:15:28.62Z</time></trkpt><trkpt lat="10.3184081" lon="-75.4821581"><ele>18.0</ele><time>2026-04-18T19:15:29.695Z</time></trkpt><trkpt lat="10.3184933" lon="-75.4821566"><ele>18.0</ele><time>2026-04-18T19:15:30.688Z</time></trkpt><trkpt lat="10.3185806" lon="-75.4821568"><ele>18.0</ele><time>2026-04-18T19:15:31.62Z</time></trkpt><trkpt lat="10.3186673" lon="-75.4821583"><ele>18.0</ele><time>2026-04-18T19:15:32.621Z</time></trkpt><trkpt lat="10.3187518" lon="-75.4821628"><ele>18.0</ele><time>2026-04-18T19:15:33.695Z</time></trkpt><trkpt lat="10.3188437" lon="-75.4821635"><ele>18.0</ele><time>2026-04-18T19:15:34.622Z</time></trkpt><trkpt lat="10.318934" lon="-75.4821635"><ele>18.0</ele><time>2026-04-18T19:15:35.695Z</time></trkpt><trkpt lat="10.3190262" lon="-75.4821684"><ele>18.0</ele><time>2026-04-18T19:15:36.622Z</time></trkpt><trkpt lat="10.3191195" lon="-75.4821714"><ele>18.0</ele><time>2026-04-18T19:15:37.616Z</time></trkpt><trkpt lat="10.3192157" lon="-75.4821723"><ele>18.0</ele><time>2026-04-18T19:15:38.622Z</time></trkpt><trkpt lat="10.3193096" lon="-75.4821739"><ele>18.0</ele><time>2026-04-18T19:15:39.618Z</time></trkpt><trkpt lat="10.3194149" lon="-75.4821666"><ele>18.0</ele><time>2026-04-18T19:15:40.695Z</time></trkpt><trkpt lat="10.3195095" lon="-75.4821685"><ele>18.0</ele><time>2026-04-18T19:15:41.695Z</time></trkpt><trkpt lat="10.3196009" lon="-75.4821691"><ele>18.0</ele><time>2026-04-18T19:15:42.678Z</time></trkpt><trkpt lat="10.3196913" lon="-75.4821696"><ele>17.8</ele><time>2026-04-18T19:15:43.622Z</time></trkpt><trkpt lat="10.3197792" lon="-75.4821702"><ele>17.6</ele><time>2026-04-18T19:15:44.696Z</time></trkpt><trkpt lat="10.3198714" lon="-75.4821713"><ele>17.4</ele><time>2026-04-18T19:15:45.695Z</time></trkpt><trkpt lat="10.319962" lon="-75.4821728"><ele>17.2</ele><time>2026-04-18T19:15:46.619Z</time></trkpt><trkpt lat="10.3200532" lon="-75.4821709"><ele>17.0</ele><time>2026-04-18T19:15:47.62Z</time></trkpt><trkpt lat="10.3201444" lon="-75.4821722"><ele>17.0</ele><time>2026-04-18T19:15:48.695Z</time></trkpt><trkpt lat="10.3202355" lon="-75.4821708"><ele>17.0</ele><time>2026-04-18T19:15:49.639Z</time></trkpt><trkpt lat="10.3203346" lon="-75.4821744"><ele>17.0</ele><time>2026-04-18T19:15:50.618Z</time></trkpt><trkpt lat="10.3204267" lon="-75.4821739"><ele>17.0</ele><time>2026-04-18T19:15:51.617Z</time></trkpt><trkpt lat="10.3205176" lon="-75.482175"><ele>17.0</ele><time>2026-04-18T19:15:52.618Z</time></trkpt><trkpt lat="10.3206144" lon="-75.4821764"><ele>16.8</ele><time>2026-04-18T19:15:53.695Z</time></trkpt><trkpt lat="10.3207044" lon="-75.4821762"><ele>16.6</ele><time>2026-04-18T19:15:54.616Z</time></trkpt><trkpt lat="10.3207945" lon="-75.4821765"><ele>16.400000000000002</ele><time>2026-04-18T19:15:55.695Z</time></trkpt><trkpt lat="10.3208855" lon="-75.4821755"><ele>16.2</ele><time>2026-04-18T19:15:56.615Z</time></trkpt><trkpt lat="10.3209787" lon="-75.4821746"><ele>16.0</ele><time>2026-04-18T19:15:57.616Z</time></trkpt><trkpt lat="10.3210697" lon="-75.4821757"><ele>16.0</ele><time>2026-04-18T19:15:58.615Z</time></trkpt><trkpt lat="10.3211727" lon="-75.482175"><ele>16.0</ele><time>2026-04-18T19:15:59.617Z</time></trkpt><trkpt lat="10.3212675" lon="-75.482171"><ele>16.0</ele><time>2026-04-18T19:16:00.619Z</time></trkpt><trkpt lat="10.3213603" lon="-75.4821722"><ele>16.0</ele><time>2026-04-18T19:16:01.62Z</time></trkpt><trkpt lat="10.3214513" lon="-75.4821744"><ele>16.0</ele><time>2026-04-18T19:16:02.619Z</time></trkpt><trkpt lat="10.3215401" lon="-75.4821757"><ele>15.833333333333332</ele><time>2026-04-18T19:16:03.619Z</time></trkpt><trkpt lat="10.3216271" lon="-75.482177"><ele>15.666666666666666</ele><time>2026-04-18T19:16:04.622Z</time></trkpt><trkpt lat="10.3217139" lon="-75.4821759"><ele>15.5</ele><time>2026-04-18T19:16:05.695Z</time></trkpt><trkpt lat="10.321801" lon="-75.4821754"><ele>15.333333333333332</ele><time>2026-04-18T19:16:06.616Z</time></trkpt><trkpt lat="10.3218908" lon="-75.4821746"><ele>15.166666666666666</ele><time>2026-04-18T19:16:07.614Z</time></trkpt><trkpt lat="10.3219746" lon="-75.4821741"><ele>15.0</ele><time>2026-04-18T19:16:08.616Z</time></trkpt><trkpt lat="10.3220585" lon="-75.4821721"><ele>15.0</ele><time>2026-04-18T19:16:09.614Z</time></trkpt><trkpt lat="10.3221426" lon="-75.4821705"><ele>15.0</ele><time>2026-04-18T19:16:10.617Z</time></trkpt><trkpt lat="10.3222247" lon="-75.4821713"><ele>15.0</ele><time>2026-04-18T19:16:11.621Z</time></trkpt><trkpt lat="10.3223047" lon="-75.4821706"><ele>15.0</ele><time>2026-04-18T19:16:12.615Z</time></trkpt><trkpt lat="10.3223889" lon="-75.4821669"><ele>15.0</ele><time>2026-04-18T19:16:13.617Z</time></trkpt><trkpt lat="10.3224722" lon="-75.4821681"><ele>15.0</ele><time>2026-04-18T19:16:14.618Z</time></trkpt><trkpt lat="10.3225531" lon="-75.4821661"><ele>15.2</ele><time>2026-04-18T19:16:15.619Z</time></trkpt><trkpt lat="10.3226389" lon="-75.4821671"><ele>15.4</ele><time>2026-04-18T19:16:16.617Z</time></trkpt><trkpt lat="10.3227248" lon="-75.482166"><ele>15.600000000000001</ele><time>2026-04-18T19:16:17.618Z</time></trkpt><trkpt lat="10.322812" lon="-75.4821652"><ele>15.8</ele><time>2026-04-18T19:16:18.615Z</time></trkpt><trkpt lat="10.3228988" lon="-75.4821544"><ele>16.0</ele><time>2026-04-18T19:16:19.621Z</time></trkpt><trkpt lat="10.3230776" lon="-75.4821487"><ele>16.2</ele><time>2026-04-18T19:16:21.643Z</time></trkpt><trkpt lat="10.3231654" lon="-75.482147"><ele>16.400000000000002</ele><time>2026-04-18T19:16:22.62Z</time></trkpt><trkpt lat="10.3232559" lon="-75.4821446"><ele>16.6</ele><time>2026-04-18T19:16:23.624Z</time></trkpt><trkpt lat="10.3233462" lon="-75.4821454"><ele>16.8</ele><time>2026-04-18T19:16:24.617Z</time></trkpt><trkpt lat="10.3234404" lon="-75.4821404"><ele>17.0</ele><time>2026-04-18T19:16:25.614Z</time></trkpt><trkpt lat="10.3235334" lon="-75.4821392"><ele>17.0</ele><time>2026-04-18T19:16:26.617Z</time></trkpt><trkpt lat="10.3236293" lon="-75.4821426"><ele>17.0</ele><time>2026-04-18T19:16:27.614Z</time></trkpt><trkpt lat="10.3237256" lon="-75.4821384"><ele>17.0</ele><time>2026-04-18T19:16:28.617Z</time></trkpt><trkpt lat="10.3238259" lon="-75.482136"><ele>17.0</ele><time>2026-04-18T19:16:29.695Z</time></trkpt><trkpt lat="10.3239206" lon="-75.4821386"><ele>17.0</ele><time>2026-04-18T19:16:30.616Z</time></trkpt><trkpt lat="10.3240126" lon="-75.4821389"><ele>17.166666666666668</ele><time>2026-04-18T19:16:31.618Z</time></trkpt><trkpt lat="10.3241017" lon="-75.4821391"><ele>17.333333333333336</ele><time>2026-04-18T19:16:32.619Z</time></trkpt><trkpt lat="10.3241907" lon="-75.4821394"><ele>17.5</ele><time>2026-04-18T19:16:33.618Z</time></trkpt><trkpt lat="10.3242787" lon="-75.4821414"><ele>17.666666666666668</ele><time>2026-04-18T19:16:34.621Z</time></trkpt><trkpt lat="10.3243653" lon="-75.4821459"><ele>17.833333333333332</ele><time>2026-04-18T19:16:35.617Z</time></trkpt><trkpt lat="10.3244557" lon="-75.4821439"><ele>18.0</ele><time>2026-04-18T19:16:36.695Z</time></trkpt><trkpt lat="10.3245462" lon="-75.4821441"><ele>18.0</ele><time>2026-04-18T19:16:37.622Z</time></trkpt><trkpt lat="10.3246402" lon="-75.4821471"><ele>18.0</ele><time>2026-04-18T19:16:38.619Z</time></trkpt><trkpt lat="10.3247336" lon="-75.4821469"><ele>18.0</ele><time>2026-04-18T19:16:39.617Z</time></trkpt><trkpt lat="10.3248271" lon="-75.4821492"><ele>18.0</ele><time>2026-04-18T19:16:40.695Z</time></trkpt><trkpt lat="10.32492" lon="-75.482153"><ele>18.0</ele><time>2026-04-18T19:16:41.616Z</time></trkpt><trkpt lat="10.325013" lon="-75.4821544"><ele>17.2</ele><time>2026-04-18T19:16:42.615Z</time></trkpt><trkpt lat="10.3251091" lon="-75.4821542"><ele>16.4</ele><time>2026-04-18T19:16:43.62Z</time></trkpt><trkpt lat="10.3252032" lon="-75.4821538"><ele>15.599999999999998</ele><time>2026-04-18T19:16:44.619Z</time></trkpt><trkpt lat="10.3253002" lon="-75.4821512"><ele>14.799999999999999</ele><time>2026-04-18T19:16:45.616Z</time></trkpt><trkpt lat="10.3253922" lon="-75.4821534"><ele>14.0</ele><time>2026-04-18T19:16:46.615Z</time></trkpt><trkpt lat="10.3254841" lon="-75.482157"><ele>14.2</ele><time>2026-04-18T19:16:47.619Z</time></trkpt><trkpt lat="10.3255732" lon="-75.4821592"><ele>14.399999999999999</ele><time>2026-04-18T19:16:48.616Z</time></trkpt><trkpt lat="10.3256625" lon="-75.4821602"><ele>14.6</ele><time>2026-04-18T19:16:49.617Z</time></trkpt><trkpt lat="10.3257544" lon="-75.4821607"><ele>14.8</ele><time>2026-04-18T19:16:50.616Z</time></trkpt><trkpt lat="10.325846" lon="-75.4821636"><ele>15.0</ele><time>2026-04-18T19:16:51.619Z</time></trkpt><trkpt lat="10.3259393" lon="-75.4821602"><ele>15.0</ele><time>2026-04-18T19:16:52.621Z</time></trkpt><trkpt lat="10.326026" lon="-75.4821605"><ele>15.0</ele><time>2026-04-18T19:16:53.619Z</time></trkpt><trkpt lat="10.326114" lon="-75.4821592"><ele>15.0</ele><time>2026-04-18T19:16:54.619Z</time></trkpt><trkpt lat="10.3262055" lon="-75.4821569"><ele>15.0</ele><time>2026-04-18T19:16:55.696Z</time></trkpt><trkpt lat="10.3262977" lon="-75.4821566"><ele>15.0</ele><time>2026-04-18T19:16:56.616Z</time></trkpt><trkpt lat="10.3263908" lon="-75.4821534"><ele>15.4</ele><time>2026-04-18T19:16:57.616Z</time></trkpt><trkpt lat="10.3264876" lon="-75.4821552"><ele>15.8</ele><time>2026-04-18T19:16:58.617Z</time></trkpt><trkpt lat="10.3265829" lon="-75.4821533"><ele>16.2</ele><time>2026-04-18T19:16:59.617Z</time></trkpt><trkpt lat="10.3266824" lon="-75.4821562"><ele>16.6</ele><time>2026-04-18T19:17:00.614Z</time></trkpt><trkpt lat="10.3267822" lon="-75.482153"><ele>17.0</ele><time>2026-04-18T19:17:01.682Z</time></trkpt><trkpt lat="10.3268799" lon="-75.4821501"><ele>17.0</ele><time>2026-04-18T19:17:02.622Z</time></trkpt><trkpt lat="10.3269726" lon="-75.4821503"><ele>17.0</ele><time>2026-04-18T19:17:03.695Z</time></trkpt><trkpt lat="10.3270642" lon="-75.4821506"><ele>17.0</ele><time>2026-04-18T19:17:04.695Z</time></trkpt><trkpt lat="10.3271552" lon="-75.4821482"><ele>17.0</ele><time>2026-04-18T19:17:05.619Z</time></trkpt><trkpt lat="10.3272442" lon="-75.4821509"><ele>17.0</ele><time>2026-04-18T19:17:06.622Z</time></trkpt><trkpt lat="10.3273346" lon="-75.4821511"><ele>17.0</ele><time>2026-04-18T19:17:07.695Z</time></trkpt><trkpt lat="10.3274226" lon="-75.4821501"><ele>17.0</ele><time>2026-04-18T19:17:08.692Z</time></trkpt><trkpt lat="10.3275081" lon="-75.4821499"><ele>17.0</ele><time>2026-04-18T19:17:09.621Z</time></trkpt><trkpt lat="10.3275945" lon="-75.4821473"><ele>17.0</ele><time>2026-04-18T19:17:10.62Z</time></trkpt><trkpt lat="10.3276861" lon="-75.4821445"><ele>17.0</ele><time>2026-04-18T19:17:11.616Z</time></trkpt><trkpt lat="10.3277746" lon="-75.4821447"><ele>17.0</ele><time>2026-04-18T19:17:12.618Z</time></trkpt><trkpt lat="10.3278665" lon="-75.4821423"><ele>17.0</ele><time>2026-04-18T19:17:13.624Z</time></trkpt><trkpt lat="10.3279592" lon="-75.4821386"><ele>17.0</ele><time>2026-04-18T19:17:14.695Z</time></trkpt><trkpt lat="10.3280519" lon="-75.4821383"><ele>17.0</ele><time>2026-04-18T19:17:15.617Z</time></trkpt><trkpt lat="10.3281437" lon="-75.4821382"><ele>17.0</ele><time>2026-04-18T19:17:16.667Z</time></trkpt><trkpt lat="10.328236" lon="-75.482138"><ele>17.0</ele><time>2026-04-18T19:17:17.625Z</time></trkpt><trkpt lat="10.3283362" lon="-75.4821287"><ele>17.0</ele><time>2026-04-18T19:17:18.618Z</time></trkpt><trkpt lat="10.3284314" lon="-75.4821278"><ele>17.0</ele><time>2026-04-18T19:17:19.619Z</time></trkpt><trkpt lat="10.3285243" lon="-75.4821277"><ele>17.0</ele><time>2026-04-18T19:17:20.62Z</time></trkpt><trkpt lat="10.3286155" lon="-75.4821257"><ele>17.0</ele><time>2026-04-18T19:17:21.695Z</time></trkpt><trkpt lat="10.3287056" lon="-75.4821231"><ele>17.0</ele><time>2026-04-18T19:17:22.622Z</time></trkpt><trkpt lat="10.3287929" lon="-75.4821217"><ele>17.0</ele><time>2026-04-18T19:17:23.623Z</time></trkpt><trkpt lat="10.3288795" lon="-75.4821188"><ele>17.0</ele><time>2026-04-18T19:17:24.619Z</time></trkpt><trkpt lat="10.3289687" lon="-75.4821194"><ele>17.0</ele><time>2026-04-18T19:17:25.695Z</time></trkpt><trkpt lat="10.3290544" lon="-75.4821173"><ele>17.0</ele><time>2026-04-18T19:17:26.695Z</time></trkpt><trkpt lat="10.3291383" lon="-75.482119"><ele>17.0</ele><time>2026-04-18T19:17:27.67Z</time></trkpt><trkpt lat="10.3292202" lon="-75.4821151"><ele>17.0</ele><time>2026-04-18T19:17:28.695Z</time></trkpt><trkpt lat="10.3293015" lon="-75.482114"><ele>17.166666666666668</ele><time>2026-04-18T19:17:29.695Z</time></trkpt><trkpt lat="10.3293801" lon="-75.4821126"><ele>17.333333333333336</ele><time>2026-04-18T19:17:30.619Z</time></trkpt><trkpt lat="10.3294569" lon="-75.48211"><ele>17.5</ele><time>2026-04-18T19:17:31.618Z</time></trkpt><trkpt lat="10.3295316" lon="-75.4821101"><ele>17.666666666666668</ele><time>2026-04-18T19:17:32.623Z</time></trkpt><trkpt lat="10.3296065" lon="-75.4821095"><ele>17.833333333333332</ele><time>2026-04-18T19:17:33.622Z</time></trkpt><trkpt lat="10.3296829" lon="-75.4821078"><ele>18.0</ele><time>2026-04-18T19:17:34.695Z</time></trkpt><trkpt lat="10.3297555" lon="-75.4821079"><ele>18.0</ele><time>2026-04-18T19:17:35.696Z</time></trkpt><trkpt lat="10.3298297" lon="-75.4821086"><ele>18.0</ele><time>2026-04-18T19:17:36.695Z</time></trkpt><trkpt lat="10.3299059" lon="-75.4821069"><ele>18.0</ele><time>2026-04-18T19:17:37.619Z</time></trkpt><trkpt lat="10.3299758" lon="-75.4821077"><ele>18.0</ele><time>2026-04-18T19:17:38.695Z</time></trkpt><trkpt lat="10.3300513" lon="-75.482105"><ele>18.0</ele><time>2026-04-18T19:17:39.642Z</time></trkpt><trkpt lat="10.3301332" lon="-75.4821002"><ele>18.0</ele><time>2026-04-18T19:17:40.621Z</time></trkpt><trkpt lat="10.3302193" lon="-75.4820942"><ele>18.166666666666668</ele><time>2026-04-18T19:17:41.618Z</time></trkpt><trkpt lat="10.3302885" lon="-75.4820938"><ele>18.333333333333332</ele><time>2026-04-18T19:17:42.695Z</time></trkpt><trkpt lat="10.3303656" lon="-75.4820926"><ele>18.5</ele><time>2026-04-18T19:17:43.621Z</time></trkpt><trkpt lat="10.3304396" lon="-75.4820939"><ele>18.666666666666664</ele><time>2026-04-18T19:17:44.62Z</time></trkpt><trkpt lat="10.3305242" lon="-75.4820918"><ele>18.833333333333332</ele><time>2026-04-18T19:17:45.616Z</time></trkpt><trkpt lat="10.3306035" lon="-75.4820899"><ele>19.0</ele><time>2026-04-18T19:17:46.62Z</time></trkpt><trkpt lat="10.3306729" lon="-75.4820872"><ele>19.0</ele><time>2026-04-18T19:17:47.619Z</time></trkpt><trkpt lat="10.3307503" lon="-75.4820855"><ele>19.0</ele><time>2026-04-18T19:17:48.62Z</time></trkpt><trkpt lat="10.3308281" lon="-75.4820811"><ele>19.0</ele><time>2026-04-18T19:17:49.619Z</time></trkpt><trkpt lat="10.3309024" lon="-75.482082"><ele>19.0</ele><time>2026-04-18T19:17:50.616Z</time></trkpt><trkpt lat="10.3309757" lon="-75.4820836"><ele>19.0</ele><time>2026-04-18T19:17:51.617Z</time></trkpt><trkpt lat="10.3310428" lon="-75.4820855"><ele>19.0</ele><time>2026-04-18T19:17:52.621Z</time></trkpt><trkpt lat="10.3311137" lon="-75.4820835"><ele>19.0</ele><time>2026-04-18T19:17:53.623Z</time></trkpt><trkpt lat="10.3311805" lon="-75.482082"><ele>19.0</ele><time>2026-04-18T19:17:54.618Z</time></trkpt><trkpt lat="10.3312581" lon="-75.4820885"><ele>19.0</ele><time>2026-04-18T19:17:55.619Z</time></trkpt><trkpt lat="10.3313225" lon="-75.4820897"><ele>19.0</ele><time>2026-04-18T19:17:56.624Z</time></trkpt><trkpt lat="10.3313916" lon="-75.4820928"><ele>19.0</ele><time>2026-04-18T19:17:57.618Z</time></trkpt><trkpt lat="10.3314598" lon="-75.4820976"><ele>19.0</ele><time>2026-04-18T19:17:58.613Z</time></trkpt><trkpt lat="10.3315316" lon="-75.4821094"><ele>19.0</ele><time>2026-04-18T19:17:59.614Z</time></trkpt><trkpt lat="10.3316008" lon="-75.4821153"><ele>19.0</ele><time>2026-04-18T19:18:00.615Z</time></trkpt><trkpt lat="10.3316698" lon="-75.482126"><ele>19.833333333333332</ele><time>2026-04-18T19:18:01.613Z</time></trkpt><trkpt lat="10.331736" lon="-75.4821308"><ele>20.666666666666664</ele><time>2026-04-18T19:18:02.613Z</time></trkpt><trkpt lat="10.3318033" lon="-75.4821374"><ele>21.5</ele><time>2026-04-18T19:18:03.614Z</time></trkpt><trkpt lat="10.3318683" lon="-75.4821392"><ele>22.333333333333332</ele><time>2026-04-18T19:18:04.616Z</time></trkpt><trkpt lat="10.3319343" lon="-75.4821448"><ele>23.166666666666668</ele><time>2026-04-18T19:18:05.616Z</time></trkpt><trkpt lat="10.3319974" lon="-75.4821512"><ele>24.0</ele><time>2026-04-18T19:18:06.615Z</time></trkpt><trkpt lat="10.3321232" lon="-75.4821569"><ele>23.999999999999996</ele><time>2026-04-18T19:18:08.622Z</time></trkpt><trkpt lat="10.3321911" lon="-75.4821628"><ele>24.0</ele><time>2026-04-18T19:18:09.615Z</time></trkpt><trkpt lat="10.3322607" lon="-75.482169"><ele>24.0</ele><time>2026-04-18T19:18:10.615Z</time></trkpt><trkpt lat="10.3323286" lon="-75.4821735"><ele>24.0</ele><time>2026-04-18T19:18:11.696Z</time></trkpt><trkpt lat="10.3323999" lon="-75.4821777"><ele>24.0</ele><time>2026-04-18T19:18:12.62Z</time></trkpt><trkpt lat="10.3324691" lon="-75.482186"><ele>23.999999999999996</ele><time>2026-04-18T19:18:13.617Z</time></trkpt><trkpt lat="10.3325413" lon="-75.4821946"><ele>24.0</ele><time>2026-04-18T19:18:14.657Z</time></trkpt><trkpt lat="10.3326121" lon="-75.4821987"><ele>24.428571428571427</ele><time>2026-04-18T19:18:15.612Z</time></trkpt><trkpt lat="10.3326848" lon="-75.4822055"><ele>24.857142857142858</ele><time>2026-04-18T19:18:16.612Z</time></trkpt><trkpt lat="10.332758" lon="-75.4822094"><ele>25.285714285714285</ele><time>2026-04-18T19:18:17.614Z</time></trkpt><trkpt lat="10.3328329" lon="-75.4822117"><ele>25.714285714285715</ele><time>2026-04-18T19:18:18.695Z</time></trkpt><trkpt lat="10.3329043" lon="-75.4822144"><ele>26.142857142857142</ele><time>2026-04-18T19:18:19.619Z</time></trkpt><trkpt lat="10.3329763" lon="-75.4822165"><ele>26.57142857142857</ele><time>2026-04-18T19:18:20.614Z</time></trkpt><trkpt lat="10.3330496" lon="-75.4822168"><ele>27.0</ele><time>2026-04-18T19:18:21.616Z</time></trkpt><trkpt lat="10.3331259" lon="-75.4822173"><ele>27.0</ele><time>2026-04-18T19:18:22.62Z</time></trkpt><trkpt lat="10.3331984" lon="-75.4822185"><ele>27.0</ele><time>2026-04-18T19:18:23.695Z</time></trkpt><trkpt lat="10.3332707" lon="-75.4822179"><ele>27.0</ele><time>2026-04-18T19:18:24.695Z</time></trkpt><trkpt lat="10.3333452" lon="-75.4822136"><ele>27.0</ele><time>2026-04-18T19:18:25.695Z</time></trkpt><trkpt lat="10.3334183" lon="-75.4822056"><ele>27.0</ele><time>2026-04-18T19:18:26.695Z</time></trkpt><trkpt lat="10.3334974" lon="-75.4821967"><ele>27.0</ele><time>2026-04-18T19:18:27.657Z</time></trkpt><trkpt lat="10.3335732" lon="-75.4821871"><ele>27.0</ele><time>2026-04-18T19:18:28.632Z</time></trkpt><trkpt lat="10.3336465" lon="-75.482186"><ele>27.0</ele><time>2026-04-18T19:18:29.616Z</time></trkpt><trkpt lat="10.3337894" lon="-75.4821784"><ele>27.0</ele><time>2026-04-18T19:18:31.618Z</time></trkpt><trkpt lat="10.3338615" lon="-75.4821732"><ele>27.0</ele><time>2026-04-18T19:18:32.619Z</time></trkpt><trkpt lat="10.3339321" lon="-75.4821703"><ele>27.0</ele><time>2026-04-18T19:18:33.695Z</time></trkpt><trkpt lat="10.3340044" lon="-75.4821677"><ele>27.0</ele><time>2026-04-18T19:18:34.696Z</time></trkpt><trkpt lat="10.3340739" lon="-75.4821669"><ele>27.0</ele><time>2026-04-18T19:18:35.695Z</time></trkpt><trkpt lat="10.3341445" lon="-75.4821638"><ele>27.166666666666668</ele><time>2026-04-18T19:18:36.616Z</time></trkpt><trkpt lat="10.3342168" lon="-75.4821647"><ele>27.333333333333336</ele><time>2026-04-18T19:18:37.627Z</time></trkpt><trkpt lat="10.3342889" lon="-75.4821604"><ele>27.5</ele><time>2026-04-18T19:18:38.619Z</time></trkpt><trkpt lat="10.3343617" lon="-75.4821585"><ele>27.666666666666668</ele><time>2026-04-18T19:18:39.695Z</time></trkpt><trkpt lat="10.3344338" lon="-75.4821596"><ele>27.833333333333336</ele><time>2026-04-18T19:18:40.624Z</time></trkpt><trkpt lat="10.3345773" lon="-75.4821569"><ele>28.0</ele><time>2026-04-18T19:18:42.695Z</time></trkpt><trkpt lat="10.3346476" lon="-75.4821517"><ele>28.0</ele><time>2026-04-18T19:18:43.615Z</time></trkpt><trkpt lat="10.3347177" lon="-75.4821515"><ele>28.0</ele><time>2026-04-18T19:18:44.619Z</time></trkpt><trkpt lat="10.3347874" lon="-75.4821479"><ele>28.0</ele><time>2026-04-18T19:18:45.614Z</time></trkpt><trkpt lat="10.3348575" lon="-75.4821452"><ele>28.0</ele><time>2026-04-18T19:18:46.62Z</time></trkpt><trkpt lat="10.3349253" lon="-75.4821463"><ele>28.0</ele><time>2026-04-18T19:18:47.62Z</time></trkpt><trkpt lat="10.334989" lon="-75.4821473"><ele>28.0</ele><time>2026-04-18T19:18:48.625Z</time></trkpt><trkpt lat="10.3350533" lon="-75.4821468"><ele>28.0</ele><time>2026-04-18T19:18:49.616Z</time></trkpt><trkpt lat="10.3351278" lon="-75.4821469"><ele>27.857142857142858</ele><time>2026-04-18T19:18:50.617Z</time></trkpt><trkpt lat="10.3351909" lon="-75.4821438"><ele>27.714285714285715</ele><time>2026-04-18T19:18:51.658Z</time></trkpt><trkpt lat="10.3352595" lon="-75.4821444"><ele>27.57142857142857</ele><time>2026-04-18T19:18:52.62Z</time></trkpt><trkpt lat="10.3353258" lon="-75.4821415"><ele>27.42857142857143</ele><time>2026-04-18T19:18:53.617Z</time></trkpt><trkpt lat="10.3353924" lon="-75.4821402"><ele>27.285714285714285</ele><time>2026-04-18T19:18:54.615Z</time></trkpt><trkpt lat="10.3354593" lon="-75.4821381"><ele>27.142857142857142</ele><time>2026-04-18T19:18:55.618Z</time></trkpt><trkpt lat="10.3355302" lon="-75.4821417"><ele>27.0</ele><time>2026-04-18T19:18:56.619Z</time></trkpt><trkpt lat="10.3356044" lon="-75.4821412"><ele>27.0</ele><time>2026-04-18T19:18:57.614Z</time></trkpt><trkpt lat="10.3356743" lon="-75.4821394"><ele>27.0</ele><time>2026-04-18T19:18:58.695Z</time></trkpt><trkpt lat="10.3357469" lon="-75.4821437"><ele>27.0</ele><time>2026-04-18T19:18:59.624Z</time></trkpt><trkpt lat="10.33582" lon="-75.4821463"><ele>27.0</ele><time>2026-04-18T19:19:00.695Z</time></trkpt><trkpt lat="10.3358905" lon="-75.4821514"><ele>27.0</ele><time>2026-04-18T19:19:01.695Z</time></trkpt><trkpt lat="10.335968" lon="-75.4821539"><ele>27.0</ele><time>2026-04-18T19:19:02.619Z</time></trkpt><trkpt lat="10.3360446" lon="-75.4821581"><ele>27.0</ele><time>2026-04-18T19:19:03.616Z</time></trkpt><trkpt lat="10.3361328" lon="-75.4821518"><ele>27.0</ele><time>2026-04-18T19:19:04.617Z</time></trkpt><trkpt lat="10.3362128" lon="-75.4821558"><ele>27.0</ele><time>2026-04-18T19:19:05.619Z</time></trkpt><trkpt lat="10.3363024" lon="-75.4821526"><ele>27.0</ele><time>2026-04-18T19:19:06.618Z</time></trkpt><trkpt lat="10.3363882" lon="-75.4821619"><ele>27.0</ele><time>2026-04-18T19:19:07.62Z</time></trkpt><trkpt lat="10.3364763" lon="-75.4821735"><ele>27.0</ele><time>2026-04-18T19:19:08.696Z</time></trkpt><trkpt lat="10.3365717" lon="-75.4821836"><ele>27.0</ele><time>2026-04-18T19:19:09.622Z</time></trkpt><trkpt lat="10.3366629" lon="-75.4822025"><ele>25.6</ele><time>2026-04-18T19:19:10.619Z</time></trkpt><trkpt lat="10.3367588" lon="-75.482206"><ele>24.200000000000003</ele><time>2026-04-18T19:19:11.621Z</time></trkpt><trkpt lat="10.3368556" lon="-75.4822126"><ele>22.8</ele><time>2026-04-18T19:19:12.62Z</time></trkpt><trkpt lat="10.3369475" lon="-75.4822304"><ele>21.4</ele><time>2026-04-18T19:19:13.622Z</time></trkpt><trkpt lat="10.3370401" lon="-75.4822515"><ele>20.0</ele><time>2026-04-18T19:19:14.62Z</time></trkpt><trkpt lat="10.3371324" lon="-75.4822751"><ele>19.8</ele><time>2026-04-18T19:19:15.62Z</time></trkpt><trkpt lat="10.3372274" lon="-75.4822919"><ele>19.6</ele><time>2026-04-18T19:19:16.62Z</time></trkpt><trkpt lat="10.3373207" lon="-75.4823206"><ele>19.4</ele><time>2026-04-18T19:19:17.621Z</time></trkpt><trkpt lat="10.3374142" lon="-75.4823479"><ele>19.2</ele><time>2026-04-18T19:19:18.618Z</time></trkpt><trkpt lat="10.3375054" lon="-75.4823791"><ele>19.0</ele><time>2026-04-18T19:19:19.619Z</time></trkpt><trkpt lat="10.3375993" lon="-75.4824084"><ele>19.0</ele><time>2026-04-18T19:19:20.625Z</time></trkpt><trkpt lat="10.3376924" lon="-75.4824386"><ele>19.0</ele><time>2026-04-18T19:19:21.619Z</time></trkpt><trkpt lat="10.3377846" lon="-75.4824658"><ele>19.0</ele><time>2026-04-18T19:19:22.621Z</time></trkpt><trkpt lat="10.3378799" lon="-75.4824993"><ele>19.0</ele><time>2026-04-18T19:19:23.619Z</time></trkpt><trkpt lat="10.3379705" lon="-75.4825349"><ele>19.0</ele><time>2026-04-18T19:19:24.622Z</time></trkpt><trkpt lat="10.3380606" lon="-75.4825774"><ele>19.0</ele><time>2026-04-18T19:19:25.616Z</time></trkpt><trkpt lat="10.3381522" lon="-75.4826181"><ele>19.0</ele><time>2026-04-18T19:19:26.621Z</time></trkpt><trkpt lat="10.3382496" lon="-75.482661"><ele>19.0</ele><time>2026-04-18T19:19:27.622Z</time></trkpt><trkpt lat="10.3383413" lon="-75.4827037"><ele>19.0</ele><time>2026-04-18T19:19:28.62Z</time></trkpt><trkpt lat="10.3384305" lon="-75.482748"><ele>19.0</ele><time>2026-04-18T19:19:29.623Z</time></trkpt><trkpt lat="10.3385183" lon="-75.4827945"><ele>19.0</ele><time>2026-04-18T19:19:30.617Z</time></trkpt><trkpt lat="10.3386046" lon="-75.4828478"><ele>19.0</ele><time>2026-04-18T19:19:31.622Z</time></trkpt><trkpt lat="10.3386898" lon="-75.4828928"><ele>19.0</ele><time>2026-04-18T19:19:32.624Z</time></trkpt><trkpt lat="10.338774" lon="-75.4829409"><ele>19.0</ele><time>2026-04-18T19:19:33.619Z</time></trkpt><trkpt lat="10.3388609" lon="-75.4829909"><ele>19.0</ele><time>2026-04-18T19:19:34.619Z</time></trkpt><trkpt lat="10.3389478" lon="-75.4830366"><ele>18.0</ele><time>2026-04-18T19:19:35.621Z</time></trkpt><trkpt lat="10.3390288" lon="-75.4830843"><ele>17.0</ele><time>2026-04-18T19:19:36.616Z</time></trkpt><trkpt lat="10.3391097" lon="-75.4831274"><ele>15.999999999999998</ele><time>2026-04-18T19:19:37.62Z</time></trkpt><trkpt lat="10.3391883" lon="-75.4831763"><ele>15.0</ele><time>2026-04-18T19:19:38.623Z</time></trkpt><trkpt lat="10.3392841" lon="-75.4832201"><ele>14.0</ele><time>2026-04-18T19:19:39.622Z</time></trkpt><trkpt lat="10.3393682" lon="-75.4832628"><ele>14.0</ele><time>2026-04-18T19:19:40.621Z</time></trkpt><trkpt lat="10.3394499" lon="-75.483306"><ele>13.999999999999998</ele><time>2026-04-18T19:19:41.618Z</time></trkpt><trkpt lat="10.3395385" lon="-75.483347"><ele>13.999999999999998</ele><time>2026-04-18T19:19:42.622Z</time></trkpt><trkpt lat="10.3396233" lon="-75.4833908"><ele>14.0</ele><time>2026-04-18T19:19:43.622Z</time></trkpt><trkpt lat="10.3397072" lon="-75.4834362"><ele>14.0</ele><time>2026-04-18T19:19:44.623Z</time></trkpt><trkpt lat="10.3397904" lon="-75.4834789"><ele>13.799999999999999</ele><time>2026-04-18T19:19:45.619Z</time></trkpt><trkpt lat="10.3398759" lon="-75.4835236"><ele>13.599999999999998</ele><time>2026-04-18T19:19:46.623Z</time></trkpt><trkpt lat="10.3399566" lon="-75.483566"><ele>13.4</ele><time>2026-04-18T19:19:47.619Z</time></trkpt><trkpt lat="10.3400388" lon="-75.4836102"><ele>13.2</ele><time>2026-04-18T19:19:48.618Z</time></trkpt><trkpt lat="10.3401168" lon="-75.4836505"><ele>13.0</ele><time>2026-04-18T19:19:49.619Z</time></trkpt><trkpt lat="10.3401936" lon="-75.4836907"><ele>12.999999999999998</ele><time>2026-04-18T19:19:50.622Z</time></trkpt><trkpt lat="10.3402701" lon="-75.4837312"><ele>13.0</ele><time>2026-04-18T19:19:51.624Z</time></trkpt><trkpt lat="10.3403452" lon="-75.483774"><ele>13.0</ele><time>2026-04-18T19:19:52.621Z</time></trkpt><trkpt lat="10.340425" lon="-75.4838093"><ele>13.0</ele><time>2026-04-18T19:19:53.619Z</time></trkpt><trkpt lat="10.3405001" lon="-75.4838474"><ele>12.999999999999998</ele><time>2026-04-18T19:19:54.617Z</time></trkpt><trkpt lat="10.3405753" lon="-75.4838849"><ele>13.0</ele><time>2026-04-18T19:19:55.62Z</time></trkpt><trkpt lat="10.3406484" lon="-75.4839217"><ele>12.499999999999998</ele><time>2026-04-18T19:19:56.617Z</time></trkpt><trkpt lat="10.3407186" lon="-75.4839632"><ele>12.0</ele><time>2026-04-18T19:19:57.612Z</time></trkpt><trkpt lat="10.3407975" lon="-75.4840039"><ele>11.5</ele><time>2026-04-18T19:19:58.615Z</time></trkpt><trkpt lat="10.3408698" lon="-75.4840417"><ele>11.0</ele><time>2026-04-18T19:19:59.617Z</time></trkpt><trkpt lat="10.3409483" lon="-75.4840774"><ele>10.5</ele><time>2026-04-18T19:20:00.616Z</time></trkpt><trkpt lat="10.341019" lon="-75.4841147"><ele>10.0</ele><time>2026-04-18T19:20:01.614Z</time></trkpt><trkpt lat="10.3410922" lon="-75.4841564"><ele>10.0</ele><time>2026-04-18T19:20:02.616Z</time></trkpt><trkpt lat="10.3411647" lon="-75.4841925"><ele>10.0</ele><time>2026-04-18T19:20:03.62Z</time></trkpt><trkpt lat="10.3412352" lon="-75.48423"><ele>10.0</ele><time>2026-04-18T19:20:04.618Z</time></trkpt><trkpt lat="10.341305" lon="-75.4842653"><ele>10.0</ele><time>2026-04-18T19:20:05.62Z</time></trkpt><trkpt lat="10.3413714" lon="-75.4842979"><ele>10.0</ele><time>2026-04-18T19:20:06.618Z</time></trkpt><trkpt lat="10.3414342" lon="-75.4843317"><ele>10.0</ele><time>2026-04-18T19:20:07.618Z</time></trkpt><trkpt lat="10.341499" lon="-75.4843672"><ele>9.833333333333334</ele><time>2026-04-18T19:20:08.623Z</time></trkpt><trkpt lat="10.3415648" lon="-75.4844029"><ele>9.666666666666668</ele><time>2026-04-18T19:20:09.621Z</time></trkpt><trkpt lat="10.3416333" lon="-75.4844391"><ele>9.5</ele><time>2026-04-18T19:20:10.696Z</time></trkpt><trkpt lat="10.3417027" lon="-75.4844706"><ele>9.333333333333334</ele><time>2026-04-18T19:20:11.695Z</time></trkpt><trkpt lat="10.3417708" lon="-75.4845044"><ele>9.166666666666666</ele><time>2026-04-18T19:20:12.646Z</time></trkpt><trkpt lat="10.3418393" lon="-75.484538"><ele>9.0</ele><time>2026-04-18T19:20:13.618Z</time></trkpt><trkpt lat="10.341905" lon="-75.484573"><ele>9.000000000000002</ele><time>2026-04-18T19:20:14.619Z</time></trkpt><trkpt lat="10.3419687" lon="-75.4846121"><ele>9.0</ele><time>2026-04-18T19:20:15.62Z</time></trkpt><trkpt lat="10.3420356" lon="-75.484644"><ele>9.0</ele><time>2026-04-18T19:20:16.615Z</time></trkpt><trkpt lat="10.3420981" lon="-75.4846793"><ele>9.0</ele><time>2026-04-18T19:20:17.613Z</time></trkpt><trkpt lat="10.3421647" lon="-75.4847133"><ele>9.0</ele><time>2026-04-18T19:20:18.613Z</time></trkpt><trkpt lat="10.3422286" lon="-75.4847448"><ele>9.000000000000002</ele><time>2026-04-18T19:20:19.617Z</time></trkpt><trkpt lat="10.3422887" lon="-75.4847747"><ele>9.0</ele><time>2026-04-18T19:20:20.615Z</time></trkpt><trkpt lat="10.3423536" lon="-75.4848067"><ele>9.0</ele><time>2026-04-18T19:20:21.695Z</time></trkpt><trkpt lat="10.3424176" lon="-75.4848321"><ele>9.0</ele><time>2026-04-18T19:20:22.636Z</time></trkpt><trkpt lat="10.3424788" lon="-75.4848529"><ele>9.0</ele><time>2026-04-18T19:20:23.695Z</time></trkpt><trkpt lat="10.3425428" lon="-75.4848704"><ele>9.0</ele><time>2026-04-18T19:20:24.695Z</time></trkpt><trkpt lat="10.3426604" lon="-75.4848939"><ele>9.0</ele><time>2026-04-18T19:20:26.615Z</time></trkpt><trkpt lat="10.3427862" lon="-75.4848963"><ele>9.0</ele><time>2026-04-18T19:20:28.695Z</time></trkpt><trkpt lat="10.3429054" lon="-75.484895"><ele>9.0</ele><time>2026-04-18T19:20:30.619Z</time></trkpt><trkpt lat="10.3430174" lon="-75.4848834"><ele>9.0</ele><time>2026-04-18T19:20:32.63Z</time></trkpt><trkpt lat="10.3431355" lon="-75.4848715"><ele>9.0</ele><time>2026-04-18T19:20:34.618Z</time></trkpt><trkpt lat="10.3432554" lon="-75.4848736"><ele>9.0</ele><time>2026-04-18T19:20:36.615Z</time></trkpt><trkpt lat="10.3433201" lon="-75.4848795"><ele>9.0</ele><time>2026-04-18T19:20:37.615Z</time></trkpt><trkpt lat="10.3433872" lon="-75.4848843"><ele>8.571428571428573</ele><time>2026-04-18T19:20:38.611Z</time></trkpt><trkpt lat="10.3434526" lon="-75.4848932"><ele>8.142857142857142</ele><time>2026-04-18T19:20:39.611Z</time></trkpt><trkpt lat="10.3435195" lon="-75.4849077"><ele>7.714285714285714</ele><time>2026-04-18T19:20:40.613Z</time></trkpt><trkpt lat="10.3435852" lon="-75.4849222"><ele>7.2857142857142865</ele><time>2026-04-18T19:20:41.615Z</time></trkpt><trkpt lat="10.3436528" lon="-75.4849372"><ele>6.857142857142858</ele><time>2026-04-18T19:20:42.612Z</time></trkpt><trkpt lat="10.3437216" lon="-75.48496"><ele>6.428571428571428</ele><time>2026-04-18T19:20:43.613Z</time></trkpt><trkpt lat="10.343788" lon="-75.4849893"><ele>6.0</ele><time>2026-04-18T19:20:44.612Z</time></trkpt><trkpt lat="10.3438482" lon="-75.485026"><ele>5.999999999999999</ele><time>2026-04-18T19:20:45.613Z</time></trkpt><trkpt lat="10.3439079" lon="-75.4850697"><ele>6.0</ele><time>2026-04-18T19:20:46.614Z</time></trkpt><trkpt lat="10.3439615" lon="-75.4851155"><ele>6.0</ele><time>2026-04-18T19:20:47.614Z</time></trkpt><trkpt lat="10.344013" lon="-75.4851738"><ele>6.0</ele><time>2026-04-18T19:20:48.62Z</time></trkpt><trkpt lat="10.3440577" lon="-75.4852368"><ele>6.0</ele><time>2026-04-18T19:20:49.62Z</time></trkpt><trkpt lat="10.3440927" lon="-75.4853037"><ele>5.999999999999999</ele><time>2026-04-18T19:20:50.615Z</time></trkpt><trkpt lat="10.3441202" lon="-75.4853741"><ele>6.0</ele><time>2026-04-18T19:20:51.659Z</time></trkpt><trkpt lat="10.3441429" lon="-75.4854458"><ele>5.999999999999999</ele><time>2026-04-18T19:20:52.618Z</time></trkpt><trkpt lat="10.344159" lon="-75.4855191"><ele>6.0</ele><time>2026-04-18T19:20:53.612Z</time></trkpt><trkpt lat="10.3441657" lon="-75.4855929"><ele>6.0</ele><time>2026-04-18T19:20:54.614Z</time></trkpt><trkpt lat="10.344159" lon="-75.4856632"><ele>6.0</ele><time>2026-04-18T19:20:55.621Z</time></trkpt><trkpt lat="10.3441499" lon="-75.4857348"><ele>6.0</ele><time>2026-04-18T19:20:56.621Z</time></trkpt><trkpt lat="10.3441339" lon="-75.4858057"><ele>5.999999999999999</ele><time>2026-04-18T19:20:57.614Z</time></trkpt><trkpt lat="10.3441112" lon="-75.4858709"><ele>6.0</ele><time>2026-04-18T19:20:58.615Z</time></trkpt><trkpt lat="10.3440826" lon="-75.4859321"><ele>6.0</ele><time>2026-04-18T19:20:59.614Z</time></trkpt><trkpt lat="10.3440514" lon="-75.4859882"><ele>6.0</ele><time>2026-04-18T19:21:00.616Z</time></trkpt><trkpt lat="10.3439845" lon="-75.4860895"><ele>6.0</ele><time>2026-04-18T19:21:02.621Z</time></trkpt><trkpt lat="10.3439069" lon="-75.4861848"><ele>6.0</ele><time>2026-04-18T19:21:04.62Z</time></trkpt><trkpt lat="10.3438137" lon="-75.4862721"><ele>6.0</ele><time>2026-04-18T19:21:06.619Z</time></trkpt><trkpt lat="10.3437198" lon="-75.4863528"><ele>7.0</ele><time>2026-04-18T19:21:08.616Z</time></trkpt><trkpt lat="10.3436392" lon="-75.4864453"><ele>8.0</ele><time>2026-04-18T19:21:10.62Z</time></trkpt><trkpt lat="10.3435714" lon="-75.4865448"><ele>9.0</ele><time>2026-04-18T19:21:12.615Z</time></trkpt><trkpt lat="10.3435109" lon="-75.4866524"><ele>10.0</ele><time>2026-04-18T19:21:14.619Z</time></trkpt><trkpt lat="10.3434623" lon="-75.486756"><ele>10.0</ele><time>2026-04-18T19:21:16.621Z</time></trkpt><trkpt lat="10.3434092" lon="-75.486872"><ele>10.0</ele><time>2026-04-18T19:21:18.618Z</time></trkpt><trkpt lat="10.3433858" lon="-75.4869316"><ele>10.0</ele><time>2026-04-18T19:21:19.621Z</time></trkpt><trkpt lat="10.3433323" lon="-75.4870454"><ele>10.0</ele><time>2026-04-18T19:21:21.618Z</time></trkpt><trkpt lat="10.3433055" lon="-75.4871049"><ele>10.0</ele><time>2026-04-18T19:21:22.62Z</time></trkpt><trkpt lat="10.3432822" lon="-75.4871693"><ele>10.0</ele><time>2026-04-18T19:21:23.62Z</time></trkpt><trkpt lat="10.3432595" lon="-75.4872338"><ele>9.666666666666668</ele><time>2026-04-18T19:21:24.617Z</time></trkpt><trkpt lat="10.3432333" lon="-75.4873008"><ele>9.333333333333334</ele><time>2026-04-18T19:21:25.622Z</time></trkpt><trkpt lat="10.3432075" lon="-75.487367"><ele>9.0</ele><time>2026-04-18T19:21:26.618Z</time></trkpt><trkpt lat="10.3431802" lon="-75.4874278"><ele>8.666666666666666</ele><time>2026-04-18T19:21:27.62Z</time></trkpt><trkpt lat="10.343155" lon="-75.4874926"><ele>8.333333333333332</ele><time>2026-04-18T19:21:28.618Z</time></trkpt><trkpt lat="10.3431152" lon="-75.4876144"><ele>8.0</ele><time>2026-04-18T19:21:30.615Z</time></trkpt><trkpt lat="10.3430916" lon="-75.4876749"><ele>8.0</ele><time>2026-04-18T19:21:31.617Z</time></trkpt><trkpt lat="10.3430679" lon="-75.4877345"><ele>8.0</ele><time>2026-04-18T19:21:32.618Z</time></trkpt><trkpt lat="10.3430225" lon="-75.4878498"><ele>8.0</ele><time>2026-04-18T19:21:34.618Z</time></trkpt><trkpt lat="10.342985" lon="-75.4879725"><ele>8.0</ele><time>2026-04-18T19:21:36.619Z</time></trkpt><trkpt lat="10.3429623" lon="-75.4880361"><ele>8.0</ele><time>2026-04-18T19:21:37.622Z</time></trkpt><trkpt lat="10.3429391" lon="-75.4881062"><ele>8.142857142857142</ele><time>2026-04-18T19:21:38.695Z</time></trkpt><trkpt lat="10.3429203" lon="-75.4881695"><ele>8.285714285714285</ele><time>2026-04-18T19:21:39.695Z</time></trkpt><trkpt lat="10.3428992" lon="-75.4882394"><ele>8.428571428571429</ele><time>2026-04-18T19:21:40.623Z</time></trkpt><trkpt lat="10.3428778" lon="-75.4883212"><ele>8.571428571428571</ele><time>2026-04-18T19:21:41.695Z</time></trkpt><trkpt lat="10.3428559" lon="-75.4883908"><ele>8.714285714285715</ele><time>2026-04-18T19:21:42.621Z</time></trkpt><trkpt lat="10.3428392" lon="-75.4884603"><ele>8.857142857142858</ele><time>2026-04-18T19:21:43.696Z</time></trkpt><trkpt lat="10.3428203" lon="-75.4885298"><ele>9.0</ele><time>2026-04-18T19:21:44.695Z</time></trkpt><trkpt lat="10.3428041" lon="-75.4885972"><ele>9.0</ele><time>2026-04-18T19:21:45.695Z</time></trkpt><trkpt lat="10.3427912" lon="-75.4886659"><ele>9.0</ele><time>2026-04-18T19:21:46.619Z</time></trkpt><trkpt lat="10.3427743" lon="-75.4887331"><ele>9.0</ele><time>2026-04-18T19:21:47.617Z</time></trkpt><trkpt lat="10.3427544" lon="-75.4888016"><ele>9.0</ele><time>2026-04-18T19:21:48.695Z</time></trkpt><trkpt lat="10.3427385" lon="-75.4888662"><ele>9.0</ele><time>2026-04-18T19:21:49.695Z</time></trkpt><trkpt lat="10.3427224" lon="-75.4889324"><ele>9.0</ele><time>2026-04-18T19:21:50.695Z</time></trkpt><trkpt lat="10.3426914" lon="-75.4890533"><ele>9.25</ele><time>2026-04-18T19:21:52.618Z</time></trkpt><trkpt lat="10.3426641" lon="-75.4891752"><ele>9.5</ele><time>2026-04-18T19:21:54.695Z</time></trkpt><trkpt lat="10.3426463" lon="-75.4893016"><ele>9.75</ele><time>2026-04-18T19:21:56.617Z</time></trkpt><trkpt lat="10.3426183" lon="-75.4894219"><ele>10.0</ele><time>2026-04-18T19:21:58.62Z</time></trkpt><trkpt lat="10.3425922" lon="-75.4895446"><ele>9.833333333333334</ele><time>2026-04-18T19:22:00.617Z</time></trkpt><trkpt lat="10.3425796" lon="-75.4896076"><ele>9.666666666666668</ele><time>2026-04-18T19:22:01.695Z</time></trkpt><trkpt lat="10.3425639" lon="-75.4896748"><ele>9.5</ele><time>2026-04-18T19:22:02.62Z</time></trkpt><trkpt lat="10.3425535" lon="-75.4897459"><ele>9.333333333333334</ele><time>2026-04-18T19:22:03.695Z</time></trkpt><trkpt lat="10.3425345" lon="-75.4898774"><ele>9.166666666666666</ele><time>2026-04-18T19:22:05.695Z</time></trkpt><trkpt lat="10.3425272" lon="-75.4899459"><ele>9.0</ele><time>2026-04-18T19:22:06.616Z</time></trkpt><trkpt lat="10.3425208" lon="-75.4900117"><ele>9.0</ele><time>2026-04-18T19:22:07.618Z</time></trkpt><trkpt lat="10.3425155" lon="-75.4901399"><ele>9.0</ele><time>2026-04-18T19:22:09.696Z</time></trkpt><trkpt lat="10.3425165" lon="-75.490208"><ele>9.0</ele><time>2026-04-18T19:22:10.618Z</time></trkpt><trkpt lat="10.3425098" lon="-75.4903294"><ele>9.0</ele><time>2026-04-18T19:22:12.695Z</time></trkpt><trkpt lat="10.3425024" lon="-75.4904309"><ele>9.0</ele><time>2026-04-18T19:22:14.695Z</time></trkpt><trkpt lat="10.342516" lon="-75.4905319"><ele>9.2</ele><time>2026-04-18T19:22:16.616Z</time></trkpt><trkpt lat="10.3425218" lon="-75.490643"><ele>9.4</ele><time>2026-04-18T19:22:18.695Z</time></trkpt><trkpt lat="10.3425216" lon="-75.4907599"><ele>9.6</ele><time>2026-04-18T19:22:20.615Z</time></trkpt><trkpt lat="10.3425218" lon="-75.490885"><ele>9.8</ele><time>2026-04-18T19:22:22.617Z</time></trkpt><trkpt lat="10.3425184" lon="-75.4909526"><ele>10.0</ele><time>2026-04-18T19:22:23.695Z</time></trkpt><trkpt lat="10.3425199" lon="-75.4910189"><ele>10.0</ele><time>2026-04-18T19:22:24.619Z</time></trkpt><trkpt lat="10.3425203" lon="-75.4910879"><ele>10.0</ele><time>2026-04-18T19:22:25.618Z</time></trkpt><trkpt lat="10.3425219" lon="-75.491157"><ele>10.0</ele><time>2026-04-18T19:22:26.619Z</time></trkpt><trkpt lat="10.3425236" lon="-75.4912272"><ele>10.0</ele><time>2026-04-18T19:22:27.618Z</time></trkpt><trkpt lat="10.3425267" lon="-75.491298"><ele>10.0</ele><time>2026-04-18T19:22:28.695Z</time></trkpt><trkpt lat="10.3425288" lon="-75.4913714"><ele>10.0</ele><time>2026-04-18T19:22:29.695Z</time></trkpt><trkpt lat="10.3425263" lon="-75.491442"><ele>10.0</ele><time>2026-04-18T19:22:30.695Z</time></trkpt><trkpt lat="10.3425274" lon="-75.4915125"><ele>9.571428571428571</ele><time>2026-04-18T19:22:31.695Z</time></trkpt><trkpt lat="10.3425289" lon="-75.4915854"><ele>9.142857142857142</ele><time>2026-04-18T19:22:32.62Z</time></trkpt><trkpt lat="10.3425299" lon="-75.4916601"><ele>8.714285714285715</ele><time>2026-04-18T19:22:33.62Z</time></trkpt><trkpt lat="10.3425287" lon="-75.4917371"><ele>8.285714285714285</ele><time>2026-04-18T19:22:34.696Z</time></trkpt><trkpt lat="10.3425278" lon="-75.4918084"><ele>7.857142857142858</ele><time>2026-04-18T19:22:35.695Z</time></trkpt><trkpt lat="10.3425239" lon="-75.4918805"><ele>7.428571428571429</ele><time>2026-04-18T19:22:36.695Z</time></trkpt><trkpt lat="10.3425243" lon="-75.491952"><ele>7.0</ele><time>2026-04-18T19:22:37.647Z</time></trkpt><trkpt lat="10.3425229" lon="-75.4920212"><ele>7.0</ele><time>2026-04-18T19:22:38.615Z</time></trkpt><trkpt lat="10.3425234" lon="-75.4920879"><ele>7.0</ele><time>2026-04-18T19:22:39.618Z</time></trkpt><trkpt lat="10.3425221" lon="-75.4921537"><ele>7.0</ele><time>2026-04-18T19:22:40.695Z</time></trkpt><trkpt lat="10.3425216" lon="-75.4922194"><ele>7.0</ele><time>2026-04-18T19:22:41.618Z</time></trkpt><trkpt lat="10.3425209" lon="-75.4922857"><ele>7.0</ele><time>2026-04-18T19:22:42.618Z</time></trkpt><trkpt lat="10.3425273" lon="-75.4923523"><ele>7.0</ele><time>2026-04-18T19:22:43.681Z</time></trkpt><trkpt lat="10.3425238" lon="-75.4924192"><ele>7.0</ele><time>2026-04-18T19:22:44.621Z</time></trkpt><trkpt lat="10.3425209" lon="-75.4924904"><ele>7.000000000000001</ele><time>2026-04-18T19:22:45.662Z</time></trkpt><trkpt lat="10.3425169" lon="-75.4925584"><ele>7.0</ele><time>2026-04-18T19:22:46.616Z</time></trkpt><trkpt lat="10.3425151" lon="-75.4926267"><ele>7.0</ele><time>2026-04-18T19:22:47.62Z</time></trkpt><trkpt lat="10.3425151" lon="-75.4926943"><ele>7.0</ele><time>2026-04-18T19:22:48.621Z</time></trkpt><trkpt lat="10.3425227" lon="-75.4927685"><ele>7.000000000000001</ele><time>2026-04-18T19:22:49.616Z</time></trkpt><trkpt lat="10.3425233" lon="-75.4928325"><ele>7.0</ele><time>2026-04-18T19:22:50.618Z</time></trkpt><trkpt lat="10.3425229" lon="-75.4929537"><ele>6.8</ele><time>2026-04-18T19:22:52.62Z</time></trkpt><trkpt lat="10.3425139" lon="-75.4930816"><ele>6.6</ele><time>2026-04-18T19:22:54.618Z</time></trkpt><trkpt lat="10.3425127" lon="-75.4931459"><ele>6.3999999999999995</ele><time>2026-04-18T19:22:55.695Z</time></trkpt><trkpt lat="10.3425083" lon="-75.493268"><ele>6.199999999999999</ele><time>2026-04-18T19:22:57.619Z</time></trkpt><trkpt lat="10.3425065" lon="-75.4933939"><ele>6.0</ele><time>2026-04-18T19:22:59.62Z</time></trkpt><trkpt lat="10.3425007" lon="-75.4935094"><ele>6.0</ele><time>2026-04-18T19:23:01.621Z</time></trkpt><trkpt lat="10.3424931" lon="-75.493624"><ele>6.0</ele><time>2026-04-18T19:23:03.618Z</time></trkpt><trkpt lat="10.3424898" lon="-75.4937428"><ele>6.0</ele><time>2026-04-18T19:23:05.616Z</time></trkpt><trkpt lat="10.3424972" lon="-75.4938648"><ele>6.0</ele><time>2026-04-18T19:23:07.621Z</time></trkpt><trkpt lat="10.3425021" lon="-75.4939762"><ele>7.0</ele><time>2026-04-18T19:23:09.62Z</time></trkpt><trkpt lat="10.3425076" lon="-75.4940895"><ele>8.0</ele><time>2026-04-18T19:23:11.617Z</time></trkpt><trkpt lat="10.3425298" lon="-75.4942074"><ele>9.0</ele><time>2026-04-18T19:23:13.611Z</time></trkpt><trkpt lat="10.3425621" lon="-75.4943182"><ele>10.0</ele><time>2026-04-18T19:23:15.612Z</time></trkpt><trkpt lat="10.3425857" lon="-75.4943787"><ele>11.0</ele><time>2026-04-18T19:23:16.614Z</time></trkpt><trkpt lat="10.3426144" lon="-75.4944367"><ele>11.0</ele><time>2026-04-18T19:23:17.617Z</time></trkpt><trkpt lat="10.3426475" lon="-75.4944929"><ele>11.0</ele><time>2026-04-18T19:23:18.613Z</time></trkpt><trkpt lat="10.3426848" lon="-75.4945472"><ele>11.0</ele><time>2026-04-18T19:23:19.61Z</time></trkpt><trkpt lat="10.3427276" lon="-75.4946038"><ele>11.0</ele><time>2026-04-18T19:23:20.614Z</time></trkpt><trkpt lat="10.3428128" lon="-75.4946939"><ele>11.0</ele><time>2026-04-18T19:23:22.617Z</time></trkpt><trkpt lat="10.3429091" lon="-75.4947633"><ele>11.0</ele><time>2026-04-18T19:23:24.617Z</time></trkpt><trkpt lat="10.3430068" lon="-75.4948257"><ele>9.8</ele><time>2026-04-18T19:23:26.695Z</time></trkpt><trkpt lat="10.3431086" lon="-75.4948697"><ele>8.600000000000001</ele><time>2026-04-18T19:23:28.621Z</time></trkpt><trkpt lat="10.3432119" lon="-75.494898"><ele>7.4</ele><time>2026-04-18T19:23:30.696Z</time></trkpt><trkpt lat="10.3433207" lon="-75.4949085"><ele>6.2</ele><time>2026-04-18T19:23:32.621Z</time></trkpt><trkpt lat="10.3434409" lon="-75.4949079"><ele>5.0</ele><time>2026-04-18T19:23:34.695Z</time></trkpt><trkpt lat="10.3435618" lon="-75.4949101"><ele>5.0</ele><time>2026-04-18T19:23:36.622Z</time></trkpt><trkpt lat="10.3436322" lon="-75.4949083"><ele>5.0</ele><time>2026-04-18T19:23:37.626Z</time></trkpt><trkpt lat="10.3437606" lon="-75.494907"><ele>5.0</ele><time>2026-04-18T19:23:39.696Z</time></trkpt><trkpt lat="10.343826" lon="-75.4949029"><ele>5.0</ele><time>2026-04-18T19:23:40.617Z</time></trkpt><trkpt lat="10.3438939" lon="-75.4949001"><ele>5.0</ele><time>2026-04-18T19:23:41.696Z</time></trkpt><trkpt lat="10.3439654" lon="-75.4948963"><ele>5.0</ele><time>2026-04-18T19:23:42.619Z</time></trkpt><trkpt lat="10.3440349" lon="-75.4948978"><ele>4.833333333333334</ele><time>2026-04-18T19:23:43.618Z</time></trkpt><trkpt lat="10.3441013" lon="-75.4948955"><ele>4.666666666666667</ele><time>2026-04-18T19:23:44.664Z</time></trkpt><trkpt lat="10.3441668" lon="-75.4948965"><ele>4.5</ele><time>2026-04-18T19:23:45.695Z</time></trkpt><trkpt lat="10.3442301" lon="-75.494896"><ele>4.333333333333333</ele><time>2026-04-18T19:23:46.616Z</time></trkpt><trkpt lat="10.3443382" lon="-75.4948959"><ele>4.166666666666666</ele><time>2026-04-18T19:23:48.618Z</time></trkpt><trkpt lat="10.3444371" lon="-75.4948941"><ele>4.0</ele><time>2026-04-18T19:23:50.695Z</time></trkpt><trkpt lat="10.344532" lon="-75.494895"><ele>4.0</ele><time>2026-04-18T19:23:52.621Z</time></trkpt><trkpt lat="10.3446378" lon="-75.4948963"><ele>4.0</ele><time>2026-04-18T19:23:54.622Z</time></trkpt><trkpt lat="10.344729" lon="-75.4948995"><ele>4.0</ele><time>2026-04-18T19:23:56.617Z</time></trkpt><trkpt lat="10.3448232" lon="-75.4948991"><ele>4.0</ele><time>2026-04-18T19:23:58.616Z</time></trkpt><trkpt lat="10.3449214" lon="-75.4948997"><ele>4.0</ele><time>2026-04-18T19:24:00.616Z</time></trkpt><trkpt lat="10.3450248" lon="-75.4948981"><ele>4.2</ele><time>2026-04-18T19:24:02.615Z</time></trkpt><trkpt lat="10.3451253" lon="-75.4948971"><ele>4.4</ele><time>2026-04-18T19:24:04.617Z</time></trkpt><trkpt lat="10.3452316" lon="-75.4948832"><ele>4.6</ele><time>2026-04-18T19:24:06.695Z</time></trkpt><trkpt lat="10.3453442" lon="-75.4948684"><ele>4.8</ele><time>2026-04-18T19:24:08.62Z</time></trkpt><trkpt lat="10.3454088" lon="-75.4948492"><ele>5.0</ele><time>2026-04-18T19:24:09.617Z</time></trkpt><trkpt lat="10.3454809" lon="-75.4948266"><ele>5.0</ele><time>2026-04-18T19:24:10.613Z</time></trkpt><trkpt lat="10.3455446" lon="-75.4948046"><ele>5.0</ele><time>2026-04-18T19:24:11.615Z</time></trkpt><trkpt lat="10.3456684" lon="-75.494767"><ele>5.0</ele><time>2026-04-18T19:24:13.626Z</time></trkpt><trkpt lat="10.34573" lon="-75.4947476"><ele>5.0</ele><time>2026-04-18T19:24:14.695Z</time></trkpt><trkpt lat="10.3457956" lon="-75.4947249"><ele>5.0</ele><time>2026-04-18T19:24:15.695Z</time></trkpt><trkpt lat="10.3458666" lon="-75.494704"><ele>5.0</ele><time>2026-04-18T19:24:16.681Z</time></trkpt><trkpt lat="10.3459304" lon="-75.4946813"><ele>5.0</ele><time>2026-04-18T19:24:17.617Z</time></trkpt><trkpt lat="10.3459989" lon="-75.4946617"><ele>5.0</ele><time>2026-04-18T19:24:18.695Z</time></trkpt><trkpt lat="10.3460656" lon="-75.4946429"><ele>5.0</ele><time>2026-04-18T19:24:19.618Z</time></trkpt><trkpt lat="10.3461285" lon="-75.4946256"><ele>5.0</ele><time>2026-04-18T19:24:20.618Z</time></trkpt><trkpt lat="10.3461962" lon="-75.494612"><ele>5.0</ele><time>2026-04-18T19:24:21.617Z</time></trkpt><trkpt lat="10.3462637" lon="-75.4945983"><ele>5.0</ele><time>2026-04-18T19:24:22.682Z</time></trkpt><trkpt lat="10.3463301" lon="-75.4945861"><ele>5.0</ele><time>2026-04-18T19:24:23.62Z</time></trkpt><trkpt lat="10.3463927" lon="-75.4945721"><ele>5.0</ele><time>2026-04-18T19:24:24.618Z</time></trkpt><trkpt lat="10.346459" lon="-75.4945633"><ele>5.0</ele><time>2026-04-18T19:24:25.617Z</time></trkpt><trkpt lat="10.3465226" lon="-75.4945575"><ele>5.0</ele><time>2026-04-18T19:24:26.617Z</time></trkpt><trkpt lat="10.346586" lon="-75.4945546"><ele>5.0</ele><time>2026-04-18T19:24:27.619Z</time></trkpt><trkpt lat="10.3466504" lon="-75.4945527"><ele>5.0</ele><time>2026-04-18T19:24:28.611Z</time></trkpt><trkpt lat="10.3467153" lon="-75.4945461"><ele>5.0</ele><time>2026-04-18T19:24:29.612Z</time></trkpt><trkpt lat="10.3467792" lon="-75.4945481"><ele>5.0</ele><time>2026-04-18T19:24:30.613Z</time></trkpt><trkpt lat="10.3468455" lon="-75.4945516"><ele>5.0</ele><time>2026-04-18T19:24:31.612Z</time></trkpt><trkpt lat="10.3469126" lon="-75.4945565"><ele>5.0</ele><time>2026-04-18T19:24:32.615Z</time></trkpt><trkpt lat="10.3470397" lon="-75.49457"><ele>5.0</ele><time>2026-04-18T19:24:34.613Z</time></trkpt><trkpt lat="10.3471057" lon="-75.494581"><ele>5.0</ele><time>2026-04-18T19:24:35.618Z</time></trkpt><trkpt lat="10.3471724" lon="-75.4945935"><ele>5.0</ele><time>2026-04-18T19:24:36.614Z</time></trkpt><trkpt lat="10.3472393" lon="-75.4946041"><ele>5.0</ele><time>2026-04-18T19:24:37.615Z</time></trkpt><trkpt lat="10.3473067" lon="-75.494613"><ele>4.571428571428571</ele><time>2026-04-18T19:24:38.617Z</time></trkpt><trkpt lat="10.3473779" lon="-75.4946262"><ele>4.142857142857143</ele><time>2026-04-18T19:24:39.617Z</time></trkpt><trkpt lat="10.3474469" lon="-75.4946372"><ele>3.7142857142857144</ele><time>2026-04-18T19:24:40.615Z</time></trkpt><trkpt lat="10.3475124" lon="-75.4946527"><ele>3.2857142857142856</ele><time>2026-04-18T19:24:41.695Z</time></trkpt><trkpt lat="10.3475843" lon="-75.4946552"><ele>2.8571428571428568</ele><time>2026-04-18T19:24:42.617Z</time></trkpt><trkpt lat="10.3476514" lon="-75.4946767"><ele>2.4285714285714284</ele><time>2026-04-18T19:24:43.618Z</time></trkpt><trkpt lat="10.3477179" lon="-75.494696"><ele>2.0</ele><time>2026-04-18T19:24:44.618Z</time></trkpt><trkpt lat="10.3477857" lon="-75.494717"><ele>2.0</ele><time>2026-04-18T19:24:45.615Z</time></trkpt><trkpt lat="10.3478527" lon="-75.4947389"><ele>1.9999999999999998</ele><time>2026-04-18T19:24:46.615Z</time></trkpt><trkpt lat="10.3479178" lon="-75.4947609"><ele>2.0</ele><time>2026-04-18T19:24:47.615Z</time></trkpt><trkpt lat="10.3479855" lon="-75.4947791"><ele>2.0</ele><time>2026-04-18T19:24:48.614Z</time></trkpt><trkpt lat="10.348053" lon="-75.4948035"><ele>1.9999999999999998</ele><time>2026-04-18T19:24:49.616Z</time></trkpt><trkpt lat="10.3481254" lon="-75.4948233"><ele>2.0</ele><time>2026-04-18T19:24:50.616Z</time></trkpt><trkpt lat="10.3481928" lon="-75.4948413"><ele>2.0</ele><time>2026-04-18T19:24:51.617Z</time></trkpt><trkpt lat="10.3482582" lon="-75.49486"><ele>2.142857142857143</ele><time>2026-04-18T19:24:52.617Z</time></trkpt><trkpt lat="10.3483223" lon="-75.4948787"><ele>2.2857142857142856</ele><time>2026-04-18T19:24:53.621Z</time></trkpt><trkpt lat="10.3483883" lon="-75.4949008"><ele>2.4285714285714284</ele><time>2026-04-18T19:24:54.669Z</time></trkpt><trkpt lat="10.3484516" lon="-75.49492"><ele>2.571428571428571</ele><time>2026-04-18T19:24:55.617Z</time></trkpt><trkpt lat="10.3485141" lon="-75.4949358"><ele>2.7142857142857144</ele><time>2026-04-18T19:24:56.619Z</time></trkpt><trkpt lat="10.3485766" lon="-75.4949536"><ele>2.8571428571428568</ele><time>2026-04-18T19:24:57.62Z</time></trkpt><trkpt lat="10.3486386" lon="-75.4949677"><ele>3.0</ele><time>2026-04-18T19:24:58.617Z</time></trkpt><trkpt lat="10.3487092" lon="-75.4949807"><ele>2.9999999999999996</ele><time>2026-04-18T19:24:59.62Z</time></trkpt><trkpt lat="10.3487727" lon="-75.4949977"><ele>3.0</ele><time>2026-04-18T19:25:00.619Z</time></trkpt><trkpt lat="10.3488372" lon="-75.4950144"><ele>3.0</ele><time>2026-04-18T19:25:01.619Z</time></trkpt><trkpt lat="10.3489009" lon="-75.495031"><ele>3.0</ele><time>2026-04-18T19:25:02.614Z</time></trkpt><trkpt lat="10.3489627" lon="-75.4950532"><ele>3.0</ele><time>2026-04-18T19:25:03.62Z</time></trkpt><trkpt lat="10.3490286" lon="-75.4950696"><ele>2.9999999999999996</ele><time>2026-04-18T19:25:04.62Z</time></trkpt><trkpt lat="10.3491033" lon="-75.4950839"><ele>3.0</ele><time>2026-04-18T19:25:05.616Z</time></trkpt><trkpt lat="10.3491699" lon="-75.4951018"><ele>2.9999999999999996</ele><time>2026-04-18T19:25:06.616Z</time></trkpt><trkpt lat="10.3492335" lon="-75.4951163"><ele>3.0</ele><time>2026-04-18T19:25:07.617Z</time></trkpt><trkpt lat="10.3492989" lon="-75.4951365"><ele>3.0</ele><time>2026-04-18T19:25:08.617Z</time></trkpt><trkpt lat="10.3493674" lon="-75.4951576"><ele>3.0</ele><time>2026-04-18T19:25:09.616Z</time></trkpt><trkpt lat="10.349431" lon="-75.4951801"><ele>3.0</ele><time>2026-04-18T19:25:10.615Z</time></trkpt><trkpt lat="10.3494945" lon="-75.4951974"><ele>2.9999999999999996</ele><time>2026-04-18T19:25:11.61Z</time></trkpt><trkpt lat="10.3495589" lon="-75.4952178"><ele>3.0</ele><time>2026-04-18T19:25:12.612Z</time></trkpt><trkpt lat="10.3496224" lon="-75.4952373"><ele>3.0</ele><time>2026-04-18T19:25:13.611Z</time></trkpt><trkpt lat="10.3496892" lon="-75.4952572"><ele>3.0</ele><time>2026-04-18T19:25:14.617Z</time></trkpt><trkpt lat="10.3497543" lon="-75.495282"><ele>3.0</ele><time>2026-04-18T19:25:15.619Z</time></trkpt><trkpt lat="10.3498176" lon="-75.4952992"><ele>3.0</ele><time>2026-04-18T19:25:16.612Z</time></trkpt><trkpt lat="10.3499508" lon="-75.4953319"><ele>3.0</ele><time>2026-04-18T19:25:18.615Z</time></trkpt><trkpt lat="10.3500148" lon="-75.495349"><ele>3.0</ele><time>2026-04-18T19:25:19.621Z</time></trkpt><trkpt lat="10.3500865" lon="-75.4953592"><ele>3.3333333333333335</ele><time>2026-04-18T19:25:20.62Z</time></trkpt><trkpt lat="10.3501495" lon="-75.4953801"><ele>3.666666666666667</ele><time>2026-04-18T19:25:21.617Z</time></trkpt><trkpt lat="10.3502123" lon="-75.4953976"><ele>4.0</ele><time>2026-04-18T19:25:22.614Z</time></trkpt><trkpt lat="10.350335" lon="-75.4954362"><ele>4.333333333333334</ele><time>2026-04-18T19:25:24.614Z</time></trkpt><trkpt lat="10.3504004" lon="-75.4954527"><ele>4.666666666666667</ele><time>2026-04-18T19:25:25.616Z</time></trkpt><trkpt lat="10.3504662" lon="-75.495469"><ele>5.0</ele><time>2026-04-18T19:25:26.613Z</time></trkpt><trkpt lat="10.3505383" lon="-75.4954842"><ele>5.142857142857142</ele><time>2026-04-18T19:25:27.616Z</time></trkpt><trkpt lat="10.3506075" lon="-75.4954971"><ele>5.285714285714286</ele><time>2026-04-18T19:25:28.612Z</time></trkpt><trkpt lat="10.3506758" lon="-75.4955153"><ele>5.428571428571429</ele><time>2026-04-18T19:25:29.618Z</time></trkpt><trkpt lat="10.3507442" lon="-75.4955327"><ele>5.571428571428571</ele><time>2026-04-18T19:25:30.612Z</time></trkpt><trkpt lat="10.3508143" lon="-75.4955541"><ele>5.714285714285714</ele><time>2026-04-18T19:25:31.615Z</time></trkpt><trkpt lat="10.3508821" lon="-75.4955737"><ele>5.857142857142857</ele><time>2026-04-18T19:25:32.618Z</time></trkpt><trkpt lat="10.3509518" lon="-75.4955933"><ele>6.0</ele><time>2026-04-18T19:25:33.616Z</time></trkpt><trkpt lat="10.3510247" lon="-75.4956139"><ele>5.999999999999999</ele><time>2026-04-18T19:25:34.616Z</time></trkpt><trkpt lat="10.3510991" lon="-75.4956382"><ele>6.0</ele><time>2026-04-18T19:25:35.623Z</time></trkpt><trkpt lat="10.3511698" lon="-75.4956578"><ele>6.0</ele><time>2026-04-18T19:25:36.617Z</time></trkpt><trkpt lat="10.3512396" lon="-75.4956788"><ele>6.0</ele><time>2026-04-18T19:25:37.618Z</time></trkpt><trkpt lat="10.351311" lon="-75.495698"><ele>6.0</ele><time>2026-04-18T19:25:38.621Z</time></trkpt><trkpt lat="10.3513809" lon="-75.495717"><ele>5.999999999999999</ele><time>2026-04-18T19:25:39.62Z</time></trkpt><trkpt lat="10.3514521" lon="-75.4957334"><ele>6.0</ele><time>2026-04-18T19:25:40.618Z</time></trkpt><trkpt lat="10.3515251" lon="-75.4957588"><ele>5.666666666666667</ele><time>2026-04-18T19:25:41.621Z</time></trkpt><trkpt lat="10.3515977" lon="-75.4957793"><ele>5.333333333333333</ele><time>2026-04-18T19:25:42.615Z</time></trkpt><trkpt lat="10.3516715" lon="-75.4958004"><ele>5.0</ele><time>2026-04-18T19:25:43.613Z</time></trkpt><trkpt lat="10.3517424" lon="-75.4958197"><ele>4.666666666666666</ele><time>2026-04-18T19:25:44.61Z</time></trkpt><trkpt lat="10.3518114" lon="-75.4958457"><ele>4.333333333333333</ele><time>2026-04-18T19:25:45.609Z</time></trkpt><trkpt lat="10.3518833" lon="-75.4958666"><ele>4.0</ele><time>2026-04-18T19:25:46.614Z</time></trkpt><trkpt lat="10.3519595" lon="-75.4958829"><ele>4.0</ele><time>2026-04-18T19:25:47.612Z</time></trkpt><trkpt lat="10.3520321" lon="-75.4959034"><ele>3.9999999999999996</ele><time>2026-04-18T19:25:48.614Z</time></trkpt><trkpt lat="10.3521012" lon="-75.4959198"><ele>4.0</ele><time>2026-04-18T19:25:49.615Z</time></trkpt><trkpt lat="10.3521717" lon="-75.4959386"><ele>4.0</ele><time>2026-04-18T19:25:50.618Z</time></trkpt><trkpt lat="10.3522425" lon="-75.4959544"><ele>3.9999999999999996</ele><time>2026-04-18T19:25:51.615Z</time></trkpt><trkpt lat="10.3523097" lon="-75.4959724"><ele>4.0</ele><time>2026-04-18T19:25:52.615Z</time></trkpt><trkpt lat="10.3523735" lon="-75.4959898"><ele>4.0</ele><time>2026-04-18T19:25:53.614Z</time></trkpt><trkpt lat="10.3524374" lon="-75.4960087"><ele>4.428571428571429</ele><time>2026-04-18T19:25:54.615Z</time></trkpt><trkpt lat="10.3525011" lon="-75.4960276"><ele>4.857142857142857</ele><time>2026-04-18T19:25:55.617Z</time></trkpt><trkpt lat="10.3525672" lon="-75.4960479"><ele>5.285714285714286</ele><time>2026-04-18T19:25:56.62Z</time></trkpt><trkpt lat="10.3526302" lon="-75.4960664"><ele>5.714285714285714</ele><time>2026-04-18T19:25:57.616Z</time></trkpt><trkpt lat="10.3526945" lon="-75.4960824"><ele>6.142857142857142</ele><time>2026-04-18T19:25:58.614Z</time></trkpt><trkpt lat="10.3527633" lon="-75.4960905"><ele>6.571428571428571</ele><time>2026-04-18T19:25:59.614Z</time></trkpt><trkpt lat="10.3528291" lon="-75.496105"><ele>7.0</ele><time>2026-04-18T19:26:00.619Z</time></trkpt><trkpt lat="10.3528975" lon="-75.4961166"><ele>7.000000000000001</ele><time>2026-04-18T19:26:01.616Z</time></trkpt><trkpt lat="10.3529619" lon="-75.4961341"><ele>7.0</ele><time>2026-04-18T19:26:02.616Z</time></trkpt><trkpt lat="10.3530264" lon="-75.4961518"><ele>7.0</ele><time>2026-04-18T19:26:03.616Z</time></trkpt><trkpt lat="10.3530904" lon="-75.4961705"><ele>7.0</ele><time>2026-04-18T19:26:04.615Z</time></trkpt><trkpt lat="10.3531565" lon="-75.4961927"><ele>7.000000000000001</ele><time>2026-04-18T19:26:05.62Z</time></trkpt><trkpt lat="10.3532208" lon="-75.4962112"><ele>7.0</ele><time>2026-04-18T19:26:06.618Z</time></trkpt><trkpt lat="10.3533431" lon="-75.4962489"><ele>6.428571428571429</ele><time>2026-04-18T19:26:08.618Z</time></trkpt><trkpt lat="10.3534076" lon="-75.496268"><ele>5.857142857142857</ele><time>2026-04-18T19:26:09.61Z</time></trkpt><trkpt lat="10.3534725" lon="-75.4962885"><ele>5.285714285714286</ele><time>2026-04-18T19:26:10.612Z</time></trkpt><trkpt lat="10.3535355" lon="-75.4963098"><ele>4.714285714285714</ele><time>2026-04-18T19:26:11.612Z</time></trkpt><trkpt lat="10.3536018" lon="-75.4963306"><ele>4.142857142857142</ele><time>2026-04-18T19:26:12.619Z</time></trkpt><trkpt lat="10.3536703" lon="-75.4963524"><ele>3.571428571428571</ele><time>2026-04-18T19:26:13.614Z</time></trkpt><trkpt lat="10.353737" lon="-75.4963747"><ele>3.0</ele><time>2026-04-18T19:26:14.616Z</time></trkpt><trkpt lat="10.3538062" lon="-75.4964001"><ele>3.2857142857142856</ele><time>2026-04-18T19:26:15.613Z</time></trkpt><trkpt lat="10.3538735" lon="-75.4964303"><ele>3.571428571428571</ele><time>2026-04-18T19:26:16.615Z</time></trkpt><trkpt lat="10.3539356" lon="-75.4964617"><ele>3.8571428571428568</ele><time>2026-04-18T19:26:17.616Z</time></trkpt><trkpt lat="10.3539985" lon="-75.4964982"><ele>4.142857142857142</ele><time>2026-04-18T19:26:18.616Z</time></trkpt><trkpt lat="10.3540552" lon="-75.4965408"><ele>4.428571428571429</ele><time>2026-04-18T19:26:19.62Z</time></trkpt><trkpt lat="10.3541128" lon="-75.4965796"><ele>4.714285714285714</ele><time>2026-04-18T19:26:20.616Z</time></trkpt><trkpt lat="10.3541678" lon="-75.496619"><ele>5.0</ele><time>2026-04-18T19:26:21.619Z</time></trkpt><trkpt lat="10.3542269" lon="-75.496666"><ele>5.0</ele><time>2026-04-18T19:26:22.617Z</time></trkpt><trkpt lat="10.354281" lon="-75.4967123"><ele>5.0</ele><time>2026-04-18T19:26:23.622Z</time></trkpt><trkpt lat="10.354338" lon="-75.4967611"><ele>5.0</ele><time>2026-04-18T19:26:24.612Z</time></trkpt><trkpt lat="10.3543911" lon="-75.4968121"><ele>5.0</ele><time>2026-04-18T19:26:25.616Z</time></trkpt><trkpt lat="10.3544445" lon="-75.4968656"><ele>5.0</ele><time>2026-04-18T19:26:26.619Z</time></trkpt><trkpt lat="10.3544921" lon="-75.4969169"><ele>5.0</ele><time>2026-04-18T19:26:27.621Z</time></trkpt><trkpt lat="10.354536" lon="-75.4969638"><ele>5.0</ele><time>2026-04-18T19:26:28.616Z</time></trkpt><trkpt lat="10.3546171" lon="-75.4970623"><ele>5.2</ele><time>2026-04-18T19:26:30.623Z</time></trkpt><trkpt lat="10.3546934" lon="-75.4971569"><ele>5.4</ele><time>2026-04-18T19:26:32.617Z</time></trkpt><trkpt lat="10.3547555" lon="-75.4972618"><ele>5.6</ele><time>2026-04-18T19:26:34.617Z</time></trkpt><trkpt lat="10.3547991" lon="-75.4973472"><ele>5.8</ele><time>2026-04-18T19:26:36.616Z</time></trkpt><trkpt lat="10.3548444" lon="-75.4974399"><ele>6.0</ele><time>2026-04-18T19:26:38.62Z</time></trkpt><trkpt lat="10.3548817" lon="-75.4975243"><ele>6.166666666666667</ele><time>2026-04-18T19:26:40.614Z</time></trkpt><trkpt lat="10.3549058" lon="-75.4976086"><ele>6.333333333333334</ele><time>2026-04-18T19:26:42.612Z</time></trkpt><trkpt lat="10.354938" lon="-75.4976937"><ele>6.5</ele><time>2026-04-18T19:26:44.62Z</time></trkpt><trkpt lat="10.3549612" lon="-75.4977652"><ele>6.666666666666667</ele><time>2026-04-18T19:26:46.614Z</time></trkpt><trkpt lat="10.3549885" lon="-75.4978322"><ele>6.833333333333334</ele><time>2026-04-18T19:26:48.621Z</time></trkpt><trkpt lat="10.3550175" lon="-75.4978925"><ele>7.0</ele><time>2026-04-18T19:26:50.616Z</time></trkpt><trkpt lat="10.3550274" lon="-75.4979631"><ele>7.25</ele><time>2026-04-18T19:26:53.615Z</time></trkpt><trkpt lat="10.3550343" lon="-75.4980354"><ele>7.5</ele><time>2026-04-18T19:26:57.616Z</time></trkpt><trkpt lat="10.3549997" lon="-75.4981294"><ele>7.75</ele><time>2026-04-18T19:29:44.612Z</time></trkpt><trkpt lat="10.3550098" lon="-75.4982262"><ele>8.0</ele><time>2026-04-18T19:29:46.613Z</time></trkpt><trkpt lat="10.3550081" lon="-75.4984173"><ele>7.999999999999999</ele><time>2026-04-18T19:29:48.613Z</time></trkpt><trkpt lat="10.3550031" lon="-75.4985013"><ele>8.0</ele><time>2026-04-18T19:29:49.612Z</time></trkpt><trkpt lat="10.3549954" lon="-75.4985739"><ele>8.0</ele><time>2026-04-18T19:29:50.613Z</time></trkpt><trkpt lat="10.3549906" lon="-75.4986565"><ele>8.0</ele><time>2026-04-18T19:29:51.613Z</time></trkpt><trkpt lat="10.3549834" lon="-75.4987405"><ele>7.999999999999999</ele><time>2026-04-18T19:29:52.614Z</time></trkpt><trkpt lat="10.3549743" lon="-75.4988268"><ele>8.0</ele><time>2026-04-18T19:29:53.61Z</time></trkpt><trkpt lat="10.3549663" lon="-75.4989181"><ele>7.6000000000000005</ele><time>2026-04-18T19:29:54.616Z</time></trkpt><trkpt lat="10.3549531" lon="-75.4989929"><ele>7.200000000000001</ele><time>2026-04-18T19:29:55.613Z</time></trkpt><trkpt lat="10.3549396" lon="-75.4990892"><ele>6.8</ele><time>2026-04-18T19:29:56.616Z</time></trkpt><trkpt lat="10.3549286" lon="-75.499193"><ele>6.4</ele><time>2026-04-18T19:29:57.615Z</time></trkpt><trkpt lat="10.3549176" lon="-75.4992969"><ele>6.0</ele><time>2026-04-18T19:29:58.612Z</time></trkpt><trkpt lat="10.3549069" lon="-75.4993983"><ele>6.0</ele><time>2026-04-18T19:29:59.61Z</time></trkpt><trkpt lat="10.3548958" lon="-75.4994959"><ele>6.0</ele><time>2026-04-18T19:30:00.608Z</time></trkpt><trkpt lat="10.3548842" lon="-75.4995966"><ele>6.0</ele><time>2026-04-18T19:30:01.616Z</time></trkpt><trkpt lat="10.3548709" lon="-75.4997012"><ele>6.0</ele><time>2026-04-18T19:30:02.614Z</time></trkpt><trkpt lat="10.3548561" lon="-75.4998101"><ele>6.0</ele><time>2026-04-18T19:30:03.61Z</time></trkpt><trkpt lat="10.3548407" lon="-75.4999213"><ele>6.5</ele><time>2026-04-18T19:30:04.624Z</time></trkpt><trkpt lat="10.354826" lon="-75.500033"><ele>7.0</ele><time>2026-04-18T19:30:05.619Z</time></trkpt><trkpt lat="10.3548088" lon="-75.5001519"><ele>7.5</ele><time>2026-04-18T19:30:06.617Z</time></trkpt><trkpt lat="10.3547935" lon="-75.5002764"><ele>8.0</ele><time>2026-04-18T19:30:07.61Z</time></trkpt><trkpt lat="10.3547793" lon="-75.5004049"><ele>8.25</ele><time>2026-04-18T19:30:08.609Z</time></trkpt><trkpt lat="10.3547661" lon="-75.5005319"><ele>8.5</ele><time>2026-04-18T19:30:09.616Z</time></trkpt><trkpt lat="10.3547547" lon="-75.5006559"><ele>8.75</ele><time>2026-04-18T19:30:10.619Z</time></trkpt><trkpt lat="10.3547428" lon="-75.5007766"><ele>9.0</ele><time>2026-04-18T19:30:11.612Z</time></trkpt><trkpt lat="10.3547326" lon="-75.5008941"><ele>9.0</ele><time>2026-04-18T19:30:12.614Z</time></trkpt><trkpt lat="10.3547251" lon="-75.5010096"><ele>9.0</ele><time>2026-04-18T19:30:13.616Z</time></trkpt><trkpt lat="10.3547188" lon="-75.5011228"><ele>9.0</ele><time>2026-04-18T19:30:14.61Z</time></trkpt><trkpt lat="10.3547161" lon="-75.5012344"><ele>9.0</ele><time>2026-04-18T19:30:15.612Z</time></trkpt><trkpt lat="10.3547172" lon="-75.5013443"><ele>9.0</ele><time>2026-04-18T19:30:16.618Z</time></trkpt><trkpt lat="10.3547224" lon="-75.5014511"><ele>9.4</ele><time>2026-04-18T19:30:17.621Z</time></trkpt><trkpt lat="10.3547299" lon="-75.5015531"><ele>9.8</ele><time>2026-04-18T19:30:18.616Z</time></trkpt><trkpt lat="10.354743" lon="-75.5016546"><ele>10.200000000000001</ele><time>2026-04-18T19:30:19.616Z</time></trkpt><trkpt lat="10.3547578" lon="-75.5017516"><ele>10.600000000000001</ele><time>2026-04-18T19:30:20.617Z</time></trkpt><trkpt lat="10.3547718" lon="-75.5018459"><ele>11.0</ele><time>2026-04-18T19:30:21.608Z</time></trkpt><trkpt lat="10.3547928" lon="-75.5019425"><ele>11.0</ele><time>2026-04-18T19:30:22.61Z</time></trkpt><trkpt lat="10.3548137" lon="-75.5020365"><ele>11.0</ele><time>2026-04-18T19:30:23.608Z</time></trkpt><trkpt lat="10.3548435" lon="-75.5021249"><ele>11.0</ele><time>2026-04-18T19:30:24.612Z</time></trkpt><trkpt lat="10.3548769" lon="-75.502214"><ele>11.0</ele><time>2026-04-18T19:30:25.609Z</time></trkpt><trkpt lat="10.3549141" lon="-75.5023046"><ele>11.0</ele><time>2026-04-18T19:30:26.61Z</time></trkpt><trkpt lat="10.3549518" lon="-75.5023927"><ele>11.0</ele><time>2026-04-18T19:30:27.615Z</time></trkpt><trkpt lat="10.3549919" lon="-75.5024784"><ele>11.0</ele><time>2026-04-18T19:30:28.612Z</time></trkpt><trkpt lat="10.355034" lon="-75.5025613"><ele>11.0</ele><time>2026-04-18T19:30:29.61Z</time></trkpt><trkpt lat="10.3550787" lon="-75.5026448"><ele>11.0</ele><time>2026-04-18T19:30:30.611Z</time></trkpt><trkpt lat="10.355126" lon="-75.5027253"><ele>11.0</ele><time>2026-04-18T19:30:31.612Z</time></trkpt><trkpt lat="10.3551788" lon="-75.5028086"><ele>11.0</ele><time>2026-04-18T19:30:32.61Z</time></trkpt><trkpt lat="10.3552355" lon="-75.5028852"><ele>11.0</ele><time>2026-04-18T19:30:33.615Z</time></trkpt><trkpt lat="10.3552919" lon="-75.5029611"><ele>11.0</ele><time>2026-04-18T19:30:34.609Z</time></trkpt><trkpt lat="10.3553628" lon="-75.5030497"><ele>11.0</ele><time>2026-04-18T19:30:35.653Z</time></trkpt><trkpt lat="10.3554346" lon="-75.5031318"><ele>11.0</ele><time>2026-04-18T19:30:36.61Z</time></trkpt><trkpt lat="10.355511" lon="-75.503215"><ele>10.600000000000001</ele><time>2026-04-18T19:30:37.61Z</time></trkpt><trkpt lat="10.3555898" lon="-75.503288"><ele>10.200000000000001</ele><time>2026-04-18T19:30:38.61Z</time></trkpt><trkpt lat="10.3556759" lon="-75.5033507"><ele>9.8</ele><time>2026-04-18T19:30:39.609Z</time></trkpt><trkpt lat="10.355764" lon="-75.5034191"><ele>9.4</ele><time>2026-04-18T19:30:40.609Z</time></trkpt><trkpt lat="10.3558527" lon="-75.503491"><ele>9.0</ele><time>2026-04-18T19:30:41.61Z</time></trkpt><trkpt lat="10.3559434" lon="-75.5035556"><ele>9.0</ele><time>2026-04-18T19:30:42.616Z</time></trkpt><trkpt lat="10.3560363" lon="-75.5036264"><ele>9.0</ele><time>2026-04-18T19:30:43.618Z</time></trkpt><trkpt lat="10.3561287" lon="-75.5036895"><ele>9.0</ele><time>2026-04-18T19:30:44.611Z</time></trkpt><trkpt lat="10.3562238" lon="-75.5037606"><ele>9.0</ele><time>2026-04-18T19:30:45.613Z</time></trkpt><trkpt lat="10.3563202" lon="-75.5038305"><ele>8.75</ele><time>2026-04-18T19:30:46.612Z</time></trkpt><trkpt lat="10.3564174" lon="-75.5038992"><ele>8.5</ele><time>2026-04-18T19:30:47.614Z</time></trkpt><trkpt lat="10.3565141" lon="-75.5039657"><ele>8.25</ele><time>2026-04-18T19:30:48.61Z</time></trkpt><trkpt lat="10.3566261" lon="-75.5040255"><ele>8.0</ele><time>2026-04-18T19:30:49.62Z</time></trkpt><trkpt lat="10.3567157" lon="-75.5040898"><ele>8.0</ele><time>2026-04-18T19:30:50.619Z</time></trkpt><trkpt lat="10.3568046" lon="-75.5041566"><ele>8.0</ele><time>2026-04-18T19:30:51.618Z</time></trkpt><trkpt lat="10.3568909" lon="-75.5042084"><ele>8.0</ele><time>2026-04-18T19:30:52.611Z</time></trkpt><trkpt lat="10.356981" lon="-75.5042662"><ele>8.0</ele><time>2026-04-18T19:30:53.613Z</time></trkpt><trkpt lat="10.3570712" lon="-75.5043239"><ele>8.0</ele><time>2026-04-18T19:30:54.608Z</time></trkpt><trkpt lat="10.3577365" lon="-75.5048424"><ele>8.0</ele><time>2026-04-18T19:31:02.609Z</time></trkpt><trkpt lat="10.357827" lon="-75.504904"><ele>8.0</ele><time>2026-04-18T19:31:03.609Z</time></trkpt><trkpt lat="10.3579343" lon="-75.5050008"><ele>8.0</ele><time>2026-04-18T19:31:04.61Z</time></trkpt><trkpt lat="10.3580325" lon="-75.5050736"><ele>8.0</ele><time>2026-04-18T19:31:05.61Z</time></trkpt><trkpt lat="10.3581466" lon="-75.505159"><ele>9.5</ele><time>2026-04-18T19:31:06.61Z</time></trkpt><trkpt lat="10.3582392" lon="-75.505242"><ele>11.0</ele><time>2026-04-18T19:31:07.609Z</time></trkpt><trkpt lat="10.3585869" lon="-75.505342"><ele>10.75</ele><time>2026-04-18T19:31:13.61Z</time></trkpt><trkpt lat="10.3587467" lon="-75.505421"><ele>10.5</ele><time>2026-04-18T19:31:14.615Z</time></trkpt><trkpt lat="10.3588151" lon="-75.5054866"><ele>10.25</ele><time>2026-04-18T19:31:15.611Z</time></trkpt><trkpt lat="10.3589006" lon="-75.5055623"><ele>10.0</ele><time>2026-04-18T19:31:16.612Z</time></trkpt><trkpt lat="10.3589796" lon="-75.5056241"><ele>10.0</ele><time>2026-04-18T19:31:17.614Z</time></trkpt><trkpt lat="10.3590592" lon="-75.5056739"><ele>10.0</ele><time>2026-04-18T19:31:18.609Z</time></trkpt><trkpt lat="10.3591428" lon="-75.5057159"><ele>10.0</ele><time>2026-04-18T19:31:19.61Z</time></trkpt><trkpt lat="10.3591946" lon="-75.5057807"><ele>10.0</ele><time>2026-04-18T19:31:20.609Z</time></trkpt><trkpt lat="10.3592543" lon="-75.5058432"><ele>10.0</ele><time>2026-04-18T19:31:21.61Z</time></trkpt><trkpt lat="10.3593312" lon="-75.5059032"><ele>10.0</ele><time>2026-04-18T19:31:22.609Z</time></trkpt><trkpt lat="10.3593979" lon="-75.5059611"><ele>10.0</ele><time>2026-04-18T19:31:23.609Z</time></trkpt><trkpt lat="10.3594747" lon="-75.5060149"><ele>10.0</ele><time>2026-04-18T19:31:24.612Z</time></trkpt><trkpt lat="10.359536" lon="-75.5060772"><ele>10.0</ele><time>2026-04-18T19:31:25.609Z</time></trkpt><trkpt lat="10.3596101" lon="-75.5061237"><ele>10.0</ele><time>2026-04-18T19:31:26.609Z</time></trkpt><trkpt lat="10.3596713" lon="-75.5061779"><ele>10.0</ele><time>2026-04-18T19:31:27.608Z</time></trkpt><trkpt lat="10.3597462" lon="-75.5062331"><ele>10.0</ele><time>2026-04-18T19:31:28.609Z</time></trkpt><trkpt lat="10.359851" lon="-75.5063054"><ele>10.0</ele><time>2026-04-18T19:31:29.613Z</time></trkpt><trkpt lat="10.3599702" lon="-75.5063445"><ele>10.0</ele><time>2026-04-18T19:31:31.614Z</time></trkpt><trkpt lat="10.360056" lon="-75.5064208"><ele>10.0</ele><time>2026-04-18T19:31:32.614Z</time></trkpt><trkpt lat="10.36014" lon="-75.5065009"><ele>10.0</ele><time>2026-04-18T19:31:33.613Z</time></trkpt><trkpt lat="10.3601979" lon="-75.5065557"><ele>10.0</ele><time>2026-04-18T19:31:34.61Z</time></trkpt><trkpt lat="10.36028" lon="-75.5066102"><ele>10.0</ele><time>2026-04-18T19:31:35.609Z</time></trkpt><trkpt lat="10.3603562" lon="-75.5066671"><ele>10.0</ele><time>2026-04-18T19:31:36.608Z</time></trkpt><trkpt lat="10.3604249" lon="-75.5067103"><ele>10.0</ele><time>2026-04-18T19:31:37.608Z</time></trkpt><trkpt lat="10.3604954" lon="-75.5067647"><ele>10.0</ele><time>2026-04-18T19:31:38.608Z</time></trkpt><trkpt lat="10.3605707" lon="-75.5068122"><ele>9.5</ele><time>2026-04-18T19:31:39.609Z</time></trkpt><trkpt lat="10.3606475" lon="-75.5068628"><ele>9.0</ele><time>2026-04-18T19:31:40.61Z</time></trkpt><trkpt lat="10.3607676" lon="-75.5069017"><ele>8.5</ele><time>2026-04-18T19:31:43.609Z</time></trkpt><trkpt lat="10.3609209" lon="-75.5070254"><ele>8.0</ele><time>2026-04-18T19:31:45.611Z</time></trkpt><trkpt lat="10.3609604" lon="-75.5070996"><ele>8.0</ele><time>2026-04-18T19:31:46.612Z</time></trkpt><trkpt lat="10.3610249" lon="-75.5071349"><ele>8.0</ele><time>2026-04-18T19:31:47.611Z</time></trkpt><trkpt lat="10.3611079" lon="-75.5072001"><ele>8.0</ele><time>2026-04-18T19:31:49.612Z</time></trkpt><trkpt lat="10.36119" lon="-75.5072693"><ele>8.0</ele><time>2026-04-18T19:31:50.613Z</time></trkpt><trkpt lat="10.361284" lon="-75.5073203"><ele>8.0</ele><time>2026-04-18T19:31:51.608Z</time></trkpt><trkpt lat="10.361335" lon="-75.5073729"><ele>7.4</ele><time>2026-04-18T19:31:52.608Z</time></trkpt><trkpt lat="10.361412" lon="-75.5074526"><ele>6.800000000000001</ele><time>2026-04-18T19:31:54.61Z</time></trkpt><trkpt lat="10.3614987" lon="-75.5074954"><ele>6.2</ele><time>2026-04-18T19:31:55.609Z</time></trkpt><trkpt lat="10.3615852" lon="-75.5075344"><ele>5.6</ele><time>2026-04-18T19:31:56.608Z</time></trkpt><trkpt lat="10.3617107" lon="-75.5075762"><ele>5.0</ele><time>2026-04-18T19:31:58.61Z</time></trkpt><trkpt lat="10.3618973" lon="-75.5075905"><ele>5.0</ele><time>2026-04-18T19:31:59.609Z</time></trkpt><trkpt lat="10.3620853" lon="-75.5075898"><ele>5.0</ele><time>2026-04-18T19:32:00.61Z</time></trkpt><trkpt lat="10.3622055" lon="-75.5076261"><ele>5.0</ele><time>2026-04-18T19:32:01.613Z</time></trkpt><trkpt lat="10.3623275" lon="-75.5076257"><ele>5.0</ele><time>2026-04-18T19:32:02.614Z</time></trkpt><trkpt lat="10.3624233" lon="-75.507661"><ele>5.0</ele><time>2026-04-18T19:32:03.61Z</time></trkpt><trkpt lat="10.3625864" lon="-75.5076331"><ele>5.0</ele><time>2026-04-18T19:32:04.613Z</time></trkpt><trkpt lat="10.3626933" lon="-75.5076467"><ele>5.0</ele><time>2026-04-18T19:32:05.611Z</time></trkpt><trkpt lat="10.3627881" lon="-75.5076224"><ele>5.0</ele><time>2026-04-18T19:32:06.612Z</time></trkpt><trkpt lat="10.3628953" lon="-75.5076073"><ele>5.0</ele><time>2026-04-18T19:32:07.612Z</time></trkpt><trkpt lat="10.3629605" lon="-75.5076324"><ele>5.0</ele><time>2026-04-18T19:32:08.613Z</time></trkpt><trkpt lat="10.3630271" lon="-75.5076596"><ele>5.0</ele><time>2026-04-18T19:32:09.608Z</time></trkpt><trkpt lat="10.3631387" lon="-75.507658"><ele>5.0</ele><time>2026-04-18T19:32:10.609Z</time></trkpt><trkpt lat="10.3632258" lon="-75.5076601"><ele>5.0</ele><time>2026-04-18T19:32:11.608Z</time></trkpt><trkpt lat="10.3633276" lon="-75.5076716"><ele>5.0</ele><time>2026-04-18T19:32:12.61Z</time></trkpt><trkpt lat="10.3634393" lon="-75.5076814"><ele>5.5</ele><time>2026-04-18T19:32:13.609Z</time></trkpt><trkpt lat="10.363574" lon="-75.5076624"><ele>6.0</ele><time>2026-04-18T19:32:14.609Z</time></trkpt><trkpt lat="10.3636986" lon="-75.5076787"><ele>6.5</ele><time>2026-04-18T19:32:15.609Z</time></trkpt><trkpt lat="10.3638038" lon="-75.5076988"><ele>7.0</ele><time>2026-04-18T19:32:16.61Z</time></trkpt><trkpt lat="10.3638921" lon="-75.5076975"><ele>8.0</ele><time>2026-04-18T19:32:17.612Z</time></trkpt><trkpt lat="10.3640268" lon="-75.5076696"><ele>9.0</ele><time>2026-04-18T19:32:18.61Z</time></trkpt><trkpt lat="10.3641867" lon="-75.5076576"><ele>10.0</ele><time>2026-04-18T19:32:19.61Z</time></trkpt><trkpt lat="10.3643071" lon="-75.5076577"><ele>11.0</ele><time>2026-04-18T19:32:20.612Z</time></trkpt><trkpt lat="10.3644247" lon="-75.5076698"><ele>11.0</ele><time>2026-04-18T19:32:21.612Z</time></trkpt><trkpt lat="10.3645201" lon="-75.5076531"><ele>11.0</ele><time>2026-04-18T19:32:22.612Z</time></trkpt><trkpt lat="10.364606" lon="-75.5076518"><ele>11.0</ele><time>2026-04-18T19:32:23.612Z</time></trkpt><trkpt lat="10.3647066" lon="-75.5076565"><ele>11.0</ele><time>2026-04-18T19:32:24.614Z</time></trkpt><trkpt lat="10.3648072" lon="-75.5076626"><ele>11.0</ele><time>2026-04-18T19:32:25.607Z</time></trkpt><trkpt lat="10.3649321" lon="-75.5076525"><ele>10.600000000000001</ele><time>2026-04-18T19:32:26.608Z</time></trkpt><trkpt lat="10.3650483" lon="-75.5076695"><ele>10.200000000000001</ele><time>2026-04-18T19:32:27.612Z</time></trkpt><trkpt lat="10.3651383" lon="-75.5076484"><ele>9.8</ele><time>2026-04-18T19:32:28.608Z</time></trkpt><trkpt lat="10.3652415" lon="-75.507685"><ele>9.4</ele><time>2026-04-18T19:32:29.61Z</time></trkpt><trkpt lat="10.3653035" lon="-75.5077071"><ele>9.0</ele><time>2026-04-18T19:32:30.61Z</time></trkpt><trkpt lat="10.3654179" lon="-75.5077108"><ele>9.0</ele><time>2026-04-18T19:32:31.611Z</time></trkpt><trkpt lat="10.3655035" lon="-75.5077166"><ele>9.0</ele><time>2026-04-18T19:32:32.611Z</time></trkpt><trkpt lat="10.365597" lon="-75.5077175"><ele>9.0</ele><time>2026-04-18T19:32:33.614Z</time></trkpt><trkpt lat="10.3656787" lon="-75.5077074"><ele>9.0</ele><time>2026-04-18T19:32:34.615Z</time></trkpt><trkpt lat="10.3657518" lon="-75.5077067"><ele>9.0</ele><time>2026-04-18T19:32:35.611Z</time></trkpt><trkpt lat="10.3658365" lon="-75.5077043"><ele>9.0</ele><time>2026-04-18T19:32:36.614Z</time></trkpt><trkpt lat="10.3659134" lon="-75.5077078"><ele>8.833333333333334</ele><time>2026-04-18T19:32:37.611Z</time></trkpt><trkpt lat="10.3659885" lon="-75.5077031"><ele>8.666666666666666</ele><time>2026-04-18T19:32:38.616Z</time></trkpt><trkpt lat="10.3660562" lon="-75.5077044"><ele>8.5</ele><time>2026-04-18T19:32:39.613Z</time></trkpt><trkpt lat="10.3661264" lon="-75.5077091"><ele>8.333333333333332</ele><time>2026-04-18T19:32:40.613Z</time></trkpt><trkpt lat="10.3662568" lon="-75.5077063"><ele>8.166666666666666</ele><time>2026-04-18T19:32:42.608Z</time></trkpt><trkpt lat="10.3663217" lon="-75.5077088"><ele>8.0</ele><time>2026-04-18T19:32:43.61Z</time></trkpt><trkpt lat="10.3663859" lon="-75.5077152"><ele>7.999999999999999</ele><time>2026-04-18T19:32:44.609Z</time></trkpt><trkpt lat="10.3664619" lon="-75.5077121"><ele>8.0</ele><time>2026-04-18T19:32:45.609Z</time></trkpt><trkpt lat="10.3665287" lon="-75.5077261"><ele>8.0</ele><time>2026-04-18T19:32:46.61Z</time></trkpt><trkpt lat="10.3666139" lon="-75.5077249"><ele>8.0</ele><time>2026-04-18T19:32:47.609Z</time></trkpt><trkpt lat="10.3666935" lon="-75.5077168"><ele>7.999999999999999</ele><time>2026-04-18T19:32:48.608Z</time></trkpt><trkpt lat="10.3667867" lon="-75.5077192"><ele>8.0</ele><time>2026-04-18T19:32:49.611Z</time></trkpt><trkpt lat="10.3668651" lon="-75.5077175"><ele>7.999999999999999</ele><time>2026-04-18T19:32:50.611Z</time></trkpt><trkpt lat="10.3669385" lon="-75.507722"><ele>8.0</ele><time>2026-04-18T19:32:51.615Z</time></trkpt><trkpt lat="10.3670233" lon="-75.5077158"><ele>8.0</ele><time>2026-04-18T19:32:52.61Z</time></trkpt><trkpt lat="10.3671037" lon="-75.5077106"><ele>8.0</ele><time>2026-04-18T19:32:53.614Z</time></trkpt><trkpt lat="10.3671717" lon="-75.5077071"><ele>7.999999999999999</ele><time>2026-04-18T19:32:54.612Z</time></trkpt><trkpt lat="10.3673109" lon="-75.5077152"><ele>8.0</ele><time>2026-04-18T19:32:56.612Z</time></trkpt><trkpt lat="10.3673872" lon="-75.5077179"><ele>7.833333333333333</ele><time>2026-04-18T19:32:57.612Z</time></trkpt><trkpt lat="10.3674601" lon="-75.5077167"><ele>7.666666666666666</ele><time>2026-04-18T19:32:58.613Z</time></trkpt><trkpt lat="10.3675328" lon="-75.5077125"><ele>7.5</ele><time>2026-04-18T19:32:59.609Z</time></trkpt><trkpt lat="10.3676171" lon="-75.5077074"><ele>7.333333333333334</ele><time>2026-04-18T19:33:00.608Z</time></trkpt><trkpt lat="10.3676872" lon="-75.5076952"><ele>7.166666666666667</ele><time>2026-04-18T19:33:01.608Z</time></trkpt><trkpt lat="10.3677577" lon="-75.5076791"><ele>7.0</ele><time>2026-04-18T19:33:02.609Z</time></trkpt><trkpt lat="10.3678644" lon="-75.5076462"><ele>7.000000000000001</ele><time>2026-04-18T19:33:04.608Z</time></trkpt><trkpt lat="10.3679565" lon="-75.5076113"><ele>7.0</ele><time>2026-04-18T19:33:06.611Z</time></trkpt><trkpt lat="10.3680119" lon="-75.5075807"><ele>7.0</ele><time>2026-04-18T19:33:08.611Z</time></trkpt><trkpt lat="10.3680784" lon="-75.507547"><ele>7.0</ele><time>2026-04-18T19:33:11.611Z</time></trkpt><trkpt lat="10.3681551" lon="-75.5075027"><ele>7.000000000000001</ele><time>2026-04-18T19:33:14.617Z</time></trkpt><trkpt lat="10.3682114" lon="-75.5074649"><ele>7.0</ele><time>2026-04-18T19:33:16.609Z</time></trkpt><trkpt lat="10.3682635" lon="-75.5074256"><ele>6.833333333333334</ele><time>2026-04-18T19:33:18.61Z</time></trkpt><trkpt lat="10.3683143" lon="-75.507387"><ele>6.666666666666667</ele><time>2026-04-18T19:33:21.609Z</time></trkpt><trkpt lat="10.3683634" lon="-75.5073461"><ele>6.5</ele><time>2026-04-18T19:33:26.615Z</time></trkpt><trkpt lat="10.3684159" lon="-75.5073006"><ele>6.333333333333334</ele><time>2026-04-18T19:33:30.614Z</time></trkpt><trkpt lat="10.3684848" lon="-75.5072808"><ele>6.166666666666667</ele><time>2026-04-18T19:33:34.609Z</time></trkpt><trkpt lat="10.3685605" lon="-75.5071815"><ele>6.0</ele><time>2026-04-18T19:33:36.607Z</time></trkpt><trkpt lat="10.3686284" lon="-75.5071084"><ele>6.8</ele><time>2026-04-18T19:33:38.612Z</time></trkpt><trkpt lat="10.3687081" lon="-75.5070413"><ele>7.6</ele><time>2026-04-18T19:33:40.608Z</time></trkpt><trkpt lat="10.3687831" lon="-75.5069748"><ele>8.4</ele><time>2026-04-18T19:33:42.611Z</time></trkpt><trkpt lat="10.3688565" lon="-75.5069063"><ele>9.2</ele><time>2026-04-18T19:33:44.608Z</time></trkpt><trkpt lat="10.3689249" lon="-75.5068447"><ele>10.0</ele><time>2026-04-18T19:33:46.61Z</time></trkpt><trkpt lat="10.3690024" lon="-75.5067814"><ele>10.0</ele><time>2026-04-18T19:33:48.61Z</time></trkpt><trkpt lat="10.3690786" lon="-75.5067242"><ele>10.0</ele><time>2026-04-18T19:33:50.609Z</time></trkpt><trkpt lat="10.3691666" lon="-75.5066593"><ele>10.0</ele><time>2026-04-18T19:33:52.612Z</time></trkpt><trkpt lat="10.3692675" lon="-75.5065923"><ele>10.0</ele><time>2026-04-18T19:33:54.61Z</time></trkpt><trkpt lat="10.3693669" lon="-75.5065328"><ele>10.0</ele><time>2026-04-18T19:33:56.61Z</time></trkpt><trkpt lat="10.3694672" lon="-75.5064804"><ele>10.0</ele><time>2026-04-18T19:33:58.615Z</time></trkpt><trkpt lat="10.3695595" lon="-75.5064355"><ele>10.0</ele><time>2026-04-18T19:34:00.611Z</time></trkpt><trkpt lat="10.369651" lon="-75.5064009"><ele>10.0</ele><time>2026-04-18T19:34:02.61Z</time></trkpt><trkpt lat="10.3697372" lon="-75.5063667"><ele>10.0</ele><time>2026-04-18T19:34:04.612Z</time></trkpt><trkpt lat="10.3698281" lon="-75.5063341"><ele>10.0</ele><time>2026-04-18T19:34:06.611Z</time></trkpt><trkpt lat="10.3699267" lon="-75.5063022"><ele>10.0</ele><time>2026-04-18T19:34:08.611Z</time></trkpt><trkpt lat="10.3700307" lon="-75.5062689"><ele>10.0</ele><time>2026-04-18T19:34:10.609Z</time></trkpt><trkpt lat="10.3701364" lon="-75.5062314"><ele>10.0</ele><time>2026-04-18T19:34:12.608Z</time></trkpt><trkpt lat="10.3702523" lon="-75.5061936"><ele>10.0</ele><time>2026-04-18T19:34:14.608Z</time></trkpt><trkpt lat="10.3703631" lon="-75.5061542"><ele>10.0</ele><time>2026-04-18T19:34:16.609Z</time></trkpt><trkpt lat="10.3704643" lon="-75.5061205"><ele>10.0</ele><time>2026-04-18T19:34:18.61Z</time></trkpt><trkpt lat="10.3705566" lon="-75.5060869"><ele>10.0</ele><time>2026-04-18T19:34:20.607Z</time></trkpt><trkpt lat="10.3706472" lon="-75.5060576"><ele>10.0</ele><time>2026-04-18T19:34:22.609Z</time></trkpt><trkpt lat="10.3707382" lon="-75.5060301"><ele>10.0</ele><time>2026-04-18T19:34:24.608Z</time></trkpt><trkpt lat="10.3708578" lon="-75.506002"><ele>9.8</ele><time>2026-04-18T19:34:26.607Z</time></trkpt><trkpt lat="10.3709367" lon="-75.5059799"><ele>9.6</ele><time>2026-04-18T19:34:27.607Z</time></trkpt><trkpt lat="10.3710262" lon="-75.5059519"><ele>9.4</ele><time>2026-04-18T19:34:28.61Z</time></trkpt><trkpt lat="10.3711242" lon="-75.5059155"><ele>9.2</ele><time>2026-04-18T19:34:29.62Z</time></trkpt><trkpt lat="10.3712324" lon="-75.5058793"><ele>9.0</ele><time>2026-04-18T19:34:30.616Z</time></trkpt><trkpt lat="10.371345" lon="-75.5058422"><ele>8.25</ele><time>2026-04-18T19:34:31.619Z</time></trkpt><trkpt lat="10.3714618" lon="-75.505799"><ele>7.5</ele><time>2026-04-18T19:34:32.611Z</time></trkpt><trkpt lat="10.3715747" lon="-75.5057617"><ele>6.75</ele><time>2026-04-18T19:34:33.608Z</time></trkpt><trkpt lat="10.3716821" lon="-75.5057175"><ele>6.0</ele><time>2026-04-18T19:34:34.614Z</time></trkpt><trkpt lat="10.3717928" lon="-75.505683"><ele>6.0</ele><time>2026-04-18T19:34:35.613Z</time></trkpt><trkpt lat="10.3718935" lon="-75.5056432"><ele>6.0</ele><time>2026-04-18T19:34:36.615Z</time></trkpt><trkpt lat="10.3719993" lon="-75.5056021"><ele>6.0</ele><time>2026-04-18T19:34:37.611Z</time></trkpt><trkpt lat="10.3721047" lon="-75.5055682"><ele>6.0</ele><time>2026-04-18T19:34:38.616Z</time></trkpt><trkpt lat="10.372202" lon="-75.5055348"><ele>6.0</ele><time>2026-04-18T19:34:39.612Z</time></trkpt><trkpt lat="10.3722967" lon="-75.5055029"><ele>6.199999999999999</ele><time>2026-04-18T19:34:40.614Z</time></trkpt><trkpt lat="10.3723897" lon="-75.5054695"><ele>6.3999999999999995</ele><time>2026-04-18T19:34:41.62Z</time></trkpt><trkpt lat="10.3724829" lon="-75.5054357"><ele>6.6</ele><time>2026-04-18T19:34:42.611Z</time></trkpt><trkpt lat="10.3725746" lon="-75.505408"><ele>6.8</ele><time>2026-04-18T19:34:43.611Z</time></trkpt><trkpt lat="10.3726651" lon="-75.5053721"><ele>7.0</ele><time>2026-04-18T19:34:44.612Z</time></trkpt><trkpt lat="10.3727581" lon="-75.5053386"><ele>6.6</ele><time>2026-04-18T19:34:45.614Z</time></trkpt><trkpt lat="10.3728553" lon="-75.505302"><ele>6.199999999999999</ele><time>2026-04-18T19:34:46.611Z</time></trkpt><trkpt lat="10.3729444" lon="-75.5052747"><ele>5.8</ele><time>2026-04-18T19:34:47.612Z</time></trkpt><trkpt lat="10.3730352" lon="-75.505233"><ele>5.4</ele><time>2026-04-18T19:34:48.612Z</time></trkpt><trkpt lat="10.3731268" lon="-75.5052042"><ele>5.0</ele><time>2026-04-18T19:34:49.609Z</time></trkpt><trkpt lat="10.3732113" lon="-75.5051723"><ele>4.666666666666667</ele><time>2026-04-18T19:34:50.614Z</time></trkpt><trkpt lat="10.3732984" lon="-75.5051397"><ele>4.333333333333334</ele><time>2026-04-18T19:34:51.615Z</time></trkpt><trkpt lat="10.3733815" lon="-75.5051099"><ele>4.0</ele><time>2026-04-18T19:34:52.616Z</time></trkpt><trkpt lat="10.3734622" lon="-75.5050834"><ele>3.666666666666667</ele><time>2026-04-18T19:34:53.613Z</time></trkpt><trkpt lat="10.3735404" lon="-75.5050547"><ele>3.3333333333333335</ele><time>2026-04-18T19:34:54.615Z</time></trkpt><trkpt lat="10.3736201" lon="-75.5050285"><ele>3.0</ele><time>2026-04-18T19:34:55.613Z</time></trkpt><trkpt lat="10.3737122" lon="-75.5049981"><ele>3.0</ele><time>2026-04-18T19:34:56.613Z</time></trkpt><trkpt lat="10.3737998" lon="-75.5049663"><ele>3.0</ele><time>2026-04-18T19:34:57.61Z</time></trkpt><trkpt lat="10.3738907" lon="-75.5049336"><ele>3.0</ele><time>2026-04-18T19:34:58.609Z</time></trkpt><trkpt lat="10.3739799" lon="-75.5048987"><ele>3.0</ele><time>2026-04-18T19:34:59.612Z</time></trkpt><trkpt lat="10.3740768" lon="-75.5048661"><ele>3.0</ele><time>2026-04-18T19:35:00.611Z</time></trkpt><trkpt lat="10.374174" lon="-75.504829"><ele>3.5999999999999996</ele><time>2026-04-18T19:35:01.611Z</time></trkpt><trkpt lat="10.3742693" lon="-75.5047912"><ele>4.199999999999999</ele><time>2026-04-18T19:35:02.612Z</time></trkpt><trkpt lat="10.3743705" lon="-75.5047567"><ele>4.8</ele><time>2026-04-18T19:35:03.611Z</time></trkpt><trkpt lat="10.3744692" lon="-75.5047241"><ele>5.3999999999999995</ele><time>2026-04-18T19:35:04.614Z</time></trkpt><trkpt lat="10.3745628" lon="-75.504688"><ele>6.0</ele><time>2026-04-18T19:35:05.616Z</time></trkpt><trkpt lat="10.3746506" lon="-75.5046599"><ele>6.0</ele><time>2026-04-18T19:35:06.612Z</time></trkpt><trkpt lat="10.374739" lon="-75.5046267"><ele>6.0</ele><time>2026-04-18T19:35:07.611Z</time></trkpt><trkpt lat="10.3748255" lon="-75.5045934"><ele>6.0</ele><time>2026-04-18T19:35:08.611Z</time></trkpt><trkpt lat="10.3749068" lon="-75.5045484"><ele>6.0</ele><time>2026-04-18T19:35:09.615Z</time></trkpt><trkpt lat="10.3749803" lon="-75.5045159"><ele>6.0</ele><time>2026-04-18T19:35:10.695Z</time></trkpt><trkpt lat="10.3750623" lon="-75.5044817"><ele>6.0</ele><time>2026-04-18T19:35:11.614Z</time></trkpt><trkpt lat="10.3751485" lon="-75.5044485"><ele>6.0</ele><time>2026-04-18T19:35:12.619Z</time></trkpt><trkpt lat="10.3752274" lon="-75.5044217"><ele>6.0</ele><time>2026-04-18T19:35:13.614Z</time></trkpt><trkpt lat="10.3753129" lon="-75.5043939"><ele>6.0</ele><time>2026-04-18T19:35:14.611Z</time></trkpt><trkpt lat="10.3753947" lon="-75.5043596"><ele>6.0</ele><time>2026-04-18T19:35:15.608Z</time></trkpt><trkpt lat="10.3754792" lon="-75.504328"><ele>6.0</ele><time>2026-04-18T19:35:16.608Z</time></trkpt><trkpt lat="10.3755556" lon="-75.5042975"><ele>6.0</ele><time>2026-04-18T19:35:17.692Z</time></trkpt><trkpt lat="10.3756383" lon="-75.5042651"><ele>5.833333333333333</ele><time>2026-04-18T19:35:18.614Z</time></trkpt><trkpt lat="10.3757194" lon="-75.5042362"><ele>5.666666666666667</ele><time>2026-04-18T19:35:19.609Z</time></trkpt><trkpt lat="10.3757993" lon="-75.5042108"><ele>5.5</ele><time>2026-04-18T19:35:20.614Z</time></trkpt><trkpt lat="10.3758763" lon="-75.504184"><ele>5.333333333333334</ele><time>2026-04-18T19:35:21.609Z</time></trkpt><trkpt lat="10.3759534" lon="-75.5041604"><ele>5.166666666666667</ele><time>2026-04-18T19:35:22.612Z</time></trkpt><trkpt lat="10.3760293" lon="-75.5041376"><ele>5.0</ele><time>2026-04-18T19:35:23.613Z</time></trkpt><trkpt lat="10.3760984" lon="-75.5041133"><ele>5.0</ele><time>2026-04-18T19:35:24.611Z</time></trkpt><trkpt lat="10.3761664" lon="-75.5040871"><ele>5.0</ele><time>2026-04-18T19:35:25.611Z</time></trkpt><trkpt lat="10.3762395" lon="-75.5040597"><ele>5.0</ele><time>2026-04-18T19:35:26.611Z</time></trkpt><trkpt lat="10.3763127" lon="-75.5040335"><ele>5.0</ele><time>2026-04-18T19:35:27.614Z</time></trkpt><trkpt lat="10.3763894" lon="-75.5040042"><ele>5.0</ele><time>2026-04-18T19:35:28.607Z</time></trkpt><trkpt lat="10.3764733" lon="-75.5039761"><ele>5.0</ele><time>2026-04-18T19:35:29.607Z</time></trkpt><trkpt lat="10.3765538" lon="-75.5039476"><ele>4.833333333333334</ele><time>2026-04-18T19:35:30.613Z</time></trkpt><trkpt lat="10.3766306" lon="-75.5039197"><ele>4.666666666666667</ele><time>2026-04-18T19:35:31.613Z</time></trkpt><trkpt lat="10.3767067" lon="-75.503891"><ele>4.5</ele><time>2026-04-18T19:35:32.608Z</time></trkpt><trkpt lat="10.37678" lon="-75.5038639"><ele>4.333333333333333</ele><time>2026-04-18T19:35:33.61Z</time></trkpt><trkpt lat="10.3768548" lon="-75.5038338"><ele>4.166666666666666</ele><time>2026-04-18T19:35:34.615Z</time></trkpt><trkpt lat="10.3769325" lon="-75.5038048"><ele>4.0</ele><time>2026-04-18T19:35:35.612Z</time></trkpt><trkpt lat="10.3770135" lon="-75.5037767"><ele>4.333333333333333</ele><time>2026-04-18T19:35:36.613Z</time></trkpt><trkpt lat="10.3770996" lon="-75.5037464"><ele>4.666666666666666</ele><time>2026-04-18T19:35:37.61Z</time></trkpt><trkpt lat="10.3771825" lon="-75.5037133"><ele>5.0</ele><time>2026-04-18T19:35:38.616Z</time></trkpt><trkpt lat="10.3772662" lon="-75.5036828"><ele>5.333333333333333</ele><time>2026-04-18T19:35:39.613Z</time></trkpt><trkpt lat="10.3773462" lon="-75.5036487"><ele>5.666666666666667</ele><time>2026-04-18T19:35:40.612Z</time></trkpt><trkpt lat="10.3774231" lon="-75.5036148"><ele>6.0</ele><time>2026-04-18T19:35:41.611Z</time></trkpt><trkpt lat="10.3775005" lon="-75.5035854"><ele>6.0</ele><time>2026-04-18T19:35:42.612Z</time></trkpt><trkpt lat="10.377579" lon="-75.5035563"><ele>6.0</ele><time>2026-04-18T19:35:43.615Z</time></trkpt><trkpt lat="10.3776497" lon="-75.5035231"><ele>6.0</ele><time>2026-04-18T19:35:44.613Z</time></trkpt><trkpt lat="10.3777229" lon="-75.5034869"><ele>6.0</ele><time>2026-04-18T19:35:45.612Z</time></trkpt><trkpt lat="10.3777908" lon="-75.5034555"><ele>6.0</ele><time>2026-04-18T19:35:46.61Z</time></trkpt><trkpt lat="10.37785" lon="-75.5034299"><ele>6.0</ele><time>2026-04-18T19:35:47.614Z</time></trkpt><trkpt lat="10.3779527" lon="-75.5033891"><ele>6.0</ele><time>2026-04-18T19:35:49.612Z</time></trkpt><trkpt lat="10.3780441" lon="-75.5033513"><ele>5.0</ele><time>2026-04-18T19:35:51.614Z</time></trkpt><trkpt lat="10.3781197" lon="-75.5033074"><ele>5.0</ele><time>2026-04-18T19:35:53.614Z</time></trkpt><trkpt lat="10.3781753" lon="-75.5032696"><ele>5.0</ele><time>2026-04-18T19:35:56.614Z</time></trkpt></trkseg></trk></gpx>